<?xml version='1.0' encoding='UTF-8'?><gpx version="1.1" creator="JPX - https://github.com/jenetics/jpx" xmlns="http://www.topografix.com/GPX/1/1"><trk><trkseg><trkpt lat="43.853885" lon="11.1665317"><ele>57.0</ele><time>2026-04-30T07:26:35.836Z</time></trkpt><trkpt lat="43.853875" lon="11.1664017"><ele>57.0</ele><time>2026-04-30T07:26:41.336Z</time></trkpt><trkpt lat="43.8538117" lon="11.1663383"><ele>57.0</ele><time>2026-04-30T07:26:45.336Z</time></trkpt><trkpt lat="43.8538367" lon="11.16642"><ele>57.0</ele><time>2026-04-30T07:26:50.336Z</time></trkpt><trkpt lat="43.85376" lon="11.1665017"><ele>57.0</ele><time>2026-04-30T07:29:06.336Z</time></trkpt><trkpt lat="43.8536667" lon="11.166535"><ele>57.0</ele><time>2026-04-30T07:29:08.335Z</time></trkpt><trkpt lat="43.8536033" lon="11.1665767"><ele>57.0</ele><time>2026-04-30T07:29:10.336Z</time></trkpt><trkpt lat="43.8535283" lon="11.1665833"><ele>57.0</ele><time>2026-04-30T07:29:12.335Z</time></trkpt><trkpt lat="43.85342" lon="11.1665183"><ele>57.0</ele><time>2026-04-30T07:29:14.336Z</time></trkpt><trkpt lat="43.853355" lon="11.166465"><ele>57.0</ele><time>2026-04-30T07:29:15.336Z</time></trkpt><trkpt lat="43.8532733" lon="11.1663933"><ele>57.0</ele><time>2026-04-30T07:29:16.336Z</time></trkpt><trkpt lat="43.8531883" lon="11.1663167"><ele>56.6</ele><time>2026-04-30T07:29:17.336Z</time></trkpt><trkpt lat="43.8530983" lon="11.1662367"><ele>56.2</ele><time>2026-04-30T07:29:18.336Z</time></trkpt><trkpt lat="43.8530033" lon="11.1661567"><ele>55.8</ele><time>2026-04-30T07:29:19.336Z</time></trkpt><trkpt lat="43.85291" lon="11.1660633"><ele>55.4</ele><time>2026-04-30T07:29:20.335Z</time></trkpt><trkpt lat="43.8528117" lon="11.16598"><ele>55.0</ele><time>2026-04-30T07:29:21.335Z</time></trkpt><trkpt lat="43.85272" lon="11.1658967"><ele>55.0</ele><time>2026-04-30T07:29:22.336Z</time></trkpt><trkpt lat="43.8526233" lon="11.1658117"><ele>55.0</ele><time>2026-04-30T07:29:23.335Z</time></trkpt><trkpt lat="43.8525283" lon="11.1657217"><ele>55.0</ele><time>2026-04-30T07:29:24.335Z</time></trkpt><trkpt lat="43.8524433" lon="11.165645"><ele>55.0</ele><time>2026-04-30T07:29:25.336Z</time></trkpt><trkpt lat="43.8523633" lon="11.1655633"><ele>55.0</ele><time>2026-04-30T07:29:26.336Z</time></trkpt><trkpt lat="43.8522817" lon="11.1654883"><ele>54.83333333333333</ele><time>2026-04-30T07:29:27.336Z</time></trkpt><trkpt lat="43.8522017" lon="11.1654117"><ele>54.666666666666664</ele><time>2026-04-30T07:29:28.335Z</time></trkpt><trkpt lat="43.8521233" lon="11.1653533"><ele>54.5</ele><time>2026-04-30T07:29:29.336Z</time></trkpt><trkpt lat="43.8520633" lon="11.1653"><ele>54.33333333333333</ele><time>2026-04-30T07:29:30.336Z</time></trkpt><trkpt lat="43.8519717" lon="11.1651983"><ele>54.166666666666664</ele><time>2026-04-30T07:29:32.336Z</time></trkpt><trkpt lat="43.8519183" lon="11.1651267"><ele>54.0</ele><time>2026-04-30T07:29:34.335Z</time></trkpt><trkpt lat="43.851905" lon="11.1650083"><ele>54.0</ele><time>2026-04-30T07:29:37.336Z</time></trkpt><trkpt lat="43.85192" lon="11.1649217"><ele>54.0</ele><time>2026-04-30T07:29:38.335Z</time></trkpt><trkpt lat="43.85195" lon="11.1648233"><ele>54.0</ele><time>2026-04-30T07:29:39.335Z</time></trkpt><trkpt lat="43.8519917" lon="11.1647033"><ele>54.0</ele><time>2026-04-30T07:29:40.335Z</time></trkpt><trkpt lat="43.852045" lon="11.164585"><ele>54.0</ele><time>2026-04-30T07:29:41.335Z</time></trkpt><trkpt lat="43.852095" lon="11.1644717"><ele>54.0</ele><time>2026-04-30T07:29:42.335Z</time></trkpt><trkpt lat="43.85216" lon="11.1643583"><ele>54.0</ele><time>2026-04-30T07:29:43.335Z</time></trkpt><trkpt lat="43.85223" lon="11.1642583"><ele>54.00000000000001</ele><time>2026-04-30T07:29:44.335Z</time></trkpt><trkpt lat="43.852315" lon="11.1641883"><ele>54.00000000000001</ele><time>2026-04-30T07:29:45.335Z</time></trkpt><trkpt lat="43.8524017" lon="11.1641367"><ele>54.0</ele><time>2026-04-30T07:29:46.335Z</time></trkpt><trkpt lat="43.8524967" lon="11.16409"><ele>54.0</ele><time>2026-04-30T07:29:47.335Z</time></trkpt><trkpt lat="43.8525767" lon="11.16404"><ele>53.833333333333336</ele><time>2026-04-30T07:29:48.335Z</time></trkpt><trkpt lat="43.85263" lon="11.16397"><ele>53.66666666666667</ele><time>2026-04-30T07:29:49.335Z</time></trkpt><trkpt lat="43.8526767" lon="11.1638617"><ele>53.5</ele><time>2026-04-30T07:29:50.335Z</time></trkpt><trkpt lat="43.8527033" lon="11.1637583"><ele>53.333333333333336</ele><time>2026-04-30T07:29:51.334Z</time></trkpt><trkpt lat="43.852735" lon="11.1636333"><ele>53.16666666666667</ele><time>2026-04-30T07:29:52.335Z</time></trkpt><trkpt lat="43.8527683" lon="11.1635183"><ele>53.0</ele><time>2026-04-30T07:29:53.335Z</time></trkpt><trkpt lat="43.8527933" lon="11.16341"><ele>53.00000000000001</ele><time>2026-04-30T07:29:54.335Z</time></trkpt><trkpt lat="43.8528033" lon="11.1633067"><ele>53.0</ele><time>2026-04-30T07:29:55.335Z</time></trkpt><trkpt lat="43.85279" lon="11.1632117"><ele>53.0</ele><time>2026-04-30T07:29:56.335Z</time></trkpt><trkpt lat="43.8527517" lon="11.1631217"><ele>53.0</ele><time>2026-04-30T07:29:57.334Z</time></trkpt><trkpt lat="43.85269" lon="11.1630583"><ele>53.00000000000001</ele><time>2026-04-30T07:29:58.335Z</time></trkpt><trkpt lat="43.8526167" lon="11.1630217"><ele>53.0</ele><time>2026-04-30T07:29:59.335Z</time></trkpt><trkpt lat="43.8525383" lon="11.1630317"><ele>53.00000000000001</ele><time>2026-04-30T07:30:00.335Z</time></trkpt><trkpt lat="43.8524717" lon="11.16308"><ele>53.0</ele><time>2026-04-30T07:30:01.335Z</time></trkpt><trkpt lat="43.852405" lon="11.1631667"><ele>53.0</ele><time>2026-04-30T07:30:02.334Z</time></trkpt><trkpt lat="43.852365" lon="11.163275"><ele>53.0</ele><time>2026-04-30T07:30:03.334Z</time></trkpt><trkpt lat="43.852335" lon="11.1633967"><ele>53.00000000000001</ele><time>2026-04-30T07:30:04.335Z</time></trkpt><trkpt lat="43.8523" lon="11.163515"><ele>53.0</ele><time>2026-04-30T07:30:05.335Z</time></trkpt><trkpt lat="43.8522633" lon="11.1636233"><ele>52.8</ele><time>2026-04-30T07:30:06.335Z</time></trkpt><trkpt lat="43.8522217" lon="11.1637267"><ele>52.599999999999994</ele><time>2026-04-30T07:30:07.335Z</time></trkpt><trkpt lat="43.8521767" lon="11.163845"><ele>52.400000000000006</ele><time>2026-04-30T07:30:08.335Z</time></trkpt><trkpt lat="43.8521283" lon="11.1639767"><ele>52.2</ele><time>2026-04-30T07:30:09.335Z</time></trkpt><trkpt lat="43.8520767" lon="11.164115"><ele>52.0</ele><time>2026-04-30T07:30:10.335Z</time></trkpt><trkpt lat="43.85202" lon="11.1642683"><ele>52.400000000000006</ele><time>2026-04-30T07:30:11.335Z</time></trkpt><trkpt lat="43.85197" lon="11.16442"><ele>52.800000000000004</ele><time>2026-04-30T07:30:12.335Z</time></trkpt><trkpt lat="43.8519233" lon="11.1645667"><ele>53.2</ele><time>2026-04-30T07:30:13.335Z</time></trkpt><trkpt lat="43.8518767" lon="11.1646967"><ele>53.6</ele><time>2026-04-30T07:30:14.335Z</time></trkpt><trkpt lat="43.8518317" lon="11.1648183"><ele>54.0</ele><time>2026-04-30T07:30:15.335Z</time></trkpt><trkpt lat="43.851795" lon="11.164925"><ele>53.666666666666664</ele><time>2026-04-30T07:30:16.335Z</time></trkpt><trkpt lat="43.8517583" lon="11.1650117"><ele>53.33333333333333</ele><time>2026-04-30T07:30:17.335Z</time></trkpt><trkpt lat="43.8517133" lon="11.165085"><ele>53.0</ele><time>2026-04-30T07:30:18.335Z</time></trkpt><trkpt lat="43.85166" lon="11.1651467"><ele>52.666666666666664</ele><time>2026-04-30T07:30:19.334Z</time></trkpt><trkpt lat="43.85159" lon="11.1651833"><ele>52.33333333333333</ele><time>2026-04-30T07:30:20.334Z</time></trkpt><trkpt lat="43.8515" lon="11.1652"><ele>52.0</ele><time>2026-04-30T07:30:21.334Z</time></trkpt><trkpt lat="43.8514117" lon="11.16522"><ele>52.0</ele><time>2026-04-30T07:30:22.335Z</time></trkpt><trkpt lat="43.8513333" lon="11.1652783"><ele>52.0</ele><time>2026-04-30T07:30:23.334Z</time></trkpt><trkpt lat="43.8512667" lon="11.1653717"><ele>52.0</ele><time>2026-04-30T07:30:24.334Z</time></trkpt><trkpt lat="43.8512267" lon="11.165495"><ele>52.0</ele><time>2026-04-30T07:30:25.335Z</time></trkpt><trkpt lat="43.8511867" lon="11.1656267"><ele>52.0</ele><time>2026-04-30T07:30:26.335Z</time></trkpt><trkpt lat="43.85115" lon="11.1657533"><ele>52.49999999999999</ele><time>2026-04-30T07:30:27.334Z</time></trkpt><trkpt lat="43.851115" lon="11.1658683"><ele>53.0</ele><time>2026-04-30T07:30:28.335Z</time></trkpt><trkpt lat="43.8510883" lon="11.165965"><ele>53.5</ele><time>2026-04-30T07:30:29.335Z</time></trkpt><trkpt lat="43.8510567" lon="11.16605"><ele>54.0</ele><time>2026-04-30T07:30:30.334Z</time></trkpt><trkpt lat="43.85103" lon="11.1661317"><ele>54.49999999999999</ele><time>2026-04-30T07:30:31.335Z</time></trkpt><trkpt lat="43.8510183" lon="11.1662783"><ele>55.0</ele><time>2026-04-30T07:30:33.334Z</time></trkpt><trkpt lat="43.8510767" lon="11.1664133"><ele>54.99999999999999</ele><time>2026-04-30T07:30:35.335Z</time></trkpt><trkpt lat="43.85118" lon="11.1665067"><ele>55.0</ele><time>2026-04-30T07:30:37.335Z</time></trkpt><trkpt lat="43.85125" lon="11.166535"><ele>55.0</ele><time>2026-04-30T07:30:38.335Z</time></trkpt><trkpt lat="43.8513283" lon="11.16657"><ele>55.0</ele><time>2026-04-30T07:30:39.335Z</time></trkpt><trkpt lat="43.8513983" lon="11.1666267"><ele>54.99999999999999</ele><time>2026-04-30T07:30:40.335Z</time></trkpt><trkpt lat="43.8514583" lon="11.1666883"><ele>55.0</ele><time>2026-04-30T07:30:41.335Z</time></trkpt><trkpt lat="43.8515133" lon="11.1667683"><ele>55.33333333333333</ele><time>2026-04-30T07:30:42.335Z</time></trkpt><trkpt lat="43.85157" lon="11.16685"><ele>55.666666666666664</ele><time>2026-04-30T07:30:43.334Z</time></trkpt><trkpt lat="43.8516217" lon="11.1669333"><ele>56.0</ele><time>2026-04-30T07:30:44.335Z</time></trkpt><trkpt lat="43.8516617" lon="11.1670417"><ele>56.33333333333333</ele><time>2026-04-30T07:30:45.335Z</time></trkpt><trkpt lat="43.8516817" lon="11.16715"><ele>56.666666666666664</ele><time>2026-04-30T07:30:46.335Z</time></trkpt><trkpt lat="43.8517033" lon="11.1672633"><ele>57.0</ele><time>2026-04-30T07:30:47.335Z</time></trkpt><trkpt lat="43.8517217" lon="11.1673483"><ele>57.0</ele><time>2026-04-30T07:30:48.334Z</time></trkpt><trkpt lat="43.8517367" lon="11.16744"><ele>57.0</ele><time>2026-04-30T07:30:49.334Z</time></trkpt><trkpt lat="43.8517533" lon="11.1675783"><ele>57.0</ele><time>2026-04-30T07:30:51.335Z</time></trkpt><trkpt lat="43.8517733" lon="11.1676833"><ele>57.0</ele><time>2026-04-30T07:31:16.335Z</time></trkpt><trkpt lat="43.851795" lon="11.1678333"><ele>57.0</ele><time>2026-04-30T07:31:18.334Z</time></trkpt><trkpt lat="43.8518083" lon="11.167955"><ele>57.0</ele><time>2026-04-30T07:31:19.335Z</time></trkpt><trkpt lat="43.8518217" lon="11.168065"><ele>57.0</ele><time>2026-04-30T07:31:20.334Z</time></trkpt><trkpt lat="43.8518283" lon="11.16816"><ele>57.0</ele><time>2026-04-30T07:31:21.334Z</time></trkpt><trkpt lat="43.85184" lon="11.1682467"><ele>57.0</ele><time>2026-04-30T07:31:22.335Z</time></trkpt><trkpt lat="43.8518433" lon="11.168425"><ele>57.0</ele><time>2026-04-30T07:31:24.335Z</time></trkpt><trkpt lat="43.85186" lon="11.16853"><ele>57.0</ele><time>2026-04-30T07:31:25.335Z</time></trkpt><trkpt lat="43.8518683" lon="11.1686417"><ele>57.0</ele><time>2026-04-30T07:31:26.335Z</time></trkpt><trkpt lat="43.8518717" lon="11.16875"><ele>57.0</ele><time>2026-04-30T07:31:27.335Z</time></trkpt><trkpt lat="43.851865" lon="11.1688567"><ele>57.0</ele><time>2026-04-30T07:31:28.334Z</time></trkpt><trkpt lat="43.8518667" lon="11.1689683"><ele>57.0</ele><time>2026-04-30T07:31:29.335Z</time></trkpt><trkpt lat="43.8518667" lon="11.1691"><ele>57.0</ele><time>2026-04-30T07:31:30.335Z</time></trkpt><trkpt lat="43.85189" lon="11.1692133"><ele>57.0</ele><time>2026-04-30T07:31:31.334Z</time></trkpt><trkpt lat="43.8519367" lon="11.1693333"><ele>57.0</ele><time>2026-04-30T07:31:32.335Z</time></trkpt><trkpt lat="43.8519983" lon="11.16944"><ele>57.25</ele><time>2026-04-30T07:31:33.335Z</time></trkpt><trkpt lat="43.8520683" lon="11.169575"><ele>57.5</ele><time>2026-04-30T07:31:34.334Z</time></trkpt><trkpt lat="43.8521333" lon="11.1697383"><ele>57.75</ele><time>2026-04-30T07:31:35.335Z</time></trkpt><trkpt lat="43.852185" lon="11.1699067"><ele>58.0</ele><time>2026-04-30T07:31:36.335Z</time></trkpt><trkpt lat="43.8522133" lon="11.1701"><ele>58.0</ele><time>2026-04-30T07:31:37.334Z</time></trkpt><trkpt lat="43.8522483" lon="11.1702967"><ele>58.0</ele><time>2026-04-30T07:31:38.335Z</time></trkpt><trkpt lat="43.8522833" lon="11.1705083"><ele>58.0</ele><time>2026-04-30T07:31:39.334Z</time></trkpt><trkpt lat="43.8523133" lon="11.17072"><ele>58.666666666666664</ele><time>2026-04-30T07:31:40.335Z</time></trkpt><trkpt lat="43.8523467" lon="11.1709317"><ele>59.33333333333333</ele><time>2026-04-30T07:31:41.335Z</time></trkpt><trkpt lat="43.8523833" lon="11.1711367"><ele>60.0</ele><time>2026-04-30T07:31:42.334Z</time></trkpt><trkpt lat="43.8524267" lon="11.1713383"><ele>60.5</ele><time>2026-04-30T07:31:43.334Z</time></trkpt><trkpt lat="43.8524467" lon="11.1715383"><ele>61.0</ele><time>2026-04-30T07:31:44.335Z</time></trkpt><trkpt lat="43.8524417" lon="11.1717333"><ele>61.5</ele><time>2026-04-30T07:31:45.335Z</time></trkpt><trkpt lat="43.8524083" lon="11.17191"><ele>62.0</ele><time>2026-04-30T07:31:46.335Z</time></trkpt><trkpt lat="43.8523483" lon="11.172075"><ele>62.0</ele><time>2026-04-30T07:31:47.334Z</time></trkpt><trkpt lat="43.8522617" lon="11.17223"><ele>62.0</ele><time>2026-04-30T07:31:48.335Z</time></trkpt><trkpt lat="43.8521533" lon="11.1723467"><ele>62.0</ele><time>2026-04-30T07:31:49.334Z</time></trkpt><trkpt lat="43.85203" lon="11.1724267"><ele>62.0</ele><time>2026-04-30T07:31:50.335Z</time></trkpt><trkpt lat="43.8518883" lon="11.1724783"><ele>61.333333333333336</ele><time>2026-04-30T07:31:51.335Z</time></trkpt><trkpt lat="43.8517367" lon="11.1725067"><ele>60.66666666666667</ele><time>2026-04-30T07:31:52.335Z</time></trkpt><trkpt lat="43.85158" lon="11.1725083"><ele>60.0</ele><time>2026-04-30T07:31:53.335Z</time></trkpt><trkpt lat="43.8514183" lon="11.1724833"><ele>60.0</ele><time>2026-04-30T07:31:54.334Z</time></trkpt><trkpt lat="43.851255" lon="11.1724367"><ele>60.0</ele><time>2026-04-30T07:31:55.335Z</time></trkpt><trkpt lat="43.8510967" lon="11.1723683"><ele>60.0</ele><time>2026-04-30T07:31:56.334Z</time></trkpt><trkpt lat="43.8509533" lon="11.1722783"><ele>59.33333333333333</ele><time>2026-04-30T07:31:57.335Z</time></trkpt><trkpt lat="43.85081" lon="11.1721667"><ele>58.666666666666664</ele><time>2026-04-30T07:31:58.335Z</time></trkpt><trkpt lat="43.8506683" lon="11.17203"><ele>58.0</ele><time>2026-04-30T07:31:59.335Z</time></trkpt><trkpt lat="43.8505333" lon="11.1718917"><ele>58.0</ele><time>2026-04-30T07:32:00.334Z</time></trkpt><trkpt lat="43.8503733" lon="11.1717617"><ele>58.0</ele><time>2026-04-30T07:32:01.335Z</time></trkpt><trkpt lat="43.850205" lon="11.1716433"><ele>58.0</ele><time>2026-04-30T07:32:02.335Z</time></trkpt><trkpt lat="43.8500183" lon="11.1714983"><ele>57.666666666666664</ele><time>2026-04-30T07:32:03.335Z</time></trkpt><trkpt lat="43.8498283" lon="11.1713583"><ele>57.33333333333333</ele><time>2026-04-30T07:32:04.335Z</time></trkpt><trkpt lat="43.849625" lon="11.1712117"><ele>57.0</ele><time>2026-04-30T07:32:05.335Z</time></trkpt><trkpt lat="43.8494233" lon="11.1710467"><ele>57.0</ele><time>2026-04-30T07:32:06.335Z</time></trkpt><trkpt lat="43.8492117" lon="11.17087"><ele>57.0</ele><time>2026-04-30T07:32:07.335Z</time></trkpt><trkpt lat="43.8489967" lon="11.1707"><ele>58.0</ele><time>2026-04-30T07:32:08.334Z</time></trkpt><trkpt lat="43.8487867" lon="11.1705283"><ele>59.0</ele><time>2026-04-30T07:32:09.335Z</time></trkpt><trkpt lat="43.8485833" lon="11.1703483"><ele>58.5</ele><time>2026-04-30T07:32:10.334Z</time></trkpt><trkpt lat="43.8483717" lon="11.170175"><ele>58.0</ele><time>2026-04-30T07:32:11.334Z</time></trkpt><trkpt lat="43.8481583" lon="11.1700033"><ele>57.0</ele><time>2026-04-30T07:32:12.335Z</time></trkpt><trkpt lat="43.8479467" lon="11.16982"><ele>56.0</ele><time>2026-04-30T07:32:13.335Z</time></trkpt><trkpt lat="43.8477333" lon="11.1696383"><ele>55.0</ele><time>2026-04-30T07:32:14.335Z</time></trkpt><trkpt lat="43.8475183" lon="11.1694583"><ele>54.0</ele><time>2026-04-30T07:32:15.335Z</time></trkpt><trkpt lat="43.847305" lon="11.1692633"><ele>54.0</ele><time>2026-04-30T07:32:16.335Z</time></trkpt><trkpt lat="43.8470867" lon="11.1690717"><ele>54.0</ele><time>2026-04-30T07:32:17.335Z</time></trkpt><trkpt lat="43.8468717" lon="11.1688933"><ele>53.0</ele><time>2026-04-30T07:32:18.335Z</time></trkpt><trkpt lat="43.8466533" lon="11.1687117"><ele>52.0</ele><time>2026-04-30T07:32:19.335Z</time></trkpt><trkpt lat="43.8464283" lon="11.1685233"><ele>52.0</ele><time>2026-04-30T07:32:20.335Z</time></trkpt><trkpt lat="43.8462017" lon="11.1683383"><ele>52.0</ele><time>2026-04-30T07:32:21.335Z</time></trkpt><trkpt lat="43.8459733" lon="11.1681533"><ele>51.5</ele><time>2026-04-30T07:32:22.335Z</time></trkpt><trkpt lat="43.8457533" lon="11.16797"><ele>51.0</ele><time>2026-04-30T07:32:23.334Z</time></trkpt><trkpt lat="43.8455283" lon="11.167785"><ele>51.0</ele><time>2026-04-30T07:32:24.335Z</time></trkpt><trkpt lat="43.8453083" lon="11.167585"><ele>51.0</ele><time>2026-04-30T07:32:25.335Z</time></trkpt><trkpt lat="43.8450833" lon="11.16739"><ele>50.5</ele><time>2026-04-30T07:32:26.335Z</time></trkpt><trkpt lat="43.84485" lon="11.167185"><ele>50.0</ele><time>2026-04-30T07:32:27.335Z</time></trkpt><trkpt lat="43.8446117" lon="11.1669833"><ele>50.0</ele><time>2026-04-30T07:32:28.335Z</time></trkpt><trkpt lat="43.84437" lon="11.1667817"><ele>50.0</ele><time>2026-04-30T07:32:29.335Z</time></trkpt><trkpt lat="43.844125" lon="11.166575"><ele>49.0</ele><time>2026-04-30T07:32:30.335Z</time></trkpt><trkpt lat="43.84388" lon="11.1663683"><ele>48.0</ele><time>2026-04-30T07:32:31.335Z</time></trkpt><trkpt lat="43.843635" lon="11.1661583"><ele>48.0</ele><time>2026-04-30T07:32:32.335Z</time></trkpt><trkpt lat="43.84339" lon="11.1659417"><ele>48.0</ele><time>2026-04-30T07:32:33.335Z</time></trkpt><trkpt lat="43.8431417" lon="11.1657283"><ele>47.0</ele><time>2026-04-30T07:32:34.335Z</time></trkpt><trkpt lat="43.8428933" lon="11.165525"><ele>46.0</ele><time>2026-04-30T07:32:35.334Z</time></trkpt><trkpt lat="43.84265" lon="11.1653267"><ele>45.5</ele><time>2026-04-30T07:32:36.334Z</time></trkpt><trkpt lat="43.8424083" lon="11.1651167"><ele>45.0</ele><time>2026-04-30T07:32:37.335Z</time></trkpt><trkpt lat="43.8421567" lon="11.1649117"><ele>45.0</ele><time>2026-04-30T07:32:38.335Z</time></trkpt><trkpt lat="43.8419133" lon="11.1646967"><ele>45.0</ele><time>2026-04-30T07:32:39.335Z</time></trkpt><trkpt lat="43.84167" lon="11.1644817"><ele>45.0</ele><time>2026-04-30T07:32:40.335Z</time></trkpt><trkpt lat="43.8414283" lon="11.1642733"><ele>45.0</ele><time>2026-04-30T07:32:41.335Z</time></trkpt><trkpt lat="43.8411933" lon="11.16407"><ele>43.0</ele><time>2026-04-30T07:32:42.335Z</time></trkpt><trkpt lat="43.8409483" lon="11.1638583"><ele>41.0</ele><time>2026-04-30T07:32:43.335Z</time></trkpt><trkpt lat="43.8407117" lon="11.1636467"><ele>41.0</ele><time>2026-04-30T07:32:44.334Z</time></trkpt><trkpt lat="43.8404783" lon="11.163445"><ele>41.0</ele><time>2026-04-30T07:32:45.335Z</time></trkpt><trkpt lat="43.8402333" lon="11.16324"><ele>41.0</ele><time>2026-04-30T07:32:46.335Z</time></trkpt><trkpt lat="43.839995" lon="11.1630367"><ele>41.0</ele><time>2026-04-30T07:32:47.335Z</time></trkpt><trkpt lat="43.8397533" lon="11.1628383"><ele>41.0</ele><time>2026-04-30T07:32:48.335Z</time></trkpt><trkpt lat="43.8395117" lon="11.1626367"><ele>41.0</ele><time>2026-04-30T07:32:49.334Z</time></trkpt><trkpt lat="43.8392683" lon="11.1624283"><ele>41.5</ele><time>2026-04-30T07:32:50.335Z</time></trkpt><trkpt lat="43.83903" lon="11.1622183"><ele>42.0</ele><time>2026-04-30T07:32:51.335Z</time></trkpt><trkpt lat="43.83879" lon="11.1620033"><ele>42.0</ele><time>2026-04-30T07:32:52.334Z</time></trkpt><trkpt lat="43.8385517" lon="11.1617967"><ele>42.0</ele><time>2026-04-30T07:32:53.335Z</time></trkpt><trkpt lat="43.83831" lon="11.1616067"><ele>43.0</ele><time>2026-04-30T07:32:54.335Z</time></trkpt><trkpt lat="43.838075" lon="11.1614"><ele>44.0</ele><time>2026-04-30T07:32:55.335Z</time></trkpt><trkpt lat="43.8378433" lon="11.16121"><ele>43.0</ele><time>2026-04-30T07:32:56.334Z</time></trkpt><trkpt lat="43.8376183" lon="11.161025"><ele>42.0</ele><time>2026-04-30T07:32:57.334Z</time></trkpt><trkpt lat="43.8373983" lon="11.1608183"><ele>41.5</ele><time>2026-04-30T07:32:58.335Z</time></trkpt><trkpt lat="43.8371633" lon="11.1606317"><ele>41.0</ele><time>2026-04-30T07:32:59.335Z</time></trkpt><trkpt lat="43.8369333" lon="11.160435"><ele>41.0</ele><time>2026-04-30T07:33:00.334Z</time></trkpt><trkpt lat="43.8367017" lon="11.16024"><ele>41.0</ele><time>2026-04-30T07:33:01.334Z</time></trkpt><trkpt lat="43.8364617" lon="11.1600433"><ele>40.5</ele><time>2026-04-30T07:33:02.334Z</time></trkpt><trkpt lat="43.8362167" lon="11.1598417"><ele>40.0</ele><time>2026-04-30T07:33:03.335Z</time></trkpt><trkpt lat="43.8359717" lon="11.1596333"><ele>38.5</ele><time>2026-04-30T07:33:04.335Z</time></trkpt><trkpt lat="43.83573" lon="11.15943"><ele>37.0</ele><time>2026-04-30T07:33:05.334Z</time></trkpt><trkpt lat="43.8354883" lon="11.1592117"><ele>37.0</ele><time>2026-04-30T07:33:06.335Z</time></trkpt><trkpt lat="43.8352483" lon="11.158995"><ele>37.0</ele><time>2026-04-30T07:33:07.334Z</time></trkpt><trkpt lat="43.8350083" lon="11.1587717"><ele>37.0</ele><time>2026-04-30T07:33:08.335Z</time></trkpt><trkpt lat="43.8347617" lon="11.1585517"><ele>37.0</ele><time>2026-04-30T07:33:09.335Z</time></trkpt><trkpt lat="43.8345183" lon="11.15833"><ele>38.0</ele><time>2026-04-30T07:33:10.335Z</time></trkpt><trkpt lat="43.8342683" lon="11.15812"><ele>39.0</ele><time>2026-04-30T07:33:11.335Z</time></trkpt><trkpt lat="43.8340233" lon="11.157915"><ele>39.0</ele><time>2026-04-30T07:33:12.335Z</time></trkpt><trkpt lat="43.8337833" lon="11.1577067"><ele>39.0</ele><time>2026-04-30T07:33:13.335Z</time></trkpt><trkpt lat="43.8335333" lon="11.1575033"><ele>38.0</ele><time>2026-04-30T07:33:14.335Z</time></trkpt><trkpt lat="43.8333017" lon="11.1572967"><ele>37.0</ele><time>2026-04-30T07:33:15.335Z</time></trkpt><trkpt lat="43.8330617" lon="11.1570983"><ele>37.0</ele><time>2026-04-30T07:33:16.334Z</time></trkpt><trkpt lat="43.8328333" lon="11.1568867"><ele>37.0</ele><time>2026-04-30T07:33:17.335Z</time></trkpt><trkpt lat="43.832605" lon="11.1567067"><ele>38.5</ele><time>2026-04-30T07:33:18.335Z</time></trkpt><trkpt lat="43.8323883" lon="11.1565183"><ele>40.0</ele><time>2026-04-30T07:33:19.334Z</time></trkpt><trkpt lat="43.8321867" lon="11.1563467"><ele>40.0</ele><time>2026-04-30T07:33:20.335Z</time></trkpt><trkpt lat="43.8319983" lon="11.15618"><ele>40.0</ele><time>2026-04-30T07:33:21.335Z</time></trkpt><trkpt lat="43.8318167" lon="11.1560217"><ele>40.0</ele><time>2026-04-30T07:33:22.334Z</time></trkpt><trkpt lat="43.8316433" lon="11.1558783"><ele>40.333333333333336</ele><time>2026-04-30T07:33:23.334Z</time></trkpt><trkpt lat="43.8314733" lon="11.155735"><ele>40.666666666666664</ele><time>2026-04-30T07:33:24.334Z</time></trkpt><trkpt lat="43.83131" lon="11.1555967"><ele>41.0</ele><time>2026-04-30T07:33:25.335Z</time></trkpt><trkpt lat="43.8311533" lon="11.1554617"><ele>40.33333333333333</ele><time>2026-04-30T07:33:26.335Z</time></trkpt><trkpt lat="43.8309983" lon="11.1553383"><ele>39.666666666666664</ele><time>2026-04-30T07:33:27.334Z</time></trkpt><trkpt lat="43.8308583" lon="11.1552183"><ele>39.0</ele><time>2026-04-30T07:33:28.335Z</time></trkpt><trkpt lat="43.8307183" lon="11.1551"><ele>39.0</ele><time>2026-04-30T07:33:29.335Z</time></trkpt><trkpt lat="43.8305817" lon="11.1549817"><ele>39.0</ele><time>2026-04-30T07:33:30.335Z</time></trkpt><trkpt lat="43.8304417" lon="11.1548583"><ele>39.0</ele><time>2026-04-30T07:33:31.335Z</time></trkpt><trkpt lat="43.8303083" lon="11.1547383"><ele>39.0</ele><time>2026-04-30T07:33:32.334Z</time></trkpt><trkpt lat="43.8301783" lon="11.1546217"><ele>39.0</ele><time>2026-04-30T07:33:33.335Z</time></trkpt><trkpt lat="43.8300483" lon="11.15451"><ele>39.0</ele><time>2026-04-30T07:33:34.335Z</time></trkpt><trkpt lat="43.8299183" lon="11.154395"><ele>39.0</ele><time>2026-04-30T07:33:35.334Z</time></trkpt><trkpt lat="43.82979" lon="11.1542817"><ele>39.0</ele><time>2026-04-30T07:33:36.335Z</time></trkpt><trkpt lat="43.82967" lon="11.1541733"><ele>39.0</ele><time>2026-04-30T07:33:37.335Z</time></trkpt><trkpt lat="43.8295517" lon="11.1540717"><ele>39.0</ele><time>2026-04-30T07:33:38.334Z</time></trkpt><trkpt lat="43.8294333" lon="11.1539833"><ele>39.0</ele><time>2026-04-30T07:33:39.335Z</time></trkpt><trkpt lat="43.8293133" lon="11.153895"><ele>39.0</ele><time>2026-04-30T07:33:40.335Z</time></trkpt><trkpt lat="43.8291933" lon="11.1537983"><ele>39.0</ele><time>2026-04-30T07:33:41.335Z</time></trkpt><trkpt lat="43.829075" lon="11.153695"><ele>39.0</ele><time>2026-04-30T07:33:42.335Z</time></trkpt><trkpt lat="43.8289533" lon="11.1535933"><ele>39.333333333333336</ele><time>2026-04-30T07:33:43.335Z</time></trkpt><trkpt lat="43.8288233" lon="11.15349"><ele>39.66666666666667</ele><time>2026-04-30T07:33:44.334Z</time></trkpt><trkpt lat="43.8286883" lon="11.1533933"><ele>40.0</ele><time>2026-04-30T07:33:45.334Z</time></trkpt><trkpt lat="43.8285567" lon="11.1532917"><ele>39.5</ele><time>2026-04-30T07:33:46.335Z</time></trkpt><trkpt lat="43.8284283" lon="11.15319"><ele>39.0</ele><time>2026-04-30T07:33:47.335Z</time></trkpt><trkpt lat="43.8283033" lon="11.1531067"><ele>38.5</ele><time>2026-04-30T07:33:48.334Z</time></trkpt><trkpt lat="43.8281817" lon="11.1530117"><ele>38.0</ele><time>2026-04-30T07:33:49.335Z</time></trkpt><trkpt lat="43.8280617" lon="11.1529183"><ele>38.0</ele><time>2026-04-30T07:33:50.334Z</time></trkpt><trkpt lat="43.8279283" lon="11.15283"><ele>38.0</ele><time>2026-04-30T07:33:51.334Z</time></trkpt><trkpt lat="43.827795" lon="11.1527317"><ele>38.0</ele><time>2026-04-30T07:33:52.335Z</time></trkpt><trkpt lat="43.8276667" lon="11.152655"><ele>38.0</ele><time>2026-04-30T07:33:53.335Z</time></trkpt><trkpt lat="43.82755" lon="11.15258"><ele>38.0</ele><time>2026-04-30T07:33:54.335Z</time></trkpt><trkpt lat="43.82743" lon="11.1525067"><ele>38.0</ele><time>2026-04-30T07:33:55.335Z</time></trkpt><trkpt lat="43.8273117" lon="11.1524317"><ele>38.0</ele><time>2026-04-30T07:33:56.335Z</time></trkpt><trkpt lat="43.82718" lon="11.15236"><ele>38.0</ele><time>2026-04-30T07:33:57.335Z</time></trkpt><trkpt lat="43.8270433" lon="11.1522983"><ele>37.75</ele><time>2026-04-30T07:33:58.335Z</time></trkpt><trkpt lat="43.8269067" lon="11.1522267"><ele>37.5</ele><time>2026-04-30T07:33:59.335Z</time></trkpt><trkpt lat="43.8267783" lon="11.1521733"><ele>37.25</ele><time>2026-04-30T07:34:00.335Z</time></trkpt><trkpt lat="43.8266617" lon="11.1521217"><ele>37.0</ele><time>2026-04-30T07:34:01.335Z</time></trkpt><trkpt lat="43.8265567" lon="11.1520717"><ele>37.0</ele><time>2026-04-30T07:34:02.335Z</time></trkpt><trkpt lat="43.82646" lon="11.15203"><ele>37.0</ele><time>2026-04-30T07:34:03.335Z</time></trkpt><trkpt lat="43.8263667" lon="11.151995"><ele>37.0</ele><time>2026-04-30T07:34:04.335Z</time></trkpt><trkpt lat="43.8262667" lon="11.1519517"><ele>37.0</ele><time>2026-04-30T07:34:05.335Z</time></trkpt><trkpt lat="43.8261567" lon="11.1519017"><ele>37.0</ele><time>2026-04-30T07:34:06.335Z</time></trkpt><trkpt lat="43.8260417" lon="11.1518633"><ele>37.2</ele><time>2026-04-30T07:34:07.335Z</time></trkpt><trkpt lat="43.8259367" lon="11.151825"><ele>37.400000000000006</ele><time>2026-04-30T07:34:08.335Z</time></trkpt><trkpt lat="43.82583" lon="11.151795"><ele>37.599999999999994</ele><time>2026-04-30T07:34:09.335Z</time></trkpt><trkpt lat="43.8257233" lon="11.1517583"><ele>37.8</ele><time>2026-04-30T07:34:10.335Z</time></trkpt><trkpt lat="43.8256283" lon="11.1517167"><ele>38.0</ele><time>2026-04-30T07:34:11.334Z</time></trkpt><trkpt lat="43.825535" lon="11.15169"><ele>38.0</ele><time>2026-04-30T07:34:12.335Z</time></trkpt><trkpt lat="43.82543" lon="11.15167"><ele>38.0</ele><time>2026-04-30T07:34:13.334Z</time></trkpt><trkpt lat="43.8253283" lon="11.1516483"><ele>38.0</ele><time>2026-04-30T07:34:14.335Z</time></trkpt><trkpt lat="43.82523" lon="11.1516233"><ele>38.0</ele><time>2026-04-30T07:34:15.335Z</time></trkpt><trkpt lat="43.8251333" lon="11.1516067"><ele>38.0</ele><time>2026-04-30T07:34:16.335Z</time></trkpt><trkpt lat="43.8250433" lon="11.1515967"><ele>38.0</ele><time>2026-04-30T07:34:17.335Z</time></trkpt><trkpt lat="43.8249583" lon="11.1515817"><ele>38.0</ele><time>2026-04-30T07:34:18.334Z</time></trkpt><trkpt lat="43.824875" lon="11.1515717"><ele>38.0</ele><time>2026-04-30T07:34:19.335Z</time></trkpt><trkpt lat="43.8247833" lon="11.1515617"><ele>38.0</ele><time>2026-04-30T07:34:20.335Z</time></trkpt><trkpt lat="43.8246883" lon="11.1515517"><ele>38.0</ele><time>2026-04-30T07:34:21.334Z</time></trkpt><trkpt lat="43.8245967" lon="11.15154"><ele>38.0</ele><time>2026-04-30T07:34:22.335Z</time></trkpt><trkpt lat="43.8245183" lon="11.15154"><ele>38.0</ele><time>2026-04-30T07:34:23.335Z</time></trkpt><trkpt lat="43.82445" lon="11.151535"><ele>38.0</ele><time>2026-04-30T07:34:24.334Z</time></trkpt><trkpt lat="43.824355" lon="11.1515283"><ele>38.0</ele><time>2026-04-30T07:34:26.335Z</time></trkpt><trkpt lat="43.8242617" lon="11.15151"><ele>38.0</ele><time>2026-04-30T07:34:28.334Z</time></trkpt><trkpt lat="43.8241933" lon="11.1515"><ele>38.0</ele><time>2026-04-30T07:34:29.335Z</time></trkpt><trkpt lat="43.8241117" lon="11.1514933"><ele>38.0</ele><time>2026-04-30T07:34:30.335Z</time></trkpt><trkpt lat="43.8240417" lon="11.1514817"><ele>37.666666666666664</ele><time>2026-04-30T07:34:31.335Z</time></trkpt><trkpt lat="43.8239667" lon="11.1514783"><ele>37.33333333333333</ele><time>2026-04-30T07:34:32.334Z</time></trkpt><trkpt lat="43.8238917" lon="11.15147"><ele>37.0</ele><time>2026-04-30T07:34:33.335Z</time></trkpt><trkpt lat="43.8238133" lon="11.1514583"><ele>36.666666666666664</ele><time>2026-04-30T07:34:34.334Z</time></trkpt><trkpt lat="43.8237233" lon="11.1514683"><ele>36.333333333333336</ele><time>2026-04-30T07:34:35.335Z</time></trkpt><trkpt lat="43.82362" lon="11.1514767"><ele>36.0</ele><time>2026-04-30T07:34:36.335Z</time></trkpt><trkpt lat="43.8234983" lon="11.15146"><ele>36.0</ele><time>2026-04-30T07:34:37.335Z</time></trkpt><trkpt lat="43.823365" lon="11.1514583"><ele>36.0</ele><time>2026-04-30T07:34:38.335Z</time></trkpt><trkpt lat="43.8232333" lon="11.1514633"><ele>36.0</ele><time>2026-04-30T07:34:39.335Z</time></trkpt><trkpt lat="43.8231167" lon="11.1514717"><ele>36.0</ele><time>2026-04-30T07:34:40.335Z</time></trkpt><trkpt lat="43.8230183" lon="11.1514767"><ele>36.0</ele><time>2026-04-30T07:34:41.335Z</time></trkpt><trkpt lat="43.8229367" lon="11.151485"><ele>36.0</ele><time>2026-04-30T07:34:42.334Z</time></trkpt><trkpt lat="43.8228617" lon="11.1514867"><ele>36.0</ele><time>2026-04-30T07:34:43.334Z</time></trkpt><trkpt lat="43.82278" lon="11.1514883"><ele>36.0</ele><time>2026-04-30T07:34:44.334Z</time></trkpt><trkpt lat="43.8226867" lon="11.1514783"><ele>36.0</ele><time>2026-04-30T07:34:45.335Z</time></trkpt><trkpt lat="43.8225967" lon="11.1514767"><ele>36.0</ele><time>2026-04-30T07:34:46.334Z</time></trkpt><trkpt lat="43.8225033" lon="11.1514783"><ele>35.8</ele><time>2026-04-30T07:34:47.334Z</time></trkpt><trkpt lat="43.8223983" lon="11.15148"><ele>35.6</ele><time>2026-04-30T07:34:48.335Z</time></trkpt><trkpt lat="43.8222867" lon="11.15148"><ele>35.4</ele><time>2026-04-30T07:34:49.335Z</time></trkpt><trkpt lat="43.8221733" lon="11.151475"><ele>35.2</ele><time>2026-04-30T07:34:50.335Z</time></trkpt><trkpt lat="43.8220617" lon="11.15147"><ele>35.0</ele><time>2026-04-30T07:34:51.335Z</time></trkpt><trkpt lat="43.821955" lon="11.1514717"><ele>35.0</ele><time>2026-04-30T07:34:52.335Z</time></trkpt><trkpt lat="43.8218533" lon="11.1514683"><ele>35.0</ele><time>2026-04-30T07:34:53.335Z</time></trkpt><trkpt lat="43.8217533" lon="11.1514683"><ele>35.0</ele><time>2026-04-30T07:34:54.335Z</time></trkpt><trkpt lat="43.8216533" lon="11.1514683"><ele>35.0</ele><time>2026-04-30T07:34:55.334Z</time></trkpt><trkpt lat="43.8215467" lon="11.15147"><ele>35.0</ele><time>2026-04-30T07:34:56.335Z</time></trkpt><trkpt lat="43.821435" lon="11.15147"><ele>35.0</ele><time>2026-04-30T07:34:57.335Z</time></trkpt><trkpt lat="43.8213283" lon="11.1514667"><ele>35.0</ele><time>2026-04-30T07:34:58.335Z</time></trkpt><trkpt lat="43.8212183" lon="11.1514633"><ele>35.0</ele><time>2026-04-30T07:34:59.335Z</time></trkpt><trkpt lat="43.8211033" lon="11.151455"><ele>35.0</ele><time>2026-04-30T07:35:00.335Z</time></trkpt><trkpt lat="43.8209933" lon="11.1514517"><ele>35.0</ele><time>2026-04-30T07:35:01.334Z</time></trkpt><trkpt lat="43.82087" lon="11.151445"><ele>35.25</ele><time>2026-04-30T07:35:02.335Z</time></trkpt><trkpt lat="43.8207517" lon="11.151445"><ele>35.5</ele><time>2026-04-30T07:35:03.335Z</time></trkpt><trkpt lat="43.820625" lon="11.1514467"><ele>35.75</ele><time>2026-04-30T07:35:04.334Z</time></trkpt><trkpt lat="43.8204917" lon="11.1514467"><ele>36.0</ele><time>2026-04-30T07:35:05.334Z</time></trkpt><trkpt lat="43.82035" lon="11.1514417"><ele>36.0</ele><time>2026-04-30T07:35:06.335Z</time></trkpt><trkpt lat="43.820195" lon="11.15144"><ele>36.0</ele><time>2026-04-30T07:35:07.335Z</time></trkpt><trkpt lat="43.8200333" lon="11.15143"><ele>36.0</ele><time>2026-04-30T07:35:08.334Z</time></trkpt><trkpt lat="43.8198717" lon="11.15143"><ele>36.0</ele><time>2026-04-30T07:35:09.335Z</time></trkpt><trkpt lat="43.8197067" lon="11.151425"><ele>36.0</ele><time>2026-04-30T07:35:10.335Z</time></trkpt><trkpt lat="43.8195367" lon="11.1514233"><ele>36.0</ele><time>2026-04-30T07:35:11.335Z</time></trkpt><trkpt lat="43.8193617" lon="11.1514167"><ele>36.333333333333336</ele><time>2026-04-30T07:35:12.334Z</time></trkpt><trkpt lat="43.8191817" lon="11.151415"><ele>36.66666666666667</ele><time>2026-04-30T07:35:13.334Z</time></trkpt><trkpt lat="43.8190033" lon="11.1514233"><ele>37.0</ele><time>2026-04-30T07:35:14.334Z</time></trkpt><trkpt lat="43.8188267" lon="11.15142"><ele>37.0</ele><time>2026-04-30T07:35:15.334Z</time></trkpt><trkpt lat="43.8186333" lon="11.1514117"><ele>37.0</ele><time>2026-04-30T07:35:16.335Z</time></trkpt><trkpt lat="43.8184433" lon="11.1514117"><ele>37.0</ele><time>2026-04-30T07:35:17.335Z</time></trkpt><trkpt lat="43.8182483" lon="11.15141"><ele>36.0</ele><time>2026-04-30T07:35:18.335Z</time></trkpt><trkpt lat="43.81806" lon="11.1514083"><ele>35.0</ele><time>2026-04-30T07:35:19.334Z</time></trkpt><trkpt lat="43.8178817" lon="11.1514067"><ele>34.0</ele><time>2026-04-30T07:35:20.334Z</time></trkpt><trkpt lat="43.81771" lon="11.1514017"><ele>34.333333333333336</ele><time>2026-04-30T07:35:21.335Z</time></trkpt><trkpt lat="43.8175517" lon="11.15139"><ele>34.666666666666664</ele><time>2026-04-30T07:35:22.334Z</time></trkpt><trkpt lat="43.817395" lon="11.1513867"><ele>35.0</ele><time>2026-04-30T07:35:23.334Z</time></trkpt><trkpt lat="43.8172383" lon="11.1513767"><ele>35.0</ele><time>2026-04-30T07:35:24.335Z</time></trkpt><trkpt lat="43.8170817" lon="11.1513667"><ele>35.0</ele><time>2026-04-30T07:35:25.334Z</time></trkpt><trkpt lat="43.816925" lon="11.1513633"><ele>35.0</ele><time>2026-04-30T07:35:26.335Z</time></trkpt><trkpt lat="43.816765" lon="11.1513567"><ele>35.666666666666664</ele><time>2026-04-30T07:35:27.335Z</time></trkpt><trkpt lat="43.81661" lon="11.15134"><ele>36.333333333333336</ele><time>2026-04-30T07:35:28.335Z</time></trkpt><trkpt lat="43.8164583" lon="11.1513283"><ele>37.0</ele><time>2026-04-30T07:35:29.334Z</time></trkpt><trkpt lat="43.81631" lon="11.15133"><ele>37.0</ele><time>2026-04-30T07:35:30.335Z</time></trkpt><trkpt lat="43.8161633" lon="11.151325"><ele>37.0</ele><time>2026-04-30T07:35:31.334Z</time></trkpt><trkpt lat="43.8160233" lon="11.1513367"><ele>37.0</ele><time>2026-04-30T07:35:32.335Z</time></trkpt><trkpt lat="43.81588" lon="11.15134"><ele>37.0</ele><time>2026-04-30T07:35:33.334Z</time></trkpt><trkpt lat="43.8157367" lon="11.151345"><ele>36.0</ele><time>2026-04-30T07:35:34.335Z</time></trkpt><trkpt lat="43.8155867" lon="11.15134"><ele>35.0</ele><time>2026-04-30T07:35:35.335Z</time></trkpt><trkpt lat="43.8154317" lon="11.1513367"><ele>34.0</ele><time>2026-04-30T07:35:36.334Z</time></trkpt><trkpt lat="43.81528" lon="11.1513367"><ele>34.0</ele><time>2026-04-30T07:35:37.335Z</time></trkpt><trkpt lat="43.8151233" lon="11.1513417"><ele>34.0</ele><time>2026-04-30T07:35:38.335Z</time></trkpt><trkpt lat="43.814975" lon="11.1513483"><ele>34.0</ele><time>2026-04-30T07:35:39.335Z</time></trkpt><trkpt lat="43.814835" lon="11.1513433"><ele>34.0</ele><time>2026-04-30T07:35:40.334Z</time></trkpt><trkpt lat="43.8147033" lon="11.151345"><ele>34.0</ele><time>2026-04-30T07:35:41.335Z</time></trkpt><trkpt lat="43.8145817" lon="11.15135"><ele>34.0</ele><time>2026-04-30T07:35:42.334Z</time></trkpt><trkpt lat="43.8144617" lon="11.1513567"><ele>34.0</ele><time>2026-04-30T07:35:43.334Z</time></trkpt><trkpt lat="43.8143367" lon="11.1513533"><ele>34.0</ele><time>2026-04-30T07:35:44.335Z</time></trkpt><trkpt lat="43.8142183" lon="11.1513583"><ele>34.0</ele><time>2026-04-30T07:35:45.335Z</time></trkpt><trkpt lat="43.8141117" lon="11.1513533"><ele>34.0</ele><time>2026-04-30T07:35:46.335Z</time></trkpt><trkpt lat="43.8140117" lon="11.1513517"><ele>34.0</ele><time>2026-04-30T07:35:47.335Z</time></trkpt><trkpt lat="43.8139183" lon="11.1513533"><ele>34.0</ele><time>2026-04-30T07:35:48.335Z</time></trkpt><trkpt lat="43.8138367" lon="11.1513517"><ele>34.0</ele><time>2026-04-30T07:35:49.335Z</time></trkpt><trkpt lat="43.813755" lon="11.15135"><ele>34.0</ele><time>2026-04-30T07:35:50.335Z</time></trkpt><trkpt lat="43.81367" lon="11.1513417"><ele>34.0</ele><time>2026-04-30T07:35:51.335Z</time></trkpt><trkpt lat="43.8135767" lon="11.1513267"><ele>34.0</ele><time>2026-04-30T07:35:52.334Z</time></trkpt><trkpt lat="43.8134833" lon="11.15131"><ele>34.0</ele><time>2026-04-30T07:35:53.335Z</time></trkpt><trkpt lat="43.8133917" lon="11.1513033"><ele>34.0</ele><time>2026-04-30T07:35:54.334Z</time></trkpt><trkpt lat="43.8132933" lon="11.1513"><ele>34.0</ele><time>2026-04-30T07:35:55.335Z</time></trkpt><trkpt lat="43.8131883" lon="11.1513033"><ele>34.0</ele><time>2026-04-30T07:35:56.335Z</time></trkpt><trkpt lat="43.81307" lon="11.1513233"><ele>34.0</ele><time>2026-04-30T07:35:57.335Z</time></trkpt><trkpt lat="43.812935" lon="11.1513467"><ele>34.0</ele><time>2026-04-30T07:35:58.335Z</time></trkpt><trkpt lat="43.81279" lon="11.1513717"><ele>34.333333333333336</ele><time>2026-04-30T07:35:59.334Z</time></trkpt><trkpt lat="43.81264" lon="11.1513983"><ele>34.666666666666664</ele><time>2026-04-30T07:36:00.335Z</time></trkpt><trkpt lat="43.81249" lon="11.1514333"><ele>35.0</ele><time>2026-04-30T07:36:01.335Z</time></trkpt><trkpt lat="43.8123283" lon="11.1514633"><ele>35.0</ele><time>2026-04-30T07:36:02.335Z</time></trkpt><trkpt lat="43.81217" lon="11.1515017"><ele>35.0</ele><time>2026-04-30T07:36:03.335Z</time></trkpt><trkpt lat="43.8120117" lon="11.15154"><ele>35.0</ele><time>2026-04-30T07:36:04.335Z</time></trkpt><trkpt lat="43.8118433" lon="11.15158"><ele>34.666666666666664</ele><time>2026-04-30T07:36:05.335Z</time></trkpt><trkpt lat="43.8116717" lon="11.15162"><ele>34.333333333333336</ele><time>2026-04-30T07:36:06.335Z</time></trkpt><trkpt lat="43.8115083" lon="11.151665"><ele>34.0</ele><time>2026-04-30T07:36:07.335Z</time></trkpt><trkpt lat="43.8113383" lon="11.1517217"><ele>34.0</ele><time>2026-04-30T07:36:08.334Z</time></trkpt><trkpt lat="43.8111667" lon="11.15178"><ele>34.0</ele><time>2026-04-30T07:36:09.335Z</time></trkpt><trkpt lat="43.8109983" lon="11.1518367"><ele>34.0</ele><time>2026-04-30T07:36:10.335Z</time></trkpt><trkpt lat="43.8108333" lon="11.151895"><ele>34.0</ele><time>2026-04-30T07:36:11.335Z</time></trkpt><trkpt lat="43.8106583" lon="11.1519567"><ele>34.0</ele><time>2026-04-30T07:36:12.335Z</time></trkpt><trkpt lat="43.8104933" lon="11.15201"><ele>34.0</ele><time>2026-04-30T07:36:13.334Z</time></trkpt><trkpt lat="43.8103183" lon="11.15207"><ele>35.333333333333336</ele><time>2026-04-30T07:36:14.335Z</time></trkpt><trkpt lat="43.8101383" lon="11.15212"><ele>36.666666666666664</ele><time>2026-04-30T07:36:15.335Z</time></trkpt><trkpt lat="43.809965" lon="11.1521767"><ele>38.0</ele><time>2026-04-30T07:36:16.335Z</time></trkpt><trkpt lat="43.8097867" lon="11.1522317"><ele>38.0</ele><time>2026-04-30T07:36:17.335Z</time></trkpt><trkpt lat="43.8096017" lon="11.1522883"><ele>38.0</ele><time>2026-04-30T07:36:18.335Z</time></trkpt><trkpt lat="43.8094183" lon="11.1523417"><ele>38.0</ele><time>2026-04-30T07:36:19.335Z</time></trkpt><trkpt lat="43.809235" lon="11.1524017"><ele>37.33333333333333</ele><time>2026-04-30T07:36:20.334Z</time></trkpt><trkpt lat="43.8090467" lon="11.1524633"><ele>36.666666666666664</ele><time>2026-04-30T07:36:21.335Z</time></trkpt><trkpt lat="43.8088617" lon="11.1525183"><ele>36.0</ele><time>2026-04-30T07:36:22.335Z</time></trkpt><trkpt lat="43.8086767" lon="11.15257"><ele>35.333333333333336</ele><time>2026-04-30T07:36:23.335Z</time></trkpt><trkpt lat="43.8084917" lon="11.1526283"><ele>34.66666666666667</ele><time>2026-04-30T07:36:24.335Z</time></trkpt><trkpt lat="43.808295" lon="11.15268"><ele>34.0</ele><time>2026-04-30T07:36:25.335Z</time></trkpt><trkpt lat="43.8080967" lon="11.1527333"><ele>34.0</ele><time>2026-04-30T07:36:26.335Z</time></trkpt><trkpt lat="43.8079033" lon="11.1527833"><ele>34.0</ele><time>2026-04-30T07:36:27.335Z</time></trkpt><trkpt lat="43.8077033" lon="11.1528417"><ele>34.0</ele><time>2026-04-30T07:36:28.335Z</time></trkpt><trkpt lat="43.8074917" lon="11.152895"><ele>34.0</ele><time>2026-04-30T07:36:29.335Z</time></trkpt><trkpt lat="43.8072767" lon="11.15295"><ele>34.0</ele><time>2026-04-30T07:36:30.334Z</time></trkpt><trkpt lat="43.8070583" lon="11.1530033"><ele>34.0</ele><time>2026-04-30T07:36:31.335Z</time></trkpt><trkpt lat="43.8068467" lon="11.1530533"><ele>33.66666666666667</ele><time>2026-04-30T07:36:32.334Z</time></trkpt><trkpt lat="43.806635" lon="11.153115"><ele>33.333333333333336</ele><time>2026-04-30T07:36:33.335Z</time></trkpt><trkpt lat="43.806415" lon="11.1531783"><ele>33.0</ele><time>2026-04-30T07:36:34.335Z</time></trkpt><trkpt lat="43.8061967" lon="11.1532383"><ele>33.333333333333336</ele><time>2026-04-30T07:36:35.335Z</time></trkpt><trkpt lat="43.8059817" lon="11.1533033"><ele>33.66666666666667</ele><time>2026-04-30T07:36:36.335Z</time></trkpt><trkpt lat="43.8057583" lon="11.153365"><ele>34.0</ele><time>2026-04-30T07:36:37.335Z</time></trkpt><trkpt lat="43.8055383" lon="11.15343"><ele>34.0</ele><time>2026-04-30T07:36:38.334Z</time></trkpt><trkpt lat="43.80533" lon="11.15349"><ele>34.0</ele><time>2026-04-30T07:36:39.334Z</time></trkpt><trkpt lat="43.805125" lon="11.15354"><ele>34.0</ele><time>2026-04-30T07:36:40.334Z</time></trkpt><trkpt lat="43.8049317" lon="11.153595"><ele>35.0</ele><time>2026-04-30T07:36:41.334Z</time></trkpt><trkpt lat="43.804735" lon="11.1536517"><ele>36.0</ele><time>2026-04-30T07:36:42.335Z</time></trkpt><trkpt lat="43.8045333" lon="11.153715"><ele>37.0</ele><time>2026-04-30T07:36:43.335Z</time></trkpt><trkpt lat="43.8043317" lon="11.1537783"><ele>36.333333333333336</ele><time>2026-04-30T07:36:44.335Z</time></trkpt><trkpt lat="43.8041367" lon="11.1538283"><ele>35.666666666666664</ele><time>2026-04-30T07:36:45.335Z</time></trkpt><trkpt lat="43.8039517" lon="11.1538833"><ele>35.0</ele><time>2026-04-30T07:36:46.335Z</time></trkpt><trkpt lat="43.8037783" lon="11.153935"><ele>35.0</ele><time>2026-04-30T07:36:47.335Z</time></trkpt><trkpt lat="43.8035967" lon="11.153985"><ele>35.0</ele><time>2026-04-30T07:36:48.334Z</time></trkpt><trkpt lat="43.803415" lon="11.154045"><ele>35.0</ele><time>2026-04-30T07:36:49.334Z</time></trkpt><trkpt lat="43.803225" lon="11.1540967"><ele>34.666666666666664</ele><time>2026-04-30T07:36:50.335Z</time></trkpt><trkpt lat="43.803025" lon="11.1541517"><ele>34.333333333333336</ele><time>2026-04-30T07:36:51.334Z</time></trkpt><trkpt lat="43.80283" lon="11.1542017"><ele>34.0</ele><time>2026-04-30T07:36:52.334Z</time></trkpt><trkpt lat="43.8026283" lon="11.1542583"><ele>34.66666666666667</ele><time>2026-04-30T07:36:53.335Z</time></trkpt><trkpt lat="43.8024317" lon="11.1543133"><ele>35.333333333333336</ele><time>2026-04-30T07:36:54.335Z</time></trkpt><trkpt lat="43.8022383" lon="11.15437"><ele>36.0</ele><time>2026-04-30T07:36:55.335Z</time></trkpt><trkpt lat="43.8020583" lon="11.1544167"><ele>36.0</ele><time>2026-04-30T07:36:56.335Z</time></trkpt><trkpt lat="43.8018833" lon="11.1544667"><ele>36.0</ele><time>2026-04-30T07:36:57.335Z</time></trkpt><trkpt lat="43.8017017" lon="11.15452"><ele>36.0</ele><time>2026-04-30T07:36:58.334Z</time></trkpt><trkpt lat="43.8015133" lon="11.1545733"><ele>36.333333333333336</ele><time>2026-04-30T07:36:59.335Z</time></trkpt><trkpt lat="43.8013183" lon="11.154625"><ele>36.66666666666667</ele><time>2026-04-30T07:37:00.335Z</time></trkpt><trkpt lat="43.80112" lon="11.15468"><ele>37.0</ele><time>2026-04-30T07:37:01.335Z</time></trkpt><trkpt lat="43.80092" lon="11.15474"><ele>36.333333333333336</ele><time>2026-04-30T07:37:02.335Z</time></trkpt><trkpt lat="43.8007167" lon="11.154795"><ele>35.666666666666664</ele><time>2026-04-30T07:37:03.335Z</time></trkpt><trkpt lat="43.8005083" lon="11.1548533"><ele>35.0</ele><time>2026-04-30T07:37:04.335Z</time></trkpt><trkpt lat="43.8003" lon="11.1549083"><ele>35.33333333333333</ele><time>2026-04-30T07:37:05.335Z</time></trkpt><trkpt lat="43.8000917" lon="11.15497"><ele>35.666666666666664</ele><time>2026-04-30T07:37:06.335Z</time></trkpt><trkpt lat="43.7998817" lon="11.15503"><ele>36.0</ele><time>2026-04-30T07:37:07.334Z</time></trkpt><trkpt lat="43.7996783" lon="11.1550917"><ele>36.0</ele><time>2026-04-30T07:37:08.335Z</time></trkpt><trkpt lat="43.7994683" lon="11.15515"><ele>36.0</ele><time>2026-04-30T07:37:09.334Z</time></trkpt><trkpt lat="43.799265" lon="11.155205"><ele>36.0</ele><time>2026-04-30T07:37:10.335Z</time></trkpt><trkpt lat="43.79907" lon="11.1552567"><ele>35.666666666666664</ele><time>2026-04-30T07:37:11.335Z</time></trkpt><trkpt lat="43.7988767" lon="11.15531"><ele>35.33333333333333</ele><time>2026-04-30T07:37:12.335Z</time></trkpt><trkpt lat="43.7986867" lon="11.155365"><ele>35.0</ele><time>2026-04-30T07:37:13.335Z</time></trkpt><trkpt lat="43.7985033" lon="11.15542"><ele>35.33333333333333</ele><time>2026-04-30T07:37:14.335Z</time></trkpt><trkpt lat="43.798325" lon="11.1554717"><ele>35.666666666666664</ele><time>2026-04-30T07:37:15.335Z</time></trkpt><trkpt lat="43.798155" lon="11.1555183"><ele>36.0</ele><time>2026-04-30T07:37:16.334Z</time></trkpt><trkpt lat="43.79799" lon="11.155565"><ele>36.0</ele><time>2026-04-30T07:37:17.335Z</time></trkpt><trkpt lat="43.79783" lon="11.1556083"><ele>36.0</ele><time>2026-04-30T07:37:18.335Z</time></trkpt><trkpt lat="43.7976833" lon="11.1556417"><ele>36.0</ele><time>2026-04-30T07:37:19.335Z</time></trkpt><trkpt lat="43.797535" lon="11.1556783"><ele>36.0</ele><time>2026-04-30T07:37:20.335Z</time></trkpt><trkpt lat="43.7973933" lon="11.1557283"><ele>36.0</ele><time>2026-04-30T07:37:21.335Z</time></trkpt><trkpt lat="43.79725" lon="11.1557667"><ele>36.0</ele><time>2026-04-30T07:37:22.335Z</time></trkpt><trkpt lat="43.797105" lon="11.1558083"><ele>36.0</ele><time>2026-04-30T07:37:23.335Z</time></trkpt><trkpt lat="43.7969583" lon="11.1558533"><ele>35.666666666666664</ele><time>2026-04-30T07:37:24.335Z</time></trkpt><trkpt lat="43.7967967" lon="11.1558983"><ele>35.33333333333333</ele><time>2026-04-30T07:37:25.334Z</time></trkpt><trkpt lat="43.7966367" lon="11.1559417"><ele>35.0</ele><time>2026-04-30T07:37:26.335Z</time></trkpt><trkpt lat="43.79647" lon="11.1559867"><ele>35.0</ele><time>2026-04-30T07:37:27.335Z</time></trkpt><trkpt lat="43.7963017" lon="11.1560433"><ele>35.0</ele><time>2026-04-30T07:37:28.334Z</time></trkpt><trkpt lat="43.7961183" lon="11.15609"><ele>35.0</ele><time>2026-04-30T07:37:29.334Z</time></trkpt><trkpt lat="43.7959183" lon="11.1561317"><ele>35.0</ele><time>2026-04-30T07:37:30.335Z</time></trkpt><trkpt lat="43.7957133" lon="11.1561667"><ele>35.0</ele><time>2026-04-30T07:37:31.334Z</time></trkpt><trkpt lat="43.7955117" lon="11.156215"><ele>35.0</ele><time>2026-04-30T07:37:32.335Z</time></trkpt><trkpt lat="43.795305" lon="11.1562633"><ele>35.0</ele><time>2026-04-30T07:37:33.334Z</time></trkpt><trkpt lat="43.7950983" lon="11.1563"><ele>35.0</ele><time>2026-04-30T07:37:34.335Z</time></trkpt><trkpt lat="43.7948767" lon="11.1563483"><ele>35.0</ele><time>2026-04-30T07:37:35.335Z</time></trkpt><trkpt lat="43.7946433" lon="11.1564117"><ele>35.0</ele><time>2026-04-30T07:37:36.335Z</time></trkpt><trkpt lat="43.7944017" lon="11.1564767"><ele>35.0</ele><time>2026-04-30T07:37:37.334Z</time></trkpt><trkpt lat="43.7941567" lon="11.1565483"><ele>35.5</ele><time>2026-04-30T07:37:38.335Z</time></trkpt><trkpt lat="43.793915" lon="11.1566167"><ele>36.0</ele><time>2026-04-30T07:37:39.335Z</time></trkpt><trkpt lat="43.7936617" lon="11.1566867"><ele>37.5</ele><time>2026-04-30T07:37:40.335Z</time></trkpt><trkpt lat="43.793415" lon="11.1567583"><ele>39.0</ele><time>2026-04-30T07:37:41.335Z</time></trkpt><trkpt lat="43.7931767" lon="11.1568317"><ele>39.0</ele><time>2026-04-30T07:37:42.335Z</time></trkpt><trkpt lat="43.7929333" lon="11.1569"><ele>39.0</ele><time>2026-04-30T07:37:43.334Z</time></trkpt><trkpt lat="43.7927017" lon="11.1569683"><ele>37.5</ele><time>2026-04-30T07:37:44.335Z</time></trkpt><trkpt lat="43.79248" lon="11.1570417"><ele>36.0</ele><time>2026-04-30T07:37:45.334Z</time></trkpt><trkpt lat="43.79226" lon="11.1571133"><ele>36.0</ele><time>2026-04-30T07:37:46.335Z</time></trkpt><trkpt lat="43.7920433" lon="11.1571767"><ele>36.0</ele><time>2026-04-30T07:37:47.334Z</time></trkpt><trkpt lat="43.7918317" lon="11.1572367"><ele>36.0</ele><time>2026-04-30T07:37:48.334Z</time></trkpt><trkpt lat="43.7916283" lon="11.1572883"><ele>36.0</ele><time>2026-04-30T07:37:49.335Z</time></trkpt><trkpt lat="43.7914483" lon="11.1573383"><ele>36.0</ele><time>2026-04-30T07:37:50.335Z</time></trkpt><trkpt lat="43.7912633" lon="11.1574"><ele>36.0</ele><time>2026-04-30T07:37:51.335Z</time></trkpt><trkpt lat="43.7910783" lon="11.1574633"><ele>36.333333333333336</ele><time>2026-04-30T07:37:52.335Z</time></trkpt><trkpt lat="43.7908783" lon="11.15752"><ele>36.66666666666667</ele><time>2026-04-30T07:37:53.335Z</time></trkpt><trkpt lat="43.7906883" lon="11.15758"><ele>37.0</ele><time>2026-04-30T07:37:54.335Z</time></trkpt><trkpt lat="43.790495" lon="11.1576383"><ele>37.0</ele><time>2026-04-30T07:37:55.335Z</time></trkpt><trkpt lat="43.7903033" lon="11.1576917"><ele>37.0</ele><time>2026-04-30T07:37:56.335Z</time></trkpt><trkpt lat="43.7901033" lon="11.15774"><ele>37.0</ele><time>2026-04-30T07:37:57.335Z</time></trkpt><trkpt lat="43.789905" lon="11.1577983"><ele>37.0</ele><time>2026-04-30T07:37:58.334Z</time></trkpt><trkpt lat="43.7897033" lon="11.15786"><ele>37.0</ele><time>2026-04-30T07:37:59.335Z</time></trkpt><trkpt lat="43.789485" lon="11.1579117"><ele>37.0</ele><time>2026-04-30T07:38:00.335Z</time></trkpt><trkpt lat="43.7892767" lon="11.1579683"><ele>36.66666666666667</ele><time>2026-04-30T07:38:01.335Z</time></trkpt><trkpt lat="43.7890717" lon="11.1580267"><ele>36.333333333333336</ele><time>2026-04-30T07:38:02.334Z</time></trkpt><trkpt lat="43.7888667" lon="11.1580883"><ele>36.0</ele><time>2026-04-30T07:38:03.335Z</time></trkpt><trkpt lat="43.7886633" lon="11.15815"><ele>37.0</ele><time>2026-04-30T07:38:04.335Z</time></trkpt><trkpt lat="43.7884567" lon="11.1582183"><ele>38.0</ele><time>2026-04-30T07:38:05.334Z</time></trkpt><trkpt lat="43.7882617" lon="11.1582767"><ele>39.0</ele><time>2026-04-30T07:38:06.335Z</time></trkpt><trkpt lat="43.7880617" lon="11.1583317"><ele>39.0</ele><time>2026-04-30T07:38:07.335Z</time></trkpt><trkpt lat="43.7878717" lon="11.1583917"><ele>39.0</ele><time>2026-04-30T07:38:08.335Z</time></trkpt><trkpt lat="43.78769" lon="11.1584367"><ele>39.0</ele><time>2026-04-30T07:38:09.335Z</time></trkpt><trkpt lat="43.7875183" lon="11.1584833"><ele>38.666666666666664</ele><time>2026-04-30T07:38:10.335Z</time></trkpt><trkpt lat="43.78736" lon="11.158535"><ele>38.33333333333333</ele><time>2026-04-30T07:38:11.335Z</time></trkpt><trkpt lat="43.7872133" lon="11.1585733"><ele>38.0</ele><time>2026-04-30T07:38:12.335Z</time></trkpt><trkpt lat="43.7870667" lon="11.1586117"><ele>38.0</ele><time>2026-04-30T07:38:13.335Z</time></trkpt><trkpt lat="43.7869167" lon="11.15866"><ele>38.0</ele><time>2026-04-30T07:38:14.335Z</time></trkpt><trkpt lat="43.78676" lon="11.158705"><ele>38.0</ele><time>2026-04-30T07:38:15.335Z</time></trkpt><trkpt lat="43.7865967" lon="11.1587533"><ele>37.33333333333333</ele><time>2026-04-30T07:38:16.334Z</time></trkpt><trkpt lat="43.7864333" lon="11.1588033"><ele>36.666666666666664</ele><time>2026-04-30T07:38:17.335Z</time></trkpt><trkpt lat="43.78626" lon="11.1588533"><ele>36.0</ele><time>2026-04-30T07:38:18.335Z</time></trkpt><trkpt lat="43.7860817" lon="11.1588983"><ele>36.333333333333336</ele><time>2026-04-30T07:38:19.335Z</time></trkpt><trkpt lat="43.7859117" lon="11.1589333"><ele>36.66666666666667</ele><time>2026-04-30T07:38:20.335Z</time></trkpt><trkpt lat="43.7857433" lon="11.15898"><ele>37.0</ele><time>2026-04-30T07:38:21.334Z</time></trkpt><trkpt lat="43.7855633" lon="11.15903"><ele>37.333333333333336</ele><time>2026-04-30T07:38:22.335Z</time></trkpt><trkpt lat="43.7853867" lon="11.1590767"><ele>37.666666666666664</ele><time>2026-04-30T07:38:23.334Z</time></trkpt><trkpt lat="43.785185" lon="11.1591417"><ele>38.0</ele><time>2026-04-30T07:38:24.335Z</time></trkpt><trkpt lat="43.7849783" lon="11.1592033"><ele>38.0</ele><time>2026-04-30T07:38:25.335Z</time></trkpt><trkpt lat="43.78476" lon="11.15926"><ele>38.0</ele><time>2026-04-30T07:38:26.335Z</time></trkpt><trkpt lat="43.7845283" lon="11.1593167"><ele>37.5</ele><time>2026-04-30T07:38:27.335Z</time></trkpt><trkpt lat="43.784295" lon="11.159375"><ele>37.0</ele><time>2026-04-30T07:38:28.335Z</time></trkpt><trkpt lat="43.7840583" lon="11.1594417"><ele>37.0</ele><time>2026-04-30T07:38:29.335Z</time></trkpt><trkpt lat="43.78383" lon="11.1595083"><ele>37.0</ele><time>2026-04-30T07:38:30.335Z</time></trkpt><trkpt lat="43.783605" lon="11.159575"><ele>37.0</ele><time>2026-04-30T07:38:31.335Z</time></trkpt><trkpt lat="43.7833783" lon="11.1596417"><ele>37.0</ele><time>2026-04-30T07:38:32.334Z</time></trkpt><trkpt lat="43.7831533" lon="11.1597"><ele>37.0</ele><time>2026-04-30T07:38:33.335Z</time></trkpt><trkpt lat="43.78293" lon="11.1597633"><ele>37.0</ele><time>2026-04-30T07:38:34.335Z</time></trkpt><trkpt lat="43.7827083" lon="11.1598317"><ele>36.0</ele><time>2026-04-30T07:38:35.334Z</time></trkpt><trkpt lat="43.782485" lon="11.15989"><ele>35.0</ele><time>2026-04-30T07:38:36.335Z</time></trkpt><trkpt lat="43.7822633" lon="11.1599483"><ele>35.0</ele><time>2026-04-30T07:38:37.335Z</time></trkpt><trkpt lat="43.7820333" lon="11.1600133"><ele>35.0</ele><time>2026-04-30T07:38:38.335Z</time></trkpt><trkpt lat="43.7817933" lon="11.16009"><ele>34.5</ele><time>2026-04-30T07:38:39.335Z</time></trkpt><trkpt lat="43.7815383" lon="11.1601633"><ele>34.0</ele><time>2026-04-30T07:38:40.334Z</time></trkpt><trkpt lat="43.78128" lon="11.1602367"><ele>34.0</ele><time>2026-04-30T07:38:41.334Z</time></trkpt><trkpt lat="43.7810217" lon="11.16032"><ele>34.0</ele><time>2026-04-30T07:38:42.335Z</time></trkpt><trkpt lat="43.7807667" lon="11.1603967"><ele>35.0</ele><time>2026-04-30T07:38:43.334Z</time></trkpt><trkpt lat="43.7805083" lon="11.1604717"><ele>36.0</ele><time>2026-04-30T07:38:44.335Z</time></trkpt><trkpt lat="43.7802533" lon="11.1605417"><ele>35.0</ele><time>2026-04-30T07:38:45.335Z</time></trkpt><trkpt lat="43.78" lon="11.1606133"><ele>34.0</ele><time>2026-04-30T07:38:46.335Z</time></trkpt><trkpt lat="43.7797467" lon="11.160675"><ele>35.0</ele><time>2026-04-30T07:38:47.334Z</time></trkpt><trkpt lat="43.779495" lon="11.1607333"><ele>36.0</ele><time>2026-04-30T07:38:48.335Z</time></trkpt><trkpt lat="43.77925" lon="11.1608067"><ele>36.5</ele><time>2026-04-30T07:38:49.334Z</time></trkpt><trkpt lat="43.7790017" lon="11.1608783"><ele>37.0</ele><time>2026-04-30T07:38:50.335Z</time></trkpt><trkpt lat="43.77876" lon="11.1609417"><ele>36.0</ele><time>2026-04-30T07:38:51.335Z</time></trkpt><trkpt lat="43.7785133" lon="11.1610067"><ele>35.0</ele><time>2026-04-30T07:38:52.334Z</time></trkpt><trkpt lat="43.778265" lon="11.1610783"><ele>35.0</ele><time>2026-04-30T07:38:53.335Z</time></trkpt><trkpt lat="43.7780133" lon="11.1611533"><ele>35.0</ele><time>2026-04-30T07:38:54.335Z</time></trkpt><trkpt lat="43.7777767" lon="11.1612233"><ele>34.5</ele><time>2026-04-30T07:38:55.334Z</time></trkpt><trkpt lat="43.7775367" lon="11.1612933"><ele>34.0</ele><time>2026-04-30T07:38:56.334Z</time></trkpt><trkpt lat="43.7772917" lon="11.16135"><ele>34.0</ele><time>2026-04-30T07:38:57.334Z</time></trkpt><trkpt lat="43.777055" lon="11.1614167"><ele>34.0</ele><time>2026-04-30T07:38:58.334Z</time></trkpt><trkpt lat="43.7768183" lon="11.1614817"><ele>35.5</ele><time>2026-04-30T07:38:59.334Z</time></trkpt><trkpt lat="43.7765833" lon="11.161545"><ele>37.0</ele><time>2026-04-30T07:39:00.333Z</time></trkpt><trkpt lat="43.776345" lon="11.161615"><ele>37.0</ele><time>2026-04-30T07:39:01.334Z</time></trkpt><trkpt lat="43.7761067" lon="11.1616817"><ele>37.0</ele><time>2026-04-30T07:39:02.334Z</time></trkpt><trkpt lat="43.775865" lon="11.1617467"><ele>35.5</ele><time>2026-04-30T07:39:03.333Z</time></trkpt><trkpt lat="43.7756217" lon="11.1618167"><ele>34.0</ele><time>2026-04-30T07:39:04.333Z</time></trkpt><trkpt lat="43.7753783" lon="11.16189"><ele>34.5</ele><time>2026-04-30T07:39:05.334Z</time></trkpt><trkpt lat="43.7751417" lon="11.1619583"><ele>35.0</ele><time>2026-04-30T07:39:06.334Z</time></trkpt><trkpt lat="43.7748967" lon="11.16203"><ele>35.0</ele><time>2026-04-30T07:39:07.334Z</time></trkpt><trkpt lat="43.7746567" lon="11.1621067"><ele>35.0</ele><time>2026-04-30T07:39:08.334Z</time></trkpt><trkpt lat="43.7744167" lon="11.1621767"><ele>34.5</ele><time>2026-04-30T07:39:09.333Z</time></trkpt><trkpt lat="43.774175" lon="11.1622367"><ele>34.0</ele><time>2026-04-30T07:39:10.334Z</time></trkpt><trkpt lat="43.7739317" lon="11.1623067"><ele>33.5</ele><time>2026-04-30T07:39:11.334Z</time></trkpt><trkpt lat="43.7736833" lon="11.1623683"><ele>33.0</ele><time>2026-04-30T07:39:12.334Z</time></trkpt><trkpt lat="43.7734383" lon="11.162445"><ele>34.0</ele><time>2026-04-30T07:39:13.334Z</time></trkpt><trkpt lat="43.7731967" lon="11.16253"><ele>35.0</ele><time>2026-04-30T07:39:14.334Z</time></trkpt><trkpt lat="43.772955" lon="11.1626067"><ele>35.0</ele><time>2026-04-30T07:39:15.333Z</time></trkpt><trkpt lat="43.7727217" lon="11.1626783"><ele>35.0</ele><time>2026-04-30T07:39:16.334Z</time></trkpt><trkpt lat="43.77248" lon="11.1627817"><ele>35.0</ele><time>2026-04-30T07:39:17.333Z</time></trkpt><trkpt lat="43.7722367" lon="11.1628733"><ele>35.0</ele><time>2026-04-30T07:39:18.334Z</time></trkpt><trkpt lat="43.7720033" lon="11.1629733"><ele>35.5</ele><time>2026-04-30T07:39:19.334Z</time></trkpt><trkpt lat="43.7717733" lon="11.1630933"><ele>36.0</ele><time>2026-04-30T07:39:20.334Z</time></trkpt><trkpt lat="43.7715433" lon="11.1632233"><ele>37.0</ele><time>2026-04-30T07:39:21.334Z</time></trkpt><trkpt lat="43.771315" lon="11.1633417"><ele>38.0</ele><time>2026-04-30T07:39:22.334Z</time></trkpt><trkpt lat="43.7710883" lon="11.16347"><ele>37.0</ele><time>2026-04-30T07:39:23.333Z</time></trkpt><trkpt lat="43.770855" lon="11.1636017"><ele>36.0</ele><time>2026-04-30T07:39:24.334Z</time></trkpt><trkpt lat="43.7706117" lon="11.1637233"><ele>36.0</ele><time>2026-04-30T07:39:25.333Z</time></trkpt><trkpt lat="43.7703733" lon="11.1638767"><ele>36.0</ele><time>2026-04-30T07:39:26.334Z</time></trkpt><trkpt lat="43.770125" lon="11.16402"><ele>36.5</ele><time>2026-04-30T07:39:27.334Z</time></trkpt><trkpt lat="43.7699017" lon="11.1641783"><ele>37.0</ele><time>2026-04-30T07:39:28.334Z</time></trkpt><trkpt lat="43.7696733" lon="11.1643333"><ele>37.0</ele><time>2026-04-30T07:39:29.334Z</time></trkpt><trkpt lat="43.7694467" lon="11.164485"><ele>37.0</ele><time>2026-04-30T07:39:30.333Z</time></trkpt><trkpt lat="43.7692267" lon="11.1646367"><ele>38.5</ele><time>2026-04-30T07:39:31.334Z</time></trkpt><trkpt lat="43.769015" lon="11.1647833"><ele>40.0</ele><time>2026-04-30T07:39:32.334Z</time></trkpt><trkpt lat="43.7688033" lon="11.1649417"><ele>40.0</ele><time>2026-04-30T07:39:33.333Z</time></trkpt><trkpt lat="43.7685917" lon="11.1650967"><ele>40.0</ele><time>2026-04-30T07:39:34.334Z</time></trkpt><trkpt lat="43.7683733" lon="11.1652633"><ele>39.0</ele><time>2026-04-30T07:39:35.334Z</time></trkpt><trkpt lat="43.7681717" lon="11.165425"><ele>38.0</ele><time>2026-04-30T07:39:36.333Z</time></trkpt><trkpt lat="43.7679667" lon="11.165585"><ele>38.0</ele><time>2026-04-30T07:39:37.333Z</time></trkpt><trkpt lat="43.7677783" lon="11.165725"><ele>38.0</ele><time>2026-04-30T07:39:38.333Z</time></trkpt><trkpt lat="43.76758" lon="11.165855"><ele>38.0</ele><time>2026-04-30T07:39:39.334Z</time></trkpt><trkpt lat="43.76739" lon="11.1660033"><ele>38.0</ele><time>2026-04-30T07:39:40.334Z</time></trkpt><trkpt lat="43.7672033" lon="11.1661467"><ele>38.0</ele><time>2026-04-30T07:39:41.333Z</time></trkpt><trkpt lat="43.7670233" lon="11.1662733"><ele>38.0</ele><time>2026-04-30T07:39:42.334Z</time></trkpt><trkpt lat="43.7668483" lon="11.16639"><ele>38.0</ele><time>2026-04-30T07:39:43.334Z</time></trkpt><trkpt lat="43.76669" lon="11.1665083"><ele>38.0</ele><time>2026-04-30T07:39:44.333Z</time></trkpt><trkpt lat="43.76655" lon="11.1666083"><ele>38.0</ele><time>2026-04-30T07:39:45.333Z</time></trkpt><trkpt lat="43.7664133" lon="11.1667"><ele>38.0</ele><time>2026-04-30T07:39:46.334Z</time></trkpt><trkpt lat="43.766295" lon="11.166785"><ele>38.0</ele><time>2026-04-30T07:39:47.334Z</time></trkpt><trkpt lat="43.7662067" lon="11.1668633"><ele>38.0</ele><time>2026-04-30T07:39:48.334Z</time></trkpt><trkpt lat="43.7660967" lon="11.16696"><ele>38.0</ele><time>2026-04-30T07:39:49.334Z</time></trkpt><trkpt lat="43.7659783" lon="11.1670583"><ele>38.0</ele><time>2026-04-30T07:39:50.333Z</time></trkpt><trkpt lat="43.7658483" lon="11.167155"><ele>38.0</ele><time>2026-04-30T07:39:51.333Z</time></trkpt><trkpt lat="43.7657317" lon="11.1672633"><ele>38.0</ele><time>2026-04-30T07:39:52.333Z</time></trkpt><trkpt lat="43.7656067" lon="11.1673717"><ele>38.0</ele><time>2026-04-30T07:39:53.334Z</time></trkpt><trkpt lat="43.762285" lon="11.1692067"><ele>38.5</ele><time>2026-04-30T07:40:14.339Z</time></trkpt><trkpt lat="43.762165" lon="11.1692617"><ele>39.0</ele><time>2026-04-30T07:40:15.338Z</time></trkpt><trkpt lat="43.7620383" lon="11.169315"><ele>39.5</ele><time>2026-04-30T07:40:16.339Z</time></trkpt><trkpt lat="43.7619317" lon="11.1693567"><ele>40.0</ele><time>2026-04-30T07:40:17.339Z</time></trkpt><trkpt lat="43.7618367" lon="11.1693883"><ele>40.0</ele><time>2026-04-30T07:40:18.339Z</time></trkpt><trkpt lat="43.761735" lon="11.1694267"><ele>40.0</ele><time>2026-04-30T07:40:19.338Z</time></trkpt><trkpt lat="43.7616383" lon="11.1694583"><ele>40.0</ele><time>2026-04-30T07:40:20.338Z</time></trkpt><trkpt lat="43.76154" lon="11.169485"><ele>40.0</ele><time>2026-04-30T07:40:21.339Z</time></trkpt><trkpt lat="43.7614367" lon="11.1695167"><ele>40.0</ele><time>2026-04-30T07:40:22.339Z</time></trkpt><trkpt lat="43.76133" lon="11.16954"><ele>40.0</ele><time>2026-04-30T07:40:23.339Z</time></trkpt><trkpt lat="43.76123" lon="11.169565"><ele>40.0</ele><time>2026-04-30T07:40:24.339Z</time></trkpt><trkpt lat="43.761125" lon="11.169585"><ele>40.0</ele><time>2026-04-30T07:40:25.339Z</time></trkpt><trkpt lat="43.761015" lon="11.1696083"><ele>40.0</ele><time>2026-04-30T07:40:26.339Z</time></trkpt><trkpt lat="43.7609183" lon="11.1696433"><ele>40.0</ele><time>2026-04-30T07:40:27.339Z</time></trkpt><trkpt lat="43.7608233" lon="11.1696817"><ele>40.0</ele><time>2026-04-30T07:40:28.339Z</time></trkpt><trkpt lat="43.7607233" lon="11.1697117"><ele>40.0</ele><time>2026-04-30T07:40:29.339Z</time></trkpt><trkpt lat="43.76063" lon="11.1697283"><ele>40.0</ele><time>2026-04-30T07:40:30.338Z</time></trkpt><trkpt lat="43.7605017" lon="11.1697283"><ele>40.0</ele><time>2026-04-30T07:40:31.339Z</time></trkpt><trkpt lat="43.7603633" lon="11.1697783"><ele>40.0</ele><time>2026-04-30T07:40:32.339Z</time></trkpt><trkpt lat="43.7602217" lon="11.1698283"><ele>40.0</ele><time>2026-04-30T07:40:33.339Z</time></trkpt><trkpt lat="43.7600617" lon="11.1698633"><ele>40.0</ele><time>2026-04-30T07:40:34.339Z</time></trkpt><trkpt lat="43.7599017" lon="11.1698967"><ele>40.0</ele><time>2026-04-30T07:40:35.338Z</time></trkpt><trkpt lat="43.7597383" lon="11.169925"><ele>40.0</ele><time>2026-04-30T07:40:36.338Z</time></trkpt><trkpt lat="43.759565" lon="11.1699533"><ele>40.0</ele><time>2026-04-30T07:40:37.338Z</time></trkpt><trkpt lat="43.7593883" lon="11.1699967"><ele>40.66666666666667</ele><time>2026-04-30T07:40:38.339Z</time></trkpt><trkpt lat="43.7592033" lon="11.1700267"><ele>41.333333333333336</ele><time>2026-04-30T07:40:39.339Z</time></trkpt><trkpt lat="43.75902" lon="11.1700483"><ele>42.0</ele><time>2026-04-30T07:40:40.339Z</time></trkpt><trkpt lat="43.7588383" lon="11.1700767"><ele>42.0</ele><time>2026-04-30T07:40:41.339Z</time></trkpt><trkpt lat="43.7586583" lon="11.170125"><ele>42.0</ele><time>2026-04-30T07:40:42.339Z</time></trkpt><trkpt lat="43.7584717" lon="11.1701617"><ele>42.0</ele><time>2026-04-30T07:40:43.339Z</time></trkpt><trkpt lat="43.7582867" lon="11.1701967"><ele>41.666666666666664</ele><time>2026-04-30T07:40:44.339Z</time></trkpt><trkpt lat="43.7581017" lon="11.1702283"><ele>41.33333333333333</ele><time>2026-04-30T07:40:45.339Z</time></trkpt><trkpt lat="43.7579167" lon="11.17027"><ele>41.0</ele><time>2026-04-30T07:40:46.339Z</time></trkpt><trkpt lat="43.7577183" lon="11.1703"><ele>41.0</ele><time>2026-04-30T07:40:47.339Z</time></trkpt><trkpt lat="43.7575167" lon="11.170335"><ele>41.0</ele><time>2026-04-30T07:40:48.339Z</time></trkpt><trkpt lat="43.7573183" lon="11.1703717"><ele>41.0</ele><time>2026-04-30T07:40:49.339Z</time></trkpt><trkpt lat="43.7571133" lon="11.17041"><ele>41.0</ele><time>2026-04-30T07:40:50.339Z</time></trkpt><trkpt lat="43.7569067" lon="11.1704433"><ele>41.0</ele><time>2026-04-30T07:40:51.339Z</time></trkpt><trkpt lat="43.7566967" lon="11.1704717"><ele>41.0</ele><time>2026-04-30T07:40:52.339Z</time></trkpt><trkpt lat="43.756495" lon="11.170515"><ele>41.666666666666664</ele><time>2026-04-30T07:40:53.339Z</time></trkpt><trkpt lat="43.7562933" lon="11.17055"><ele>42.333333333333336</ele><time>2026-04-30T07:40:54.339Z</time></trkpt><trkpt lat="43.7560833" lon="11.170585"><ele>43.0</ele><time>2026-04-30T07:40:55.339Z</time></trkpt><trkpt lat="43.75587" lon="11.17063"><ele>43.333333333333336</ele><time>2026-04-30T07:40:56.339Z</time></trkpt><trkpt lat="43.7556817" lon="11.1706717"><ele>43.666666666666664</ele><time>2026-04-30T07:40:57.339Z</time></trkpt><trkpt lat="43.7554783" lon="11.1707067"><ele>44.0</ele><time>2026-04-30T07:40:58.339Z</time></trkpt><trkpt lat="43.7552883" lon="11.170745"><ele>43.666666666666664</ele><time>2026-04-30T07:40:59.339Z</time></trkpt><trkpt lat="43.7551" lon="11.1707883"><ele>43.333333333333336</ele><time>2026-04-30T07:41:00.339Z</time></trkpt><trkpt lat="43.754905" lon="11.17082"><ele>43.0</ele><time>2026-04-30T07:41:01.339Z</time></trkpt><trkpt lat="43.7547183" lon="11.1708617"><ele>43.0</ele><time>2026-04-30T07:41:02.339Z</time></trkpt><trkpt lat="43.7545283" lon="11.1708983"><ele>43.0</ele><time>2026-04-30T07:41:03.338Z</time></trkpt><trkpt lat="43.7543333" lon="11.170935"><ele>43.0</ele><time>2026-04-30T07:41:04.339Z</time></trkpt><trkpt lat="43.7541283" lon="11.1709683"><ele>43.333333333333336</ele><time>2026-04-30T07:41:05.339Z</time></trkpt><trkpt lat="43.753915" lon="11.1710067"><ele>43.666666666666664</ele><time>2026-04-30T07:41:06.339Z</time></trkpt><trkpt lat="43.7537033" lon="11.1710467"><ele>44.0</ele><time>2026-04-30T07:41:07.339Z</time></trkpt><trkpt lat="43.7534733" lon="11.1710833"><ele>45.0</ele><time>2026-04-30T07:41:08.339Z</time></trkpt><trkpt lat="43.7532417" lon="11.1711233"><ele>46.0</ele><time>2026-04-30T07:41:09.338Z</time></trkpt><trkpt lat="43.7530133" lon="11.1711633"><ele>46.0</ele><time>2026-04-30T07:41:10.339Z</time></trkpt><trkpt lat="43.752785" lon="11.1712167"><ele>46.0</ele><time>2026-04-30T07:41:11.338Z</time></trkpt><trkpt lat="43.752555" lon="11.17126"><ele>45.5</ele><time>2026-04-30T07:41:12.339Z</time></trkpt><trkpt lat="43.752325" lon="11.171305"><ele>45.0</ele><time>2026-04-30T07:41:13.339Z</time></trkpt><trkpt lat="43.7520967" lon="11.1713467"><ele>45.0</ele><time>2026-04-30T07:41:14.339Z</time></trkpt><trkpt lat="43.7518717" lon="11.17139"><ele>45.0</ele><time>2026-04-30T07:41:15.339Z</time></trkpt><trkpt lat="43.751655" lon="11.1714317"><ele>45.0</ele><time>2026-04-30T07:41:16.339Z</time></trkpt><trkpt lat="43.7514333" lon="11.1714733"><ele>45.0</ele><time>2026-04-30T07:41:17.339Z</time></trkpt><trkpt lat="43.7512133" lon="11.1715117"><ele>45.0</ele><time>2026-04-30T07:41:18.339Z</time></trkpt><trkpt lat="43.7509883" lon="11.1715533"><ele>45.0</ele><time>2026-04-30T07:41:19.339Z</time></trkpt><trkpt lat="43.7507617" lon="11.17159"><ele>46.0</ele><time>2026-04-30T07:41:20.339Z</time></trkpt><trkpt lat="43.7505283" lon="11.17163"><ele>47.0</ele><time>2026-04-30T07:41:21.338Z</time></trkpt><trkpt lat="43.7502967" lon="11.17167"><ele>47.0</ele><time>2026-04-30T07:41:22.339Z</time></trkpt><trkpt lat="43.75006" lon="11.1717183"><ele>47.0</ele><time>2026-04-30T07:41:23.339Z</time></trkpt><trkpt lat="43.7498217" lon="11.17177"><ele>47.0</ele><time>2026-04-30T07:41:24.339Z</time></trkpt><trkpt lat="43.7495867" lon="11.1718133"><ele>47.0</ele><time>2026-04-30T07:41:25.339Z</time></trkpt><trkpt lat="43.7493467" lon="11.171855"><ele>48.0</ele><time>2026-04-30T07:41:26.338Z</time></trkpt><trkpt lat="43.7491117" lon="11.1719"><ele>49.0</ele><time>2026-04-30T07:41:27.339Z</time></trkpt><trkpt lat="43.7488717" lon="11.1719533"><ele>49.0</ele><time>2026-04-30T07:41:28.338Z</time></trkpt><trkpt lat="43.7486283" lon="11.172"><ele>49.0</ele><time>2026-04-30T07:41:29.339Z</time></trkpt><trkpt lat="43.7483933" lon="11.17205"><ele>49.0</ele><time>2026-04-30T07:41:30.339Z</time></trkpt><trkpt lat="43.74815" lon="11.1721167"><ele>49.0</ele><time>2026-04-30T07:41:31.339Z</time></trkpt><trkpt lat="43.7479117" lon="11.172195"><ele>49.0</ele><time>2026-04-30T07:41:32.339Z</time></trkpt><trkpt lat="43.7476717" lon="11.1722967"><ele>49.0</ele><time>2026-04-30T07:41:33.339Z</time></trkpt><trkpt lat="43.7474433" lon="11.1724133"><ele>49.0</ele><time>2026-04-30T07:41:34.338Z</time></trkpt><trkpt lat="43.7472133" lon="11.17254"><ele>49.0</ele><time>2026-04-30T07:41:35.338Z</time></trkpt><trkpt lat="43.746995" lon="11.1726883"><ele>50.5</ele><time>2026-04-30T07:41:36.338Z</time></trkpt><trkpt lat="43.7467683" lon="11.172845"><ele>52.0</ele><time>2026-04-30T07:41:37.339Z</time></trkpt><trkpt lat="43.7465583" lon="11.1730183"><ele>52.0</ele><time>2026-04-30T07:41:38.339Z</time></trkpt><trkpt lat="43.746355" lon="11.1732167"><ele>52.0</ele><time>2026-04-30T07:41:39.339Z</time></trkpt><trkpt lat="43.7461633" lon="11.1734433"><ele>53.5</ele><time>2026-04-30T07:41:40.339Z</time></trkpt><trkpt lat="43.745985" lon="11.173675"><ele>55.0</ele><time>2026-04-30T07:41:41.339Z</time></trkpt><trkpt lat="43.7458167" lon="11.173915"><ele>54.5</ele><time>2026-04-30T07:41:42.338Z</time></trkpt><trkpt lat="43.7456567" lon="11.17416"><ele>54.0</ele><time>2026-04-30T07:41:43.339Z</time></trkpt><trkpt lat="43.7454983" lon="11.1744267"><ele>54.0</ele><time>2026-04-30T07:41:44.339Z</time></trkpt><trkpt lat="43.7453533" lon="11.1747017"><ele>54.0</ele><time>2026-04-30T07:41:45.338Z</time></trkpt><trkpt lat="43.74523" lon="11.1749883"><ele>53.5</ele><time>2026-04-30T07:41:46.338Z</time></trkpt><trkpt lat="43.7451117" lon="11.175265"><ele>53.0</ele><time>2026-04-30T07:41:47.339Z</time></trkpt><trkpt lat="43.7450083" lon="11.1755417"><ele>53.333333333333336</ele><time>2026-04-30T07:41:48.338Z</time></trkpt><trkpt lat="43.744915" lon="11.1758167"><ele>53.66666666666667</ele><time>2026-04-30T07:41:49.339Z</time></trkpt><trkpt lat="43.7448217" lon="11.1760967"><ele>54.0</ele><time>2026-04-30T07:41:50.339Z</time></trkpt><trkpt lat="43.7447367" lon="11.1763817"><ele>55.66666666666667</ele><time>2026-04-30T07:41:51.339Z</time></trkpt><trkpt lat="43.7446583" lon="11.1766567"><ele>57.333333333333336</ele><time>2026-04-30T07:41:52.338Z</time></trkpt><trkpt lat="43.74458" lon="11.1769267"><ele>59.0</ele><time>2026-04-30T07:41:53.339Z</time></trkpt><trkpt lat="43.7445067" lon="11.1771883"><ele>58.66666666666667</ele><time>2026-04-30T07:41:54.339Z</time></trkpt><trkpt lat="43.7444317" lon="11.1774533"><ele>58.33333333333333</ele><time>2026-04-30T07:41:55.338Z</time></trkpt><trkpt lat="43.7443567" lon="11.1777"><ele>58.0</ele><time>2026-04-30T07:41:56.339Z</time></trkpt><trkpt lat="43.7442783" lon="11.177945"><ele>59.0</ele><time>2026-04-30T07:41:57.338Z</time></trkpt><trkpt lat="43.7442" lon="11.17816"><ele>60.0</ele><time>2026-04-30T07:41:58.338Z</time></trkpt><trkpt lat="43.74412" lon="11.1783667"><ele>61.0</ele><time>2026-04-30T07:41:59.339Z</time></trkpt><trkpt lat="43.744025" lon="11.1785733"><ele>61.0</ele><time>2026-04-30T07:42:00.339Z</time></trkpt><trkpt lat="43.74392" lon="11.1787733"><ele>61.0</ele><time>2026-04-30T07:42:01.339Z</time></trkpt><trkpt lat="43.7438017" lon="11.1789833"><ele>61.0</ele><time>2026-04-30T07:42:02.339Z</time></trkpt><trkpt lat="43.74368" lon="11.179195"><ele>61.0</ele><time>2026-04-30T07:42:03.339Z</time></trkpt><trkpt lat="43.7435633" lon="11.1793933"><ele>61.0</ele><time>2026-04-30T07:42:04.338Z</time></trkpt><trkpt lat="43.7434433" lon="11.1795717"><ele>61.0</ele><time>2026-04-30T07:42:05.339Z</time></trkpt><trkpt lat="43.7433317" lon="11.1797367"><ele>60.0</ele><time>2026-04-30T07:42:06.338Z</time></trkpt><trkpt lat="43.7432183" lon="11.1798983"><ele>59.0</ele><time>2026-04-30T07:42:07.338Z</time></trkpt><trkpt lat="43.743105" lon="11.1800467"><ele>58.0</ele><time>2026-04-30T07:42:08.339Z</time></trkpt><trkpt lat="43.742975" lon="11.18018"><ele>58.0</ele><time>2026-04-30T07:42:09.339Z</time></trkpt><trkpt lat="43.7428567" lon="11.18034"><ele>58.0</ele><time>2026-04-30T07:42:10.339Z</time></trkpt><trkpt lat="43.7427267" lon="11.1804767"><ele>58.0</ele><time>2026-04-30T07:42:11.339Z</time></trkpt><trkpt lat="43.74259" lon="11.180605"><ele>57.666666666666664</ele><time>2026-04-30T07:42:12.338Z</time></trkpt><trkpt lat="43.7424583" lon="11.18074"><ele>57.33333333333333</ele><time>2026-04-30T07:42:13.339Z</time></trkpt><trkpt lat="43.74232" lon="11.18087"><ele>57.0</ele><time>2026-04-30T07:42:14.339Z</time></trkpt><trkpt lat="43.742175" lon="11.181005"><ele>57.0</ele><time>2026-04-30T07:42:15.339Z</time></trkpt><trkpt lat="43.7420267" lon="11.1811517"><ele>57.0</ele><time>2026-04-30T07:42:16.339Z</time></trkpt><trkpt lat="43.741875" lon="11.1813033"><ele>57.0</ele><time>2026-04-30T07:42:17.338Z</time></trkpt><trkpt lat="43.7417317" lon="11.1814517"><ele>57.66666666666667</ele><time>2026-04-30T07:42:18.338Z</time></trkpt><trkpt lat="43.7415933" lon="11.1816"><ele>58.333333333333336</ele><time>2026-04-30T07:42:19.338Z</time></trkpt><trkpt lat="43.7414533" lon="11.1817417"><ele>59.0</ele><time>2026-04-30T07:42:20.339Z</time></trkpt><trkpt lat="43.7413133" lon="11.1818833"><ele>59.0</ele><time>2026-04-30T07:42:21.338Z</time></trkpt><trkpt lat="43.7411717" lon="11.18202"><ele>59.0</ele><time>2026-04-30T07:42:22.339Z</time></trkpt><trkpt lat="43.7410267" lon="11.1821467"><ele>59.0</ele><time>2026-04-30T07:42:23.339Z</time></trkpt><trkpt lat="43.7408933" lon="11.1822783"><ele>60.333333333333336</ele><time>2026-04-30T07:42:24.339Z</time></trkpt><trkpt lat="43.7407583" lon="11.1824033"><ele>61.66666666666667</ele><time>2026-04-30T07:42:25.338Z</time></trkpt><trkpt lat="43.7406183" lon="11.1825417"><ele>63.0</ele><time>2026-04-30T07:42:26.338Z</time></trkpt><trkpt lat="43.7404667" lon="11.1826817"><ele>63.0</ele><time>2026-04-30T07:42:27.339Z</time></trkpt><trkpt lat="43.74031" lon="11.182825"><ele>63.0</ele><time>2026-04-30T07:42:28.339Z</time></trkpt><trkpt lat="43.7401533" lon="11.1829667"><ele>63.0</ele><time>2026-04-30T07:42:29.338Z</time></trkpt><trkpt lat="43.74" lon="11.1831083"><ele>63.0</ele><time>2026-04-30T07:42:30.339Z</time></trkpt><trkpt lat="43.7398467" lon="11.18324"><ele>63.0</ele><time>2026-04-30T07:42:31.338Z</time></trkpt><trkpt lat="43.7396883" lon="11.1833883"><ele>63.0</ele><time>2026-04-30T07:42:32.339Z</time></trkpt><trkpt lat="43.7395267" lon="11.1835433"><ele>65.33333333333333</ele><time>2026-04-30T07:42:33.339Z</time></trkpt><trkpt lat="43.73937" lon="11.1836983"><ele>67.66666666666666</ele><time>2026-04-30T07:42:34.339Z</time></trkpt><trkpt lat="43.7392067" lon="11.1838633"><ele>70.0</ele><time>2026-04-30T07:42:35.338Z</time></trkpt><trkpt lat="43.7390567" lon="11.184005"><ele>68.33333333333333</ele><time>2026-04-30T07:42:36.338Z</time></trkpt><trkpt lat="43.7389117" lon="11.1841417"><ele>66.66666666666667</ele><time>2026-04-30T07:42:37.338Z</time></trkpt><trkpt lat="43.73877" lon="11.1842717"><ele>65.0</ele><time>2026-04-30T07:42:38.339Z</time></trkpt><trkpt lat="43.7386233" lon="11.1844033"><ele>67.66666666666667</ele><time>2026-04-30T07:42:39.339Z</time></trkpt><trkpt lat="43.7384817" lon="11.1845483"><ele>70.33333333333333</ele><time>2026-04-30T07:42:40.338Z</time></trkpt><trkpt lat="43.738335" lon="11.1846917"><ele>73.0</ele><time>2026-04-30T07:42:41.339Z</time></trkpt><trkpt lat="43.7381833" lon="11.1848333"><ele>74.66666666666666</ele><time>2026-04-30T07:42:42.339Z</time></trkpt><trkpt lat="43.73802" lon="11.184985"><ele>76.33333333333333</ele><time>2026-04-30T07:42:43.339Z</time></trkpt><trkpt lat="43.7378533" lon="11.18514"><ele>78.0</ele><time>2026-04-30T07:42:44.339Z</time></trkpt><trkpt lat="43.7376817" lon="11.185285"><ele>78.0</ele><time>2026-04-30T07:42:45.339Z</time></trkpt><trkpt lat="43.7374867" lon="11.18543"><ele>78.0</ele><time>2026-04-30T07:42:46.339Z</time></trkpt><trkpt lat="43.7372933" lon="11.1855833"><ele>78.0</ele><time>2026-04-30T07:42:47.339Z</time></trkpt><trkpt lat="43.7371" lon="11.1857333"><ele>76.5</ele><time>2026-04-30T07:42:48.339Z</time></trkpt><trkpt lat="43.73689" lon="11.18588"><ele>75.0</ele><time>2026-04-30T07:42:49.338Z</time></trkpt><trkpt lat="43.7366717" lon="11.186"><ele>80.5</ele><time>2026-04-30T07:42:50.339Z</time></trkpt><trkpt lat="43.736455" lon="11.186135"><ele>86.0</ele><time>2026-04-30T07:42:51.339Z</time></trkpt><trkpt lat="43.73623" lon="11.1862583"><ele>83.5</ele><time>2026-04-30T07:42:52.339Z</time></trkpt><trkpt lat="43.735995" lon="11.1863833"><ele>81.0</ele><time>2026-04-30T07:42:53.338Z</time></trkpt><trkpt lat="43.7357583" lon="11.1865117"><ele>81.0</ele><time>2026-04-30T07:42:54.338Z</time></trkpt><trkpt lat="43.7355167" lon="11.1866383"><ele>81.0</ele><time>2026-04-30T07:42:55.339Z</time></trkpt><trkpt lat="43.73528" lon="11.1867617"><ele>83.5</ele><time>2026-04-30T07:42:56.339Z</time></trkpt><trkpt lat="43.73504" lon="11.186885"><ele>86.0</ele><time>2026-04-30T07:42:57.339Z</time></trkpt><trkpt lat="43.7348033" lon="11.187015"><ele>86.0</ele><time>2026-04-30T07:42:58.338Z</time></trkpt><trkpt lat="43.7345683" lon="11.1871383"><ele>86.0</ele><time>2026-04-30T07:42:59.339Z</time></trkpt><trkpt lat="43.7343367" lon="11.1872617"><ele>81.5</ele><time>2026-04-30T07:43:00.339Z</time></trkpt><trkpt lat="43.7341067" lon="11.1873933"><ele>77.0</ele><time>2026-04-30T07:43:01.339Z</time></trkpt><trkpt lat="43.73387" lon="11.1875117"><ele>77.0</ele><time>2026-04-30T07:43:02.338Z</time></trkpt><trkpt lat="43.73364" lon="11.1876417"><ele>77.0</ele><time>2026-04-30T07:43:03.339Z</time></trkpt><trkpt lat="43.7334067" lon="11.187765"><ele>74.5</ele><time>2026-04-30T07:43:04.339Z</time></trkpt><trkpt lat="43.7331767" lon="11.187895"><ele>72.0</ele><time>2026-04-30T07:43:05.339Z</time></trkpt><trkpt lat="43.73295" lon="11.1880383"><ele>76.5</ele><time>2026-04-30T07:43:06.339Z</time></trkpt><trkpt lat="43.732735" lon="11.1881933"><ele>81.0</ele><time>2026-04-30T07:43:07.339Z</time></trkpt><trkpt lat="43.73252" lon="11.1883567"><ele>81.0</ele><time>2026-04-30T07:43:08.339Z</time></trkpt><trkpt lat="43.73232" lon="11.1885283"><ele>81.0</ele><time>2026-04-30T07:43:09.338Z</time></trkpt><trkpt lat="43.7321267" lon="11.18871"><ele>81.0</ele><time>2026-04-30T07:43:10.339Z</time></trkpt><trkpt lat="43.731945" lon="11.1889"><ele>81.0</ele><time>2026-04-30T07:43:11.339Z</time></trkpt><trkpt lat="43.7317733" lon="11.18909"><ele>81.0</ele><time>2026-04-30T07:43:12.339Z</time></trkpt><trkpt lat="43.7316067" lon="11.1892917"><ele>82.66666666666667</ele><time>2026-04-30T07:43:13.339Z</time></trkpt><trkpt lat="43.73145" lon="11.1895083"><ele>84.33333333333334</ele><time>2026-04-30T07:43:14.338Z</time></trkpt><trkpt lat="43.7312917" lon="11.1897317"><ele>86.0</ele><time>2026-04-30T07:43:15.339Z</time></trkpt><trkpt lat="43.7311417" lon="11.1899617"><ele>85.33333333333334</ele><time>2026-04-30T07:43:16.339Z</time></trkpt><trkpt lat="43.7309983" lon="11.190195"><ele>84.66666666666667</ele><time>2026-04-30T07:43:17.339Z</time></trkpt><trkpt lat="43.7308667" lon="11.1904383"><ele>84.0</ele><time>2026-04-30T07:43:18.339Z</time></trkpt><trkpt lat="43.73074" lon="11.1906917"><ele>84.0</ele><time>2026-04-30T07:43:19.339Z</time></trkpt><trkpt lat="43.7306183" lon="11.1909483"><ele>84.0</ele><time>2026-04-30T07:43:20.339Z</time></trkpt><trkpt lat="43.73049" lon="11.19121"><ele>84.0</ele><time>2026-04-30T07:43:21.339Z</time></trkpt><trkpt lat="43.730365" lon="11.1914767"><ele>84.0</ele><time>2026-04-30T07:43:22.339Z</time></trkpt><trkpt lat="43.730245" lon="11.1917517"><ele>86.33333333333333</ele><time>2026-04-30T07:43:23.338Z</time></trkpt><trkpt lat="43.7301183" lon="11.1920067"><ele>88.66666666666666</ele><time>2026-04-30T07:43:24.338Z</time></trkpt><trkpt lat="43.7300017" lon="11.1922533"><ele>91.0</ele><time>2026-04-30T07:43:25.338Z</time></trkpt><trkpt lat="43.7298833" lon="11.1924967"><ele>91.66666666666666</ele><time>2026-04-30T07:43:26.339Z</time></trkpt><trkpt lat="43.7297583" lon="11.1927333"><ele>92.33333333333333</ele><time>2026-04-30T07:43:27.339Z</time></trkpt><trkpt lat="43.72965" lon="11.1929717"><ele>93.0</ele><time>2026-04-30T07:43:28.339Z</time></trkpt><trkpt lat="43.729535" lon="11.193205"><ele>93.33333333333333</ele><time>2026-04-30T07:43:29.339Z</time></trkpt><trkpt lat="43.729415" lon="11.1934483"><ele>93.66666666666666</ele><time>2026-04-30T07:43:30.339Z</time></trkpt><trkpt lat="43.7293" lon="11.1936917"><ele>94.0</ele><time>2026-04-30T07:43:31.339Z</time></trkpt><trkpt lat="43.7291833" lon="11.19393"><ele>102.33333333333333</ele><time>2026-04-30T07:43:32.339Z</time></trkpt><trkpt lat="43.7290683" lon="11.1941733"><ele>110.66666666666666</ele><time>2026-04-30T07:43:33.339Z</time></trkpt><trkpt lat="43.7289533" lon="11.194415"><ele>119.0</ele><time>2026-04-30T07:43:34.339Z</time></trkpt><trkpt lat="43.7270567" lon="11.2068233"><ele>119.0</ele><time>2026-04-30T07:44:10.339Z</time></trkpt><trkpt lat="43.7270367" lon="11.2071083"><ele>119.0</ele><time>2026-04-30T07:44:11.338Z</time></trkpt><trkpt lat="43.72703" lon="11.20741"><ele>119.0</ele><time>2026-04-30T07:44:12.339Z</time></trkpt><trkpt lat="43.7270317" lon="11.20802"><ele>116.0</ele><time>2026-04-30T07:44:14.34Z</time></trkpt><trkpt lat="43.7270367" lon="11.208325"><ele>113.0</ele><time>2026-04-30T07:44:15.34Z</time></trkpt><trkpt lat="43.727015" lon="11.2091533"><ele>113.0</ele><time>2026-04-30T07:44:17.338Z</time></trkpt><trkpt lat="43.7269917" lon="11.20956"><ele>113.0</ele><time>2026-04-30T07:44:18.339Z</time></trkpt><trkpt lat="43.7269667" lon="11.20993"><ele>114.0</ele><time>2026-04-30T07:44:19.338Z</time></trkpt><trkpt lat="43.72693" lon="11.2102883"><ele>115.0</ele><time>2026-04-30T07:44:20.338Z</time></trkpt><trkpt lat="43.726895" lon="11.2106483"><ele>111.5</ele><time>2026-04-30T07:44:21.339Z</time></trkpt><trkpt lat="43.72686" lon="11.211005"><ele>108.0</ele><time>2026-04-30T07:44:22.339Z</time></trkpt><trkpt lat="43.7268183" lon="11.21136"><ele>103.5</ele><time>2026-04-30T07:44:23.339Z</time></trkpt><trkpt lat="43.7267767" lon="11.2117083"><ele>99.0</ele><time>2026-04-30T07:44:24.339Z</time></trkpt><trkpt lat="43.72675" lon="11.21206"><ele>99.0</ele><time>2026-04-30T07:44:25.339Z</time></trkpt><trkpt lat="43.7267283" lon="11.21242"><ele>99.0</ele><time>2026-04-30T07:44:26.339Z</time></trkpt><trkpt lat="43.7267083" lon="11.2127717"><ele>99.0</ele><time>2026-04-30T07:44:27.339Z</time></trkpt><trkpt lat="43.7266833" lon="11.2131017"><ele>99.0</ele><time>2026-04-30T07:44:28.339Z</time></trkpt><trkpt lat="43.726655" lon="11.213425"><ele>97.5</ele><time>2026-04-30T07:44:29.339Z</time></trkpt><trkpt lat="43.72663" lon="11.2137383"><ele>96.0</ele><time>2026-04-30T07:44:30.338Z</time></trkpt><trkpt lat="43.7265983" lon="11.21407"><ele>95.5</ele><time>2026-04-30T07:44:31.338Z</time></trkpt><trkpt lat="43.7265667" lon="11.2144"><ele>95.0</ele><time>2026-04-30T07:44:32.339Z</time></trkpt><trkpt lat="43.7265267" lon="11.2147367"><ele>94.5</ele><time>2026-04-30T07:44:33.338Z</time></trkpt><trkpt lat="43.7264783" lon="11.215065"><ele>94.0</ele><time>2026-04-30T07:44:34.339Z</time></trkpt><trkpt lat="43.7264183" lon="11.2153717"><ele>91.5</ele><time>2026-04-30T07:44:35.338Z</time></trkpt><trkpt lat="43.7263483" lon="11.2156767"><ele>89.0</ele><time>2026-04-30T07:44:36.338Z</time></trkpt><trkpt lat="43.7262683" lon="11.2159783"><ele>89.0</ele><time>2026-04-30T07:44:37.338Z</time></trkpt><trkpt lat="43.7261917" lon="11.2162633"><ele>89.0</ele><time>2026-04-30T07:44:38.339Z</time></trkpt><trkpt lat="43.72611" lon="11.2165383"><ele>89.0</ele><time>2026-04-30T07:44:39.338Z</time></trkpt><trkpt lat="43.726025" lon="11.2168083"><ele>90.33333333333334</ele><time>2026-04-30T07:44:40.338Z</time></trkpt><trkpt lat="43.7259283" lon="11.21708"><ele>91.66666666666667</ele><time>2026-04-30T07:44:41.338Z</time></trkpt><trkpt lat="43.72583" lon="11.2173317"><ele>93.0</ele><time>2026-04-30T07:44:42.338Z</time></trkpt><trkpt lat="43.72572" lon="11.21759"><ele>93.0</ele><time>2026-04-30T07:44:43.339Z</time></trkpt><trkpt lat="43.7256183" lon="11.2178483"><ele>93.0</ele><time>2026-04-30T07:44:44.339Z</time></trkpt><trkpt lat="43.7255283" lon="11.2181067"><ele>93.0</ele><time>2026-04-30T07:44:45.339Z</time></trkpt><trkpt lat="43.7254117" lon="11.2183083"><ele>93.66666666666667</ele><time>2026-04-30T07:44:46.339Z</time></trkpt><trkpt lat="43.725295" lon="11.2185017"><ele>94.33333333333334</ele><time>2026-04-30T07:44:47.338Z</time></trkpt><trkpt lat="43.7251633" lon="11.2187183"><ele>95.0</ele><time>2026-04-30T07:44:48.338Z</time></trkpt><trkpt lat="43.72503" lon="11.2189267"><ele>91.66666666666667</ele><time>2026-04-30T07:44:49.338Z</time></trkpt><trkpt lat="43.7248933" lon="11.2191417"><ele>88.33333333333333</ele><time>2026-04-30T07:44:50.339Z</time></trkpt><trkpt lat="43.7247583" lon="11.2193567"><ele>85.0</ele><time>2026-04-30T07:44:51.339Z</time></trkpt><trkpt lat="43.7246333" lon="11.2195567"><ele>85.0</ele><time>2026-04-30T07:44:52.339Z</time></trkpt><trkpt lat="43.7245167" lon="11.2197617"><ele>85.0</ele><time>2026-04-30T07:44:53.339Z</time></trkpt><trkpt lat="43.7244033" lon="11.2199767"><ele>85.0</ele><time>2026-04-30T07:44:54.339Z</time></trkpt><trkpt lat="43.7242917" lon="11.220175"><ele>83.66666666666666</ele><time>2026-04-30T07:44:55.338Z</time></trkpt><trkpt lat="43.7241817" lon="11.2203617"><ele>82.33333333333333</ele><time>2026-04-30T07:44:56.339Z</time></trkpt><trkpt lat="43.7240867" lon="11.2205517"><ele>81.0</ele><time>2026-04-30T07:44:57.339Z</time></trkpt><trkpt lat="43.72399" lon="11.2207267"><ele>81.0</ele><time>2026-04-30T07:44:58.339Z</time></trkpt><trkpt lat="43.7239033" lon="11.2208933"><ele>81.0</ele><time>2026-04-30T07:44:59.339Z</time></trkpt><trkpt lat="43.7238067" lon="11.2210533"><ele>81.0</ele><time>2026-04-30T07:45:00.339Z</time></trkpt><trkpt lat="43.7237" lon="11.2211917"><ele>81.0</ele><time>2026-04-30T07:45:01.339Z</time></trkpt><trkpt lat="43.7236" lon="11.2213133"><ele>79.5</ele><time>2026-04-30T07:45:02.339Z</time></trkpt><trkpt lat="43.7234967" lon="11.2214217"><ele>78.0</ele><time>2026-04-30T07:45:03.339Z</time></trkpt><trkpt lat="43.72338" lon="11.2214983"><ele>76.5</ele><time>2026-04-30T07:45:04.339Z</time></trkpt><trkpt lat="43.7232633" lon="11.2215583"><ele>75.0</ele><time>2026-04-30T07:45:05.339Z</time></trkpt><trkpt lat="43.723145" lon="11.2216017"><ele>75.0</ele><time>2026-04-30T07:45:06.339Z</time></trkpt><trkpt lat="43.7230333" lon="11.2216133"><ele>75.0</ele><time>2026-04-30T07:45:07.338Z</time></trkpt><trkpt lat="43.72293" lon="11.22162"><ele>75.0</ele><time>2026-04-30T07:45:08.339Z</time></trkpt><trkpt lat="43.72283" lon="11.2216383"><ele>75.0</ele><time>2026-04-30T07:45:09.339Z</time></trkpt><trkpt lat="43.722725" lon="11.221675"><ele>75.0</ele><time>2026-04-30T07:45:10.338Z</time></trkpt><trkpt lat="43.7226233" lon="11.2217183"><ele>73.83333333333333</ele><time>2026-04-30T07:45:11.339Z</time></trkpt><trkpt lat="43.7225217" lon="11.2217683"><ele>72.66666666666667</ele><time>2026-04-30T07:45:12.338Z</time></trkpt><trkpt lat="43.7224317" lon="11.221815"><ele>71.5</ele><time>2026-04-30T07:45:13.338Z</time></trkpt><trkpt lat="43.72235" lon="11.2218583"><ele>70.33333333333334</ele><time>2026-04-30T07:45:14.339Z</time></trkpt><trkpt lat="43.7222767" lon="11.2218917"><ele>69.16666666666667</ele><time>2026-04-30T07:45:15.338Z</time></trkpt><trkpt lat="43.7222083" lon="11.221925"><ele>68.0</ele><time>2026-04-30T07:45:16.339Z</time></trkpt><trkpt lat="43.7221467" lon="11.2219583"><ele>68.0</ele><time>2026-04-30T07:45:17.338Z</time></trkpt><trkpt lat="43.7220417" lon="11.2220083"><ele>68.0</ele><time>2026-04-30T07:45:19.339Z</time></trkpt><trkpt lat="43.721925" lon="11.2220483"><ele>68.0</ele><time>2026-04-30T07:45:21.338Z</time></trkpt><trkpt lat="43.7218117" lon="11.2220917"><ele>68.0</ele><time>2026-04-30T07:45:23.339Z</time></trkpt><trkpt lat="43.721695" lon="11.2221033"><ele>67.2</ele><time>2026-04-30T07:45:25.339Z</time></trkpt><trkpt lat="43.72157" lon="11.222125"><ele>66.4</ele><time>2026-04-30T07:45:27.338Z</time></trkpt><trkpt lat="43.7214667" lon="11.2221583"><ele>65.60000000000001</ele><time>2026-04-30T07:45:29.339Z</time></trkpt><trkpt lat="43.7213817" lon="11.222195"><ele>64.8</ele><time>2026-04-30T07:45:31.339Z</time></trkpt><trkpt lat="43.7212983" lon="11.2222283"><ele>64.0</ele><time>2026-04-30T07:45:33.339Z</time></trkpt><trkpt lat="43.7212183" lon="11.2222667"><ele>63.99999999999999</ele><time>2026-04-30T07:45:35.339Z</time></trkpt><trkpt lat="43.7211067" lon="11.222305"><ele>64.0</ele><time>2026-04-30T07:45:37.339Z</time></trkpt><trkpt lat="43.7210067" lon="11.22235"><ele>64.0</ele><time>2026-04-30T07:45:39.339Z</time></trkpt><trkpt lat="43.7209417" lon="11.2223733"><ele>64.0</ele><time>2026-04-30T07:45:40.339Z</time></trkpt><trkpt lat="43.7208683" lon="11.222395"><ele>63.99999999999999</ele><time>2026-04-30T07:45:41.338Z</time></trkpt><trkpt lat="43.72079" lon="11.2224283"><ele>64.0</ele><time>2026-04-30T07:45:42.339Z</time></trkpt><trkpt lat="43.7207183" lon="11.2224583"><ele>64.33333333333333</ele><time>2026-04-30T07:45:43.339Z</time></trkpt><trkpt lat="43.7206233" lon="11.2225233"><ele>64.66666666666666</ele><time>2026-04-30T07:45:45.339Z</time></trkpt><trkpt lat="43.720575" lon="11.2226067"><ele>65.0</ele><time>2026-04-30T07:47:52.339Z</time></trkpt><trkpt lat="43.7205267" lon="11.22269"><ele>65.33333333333333</ele><time>2026-04-30T07:47:55.339Z</time></trkpt><trkpt lat="43.7204683" lon="11.222725"><ele>65.66666666666667</ele><time>2026-04-30T07:47:57.338Z</time></trkpt><trkpt lat="43.7204033" lon="11.2227567"><ele>66.0</ele><time>2026-04-30T07:47:59.339Z</time></trkpt><trkpt lat="43.7202817" lon="11.2227567"><ele>65.66666666666667</ele><time>2026-04-30T07:48:01.339Z</time></trkpt><trkpt lat="43.72018" lon="11.2227283"><ele>65.33333333333333</ele><time>2026-04-30T07:48:03.338Z</time></trkpt><trkpt lat="43.7200767" lon="11.22267"><ele>65.0</ele><time>2026-04-30T07:48:05.339Z</time></trkpt><trkpt lat="43.7200233" lon="11.222615"><ele>64.66666666666666</ele><time>2026-04-30T07:48:06.339Z</time></trkpt><trkpt lat="43.71998" lon="11.2225383"><ele>64.33333333333333</ele><time>2026-04-30T07:48:07.339Z</time></trkpt><trkpt lat="43.71995" lon="11.2224483"><ele>64.0</ele><time>2026-04-30T07:48:08.338Z</time></trkpt><trkpt lat="43.71993" lon="11.222345"><ele>64.0</ele><time>2026-04-30T07:48:09.339Z</time></trkpt><trkpt lat="43.7199233" lon="11.22224"><ele>63.99999999999999</ele><time>2026-04-30T07:48:10.339Z</time></trkpt><trkpt lat="43.71992" lon="11.222145"><ele>64.0</ele><time>2026-04-30T07:48:11.338Z</time></trkpt><trkpt lat="43.71992" lon="11.2220533"><ele>64.0</ele><time>2026-04-30T07:48:12.339Z</time></trkpt><trkpt lat="43.71992" lon="11.2219583"><ele>63.99999999999999</ele><time>2026-04-30T07:48:13.338Z</time></trkpt><trkpt lat="43.7199167" lon="11.2218617"><ele>64.0</ele><time>2026-04-30T07:48:14.339Z</time></trkpt><trkpt lat="43.71991" lon="11.221755"><ele>64.0</ele><time>2026-04-30T07:48:15.339Z</time></trkpt><trkpt lat="43.719905" lon="11.221645"><ele>63.99999999999999</ele><time>2026-04-30T07:48:16.338Z</time></trkpt><trkpt lat="43.7199033" lon="11.2215233"><ele>64.0</ele><time>2026-04-30T07:48:17.339Z</time></trkpt><trkpt lat="43.7198967" lon="11.2213967"><ele>64.0</ele><time>2026-04-30T07:48:18.339Z</time></trkpt><trkpt lat="43.7198833" lon="11.2212633"><ele>64.0</ele><time>2026-04-30T07:48:19.339Z</time></trkpt><trkpt lat="43.719865" lon="11.2211467"><ele>63.99999999999999</ele><time>2026-04-30T07:48:20.339Z</time></trkpt><trkpt lat="43.7198517" lon="11.221055"><ele>64.0</ele><time>2026-04-30T07:48:21.338Z</time></trkpt><trkpt lat="43.719835" lon="11.2209683"><ele>64.33333333333333</ele><time>2026-04-30T07:48:22.339Z</time></trkpt><trkpt lat="43.719805" lon="11.22089"><ele>64.66666666666666</ele><time>2026-04-30T07:48:23.339Z</time></trkpt><trkpt lat="43.7197717" lon="11.220805"><ele>65.0</ele><time>2026-04-30T07:48:24.339Z</time></trkpt><trkpt lat="43.719715" lon="11.2207183"><ele>65.33333333333333</ele><time>2026-04-30T07:48:25.339Z</time></trkpt><trkpt lat="43.7196467" lon="11.2206333"><ele>65.66666666666667</ele><time>2026-04-30T07:48:26.339Z</time></trkpt><trkpt lat="43.7195767" lon="11.22056"><ele>66.0</ele><time>2026-04-30T07:48:27.338Z</time></trkpt><trkpt lat="43.7194833" lon="11.2204967"><ele>68.6</ele><time>2026-04-30T07:48:28.339Z</time></trkpt><trkpt lat="43.7193783" lon="11.2204433"><ele>71.19999999999999</ele><time>2026-04-30T07:48:29.339Z</time></trkpt><trkpt lat="43.7192767" lon="11.2204117"><ele>73.80000000000001</ele><time>2026-04-30T07:48:30.339Z</time></trkpt><trkpt lat="43.71917" lon="11.2203967"><ele>76.4</ele><time>2026-04-30T07:48:31.339Z</time></trkpt><trkpt lat="43.7190683" lon="11.220385"><ele>79.0</ele><time>2026-04-30T07:48:32.339Z</time></trkpt><trkpt lat="43.7189617" lon="11.22037"><ele>79.0</ele><time>2026-04-30T07:48:33.338Z</time></trkpt><trkpt lat="43.71886" lon="11.2203667"><ele>79.0</ele><time>2026-04-30T07:48:34.338Z</time></trkpt><trkpt lat="43.7187617" lon="11.220365"><ele>79.0</ele><time>2026-04-30T07:48:35.338Z</time></trkpt><trkpt lat="43.718665" lon="11.2203683"><ele>79.0</ele><time>2026-04-30T07:48:36.339Z</time></trkpt><trkpt lat="43.7185783" lon="11.220375"><ele>79.0</ele><time>2026-04-30T07:48:37.339Z</time></trkpt><trkpt lat="43.7184867" lon="11.2203817"><ele>80.0</ele><time>2026-04-30T07:48:38.339Z</time></trkpt><trkpt lat="43.7184033" lon="11.2203833"><ele>81.0</ele><time>2026-04-30T07:48:39.339Z</time></trkpt><trkpt lat="43.7183183" lon="11.2203883"><ele>82.0</ele><time>2026-04-30T07:48:40.338Z</time></trkpt><trkpt lat="43.71813" lon="11.2203783"><ele>83.0</ele><time>2026-04-30T07:48:42.338Z</time></trkpt><trkpt lat="43.7180283" lon="11.2203783"><ele>83.0</ele><time>2026-04-30T07:48:43.339Z</time></trkpt><trkpt lat="43.7179133" lon="11.2203767"><ele>83.0</ele><time>2026-04-30T07:48:44.339Z</time></trkpt><trkpt lat="43.7177817" lon="11.2203717"><ele>83.0</ele><time>2026-04-30T07:48:45.338Z</time></trkpt><trkpt lat="43.717655" lon="11.2203683"><ele>83.0</ele><time>2026-04-30T07:48:46.338Z</time></trkpt><trkpt lat="43.71752" lon="11.2203633"><ele>83.66666666666667</ele><time>2026-04-30T07:48:47.338Z</time></trkpt><trkpt lat="43.7173717" lon="11.2203517"><ele>84.33333333333333</ele><time>2026-04-30T07:48:48.339Z</time></trkpt><trkpt lat="43.7172117" lon="11.2203267"><ele>85.0</ele><time>2026-04-30T07:48:49.339Z</time></trkpt><trkpt lat="43.7170433" lon="11.220285"><ele>83.66666666666666</ele><time>2026-04-30T07:48:50.338Z</time></trkpt><trkpt lat="43.7168667" lon="11.220235"><ele>82.33333333333333</ele><time>2026-04-30T07:48:51.339Z</time></trkpt><trkpt lat="43.7166867" lon="11.220175"><ele>81.0</ele><time>2026-04-30T07:48:52.339Z</time></trkpt><trkpt lat="43.716505" lon="11.220105"><ele>81.0</ele><time>2026-04-30T07:48:53.339Z</time></trkpt><trkpt lat="43.7163217" lon="11.2200233"><ele>81.0</ele><time>2026-04-30T07:48:54.339Z</time></trkpt><trkpt lat="43.7161433" lon="11.2199"><ele>81.0</ele><time>2026-04-30T07:48:55.339Z</time></trkpt><trkpt lat="43.7159617" lon="11.2197883"><ele>82.66666666666667</ele><time>2026-04-30T07:48:56.339Z</time></trkpt><trkpt lat="43.7157733" lon="11.219655"><ele>84.33333333333334</ele><time>2026-04-30T07:48:57.339Z</time></trkpt><trkpt lat="43.715595" lon="11.219505"><ele>86.0</ele><time>2026-04-30T07:48:58.338Z</time></trkpt><trkpt lat="43.715425" lon="11.21935"><ele>86.0</ele><time>2026-04-30T07:48:59.338Z</time></trkpt><trkpt lat="43.715255" lon="11.2191783"><ele>86.0</ele><time>2026-04-30T07:49:00.339Z</time></trkpt><trkpt lat="43.7150867" lon="11.2189833"><ele>86.0</ele><time>2026-04-30T07:49:01.339Z</time></trkpt><trkpt lat="43.7149283" lon="11.2187817"><ele>86.66666666666667</ele><time>2026-04-30T07:49:02.338Z</time></trkpt><trkpt lat="43.7147783" lon="11.21856"><ele>87.33333333333333</ele><time>2026-04-30T07:49:03.338Z</time></trkpt><trkpt lat="43.7146367" lon="11.2183283"><ele>88.0</ele><time>2026-04-30T07:49:04.339Z</time></trkpt><trkpt lat="43.7145017" lon="11.21809"><ele>83.66666666666666</ele><time>2026-04-30T07:49:05.339Z</time></trkpt><trkpt lat="43.714375" lon="11.2178317"><ele>79.33333333333333</ele><time>2026-04-30T07:49:06.339Z</time></trkpt><trkpt lat="43.71426" lon="11.2175683"><ele>75.0</ele><time>2026-04-30T07:49:07.338Z</time></trkpt><trkpt lat="43.7141467" lon="11.2172983"><ele>75.0</ele><time>2026-04-30T07:49:08.339Z</time></trkpt><trkpt lat="43.7140283" lon="11.2170317"><ele>75.0</ele><time>2026-04-30T07:49:09.339Z</time></trkpt><trkpt lat="43.7139017" lon="11.2167683"><ele>75.0</ele><time>2026-04-30T07:49:10.339Z</time></trkpt><trkpt lat="43.713765" lon="11.2165133"><ele>75.0</ele><time>2026-04-30T07:49:11.339Z</time></trkpt><trkpt lat="43.7136267" lon="11.2162817"><ele>75.0</ele><time>2026-04-30T07:49:12.339Z</time></trkpt><trkpt lat="43.7134833" lon="11.21605"><ele>72.5</ele><time>2026-04-30T07:49:13.338Z</time></trkpt><trkpt lat="43.7133233" lon="11.2158283"><ele>70.0</ele><time>2026-04-30T07:49:14.339Z</time></trkpt><trkpt lat="43.713155" lon="11.2156217"><ele>71.0</ele><time>2026-04-30T07:49:15.339Z</time></trkpt><trkpt lat="43.7129817" lon="11.215435"><ele>72.0</ele><time>2026-04-30T07:49:16.339Z</time></trkpt><trkpt lat="43.7127983" lon="11.2152583"><ele>73.0</ele><time>2026-04-30T07:49:17.339Z</time></trkpt><trkpt lat="43.7126067" lon="11.21508"><ele>73.0</ele><time>2026-04-30T07:49:18.339Z</time></trkpt><trkpt lat="43.712405" lon="11.2149317"><ele>73.0</ele><time>2026-04-30T07:49:19.339Z</time></trkpt><trkpt lat="43.7121967" lon="11.21479"><ele>74.0</ele><time>2026-04-30T07:49:20.338Z</time></trkpt><trkpt lat="43.7119867" lon="11.2146533"><ele>75.0</ele><time>2026-04-30T07:49:21.338Z</time></trkpt><trkpt lat="43.7117733" lon="11.214515"><ele>75.0</ele><time>2026-04-30T07:49:22.339Z</time></trkpt><trkpt lat="43.7115533" lon="11.2143817"><ele>75.0</ele><time>2026-04-30T07:49:23.339Z</time></trkpt><trkpt lat="43.7113333" lon="11.21425"><ele>75.0</ele><time>2026-04-30T07:49:24.339Z</time></trkpt><trkpt lat="43.7111167" lon="11.2141133"><ele>75.0</ele><time>2026-04-30T07:49:25.339Z</time></trkpt><trkpt lat="43.710905" lon="11.2139717"><ele>73.5</ele><time>2026-04-30T07:49:26.338Z</time></trkpt><trkpt lat="43.7106933" lon="11.213835"><ele>72.0</ele><time>2026-04-30T07:49:27.339Z</time></trkpt><trkpt lat="43.710485" lon="11.2137"><ele>72.0</ele><time>2026-04-30T07:49:28.339Z</time></trkpt><trkpt lat="43.71027" lon="11.2135667"><ele>72.0</ele><time>2026-04-30T07:49:29.339Z</time></trkpt><trkpt lat="43.71006" lon="11.21344"><ele>72.5</ele><time>2026-04-30T07:49:30.339Z</time></trkpt><trkpt lat="43.7098417" lon="11.2133267"><ele>73.0</ele><time>2026-04-30T07:49:31.339Z</time></trkpt><trkpt lat="43.7096217" lon="11.2132267"><ele>73.5</ele><time>2026-04-30T07:49:32.339Z</time></trkpt><trkpt lat="43.709395" lon="11.2131333"><ele>74.0</ele><time>2026-04-30T07:49:33.339Z</time></trkpt><trkpt lat="43.70917" lon="11.2130633"><ele>74.0</ele><time>2026-04-30T07:49:34.339Z</time></trkpt><trkpt lat="43.7089433" lon="11.2130167"><ele>74.0</ele><time>2026-04-30T07:49:35.338Z</time></trkpt><trkpt lat="43.7087183" lon="11.2129767"><ele>74.5</ele><time>2026-04-30T07:49:36.338Z</time></trkpt><trkpt lat="43.7084883" lon="11.212955"><ele>75.0</ele><time>2026-04-30T07:49:37.339Z</time></trkpt><trkpt lat="43.7082583" lon="11.2129417"><ele>75.0</ele><time>2026-04-30T07:49:38.339Z</time></trkpt><trkpt lat="43.7080317" lon="11.2129417"><ele>75.0</ele><time>2026-04-30T07:49:39.339Z</time></trkpt><trkpt lat="43.7078" lon="11.2129517"><ele>77.5</ele><time>2026-04-30T07:49:40.339Z</time></trkpt><trkpt lat="43.7075633" lon="11.2129733"><ele>80.0</ele><time>2026-04-30T07:49:41.339Z</time></trkpt><trkpt lat="43.7073233" lon="11.2130067"><ele>80.0</ele><time>2026-04-30T07:49:42.338Z</time></trkpt><trkpt lat="43.7070817" lon="11.2130467"><ele>80.0</ele><time>2026-04-30T07:49:43.339Z</time></trkpt><trkpt lat="43.706835" lon="11.2130883"><ele>90.5</ele><time>2026-04-30T07:49:44.338Z</time></trkpt><trkpt lat="43.7065867" lon="11.213135"><ele>101.0</ele><time>2026-04-30T07:49:45.339Z</time></trkpt><trkpt lat="43.7063367" lon="11.21319"><ele>101.0</ele><time>2026-04-30T07:49:46.338Z</time></trkpt><trkpt lat="43.7060867" lon="11.2132283"><ele>101.0</ele><time>2026-04-30T07:49:47.338Z</time></trkpt><trkpt lat="43.70584" lon="11.2132667"><ele>97.0</ele><time>2026-04-30T07:49:48.339Z</time></trkpt><trkpt lat="43.7028533" lon="11.2138233"><ele>95.5</ele><time>2026-04-30T07:49:59.337Z</time></trkpt><trkpt lat="43.702575" lon="11.2138583"><ele>94.0</ele><time>2026-04-30T07:50:00.337Z</time></trkpt><trkpt lat="43.70231" lon="11.2138817"><ele>94.0</ele><time>2026-04-30T07:50:01.337Z</time></trkpt><trkpt lat="43.702055" lon="11.213895"><ele>94.0</ele><time>2026-04-30T07:50:02.337Z</time></trkpt><trkpt lat="43.7018183" lon="11.21388"><ele>94.5</ele><time>2026-04-30T07:50:03.338Z</time></trkpt><trkpt lat="43.701585" lon="11.2138583"><ele>95.0</ele><time>2026-04-30T07:50:04.337Z</time></trkpt><trkpt lat="43.7013567" lon="11.213815"><ele>95.0</ele><time>2026-04-30T07:50:05.338Z</time></trkpt><trkpt lat="43.7011367" lon="11.21376"><ele>95.0</ele><time>2026-04-30T07:50:06.338Z</time></trkpt><trkpt lat="43.7009233" lon="11.213705"><ele>95.0</ele><time>2026-04-30T07:50:07.338Z</time></trkpt><trkpt lat="43.7007117" lon="11.2136383"><ele>92.0</ele><time>2026-04-30T07:50:08.338Z</time></trkpt><trkpt lat="43.7005017" lon="11.2135583"><ele>89.0</ele><time>2026-04-30T07:50:09.337Z</time></trkpt><trkpt lat="43.7003" lon="11.213465"><ele>86.0</ele><time>2026-04-30T07:50:10.337Z</time></trkpt><trkpt lat="43.7001" lon="11.2133517"><ele>86.0</ele><time>2026-04-30T07:50:11.338Z</time></trkpt><trkpt lat="43.699905" lon="11.2132267"><ele>86.0</ele><time>2026-04-30T07:50:12.338Z</time></trkpt><trkpt lat="43.6997167" lon="11.21309"><ele>86.0</ele><time>2026-04-30T07:50:13.338Z</time></trkpt><trkpt lat="43.6995317" lon="11.21294"><ele>87.0</ele><time>2026-04-30T07:50:14.338Z</time></trkpt><trkpt lat="43.69934" lon="11.2127817"><ele>88.0</ele><time>2026-04-30T07:50:15.338Z</time></trkpt><trkpt lat="43.6991533" lon="11.2126283"><ele>89.0</ele><time>2026-04-30T07:50:16.337Z</time></trkpt><trkpt lat="43.69897" lon="11.2124667"><ele>89.0</ele><time>2026-04-30T07:50:17.337Z</time></trkpt><trkpt lat="43.6987983" lon="11.2123317"><ele>89.0</ele><time>2026-04-30T07:50:18.338Z</time></trkpt><trkpt lat="43.6986183" lon="11.212185"><ele>89.0</ele><time>2026-04-30T07:50:19.337Z</time></trkpt><trkpt lat="43.6984417" lon="11.2120517"><ele>89.0</ele><time>2026-04-30T07:50:20.338Z</time></trkpt><trkpt lat="43.6982567" lon="11.21193"><ele>89.0</ele><time>2026-04-30T07:50:21.338Z</time></trkpt><trkpt lat="43.6980767" lon="11.21182"><ele>89.0</ele><time>2026-04-30T07:50:22.338Z</time></trkpt><trkpt lat="43.6978883" lon="11.2117317"><ele>90.33333333333334</ele><time>2026-04-30T07:50:23.338Z</time></trkpt><trkpt lat="43.697705" lon="11.2116417"><ele>91.66666666666667</ele><time>2026-04-30T07:50:24.338Z</time></trkpt><trkpt lat="43.697515" lon="11.2115667"><ele>93.0</ele><time>2026-04-30T07:50:25.338Z</time></trkpt><trkpt lat="43.6973167" lon="11.21151"><ele>92.0</ele><time>2026-04-30T07:50:26.338Z</time></trkpt><trkpt lat="43.6971417" lon="11.21146"><ele>91.0</ele><time>2026-04-30T07:50:27.338Z</time></trkpt><trkpt lat="43.69697" lon="11.2114317"><ele>90.0</ele><time>2026-04-30T07:50:28.338Z</time></trkpt><trkpt lat="43.6968167" lon="11.2114117"><ele>90.0</ele><time>2026-04-30T07:50:29.338Z</time></trkpt><trkpt lat="43.6966783" lon="11.2113983"><ele>90.0</ele><time>2026-04-30T07:50:30.338Z</time></trkpt><trkpt lat="43.6965717" lon="11.2113867"><ele>90.0</ele><time>2026-04-30T07:50:31.337Z</time></trkpt><trkpt lat="43.6964833" lon="11.21135"><ele>90.0</ele><time>2026-04-30T07:50:32.337Z</time></trkpt><trkpt lat="43.6964183" lon="11.211275"><ele>90.0</ele><time>2026-04-30T07:50:33.338Z</time></trkpt><trkpt lat="43.6963783" lon="11.211175"><ele>90.0</ele><time>2026-04-30T07:50:34.337Z</time></trkpt><trkpt lat="43.69635" lon="11.211075"><ele>90.0</ele><time>2026-04-30T07:50:35.338Z</time></trkpt><trkpt lat="43.6963183" lon="11.2109817"><ele>90.0</ele><time>2026-04-30T07:50:36.338Z</time></trkpt><trkpt lat="43.6962717" lon="11.2109117"><ele>90.0</ele><time>2026-04-30T07:50:37.338Z</time></trkpt><trkpt lat="43.6962017" lon="11.2108817"><ele>90.0</ele><time>2026-04-30T07:50:38.337Z</time></trkpt><trkpt lat="43.69611" lon="11.2109"><ele>90.0</ele><time>2026-04-30T07:50:39.338Z</time></trkpt><trkpt lat="43.6959967" lon="11.2109433"><ele>90.0</ele><time>2026-04-30T07:50:40.337Z</time></trkpt><trkpt lat="43.6958717" lon="11.2110217"><ele>90.0</ele><time>2026-04-30T07:50:41.338Z</time></trkpt><trkpt lat="43.695735" lon="11.2111"><ele>90.0</ele><time>2026-04-30T07:50:42.338Z</time></trkpt><trkpt lat="43.6955833" lon="11.2111883"><ele>90.0</ele><time>2026-04-30T07:50:43.338Z</time></trkpt><trkpt lat="43.6954317" lon="11.2112767"><ele>90.0</ele><time>2026-04-30T07:50:44.338Z</time></trkpt><trkpt lat="43.69528" lon="11.2113567"><ele>90.0</ele><time>2026-04-30T07:50:45.338Z</time></trkpt><trkpt lat="43.695115" lon="11.211445"><ele>90.66666666666667</ele><time>2026-04-30T07:50:46.338Z</time></trkpt><trkpt lat="43.6949467" lon="11.2115517"><ele>91.33333333333334</ele><time>2026-04-30T07:50:47.338Z</time></trkpt><trkpt lat="43.6947783" lon="11.2116367"><ele>92.0</ele><time>2026-04-30T07:50:48.338Z</time></trkpt><trkpt lat="43.6946133" lon="11.21173"><ele>92.0</ele><time>2026-04-30T07:50:49.338Z</time></trkpt><trkpt lat="43.6944383" lon="11.2118233"><ele>92.0</ele><time>2026-04-30T07:50:50.338Z</time></trkpt><trkpt lat="43.6942667" lon="11.2119283"><ele>92.0</ele><time>2026-04-30T07:50:51.338Z</time></trkpt><trkpt lat="43.6940883" lon="11.21203"><ele>90.66666666666667</ele><time>2026-04-30T07:50:52.338Z</time></trkpt><trkpt lat="43.6939017" lon="11.2121333"><ele>89.33333333333333</ele><time>2026-04-30T07:50:53.338Z</time></trkpt><trkpt lat="43.6937267" lon="11.212245"><ele>88.0</ele><time>2026-04-30T07:50:54.338Z</time></trkpt><trkpt lat="43.69355" lon="11.2123517"><ele>91.0</ele><time>2026-04-30T07:50:55.337Z</time></trkpt><trkpt lat="43.69338" lon="11.2124517"><ele>94.0</ele><time>2026-04-30T07:50:56.338Z</time></trkpt><trkpt lat="43.693205" lon="11.212545"><ele>97.0</ele><time>2026-04-30T07:50:57.338Z</time></trkpt><trkpt lat="43.6930267" lon="11.2126267"><ele>97.0</ele><time>2026-04-30T07:50:58.338Z</time></trkpt><trkpt lat="43.6928417" lon="11.2126917"><ele>97.0</ele><time>2026-04-30T07:50:59.338Z</time></trkpt><trkpt lat="43.6926633" lon="11.2127483"><ele>97.0</ele><time>2026-04-30T07:51:00.338Z</time></trkpt><trkpt lat="43.6924717" lon="11.2127817"><ele>95.33333333333334</ele><time>2026-04-30T07:51:01.337Z</time></trkpt><trkpt lat="43.69229" lon="11.2127883"><ele>93.66666666666667</ele><time>2026-04-30T07:51:02.338Z</time></trkpt><trkpt lat="43.6921017" lon="11.2127567"><ele>92.0</ele><time>2026-04-30T07:51:03.338Z</time></trkpt><trkpt lat="43.691905" lon="11.2127017"><ele>92.0</ele><time>2026-04-30T07:51:04.337Z</time></trkpt><trkpt lat="43.6917167" lon="11.21262"><ele>92.0</ele><time>2026-04-30T07:51:05.338Z</time></trkpt><trkpt lat="43.6915233" lon="11.2125367"><ele>92.0</ele><time>2026-04-30T07:51:06.337Z</time></trkpt><trkpt lat="43.6913367" lon="11.2124483"><ele>92.0</ele><time>2026-04-30T07:51:07.337Z</time></trkpt><trkpt lat="43.6911467" lon="11.2123667"><ele>92.0</ele><time>2026-04-30T07:51:08.338Z</time></trkpt><trkpt lat="43.6909533" lon="11.212285"><ele>92.0</ele><time>2026-04-30T07:51:09.338Z</time></trkpt><trkpt lat="43.6907633" lon="11.2122067"><ele>92.0</ele><time>2026-04-30T07:51:10.338Z</time></trkpt><trkpt lat="43.69057" lon="11.2121217"><ele>92.0</ele><time>2026-04-30T07:51:11.338Z</time></trkpt><trkpt lat="43.6903817" lon="11.212035"><ele>92.0</ele><time>2026-04-30T07:51:12.337Z</time></trkpt><trkpt lat="43.6901967" lon="11.2119517"><ele>92.0</ele><time>2026-04-30T07:51:13.337Z</time></trkpt><trkpt lat="43.6900067" lon="11.2118733"><ele>92.0</ele><time>2026-04-30T07:51:14.338Z</time></trkpt><trkpt lat="43.689815" lon="11.2117983"><ele>92.0</ele><time>2026-04-30T07:51:15.337Z</time></trkpt><trkpt lat="43.689635" lon="11.2117133"><ele>92.0</ele><time>2026-04-30T07:51:16.338Z</time></trkpt><trkpt lat="43.6894483" lon="11.21164"><ele>92.0</ele><time>2026-04-30T07:51:17.338Z</time></trkpt><trkpt lat="43.6892683" lon="11.2115733"><ele>92.0</ele><time>2026-04-30T07:51:18.337Z</time></trkpt><trkpt lat="43.689095" lon="11.2115083"><ele>91.66666666666667</ele><time>2026-04-30T07:51:19.338Z</time></trkpt><trkpt lat="43.688885" lon="11.2114717"><ele>91.33333333333333</ele><time>2026-04-30T07:51:20.338Z</time></trkpt><trkpt lat="43.688685" lon="11.21148"><ele>91.0</ele><time>2026-04-30T07:51:21.338Z</time></trkpt><trkpt lat="43.6884733" lon="11.2114983"><ele>94.33333333333333</ele><time>2026-04-30T07:51:22.336Z</time></trkpt><trkpt lat="43.6882567" lon="11.21152"><ele>97.66666666666666</ele><time>2026-04-30T07:51:23.337Z</time></trkpt><trkpt lat="43.6880367" lon="11.21153"><ele>101.0</ele><time>2026-04-30T07:51:24.337Z</time></trkpt><trkpt lat="43.68782" lon="11.2115367"><ele>101.33333333333333</ele><time>2026-04-30T07:51:25.337Z</time></trkpt><trkpt lat="43.6876133" lon="11.2115583"><ele>101.66666666666666</ele><time>2026-04-30T07:51:26.337Z</time></trkpt><trkpt lat="43.6874033" lon="11.21157"><ele>102.0</ele><time>2026-04-30T07:51:27.336Z</time></trkpt><trkpt lat="43.6871917" lon="11.2115867"><ele>102.0</ele><time>2026-04-30T07:51:28.337Z</time></trkpt><trkpt lat="43.6869783" lon="11.2116017"><ele>102.0</ele><time>2026-04-30T07:51:29.337Z</time></trkpt><trkpt lat="43.68677" lon="11.2116133"><ele>102.0</ele><time>2026-04-30T07:51:30.337Z</time></trkpt><trkpt lat="43.6865633" lon="11.2116267"><ele>102.66666666666666</ele><time>2026-04-30T07:51:31.336Z</time></trkpt><trkpt lat="43.68636" lon="11.211655"><ele>103.33333333333333</ele><time>2026-04-30T07:51:32.337Z</time></trkpt><trkpt lat="43.6861567" lon="11.21168"><ele>104.0</ele><time>2026-04-30T07:51:33.337Z</time></trkpt><trkpt lat="43.6859517" lon="11.21172"><ele>105.0</ele><time>2026-04-30T07:51:34.337Z</time></trkpt><trkpt lat="43.6857483" lon="11.211765"><ele>106.0</ele><time>2026-04-30T07:51:35.337Z</time></trkpt><trkpt lat="43.68555" lon="11.2118"><ele>107.0</ele><time>2026-04-30T07:51:36.336Z</time></trkpt><trkpt lat="43.685345" lon="11.2118433"><ele>108.66666666666666</ele><time>2026-04-30T07:51:37.337Z</time></trkpt><trkpt lat="43.6851433" lon="11.2118883"><ele>110.33333333333334</ele><time>2026-04-30T07:51:38.337Z</time></trkpt><trkpt lat="43.684955" lon="11.21194"><ele>112.0</ele><time>2026-04-30T07:51:39.337Z</time></trkpt><trkpt lat="43.684775" lon="11.2120017"><ele>112.0</ele><time>2026-04-30T07:51:40.337Z</time></trkpt><trkpt lat="43.6846133" lon="11.2120433"><ele>112.0</ele><time>2026-04-30T07:51:41.336Z</time></trkpt><trkpt lat="43.6844617" lon="11.212085"><ele>112.0</ele><time>2026-04-30T07:51:42.336Z</time></trkpt><trkpt lat="43.6843267" lon="11.2121133"><ele>112.0</ele><time>2026-04-30T07:51:43.336Z</time></trkpt><trkpt lat="43.6842067" lon="11.2121533"><ele>112.0</ele><time>2026-04-30T07:51:44.336Z</time></trkpt><trkpt lat="43.684085" lon="11.212185"><ele>112.0</ele><time>2026-04-30T07:51:45.337Z</time></trkpt><trkpt lat="43.683965" lon="11.212205"><ele>112.0</ele><time>2026-04-30T07:51:46.337Z</time></trkpt><trkpt lat="43.68384" lon="11.2122233"><ele>112.0</ele><time>2026-04-30T07:51:47.337Z</time></trkpt><trkpt lat="43.6837067" lon="11.2122483"><ele>112.0</ele><time>2026-04-30T07:51:48.336Z</time></trkpt><trkpt lat="43.6835917" lon="11.2122967"><ele>112.0</ele><time>2026-04-30T07:51:49.337Z</time></trkpt><trkpt lat="43.6834833" lon="11.212355"><ele>112.0</ele><time>2026-04-30T07:51:50.337Z</time></trkpt><trkpt lat="43.6833833" lon="11.212425"><ele>108.25</ele><time>2026-04-30T07:51:51.337Z</time></trkpt><trkpt lat="43.683285" lon="11.2124917"><ele>104.5</ele><time>2026-04-30T07:51:52.337Z</time></trkpt><trkpt lat="43.6831867" lon="11.2125683"><ele>100.75</ele><time>2026-04-30T07:51:53.336Z</time></trkpt><trkpt lat="43.6830767" lon="11.212645"><ele>97.0</ele><time>2026-04-30T07:51:54.336Z</time></trkpt><trkpt lat="43.682955" lon="11.212725"><ele>97.0</ele><time>2026-04-30T07:51:55.337Z</time></trkpt><trkpt lat="43.6828283" lon="11.2127867"><ele>97.0</ele><time>2026-04-30T07:51:56.337Z</time></trkpt><trkpt lat="43.6827033" lon="11.212835"><ele>97.0</ele><time>2026-04-30T07:51:57.337Z</time></trkpt><trkpt lat="43.6825717" lon="11.2128733"><ele>97.0</ele><time>2026-04-30T07:51:58.337Z</time></trkpt><trkpt lat="43.6824317" lon="11.2128833"><ele>97.0</ele><time>2026-04-30T07:51:59.337Z</time></trkpt><trkpt lat="43.6822833" lon="11.2128617"><ele>97.0</ele><time>2026-04-30T07:52:00.337Z</time></trkpt><trkpt lat="43.6821317" lon="11.212815"><ele>97.0</ele><time>2026-04-30T07:52:01.337Z</time></trkpt><trkpt lat="43.6819817" lon="11.212775"><ele>97.33333333333334</ele><time>2026-04-30T07:52:02.337Z</time></trkpt><trkpt lat="43.6818367" lon="11.21272"><ele>97.66666666666666</ele><time>2026-04-30T07:52:03.337Z</time></trkpt><trkpt lat="43.6816817" lon="11.2126833"><ele>98.0</ele><time>2026-04-30T07:52:04.337Z</time></trkpt><trkpt lat="43.68152" lon="11.2126383"><ele>98.0</ele><time>2026-04-30T07:52:05.336Z</time></trkpt><trkpt lat="43.6813767" lon="11.2125967"><ele>98.0</ele><time>2026-04-30T07:52:06.337Z</time></trkpt><trkpt lat="43.6812217" lon="11.2125217"><ele>98.0</ele><time>2026-04-30T07:52:07.337Z</time></trkpt><trkpt lat="43.68108" lon="11.2124267"><ele>97.33333333333333</ele><time>2026-04-30T07:52:08.336Z</time></trkpt><trkpt lat="43.680945" lon="11.2123"><ele>96.66666666666666</ele><time>2026-04-30T07:52:09.336Z</time></trkpt><trkpt lat="43.6808117" lon="11.21217"><ele>96.0</ele><time>2026-04-30T07:52:10.337Z</time></trkpt><trkpt lat="43.6806933" lon="11.2120533"><ele>96.0</ele><time>2026-04-30T07:52:11.337Z</time></trkpt><trkpt lat="43.680585" lon="11.2119017"><ele>96.0</ele><time>2026-04-30T07:52:12.336Z</time></trkpt><trkpt lat="43.680455" lon="11.2117733"><ele>96.0</ele><time>2026-04-30T07:52:13.337Z</time></trkpt><trkpt lat="43.68033" lon="11.2116367"><ele>96.0</ele><time>2026-04-30T07:52:14.337Z</time></trkpt><trkpt lat="43.6802133" lon="11.21151"><ele>96.0</ele><time>2026-04-30T07:52:15.336Z</time></trkpt><trkpt lat="43.6800967" lon="11.21138"><ele>96.0</ele><time>2026-04-30T07:52:16.337Z</time></trkpt><trkpt lat="43.67997" lon="11.2112533"><ele>96.0</ele><time>2026-04-30T07:52:17.337Z</time></trkpt><trkpt lat="43.6798533" lon="11.2111233"><ele>96.0</ele><time>2026-04-30T07:52:18.337Z</time></trkpt><trkpt lat="43.6797383" lon="11.2109967"><ele>96.0</ele><time>2026-04-30T07:52:19.337Z</time></trkpt><trkpt lat="43.6796217" lon="11.21087"><ele>96.0</ele><time>2026-04-30T07:52:20.337Z</time></trkpt><trkpt lat="43.6795083" lon="11.210745"><ele>96.25</ele><time>2026-04-30T07:52:21.337Z</time></trkpt><trkpt lat="43.6793983" lon="11.21062"><ele>96.5</ele><time>2026-04-30T07:52:22.336Z</time></trkpt><trkpt lat="43.6792911" lon="11.210491"><ele>96.75</ele><time>2026-04-30T07:52:23.336Z</time></trkpt><trkpt lat="43.6791872" lon="11.2103607"><ele>97.0</ele><time>2026-04-30T07:52:24.336Z</time></trkpt><trkpt lat="43.6790854" lon="11.2102267"><ele>97.0</ele><time>2026-04-30T07:52:25.336Z</time></trkpt><trkpt lat="43.6789817" lon="11.2100901"><ele>97.0</ele><time>2026-04-30T07:52:26.337Z</time></trkpt><trkpt lat="43.678879" lon="11.2099583"><ele>97.0</ele><time>2026-04-30T07:52:27.337Z</time></trkpt><trkpt lat="43.678764" lon="11.2098351"><ele>97.0</ele><time>2026-04-30T07:52:28.336Z</time></trkpt><trkpt lat="43.6786392" lon="11.2097243"><ele>97.0</ele><time>2026-04-30T07:52:29.337Z</time></trkpt><trkpt lat="43.6785116" lon="11.2096262"><ele>97.0</ele><time>2026-04-30T07:52:30.337Z</time></trkpt><trkpt lat="43.6783783" lon="11.2095496"><ele>97.0</ele><time>2026-04-30T07:52:31.336Z</time></trkpt><trkpt lat="43.6782425" lon="11.2094884"><ele>97.0</ele><time>2026-04-30T07:52:32.336Z</time></trkpt><trkpt lat="43.6781078" lon="11.2094518"><ele>97.0</ele><time>2026-04-30T07:52:33.337Z</time></trkpt><trkpt lat="43.6779733" lon="11.2094355"><ele>97.0</ele><time>2026-04-30T07:52:34.336Z</time></trkpt><trkpt lat="43.6778419" lon="11.2094245"><ele>97.0</ele><time>2026-04-30T07:52:35.336Z</time></trkpt><trkpt lat="43.6777118" lon="11.2094377"><ele>97.0</ele><time>2026-04-30T07:52:36.337Z</time></trkpt><trkpt lat="43.6775714" lon="11.2094637"><ele>97.75</ele><time>2026-04-30T07:52:37.337Z</time></trkpt><trkpt lat="43.6774292" lon="11.2095067"><ele>98.5</ele><time>2026-04-30T07:52:38.337Z</time></trkpt><trkpt lat="43.6772951" lon="11.2095614"><ele>99.25</ele><time>2026-04-30T07:52:39.337Z</time></trkpt><trkpt lat="43.6771656" lon="11.209623"><ele>100.0</ele><time>2026-04-30T07:52:40.337Z</time></trkpt><trkpt lat="43.6770463" lon="11.2096942"><ele>100.0</ele><time>2026-04-30T07:52:41.336Z</time></trkpt><trkpt lat="43.6769401" lon="11.2097793"><ele>100.0</ele><time>2026-04-30T07:52:42.337Z</time></trkpt><trkpt lat="43.6768346" lon="11.2098803"><ele>100.0</ele><time>2026-04-30T07:52:43.337Z</time></trkpt><trkpt lat="43.6767331" lon="11.2100062"><ele>100.0</ele><time>2026-04-30T07:52:44.337Z</time></trkpt><trkpt lat="43.6766378" lon="11.2101481"><ele>101.0</ele><time>2026-04-30T07:52:45.337Z</time></trkpt><trkpt lat="43.6765457" lon="11.2102952"><ele>102.0</ele><time>2026-04-30T07:52:46.336Z</time></trkpt><trkpt lat="43.6764579" lon="11.2104484"><ele>103.0</ele><time>2026-04-30T07:52:47.337Z</time></trkpt><trkpt lat="43.6763929" lon="11.2106292"><ele>104.0</ele><time>2026-04-30T07:52:48.336Z</time></trkpt><trkpt lat="43.6763419" lon="11.2108289"><ele>107.66666666666666</ele><time>2026-04-30T07:52:49.337Z</time></trkpt><trkpt lat="43.6762899" lon="11.2110326"><ele>111.33333333333334</ele><time>2026-04-30T07:52:50.337Z</time></trkpt><trkpt lat="43.6762477" lon="11.2112394"><ele>115.0</ele><time>2026-04-30T07:52:51.337Z</time></trkpt><trkpt lat="43.676224" lon="11.21144"><ele>114.75</ele><time>2026-04-30T07:52:52.336Z</time></trkpt><trkpt lat="43.6762098" lon="11.2116428"><ele>114.5</ele><time>2026-04-30T07:52:53.336Z</time></trkpt><trkpt lat="43.676203" lon="11.2118434"><ele>114.25</ele><time>2026-04-30T07:52:54.336Z</time></trkpt><trkpt lat="43.6762005" lon="11.2120418"><ele>114.0</ele><time>2026-04-30T07:52:55.337Z</time></trkpt><trkpt lat="43.6762034" lon="11.2122404"><ele>113.25</ele><time>2026-04-30T07:52:56.337Z</time></trkpt><trkpt lat="43.6761981" lon="11.2124221"><ele>112.5</ele><time>2026-04-30T07:52:57.337Z</time></trkpt><trkpt lat="43.6761986" lon="11.2125841"><ele>111.75</ele><time>2026-04-30T07:52:58.337Z</time></trkpt><trkpt lat="43.6762067" lon="11.21273"><ele>111.0</ele><time>2026-04-30T07:52:59.337Z</time></trkpt><trkpt lat="43.6762083" lon="11.2128783"><ele>111.0</ele><time>2026-04-30T07:53:00.337Z</time></trkpt><trkpt lat="43.6762" lon="11.2130233"><ele>111.0</ele><time>2026-04-30T07:53:01.337Z</time></trkpt><trkpt lat="43.6761817" lon="11.213145"><ele>111.0</ele><time>2026-04-30T07:53:02.337Z</time></trkpt><trkpt lat="43.67616" lon="11.2132517"><ele>111.0</ele><time>2026-04-30T07:53:03.337Z</time></trkpt><trkpt lat="43.6761267" lon="11.2133833"><ele>111.0</ele><time>2026-04-30T07:53:05.337Z</time></trkpt><trkpt lat="43.676095" lon="11.213465"><ele>111.0</ele><time>2026-04-30T07:53:08.337Z</time></trkpt><trkpt lat="43.67609" lon="11.21358"><ele>111.16666666666667</ele><time>2026-04-30T07:53:11.336Z</time></trkpt><trkpt lat="43.67613" lon="11.2136767"><ele>111.33333333333334</ele><time>2026-04-30T07:53:13.336Z</time></trkpt><trkpt lat="43.6761583" lon="11.213855"><ele>111.5</ele><time>2026-04-30T07:53:15.337Z</time></trkpt><trkpt lat="43.67616" lon="11.2139633"><ele>111.66666666666667</ele><time>2026-04-30T07:53:16.337Z</time></trkpt><trkpt lat="43.6761517" lon="11.2140683"><ele>111.83333333333334</ele><time>2026-04-30T07:53:17.337Z</time></trkpt><trkpt lat="43.676135" lon="11.21417"><ele>112.0</ele><time>2026-04-30T07:53:18.337Z</time></trkpt><trkpt lat="43.6761067" lon="11.2142783"><ele>111.0</ele><time>2026-04-30T07:53:19.337Z</time></trkpt><trkpt lat="43.6760783" lon="11.214395"><ele>109.99999999999999</ele><time>2026-04-30T07:53:20.337Z</time></trkpt><trkpt lat="43.67605" lon="11.2145183"><ele>108.99999999999999</ele><time>2026-04-30T07:53:21.337Z</time></trkpt><trkpt lat="43.6760083" lon="11.21464"><ele>108.0</ele><time>2026-04-30T07:53:22.337Z</time></trkpt><trkpt lat="43.6759667" lon="11.2147533"><ele>107.0</ele><time>2026-04-30T07:53:23.337Z</time></trkpt><trkpt lat="43.6759233" lon="11.214875"><ele>107.0</ele><time>2026-04-30T07:53:24.337Z</time></trkpt><trkpt lat="43.675865" lon="11.21499"><ele>106.99999999999999</ele><time>2026-04-30T07:53:25.337Z</time></trkpt><trkpt lat="43.6757917" lon="11.2151"><ele>106.99999999999999</ele><time>2026-04-30T07:53:26.337Z</time></trkpt><trkpt lat="43.6757133" lon="11.2151983"><ele>107.0</ele><time>2026-04-30T07:53:27.337Z</time></trkpt><trkpt lat="43.675645" lon="11.2152967"><ele>107.0</ele><time>2026-04-30T07:53:28.336Z</time></trkpt><trkpt lat="43.6755633" lon="11.2153883"><ele>107.0</ele><time>2026-04-30T07:53:29.337Z</time></trkpt><trkpt lat="43.6754833" lon="11.215485"><ele>107.0</ele><time>2026-04-30T07:53:30.336Z</time></trkpt><trkpt lat="43.6753933" lon="11.21558"><ele>107.0</ele><time>2026-04-30T07:53:31.337Z</time></trkpt><trkpt lat="43.6752933" lon="11.2156617"><ele>107.0</ele><time>2026-04-30T07:53:32.336Z</time></trkpt><trkpt lat="43.67519" lon="11.2157317"><ele>107.5</ele><time>2026-04-30T07:53:33.336Z</time></trkpt><trkpt lat="43.6750817" lon="11.2157883"><ele>108.0</ele><time>2026-04-30T07:53:34.336Z</time></trkpt><trkpt lat="43.674975" lon="11.21585"><ele>108.5</ele><time>2026-04-30T07:53:35.337Z</time></trkpt><trkpt lat="43.6748667" lon="11.2158933"><ele>109.0</ele><time>2026-04-30T07:53:36.337Z</time></trkpt><trkpt lat="43.6747617" lon="11.2159217"><ele>109.0</ele><time>2026-04-30T07:53:37.336Z</time></trkpt><trkpt lat="43.674655" lon="11.215935"><ele>109.0</ele><time>2026-04-30T07:53:38.337Z</time></trkpt><trkpt lat="43.67454" lon="11.2159317"><ele>109.0</ele><time>2026-04-30T07:53:39.337Z</time></trkpt><trkpt lat="43.67442" lon="11.2159117"><ele>109.0</ele><time>2026-04-30T07:53:40.337Z</time></trkpt><trkpt lat="43.6743017" lon="11.21587"><ele>108.0</ele><time>2026-04-30T07:53:41.336Z</time></trkpt><trkpt lat="43.6741883" lon="11.215825"><ele>107.0</ele><time>2026-04-30T07:53:42.337Z</time></trkpt><trkpt lat="43.67408" lon="11.215765"><ele>106.0</ele><time>2026-04-30T07:53:43.337Z</time></trkpt><trkpt lat="43.6739667" lon="11.21569"><ele>105.0</ele><time>2026-04-30T07:53:44.336Z</time></trkpt><trkpt lat="43.67384" lon="11.2156"><ele>104.5</ele><time>2026-04-30T07:53:45.336Z</time></trkpt><trkpt lat="43.673725" lon="11.2154867"><ele>104.0</ele><time>2026-04-30T07:53:46.336Z</time></trkpt><trkpt lat="43.6736083" lon="11.2153733"><ele>103.5</ele><time>2026-04-30T07:53:47.337Z</time></trkpt><trkpt lat="43.673505" lon="11.215245"><ele>103.0</ele><time>2026-04-30T07:53:48.337Z</time></trkpt><trkpt lat="43.6734183" lon="11.21511"><ele>103.5</ele><time>2026-04-30T07:53:49.336Z</time></trkpt><trkpt lat="43.6733367" lon="11.2149733"><ele>104.0</ele><time>2026-04-30T07:53:50.336Z</time></trkpt><trkpt lat="43.6732733" lon="11.214825"><ele>104.5</ele><time>2026-04-30T07:53:51.337Z</time></trkpt><trkpt lat="43.6732" lon="11.214675"><ele>105.0</ele><time>2026-04-30T07:53:52.337Z</time></trkpt><trkpt lat="43.6731117" lon="11.21455"><ele>105.0</ele><time>2026-04-30T07:53:53.336Z</time></trkpt><trkpt lat="43.6730117" lon="11.21444"><ele>105.0</ele><time>2026-04-30T07:53:54.336Z</time></trkpt><trkpt lat="43.6728967" lon="11.2143367"><ele>105.0</ele><time>2026-04-30T07:53:55.337Z</time></trkpt><trkpt lat="43.6727733" lon="11.2142517"><ele>105.0</ele><time>2026-04-30T07:53:56.337Z</time></trkpt><trkpt lat="43.6726583" lon="11.2141717"><ele>104.75</ele><time>2026-04-30T07:53:57.337Z</time></trkpt><trkpt lat="43.67254" lon="11.2140983"><ele>104.5</ele><time>2026-04-30T07:53:58.337Z</time></trkpt><trkpt lat="43.6724117" lon="11.2140367"><ele>104.25</ele><time>2026-04-30T07:53:59.336Z</time></trkpt><trkpt lat="43.6722833" lon="11.2139983"><ele>104.0</ele><time>2026-04-30T07:54:00.337Z</time></trkpt><trkpt lat="43.672145" lon="11.2139783"><ele>104.0</ele><time>2026-04-30T07:54:01.337Z</time></trkpt><trkpt lat="43.6720017" lon="11.2139867"><ele>104.0</ele><time>2026-04-30T07:54:02.336Z</time></trkpt><trkpt lat="43.6718567" lon="11.2140183"><ele>104.0</ele><time>2026-04-30T07:54:03.337Z</time></trkpt><trkpt lat="43.6717117" lon="11.21405"><ele>104.0</ele><time>2026-04-30T07:54:04.337Z</time></trkpt><trkpt lat="43.67155" lon="11.2140983"><ele>106.0</ele><time>2026-04-30T07:54:05.336Z</time></trkpt><trkpt lat="43.67137" lon="11.214155"><ele>108.0</ele><time>2026-04-30T07:54:06.337Z</time></trkpt><trkpt lat="43.6711667" lon="11.2142217"><ele>110.0</ele><time>2026-04-30T07:54:07.337Z</time></trkpt><trkpt lat="43.6709433" lon="11.2142633"><ele>110.0</ele><time>2026-04-30T07:54:08.337Z</time></trkpt><trkpt lat="43.6707183" lon="11.21429"><ele>110.0</ele><time>2026-04-30T07:54:09.337Z</time></trkpt><trkpt lat="43.6705" lon="11.21432"><ele>110.0</ele><time>2026-04-30T07:54:10.337Z</time></trkpt><trkpt lat="43.6702817" lon="11.2143617"><ele>109.66666666666666</ele><time>2026-04-30T07:54:11.336Z</time></trkpt><trkpt lat="43.6700683" lon="11.214415"><ele>109.33333333333334</ele><time>2026-04-30T07:54:12.337Z</time></trkpt><trkpt lat="43.66985" lon="11.2144633"><ele>109.0</ele><time>2026-04-30T07:54:13.337Z</time></trkpt><trkpt lat="43.6696417" lon="11.2145067"><ele>110.33333333333334</ele><time>2026-04-30T07:54:14.336Z</time></trkpt><trkpt lat="43.66943" lon="11.2145567"><ele>111.66666666666666</ele><time>2026-04-30T07:54:15.337Z</time></trkpt><trkpt lat="43.6692233" lon="11.2146017"><ele>113.0</ele><time>2026-04-30T07:54:16.336Z</time></trkpt><trkpt lat="43.66902" lon="11.214655"><ele>113.0</ele><time>2026-04-30T07:54:17.336Z</time></trkpt><trkpt lat="43.6688267" lon="11.2147033"><ele>113.0</ele><time>2026-04-30T07:54:18.337Z</time></trkpt><trkpt lat="43.66864" lon="11.2147517"><ele>113.0</ele><time>2026-04-30T07:54:19.337Z</time></trkpt><trkpt lat="43.6684533" lon="11.2147917"><ele>113.0</ele><time>2026-04-30T07:54:20.337Z</time></trkpt><trkpt lat="43.6682733" lon="11.2148417"><ele>113.0</ele><time>2026-04-30T07:54:21.337Z</time></trkpt><trkpt lat="43.668105" lon="11.21492"><ele>113.0</ele><time>2026-04-30T07:54:22.337Z</time></trkpt><trkpt lat="43.6679483" lon="11.2150367"><ele>113.0</ele><time>2026-04-30T07:54:23.337Z</time></trkpt><trkpt lat="43.6678033" lon="11.2151833"><ele>113.0</ele><time>2026-04-30T07:54:24.336Z</time></trkpt><trkpt lat="43.66767" lon="11.215375"><ele>113.0</ele><time>2026-04-30T07:54:25.337Z</time></trkpt><trkpt lat="43.6675467" lon="11.2155917"><ele>113.66666666666666</ele><time>2026-04-30T07:54:26.336Z</time></trkpt><trkpt lat="43.6674333" lon="11.2158267"><ele>114.33333333333334</ele><time>2026-04-30T07:54:27.337Z</time></trkpt><trkpt lat="43.6673117" lon="11.216065"><ele>115.0</ele><time>2026-04-30T07:54:28.336Z</time></trkpt><trkpt lat="43.6671933" lon="11.2162783"><ele>114.33333333333334</ele><time>2026-04-30T07:54:29.337Z</time></trkpt><trkpt lat="43.6670783" lon="11.2165"><ele>113.66666666666666</ele><time>2026-04-30T07:54:30.337Z</time></trkpt><trkpt lat="43.6669633" lon="11.2167333"><ele>113.0</ele><time>2026-04-30T07:54:31.337Z</time></trkpt><trkpt lat="43.6668733" lon="11.2169767"><ele>113.0</ele><time>2026-04-30T07:54:32.337Z</time></trkpt><trkpt lat="43.6668217" lon="11.2172317"><ele>113.0</ele><time>2026-04-30T07:54:33.337Z</time></trkpt><trkpt lat="43.6667933" lon="11.2174883"><ele>113.0</ele><time>2026-04-30T07:54:34.337Z</time></trkpt><trkpt lat="43.6667767" lon="11.21776"><ele>112.66666666666666</ele><time>2026-04-30T07:54:35.337Z</time></trkpt><trkpt lat="43.666765" lon="11.2180367"><ele>112.33333333333334</ele><time>2026-04-30T07:54:36.337Z</time></trkpt><trkpt lat="43.6667583" lon="11.21832"><ele>112.0</ele><time>2026-04-30T07:54:37.337Z</time></trkpt><trkpt lat="43.666745" lon="11.2186"><ele>113.33333333333334</ele><time>2026-04-30T07:54:38.337Z</time></trkpt><trkpt lat="43.6667367" lon="11.21889"><ele>114.66666666666666</ele><time>2026-04-30T07:54:39.336Z</time></trkpt><trkpt lat="43.6667417" lon="11.2191833"><ele>116.0</ele><time>2026-04-30T07:54:40.336Z</time></trkpt><trkpt lat="43.6667367" lon="11.2194717"><ele>116.0</ele><time>2026-04-30T07:54:41.336Z</time></trkpt><trkpt lat="43.6667233" lon="11.2197667"><ele>116.0</ele><time>2026-04-30T07:54:42.337Z</time></trkpt><trkpt lat="43.6666867" lon="11.220055"><ele>116.0</ele><time>2026-04-30T07:54:43.337Z</time></trkpt><trkpt lat="43.66664" lon="11.2203467"><ele>116.33333333333333</ele><time>2026-04-30T07:54:44.337Z</time></trkpt><trkpt lat="43.6665833" lon="11.22063"><ele>116.66666666666666</ele><time>2026-04-30T07:54:45.337Z</time></trkpt><trkpt lat="43.66652" lon="11.2208983"><ele>117.0</ele><time>2026-04-30T07:54:46.337Z</time></trkpt><trkpt lat="43.6664567" lon="11.2211683"><ele>117.33333333333334</ele><time>2026-04-30T07:54:47.337Z</time></trkpt><trkpt lat="43.6664067" lon="11.2214217"><ele>117.66666666666667</ele><time>2026-04-30T07:54:48.337Z</time></trkpt><trkpt lat="43.6663983" lon="11.2217033"><ele>118.0</ele><time>2026-04-30T07:54:49.337Z</time></trkpt><trkpt lat="43.6664117" lon="11.22198"><ele>118.0</ele><time>2026-04-30T07:54:50.337Z</time></trkpt><trkpt lat="43.6664267" lon="11.222255"><ele>118.0</ele><time>2026-04-30T07:54:51.337Z</time></trkpt><trkpt lat="43.6664583" lon="11.2225183"><ele>118.0</ele><time>2026-04-30T07:54:52.337Z</time></trkpt><trkpt lat="43.666485" lon="11.222805"><ele>118.0</ele><time>2026-04-30T07:54:53.337Z</time></trkpt><trkpt lat="43.6665133" lon="11.223095"><ele>118.0</ele><time>2026-04-30T07:54:54.337Z</time></trkpt><trkpt lat="43.666535" lon="11.2233783"><ele>118.0</ele><time>2026-04-30T07:54:55.337Z</time></trkpt><trkpt lat="43.6665617" lon="11.2236567"><ele>118.33333333333334</ele><time>2026-04-30T07:54:56.337Z</time></trkpt><trkpt lat="43.6665883" lon="11.2239417"><ele>118.66666666666666</ele><time>2026-04-30T07:54:57.336Z</time></trkpt><trkpt lat="43.6666167" lon="11.2242283"><ele>119.0</ele><time>2026-04-30T07:54:58.336Z</time></trkpt><trkpt lat="43.66664" lon="11.2245"><ele>119.0</ele><time>2026-04-30T07:54:59.337Z</time></trkpt><trkpt lat="43.6666717" lon="11.2247717"><ele>119.0</ele><time>2026-04-30T07:55:00.337Z</time></trkpt><trkpt lat="43.6667033" lon="11.2250367"><ele>119.0</ele><time>2026-04-30T07:55:01.336Z</time></trkpt><trkpt lat="43.666735" lon="11.2252917"><ele>119.0</ele><time>2026-04-30T07:55:02.337Z</time></trkpt><trkpt lat="43.6667567" lon="11.2255233"><ele>119.0</ele><time>2026-04-30T07:55:03.337Z</time></trkpt><trkpt lat="43.6667783" lon="11.225745"><ele>119.0</ele><time>2026-04-30T07:55:04.337Z</time></trkpt><trkpt lat="43.6667933" lon="11.22595"><ele>119.0</ele><time>2026-04-30T07:55:05.337Z</time></trkpt><trkpt lat="43.6668133" lon="11.226155"><ele>119.0</ele><time>2026-04-30T07:55:06.336Z</time></trkpt><trkpt lat="43.6668217" lon="11.2263633"><ele>119.0</ele><time>2026-04-30T07:55:07.337Z</time></trkpt><trkpt lat="43.6668117" lon="11.2265817"><ele>118.66666666666666</ele><time>2026-04-30T07:55:08.337Z</time></trkpt><trkpt lat="43.666775" lon="11.2267983"><ele>118.33333333333334</ele><time>2026-04-30T07:55:09.337Z</time></trkpt><trkpt lat="43.6667317" lon="11.2270233"><ele>118.0</ele><time>2026-04-30T07:55:10.337Z</time></trkpt><trkpt lat="43.666675" lon="11.227245"><ele>119.66666666666667</ele><time>2026-04-30T07:55:11.337Z</time></trkpt><trkpt lat="43.6666117" lon="11.2274567"><ele>121.33333333333334</ele><time>2026-04-30T07:55:12.337Z</time></trkpt><trkpt lat="43.6665667" lon="11.2276733"><ele>123.0</ele><time>2026-04-30T07:55:13.337Z</time></trkpt><trkpt lat="43.6665183" lon="11.2278933"><ele>123.0</ele><time>2026-04-30T07:55:14.337Z</time></trkpt><trkpt lat="43.6664683" lon="11.22811"><ele>123.0</ele><time>2026-04-30T07:55:15.337Z</time></trkpt><trkpt lat="43.6664233" lon="11.228325"><ele>123.0</ele><time>2026-04-30T07:55:16.337Z</time></trkpt><trkpt lat="43.6663933" lon="11.2285467"><ele>123.33333333333334</ele><time>2026-04-30T07:55:17.337Z</time></trkpt><trkpt lat="43.6663833" lon="11.2287783"><ele>123.66666666666667</ele><time>2026-04-30T07:55:18.336Z</time></trkpt><trkpt lat="43.6663883" lon="11.2290267"><ele>124.0</ele><time>2026-04-30T07:55:19.336Z</time></trkpt><trkpt lat="43.666395" lon="11.2292933"><ele>124.66666666666667</ele><time>2026-04-30T07:55:20.337Z</time></trkpt><trkpt lat="43.666395" lon="11.22959"><ele>125.33333333333334</ele><time>2026-04-30T07:55:21.336Z</time></trkpt><trkpt lat="43.6663983" lon="11.22989"><ele>126.0</ele><time>2026-04-30T07:55:22.337Z</time></trkpt><trkpt lat="43.6663983" lon="11.23019"><ele>127.33333333333334</ele><time>2026-04-30T07:55:23.336Z</time></trkpt><trkpt lat="43.66641" lon="11.23048"><ele>128.66666666666669</ele><time>2026-04-30T07:55:24.337Z</time></trkpt><trkpt lat="43.6664217" lon="11.2307783"><ele>130.0</ele><time>2026-04-30T07:55:25.337Z</time></trkpt><trkpt lat="43.6664283" lon="11.2310833"><ele>130.0</ele><time>2026-04-30T07:55:26.337Z</time></trkpt><trkpt lat="43.66643" lon="11.2313883"><ele>130.0</ele><time>2026-04-30T07:55:27.337Z</time></trkpt><trkpt lat="43.6664367" lon="11.2317"><ele>130.0</ele><time>2026-04-30T07:55:28.337Z</time></trkpt><trkpt lat="43.666445" lon="11.2320117"><ele>127.33333333333334</ele><time>2026-04-30T07:55:29.337Z</time></trkpt><trkpt lat="43.666455" lon="11.2323183"><ele>124.66666666666666</ele><time>2026-04-30T07:55:30.337Z</time></trkpt><trkpt lat="43.6664667" lon="11.23261"><ele>122.0</ele><time>2026-04-30T07:55:31.337Z</time></trkpt><trkpt lat="43.6664717" lon="11.232905"><ele>124.0</ele><time>2026-04-30T07:55:32.337Z</time></trkpt><trkpt lat="43.6664683" lon="11.233195"><ele>126.0</ele><time>2026-04-30T07:55:33.337Z</time></trkpt><trkpt lat="43.6664383" lon="11.233475"><ele>128.0</ele><time>2026-04-30T07:55:34.336Z</time></trkpt><trkpt lat="43.6663883" lon="11.233755"><ele>130.33333333333331</ele><time>2026-04-30T07:55:35.337Z</time></trkpt><trkpt lat="43.6663183" lon="11.2340267"><ele>132.66666666666666</ele><time>2026-04-30T07:55:36.336Z</time></trkpt><trkpt lat="43.666245" lon="11.2343"><ele>135.0</ele><time>2026-04-30T07:55:37.337Z</time></trkpt><trkpt lat="43.6661667" lon="11.2345733"><ele>130.66666666666666</ele><time>2026-04-30T07:55:38.337Z</time></trkpt><trkpt lat="43.6660933" lon="11.234845"><ele>126.33333333333333</ele><time>2026-04-30T07:55:39.337Z</time></trkpt><trkpt lat="43.666015" lon="11.2351183"><ele>122.0</ele><time>2026-04-30T07:55:40.336Z</time></trkpt><trkpt lat="43.6659367" lon="11.235395"><ele>124.33333333333333</ele><time>2026-04-30T07:55:41.337Z</time></trkpt><trkpt lat="43.66586" lon="11.23567"><ele>126.66666666666666</ele><time>2026-04-30T07:55:42.337Z</time></trkpt><trkpt lat="43.6657933" lon="11.2359467"><ele>129.0</ele><time>2026-04-30T07:55:43.337Z</time></trkpt><trkpt lat="43.665725" lon="11.2362233"><ele>130.33333333333334</ele><time>2026-04-30T07:55:44.336Z</time></trkpt><trkpt lat="43.6656617" lon="11.2365083"><ele>131.66666666666669</ele><time>2026-04-30T07:55:45.336Z</time></trkpt><trkpt lat="43.665585" lon="11.236785"><ele>133.0</ele><time>2026-04-30T07:55:46.336Z</time></trkpt><trkpt lat="43.6655083" lon="11.2370633"><ele>134.0</ele><time>2026-04-30T07:55:47.337Z</time></trkpt><trkpt lat="43.66543" lon="11.237335"><ele>135.0</ele><time>2026-04-30T07:55:48.337Z</time></trkpt><trkpt lat="43.6653583" lon="11.237615"><ele>136.0</ele><time>2026-04-30T07:55:49.337Z</time></trkpt><trkpt lat="43.6652833" lon="11.2378983"><ele>131.0</ele><time>2026-04-30T07:55:50.337Z</time></trkpt><trkpt lat="43.6652083" lon="11.2381883"><ele>126.0</ele><time>2026-04-30T07:55:51.336Z</time></trkpt><trkpt lat="43.6651367" lon="11.2384717"><ele>121.0</ele><time>2026-04-30T07:55:52.336Z</time></trkpt><trkpt lat="43.6650667" lon="11.2387367"><ele>122.33333333333334</ele><time>2026-04-30T07:55:53.337Z</time></trkpt><trkpt lat="43.6650067" lon="11.2389933"><ele>123.66666666666666</ele><time>2026-04-30T07:55:54.337Z</time></trkpt><trkpt lat="43.6649467" lon="11.2392417"><ele>125.0</ele><time>2026-04-30T07:55:55.337Z</time></trkpt><trkpt lat="43.664885" lon="11.2394717"><ele>125.0</ele><time>2026-04-30T07:55:56.337Z</time></trkpt><trkpt lat="43.6648267" lon="11.2396783"><ele>125.0</ele><time>2026-04-30T07:55:57.337Z</time></trkpt><trkpt lat="43.6647783" lon="11.239865"><ele>125.0</ele><time>2026-04-30T07:55:58.337Z</time></trkpt><trkpt lat="43.6647383" lon="11.24003"><ele>125.0</ele><time>2026-04-30T07:55:59.337Z</time></trkpt><trkpt lat="43.6646867" lon="11.2401733"><ele>124.0</ele><time>2026-04-30T07:56:00.337Z</time></trkpt><trkpt lat="43.6646117" lon="11.240305"><ele>123.0</ele><time>2026-04-30T07:56:01.337Z</time></trkpt><trkpt lat="43.6645083" lon="11.24042"><ele>122.0</ele><time>2026-04-30T07:56:02.337Z</time></trkpt><trkpt lat="43.6643917" lon="11.2405033"><ele>121.0</ele><time>2026-04-30T07:56:03.337Z</time></trkpt><trkpt lat="43.6643" lon="11.2405533"><ele>121.0</ele><time>2026-04-30T07:56:04.337Z</time></trkpt><trkpt lat="43.6642033" lon="11.2405767"><ele>121.0</ele><time>2026-04-30T07:56:06.337Z</time></trkpt><trkpt lat="43.6641183" lon="11.240565"><ele>121.0</ele><time>2026-04-30T07:56:09.337Z</time></trkpt><trkpt lat="43.6639833" lon="11.2405283"><ele>121.0</ele><time>2026-04-30T07:56:11.337Z</time></trkpt><trkpt lat="43.6638917" lon="11.2404867"><ele>121.0</ele><time>2026-04-30T07:56:12.337Z</time></trkpt><trkpt lat="43.6637817" lon="11.240435"><ele>121.0</ele><time>2026-04-30T07:56:13.337Z</time></trkpt><trkpt lat="43.6636667" lon="11.24037"><ele>121.0</ele><time>2026-04-30T07:56:14.336Z</time></trkpt><trkpt lat="43.6635383" lon="11.240315"><ele>121.0</ele><time>2026-04-30T07:56:15.336Z</time></trkpt><trkpt lat="43.663395" lon="11.2402667"><ele>121.0</ele><time>2026-04-30T07:56:16.336Z</time></trkpt><trkpt lat="43.6632467" lon="11.24023"><ele>122.0</ele><time>2026-04-30T07:56:17.336Z</time></trkpt><trkpt lat="43.6630783" lon="11.240205"><ele>123.0</ele><time>2026-04-30T07:56:18.336Z</time></trkpt><trkpt lat="43.6629017" lon="11.24019"><ele>124.0</ele><time>2026-04-30T07:56:19.336Z</time></trkpt><trkpt lat="43.6627217" lon="11.2401883"><ele>124.66666666666667</ele><time>2026-04-30T07:56:20.337Z</time></trkpt><trkpt lat="43.6625367" lon="11.2401983"><ele>125.33333333333334</ele><time>2026-04-30T07:56:21.337Z</time></trkpt><trkpt lat="43.66236" lon="11.2402283"><ele>126.0</ele><time>2026-04-30T07:56:22.337Z</time></trkpt><trkpt lat="43.6621767" lon="11.2402617"><ele>126.0</ele><time>2026-04-30T07:56:23.337Z</time></trkpt><trkpt lat="43.6619883" lon="11.2402867"><ele>126.0</ele><time>2026-04-30T07:56:24.337Z</time></trkpt><trkpt lat="43.6617983" lon="11.24033"><ele>126.0</ele><time>2026-04-30T07:56:25.337Z</time></trkpt><trkpt lat="43.6616033" lon="11.2403767"><ele>125.0</ele><time>2026-04-30T07:56:26.337Z</time></trkpt><trkpt lat="43.661415" lon="11.2404283"><ele>124.0</ele><time>2026-04-30T07:56:27.337Z</time></trkpt><trkpt lat="43.6612217" lon="11.2404817"><ele>123.0</ele><time>2026-04-30T07:56:28.337Z</time></trkpt><trkpt lat="43.66103" lon="11.24052"><ele>123.0</ele><time>2026-04-30T07:56:29.337Z</time></trkpt><trkpt lat="43.660835" lon="11.2405667"><ele>123.0</ele><time>2026-04-30T07:56:30.337Z</time></trkpt><trkpt lat="43.6606383" lon="11.2406217"><ele>123.0</ele><time>2026-04-30T07:56:31.337Z</time></trkpt><trkpt lat="43.6604517" lon="11.2406667"><ele>123.66666666666666</ele><time>2026-04-30T07:56:32.336Z</time></trkpt><trkpt lat="43.6602567" lon="11.2407217"><ele>124.33333333333333</ele><time>2026-04-30T07:56:33.337Z</time></trkpt><trkpt lat="43.6600617" lon="11.2407717"><ele>125.0</ele><time>2026-04-30T07:56:34.337Z</time></trkpt><trkpt lat="43.659865" lon="11.2408267"><ele>125.0</ele><time>2026-04-30T07:56:35.336Z</time></trkpt><trkpt lat="43.6596717" lon="11.2408783"><ele>125.0</ele><time>2026-04-30T07:56:36.337Z</time></trkpt><trkpt lat="43.65948" lon="11.2409267"><ele>125.0</ele><time>2026-04-30T07:56:37.337Z</time></trkpt><trkpt lat="43.659285" lon="11.2409933"><ele>124.0</ele><time>2026-04-30T07:56:38.337Z</time></trkpt><trkpt lat="43.659095" lon="11.2410783"><ele>123.0</ele><time>2026-04-30T07:56:39.337Z</time></trkpt><trkpt lat="43.6589083" lon="11.2411983"><ele>122.0</ele><time>2026-04-30T07:56:40.337Z</time></trkpt><trkpt lat="43.6587367" lon="11.2413267"><ele>121.66666666666666</ele><time>2026-04-30T07:56:41.337Z</time></trkpt><trkpt lat="43.6585883" lon="11.2414633"><ele>121.33333333333334</ele><time>2026-04-30T07:56:42.337Z</time></trkpt><trkpt lat="43.658465" lon="11.2416083"><ele>121.0</ele><time>2026-04-30T07:56:43.337Z</time></trkpt><trkpt lat="43.6583517" lon="11.241795"><ele>122.33333333333334</ele><time>2026-04-30T07:56:44.337Z</time></trkpt><trkpt lat="43.65827" lon="11.2420083"><ele>123.66666666666666</ele><time>2026-04-30T07:56:45.337Z</time></trkpt><trkpt lat="43.6582317" lon="11.2422367"><ele>125.0</ele><time>2026-04-30T07:56:46.337Z</time></trkpt><trkpt lat="43.65822" lon="11.2424883"><ele>125.33333333333333</ele><time>2026-04-30T07:56:47.337Z</time></trkpt><trkpt lat="43.658235" lon="11.242745"><ele>125.66666666666666</ele><time>2026-04-30T07:56:48.337Z</time></trkpt><trkpt lat="43.65827" lon="11.2429983"><ele>126.0</ele><time>2026-04-30T07:56:49.337Z</time></trkpt><trkpt lat="43.6583367" lon="11.24325"><ele>126.0</ele><time>2026-04-30T07:56:50.337Z</time></trkpt><trkpt lat="43.6584183" lon="11.2435017"><ele>126.0</ele><time>2026-04-30T07:56:51.336Z</time></trkpt><trkpt lat="43.6585083" lon="11.2437617"><ele>126.0</ele><time>2026-04-30T07:56:52.336Z</time></trkpt><trkpt lat="43.6586" lon="11.2440183"><ele>128.33333333333334</ele><time>2026-04-30T07:56:53.337Z</time></trkpt><trkpt lat="43.6586833" lon="11.2442783"><ele>130.66666666666669</ele><time>2026-04-30T07:56:54.337Z</time></trkpt><trkpt lat="43.6587717" lon="11.2445433"><ele>133.0</ele><time>2026-04-30T07:56:55.337Z</time></trkpt><trkpt lat="43.658835" lon="11.2448133"><ele>133.33333333333334</ele><time>2026-04-30T07:56:56.337Z</time></trkpt><trkpt lat="43.6588733" lon="11.2450833"><ele>133.66666666666666</ele><time>2026-04-30T07:56:57.337Z</time></trkpt><trkpt lat="43.65889" lon="11.2453533"><ele>134.0</ele><time>2026-04-30T07:56:58.337Z</time></trkpt><trkpt lat="43.6588917" lon="11.2456383"><ele>133.33333333333331</ele><time>2026-04-30T07:56:59.337Z</time></trkpt><trkpt lat="43.6588817" lon="11.2459233"><ele>132.66666666666666</ele><time>2026-04-30T07:57:00.337Z</time></trkpt><trkpt lat="43.65887" lon="11.2462167"><ele>132.0</ele><time>2026-04-30T07:57:01.336Z</time></trkpt><trkpt lat="43.6588567" lon="11.246505"><ele>131.66666666666666</ele><time>2026-04-30T07:57:02.337Z</time></trkpt><trkpt lat="43.6588417" lon="11.246805"><ele>131.33333333333331</ele><time>2026-04-30T07:57:03.336Z</time></trkpt><trkpt lat="43.65883" lon="11.247105"><ele>131.0</ele><time>2026-04-30T07:57:04.337Z</time></trkpt><trkpt lat="43.6588183" lon="11.2474"><ele>131.0</ele><time>2026-04-30T07:57:05.336Z</time></trkpt><trkpt lat="43.658805" lon="11.2476967"><ele>131.0</ele><time>2026-04-30T07:57:06.337Z</time></trkpt><trkpt lat="43.6587833" lon="11.2479883"><ele>131.0</ele><time>2026-04-30T07:57:07.337Z</time></trkpt><trkpt lat="43.6587667" lon="11.2482817"><ele>131.0</ele><time>2026-04-30T07:57:08.336Z</time></trkpt><trkpt lat="43.6587467" lon="11.248575"><ele>131.0</ele><time>2026-04-30T07:57:09.337Z</time></trkpt><trkpt lat="43.65873" lon="11.2488667"><ele>131.0</ele><time>2026-04-30T07:57:10.337Z</time></trkpt><trkpt lat="43.658715" lon="11.2491533"><ele>131.0</ele><time>2026-04-30T07:57:11.336Z</time></trkpt><trkpt lat="43.6587" lon="11.2494317"><ele>131.0</ele><time>2026-04-30T07:57:12.337Z</time></trkpt><trkpt lat="43.6586817" lon="11.2496933"><ele>131.0</ele><time>2026-04-30T07:57:13.337Z</time></trkpt><trkpt lat="43.658675" lon="11.249945"><ele>131.0</ele><time>2026-04-30T07:57:14.337Z</time></trkpt><trkpt lat="43.65867" lon="11.2501883"><ele>131.0</ele><time>2026-04-30T07:57:15.336Z</time></trkpt><trkpt lat="43.6586733" lon="11.2504083"><ele>131.0</ele><time>2026-04-30T07:57:16.337Z</time></trkpt><trkpt lat="43.658685" lon="11.2506167"><ele>131.25</ele><time>2026-04-30T07:57:17.337Z</time></trkpt><trkpt lat="43.6586983" lon="11.250815"><ele>131.5</ele><time>2026-04-30T07:57:18.337Z</time></trkpt><trkpt lat="43.65871" lon="11.251005"><ele>131.75</ele><time>2026-04-30T07:57:19.337Z</time></trkpt><trkpt lat="43.6587267" lon="11.2511833"><ele>132.0</ele><time>2026-04-30T07:57:20.336Z</time></trkpt><trkpt lat="43.6587367" lon="11.251345"><ele>132.25</ele><time>2026-04-30T07:57:21.337Z</time></trkpt><trkpt lat="43.65875" lon="11.2515033"><ele>132.5</ele><time>2026-04-30T07:57:22.337Z</time></trkpt><trkpt lat="43.6587617" lon="11.251665"><ele>132.75</ele><time>2026-04-30T07:57:23.337Z</time></trkpt><trkpt lat="43.65877" lon="11.2518433"><ele>133.0</ele><time>2026-04-30T07:57:24.337Z</time></trkpt><trkpt lat="43.6587833" lon="11.252035"><ele>133.0</ele><time>2026-04-30T07:57:25.337Z</time></trkpt><trkpt lat="43.658795" lon="11.2522417"><ele>133.0</ele><time>2026-04-30T07:57:26.337Z</time></trkpt><trkpt lat="43.6588117" lon="11.25246"><ele>133.0</ele><time>2026-04-30T07:57:27.337Z</time></trkpt><trkpt lat="43.658825" lon="11.2526983"><ele>133.33333333333334</ele><time>2026-04-30T07:57:28.337Z</time></trkpt><trkpt lat="43.6588383" lon="11.2529517"><ele>133.66666666666666</ele><time>2026-04-30T07:57:29.337Z</time></trkpt><trkpt lat="43.65885" lon="11.25321"><ele>134.0</ele><time>2026-04-30T07:57:30.337Z</time></trkpt><trkpt lat="43.658865" lon="11.2534667"><ele>133.33333333333331</ele><time>2026-04-30T07:57:31.337Z</time></trkpt><trkpt lat="43.6588833" lon="11.2537267"><ele>132.66666666666666</ele><time>2026-04-30T07:57:32.337Z</time></trkpt><trkpt lat="43.6589" lon="11.2539883"><ele>132.0</ele><time>2026-04-30T07:57:33.337Z</time></trkpt><trkpt lat="43.6589217" lon="11.2542483"><ele>132.0</ele><time>2026-04-30T07:57:34.337Z</time></trkpt><trkpt lat="43.65894" lon="11.2545117"><ele>132.0</ele><time>2026-04-30T07:57:35.336Z</time></trkpt><trkpt lat="43.6589567" lon="11.2547817"><ele>132.0</ele><time>2026-04-30T07:57:36.337Z</time></trkpt><trkpt lat="43.658965" lon="11.2550467"><ele>133.0</ele><time>2026-04-30T07:57:37.337Z</time></trkpt><trkpt lat="43.65898" lon="11.255305"><ele>134.0</ele><time>2026-04-30T07:57:38.336Z</time></trkpt><trkpt lat="43.659" lon="11.255565"><ele>135.0</ele><time>2026-04-30T07:57:39.337Z</time></trkpt><trkpt lat="43.6590133" lon="11.255805"><ele>135.33333333333334</ele><time>2026-04-30T07:57:40.336Z</time></trkpt><trkpt lat="43.659025" lon="11.2560333"><ele>135.66666666666669</ele><time>2026-04-30T07:57:41.337Z</time></trkpt><trkpt lat="43.6590283" lon="11.2562583"><ele>136.0</ele><time>2026-04-30T07:57:42.337Z</time></trkpt><trkpt lat="43.65902" lon="11.2564667"><ele>135.25</ele><time>2026-04-30T07:57:43.337Z</time></trkpt><trkpt lat="43.6589883" lon="11.2566633"><ele>134.5</ele><time>2026-04-30T07:57:44.337Z</time></trkpt><trkpt lat="43.6589283" lon="11.256845"><ele>133.75</ele><time>2026-04-30T07:57:45.337Z</time></trkpt><trkpt lat="43.658855" lon="11.25701"><ele>133.0</ele><time>2026-04-30T07:57:46.337Z</time></trkpt><trkpt lat="43.6587633" lon="11.2571467"><ele>133.0</ele><time>2026-04-30T07:57:47.337Z</time></trkpt><trkpt lat="43.6586633" lon="11.2572817"><ele>133.0</ele><time>2026-04-30T07:57:48.336Z</time></trkpt><trkpt lat="43.658565" lon="11.2574067"><ele>133.0</ele><time>2026-04-30T07:57:49.336Z</time></trkpt><trkpt lat="43.658475" lon="11.257525"><ele>133.0</ele><time>2026-04-30T07:57:50.337Z</time></trkpt><trkpt lat="43.6583833" lon="11.257625"><ele>132.75</ele><time>2026-04-30T07:57:51.337Z</time></trkpt><trkpt lat="43.6582933" lon="11.2577267"><ele>132.5</ele><time>2026-04-30T07:57:52.337Z</time></trkpt><trkpt lat="43.658195" lon="11.2578283"><ele>132.25</ele><time>2026-04-30T07:57:53.336Z</time></trkpt><trkpt lat="43.6580933" lon="11.2579183"><ele>132.0</ele><time>2026-04-30T07:57:54.337Z</time></trkpt><trkpt lat="43.6579933" lon="11.2580033"><ele>132.0</ele><time>2026-04-30T07:57:55.337Z</time></trkpt><trkpt lat="43.6578867" lon="11.25809"><ele>132.0</ele><time>2026-04-30T07:57:56.337Z</time></trkpt><trkpt lat="43.6577767" lon="11.2581517"><ele>132.0</ele><time>2026-04-30T07:57:57.337Z</time></trkpt><trkpt lat="43.6576633" lon="11.2581983"><ele>132.0</ele><time>2026-04-30T07:57:58.336Z</time></trkpt><trkpt lat="43.65756" lon="11.25824"><ele>131.79999999999998</ele><time>2026-04-30T07:57:59.337Z</time></trkpt><trkpt lat="43.6574617" lon="11.2582767"><ele>131.6</ele><time>2026-04-30T07:58:00.337Z</time></trkpt><trkpt lat="43.6573567" lon="11.2583"><ele>131.39999999999998</ele><time>2026-04-30T07:58:01.337Z</time></trkpt><trkpt lat="43.657245" lon="11.2583133"><ele>131.2</ele><time>2026-04-30T07:58:02.336Z</time></trkpt><trkpt lat="43.6571333" lon="11.2583133"><ele>131.0</ele><time>2026-04-30T07:58:03.337Z</time></trkpt><trkpt lat="43.65702" lon="11.2583"><ele>131.0</ele><time>2026-04-30T07:58:04.337Z</time></trkpt><trkpt lat="43.656905" lon="11.2582583"><ele>131.0</ele><time>2026-04-30T07:58:05.337Z</time></trkpt><trkpt lat="43.6567933" lon="11.2582167"><ele>131.0</ele><time>2026-04-30T07:58:06.336Z</time></trkpt><trkpt lat="43.6566617" lon="11.2581517"><ele>131.0</ele><time>2026-04-30T07:58:07.337Z</time></trkpt><trkpt lat="43.65653" lon="11.2580867"><ele>131.0</ele><time>2026-04-30T07:58:08.337Z</time></trkpt><trkpt lat="43.6563967" lon="11.25804"><ele>131.0</ele><time>2026-04-30T07:58:09.336Z</time></trkpt><trkpt lat="43.656255" lon="11.257995"><ele>131.0</ele><time>2026-04-30T07:58:10.337Z</time></trkpt><trkpt lat="43.656105" lon="11.2579683"><ele>131.0</ele><time>2026-04-30T07:58:11.337Z</time></trkpt><trkpt lat="43.6559533" lon="11.2579417"><ele>131.5</ele><time>2026-04-30T07:58:12.336Z</time></trkpt><trkpt lat="43.6558083" lon="11.25791"><ele>132.0</ele><time>2026-04-30T07:58:13.336Z</time></trkpt><trkpt lat="43.6556733" lon="11.2578883"><ele>132.5</ele><time>2026-04-30T07:58:14.337Z</time></trkpt><trkpt lat="43.6555367" lon="11.2578933"><ele>133.0</ele><time>2026-04-30T07:58:15.337Z</time></trkpt><trkpt lat="43.65541" lon="11.2579217"><ele>133.75</ele><time>2026-04-30T07:58:16.337Z</time></trkpt><trkpt lat="43.65528" lon="11.2579617"><ele>134.5</ele><time>2026-04-30T07:58:17.337Z</time></trkpt><trkpt lat="43.6551583" lon="11.2580283"><ele>135.25</ele><time>2026-04-30T07:58:18.337Z</time></trkpt><trkpt lat="43.6550367" lon="11.2581"><ele>136.0</ele><time>2026-04-30T07:58:19.337Z</time></trkpt><trkpt lat="43.6549133" lon="11.258155"><ele>136.5</ele><time>2026-04-30T07:58:20.337Z</time></trkpt><trkpt lat="43.6547817" lon="11.2581783"><ele>137.0</ele><time>2026-04-30T07:58:21.337Z</time></trkpt><trkpt lat="43.6546267" lon="11.2582033"><ele>137.5</ele><time>2026-04-30T07:58:22.337Z</time></trkpt><trkpt lat="43.65447" lon="11.2582217"><ele>138.0</ele><time>2026-04-30T07:58:23.336Z</time></trkpt><trkpt lat="43.6543217" lon="11.258245"><ele>138.0</ele><time>2026-04-30T07:58:24.336Z</time></trkpt><trkpt lat="43.654165" lon="11.258305"><ele>138.0</ele><time>2026-04-30T07:58:25.336Z</time></trkpt><trkpt lat="43.6540067" lon="11.2583733"><ele>138.0</ele><time>2026-04-30T07:58:26.337Z</time></trkpt><trkpt lat="43.6538567" lon="11.2584517"><ele>138.0</ele><time>2026-04-30T07:58:27.337Z</time></trkpt><trkpt lat="43.6536983" lon="11.2585317"><ele>138.0</ele><time>2026-04-30T07:58:28.337Z</time></trkpt><trkpt lat="43.65354" lon="11.258605"><ele>138.0</ele><time>2026-04-30T07:58:29.336Z</time></trkpt><trkpt lat="43.6533833" lon="11.2586717"><ele>137.0</ele><time>2026-04-30T07:58:30.337Z</time></trkpt><trkpt lat="43.6532233" lon="11.2587033"><ele>136.0</ele><time>2026-04-30T07:58:31.336Z</time></trkpt><trkpt lat="43.6530467" lon="11.25871"><ele>135.0</ele><time>2026-04-30T07:58:32.337Z</time></trkpt><trkpt lat="43.6528617" lon="11.25871"><ele>134.66666666666666</ele><time>2026-04-30T07:58:33.336Z</time></trkpt><trkpt lat="43.652675" lon="11.2586917"><ele>134.33333333333331</ele><time>2026-04-30T07:58:34.336Z</time></trkpt><trkpt lat="43.65249" lon="11.2586733"><ele>134.0</ele><time>2026-04-30T07:58:35.337Z</time></trkpt><trkpt lat="43.6523017" lon="11.2586583"><ele>134.0</ele><time>2026-04-30T07:58:36.336Z</time></trkpt><trkpt lat="43.6521033" lon="11.2586417"><ele>134.0</ele><time>2026-04-30T07:58:37.336Z</time></trkpt><trkpt lat="43.6519133" lon="11.2586267"><ele>134.0</ele><time>2026-04-30T07:58:38.337Z</time></trkpt><trkpt lat="43.65172" lon="11.2586167"><ele>134.0</ele><time>2026-04-30T07:58:39.336Z</time></trkpt><trkpt lat="43.6515383" lon="11.2585867"><ele>134.0</ele><time>2026-04-30T07:58:40.337Z</time></trkpt><trkpt lat="43.65137" lon="11.25858"><ele>134.0</ele><time>2026-04-30T07:58:41.337Z</time></trkpt><trkpt lat="43.6511983" lon="11.2585967"><ele>134.66666666666666</ele><time>2026-04-30T07:58:42.337Z</time></trkpt><trkpt lat="43.651025" lon="11.25865"><ele>135.33333333333334</ele><time>2026-04-30T07:58:43.336Z</time></trkpt><trkpt lat="43.6508617" lon="11.2587433"><ele>136.0</ele><time>2026-04-30T07:58:44.337Z</time></trkpt><trkpt lat="43.6507117" lon="11.2588717"><ele>136.33333333333334</ele><time>2026-04-30T07:58:45.337Z</time></trkpt><trkpt lat="43.6505767" lon="11.25901"><ele>136.66666666666666</ele><time>2026-04-30T07:58:46.337Z</time></trkpt><trkpt lat="43.65046" lon="11.259165"><ele>137.0</ele><time>2026-04-30T07:58:47.336Z</time></trkpt><trkpt lat="43.6503433" lon="11.259315"><ele>137.25</ele><time>2026-04-30T07:58:48.336Z</time></trkpt><trkpt lat="43.6502283" lon="11.2594483"><ele>137.5</ele><time>2026-04-30T07:58:49.337Z</time></trkpt><trkpt lat="43.65012" lon="11.2595383"><ele>137.75</ele><time>2026-04-30T07:58:50.337Z</time></trkpt><trkpt lat="43.6499983" lon="11.2596"><ele>138.0</ele><time>2026-04-30T07:58:51.336Z</time></trkpt><trkpt lat="43.6498683" lon="11.2596217"><ele>138.0</ele><time>2026-04-30T07:58:52.336Z</time></trkpt><trkpt lat="43.6497283" lon="11.25961"><ele>138.0</ele><time>2026-04-30T07:58:53.337Z</time></trkpt><trkpt lat="43.64958" lon="11.259595"><ele>138.0</ele><time>2026-04-30T07:58:54.337Z</time></trkpt><trkpt lat="43.6494267" lon="11.2595867"><ele>138.0</ele><time>2026-04-30T07:58:55.336Z</time></trkpt><trkpt lat="43.649265" lon="11.2595767"><ele>138.33333333333334</ele><time>2026-04-30T07:58:56.337Z</time></trkpt><trkpt lat="43.6491017" lon="11.259565"><ele>138.66666666666669</ele><time>2026-04-30T07:58:57.337Z</time></trkpt><trkpt lat="43.6489433" lon="11.25956"><ele>139.0</ele><time>2026-04-30T07:58:58.337Z</time></trkpt><trkpt lat="43.6487817" lon="11.25954"><ele>139.0</ele><time>2026-04-30T07:58:59.337Z</time></trkpt><trkpt lat="43.6486317" lon="11.259565"><ele>139.0</ele><time>2026-04-30T07:59:00.337Z</time></trkpt><trkpt lat="43.6484933" lon="11.2596417"><ele>139.0</ele><time>2026-04-30T07:59:01.337Z</time></trkpt><trkpt lat="43.6483767" lon="11.2597583"><ele>139.0</ele><time>2026-04-30T07:59:02.337Z</time></trkpt><trkpt lat="43.64828" lon="11.2599167"><ele>139.66666666666669</ele><time>2026-04-30T07:59:03.337Z</time></trkpt><trkpt lat="43.6482133" lon="11.2601"><ele>140.33333333333334</ele><time>2026-04-30T07:59:04.337Z</time></trkpt><trkpt lat="43.648195" lon="11.2603133"><ele>141.0</ele><time>2026-04-30T07:59:05.336Z</time></trkpt><trkpt lat="43.648195" lon="11.26053"><ele>141.33333333333334</ele><time>2026-04-30T07:59:06.337Z</time></trkpt><trkpt lat="43.648215" lon="11.2607617"><ele>141.66666666666669</ele><time>2026-04-30T07:59:07.336Z</time></trkpt><trkpt lat="43.6482367" lon="11.2610083"><ele>142.0</ele><time>2026-04-30T07:59:08.337Z</time></trkpt><trkpt lat="43.648255" lon="11.261255"><ele>142.0</ele><time>2026-04-30T07:59:09.337Z</time></trkpt><trkpt lat="43.6482767" lon="11.2615083"><ele>142.0</ele><time>2026-04-30T07:59:10.337Z</time></trkpt><trkpt lat="43.6482967" lon="11.2617583"><ele>142.0</ele><time>2026-04-30T07:59:11.337Z</time></trkpt><trkpt lat="43.64832" lon="11.2620033"><ele>142.0</ele><time>2026-04-30T07:59:12.336Z</time></trkpt><trkpt lat="43.6483117" lon="11.2622517"><ele>142.0</ele><time>2026-04-30T07:59:13.337Z</time></trkpt><trkpt lat="43.64828" lon="11.26249"><ele>142.0</ele><time>2026-04-30T07:59:14.337Z</time></trkpt><trkpt lat="43.64823" lon="11.26272"><ele>141.66666666666669</ele><time>2026-04-30T07:59:15.337Z</time></trkpt><trkpt lat="43.6481617" lon="11.2629483"><ele>141.33333333333334</ele><time>2026-04-30T07:59:16.336Z</time></trkpt><trkpt lat="43.6480717" lon="11.2631683"><ele>141.0</ele><time>2026-04-30T07:59:17.337Z</time></trkpt><trkpt lat="43.6479733" lon="11.2633733"><ele>141.0</ele><time>2026-04-30T07:59:18.337Z</time></trkpt><trkpt lat="43.6478433" lon="11.2635567"><ele>141.0</ele><time>2026-04-30T07:59:19.336Z</time></trkpt><trkpt lat="43.647705" lon="11.26373"><ele>141.0</ele><time>2026-04-30T07:59:20.337Z</time></trkpt><trkpt lat="43.6475467" lon="11.2638867"><ele>143.0</ele><time>2026-04-30T07:59:21.337Z</time></trkpt><trkpt lat="43.6473617" lon="11.2640267"><ele>145.0</ele><time>2026-04-30T07:59:22.337Z</time></trkpt><trkpt lat="43.6471867" lon="11.26416"><ele>147.0</ele><time>2026-04-30T07:59:23.337Z</time></trkpt><trkpt lat="43.6469967" lon="11.2642817"><ele>146.0</ele><time>2026-04-30T07:59:24.337Z</time></trkpt><trkpt lat="43.6467983" lon="11.2643917"><ele>145.0</ele><time>2026-04-30T07:59:25.337Z</time></trkpt><trkpt lat="43.6466017" lon="11.2645067"><ele>144.0</ele><time>2026-04-30T07:59:26.337Z</time></trkpt><trkpt lat="43.6464" lon="11.2646217"><ele>144.0</ele><time>2026-04-30T07:59:27.337Z</time></trkpt><trkpt lat="43.646205" lon="11.2647417"><ele>144.0</ele><time>2026-04-30T07:59:28.337Z</time></trkpt><trkpt lat="43.6460083" lon="11.26485"><ele>144.0</ele><time>2026-04-30T07:59:29.337Z</time></trkpt><trkpt lat="43.64581" lon="11.2649633"><ele>144.33333333333334</ele><time>2026-04-30T07:59:30.336Z</time></trkpt><trkpt lat="43.6456133" lon="11.265075"><ele>144.66666666666669</ele><time>2026-04-30T07:59:31.337Z</time></trkpt><trkpt lat="43.6454133" lon="11.2651883"><ele>145.0</ele><time>2026-04-30T07:59:32.337Z</time></trkpt><trkpt lat="43.6452117" lon="11.2653"><ele>145.0</ele><time>2026-04-30T07:59:33.337Z</time></trkpt><trkpt lat="43.6450167" lon="11.2654183"><ele>145.0</ele><time>2026-04-30T07:59:34.337Z</time></trkpt><trkpt lat="43.644825" lon="11.2655267"><ele>145.0</ele><time>2026-04-30T07:59:35.337Z</time></trkpt><trkpt lat="43.6446317" lon="11.265645"><ele>145.66666666666669</ele><time>2026-04-30T07:59:36.336Z</time></trkpt><trkpt lat="43.64445" lon="11.265745"><ele>146.33333333333334</ele><time>2026-04-30T07:59:37.337Z</time></trkpt><trkpt lat="43.6442667" lon="11.2658383"><ele>147.0</ele><time>2026-04-30T07:59:38.337Z</time></trkpt><trkpt lat="43.6440817" lon="11.265895"><ele>147.0</ele><time>2026-04-30T07:59:39.337Z</time></trkpt><trkpt lat="43.643895" lon="11.2659233"><ele>147.0</ele><time>2026-04-30T07:59:40.337Z</time></trkpt><trkpt lat="43.6437217" lon="11.265905"><ele>147.0</ele><time>2026-04-30T07:59:41.337Z</time></trkpt><trkpt lat="43.64354" lon="11.26585"><ele>147.33333333333334</ele><time>2026-04-30T07:59:42.337Z</time></trkpt><trkpt lat="43.64336" lon="11.2657667"><ele>147.66666666666669</ele><time>2026-04-30T07:59:43.337Z</time></trkpt><trkpt lat="43.6431817" lon="11.26565"><ele>148.0</ele><time>2026-04-30T07:59:44.336Z</time></trkpt><trkpt lat="43.643" lon="11.2655033"><ele>149.0</ele><time>2026-04-30T07:59:45.337Z</time></trkpt><trkpt lat="43.6428267" lon="11.265355"><ele>150.0</ele><time>2026-04-30T07:59:46.337Z</time></trkpt><trkpt lat="43.6426583" lon="11.265215"><ele>151.0</ele><time>2026-04-30T07:59:47.337Z</time></trkpt><trkpt lat="43.64249" lon="11.2650767"><ele>151.0</ele><time>2026-04-30T07:59:48.337Z</time></trkpt><trkpt lat="43.6423267" lon="11.2649433"><ele>151.0</ele><time>2026-04-30T07:59:49.337Z</time></trkpt><trkpt lat="43.64218" lon="11.2647917"><ele>151.0</ele><time>2026-04-30T07:59:50.337Z</time></trkpt><trkpt lat="43.642035" lon="11.2646417"><ele>151.33333333333334</ele><time>2026-04-30T07:59:51.337Z</time></trkpt><trkpt lat="43.6418917" lon="11.264495"><ele>151.66666666666666</ele><time>2026-04-30T07:59:52.336Z</time></trkpt><trkpt lat="43.6417383" lon="11.264365"><ele>152.0</ele><time>2026-04-30T07:59:53.336Z</time></trkpt><trkpt lat="43.6415717" lon="11.2642633"><ele>152.0</ele><time>2026-04-30T07:59:54.336Z</time></trkpt><trkpt lat="43.6413967" lon="11.2641917"><ele>152.0</ele><time>2026-04-30T07:59:55.337Z</time></trkpt><trkpt lat="43.6412133" lon="11.2641433"><ele>152.0</ele><time>2026-04-30T07:59:56.337Z</time></trkpt><trkpt lat="43.641035" lon="11.2641183"><ele>151.33333333333331</ele><time>2026-04-30T07:59:57.336Z</time></trkpt><trkpt lat="43.6408583" lon="11.26412"><ele>150.66666666666666</ele><time>2026-04-30T07:59:58.337Z</time></trkpt><trkpt lat="43.640675" lon="11.2641767"><ele>150.0</ele><time>2026-04-30T07:59:59.337Z</time></trkpt><trkpt lat="43.640485" lon="11.264255"><ele>151.33333333333334</ele><time>2026-04-30T08:00:00.337Z</time></trkpt><trkpt lat="43.6402933" lon="11.264345"><ele>152.66666666666669</ele><time>2026-04-30T08:00:01.337Z</time></trkpt><trkpt lat="43.6401017" lon="11.2644517"><ele>154.0</ele><time>2026-04-30T08:00:02.336Z</time></trkpt><trkpt lat="43.6399117" lon="11.2645583"><ele>154.0</ele><time>2026-04-30T08:00:03.337Z</time></trkpt><trkpt lat="43.6397333" lon="11.2646667"><ele>154.0</ele><time>2026-04-30T08:00:04.337Z</time></trkpt><trkpt lat="43.6395433" lon="11.264765"><ele>154.0</ele><time>2026-04-30T08:00:05.337Z</time></trkpt><trkpt lat="43.63935" lon="11.26487"><ele>153.33333333333334</ele><time>2026-04-30T08:00:06.336Z</time></trkpt><trkpt lat="43.63915" lon="11.2649767"><ele>152.66666666666666</ele><time>2026-04-30T08:00:07.337Z</time></trkpt><trkpt lat="43.6389517" lon="11.265085"><ele>152.0</ele><time>2026-04-30T08:00:08.337Z</time></trkpt><trkpt lat="43.6387483" lon="11.265195"><ele>153.0</ele><time>2026-04-30T08:00:09.336Z</time></trkpt><trkpt lat="43.6385517" lon="11.2653"><ele>154.0</ele><time>2026-04-30T08:00:10.337Z</time></trkpt><trkpt lat="43.63835" lon="11.2654017"><ele>155.0</ele><time>2026-04-30T08:00:11.337Z</time></trkpt><trkpt lat="43.6381567" lon="11.2654983"><ele>155.0</ele><time>2026-04-30T08:00:12.337Z</time></trkpt><trkpt lat="43.6379583" lon="11.2655933"><ele>155.0</ele><time>2026-04-30T08:00:13.337Z</time></trkpt><trkpt lat="43.6377583" lon="11.2656933"><ele>155.0</ele><time>2026-04-30T08:00:14.337Z</time></trkpt><trkpt lat="43.637555" lon="11.2657883"><ele>155.0</ele><time>2026-04-30T08:00:15.337Z</time></trkpt><trkpt lat="43.6373533" lon="11.2658817"><ele>155.0</ele><time>2026-04-30T08:00:16.336Z</time></trkpt><trkpt lat="43.637145" lon="11.2659733"><ele>155.0</ele><time>2026-04-30T08:00:17.337Z</time></trkpt><trkpt lat="43.6369517" lon="11.266065"><ele>155.66666666666666</ele><time>2026-04-30T08:00:18.336Z</time></trkpt><trkpt lat="43.6367583" lon="11.266155"><ele>156.33333333333334</ele><time>2026-04-30T08:00:19.336Z</time></trkpt><trkpt lat="43.636565" lon="11.2662383"><ele>157.0</ele><time>2026-04-30T08:00:20.337Z</time></trkpt><trkpt lat="43.6363933" lon="11.2663217"><ele>157.0</ele><time>2026-04-30T08:00:21.337Z</time></trkpt><trkpt lat="43.6362283" lon="11.266395"><ele>157.0</ele><time>2026-04-30T08:00:22.336Z</time></trkpt><trkpt lat="43.6360767" lon="11.2665033"><ele>157.0</ele><time>2026-04-30T08:00:23.336Z</time></trkpt><trkpt lat="43.6359467" lon="11.2666367"><ele>156.33333333333334</ele><time>2026-04-30T08:00:24.337Z</time></trkpt><trkpt lat="43.6358283" lon="11.26681"><ele>155.66666666666666</ele><time>2026-04-30T08:00:25.337Z</time></trkpt><trkpt lat="43.6357483" lon="11.2670267"><ele>155.0</ele><time>2026-04-30T08:00:26.337Z</time></trkpt><trkpt lat="43.6356967" lon="11.267265"><ele>154.33333333333331</ele><time>2026-04-30T08:00:27.337Z</time></trkpt><trkpt lat="43.6356617" lon="11.2675133"><ele>153.66666666666666</ele><time>2026-04-30T08:00:28.337Z</time></trkpt><trkpt lat="43.635625" lon="11.26778"><ele>153.0</ele><time>2026-04-30T08:00:29.336Z</time></trkpt><trkpt lat="43.6355833" lon="11.26805"><ele>152.33333333333334</ele><time>2026-04-30T08:00:30.337Z</time></trkpt><trkpt lat="43.635535" lon="11.268305"><ele>151.66666666666669</ele><time>2026-04-30T08:00:31.337Z</time></trkpt><trkpt lat="43.6354717" lon="11.2685417"><ele>151.0</ele><time>2026-04-30T08:00:32.336Z</time></trkpt><trkpt lat="43.6353933" lon="11.2687533"><ele>152.0</ele><time>2026-04-30T08:00:33.336Z</time></trkpt><trkpt lat="43.6352867" lon="11.268955"><ele>153.0</ele><time>2026-04-30T08:00:34.337Z</time></trkpt><trkpt lat="43.6351483" lon="11.2691333"><ele>154.0</ele><time>2026-04-30T08:00:35.337Z</time></trkpt><trkpt lat="43.6350033" lon="11.2692933"><ele>154.0</ele><time>2026-04-30T08:00:36.337Z</time></trkpt><trkpt lat="43.634835" lon="11.2694317"><ele>154.0</ele><time>2026-04-30T08:00:37.337Z</time></trkpt><trkpt lat="43.6346667" lon="11.2695433"><ele>154.0</ele><time>2026-04-30T08:00:38.337Z</time></trkpt><trkpt lat="43.6344867" lon="11.2696333"><ele>153.66666666666669</ele><time>2026-04-30T08:00:39.337Z</time></trkpt><trkpt lat="43.63431" lon="11.26968"><ele>153.33333333333334</ele><time>2026-04-30T08:00:40.336Z</time></trkpt><trkpt lat="43.6341433" lon="11.2697333"><ele>153.0</ele><time>2026-04-30T08:00:41.337Z</time></trkpt><trkpt lat="43.6339867" lon="11.26982"><ele>153.0</ele><time>2026-04-30T08:00:42.337Z</time></trkpt><trkpt lat="43.63385" lon="11.26993"><ele>153.0</ele><time>2026-04-30T08:00:43.337Z</time></trkpt><trkpt lat="43.6337233" lon="11.2700883"><ele>153.0</ele><time>2026-04-30T08:00:44.337Z</time></trkpt><trkpt lat="43.633595" lon="11.2702817"><ele>153.33333333333334</ele><time>2026-04-30T08:00:45.337Z</time></trkpt><trkpt lat="43.6334733" lon="11.2704633"><ele>153.66666666666669</ele><time>2026-04-30T08:00:46.337Z</time></trkpt><trkpt lat="43.6333317" lon="11.2706467"><ele>154.0</ele><time>2026-04-30T08:00:47.337Z</time></trkpt><trkpt lat="43.633185" lon="11.2708383"><ele>154.0</ele><time>2026-04-30T08:00:48.337Z</time></trkpt><trkpt lat="43.6330383" lon="11.271035"><ele>154.0</ele><time>2026-04-30T08:00:49.337Z</time></trkpt><trkpt lat="43.6328917" lon="11.2712317"><ele>154.0</ele><time>2026-04-30T08:00:50.337Z</time></trkpt><trkpt lat="43.6327433" lon="11.2714333"><ele>154.33333333333334</ele><time>2026-04-30T08:00:51.337Z</time></trkpt><trkpt lat="43.6326" lon="11.27163"><ele>154.66666666666666</ele><time>2026-04-30T08:00:52.336Z</time></trkpt><trkpt lat="43.6324583" lon="11.27183"><ele>155.0</ele><time>2026-04-30T08:00:53.336Z</time></trkpt><trkpt lat="43.6323183" lon="11.27203"><ele>155.0</ele><time>2026-04-30T08:00:54.337Z</time></trkpt><trkpt lat="43.6321933" lon="11.2722133"><ele>155.0</ele><time>2026-04-30T08:00:55.337Z</time></trkpt><trkpt lat="43.6320867" lon="11.2723833"><ele>155.0</ele><time>2026-04-30T08:00:56.337Z</time></trkpt><trkpt lat="43.632005" lon="11.2725583"><ele>155.0</ele><time>2026-04-30T08:00:57.337Z</time></trkpt><trkpt lat="43.6319617" lon="11.2727283"><ele>155.0</ele><time>2026-04-30T08:00:58.337Z</time></trkpt><trkpt lat="43.63195" lon="11.2729133"><ele>155.0</ele><time>2026-04-30T08:00:59.336Z</time></trkpt><trkpt lat="43.6319817" lon="11.2730967"><ele>155.0</ele><time>2026-04-30T08:01:00.337Z</time></trkpt><trkpt lat="43.6320483" lon="11.2732783"><ele>154.33333333333331</ele><time>2026-04-30T08:01:01.336Z</time></trkpt><trkpt lat="43.6321433" lon="11.2734633"><ele>153.66666666666666</ele><time>2026-04-30T08:01:02.336Z</time></trkpt><trkpt lat="43.6322283" lon="11.273645"><ele>153.0</ele><time>2026-04-30T08:01:03.336Z</time></trkpt><trkpt lat="43.6323283" lon="11.2738"><ele>153.5</ele><time>2026-04-30T08:01:04.336Z</time></trkpt><trkpt lat="43.6323917" lon="11.273965"><ele>154.0</ele><time>2026-04-30T08:01:05.337Z</time></trkpt><trkpt lat="43.63241" lon="11.2741517"><ele>154.5</ele><time>2026-04-30T08:01:06.337Z</time></trkpt><trkpt lat="43.632385" lon="11.2743217"><ele>155.0</ele><time>2026-04-30T08:01:07.337Z</time></trkpt><trkpt lat="43.6323183" lon="11.2744817"><ele>155.0</ele><time>2026-04-30T08:01:08.336Z</time></trkpt><trkpt lat="43.63221" lon="11.2746"><ele>155.0</ele><time>2026-04-30T08:01:09.337Z</time></trkpt><trkpt lat="43.6320767" lon="11.274685"><ele>155.0</ele><time>2026-04-30T08:01:10.337Z</time></trkpt><trkpt lat="43.631925" lon="11.27474"><ele>155.0</ele><time>2026-04-30T08:01:11.337Z</time></trkpt><trkpt lat="43.631755" lon="11.27478"><ele>155.66666666666666</ele><time>2026-04-30T08:01:12.337Z</time></trkpt><trkpt lat="43.6315717" lon="11.2748117"><ele>156.33333333333334</ele><time>2026-04-30T08:01:13.337Z</time></trkpt><trkpt lat="43.631385" lon="11.2748517"><ele>157.0</ele><time>2026-04-30T08:01:14.337Z</time></trkpt><trkpt lat="43.631195" lon="11.274905"><ele>157.0</ele><time>2026-04-30T08:01:15.337Z</time></trkpt><trkpt lat="43.63101" lon="11.2749817"><ele>157.0</ele><time>2026-04-30T08:01:16.337Z</time></trkpt><trkpt lat="43.6308317" lon="11.2750867"><ele>157.0</ele><time>2026-04-30T08:01:17.337Z</time></trkpt><trkpt lat="43.6306567" lon="11.2752117"><ele>157.0</ele><time>2026-04-30T08:01:18.337Z</time></trkpt><trkpt lat="43.6304783" lon="11.2753417"><ele>157.0</ele><time>2026-04-30T08:01:19.336Z</time></trkpt><trkpt lat="43.630305" lon="11.275465"><ele>157.0</ele><time>2026-04-30T08:01:20.337Z</time></trkpt><trkpt lat="43.630135" lon="11.2756"><ele>158.33333333333334</ele><time>2026-04-30T08:01:21.337Z</time></trkpt><trkpt lat="43.62998" lon="11.2757483"><ele>159.66666666666666</ele><time>2026-04-30T08:01:22.336Z</time></trkpt><trkpt lat="43.6298267" lon="11.275915"><ele>161.0</ele><time>2026-04-30T08:01:23.336Z</time></trkpt><trkpt lat="43.6296767" lon="11.2761017"><ele>161.0</ele><time>2026-04-30T08:01:24.337Z</time></trkpt><trkpt lat="43.6295417" lon="11.2762933"><ele>161.0</ele><time>2026-04-30T08:01:25.337Z</time></trkpt><trkpt lat="43.6293883" lon="11.2764733"><ele>161.0</ele><time>2026-04-30T08:01:26.337Z</time></trkpt><trkpt lat="43.6292233" lon="11.276625"><ele>162.0</ele><time>2026-04-30T08:01:27.337Z</time></trkpt><trkpt lat="43.6290517" lon="11.27675"><ele>163.0</ele><time>2026-04-30T08:01:28.336Z</time></trkpt><trkpt lat="43.628875" lon="11.2768583"><ele>164.0</ele><time>2026-04-30T08:01:29.337Z</time></trkpt><trkpt lat="43.6286917" lon="11.2769633"><ele>163.33333333333331</ele><time>2026-04-30T08:01:30.336Z</time></trkpt><trkpt lat="43.628505" lon="11.2770567"><ele>162.66666666666666</ele><time>2026-04-30T08:01:31.337Z</time></trkpt><trkpt lat="43.628315" lon="11.2771483"><ele>162.0</ele><time>2026-04-30T08:01:32.337Z</time></trkpt><trkpt lat="43.6281217" lon="11.2772583"><ele>162.0</ele><time>2026-04-30T08:01:33.337Z</time></trkpt><trkpt lat="43.627945" lon="11.2773667"><ele>162.0</ele><time>2026-04-30T08:01:34.337Z</time></trkpt><trkpt lat="43.6277717" lon="11.2774917"><ele>162.0</ele><time>2026-04-30T08:01:35.337Z</time></trkpt><trkpt lat="43.6275983" lon="11.2776233"><ele>162.0</ele><time>2026-04-30T08:01:36.337Z</time></trkpt><trkpt lat="43.62743" lon="11.2777733"><ele>162.0</ele><time>2026-04-30T08:01:37.337Z</time></trkpt><trkpt lat="43.627265" lon="11.27793"><ele>162.0</ele><time>2026-04-30T08:01:38.337Z</time></trkpt><trkpt lat="43.627115" lon="11.278115"><ele>162.0</ele><time>2026-04-30T08:01:39.337Z</time></trkpt><trkpt lat="43.6269683" lon="11.27831"><ele>162.0</ele><time>2026-04-30T08:01:40.337Z</time></trkpt><trkpt lat="43.6268233" lon="11.27852"><ele>162.0</ele><time>2026-04-30T08:01:41.336Z</time></trkpt><trkpt lat="43.6266767" lon="11.2787317"><ele>163.66666666666666</ele><time>2026-04-30T08:01:42.337Z</time></trkpt><trkpt lat="43.6265267" lon="11.278945"><ele>165.33333333333331</ele><time>2026-04-30T08:01:43.336Z</time></trkpt><trkpt lat="43.6263817" lon="11.2791633"><ele>167.0</ele><time>2026-04-30T08:01:44.336Z</time></trkpt><trkpt lat="43.626245" lon="11.27938"><ele>166.0</ele><time>2026-04-30T08:01:45.337Z</time></trkpt><trkpt lat="43.626125" lon="11.2795983"><ele>165.0</ele><time>2026-04-30T08:01:46.337Z</time></trkpt><trkpt lat="43.6260167" lon="11.2798217"><ele>164.0</ele><time>2026-04-30T08:01:47.337Z</time></trkpt><trkpt lat="43.6259283" lon="11.2800383"><ele>164.0</ele><time>2026-04-30T08:01:48.336Z</time></trkpt><trkpt lat="43.6258433" lon="11.2802317"><ele>164.0</ele><time>2026-04-30T08:01:49.337Z</time></trkpt><trkpt lat="43.6257633" lon="11.2804183"><ele>164.0</ele><time>2026-04-30T08:01:50.337Z</time></trkpt><trkpt lat="43.6256867" lon="11.2806"><ele>164.25</ele><time>2026-04-30T08:01:51.336Z</time></trkpt><trkpt lat="43.625605" lon="11.28077"><ele>164.5</ele><time>2026-04-30T08:01:52.337Z</time></trkpt><trkpt lat="43.6255383" lon="11.2809333"><ele>164.75</ele><time>2026-04-30T08:01:53.337Z</time></trkpt><trkpt lat="43.6254717" lon="11.2810817"><ele>165.0</ele><time>2026-04-30T08:01:54.337Z</time></trkpt><trkpt lat="43.6254083" lon="11.2812233"><ele>165.0</ele><time>2026-04-30T08:01:55.337Z</time></trkpt><trkpt lat="43.6253517" lon="11.28135"><ele>165.0</ele><time>2026-04-30T08:01:56.337Z</time></trkpt><trkpt lat="43.6253" lon="11.2814767"><ele>165.0</ele><time>2026-04-30T08:01:57.337Z</time></trkpt><trkpt lat="43.6252433" lon="11.2816"><ele>165.0</ele><time>2026-04-30T08:01:58.337Z</time></trkpt><trkpt lat="43.6251883" lon="11.2817217"><ele>165.0</ele><time>2026-04-30T08:01:59.337Z</time></trkpt><trkpt lat="43.6251367" lon="11.28184"><ele>164.8</ele><time>2026-04-30T08:02:00.337Z</time></trkpt><trkpt lat="43.6250833" lon="11.2819533"><ele>164.6</ele><time>2026-04-30T08:02:01.337Z</time></trkpt><trkpt lat="43.6250317" lon="11.2820717"><ele>164.39999999999998</ele><time>2026-04-30T08:02:02.337Z</time></trkpt><trkpt lat="43.6249833" lon="11.2821983"><ele>164.2</ele><time>2026-04-30T08:02:03.336Z</time></trkpt><trkpt lat="43.6249217" lon="11.2823417"><ele>164.0</ele><time>2026-04-30T08:02:04.336Z</time></trkpt><trkpt lat="43.6248583" lon="11.28249"><ele>164.5</ele><time>2026-04-30T08:02:05.337Z</time></trkpt><trkpt lat="43.62479" lon="11.282645"><ele>165.0</ele><time>2026-04-30T08:02:06.337Z</time></trkpt><trkpt lat="43.6247133" lon="11.2828133"><ele>165.5</ele><time>2026-04-30T08:02:07.337Z</time></trkpt><trkpt lat="43.6246333" lon="11.2829867"><ele>166.0</ele><time>2026-04-30T08:02:08.337Z</time></trkpt><trkpt lat="43.6245517" lon="11.2831633"><ele>166.66666666666669</ele><time>2026-04-30T08:02:09.336Z</time></trkpt><trkpt lat="43.6244683" lon="11.283345"><ele>167.33333333333334</ele><time>2026-04-30T08:02:10.336Z</time></trkpt><trkpt lat="43.6243883" lon="11.2835317"><ele>168.0</ele><time>2026-04-30T08:02:11.337Z</time></trkpt><trkpt lat="43.6243067" lon="11.2837117"><ele>168.0</ele><time>2026-04-30T08:02:12.337Z</time></trkpt><trkpt lat="43.6242167" lon="11.283885"><ele>168.0</ele><time>2026-04-30T08:02:13.337Z</time></trkpt><trkpt lat="43.6241383" lon="11.2840617"><ele>168.0</ele><time>2026-04-30T08:02:14.337Z</time></trkpt><trkpt lat="43.6240267" lon="11.28423"><ele>168.33333333333334</ele><time>2026-04-30T08:02:15.336Z</time></trkpt><trkpt lat="43.6239083" lon="11.28438"><ele>168.66666666666669</ele><time>2026-04-30T08:02:16.337Z</time></trkpt><trkpt lat="43.6237783" lon="11.2844967"><ele>169.0</ele><time>2026-04-30T08:02:17.337Z</time></trkpt><trkpt lat="43.623635" lon="11.284595"><ele>169.0</ele><time>2026-04-30T08:02:18.337Z</time></trkpt><trkpt lat="43.6234817" lon="11.2846767"><ele>169.0</ele><time>2026-04-30T08:02:19.337Z</time></trkpt><trkpt lat="43.623335" lon="11.2847833"><ele>169.0</ele><time>2026-04-30T08:02:20.337Z</time></trkpt><trkpt lat="43.6231867" lon="11.2849167"><ele>168.66666666666669</ele><time>2026-04-30T08:02:21.337Z</time></trkpt><trkpt lat="43.6230367" lon="11.2850583"><ele>168.33333333333334</ele><time>2026-04-30T08:02:22.337Z</time></trkpt><trkpt lat="43.622885" lon="11.2852117"><ele>168.0</ele><time>2026-04-30T08:02:23.337Z</time></trkpt><trkpt lat="43.6227367" lon="11.28537"><ele>168.0</ele><time>2026-04-30T08:02:24.336Z</time></trkpt><trkpt lat="43.622595" lon="11.2855383"><ele>168.0</ele><time>2026-04-30T08:02:25.337Z</time></trkpt><trkpt lat="43.622455" lon="11.28569"><ele>168.0</ele><time>2026-04-30T08:02:26.337Z</time></trkpt><trkpt lat="43.6223117" lon="11.2858067"><ele>169.0</ele><time>2026-04-30T08:02:27.337Z</time></trkpt><trkpt lat="43.6221717" lon="11.2859033"><ele>170.0</ele><time>2026-04-30T08:02:28.336Z</time></trkpt><trkpt lat="43.622025" lon="11.2859733"><ele>171.0</ele><time>2026-04-30T08:02:29.337Z</time></trkpt><trkpt lat="43.6218867" lon="11.28601"><ele>171.0</ele><time>2026-04-30T08:02:30.337Z</time></trkpt><trkpt lat="43.6217633" lon="11.2860333"><ele>171.0</ele><time>2026-04-30T08:02:31.336Z</time></trkpt><trkpt lat="43.6216683" lon="11.2860483"><ele>171.0</ele><time>2026-04-30T08:02:32.337Z</time></trkpt><trkpt lat="43.6215983" lon="11.286055"><ele>171.0</ele><time>2026-04-30T08:02:33.337Z</time></trkpt><trkpt lat="43.6215283" lon="11.28607"><ele>171.0</ele><time>2026-04-30T08:02:34.337Z</time></trkpt><trkpt lat="43.62145" lon="11.286095"><ele>171.0</ele><time>2026-04-30T08:02:35.337Z</time></trkpt><trkpt lat="43.621355" lon="11.2861317"><ele>171.0</ele><time>2026-04-30T08:02:36.337Z</time></trkpt><trkpt lat="43.6212433" lon="11.2861567"><ele>171.0</ele><time>2026-04-30T08:02:37.337Z</time></trkpt><trkpt lat="43.621115" lon="11.2861783"><ele>171.0</ele><time>2026-04-30T08:02:38.336Z</time></trkpt><trkpt lat="43.6209733" lon="11.2861933"><ele>171.0</ele><time>2026-04-30T08:02:39.336Z</time></trkpt><trkpt lat="43.620835" lon="11.2862067"><ele>171.33333333333334</ele><time>2026-04-30T08:02:40.337Z</time></trkpt><trkpt lat="43.6206733" lon="11.2862333"><ele>171.66666666666669</ele><time>2026-04-30T08:02:41.337Z</time></trkpt><trkpt lat="43.6205167" lon="11.286285"><ele>172.0</ele><time>2026-04-30T08:02:42.337Z</time></trkpt><trkpt lat="43.6203717" lon="11.286375"><ele>173.33333333333334</ele><time>2026-04-30T08:02:43.337Z</time></trkpt><trkpt lat="43.6202433" lon="11.286505"><ele>174.66666666666666</ele><time>2026-04-30T08:02:44.336Z</time></trkpt><trkpt lat="43.6201333" lon="11.2866783"><ele>176.0</ele><time>2026-04-30T08:02:45.336Z</time></trkpt><trkpt lat="43.620035" lon="11.2868617"><ele>176.0</ele><time>2026-04-30T08:02:46.337Z</time></trkpt><trkpt lat="43.6199267" lon="11.28706"><ele>176.0</ele><time>2026-04-30T08:02:47.337Z</time></trkpt><trkpt lat="43.6198283" lon="11.2872633"><ele>176.0</ele><time>2026-04-30T08:02:48.337Z</time></trkpt><trkpt lat="43.6197183" lon="11.2874767"><ele>177.0</ele><time>2026-04-30T08:02:49.336Z</time></trkpt><trkpt lat="43.6196117" lon="11.2876967"><ele>178.0</ele><time>2026-04-30T08:02:50.336Z</time></trkpt><trkpt lat="43.61951" lon="11.2879217"><ele>179.0</ele><time>2026-04-30T08:02:51.336Z</time></trkpt><trkpt lat="43.61941" lon="11.2881633"><ele>179.0</ele><time>2026-04-30T08:02:52.337Z</time></trkpt><trkpt lat="43.6193283" lon="11.2884"><ele>179.0</ele><time>2026-04-30T08:02:53.337Z</time></trkpt><trkpt lat="43.6192467" lon="11.2886633"><ele>179.0</ele><time>2026-04-30T08:02:54.337Z</time></trkpt><trkpt lat="43.6191767" lon="11.2889267"><ele>181.0</ele><time>2026-04-30T08:02:55.337Z</time></trkpt><trkpt lat="43.619115" lon="11.289195"><ele>183.0</ele><time>2026-04-30T08:02:56.337Z</time></trkpt><trkpt lat="43.61906" lon="11.2894617"><ele>185.0</ele><time>2026-04-30T08:02:57.336Z</time></trkpt><trkpt lat="43.619005" lon="11.2897267"><ele>186.33333333333331</ele><time>2026-04-30T08:02:58.337Z</time></trkpt><trkpt lat="43.618955" lon="11.29"><ele>187.66666666666666</ele><time>2026-04-30T08:02:59.336Z</time></trkpt><trkpt lat="43.6189067" lon="11.2902783"><ele>189.0</ele><time>2026-04-30T08:03:00.337Z</time></trkpt><trkpt lat="43.6188567" lon="11.2905467"><ele>190.33333333333331</ele><time>2026-04-30T08:03:01.336Z</time></trkpt><trkpt lat="43.6188033" lon="11.2908167"><ele>191.66666666666666</ele><time>2026-04-30T08:03:02.337Z</time></trkpt><trkpt lat="43.618745" lon="11.291085"><ele>193.0</ele><time>2026-04-30T08:03:03.336Z</time></trkpt><trkpt lat="43.61868" lon="11.29135"><ele>190.0</ele><time>2026-04-30T08:03:04.337Z</time></trkpt><trkpt lat="43.6186233" lon="11.2916033"><ele>187.0</ele><time>2026-04-30T08:03:05.337Z</time></trkpt><trkpt lat="43.6185717" lon="11.291845"><ele>184.0</ele><time>2026-04-30T08:03:06.336Z</time></trkpt><trkpt lat="43.6185183" lon="11.2920717"><ele>185.0</ele><time>2026-04-30T08:03:07.337Z</time></trkpt><trkpt lat="43.6184817" lon="11.2922883"><ele>186.0</ele><time>2026-04-30T08:03:08.336Z</time></trkpt><trkpt lat="43.6184717" lon="11.29251"><ele>187.0</ele><time>2026-04-30T08:03:09.337Z</time></trkpt><trkpt lat="43.61849" lon="11.2927267"><ele>187.0</ele><time>2026-04-30T08:03:10.337Z</time></trkpt><trkpt lat="43.6185467" lon="11.2929367"><ele>187.0</ele><time>2026-04-30T08:03:11.337Z</time></trkpt><trkpt lat="43.6186267" lon="11.2931583"><ele>187.0</ele><time>2026-04-30T08:03:12.337Z</time></trkpt><trkpt lat="43.618715" lon="11.2933867"><ele>189.33333333333334</ele><time>2026-04-30T08:03:13.337Z</time></trkpt><trkpt lat="43.6188033" lon="11.29362"><ele>191.66666666666669</ele><time>2026-04-30T08:03:14.337Z</time></trkpt><trkpt lat="43.618895" lon="11.2938467"><ele>194.0</ele><time>2026-04-30T08:03:15.336Z</time></trkpt><trkpt lat="43.618975" lon="11.2940617"><ele>194.0</ele><time>2026-04-30T08:03:16.337Z</time></trkpt><trkpt lat="43.619065" lon="11.2942617"><ele>194.0</ele><time>2026-04-30T08:03:17.336Z</time></trkpt><trkpt lat="43.6191617" lon="11.2944367"><ele>194.0</ele><time>2026-04-30T08:03:18.337Z</time></trkpt><trkpt lat="43.6192767" lon="11.2945833"><ele>194.0</ele><time>2026-04-30T08:03:19.337Z</time></trkpt><trkpt lat="43.6194183" lon="11.294705"><ele>194.0</ele><time>2026-04-30T08:03:20.337Z</time></trkpt><trkpt lat="43.6195533" lon="11.29481"><ele>194.0</ele><time>2026-04-30T08:03:21.337Z</time></trkpt><trkpt lat="43.61968" lon="11.29491"><ele>195.75</ele><time>2026-04-30T08:03:22.336Z</time></trkpt><trkpt lat="43.61978" lon="11.2950317"><ele>197.5</ele><time>2026-04-30T08:03:23.337Z</time></trkpt><trkpt lat="43.619855" lon="11.29519"><ele>199.25</ele><time>2026-04-30T08:03:24.336Z</time></trkpt><trkpt lat="43.6199133" lon="11.29537"><ele>201.0</ele><time>2026-04-30T08:03:25.337Z</time></trkpt><trkpt lat="43.6199717" lon="11.2955633"><ele>201.66666666666669</ele><time>2026-04-30T08:03:26.337Z</time></trkpt><trkpt lat="43.620045" lon="11.295755"><ele>202.33333333333334</ele><time>2026-04-30T08:03:27.337Z</time></trkpt><trkpt lat="43.620125" lon="11.2959633"><ele>203.0</ele><time>2026-04-30T08:03:28.337Z</time></trkpt><trkpt lat="43.6201917" lon="11.296185"><ele>203.0</ele><time>2026-04-30T08:03:29.337Z</time></trkpt><trkpt lat="43.6202433" lon="11.2963983"><ele>203.0</ele><time>2026-04-30T08:03:30.337Z</time></trkpt><trkpt lat="43.6202833" lon="11.2966017"><ele>203.0</ele><time>2026-04-30T08:03:31.337Z</time></trkpt><trkpt lat="43.620315" lon="11.2967867"><ele>204.4</ele><time>2026-04-30T08:03:32.337Z</time></trkpt><trkpt lat="43.620345" lon="11.29694"><ele>205.8</ele><time>2026-04-30T08:03:33.336Z</time></trkpt><trkpt lat="43.6203533" lon="11.2970717"><ele>207.2</ele><time>2026-04-30T08:03:34.337Z</time></trkpt><trkpt lat="43.6203317" lon="11.297185"><ele>208.6</ele><time>2026-04-30T08:03:35.337Z</time></trkpt><trkpt lat="43.6202933" lon="11.2972833"><ele>210.0</ele><time>2026-04-30T08:03:36.336Z</time></trkpt><trkpt lat="43.6202283" lon="11.2973517"><ele>210.0</ele><time>2026-04-30T08:03:37.337Z</time></trkpt><trkpt lat="43.6201367" lon="11.297395"><ele>210.0</ele><time>2026-04-30T08:03:38.337Z</time></trkpt><trkpt lat="43.62003" lon="11.2973867"><ele>210.0</ele><time>2026-04-30T08:03:39.336Z</time></trkpt><trkpt lat="43.6199167" lon="11.29732"><ele>210.0</ele><time>2026-04-30T08:03:40.337Z</time></trkpt><trkpt lat="43.6198033" lon="11.29722"><ele>209.25</ele><time>2026-04-30T08:03:41.336Z</time></trkpt><trkpt lat="43.6197117" lon="11.29708"><ele>208.5</ele><time>2026-04-30T08:03:42.337Z</time></trkpt><trkpt lat="43.6196417" lon="11.296925"><ele>207.75</ele><time>2026-04-30T08:03:43.337Z</time></trkpt><trkpt lat="43.6195717" lon="11.2967683"><ele>207.0</ele><time>2026-04-30T08:03:44.336Z</time></trkpt><trkpt lat="43.6194783" lon="11.2966383"><ele>210.33333333333331</ele><time>2026-04-30T08:03:45.336Z</time></trkpt><trkpt lat="43.6193533" lon="11.2965533"><ele>213.66666666666666</ele><time>2026-04-30T08:03:46.337Z</time></trkpt><trkpt lat="43.6192033" lon="11.29651"><ele>217.0</ele><time>2026-04-30T08:03:47.336Z</time></trkpt><trkpt lat="43.6190467" lon="11.296485"><ele>217.0</ele><time>2026-04-30T08:03:48.336Z</time></trkpt><trkpt lat="43.6188817" lon="11.2964533"><ele>217.0</ele><time>2026-04-30T08:03:49.337Z</time></trkpt><trkpt lat="43.618725" lon="11.2963967"><ele>217.0</ele><time>2026-04-30T08:03:50.336Z</time></trkpt><trkpt lat="43.6185733" lon="11.2962867"><ele>216.0</ele><time>2026-04-30T08:03:51.337Z</time></trkpt><trkpt lat="43.6184183" lon="11.29617"><ele>215.0</ele><time>2026-04-30T08:03:52.337Z</time></trkpt><trkpt lat="43.618285" lon="11.2960533"><ele>214.0</ele><time>2026-04-30T08:03:53.337Z</time></trkpt><trkpt lat="43.6181533" lon="11.295955"><ele>214.0</ele><time>2026-04-30T08:03:54.336Z</time></trkpt><trkpt lat="43.61801" lon="11.295915"><ele>214.0</ele><time>2026-04-30T08:03:55.336Z</time></trkpt><trkpt lat="43.617855" lon="11.295925"><ele>214.0</ele><time>2026-04-30T08:03:56.337Z</time></trkpt><trkpt lat="43.6176983" lon="11.2959633"><ele>216.0</ele><time>2026-04-30T08:03:57.337Z</time></trkpt><trkpt lat="43.6175183" lon="11.2960017"><ele>218.0</ele><time>2026-04-30T08:03:58.337Z</time></trkpt><trkpt lat="43.6173333" lon="11.29604"><ele>220.0</ele><time>2026-04-30T08:03:59.337Z</time></trkpt><trkpt lat="43.61715" lon="11.29607"><ele>219.66666666666666</ele><time>2026-04-30T08:04:00.337Z</time></trkpt><trkpt lat="43.6169783" lon="11.2961133"><ele>219.33333333333331</ele><time>2026-04-30T08:04:01.337Z</time></trkpt><trkpt lat="43.6168217" lon="11.2961767"><ele>219.0</ele><time>2026-04-30T08:04:02.337Z</time></trkpt><trkpt lat="43.6166717" lon="11.2962833"><ele>223.66666666666669</ele><time>2026-04-30T08:04:03.337Z</time></trkpt><trkpt lat="43.6165383" lon="11.2964217"><ele>228.33333333333334</ele><time>2026-04-30T08:04:04.337Z</time></trkpt><trkpt lat="43.61641" lon="11.2965883"><ele>233.0</ele><time>2026-04-30T08:04:05.337Z</time></trkpt><trkpt lat="43.6162783" lon="11.2967767"><ele>233.66666666666669</ele><time>2026-04-30T08:04:06.337Z</time></trkpt><trkpt lat="43.6161317" lon="11.2969667"><ele>234.33333333333331</ele><time>2026-04-30T08:04:07.337Z</time></trkpt><trkpt lat="43.6159717" lon="11.297135"><ele>235.0</ele><time>2026-04-30T08:04:08.337Z</time></trkpt><trkpt lat="43.6158017" lon="11.2972633"><ele>235.0</ele><time>2026-04-30T08:04:09.336Z</time></trkpt><trkpt lat="43.61562" lon="11.2973583"><ele>235.0</ele><time>2026-04-30T08:04:10.336Z</time></trkpt><trkpt lat="43.6154283" lon="11.2974383"><ele>235.0</ele><time>2026-04-30T08:04:11.336Z</time></trkpt><trkpt lat="43.61523" lon="11.297515"><ele>235.0</ele><time>2026-04-30T08:04:12.337Z</time></trkpt><trkpt lat="43.6150317" lon="11.2975933"><ele>235.0</ele><time>2026-04-30T08:04:13.336Z</time></trkpt><trkpt lat="43.614825" lon="11.2976733"><ele>235.0</ele><time>2026-04-30T08:04:14.336Z</time></trkpt><trkpt lat="43.6146433" lon="11.2977383"><ele>235.33333333333331</ele><time>2026-04-30T08:04:15.336Z</time></trkpt><trkpt lat="43.6144717" lon="11.2978033"><ele>235.66666666666669</ele><time>2026-04-30T08:04:16.336Z</time></trkpt><trkpt lat="43.6143067" lon="11.2978417"><ele>236.0</ele><time>2026-04-30T08:04:17.336Z</time></trkpt><trkpt lat="43.6141517" lon="11.29788"><ele>236.0</ele><time>2026-04-30T08:04:18.336Z</time></trkpt><trkpt lat="43.6140133" lon="11.2979083"><ele>236.0</ele><time>2026-04-30T08:04:19.336Z</time></trkpt><trkpt lat="43.61389" lon="11.29791"><ele>236.0</ele><time>2026-04-30T08:04:20.336Z</time></trkpt><trkpt lat="43.613785" lon="11.2979"><ele>236.0</ele><time>2026-04-30T08:04:21.337Z</time></trkpt><trkpt lat="43.6137017" lon="11.29788"><ele>237.20000000000002</ele><time>2026-04-30T08:04:22.336Z</time></trkpt><trkpt lat="43.6136167" lon="11.29785"><ele>238.40000000000003</ele><time>2026-04-30T08:04:23.336Z</time></trkpt><trkpt lat="43.61352" lon="11.2978017"><ele>239.6</ele><time>2026-04-30T08:04:24.337Z</time></trkpt><trkpt lat="43.6134117" lon="11.2977767"><ele>240.8</ele><time>2026-04-30T08:04:25.336Z</time></trkpt><trkpt lat="43.6133" lon="11.297775"><ele>242.0</ele><time>2026-04-30T08:04:26.337Z</time></trkpt><trkpt lat="43.6131867" lon="11.2978117"><ele>242.0</ele><time>2026-04-30T08:04:27.337Z</time></trkpt><trkpt lat="43.6130933" lon="11.2979133"><ele>242.0</ele><time>2026-04-30T08:04:28.336Z</time></trkpt><trkpt lat="43.6130383" lon="11.29805"><ele>242.0</ele><time>2026-04-30T08:04:29.337Z</time></trkpt><trkpt lat="43.6130217" lon="11.2982017"><ele>242.0</ele><time>2026-04-30T08:04:30.337Z</time></trkpt><trkpt lat="43.613035" lon="11.298355"><ele>241.5</ele><time>2026-04-30T08:04:31.337Z</time></trkpt><trkpt lat="43.6130733" lon="11.2985267"><ele>241.0</ele><time>2026-04-30T08:04:32.337Z</time></trkpt><trkpt lat="43.61316" lon="11.2986917"><ele>240.5</ele><time>2026-04-30T08:04:33.336Z</time></trkpt><trkpt lat="43.6132533" lon="11.298865"><ele>240.0</ele><time>2026-04-30T08:04:34.337Z</time></trkpt><trkpt lat="43.6133483" lon="11.299035"><ele>240.0</ele><time>2026-04-30T08:04:35.336Z</time></trkpt><trkpt lat="43.6134433" lon="11.299195"><ele>240.0</ele><time>2026-04-30T08:04:36.336Z</time></trkpt><trkpt lat="43.61353" lon="11.2993467"><ele>240.0</ele><time>2026-04-30T08:04:37.336Z</time></trkpt><trkpt lat="43.613635" lon="11.2994767"><ele>240.0</ele><time>2026-04-30T08:04:38.337Z</time></trkpt><trkpt lat="43.6137583" lon="11.2995967"><ele>239.5</ele><time>2026-04-30T08:04:39.337Z</time></trkpt><trkpt lat="43.6139" lon="11.2996917"><ele>239.0</ele><time>2026-04-30T08:04:40.337Z</time></trkpt><trkpt lat="43.6140267" lon="11.29977"><ele>238.5</ele><time>2026-04-30T08:04:41.336Z</time></trkpt><trkpt lat="43.61414" lon="11.2998417"><ele>238.0</ele><time>2026-04-30T08:04:42.337Z</time></trkpt><trkpt lat="43.6142367" lon="11.29991"><ele>237.99999999999997</ele><time>2026-04-30T08:04:43.337Z</time></trkpt><trkpt lat="43.6142983" lon="11.3"><ele>238.0</ele><time>2026-04-30T08:04:44.336Z</time></trkpt><trkpt lat="43.6143167" lon="11.3001217"><ele>238.0</ele><time>2026-04-30T08:04:45.337Z</time></trkpt><trkpt lat="43.61429" lon="11.30024"><ele>238.0</ele><time>2026-04-30T08:04:46.336Z</time></trkpt><trkpt lat="43.614225" lon="11.3003167"><ele>237.99999999999997</ele><time>2026-04-30T08:04:47.337Z</time></trkpt><trkpt lat="43.6141333" lon="11.300325"><ele>238.0</ele><time>2026-04-30T08:04:48.337Z</time></trkpt><trkpt lat="43.61402" lon="11.3002783"><ele>238.0</ele><time>2026-04-30T08:04:49.337Z</time></trkpt><trkpt lat="43.6138783" lon="11.3001883"><ele>238.0</ele><time>2026-04-30T08:04:50.336Z</time></trkpt><trkpt lat="43.6137283" lon="11.3001"><ele>238.0</ele><time>2026-04-30T08:04:51.336Z</time></trkpt><trkpt lat="43.613575" lon="11.3000083"><ele>238.66666666666666</ele><time>2026-04-30T08:04:52.337Z</time></trkpt><trkpt lat="43.6134133" lon="11.2999217"><ele>239.33333333333331</ele><time>2026-04-30T08:04:53.337Z</time></trkpt><trkpt lat="43.6132383" lon="11.2998317"><ele>240.0</ele><time>2026-04-30T08:04:54.336Z</time></trkpt><trkpt lat="43.6130683" lon="11.2997467"><ele>240.0</ele><time>2026-04-30T08:04:55.336Z</time></trkpt><trkpt lat="43.612895" lon="11.29965"><ele>240.0</ele><time>2026-04-30T08:04:56.337Z</time></trkpt><trkpt lat="43.612715" lon="11.2995583"><ele>240.0</ele><time>2026-04-30T08:04:57.336Z</time></trkpt><trkpt lat="43.6125333" lon="11.2994683"><ele>236.33333333333331</ele><time>2026-04-30T08:04:58.336Z</time></trkpt><trkpt lat="43.612365" lon="11.2993783"><ele>232.66666666666666</ele><time>2026-04-30T08:04:59.337Z</time></trkpt><trkpt lat="43.6122167" lon="11.2993083"><ele>229.0</ele><time>2026-04-30T08:05:00.337Z</time></trkpt><trkpt lat="43.6120733" lon="11.299265"><ele>228.5</ele><time>2026-04-30T08:05:01.336Z</time></trkpt><trkpt lat="43.6119383" lon="11.2992583"><ele>228.0</ele><time>2026-04-30T08:05:02.337Z</time></trkpt><trkpt lat="43.6117983" lon="11.299305"><ele>227.5</ele><time>2026-04-30T08:05:03.337Z</time></trkpt><trkpt lat="43.6116683" lon="11.299395"><ele>227.0</ele><time>2026-04-30T08:05:04.337Z</time></trkpt><trkpt lat="43.6115417" lon="11.29949"><ele>227.0</ele><time>2026-04-30T08:05:05.337Z</time></trkpt><trkpt lat="43.6114133" lon="11.299545"><ele>227.0</ele><time>2026-04-30T08:05:06.337Z</time></trkpt><trkpt lat="43.6112917" lon="11.2995367"><ele>227.0</ele><time>2026-04-30T08:05:07.337Z</time></trkpt><trkpt lat="43.6111567" lon="11.2994833"><ele>227.0</ele><time>2026-04-30T08:05:08.337Z</time></trkpt><trkpt lat="43.6110283" lon="11.299425"><ele>225.75</ele><time>2026-04-30T08:05:09.337Z</time></trkpt><trkpt lat="43.610895" lon="11.29942"><ele>224.5</ele><time>2026-04-30T08:05:10.337Z</time></trkpt><trkpt lat="43.6107533" lon="11.299455"><ele>223.25</ele><time>2026-04-30T08:05:11.337Z</time></trkpt><trkpt lat="43.6106033" lon="11.29953"><ele>222.0</ele><time>2026-04-30T08:05:12.337Z</time></trkpt><trkpt lat="43.61045" lon="11.2996333"><ele>222.33333333333331</ele><time>2026-04-30T08:05:13.337Z</time></trkpt><trkpt lat="43.6102967" lon="11.29973"><ele>222.66666666666666</ele><time>2026-04-30T08:05:14.337Z</time></trkpt><trkpt lat="43.610145" lon="11.29982"><ele>223.0</ele><time>2026-04-30T08:05:15.337Z</time></trkpt><trkpt lat="43.6100017" lon="11.2998933"><ele>219.0</ele><time>2026-04-30T08:05:16.336Z</time></trkpt><trkpt lat="43.6098483" lon="11.2999417"><ele>215.0</ele><time>2026-04-30T08:05:17.337Z</time></trkpt><trkpt lat="43.6096983" lon="11.2999417"><ele>211.0</ele><time>2026-04-30T08:05:18.336Z</time></trkpt><trkpt lat="43.60954" lon="11.299915"><ele>212.33333333333331</ele><time>2026-04-30T08:05:19.337Z</time></trkpt><trkpt lat="43.609385" lon="11.299865"><ele>213.66666666666669</ele><time>2026-04-30T08:05:20.337Z</time></trkpt><trkpt lat="43.6092417" lon="11.2998017"><ele>215.0</ele><time>2026-04-30T08:05:21.337Z</time></trkpt><trkpt lat="43.6091067" lon="11.2997483"><ele>215.0</ele><time>2026-04-30T08:05:22.337Z</time></trkpt><trkpt lat="43.6089917" lon="11.2997133"><ele>215.0</ele><time>2026-04-30T08:05:23.336Z</time></trkpt><trkpt lat="43.6088883" lon="11.29971"><ele>215.0</ele><time>2026-04-30T08:05:24.337Z</time></trkpt><trkpt lat="43.608795" lon="11.299735"><ele>215.0</ele><time>2026-04-30T08:05:25.337Z</time></trkpt><trkpt lat="43.6087083" lon="11.299805"><ele>215.0</ele><time>2026-04-30T08:05:26.336Z</time></trkpt><trkpt lat="43.6086283" lon="11.2999267"><ele>211.75</ele><time>2026-04-30T08:05:27.337Z</time></trkpt><trkpt lat="43.60856" lon="11.3000717"><ele>208.5</ele><time>2026-04-30T08:05:28.337Z</time></trkpt><trkpt lat="43.6084967" lon="11.3002283"><ele>205.25</ele><time>2026-04-30T08:05:29.337Z</time></trkpt><trkpt lat="43.6084267" lon="11.30038"><ele>202.0</ele><time>2026-04-30T08:05:30.337Z</time></trkpt><trkpt lat="43.6083433" lon="11.300535"><ele>203.5</ele><time>2026-04-30T08:05:31.337Z</time></trkpt><trkpt lat="43.6082567" lon="11.3006817"><ele>205.0</ele><time>2026-04-30T08:05:32.336Z</time></trkpt><trkpt lat="43.6081783" lon="11.3008267"><ele>206.5</ele><time>2026-04-30T08:05:33.337Z</time></trkpt><trkpt lat="43.6081167" lon="11.30098"><ele>208.0</ele><time>2026-04-30T08:05:34.337Z</time></trkpt><trkpt lat="43.6080633" lon="11.3011517"><ele>208.0</ele><time>2026-04-30T08:05:35.337Z</time></trkpt><trkpt lat="43.6080117" lon="11.3013217"><ele>208.0</ele><time>2026-04-30T08:05:36.337Z</time></trkpt><trkpt lat="43.6079633" lon="11.3015"><ele>208.0</ele><time>2026-04-30T08:05:37.337Z</time></trkpt><trkpt lat="43.6079267" lon="11.3016767"><ele>208.0</ele><time>2026-04-30T08:05:38.336Z</time></trkpt><trkpt lat="43.607905" lon="11.3018667"><ele>207.5</ele><time>2026-04-30T08:05:39.336Z</time></trkpt><trkpt lat="43.6078917" lon="11.302075"><ele>207.0</ele><time>2026-04-30T08:05:40.337Z</time></trkpt><trkpt lat="43.607865" lon="11.3022617"><ele>206.5</ele><time>2026-04-30T08:05:41.337Z</time></trkpt><trkpt lat="43.607815" lon="11.3024533"><ele>206.0</ele><time>2026-04-30T08:05:42.337Z</time></trkpt><trkpt lat="43.607745" lon="11.302645"><ele>206.0</ele><time>2026-04-30T08:05:43.337Z</time></trkpt><trkpt lat="43.607665" lon="11.3028283"><ele>206.0</ele><time>2026-04-30T08:05:44.337Z</time></trkpt><trkpt lat="43.6075717" lon="11.3030033"><ele>206.0</ele><time>2026-04-30T08:05:45.337Z</time></trkpt><trkpt lat="43.607475" lon="11.3031883"><ele>207.0</ele><time>2026-04-30T08:05:46.337Z</time></trkpt><trkpt lat="43.607375" lon="11.3033733"><ele>208.0</ele><time>2026-04-30T08:05:47.336Z</time></trkpt><trkpt lat="43.60728" lon="11.303565"><ele>209.0</ele><time>2026-04-30T08:05:48.337Z</time></trkpt><trkpt lat="43.6071733" lon="11.303745"><ele>209.0</ele><time>2026-04-30T08:05:49.337Z</time></trkpt><trkpt lat="43.60708" lon="11.303935"><ele>209.0</ele><time>2026-04-30T08:05:50.336Z</time></trkpt><trkpt lat="43.6069933" lon="11.30412"><ele>209.0</ele><time>2026-04-30T08:05:51.337Z</time></trkpt><trkpt lat="43.606905" lon="11.304285"><ele>209.0</ele><time>2026-04-30T08:05:52.337Z</time></trkpt><trkpt lat="43.6068067" lon="11.3044517"><ele>209.0</ele><time>2026-04-30T08:05:53.337Z</time></trkpt><trkpt lat="43.6066917" lon="11.3045967"><ele>209.0</ele><time>2026-04-30T08:05:54.336Z</time></trkpt><trkpt lat="43.606565" lon="11.304735"><ele>208.66666666666669</ele><time>2026-04-30T08:05:55.337Z</time></trkpt><trkpt lat="43.6064183" lon="11.30486"><ele>208.33333333333331</ele><time>2026-04-30T08:05:56.337Z</time></trkpt><trkpt lat="43.6062633" lon="11.305005"><ele>208.0</ele><time>2026-04-30T08:05:57.337Z</time></trkpt><trkpt lat="43.6061033" lon="11.3051433"><ele>208.0</ele><time>2026-04-30T08:05:58.336Z</time></trkpt><trkpt lat="43.6059533" lon="11.3052767"><ele>208.0</ele><time>2026-04-30T08:05:59.337Z</time></trkpt><trkpt lat="43.605795" lon="11.3054233"><ele>208.0</ele><time>2026-04-30T08:06:00.337Z</time></trkpt><trkpt lat="43.605615" lon="11.3055533"><ele>208.0</ele><time>2026-04-30T08:06:01.337Z</time></trkpt><trkpt lat="43.6054433" lon="11.3057083"><ele>208.0</ele><time>2026-04-30T08:06:02.336Z</time></trkpt><trkpt lat="43.60527" lon="11.3058583"><ele>208.0</ele><time>2026-04-30T08:06:03.336Z</time></trkpt><trkpt lat="43.6050883" lon="11.3060067"><ele>208.0</ele><time>2026-04-30T08:06:04.337Z</time></trkpt><trkpt lat="43.6049183" lon="11.3061467"><ele>208.0</ele><time>2026-04-30T08:06:05.337Z</time></trkpt><trkpt lat="43.60475" lon="11.3062783"><ele>208.0</ele><time>2026-04-30T08:06:06.337Z</time></trkpt><trkpt lat="43.604595" lon="11.3064033"><ele>208.33333333333331</ele><time>2026-04-30T08:06:07.337Z</time></trkpt><trkpt lat="43.6044367" lon="11.306535"><ele>208.66666666666669</ele><time>2026-04-30T08:06:08.337Z</time></trkpt><trkpt lat="43.6043167" lon="11.306665"><ele>209.0</ele><time>2026-04-30T08:06:09.337Z</time></trkpt><trkpt lat="43.60423" lon="11.3068317"><ele>209.0</ele><time>2026-04-30T08:06:10.337Z</time></trkpt><trkpt lat="43.6041733" lon="11.307025"><ele>209.0</ele><time>2026-04-30T08:06:11.337Z</time></trkpt><trkpt lat="43.6041467" lon="11.3072333"><ele>209.0</ele><time>2026-04-30T08:06:12.337Z</time></trkpt><trkpt lat="43.60414" lon="11.307465"><ele>210.66666666666669</ele><time>2026-04-30T08:06:13.337Z</time></trkpt><trkpt lat="43.6041433" lon="11.307705"><ele>212.33333333333331</ele><time>2026-04-30T08:06:14.336Z</time></trkpt><trkpt lat="43.60415" lon="11.3079433"><ele>214.0</ele><time>2026-04-30T08:06:15.337Z</time></trkpt><trkpt lat="43.6041483" lon="11.3081483"><ele>214.5</ele><time>2026-04-30T08:06:16.337Z</time></trkpt><trkpt lat="43.604125" lon="11.308345"><ele>215.0</ele><time>2026-04-30T08:06:17.337Z</time></trkpt><trkpt lat="43.604085" lon="11.3085383"><ele>215.5</ele><time>2026-04-30T08:06:18.337Z</time></trkpt><trkpt lat="43.6040233" lon="11.3087283"><ele>216.0</ele><time>2026-04-30T08:06:19.336Z</time></trkpt><trkpt lat="43.6039483" lon="11.3088933"><ele>216.0</ele><time>2026-04-30T08:06:20.336Z</time></trkpt><trkpt lat="43.6038583" lon="11.3090483"><ele>216.0</ele><time>2026-04-30T08:06:21.336Z</time></trkpt><trkpt lat="43.60375" lon="11.3091833"><ele>216.0</ele><time>2026-04-30T08:06:22.337Z</time></trkpt><trkpt lat="43.6036267" lon="11.3092917"><ele>216.0</ele><time>2026-04-30T08:06:23.336Z</time></trkpt><trkpt lat="43.6035" lon="11.3093817"><ele>215.25</ele><time>2026-04-30T08:06:24.337Z</time></trkpt><trkpt lat="43.60337" lon="11.3094583"><ele>214.5</ele><time>2026-04-30T08:06:25.337Z</time></trkpt><trkpt lat="43.6032517" lon="11.3095317"><ele>213.75</ele><time>2026-04-30T08:06:26.336Z</time></trkpt><trkpt lat="43.6031317" lon="11.30961"><ele>213.0</ele><time>2026-04-30T08:06:27.337Z</time></trkpt><trkpt lat="43.60302" lon="11.3096883"><ele>213.25</ele><time>2026-04-30T08:06:28.337Z</time></trkpt><trkpt lat="43.6028967" lon="11.309745"><ele>213.5</ele><time>2026-04-30T08:06:29.337Z</time></trkpt><trkpt lat="43.602775" lon="11.3098067"><ele>213.75</ele><time>2026-04-30T08:06:30.336Z</time></trkpt><trkpt lat="43.6026583" lon="11.3098683"><ele>214.0</ele><time>2026-04-30T08:06:31.337Z</time></trkpt><trkpt lat="43.6025383" lon="11.3099283"><ele>214.0</ele><time>2026-04-30T08:06:32.337Z</time></trkpt><trkpt lat="43.60241" lon="11.3099933"><ele>214.0</ele><time>2026-04-30T08:06:33.337Z</time></trkpt><trkpt lat="43.6022867" lon="11.3100583"><ele>214.0</ele><time>2026-04-30T08:06:34.337Z</time></trkpt><trkpt lat="43.60216" lon="11.3101283"><ele>214.0</ele><time>2026-04-30T08:06:35.337Z</time></trkpt><trkpt lat="43.602035" lon="11.31021"><ele>213.5</ele><time>2026-04-30T08:06:36.336Z</time></trkpt><trkpt lat="43.6019167" lon="11.3102917"><ele>213.0</ele><time>2026-04-30T08:06:37.336Z</time></trkpt><trkpt lat="43.601785" lon="11.3103567"><ele>212.5</ele><time>2026-04-30T08:06:38.336Z</time></trkpt><trkpt lat="43.60165" lon="11.3104267"><ele>212.0</ele><time>2026-04-30T08:06:39.336Z</time></trkpt><trkpt lat="43.6015267" lon="11.3104867"><ele>212.0</ele><time>2026-04-30T08:06:40.337Z</time></trkpt><trkpt lat="43.6014067" lon="11.3105517"><ele>212.0</ele><time>2026-04-30T08:06:41.336Z</time></trkpt><trkpt lat="43.60128" lon="11.3106233"><ele>212.0</ele><time>2026-04-30T08:06:42.337Z</time></trkpt><trkpt lat="43.6011567" lon="11.310695"><ele>212.0</ele><time>2026-04-30T08:06:43.336Z</time></trkpt><trkpt lat="43.6010333" lon="11.31078"><ele>212.75</ele><time>2026-04-30T08:06:44.336Z</time></trkpt><trkpt lat="43.6009183" lon="11.310885"><ele>213.5</ele><time>2026-04-30T08:06:45.337Z</time></trkpt><trkpt lat="43.6008133" lon="11.31101"><ele>214.25</ele><time>2026-04-30T08:06:46.337Z</time></trkpt><trkpt lat="43.600715" lon="11.3111467"><ele>215.0</ele><time>2026-04-30T08:06:47.337Z</time></trkpt><trkpt lat="43.6006217" lon="11.3112983"><ele>214.5</ele><time>2026-04-30T08:06:48.337Z</time></trkpt><trkpt lat="43.6005333" lon="11.3114567"><ele>214.0</ele><time>2026-04-30T08:06:49.337Z</time></trkpt><trkpt lat="43.6004467" lon="11.3115967"><ele>213.5</ele><time>2026-04-30T08:06:50.337Z</time></trkpt><trkpt lat="43.6003717" lon="11.3117433"><ele>213.0</ele><time>2026-04-30T08:06:51.336Z</time></trkpt><trkpt lat="43.6002983" lon="11.311885"><ele>213.0</ele><time>2026-04-30T08:06:52.337Z</time></trkpt><trkpt lat="43.6002217" lon="11.3120333"><ele>213.0</ele><time>2026-04-30T08:06:53.337Z</time></trkpt><trkpt lat="43.600145" lon="11.31218"><ele>213.0</ele><time>2026-04-30T08:06:54.337Z</time></trkpt><trkpt lat="43.6000633" lon="11.3123283"><ele>213.0</ele><time>2026-04-30T08:06:55.337Z</time></trkpt><trkpt lat="43.599985" lon="11.3124667"><ele>213.0</ele><time>2026-04-30T08:06:56.336Z</time></trkpt><trkpt lat="43.599905" lon="11.3126083"><ele>213.0</ele><time>2026-04-30T08:06:57.337Z</time></trkpt><trkpt lat="43.5998267" lon="11.3127633"><ele>213.0</ele><time>2026-04-30T08:06:58.337Z</time></trkpt><trkpt lat="43.5997467" lon="11.3129083"><ele>213.0</ele><time>2026-04-30T08:06:59.337Z</time></trkpt><trkpt lat="43.5996633" lon="11.313055"><ele>213.25</ele><time>2026-04-30T08:07:00.336Z</time></trkpt><trkpt lat="43.5995783" lon="11.3132"><ele>213.5</ele><time>2026-04-30T08:07:01.337Z</time></trkpt><trkpt lat="43.5994933" lon="11.3133517"><ele>213.75</ele><time>2026-04-30T08:07:02.337Z</time></trkpt><trkpt lat="43.5994117" lon="11.3135117"><ele>214.0</ele><time>2026-04-30T08:07:03.337Z</time></trkpt><trkpt lat="43.5993167" lon="11.3136683"><ele>214.0</ele><time>2026-04-30T08:07:04.337Z</time></trkpt><trkpt lat="43.59923" lon="11.3138217"><ele>214.0</ele><time>2026-04-30T08:07:05.337Z</time></trkpt><trkpt lat="43.5991483" lon="11.3139783"><ele>214.0</ele><time>2026-04-30T08:07:06.336Z</time></trkpt><trkpt lat="43.599065" lon="11.314135"><ele>214.0</ele><time>2026-04-30T08:07:07.337Z</time></trkpt><trkpt lat="43.5989883" lon="11.3142767"><ele>214.5</ele><time>2026-04-30T08:07:08.337Z</time></trkpt><trkpt lat="43.5989067" lon="11.3144233"><ele>215.0</ele><time>2026-04-30T08:07:09.337Z</time></trkpt><trkpt lat="43.5988233" lon="11.314575"><ele>215.5</ele><time>2026-04-30T08:07:10.336Z</time></trkpt><trkpt lat="43.5987417" lon="11.3147317"><ele>216.0</ele><time>2026-04-30T08:07:11.337Z</time></trkpt><trkpt lat="43.59865" lon="11.314895"><ele>216.0</ele><time>2026-04-30T08:07:12.337Z</time></trkpt><trkpt lat="43.5985633" lon="11.315055"><ele>216.0</ele><time>2026-04-30T08:07:13.337Z</time></trkpt><trkpt lat="43.59847" lon="11.3152217"><ele>216.0</ele><time>2026-04-30T08:07:14.337Z</time></trkpt><trkpt lat="43.59838" lon="11.3153833"><ele>216.0</ele><time>2026-04-30T08:07:15.337Z</time></trkpt><trkpt lat="43.5983" lon="11.3155367"><ele>217.0</ele><time>2026-04-30T08:07:16.337Z</time></trkpt><trkpt lat="43.5982183" lon="11.315695"><ele>218.0</ele><time>2026-04-30T08:07:17.337Z</time></trkpt><trkpt lat="43.598135" lon="11.31584"><ele>219.0</ele><time>2026-04-30T08:07:18.336Z</time></trkpt><trkpt lat="43.5980483" lon="11.3159933"><ele>220.0</ele><time>2026-04-30T08:07:19.337Z</time></trkpt><trkpt lat="43.597945" lon="11.316125"><ele>220.0</ele><time>2026-04-30T08:07:20.336Z</time></trkpt><trkpt lat="43.597835" lon="11.31624"><ele>220.0</ele><time>2026-04-30T08:07:21.337Z</time></trkpt><trkpt lat="43.5977017" lon="11.31635"><ele>220.0</ele><time>2026-04-30T08:07:22.336Z</time></trkpt><trkpt lat="43.5975583" lon="11.3164583"><ele>220.0</ele><time>2026-04-30T08:07:23.336Z</time></trkpt><trkpt lat="43.5974117" lon="11.3165583"><ele>220.0</ele><time>2026-04-30T08:07:24.337Z</time></trkpt><trkpt lat="43.5972683" lon="11.316655"><ele>220.0</ele><time>2026-04-30T08:07:25.337Z</time></trkpt><trkpt lat="43.5971317" lon="11.3167467"><ele>219.5</ele><time>2026-04-30T08:07:26.336Z</time></trkpt><trkpt lat="43.5969917" lon="11.3168317"><ele>219.0</ele><time>2026-04-30T08:07:27.337Z</time></trkpt><trkpt lat="43.59686" lon="11.31689"><ele>218.5</ele><time>2026-04-30T08:07:28.336Z</time></trkpt><trkpt lat="43.596715" lon="11.3169283"><ele>218.0</ele><time>2026-04-30T08:07:29.337Z</time></trkpt><trkpt lat="43.5965683" lon="11.3169433"><ele>218.0</ele><time>2026-04-30T08:07:30.337Z</time></trkpt><trkpt lat="43.5964133" lon="11.3169333"><ele>218.0</ele><time>2026-04-30T08:07:31.337Z</time></trkpt><trkpt lat="43.5962567" lon="11.3169183"><ele>218.0</ele><time>2026-04-30T08:07:32.337Z</time></trkpt><trkpt lat="43.5960933" lon="11.31688"><ele>218.0</ele><time>2026-04-30T08:07:33.336Z</time></trkpt><trkpt lat="43.595935" lon="11.316825"><ele>218.0</ele><time>2026-04-30T08:07:34.337Z</time></trkpt><trkpt lat="43.5957767" lon="11.3167733"><ele>218.0</ele><time>2026-04-30T08:07:35.336Z</time></trkpt><trkpt lat="43.5956133" lon="11.3167183"><ele>218.0</ele><time>2026-04-30T08:07:36.337Z</time></trkpt><trkpt lat="43.59546" lon="11.3166783"><ele>218.0</ele><time>2026-04-30T08:07:37.337Z</time></trkpt><trkpt lat="43.5953" lon="11.3166533"><ele>218.0</ele><time>2026-04-30T08:07:38.337Z</time></trkpt><trkpt lat="43.5951383" lon="11.3166467"><ele>219.33333333333334</ele><time>2026-04-30T08:07:39.337Z</time></trkpt><trkpt lat="43.5949867" lon="11.316665"><ele>220.66666666666669</ele><time>2026-04-30T08:07:40.336Z</time></trkpt><trkpt lat="43.5948317" lon="11.3166833"><ele>222.0</ele><time>2026-04-30T08:07:41.337Z</time></trkpt><trkpt lat="43.5946833" lon="11.3166683"><ele>222.0</ele><time>2026-04-30T08:07:42.336Z</time></trkpt><trkpt lat="43.5945367" lon="11.316625"><ele>222.0</ele><time>2026-04-30T08:07:43.337Z</time></trkpt><trkpt lat="43.5943917" lon="11.31653"><ele>222.0</ele><time>2026-04-30T08:07:44.337Z</time></trkpt><trkpt lat="43.59425" lon="11.3164467"><ele>221.5</ele><time>2026-04-30T08:07:45.337Z</time></trkpt><trkpt lat="43.5941217" lon="11.3163617"><ele>221.0</ele><time>2026-04-30T08:07:46.337Z</time></trkpt><trkpt lat="43.594" lon="11.3162733"><ele>220.5</ele><time>2026-04-30T08:07:47.336Z</time></trkpt><trkpt lat="43.5938867" lon="11.3161867"><ele>220.0</ele><time>2026-04-30T08:07:48.337Z</time></trkpt><trkpt lat="43.5937683" lon="11.3161017"><ele>221.0</ele><time>2026-04-30T08:07:49.337Z</time></trkpt><trkpt lat="43.593645" lon="11.31602"><ele>222.0</ele><time>2026-04-30T08:07:50.337Z</time></trkpt><trkpt lat="43.5935217" lon="11.315945"><ele>223.0</ele><time>2026-04-30T08:07:51.337Z</time></trkpt><trkpt lat="43.5934033" lon="11.3158733"><ele>224.0</ele><time>2026-04-30T08:07:52.336Z</time></trkpt><trkpt lat="43.5932717" lon="11.3158067"><ele>224.0</ele><time>2026-04-30T08:07:53.337Z</time></trkpt><trkpt lat="43.59315" lon="11.3157483"><ele>224.0</ele><time>2026-04-30T08:07:54.337Z</time></trkpt><trkpt lat="43.59303" lon="11.3157017"><ele>224.0</ele><time>2026-04-30T08:07:55.337Z</time></trkpt><trkpt lat="43.5929267" lon="11.3156517"><ele>224.0</ele><time>2026-04-30T08:07:56.337Z</time></trkpt><trkpt lat="43.592835" lon="11.3156083"><ele>223.50000000000003</ele><time>2026-04-30T08:07:57.336Z</time></trkpt><trkpt lat="43.5927467" lon="11.3155633"><ele>223.0</ele><time>2026-04-30T08:07:58.337Z</time></trkpt><trkpt lat="43.5926567" lon="11.3155233"><ele>222.5</ele><time>2026-04-30T08:07:59.337Z</time></trkpt><trkpt lat="43.5925767" lon="11.31548"><ele>222.0</ele><time>2026-04-30T08:08:00.337Z</time></trkpt><trkpt lat="43.5925067" lon="11.3154367"><ele>221.50000000000003</ele><time>2026-04-30T08:08:01.337Z</time></trkpt><trkpt lat="43.5924433" lon="11.315395"><ele>221.0</ele><time>2026-04-30T08:08:02.337Z</time></trkpt><trkpt lat="43.592375" lon="11.3153567"><ele>221.00000000000003</ele><time>2026-04-30T08:08:03.337Z</time></trkpt><trkpt lat="43.5923167" lon="11.3153083"><ele>221.0</ele><time>2026-04-30T08:08:04.337Z</time></trkpt><trkpt lat="43.5922567" lon="11.315255"><ele>221.0</ele><time>2026-04-30T08:08:05.337Z</time></trkpt><trkpt lat="43.5922" lon="11.3152083"><ele>221.0</ele><time>2026-04-30T08:08:06.337Z</time></trkpt><trkpt lat="43.5921167" lon="11.3150883"><ele>221.00000000000003</ele><time>2026-04-30T08:08:08.337Z</time></trkpt><trkpt lat="43.592065" lon="11.315035"><ele>221.0</ele><time>2026-04-30T08:08:09.336Z</time></trkpt><trkpt lat="43.5920017" lon="11.3150033"><ele>221.14285714285717</ele><time>2026-04-30T08:08:10.336Z</time></trkpt><trkpt lat="43.59193" lon="11.3149867"><ele>221.28571428571428</ele><time>2026-04-30T08:08:11.337Z</time></trkpt><trkpt lat="43.591865" lon="11.314975"><ele>221.42857142857144</ele><time>2026-04-30T08:08:12.337Z</time></trkpt><trkpt lat="43.5917967" lon="11.31495"><ele>221.57142857142858</ele><time>2026-04-30T08:08:13.337Z</time></trkpt><trkpt lat="43.5917333" lon="11.3149083"><ele>221.71428571428572</ele><time>2026-04-30T08:08:14.336Z</time></trkpt><trkpt lat="43.5916633" lon="11.3148617"><ele>221.85714285714286</ele><time>2026-04-30T08:08:15.337Z</time></trkpt><trkpt lat="43.5915833" lon="11.3148083"><ele>222.0</ele><time>2026-04-30T08:08:16.337Z</time></trkpt><trkpt lat="43.5914983" lon="11.3147533"><ele>222.0</ele><time>2026-04-30T08:08:17.337Z</time></trkpt><trkpt lat="43.59141" lon="11.3146917"><ele>222.0</ele><time>2026-04-30T08:08:18.337Z</time></trkpt><trkpt lat="43.59132" lon="11.3146367"><ele>222.0</ele><time>2026-04-30T08:08:19.337Z</time></trkpt><trkpt lat="43.59122" lon="11.3145967"><ele>222.0</ele><time>2026-04-30T08:08:20.336Z</time></trkpt><trkpt lat="43.5911117" lon="11.3145583"><ele>222.0</ele><time>2026-04-30T08:08:21.337Z</time></trkpt><trkpt lat="43.5910033" lon="11.3145183"><ele>222.0</ele><time>2026-04-30T08:08:22.337Z</time></trkpt><trkpt lat="43.5908833" lon="11.3144767"><ele>222.0</ele><time>2026-04-30T08:08:23.337Z</time></trkpt><trkpt lat="43.5907633" lon="11.31444"><ele>222.0</ele><time>2026-04-30T08:08:24.337Z</time></trkpt><trkpt lat="43.59064" lon="11.3144183"><ele>222.0</ele><time>2026-04-30T08:08:25.336Z</time></trkpt><trkpt lat="43.5905167" lon="11.3144033"><ele>222.0</ele><time>2026-04-30T08:08:26.337Z</time></trkpt><trkpt lat="43.5903983" lon="11.314395"><ele>222.0</ele><time>2026-04-30T08:08:27.337Z</time></trkpt><trkpt lat="43.59029" lon="11.3144033"><ele>222.0</ele><time>2026-04-30T08:08:28.337Z</time></trkpt><trkpt lat="43.59019" lon="11.3144117"><ele>222.0</ele><time>2026-04-30T08:08:29.336Z</time></trkpt><trkpt lat="43.590095" lon="11.314425"><ele>222.0</ele><time>2026-04-30T08:08:30.337Z</time></trkpt><trkpt lat="43.59" lon="11.31444"><ele>222.16666666666666</ele><time>2026-04-30T08:08:31.337Z</time></trkpt><trkpt lat="43.5899083" lon="11.31446"><ele>222.33333333333331</ele><time>2026-04-30T08:08:32.337Z</time></trkpt><trkpt lat="43.5898233" lon="11.3144717"><ele>222.5</ele><time>2026-04-30T08:08:33.336Z</time></trkpt><trkpt lat="43.5897367" lon="11.3144883"><ele>222.66666666666666</ele><time>2026-04-30T08:08:34.337Z</time></trkpt><trkpt lat="43.5896483" lon="11.3145117"><ele>222.83333333333331</ele><time>2026-04-30T08:08:35.337Z</time></trkpt><trkpt lat="43.5895583" lon="11.314525"><ele>223.0</ele><time>2026-04-30T08:08:36.336Z</time></trkpt><trkpt lat="43.5894717" lon="11.3145383"><ele>223.4</ele><time>2026-04-30T08:08:37.337Z</time></trkpt><trkpt lat="43.5893867" lon="11.3145633"><ele>223.8</ele><time>2026-04-30T08:08:38.337Z</time></trkpt><trkpt lat="43.5893033" lon="11.314585"><ele>224.2</ele><time>2026-04-30T08:08:39.337Z</time></trkpt><trkpt lat="43.5892133" lon="11.314605"><ele>224.6</ele><time>2026-04-30T08:08:40.337Z</time></trkpt><trkpt lat="43.58912" lon="11.314625"><ele>225.0</ele><time>2026-04-30T08:08:41.337Z</time></trkpt><trkpt lat="43.5890267" lon="11.3146317"><ele>225.0</ele><time>2026-04-30T08:08:42.337Z</time></trkpt><trkpt lat="43.5889383" lon="11.3146433"><ele>225.0</ele><time>2026-04-30T08:08:43.337Z</time></trkpt><trkpt lat="43.588835" lon="11.314665"><ele>225.0</ele><time>2026-04-30T08:08:44.336Z</time></trkpt><trkpt lat="43.58873" lon="11.3146733"><ele>225.0</ele><time>2026-04-30T08:08:45.336Z</time></trkpt><trkpt lat="43.58863" lon="11.3147033"><ele>225.0</ele><time>2026-04-30T08:08:46.336Z</time></trkpt><trkpt lat="43.5885317" lon="11.3147083"><ele>225.2</ele><time>2026-04-30T08:08:47.337Z</time></trkpt><trkpt lat="43.58843" lon="11.3147233"><ele>225.4</ele><time>2026-04-30T08:08:48.337Z</time></trkpt><trkpt lat="43.5883283" lon="11.3147433"><ele>225.60000000000002</ele><time>2026-04-30T08:08:49.337Z</time></trkpt><trkpt lat="43.5882217" lon="11.31476"><ele>225.8</ele><time>2026-04-30T08:08:50.336Z</time></trkpt><trkpt lat="43.5881233" lon="11.3147767"><ele>226.0</ele><time>2026-04-30T08:08:51.337Z</time></trkpt><trkpt lat="43.58803" lon="11.3147967"><ele>226.16666666666666</ele><time>2026-04-30T08:08:52.337Z</time></trkpt><trkpt lat="43.5879433" lon="11.314815"><ele>226.33333333333331</ele><time>2026-04-30T08:08:53.336Z</time></trkpt><trkpt lat="43.5878583" lon="11.314835"><ele>226.5</ele><time>2026-04-30T08:08:54.337Z</time></trkpt><trkpt lat="43.5877767" lon="11.314845"><ele>226.66666666666669</ele><time>2026-04-30T08:08:55.337Z</time></trkpt><trkpt lat="43.587695" lon="11.3148717"><ele>226.83333333333334</ele><time>2026-04-30T08:08:56.337Z</time></trkpt><trkpt lat="43.5876183" lon="11.31489"><ele>227.0</ele><time>2026-04-30T08:08:57.336Z</time></trkpt><trkpt lat="43.58753" lon="11.3149017"><ele>227.00000000000003</ele><time>2026-04-30T08:08:58.337Z</time></trkpt><trkpt lat="43.587445" lon="11.3149117"><ele>227.0</ele><time>2026-04-30T08:08:59.337Z</time></trkpt><trkpt lat="43.5873717" lon="11.3149283"><ele>227.0</ele><time>2026-04-30T08:09:00.337Z</time></trkpt><trkpt lat="43.587295" lon="11.3149533"><ele>227.0</ele><time>2026-04-30T08:09:01.337Z</time></trkpt><trkpt lat="43.587215" lon="11.3149583"><ele>227.00000000000003</ele><time>2026-04-30T08:09:02.337Z</time></trkpt><trkpt lat="43.5871433" lon="11.31497"><ele>227.0</ele><time>2026-04-30T08:09:03.336Z</time></trkpt><trkpt lat="43.587075" lon="11.314985"><ele>227.2</ele><time>2026-04-30T08:09:04.337Z</time></trkpt><trkpt lat="43.58701" lon="11.3150083"><ele>227.39999999999998</ele><time>2026-04-30T08:09:05.336Z</time></trkpt><trkpt lat="43.5868933" lon="11.3150583"><ele>227.60000000000002</ele><time>2026-04-30T08:09:07.337Z</time></trkpt><trkpt lat="43.5868233" lon="11.3150717"><ele>227.8</ele><time>2026-04-30T08:09:08.336Z</time></trkpt><trkpt lat="43.5866967" lon="11.3150917"><ele>228.0</ele><time>2026-04-30T08:09:10.337Z</time></trkpt><trkpt lat="43.5865767" lon="11.3151067"><ele>228.0</ele><time>2026-04-30T08:09:12.337Z</time></trkpt><trkpt lat="43.5865067" lon="11.3151067"><ele>228.0</ele><time>2026-04-30T08:09:13.337Z</time></trkpt><trkpt lat="43.5864333" lon="11.315125"><ele>228.0</ele><time>2026-04-30T08:09:14.337Z</time></trkpt><trkpt lat="43.58635" lon="11.31515"><ele>228.0</ele><time>2026-04-30T08:09:15.337Z</time></trkpt><trkpt lat="43.586255" lon="11.315165"><ele>228.0</ele><time>2026-04-30T08:09:16.337Z</time></trkpt><trkpt lat="43.586155" lon="11.31518"><ele>228.0</ele><time>2026-04-30T08:09:17.336Z</time></trkpt><trkpt lat="43.5860583" lon="11.3152017"><ele>228.0</ele><time>2026-04-30T08:09:18.336Z</time></trkpt><trkpt lat="43.58596" lon="11.315215"><ele>228.0</ele><time>2026-04-30T08:09:19.337Z</time></trkpt><trkpt lat="43.5858717" lon="11.3152283"><ele>228.0</ele><time>2026-04-30T08:09:20.337Z</time></trkpt><trkpt lat="43.5857883" lon="11.315235"><ele>228.0</ele><time>2026-04-30T08:09:21.337Z</time></trkpt><trkpt lat="43.5857017" lon="11.3152417"><ele>228.0</ele><time>2026-04-30T08:09:22.336Z</time></trkpt><trkpt lat="43.5855983" lon="11.315265"><ele>228.0</ele><time>2026-04-30T08:09:23.337Z</time></trkpt><trkpt lat="43.58548" lon="11.3152867"><ele>228.0</ele><time>2026-04-30T08:09:24.336Z</time></trkpt><trkpt lat="43.5853517" lon="11.31531"><ele>228.0</ele><time>2026-04-30T08:09:25.337Z</time></trkpt><trkpt lat="43.58522" lon="11.3153283"><ele>228.0</ele><time>2026-04-30T08:09:26.337Z</time></trkpt><trkpt lat="43.5850917" lon="11.3153533"><ele>228.5</ele><time>2026-04-30T08:09:27.337Z</time></trkpt><trkpt lat="43.5849633" lon="11.3153883"><ele>229.0</ele><time>2026-04-30T08:09:28.336Z</time></trkpt><trkpt lat="43.5848333" lon="11.315425"><ele>229.5</ele><time>2026-04-30T08:09:29.337Z</time></trkpt><trkpt lat="43.5847167" lon="11.3154667"><ele>230.0</ele><time>2026-04-30T08:09:30.336Z</time></trkpt><trkpt lat="43.5845917" lon="11.3155033"><ele>230.2</ele><time>2026-04-30T08:09:31.337Z</time></trkpt><trkpt lat="43.58447" lon="11.3155383"><ele>230.4</ele><time>2026-04-30T08:09:32.337Z</time></trkpt><trkpt lat="43.5843583" lon="11.3155867"><ele>230.60000000000002</ele><time>2026-04-30T08:09:33.336Z</time></trkpt><trkpt lat="43.5842583" lon="11.3156417"><ele>230.8</ele><time>2026-04-30T08:09:34.337Z</time></trkpt><trkpt lat="43.584175" lon="11.3157117"><ele>231.0</ele><time>2026-04-30T08:09:35.337Z</time></trkpt><trkpt lat="43.5841067" lon="11.3157883"><ele>231.0</ele><time>2026-04-30T08:09:36.336Z</time></trkpt><trkpt lat="43.5840517" lon="11.31589"><ele>231.00000000000003</ele><time>2026-04-30T08:09:37.336Z</time></trkpt><trkpt lat="43.5839983" lon="11.3160167"><ele>231.00000000000003</ele><time>2026-04-30T08:09:38.337Z</time></trkpt><trkpt lat="43.58395" lon="11.3161467"><ele>231.0</ele><time>2026-04-30T08:09:39.336Z</time></trkpt><trkpt lat="43.5838983" lon="11.31625"><ele>231.0</ele><time>2026-04-30T08:09:40.336Z</time></trkpt><trkpt lat="43.583855" lon="11.3163467"><ele>230.83333333333334</ele><time>2026-04-30T08:09:41.337Z</time></trkpt><trkpt lat="43.5838133" lon="11.31645"><ele>230.66666666666669</ele><time>2026-04-30T08:09:42.336Z</time></trkpt><trkpt lat="43.5837783" lon="11.3165433"><ele>230.5</ele><time>2026-04-30T08:09:43.336Z</time></trkpt><trkpt lat="43.5837467" lon="11.3166267"><ele>230.33333333333334</ele><time>2026-04-30T08:09:44.337Z</time></trkpt><trkpt lat="43.58371" lon="11.3167067"><ele>230.16666666666669</ele><time>2026-04-30T08:09:45.336Z</time></trkpt><trkpt lat="43.5836567" lon="11.3168367"><ele>230.0</ele><time>2026-04-30T08:09:47.336Z</time></trkpt><trkpt lat="43.5835833" lon="11.316955"><ele>230.66666666666669</ele><time>2026-04-30T08:09:49.336Z</time></trkpt><trkpt lat="43.583545" lon="11.3170367"><ele>231.33333333333334</ele><time>2026-04-30T08:09:50.337Z</time></trkpt><trkpt lat="43.5834967" lon="11.3171083"><ele>232.0</ele><time>2026-04-30T08:09:51.337Z</time></trkpt><trkpt lat="43.5834483" lon="11.3171883"><ele>232.66666666666669</ele><time>2026-04-30T08:09:52.337Z</time></trkpt><trkpt lat="43.583395" lon="11.3172767"><ele>233.33333333333334</ele><time>2026-04-30T08:09:53.337Z</time></trkpt><trkpt lat="43.5833317" lon="11.3173567"><ele>234.0</ele><time>2026-04-30T08:09:54.337Z</time></trkpt><trkpt lat="43.583285" lon="11.317425"><ele>234.0</ele><time>2026-04-30T08:09:55.337Z</time></trkpt><trkpt lat="43.5832117" lon="11.3175067"><ele>233.99999999999997</ele><time>2026-04-30T08:09:57.337Z</time></trkpt><trkpt lat="43.5831633" lon="11.3175633"><ele>233.99999999999997</ele><time>2026-04-30T08:09:59.336Z</time></trkpt><trkpt lat="43.5830883" lon="11.317605"><ele>234.0</ele><time>2026-04-30T08:10:33.336Z</time></trkpt><trkpt lat="43.58297" lon="11.317655"><ele>234.0</ele><time>2026-04-30T08:10:35.337Z</time></trkpt><trkpt lat="43.582885" lon="11.3176883"><ele>234.39999999999998</ele><time>2026-04-30T08:10:36.337Z</time></trkpt><trkpt lat="43.5828017" lon="11.31773"><ele>234.79999999999998</ele><time>2026-04-30T08:10:37.337Z</time></trkpt><trkpt lat="43.582705" lon="11.317765"><ele>235.20000000000002</ele><time>2026-04-30T08:10:38.336Z</time></trkpt><trkpt lat="43.5826067" lon="11.3178033"><ele>235.60000000000002</ele><time>2026-04-30T08:10:39.336Z</time></trkpt><trkpt lat="43.5825067" lon="11.3178467"><ele>236.0</ele><time>2026-04-30T08:10:40.336Z</time></trkpt><trkpt lat="43.5823967" lon="11.3179017"><ele>236.0</ele><time>2026-04-30T08:10:41.337Z</time></trkpt><trkpt lat="43.5822833" lon="11.31795"><ele>236.0</ele><time>2026-04-30T08:10:42.337Z</time></trkpt><trkpt lat="43.5821717" lon="11.3179733"><ele>236.0</ele><time>2026-04-30T08:10:43.337Z</time></trkpt><trkpt lat="43.5820617" lon="11.3179733"><ele>236.0</ele><time>2026-04-30T08:10:44.336Z</time></trkpt><trkpt lat="43.5819383" lon="11.31796"><ele>236.60000000000002</ele><time>2026-04-30T08:10:45.337Z</time></trkpt><trkpt lat="43.5818367" lon="11.3179333"><ele>237.20000000000002</ele><time>2026-04-30T08:10:46.336Z</time></trkpt><trkpt lat="43.5817333" lon="11.31791"><ele>237.79999999999998</ele><time>2026-04-30T08:10:47.336Z</time></trkpt><trkpt lat="43.5816317" lon="11.3178883"><ele>238.39999999999998</ele><time>2026-04-30T08:10:48.337Z</time></trkpt><trkpt lat="43.5815283" lon="11.3178867"><ele>239.0</ele><time>2026-04-30T08:10:49.336Z</time></trkpt><trkpt lat="43.5814067" lon="11.3179033"><ele>239.0</ele><time>2026-04-30T08:10:50.337Z</time></trkpt><trkpt lat="43.5812967" lon="11.3179233"><ele>238.99999999999997</ele><time>2026-04-30T08:10:51.337Z</time></trkpt><trkpt lat="43.581185" lon="11.31794"><ele>238.99999999999997</ele><time>2026-04-30T08:10:52.337Z</time></trkpt><trkpt lat="43.5810783" lon="11.3179333"><ele>239.0</ele><time>2026-04-30T08:10:53.336Z</time></trkpt><trkpt lat="43.5809817" lon="11.3179133"><ele>239.0</ele><time>2026-04-30T08:10:54.336Z</time></trkpt><trkpt lat="43.5808717" lon="11.3178533"><ele>238.5</ele><time>2026-04-30T08:10:55.336Z</time></trkpt><trkpt lat="43.58076" lon="11.3177583"><ele>238.0</ele><time>2026-04-30T08:10:56.336Z</time></trkpt><trkpt lat="43.5806417" lon="11.3176467"><ele>237.5</ele><time>2026-04-30T08:10:57.337Z</time></trkpt><trkpt lat="43.5805283" lon="11.3175467"><ele>237.0</ele><time>2026-04-30T08:10:58.336Z</time></trkpt><trkpt lat="43.58041" lon="11.31745"><ele>236.75</ele><time>2026-04-30T08:10:59.336Z</time></trkpt><trkpt lat="43.5802967" lon="11.3173483"><ele>236.5</ele><time>2026-04-30T08:11:00.337Z</time></trkpt><trkpt lat="43.5802067" lon="11.3172133"><ele>236.25</ele><time>2026-04-30T08:11:01.336Z</time></trkpt><trkpt lat="43.5800983" lon="11.317115"><ele>236.0</ele><time>2026-04-30T08:11:02.336Z</time></trkpt><trkpt lat="43.579985" lon="11.317035"><ele>236.75</ele><time>2026-04-30T08:11:03.337Z</time></trkpt><trkpt lat="43.5798483" lon="11.316985"><ele>237.5</ele><time>2026-04-30T08:11:04.337Z</time></trkpt><trkpt lat="43.5797017" lon="11.3169433"><ele>238.25</ele><time>2026-04-30T08:11:05.337Z</time></trkpt><trkpt lat="43.579575" lon="11.3168817"><ele>239.0</ele><time>2026-04-30T08:11:06.337Z</time></trkpt><trkpt lat="43.57945" lon="11.3168433"><ele>239.0</ele><time>2026-04-30T08:11:07.337Z</time></trkpt><trkpt lat="43.57932" lon="11.3167967"><ele>239.0</ele><time>2026-04-30T08:11:08.337Z</time></trkpt><trkpt lat="43.5791967" lon="11.31674"><ele>239.0</ele><time>2026-04-30T08:11:09.337Z</time></trkpt><trkpt lat="43.57906" lon="11.316675"><ele>239.0</ele><time>2026-04-30T08:11:10.336Z</time></trkpt><trkpt lat="43.5789083" lon="11.3166183"><ele>239.0</ele><time>2026-04-30T08:11:11.337Z</time></trkpt><trkpt lat="43.57874" lon="11.316575"><ele>239.0</ele><time>2026-04-30T08:11:12.337Z</time></trkpt><trkpt lat="43.5785717" lon="11.3165467"><ele>239.0</ele><time>2026-04-30T08:11:13.337Z</time></trkpt><trkpt lat="43.5784183" lon="11.31655"><ele>239.33333333333334</ele><time>2026-04-30T08:11:14.337Z</time></trkpt><trkpt lat="43.5782533" lon="11.31658"><ele>239.66666666666669</ele><time>2026-04-30T08:11:15.337Z</time></trkpt><trkpt lat="43.5780883" lon="11.3166267"><ele>240.0</ele><time>2026-04-30T08:11:16.337Z</time></trkpt><trkpt lat="43.5779117" lon="11.3166867"><ele>241.33333333333331</ele><time>2026-04-30T08:11:17.337Z</time></trkpt><trkpt lat="43.577735" lon="11.31674"><ele>242.66666666666666</ele><time>2026-04-30T08:11:18.337Z</time></trkpt><trkpt lat="43.5775567" lon="11.3168067"><ele>244.0</ele><time>2026-04-30T08:11:19.336Z</time></trkpt><trkpt lat="43.5773833" lon="11.316875"><ele>244.0</ele><time>2026-04-30T08:11:20.336Z</time></trkpt><trkpt lat="43.5772033" lon="11.3169333"><ele>244.0</ele><time>2026-04-30T08:11:21.336Z</time></trkpt><trkpt lat="43.577035" lon="11.31701"><ele>244.0</ele><time>2026-04-30T08:11:22.336Z</time></trkpt><trkpt lat="43.5768583" lon="11.3170867"><ele>242.66666666666666</ele><time>2026-04-30T08:11:23.337Z</time></trkpt><trkpt lat="43.57669" lon="11.3171667"><ele>241.33333333333331</ele><time>2026-04-30T08:11:24.337Z</time></trkpt><trkpt lat="43.57652" lon="11.3172517"><ele>240.0</ele><time>2026-04-30T08:11:25.336Z</time></trkpt><trkpt lat="43.5763483" lon="11.31735"><ele>240.0</ele><time>2026-04-30T08:11:26.337Z</time></trkpt><trkpt lat="43.5761917" lon="11.3174417"><ele>240.0</ele><time>2026-04-30T08:11:27.337Z</time></trkpt><trkpt lat="43.57603" lon="11.31753"><ele>240.0</ele><time>2026-04-30T08:11:28.337Z</time></trkpt><trkpt lat="43.5758667" lon="11.31762"><ele>241.33333333333331</ele><time>2026-04-30T08:11:29.336Z</time></trkpt><trkpt lat="43.5757017" lon="11.3177"><ele>242.66666666666666</ele><time>2026-04-30T08:11:30.336Z</time></trkpt><trkpt lat="43.5755417" lon="11.3177683"><ele>244.0</ele><time>2026-04-30T08:11:31.337Z</time></trkpt><trkpt lat="43.5753967" lon="11.3178383"><ele>243.66666666666666</ele><time>2026-04-30T08:11:32.337Z</time></trkpt><trkpt lat="43.5752483" lon="11.31791"><ele>243.33333333333331</ele><time>2026-04-30T08:11:33.336Z</time></trkpt><trkpt lat="43.5750983" lon="11.317985"><ele>243.0</ele><time>2026-04-30T08:11:34.336Z</time></trkpt><trkpt lat="43.5749467" lon="11.3180683"><ele>243.0</ele><time>2026-04-30T08:11:35.337Z</time></trkpt><trkpt lat="43.574795" lon="11.31815"><ele>243.0</ele><time>2026-04-30T08:11:36.337Z</time></trkpt><trkpt lat="43.57463" lon="11.3182383"><ele>243.0</ele><time>2026-04-30T08:11:37.337Z</time></trkpt><trkpt lat="43.5744617" lon="11.318325"><ele>248.0</ele><time>2026-04-30T08:11:38.337Z</time></trkpt><trkpt lat="43.5743" lon="11.318405"><ele>253.0</ele><time>2026-04-30T08:11:39.337Z</time></trkpt><trkpt lat="43.5741333" lon="11.3184867"><ele>258.0</ele><time>2026-04-30T08:11:40.337Z</time></trkpt><trkpt lat="43.57397" lon="11.3185717"><ele>258.0</ele><time>2026-04-30T08:11:41.337Z</time></trkpt><trkpt lat="43.5738033" lon="11.3186533"><ele>258.0</ele><time>2026-04-30T08:11:42.337Z</time></trkpt><trkpt lat="43.5736317" lon="11.318735"><ele>258.0</ele><time>2026-04-30T08:11:43.337Z</time></trkpt><trkpt lat="43.57347" lon="11.318805"><ele>255.0</ele><time>2026-04-30T08:11:44.336Z</time></trkpt><trkpt lat="43.5733167" lon="11.3188783"><ele>252.0</ele><time>2026-04-30T08:11:45.337Z</time></trkpt><trkpt lat="43.5731517" lon="11.3189483"><ele>249.0</ele><time>2026-04-30T08:11:46.337Z</time></trkpt><trkpt lat="43.573" lon="11.3190267"><ele>252.0</ele><time>2026-04-30T08:11:47.337Z</time></trkpt><trkpt lat="43.5728417" lon="11.319105"><ele>255.0</ele><time>2026-04-30T08:11:48.337Z</time></trkpt><trkpt lat="43.5726883" lon="11.3191833"><ele>258.0</ele><time>2026-04-30T08:11:49.336Z</time></trkpt><trkpt lat="43.5725333" lon="11.3192633"><ele>258.0</ele><time>2026-04-30T08:11:50.337Z</time></trkpt><trkpt lat="43.5723783" lon="11.3193333"><ele>258.0</ele><time>2026-04-30T08:11:51.336Z</time></trkpt><trkpt lat="43.5722217" lon="11.3194067"><ele>258.0</ele><time>2026-04-30T08:11:52.337Z</time></trkpt><trkpt lat="43.5720667" lon="11.3194917"><ele>261.0</ele><time>2026-04-30T08:11:53.337Z</time></trkpt><trkpt lat="43.5719133" lon="11.319575"><ele>264.0</ele><time>2026-04-30T08:11:54.337Z</time></trkpt><trkpt lat="43.5717633" lon="11.3196467"><ele>267.0</ele><time>2026-04-30T08:11:55.337Z</time></trkpt><trkpt lat="43.5716117" lon="11.3197183"><ele>264.3333333333333</ele><time>2026-04-30T08:11:56.337Z</time></trkpt><trkpt lat="43.57146" lon="11.3198017"><ele>261.66666666666663</ele><time>2026-04-30T08:11:57.336Z</time></trkpt><trkpt lat="43.5713083" lon="11.3198767"><ele>259.0</ele><time>2026-04-30T08:11:58.337Z</time></trkpt><trkpt lat="43.571155" lon="11.3199517"><ele>259.0</ele><time>2026-04-30T08:11:59.337Z</time></trkpt><trkpt lat="43.571005" lon="11.3200167"><ele>259.0</ele><time>2026-04-30T08:12:00.336Z</time></trkpt><trkpt lat="43.570855" lon="11.32009"><ele>259.0</ele><time>2026-04-30T08:12:01.337Z</time></trkpt><trkpt lat="43.5707017" lon="11.320165"><ele>259.0</ele><time>2026-04-30T08:12:02.336Z</time></trkpt><trkpt lat="43.5705617" lon="11.3202367"><ele>259.0</ele><time>2026-04-30T08:12:03.337Z</time></trkpt><trkpt lat="43.570405" lon="11.3203"><ele>259.0</ele><time>2026-04-30T08:12:04.337Z</time></trkpt><trkpt lat="43.5702483" lon="11.3203617"><ele>259.75</ele><time>2026-04-30T08:12:05.337Z</time></trkpt><trkpt lat="43.5700967" lon="11.3204083"><ele>260.5</ele><time>2026-04-30T08:12:06.337Z</time></trkpt><trkpt lat="43.5699517" lon="11.3204383"><ele>261.25</ele><time>2026-04-30T08:12:07.337Z</time></trkpt><trkpt lat="43.569815" lon="11.3204717"><ele>262.0</ele><time>2026-04-30T08:12:08.336Z</time></trkpt><trkpt lat="43.5696617" lon="11.3205183"><ele>262.0</ele><time>2026-04-30T08:12:09.337Z</time></trkpt><trkpt lat="43.5695283" lon="11.3205467"><ele>262.0</ele><time>2026-04-30T08:12:10.337Z</time></trkpt><trkpt lat="43.5694233" lon="11.3205967"><ele>262.0</ele><time>2026-04-30T08:12:11.337Z</time></trkpt><trkpt lat="43.5693367" lon="11.3206617"><ele>262.0</ele><time>2026-04-30T08:12:12.336Z</time></trkpt><trkpt lat="43.56928" lon="11.3207517"><ele>262.0</ele><time>2026-04-30T08:12:13.337Z</time></trkpt><trkpt lat="43.569245" lon="11.3208633"><ele>262.2</ele><time>2026-04-30T08:12:14.336Z</time></trkpt><trkpt lat="43.5692133" lon="11.321"><ele>262.4</ele><time>2026-04-30T08:12:15.337Z</time></trkpt><trkpt lat="43.5691983" lon="11.3211333"><ele>262.6</ele><time>2026-04-30T08:12:16.336Z</time></trkpt><trkpt lat="43.5691833" lon="11.3212683"><ele>262.8</ele><time>2026-04-30T08:12:17.337Z</time></trkpt><trkpt lat="43.56916" lon="11.3213983"><ele>263.0</ele><time>2026-04-30T08:12:18.337Z</time></trkpt><trkpt lat="43.5691333" lon="11.3215283"><ele>263.0</ele><time>2026-04-30T08:12:19.337Z</time></trkpt><trkpt lat="43.5691017" lon="11.3216617"><ele>263.0</ele><time>2026-04-30T08:12:20.337Z</time></trkpt><trkpt lat="43.5690517" lon="11.3218"><ele>263.0</ele><time>2026-04-30T08:12:21.337Z</time></trkpt><trkpt lat="43.568985" lon="11.3219267"><ele>263.0</ele><time>2026-04-30T08:12:22.337Z</time></trkpt><trkpt lat="43.568905" lon="11.322055"><ele>263.0</ele><time>2026-04-30T08:12:23.336Z</time></trkpt><trkpt lat="43.56883" lon="11.32216"><ele>263.0</ele><time>2026-04-30T08:12:24.337Z</time></trkpt><trkpt lat="43.5687683" lon="11.3222417"><ele>263.0</ele><time>2026-04-30T08:12:25.337Z</time></trkpt><trkpt lat="43.5686967" lon="11.3223383"><ele>263.0</ele><time>2026-04-30T08:12:26.337Z</time></trkpt><trkpt lat="43.5686183" lon="11.3224183"><ele>263.0</ele><time>2026-04-30T08:12:27.337Z</time></trkpt><trkpt lat="43.568515" lon="11.3224817"><ele>267.0</ele><time>2026-04-30T08:12:28.337Z</time></trkpt><trkpt lat="43.568395" lon="11.32252"><ele>271.0</ele><time>2026-04-30T08:12:29.337Z</time></trkpt><trkpt lat="43.5682483" lon="11.3225533"><ele>275.0</ele><time>2026-04-30T08:12:30.337Z</time></trkpt><trkpt lat="43.5680783" lon="11.3225833"><ele>279.0</ele><time>2026-04-30T08:12:31.336Z</time></trkpt><trkpt lat="43.5678983" lon="11.3226"><ele>281.3333333333333</ele><time>2026-04-30T08:12:32.337Z</time></trkpt><trkpt lat="43.5677183" lon="11.3226367"><ele>283.66666666666663</ele><time>2026-04-30T08:12:33.337Z</time></trkpt><trkpt lat="43.56755" lon="11.3226767"><ele>286.0</ele><time>2026-04-30T08:12:34.337Z</time></trkpt><trkpt lat="43.56738" lon="11.32268"><ele>286.0</ele><time>2026-04-30T08:12:35.337Z</time></trkpt><trkpt lat="43.5672067" lon="11.32265"><ele>286.0</ele><time>2026-04-30T08:12:36.336Z</time></trkpt><trkpt lat="43.56703" lon="11.32257"><ele>286.0</ele><time>2026-04-30T08:12:37.337Z</time></trkpt><trkpt lat="43.5668717" lon="11.322485"><ele>284.66666666666663</ele><time>2026-04-30T08:12:38.337Z</time></trkpt><trkpt lat="43.566685" lon="11.32242"><ele>283.3333333333333</ele><time>2026-04-30T08:12:39.337Z</time></trkpt><trkpt lat="43.566525" lon="11.322345"><ele>282.0</ele><time>2026-04-30T08:12:40.337Z</time></trkpt><trkpt lat="43.56636" lon="11.3222983"><ele>283.0</ele><time>2026-04-30T08:12:41.337Z</time></trkpt><trkpt lat="43.5661917" lon="11.3223183"><ele>284.0</ele><time>2026-04-30T08:12:42.337Z</time></trkpt><trkpt lat="43.56602" lon="11.322375"><ele>285.0</ele><time>2026-04-30T08:12:43.336Z</time></trkpt><trkpt lat="43.5658367" lon="11.322445"><ele>285.0</ele><time>2026-04-30T08:12:44.337Z</time></trkpt><trkpt lat="43.5656567" lon="11.3225"><ele>285.0</ele><time>2026-04-30T08:12:45.337Z</time></trkpt><trkpt lat="43.565485" lon="11.322525"><ele>285.0</ele><time>2026-04-30T08:12:46.336Z</time></trkpt><trkpt lat="43.565325" lon="11.3225467"><ele>287.5</ele><time>2026-04-30T08:12:47.337Z</time></trkpt><trkpt lat="43.5651767" lon="11.3225733"><ele>290.0</ele><time>2026-04-30T08:12:48.337Z</time></trkpt><trkpt lat="43.5650383" lon="11.32262"><ele>292.5</ele><time>2026-04-30T08:12:49.336Z</time></trkpt><trkpt lat="43.5648983" lon="11.3227017"><ele>295.0</ele><time>2026-04-30T08:12:50.337Z</time></trkpt><trkpt lat="43.564755" lon="11.3228267"><ele>295.0</ele><time>2026-04-30T08:12:51.337Z</time></trkpt><trkpt lat="43.56462" lon="11.3229417"><ele>295.0</ele><time>2026-04-30T08:12:52.337Z</time></trkpt><trkpt lat="43.5644733" lon="11.3230483"><ele>295.0</ele><time>2026-04-30T08:12:53.337Z</time></trkpt><trkpt lat="43.5643133" lon="11.3231067"><ele>295.3333333333333</ele><time>2026-04-30T08:12:54.337Z</time></trkpt><trkpt lat="43.564145" lon="11.3231217"><ele>295.6666666666667</ele><time>2026-04-30T08:12:55.336Z</time></trkpt><trkpt lat="43.5639767" lon="11.3231367"><ele>296.0</ele><time>2026-04-30T08:12:56.337Z</time></trkpt><trkpt lat="43.5638067" lon="11.3231783"><ele>299.6666666666667</ele><time>2026-04-30T08:12:57.336Z</time></trkpt><trkpt lat="43.5636417" lon="11.3232517"><ele>303.3333333333333</ele><time>2026-04-30T08:12:58.337Z</time></trkpt><trkpt lat="43.5634733" lon="11.32336"><ele>307.0</ele><time>2026-04-30T08:12:59.337Z</time></trkpt><trkpt lat="43.5633017" lon="11.3235033"><ele>307.0</ele><time>2026-04-30T08:13:00.337Z</time></trkpt><trkpt lat="43.56314" lon="11.3236333"><ele>307.0</ele><time>2026-04-30T08:13:01.337Z</time></trkpt><trkpt lat="43.5629967" lon="11.3237233"><ele>307.0</ele><time>2026-04-30T08:13:02.336Z</time></trkpt><trkpt lat="43.562835" lon="11.3237833"><ele>305.66666666666663</ele><time>2026-04-30T08:13:03.337Z</time></trkpt><trkpt lat="43.562655" lon="11.32381"><ele>304.3333333333333</ele><time>2026-04-30T08:13:04.337Z</time></trkpt><trkpt lat="43.56248" lon="11.32385"><ele>303.0</ele><time>2026-04-30T08:13:05.336Z</time></trkpt><trkpt lat="43.56231" lon="11.323925"><ele>303.0</ele><time>2026-04-30T08:13:06.337Z</time></trkpt><trkpt lat="43.5621483" lon="11.3240383"><ele>303.0</ele><time>2026-04-30T08:13:07.336Z</time></trkpt><trkpt lat="43.5619833" lon="11.324145"><ele>303.0</ele><time>2026-04-30T08:13:08.337Z</time></trkpt><trkpt lat="43.5618017" lon="11.32424"><ele>307.3333333333333</ele><time>2026-04-30T08:13:09.336Z</time></trkpt><trkpt lat="43.5616133" lon="11.3243083"><ele>311.66666666666663</ele><time>2026-04-30T08:13:10.336Z</time></trkpt><trkpt lat="43.5614483" lon="11.324355"><ele>316.0</ele><time>2026-04-30T08:13:11.336Z</time></trkpt><trkpt lat="43.5612783" lon="11.3243783"><ele>318.0</ele><time>2026-04-30T08:13:12.335Z</time></trkpt><trkpt lat="43.5611033" lon="11.3243767"><ele>320.0</ele><time>2026-04-30T08:13:13.336Z</time></trkpt><trkpt lat="43.5609267" lon="11.3243467"><ele>322.0</ele><time>2026-04-30T08:13:14.336Z</time></trkpt><trkpt lat="43.560755" lon="11.3243017"><ele>322.0</ele><time>2026-04-30T08:13:15.336Z</time></trkpt><trkpt lat="43.56059" lon="11.324235"><ele>322.0</ele><time>2026-04-30T08:13:16.336Z</time></trkpt><trkpt lat="43.5604417" lon="11.3241467"><ele>322.0</ele><time>2026-04-30T08:13:17.336Z</time></trkpt><trkpt lat="43.5603067" lon="11.3240633"><ele>324.0</ele><time>2026-04-30T08:13:18.336Z</time></trkpt><trkpt lat="43.56018" lon="11.3239583"><ele>326.0</ele><time>2026-04-30T08:13:19.336Z</time></trkpt><trkpt lat="43.560045" lon="11.323825"><ele>328.0</ele><time>2026-04-30T08:13:20.335Z</time></trkpt><trkpt lat="43.5599067" lon="11.3236833"><ele>328.0</ele><time>2026-04-30T08:13:21.335Z</time></trkpt><trkpt lat="43.55977" lon="11.3235433"><ele>328.0</ele><time>2026-04-30T08:13:22.336Z</time></trkpt><trkpt lat="43.5596517" lon="11.3234067"><ele>328.0</ele><time>2026-04-30T08:13:23.336Z</time></trkpt><trkpt lat="43.55954" lon="11.3232683"><ele>329.66666666666663</ele><time>2026-04-30T08:13:24.335Z</time></trkpt><trkpt lat="43.5594567" lon="11.3230817"><ele>331.3333333333333</ele><time>2026-04-30T08:13:25.336Z</time></trkpt><trkpt lat="43.55939" lon="11.3228767"><ele>333.0</ele><time>2026-04-30T08:13:26.335Z</time></trkpt><trkpt lat="43.5593217" lon="11.3226817"><ele>333.0</ele><time>2026-04-30T08:13:27.336Z</time></trkpt><trkpt lat="43.5592417" lon="11.3225317"><ele>333.0</ele><time>2026-04-30T08:13:28.336Z</time></trkpt><trkpt lat="43.5591417" lon="11.3224267"><ele>333.0</ele><time>2026-04-30T08:13:29.335Z</time></trkpt><trkpt lat="43.5590133" lon="11.322375"><ele>333.0</ele><time>2026-04-30T08:13:30.336Z</time></trkpt><trkpt lat="43.5588667" lon="11.32239"><ele>333.0</ele><time>2026-04-30T08:13:31.336Z</time></trkpt><trkpt lat="43.5587017" lon="11.322435"><ele>333.0</ele><time>2026-04-30T08:13:32.335Z</time></trkpt><trkpt lat="43.5585233" lon="11.322505"><ele>333.0</ele><time>2026-04-30T08:13:33.335Z</time></trkpt><trkpt lat="43.5583367" lon="11.3225833"><ele>334.6666666666667</ele><time>2026-04-30T08:13:34.336Z</time></trkpt><trkpt lat="43.5581417" lon="11.32265"><ele>336.33333333333337</ele><time>2026-04-30T08:13:35.336Z</time></trkpt><trkpt lat="43.5579433" lon="11.3227183"><ele>338.0</ele><time>2026-04-30T08:13:36.336Z</time></trkpt><trkpt lat="43.5577567" lon="11.3227767"><ele>341.6666666666667</ele><time>2026-04-30T08:13:37.336Z</time></trkpt><trkpt lat="43.5575917" lon="11.3228183"><ele>345.3333333333333</ele><time>2026-04-30T08:13:38.336Z</time></trkpt><trkpt lat="43.5574367" lon="11.3228867"><ele>349.0</ele><time>2026-04-30T08:13:39.336Z</time></trkpt><trkpt lat="43.5572917" lon="11.32299"><ele>348.66666666666663</ele><time>2026-04-30T08:13:40.335Z</time></trkpt><trkpt lat="43.5571517" lon="11.323135"><ele>348.3333333333333</ele><time>2026-04-30T08:13:41.336Z</time></trkpt><trkpt lat="43.557015" lon="11.3232917"><ele>348.0</ele><time>2026-04-30T08:13:42.336Z</time></trkpt><trkpt lat="43.55686" lon="11.323455"><ele>348.0</ele><time>2026-04-30T08:13:43.336Z</time></trkpt><trkpt lat="43.5567" lon="11.323605"><ele>348.0</ele><time>2026-04-30T08:13:44.336Z</time></trkpt><trkpt lat="43.5565317" lon="11.323745"><ele>348.0</ele><time>2026-04-30T08:13:45.335Z</time></trkpt><trkpt lat="43.55636" lon="11.3238933"><ele>349.3333333333333</ele><time>2026-04-30T08:13:46.336Z</time></trkpt><trkpt lat="43.5561883" lon="11.32405"><ele>350.66666666666663</ele><time>2026-04-30T08:13:47.336Z</time></trkpt><trkpt lat="43.5560217" lon="11.3242033"><ele>352.0</ele><time>2026-04-30T08:13:48.336Z</time></trkpt><trkpt lat="43.5558667" lon="11.3243417"><ele>352.0</ele><time>2026-04-30T08:13:49.336Z</time></trkpt><trkpt lat="43.5557217" lon="11.3244733"><ele>352.0</ele><time>2026-04-30T08:13:50.335Z</time></trkpt><trkpt lat="43.5555867" lon="11.32457"><ele>352.0</ele><time>2026-04-30T08:13:51.335Z</time></trkpt><trkpt lat="43.55545" lon="11.32464"><ele>356.3333333333333</ele><time>2026-04-30T08:13:52.336Z</time></trkpt><trkpt lat="43.5553083" lon="11.3246633"><ele>360.6666666666667</ele><time>2026-04-30T08:13:53.336Z</time></trkpt><trkpt lat="43.5551583" lon="11.324625"><ele>365.0</ele><time>2026-04-30T08:13:54.336Z</time></trkpt><trkpt lat="43.5550017" lon="11.3245583"><ele>365.0</ele><time>2026-04-30T08:13:55.336Z</time></trkpt><trkpt lat="43.5548417" lon="11.3244967"><ele>365.0</ele><time>2026-04-30T08:13:56.335Z</time></trkpt><trkpt lat="43.5546833" lon="11.32448"><ele>365.0</ele><time>2026-04-30T08:13:57.336Z</time></trkpt><trkpt lat="43.5545417" lon="11.324535"><ele>365.0</ele><time>2026-04-30T08:13:58.335Z</time></trkpt><trkpt lat="43.5544067" lon="11.3246433"><ele>365.0</ele><time>2026-04-30T08:13:59.336Z</time></trkpt><trkpt lat="43.5542733" lon="11.3247917"><ele>365.0</ele><time>2026-04-30T08:14:00.336Z</time></trkpt><trkpt lat="43.554155" lon="11.3249483"><ele>365.0</ele><time>2026-04-30T08:14:01.336Z</time></trkpt><trkpt lat="43.554015" lon="11.3251067"><ele>365.0</ele><time>2026-04-30T08:14:02.336Z</time></trkpt><trkpt lat="43.5538817" lon="11.3252367"><ele>365.0</ele><time>2026-04-30T08:14:03.336Z</time></trkpt><trkpt lat="43.5537483" lon="11.325325"><ele>365.5</ele><time>2026-04-30T08:14:04.336Z</time></trkpt><trkpt lat="43.553615" lon="11.3253683"><ele>366.0</ele><time>2026-04-30T08:14:05.335Z</time></trkpt><trkpt lat="43.5535033" lon="11.3253433"><ele>366.5</ele><time>2026-04-30T08:14:06.335Z</time></trkpt><trkpt lat="43.553415" lon="11.3252733"><ele>367.0</ele><time>2026-04-30T08:14:07.335Z</time></trkpt><trkpt lat="43.5533533" lon="11.32514"><ele>367.0</ele><time>2026-04-30T08:14:08.336Z</time></trkpt><trkpt lat="43.5533067" lon="11.3249767"><ele>367.0</ele><time>2026-04-30T08:14:09.335Z</time></trkpt><trkpt lat="43.5532833" lon="11.3247833"><ele>367.0</ele><time>2026-04-30T08:14:10.336Z</time></trkpt><trkpt lat="43.55326" lon="11.3245933"><ele>367.0</ele><time>2026-04-30T08:14:11.335Z</time></trkpt><trkpt lat="43.553205" lon="11.3244233"><ele>370.3333333333333</ele><time>2026-04-30T08:14:12.336Z</time></trkpt><trkpt lat="43.553115" lon="11.3242767"><ele>373.6666666666667</ele><time>2026-04-30T08:14:13.335Z</time></trkpt><trkpt lat="43.5529933" lon="11.3241733"><ele>377.0</ele><time>2026-04-30T08:14:14.336Z</time></trkpt><trkpt lat="43.552825" lon="11.32412"><ele>377.0</ele><time>2026-04-30T08:14:15.335Z</time></trkpt><trkpt lat="43.55264" lon="11.3241083"><ele>377.0</ele><time>2026-04-30T08:14:16.336Z</time></trkpt><trkpt lat="43.5524317" lon="11.3241333"><ele>377.0</ele><time>2026-04-30T08:14:17.336Z</time></trkpt><trkpt lat="43.5522217" lon="11.32417"><ele>377.6666666666667</ele><time>2026-04-30T08:14:18.335Z</time></trkpt><trkpt lat="43.5520117" lon="11.3242"><ele>378.3333333333333</ele><time>2026-04-30T08:14:19.336Z</time></trkpt><trkpt lat="43.5518183" lon="11.3242067"><ele>379.0</ele><time>2026-04-30T08:14:20.336Z</time></trkpt><trkpt lat="43.5516267" lon="11.3241633"><ele>379.0</ele><time>2026-04-30T08:14:21.336Z</time></trkpt><trkpt lat="43.5514283" lon="11.3240883"><ele>379.0</ele><time>2026-04-30T08:14:22.336Z</time></trkpt><trkpt lat="43.5512217" lon="11.324"><ele>379.0</ele><time>2026-04-30T08:14:23.336Z</time></trkpt><trkpt lat="43.5510383" lon="11.3239183"><ele>384.3333333333333</ele><time>2026-04-30T08:14:24.336Z</time></trkpt><trkpt lat="43.5508783" lon="11.32385"><ele>389.66666666666663</ele><time>2026-04-30T08:14:25.336Z</time></trkpt><trkpt lat="43.55072" lon="11.3237383"><ele>395.0</ele><time>2026-04-30T08:14:26.336Z</time></trkpt><trkpt lat="43.5505717" lon="11.3235967"><ele>395.0</ele><time>2026-04-30T08:14:27.335Z</time></trkpt><trkpt lat="43.5504267" lon="11.3234367"><ele>395.0</ele><time>2026-04-30T08:14:28.336Z</time></trkpt><trkpt lat="43.550285" lon="11.3232633"><ele>395.0</ele><time>2026-04-30T08:14:29.336Z</time></trkpt><trkpt lat="43.550155" lon="11.3231033"><ele>395.0</ele><time>2026-04-30T08:14:30.336Z</time></trkpt><trkpt lat="43.5499967" lon="11.3230017"><ele>395.0</ele><time>2026-04-30T08:14:31.336Z</time></trkpt><trkpt lat="43.549815" lon="11.3229283"><ele>395.0</ele><time>2026-04-30T08:14:32.336Z</time></trkpt><trkpt lat="43.549635" lon="11.3228967"><ele>395.3333333333333</ele><time>2026-04-30T08:14:33.336Z</time></trkpt><trkpt lat="43.54944" lon="11.3229167"><ele>395.66666666666663</ele><time>2026-04-30T08:14:34.335Z</time></trkpt><trkpt lat="43.549235" lon="11.3229833"><ele>396.0</ele><time>2026-04-30T08:14:35.336Z</time></trkpt><trkpt lat="43.549015" lon="11.323045"><ele>392.5</ele><time>2026-04-30T08:14:36.335Z</time></trkpt><trkpt lat="43.548795" lon="11.3231083"><ele>389.0</ele><time>2026-04-30T08:14:37.335Z</time></trkpt><trkpt lat="43.54857" lon="11.32317"><ele>389.0</ele><time>2026-04-30T08:14:38.336Z</time></trkpt><trkpt lat="43.548345" lon="11.3232217"><ele>389.0</ele><time>2026-04-30T08:14:39.336Z</time></trkpt><trkpt lat="43.54812" lon="11.3232717"><ele>392.0</ele><time>2026-04-30T08:14:40.335Z</time></trkpt><trkpt lat="43.5478717" lon="11.32334"><ele>395.0</ele><time>2026-04-30T08:14:41.336Z</time></trkpt><trkpt lat="43.5476283" lon="11.3234"><ele>395.0</ele><time>2026-04-30T08:14:42.335Z</time></trkpt><trkpt lat="43.547385" lon="11.3234567"><ele>395.0</ele><time>2026-04-30T08:14:43.335Z</time></trkpt><trkpt lat="43.5471483" lon="11.3235067"><ele>397.66666666666663</ele><time>2026-04-30T08:14:44.335Z</time></trkpt><trkpt lat="43.5469317" lon="11.3235517"><ele>400.33333333333337</ele><time>2026-04-30T08:14:45.335Z</time></trkpt><trkpt lat="43.5467383" lon="11.3235867"><ele>403.0</ele><time>2026-04-30T08:14:46.336Z</time></trkpt><trkpt lat="43.5465717" lon="11.323625"><ele>403.0</ele><time>2026-04-30T08:14:47.336Z</time></trkpt><trkpt lat="43.5464317" lon="11.3236933"><ele>403.0</ele><time>2026-04-30T08:14:48.336Z</time></trkpt><trkpt lat="43.5463083" lon="11.3238117"><ele>403.0</ele><time>2026-04-30T08:14:49.336Z</time></trkpt><trkpt lat="43.5462033" lon="11.3239833"><ele>402.33333333333337</ele><time>2026-04-30T08:14:50.336Z</time></trkpt><trkpt lat="43.5461167" lon="11.3242"><ele>401.66666666666663</ele><time>2026-04-30T08:14:51.336Z</time></trkpt><trkpt lat="43.54605" lon="11.324445"><ele>401.0</ele><time>2026-04-30T08:14:52.336Z</time></trkpt><trkpt lat="43.5459867" lon="11.324705"><ele>402.3333333333333</ele><time>2026-04-30T08:14:53.336Z</time></trkpt><trkpt lat="43.5459117" lon="11.324975"><ele>403.66666666666663</ele><time>2026-04-30T08:14:54.335Z</time></trkpt><trkpt lat="43.5458367" lon="11.3252467"><ele>405.0</ele><time>2026-04-30T08:14:55.336Z</time></trkpt><trkpt lat="43.5457633" lon="11.32549"><ele>405.66666666666663</ele><time>2026-04-30T08:14:56.335Z</time></trkpt><trkpt lat="43.545705" lon="11.3257317"><ele>406.3333333333333</ele><time>2026-04-30T08:14:57.335Z</time></trkpt><trkpt lat="43.5456217" lon="11.3259567"><ele>407.0</ele><time>2026-04-30T08:14:58.336Z</time></trkpt><trkpt lat="43.545525" lon="11.326185"><ele>406.0</ele><time>2026-04-30T08:14:59.336Z</time></trkpt><trkpt lat="43.5454117" lon="11.3264083"><ele>405.0</ele><time>2026-04-30T08:15:00.336Z</time></trkpt><trkpt lat="43.545295" lon="11.3266183"><ele>404.0</ele><time>2026-04-30T08:15:01.335Z</time></trkpt><trkpt lat="43.5451833" lon="11.32681"><ele>406.0</ele><time>2026-04-30T08:15:02.336Z</time></trkpt><trkpt lat="43.545075" lon="11.3269683"><ele>408.0</ele><time>2026-04-30T08:15:03.336Z</time></trkpt><trkpt lat="43.5449633" lon="11.3270833"><ele>410.0</ele><time>2026-04-30T08:15:04.336Z</time></trkpt><trkpt lat="43.5448533" lon="11.3271583"><ele>412.0</ele><time>2026-04-30T08:15:05.336Z</time></trkpt><trkpt lat="43.5447267" lon="11.3271817"><ele>412.0</ele><time>2026-04-30T08:15:06.335Z</time></trkpt><trkpt lat="43.544595" lon="11.32712"><ele>412.0</ele><time>2026-04-30T08:15:07.336Z</time></trkpt><trkpt lat="43.5444883" lon="11.3270033"><ele>412.0</ele><time>2026-04-30T08:15:08.335Z</time></trkpt><trkpt lat="43.5444067" lon="11.3268467"><ele>412.0</ele><time>2026-04-30T08:15:09.336Z</time></trkpt><trkpt lat="43.5443583" lon="11.3266517"><ele>414.6666666666667</ele><time>2026-04-30T08:15:10.336Z</time></trkpt><trkpt lat="43.5443217" lon="11.3264183"><ele>417.33333333333337</ele><time>2026-04-30T08:15:11.336Z</time></trkpt><trkpt lat="43.5442917" lon="11.3261783"><ele>420.0</ele><time>2026-04-30T08:15:12.336Z</time></trkpt><trkpt lat="43.5442517" lon="11.325945"><ele>420.0</ele><time>2026-04-30T08:15:13.335Z</time></trkpt><trkpt lat="43.5442117" lon="11.32573"><ele>420.0</ele><time>2026-04-30T08:15:14.336Z</time></trkpt><trkpt lat="43.5441767" lon="11.3255317"><ele>420.0</ele><time>2026-04-30T08:15:15.336Z</time></trkpt><trkpt lat="43.5441517" lon="11.325325"><ele>420.66666666666663</ele><time>2026-04-30T08:15:16.336Z</time></trkpt><trkpt lat="43.5441483" lon="11.3251033"><ele>421.3333333333333</ele><time>2026-04-30T08:15:17.336Z</time></trkpt><trkpt lat="43.544155" lon="11.3248717"><ele>422.0</ele><time>2026-04-30T08:15:18.335Z</time></trkpt><trkpt lat="43.54419" lon="11.3246683"><ele>423.75</ele><time>2026-04-30T08:15:19.335Z</time></trkpt><trkpt lat="43.544255" lon="11.3244833"><ele>425.5</ele><time>2026-04-30T08:15:20.336Z</time></trkpt><trkpt lat="43.5443517" lon="11.32433"><ele>427.25</ele><time>2026-04-30T08:15:21.336Z</time></trkpt><trkpt lat="43.5444533" lon="11.3242017"><ele>429.0</ele><time>2026-04-30T08:15:22.336Z</time></trkpt><trkpt lat="43.5445283" lon="11.3240517"><ele>430.75</ele><time>2026-04-30T08:15:23.335Z</time></trkpt><trkpt lat="43.544575" lon="11.3238667"><ele>432.5</ele><time>2026-04-30T08:15:24.336Z</time></trkpt><trkpt lat="43.544585" lon="11.323665"><ele>434.25</ele><time>2026-04-30T08:15:25.336Z</time></trkpt><trkpt lat="43.5445767" lon="11.323445"><ele>436.0</ele><time>2026-04-30T08:15:26.336Z</time></trkpt><trkpt lat="43.5445217" lon="11.32322"><ele>435.6666666666667</ele><time>2026-04-30T08:15:27.335Z</time></trkpt><trkpt lat="43.5444533" lon="11.32299"><ele>435.33333333333337</ele><time>2026-04-30T08:15:28.335Z</time></trkpt><trkpt lat="43.5443583" lon="11.3227567"><ele>435.0</ele><time>2026-04-30T08:15:29.335Z</time></trkpt><trkpt lat="43.544275" lon="11.3225333"><ele>435.0</ele><time>2026-04-30T08:15:30.336Z</time></trkpt><trkpt lat="43.5441983" lon="11.322325"><ele>435.0</ele><time>2026-04-30T08:15:31.336Z</time></trkpt><trkpt lat="43.5441233" lon="11.3221317"><ele>435.0</ele><time>2026-04-30T08:15:32.336Z</time></trkpt><trkpt lat="43.544075" lon="11.3219633"><ele>435.75</ele><time>2026-04-30T08:15:33.336Z</time></trkpt><trkpt lat="43.544055" lon="11.3217967"><ele>436.5</ele><time>2026-04-30T08:15:34.336Z</time></trkpt><trkpt lat="43.5440717" lon="11.3216317"><ele>437.25</ele><time>2026-04-30T08:15:35.336Z</time></trkpt><trkpt lat="43.54412" lon="11.3214867"><ele>438.0</ele><time>2026-04-30T08:15:36.335Z</time></trkpt><trkpt lat="43.5442033" lon="11.3213883"><ele>442.0</ele><time>2026-04-30T08:15:37.336Z</time></trkpt><trkpt lat="43.5443217" lon="11.32135"><ele>446.0</ele><time>2026-04-30T08:15:38.335Z</time></trkpt><trkpt lat="43.5444817" lon="11.3213333"><ele>450.0</ele><time>2026-04-30T08:15:39.335Z</time></trkpt><trkpt lat="43.5446583" lon="11.32134"><ele>450.66666666666663</ele><time>2026-04-30T08:15:40.336Z</time></trkpt><trkpt lat="43.5448617" lon="11.3213383"><ele>451.3333333333333</ele><time>2026-04-30T08:15:41.336Z</time></trkpt><trkpt lat="43.545075" lon="11.3213283"><ele>452.0</ele><time>2026-04-30T08:15:42.336Z</time></trkpt><trkpt lat="43.545295" lon="11.3213083"><ele>454.0</ele><time>2026-04-30T08:15:43.336Z</time></trkpt><trkpt lat="43.545525" lon="11.3212867"><ele>456.0</ele><time>2026-04-30T08:15:44.335Z</time></trkpt><trkpt lat="43.545755" lon="11.3212783"><ele>456.0</ele><time>2026-04-30T08:15:45.335Z</time></trkpt><trkpt lat="43.545975" lon="11.321285"><ele>456.0</ele><time>2026-04-30T08:15:46.336Z</time></trkpt><trkpt lat="43.546175" lon="11.3212833"><ele>456.0</ele><time>2026-04-30T08:15:47.336Z</time></trkpt><trkpt lat="43.546355" lon="11.321275"><ele>456.33333333333337</ele><time>2026-04-30T08:15:48.336Z</time></trkpt><trkpt lat="43.546535" lon="11.3212317"><ele>456.6666666666667</ele><time>2026-04-30T08:15:49.335Z</time></trkpt><trkpt lat="43.546705" lon="11.3211467"><ele>457.0</ele><time>2026-04-30T08:15:50.336Z</time></trkpt><trkpt lat="43.5468733" lon="11.3210583"><ele>454.6666666666667</ele><time>2026-04-30T08:15:51.336Z</time></trkpt><trkpt lat="43.5470483" lon="11.321"><ele>452.33333333333337</ele><time>2026-04-30T08:15:52.335Z</time></trkpt><trkpt lat="43.547205" lon="11.3209567"><ele>450.0</ele><time>2026-04-30T08:15:53.336Z</time></trkpt><trkpt lat="43.54734" lon="11.320915"><ele>450.0</ele><time>2026-04-30T08:15:54.336Z</time></trkpt><trkpt lat="43.5474567" lon="11.320835"><ele>450.0</ele><time>2026-04-30T08:15:55.336Z</time></trkpt><trkpt lat="43.5475383" lon="11.3207117"><ele>450.0</ele><time>2026-04-30T08:15:56.335Z</time></trkpt><trkpt lat="43.5475883" lon="11.3205517"><ele>450.0</ele><time>2026-04-30T08:15:57.336Z</time></trkpt><trkpt lat="43.5476017" lon="11.320375"><ele>451.0</ele><time>2026-04-30T08:15:58.335Z</time></trkpt><trkpt lat="43.5475817" lon="11.3201983"><ele>452.0</ele><time>2026-04-30T08:15:59.336Z</time></trkpt><trkpt lat="43.5475033" lon="11.32005"><ele>453.0</ele><time>2026-04-30T08:16:00.336Z</time></trkpt><trkpt lat="43.5473817" lon="11.3199333"><ele>454.0</ele><time>2026-04-30T08:16:01.335Z</time></trkpt><trkpt lat="43.54723" lon="11.31982"><ele>456.6666666666667</ele><time>2026-04-30T08:16:02.335Z</time></trkpt><trkpt lat="43.54707" lon="11.3196933"><ele>459.33333333333337</ele><time>2026-04-30T08:16:03.335Z</time></trkpt><trkpt lat="43.5469233" lon="11.319575"><ele>462.0</ele><time>2026-04-30T08:16:04.336Z</time></trkpt><trkpt lat="43.546795" lon="11.3194433"><ele>462.0</ele><time>2026-04-30T08:16:05.336Z</time></trkpt><trkpt lat="43.5466917" lon="11.3192967"><ele>462.0</ele><time>2026-04-30T08:16:06.336Z</time></trkpt><trkpt lat="43.5466083" lon="11.3191367"><ele>462.0</ele><time>2026-04-30T08:16:07.336Z</time></trkpt><trkpt lat="43.546545" lon="11.3189467"><ele>462.0</ele><time>2026-04-30T08:16:08.336Z</time></trkpt><trkpt lat="43.54651" lon="11.3187383"><ele>461.25</ele><time>2026-04-30T08:16:09.335Z</time></trkpt><trkpt lat="43.5465017" lon="11.3185217"><ele>460.5</ele><time>2026-04-30T08:16:10.335Z</time></trkpt><trkpt lat="43.5465033" lon="11.3183233"><ele>459.75</ele><time>2026-04-30T08:16:11.336Z</time></trkpt><trkpt lat="43.5464867" lon="11.318145"><ele>459.0</ele><time>2026-04-30T08:16:12.335Z</time></trkpt><trkpt lat="43.54643" lon="11.3179917"><ele>458.0</ele><time>2026-04-30T08:16:13.335Z</time></trkpt><trkpt lat="43.5463483" lon="11.317875"><ele>457.0</ele><time>2026-04-30T08:16:14.336Z</time></trkpt><trkpt lat="43.54624" lon="11.31781"><ele>456.0</ele><time>2026-04-30T08:16:15.336Z</time></trkpt><trkpt lat="43.5461033" lon="11.3177733"><ele>455.0</ele><time>2026-04-30T08:16:16.336Z</time></trkpt><trkpt lat="43.5459533" lon="11.3177567"><ele>458.5</ele><time>2026-04-30T08:16:17.336Z</time></trkpt><trkpt lat="43.5457967" lon="11.3177417"><ele>462.0</ele><time>2026-04-30T08:16:18.336Z</time></trkpt><trkpt lat="43.5456467" lon="11.31772"><ele>465.5</ele><time>2026-04-30T08:16:19.336Z</time></trkpt><trkpt lat="43.545515" lon="11.31769"><ele>469.0</ele><time>2026-04-30T08:16:20.336Z</time></trkpt><trkpt lat="43.5454" lon="11.317625"><ele>471.0</ele><time>2026-04-30T08:16:21.336Z</time></trkpt><trkpt lat="43.5453067" lon="11.317535"><ele>473.0</ele><time>2026-04-30T08:16:22.336Z</time></trkpt><trkpt lat="43.5452267" lon="11.3174"><ele>475.0</ele><time>2026-04-30T08:16:23.336Z</time></trkpt><trkpt lat="43.5451633" lon="11.3172467"><ele>477.0</ele><time>2026-04-30T08:16:24.336Z</time></trkpt><trkpt lat="43.5451183" lon="11.3170833"><ele>477.0</ele><time>2026-04-30T08:16:25.336Z</time></trkpt><trkpt lat="43.5450967" lon="11.3169167"><ele>477.00000000000006</ele><time>2026-04-30T08:16:26.336Z</time></trkpt><trkpt lat="43.5451017" lon="11.3167583"><ele>477.00000000000006</ele><time>2026-04-30T08:16:27.336Z</time></trkpt><trkpt lat="43.5450983" lon="11.316615"><ele>477.0</ele><time>2026-04-30T08:16:28.336Z</time></trkpt><trkpt lat="43.5450983" lon="11.31647"><ele>477.0</ele><time>2026-04-30T08:16:29.335Z</time></trkpt><trkpt lat="43.545095" lon="11.3163483"><ele>476.6666666666667</ele><time>2026-04-30T08:16:30.336Z</time></trkpt><trkpt lat="43.54507" lon="11.3162367"><ele>476.33333333333337</ele><time>2026-04-30T08:16:31.336Z</time></trkpt><trkpt lat="43.5450267" lon="11.3161417"><ele>476.0</ele><time>2026-04-30T08:16:32.335Z</time></trkpt><trkpt lat="43.54497" lon="11.3160667"><ele>475.6666666666667</ele><time>2026-04-30T08:16:33.336Z</time></trkpt><trkpt lat="43.5449017" lon="11.316025"><ele>475.33333333333337</ele><time>2026-04-30T08:16:34.336Z</time></trkpt><trkpt lat="43.5448183" lon="11.3160067"><ele>475.0</ele><time>2026-04-30T08:16:35.336Z</time></trkpt><trkpt lat="43.5447417" lon="11.316025"><ele>475.00000000000006</ele><time>2026-04-30T08:16:36.335Z</time></trkpt><trkpt lat="43.5446633" lon="11.3160617"><ele>475.0</ele><time>2026-04-30T08:16:37.335Z</time></trkpt><trkpt lat="43.5446017" lon="11.316085"><ele>475.0</ele><time>2026-04-30T08:16:38.336Z</time></trkpt><trkpt lat="43.5445433" lon="11.316125"><ele>475.0</ele><time>2026-04-30T08:16:39.336Z</time></trkpt><trkpt lat="43.544465" lon="11.3161433"><ele>475.00000000000006</ele><time>2026-04-30T08:16:40.336Z</time></trkpt><trkpt lat="43.5443883" lon="11.3161733"><ele>475.0</ele><time>2026-04-30T08:16:41.335Z</time></trkpt><trkpt lat="43.54431" lon="11.3162117"><ele>474.1666666666667</ele><time>2026-04-30T08:16:42.336Z</time></trkpt><trkpt lat="43.54423" lon="11.3162383"><ele>473.33333333333337</ele><time>2026-04-30T08:16:43.336Z</time></trkpt><trkpt lat="43.5441517" lon="11.31627"><ele>472.5</ele><time>2026-04-30T08:16:44.336Z</time></trkpt><trkpt lat="43.5440683" lon="11.3163033"><ele>471.66666666666663</ele><time>2026-04-30T08:16:45.336Z</time></trkpt><trkpt lat="43.5439717" lon="11.3163283"><ele>470.8333333333333</ele><time>2026-04-30T08:16:46.336Z</time></trkpt><trkpt lat="43.5438767" lon="11.31635"><ele>470.0</ele><time>2026-04-30T08:16:47.336Z</time></trkpt><trkpt lat="43.5437883" lon="11.316375"><ele>472.2</ele><time>2026-04-30T08:16:48.335Z</time></trkpt><trkpt lat="43.5436933" lon="11.3164033"><ele>474.4</ele><time>2026-04-30T08:16:49.336Z</time></trkpt><trkpt lat="43.5435933" lon="11.3164333"><ele>476.6</ele><time>2026-04-30T08:16:50.336Z</time></trkpt><trkpt lat="43.5434867" lon="11.31646"><ele>478.8</ele><time>2026-04-30T08:16:51.335Z</time></trkpt><trkpt lat="43.5433833" lon="11.3164867"><ele>481.0</ele><time>2026-04-30T08:16:52.335Z</time></trkpt><trkpt lat="43.5432783" lon="11.31651"><ele>481.0</ele><time>2026-04-30T08:16:53.335Z</time></trkpt><trkpt lat="43.54317" lon="11.3165267"><ele>481.0</ele><time>2026-04-30T08:16:54.336Z</time></trkpt><trkpt lat="43.5430567" lon="11.31652"><ele>481.0</ele><time>2026-04-30T08:16:55.335Z</time></trkpt><trkpt lat="43.5429583" lon="11.3165567"><ele>481.0</ele><time>2026-04-30T08:16:56.336Z</time></trkpt><trkpt lat="43.5428567" lon="11.3165883"><ele>481.0</ele><time>2026-04-30T08:16:57.336Z</time></trkpt><trkpt lat="43.5427617" lon="11.3166333"><ele>478.0</ele><time>2026-04-30T08:16:58.336Z</time></trkpt><trkpt lat="43.5426617" lon="11.3167"><ele>475.0</ele><time>2026-04-30T08:16:59.336Z</time></trkpt><trkpt lat="43.54257" lon="11.3167783"><ele>472.0</ele><time>2026-04-30T08:17:00.336Z</time></trkpt><trkpt lat="43.5424767" lon="11.3168867"><ele>469.0</ele><time>2026-04-30T08:17:01.336Z</time></trkpt><trkpt lat="43.5423867" lon="11.316985"><ele>469.0</ele><time>2026-04-30T08:17:02.335Z</time></trkpt><trkpt lat="43.5422983" lon="11.31708"><ele>469.0</ele><time>2026-04-30T08:17:03.336Z</time></trkpt><trkpt lat="43.542205" lon="11.31715"><ele>469.0</ele><time>2026-04-30T08:17:04.336Z</time></trkpt><trkpt lat="43.5421067" lon="11.3171883"><ele>469.0</ele><time>2026-04-30T08:17:05.336Z</time></trkpt><trkpt lat="43.5420067" lon="11.317195"><ele>469.0</ele><time>2026-04-30T08:17:06.336Z</time></trkpt><trkpt lat="43.5419067" lon="11.3171833"><ele>465.5</ele><time>2026-04-30T08:17:07.336Z</time></trkpt><trkpt lat="43.5417933" lon="11.31715"><ele>462.0</ele><time>2026-04-30T08:17:08.335Z</time></trkpt><trkpt lat="43.5416783" lon="11.3171117"><ele>458.5</ele><time>2026-04-30T08:17:09.335Z</time></trkpt><trkpt lat="43.5415517" lon="11.3170783"><ele>455.0</ele><time>2026-04-30T08:17:10.336Z</time></trkpt><trkpt lat="43.54142" lon="11.3170417"><ele>455.0</ele><time>2026-04-30T08:17:11.336Z</time></trkpt><trkpt lat="43.5412833" lon="11.316995"><ele>455.0</ele><time>2026-04-30T08:17:12.336Z</time></trkpt><trkpt lat="43.5411567" lon="11.316945"><ele>455.0</ele><time>2026-04-30T08:17:13.335Z</time></trkpt><trkpt lat="43.5410433" lon="11.3169183"><ele>455.0</ele><time>2026-04-30T08:17:14.336Z</time></trkpt><trkpt lat="43.5409183" lon="11.3168883"><ele>454.5</ele><time>2026-04-30T08:17:15.336Z</time></trkpt><trkpt lat="43.540785" lon="11.3168967"><ele>454.0</ele><time>2026-04-30T08:17:16.336Z</time></trkpt><trkpt lat="43.5406583" lon="11.316925"><ele>453.5</ele><time>2026-04-30T08:17:17.336Z</time></trkpt><trkpt lat="43.5405433" lon="11.3169867"><ele>453.0</ele><time>2026-04-30T08:17:18.336Z</time></trkpt><trkpt lat="43.5404283" lon="11.3170583"><ele>451.25</ele><time>2026-04-30T08:17:19.336Z</time></trkpt><trkpt lat="43.5403" lon="11.3171417"><ele>449.5</ele><time>2026-04-30T08:17:20.336Z</time></trkpt><trkpt lat="43.5401733" lon="11.3172117"><ele>447.75</ele><time>2026-04-30T08:17:21.336Z</time></trkpt><trkpt lat="43.54005" lon="11.3172767"><ele>446.0</ele><time>2026-04-30T08:17:22.335Z</time></trkpt><trkpt lat="43.5399333" lon="11.31732"><ele>449.0</ele><time>2026-04-30T08:17:23.336Z</time></trkpt><trkpt lat="43.5398183" lon="11.317335"><ele>452.0</ele><time>2026-04-30T08:17:24.336Z</time></trkpt><trkpt lat="43.5397033" lon="11.317325"><ele>455.0</ele><time>2026-04-30T08:17:25.336Z</time></trkpt><trkpt lat="43.53958" lon="11.3172933"><ele>458.0</ele><time>2026-04-30T08:17:26.335Z</time></trkpt><trkpt lat="43.5394583" lon="11.3172533"><ele>454.25</ele><time>2026-04-30T08:17:27.335Z</time></trkpt><trkpt lat="43.539325" lon="11.3172017"><ele>450.5</ele><time>2026-04-30T08:17:28.336Z</time></trkpt><trkpt lat="43.5391867" lon="11.3171517"><ele>446.75</ele><time>2026-04-30T08:17:29.336Z</time></trkpt><trkpt lat="43.5390533" lon="11.3170917"><ele>443.0</ele><time>2026-04-30T08:17:30.336Z</time></trkpt><trkpt lat="43.538915" lon="11.3170367"><ele>443.0</ele><time>2026-04-30T08:17:31.336Z</time></trkpt><trkpt lat="43.538775" lon="11.3169833"><ele>443.0</ele><time>2026-04-30T08:17:32.336Z</time></trkpt><trkpt lat="43.53864" lon="11.3169317"><ele>443.0</ele><time>2026-04-30T08:17:33.336Z</time></trkpt><trkpt lat="43.5385033" lon="11.316875"><ele>443.0</ele><time>2026-04-30T08:17:34.336Z</time></trkpt><trkpt lat="43.5383683" lon="11.3168283"><ele>443.25</ele><time>2026-04-30T08:17:35.336Z</time></trkpt><trkpt lat="43.538245" lon="11.3167767"><ele>443.5</ele><time>2026-04-30T08:17:36.336Z</time></trkpt><trkpt lat="43.5381267" lon="11.3167217"><ele>443.75</ele><time>2026-04-30T08:17:37.335Z</time></trkpt><trkpt lat="43.53801" lon="11.3166717"><ele>444.0</ele><time>2026-04-30T08:17:38.336Z</time></trkpt><trkpt lat="43.5378933" lon="11.3166233"><ele>445.5</ele><time>2026-04-30T08:17:39.336Z</time></trkpt><trkpt lat="43.5377733" lon="11.3165667"><ele>447.0</ele><time>2026-04-30T08:17:40.335Z</time></trkpt><trkpt lat="43.5376567" lon="11.3164817"><ele>448.5</ele><time>2026-04-30T08:17:41.336Z</time></trkpt><trkpt lat="43.537545" lon="11.3163867"><ele>450.0</ele><time>2026-04-30T08:17:42.336Z</time></trkpt><trkpt lat="43.5374433" lon="11.31627"><ele>446.75</ele><time>2026-04-30T08:17:43.335Z</time></trkpt><trkpt lat="43.5373583" lon="11.31612"><ele>443.5</ele><time>2026-04-30T08:17:44.336Z</time></trkpt><trkpt lat="43.53728" lon="11.315955"><ele>440.25</ele><time>2026-04-30T08:17:45.336Z</time></trkpt><trkpt lat="43.5372067" lon="11.31579"><ele>437.0</ele><time>2026-04-30T08:17:46.336Z</time></trkpt><trkpt lat="43.53714" lon="11.3156367"><ele>437.5</ele><time>2026-04-30T08:17:47.336Z</time></trkpt><trkpt lat="43.5370633" lon="11.315505"><ele>438.0</ele><time>2026-04-30T08:17:48.336Z</time></trkpt><trkpt lat="43.536975" lon="11.315385"><ele>438.5</ele><time>2026-04-30T08:17:49.336Z</time></trkpt><trkpt lat="43.536885" lon="11.31527"><ele>439.0</ele><time>2026-04-30T08:17:50.336Z</time></trkpt><trkpt lat="43.5367817" lon="11.3151683"><ele>439.0</ele><time>2026-04-30T08:17:51.336Z</time></trkpt><trkpt lat="43.5366867" lon="11.3150617"><ele>439.0</ele><time>2026-04-30T08:17:52.336Z</time></trkpt><trkpt lat="43.5366" lon="11.3149367"><ele>439.0</ele><time>2026-04-30T08:17:53.335Z</time></trkpt><trkpt lat="43.53652" lon="11.3147917"><ele>439.0</ele><time>2026-04-30T08:17:54.335Z</time></trkpt><trkpt lat="43.5364567" lon="11.3146333"><ele>438.0</ele><time>2026-04-30T08:17:55.336Z</time></trkpt><trkpt lat="43.5363933" lon="11.31446"><ele>437.0</ele><time>2026-04-30T08:17:56.336Z</time></trkpt><trkpt lat="43.5363283" lon="11.3142867"><ele>436.0</ele><time>2026-04-30T08:17:57.336Z</time></trkpt><trkpt lat="43.536245" lon="11.3141283"><ele>435.0</ele><time>2026-04-30T08:17:58.336Z</time></trkpt><trkpt lat="43.5361517" lon="11.3139733"><ele>432.33333333333337</ele><time>2026-04-30T08:17:59.335Z</time></trkpt><trkpt lat="43.5360433" lon="11.313835"><ele>429.6666666666667</ele><time>2026-04-30T08:18:00.336Z</time></trkpt><trkpt lat="43.5359333" lon="11.3136883"><ele>427.0</ele><time>2026-04-30T08:18:01.336Z</time></trkpt><trkpt lat="43.5358233" lon="11.3135433"><ele>427.0</ele><time>2026-04-30T08:18:02.336Z</time></trkpt><trkpt lat="43.5357183" lon="11.3133933"><ele>427.0</ele><time>2026-04-30T08:18:03.336Z</time></trkpt><trkpt lat="43.5356167" lon="11.313255"><ele>427.0</ele><time>2026-04-30T08:18:04.336Z</time></trkpt><trkpt lat="43.5355267" lon="11.3131383"><ele>427.0</ele><time>2026-04-30T08:18:05.335Z</time></trkpt><trkpt lat="43.5354567" lon="11.3130483"><ele>426.14285714285717</ele><time>2026-04-30T08:18:06.335Z</time></trkpt><trkpt lat="43.535395" lon="11.312975"><ele>425.2857142857143</ele><time>2026-04-30T08:18:07.336Z</time></trkpt><trkpt lat="43.5353367" lon="11.3129083"><ele>424.42857142857144</ele><time>2026-04-30T08:18:08.335Z</time></trkpt><trkpt lat="43.535285" lon="11.3128517"><ele>423.57142857142856</ele><time>2026-04-30T08:18:09.336Z</time></trkpt><trkpt lat="43.5352383" lon="11.3127883"><ele>422.7142857142857</ele><time>2026-04-30T08:18:10.335Z</time></trkpt><trkpt lat="43.5351917" lon="11.3127233"><ele>421.8571428571429</ele><time>2026-04-30T08:18:11.336Z</time></trkpt><trkpt lat="43.5351467" lon="11.3126517"><ele>421.0</ele><time>2026-04-30T08:18:12.336Z</time></trkpt><trkpt lat="43.535095" lon="11.3125783"><ele>420.8</ele><time>2026-04-30T08:18:13.335Z</time></trkpt><trkpt lat="43.5350383" lon="11.312505"><ele>420.6</ele><time>2026-04-30T08:18:14.336Z</time></trkpt><trkpt lat="43.53497" lon="11.31242"><ele>420.4</ele><time>2026-04-30T08:18:15.336Z</time></trkpt><trkpt lat="43.5349017" lon="11.3123233"><ele>420.2</ele><time>2026-04-30T08:18:16.335Z</time></trkpt><trkpt lat="43.5348333" lon="11.312225"><ele>420.0</ele><time>2026-04-30T08:18:17.336Z</time></trkpt><trkpt lat="43.53476" lon="11.31212"><ele>420.0</ele><time>2026-04-30T08:18:18.335Z</time></trkpt><trkpt lat="43.5346817" lon="11.31201"><ele>420.0</ele><time>2026-04-30T08:18:19.336Z</time></trkpt><trkpt lat="43.534615" lon="11.311895"><ele>420.0</ele><time>2026-04-30T08:18:20.336Z</time></trkpt><trkpt lat="43.5345583" lon="11.3117583"><ele>420.0</ele><time>2026-04-30T08:18:21.336Z</time></trkpt><trkpt lat="43.5345067" lon="11.3116233"><ele>420.0</ele><time>2026-04-30T08:18:22.336Z</time></trkpt><trkpt lat="43.53447" lon="11.3114917"><ele>421.6</ele><time>2026-04-30T08:18:23.335Z</time></trkpt><trkpt lat="43.5344383" lon="11.3113483"><ele>423.2</ele><time>2026-04-30T08:18:24.336Z</time></trkpt><trkpt lat="43.534415" lon="11.311205"><ele>424.79999999999995</ele><time>2026-04-30T08:18:25.335Z</time></trkpt><trkpt lat="43.5343983" lon="11.3110533"><ele>426.4</ele><time>2026-04-30T08:18:26.336Z</time></trkpt><trkpt lat="43.53438" lon="11.3109"><ele>428.0</ele><time>2026-04-30T08:18:27.335Z</time></trkpt><trkpt lat="43.5343633" lon="11.3107417"><ele>428.0</ele><time>2026-04-30T08:18:28.335Z</time></trkpt><trkpt lat="43.5343383" lon="11.31059"><ele>428.0</ele><time>2026-04-30T08:18:29.336Z</time></trkpt><trkpt lat="43.5342917" lon="11.3104433"><ele>428.0</ele><time>2026-04-30T08:18:30.336Z</time></trkpt><trkpt lat="43.5342233" lon="11.3103133"><ele>428.0</ele><time>2026-04-30T08:18:31.336Z</time></trkpt><trkpt lat="43.5341283" lon="11.31019"><ele>424.66666666666663</ele><time>2026-04-30T08:18:32.335Z</time></trkpt><trkpt lat="43.53399" lon="11.3100617"><ele>421.33333333333337</ele><time>2026-04-30T08:18:33.336Z</time></trkpt><trkpt lat="43.5338217" lon="11.3099067"><ele>418.0</ele><time>2026-04-30T08:18:34.335Z</time></trkpt><trkpt lat="43.53364" lon="11.30973"><ele>418.0</ele><time>2026-04-30T08:18:35.336Z</time></trkpt><trkpt lat="43.5334683" lon="11.3095483"><ele>418.0</ele><time>2026-04-30T08:18:36.336Z</time></trkpt><trkpt lat="43.5332933" lon="11.30939"><ele>418.0</ele><time>2026-04-30T08:18:37.336Z</time></trkpt><trkpt lat="43.5331367" lon="11.30925"><ele>418.0</ele><time>2026-04-30T08:18:38.335Z</time></trkpt><trkpt lat="43.532985" lon="11.309115"><ele>418.0</ele><time>2026-04-30T08:18:39.336Z</time></trkpt><trkpt lat="43.5328567" lon="11.309"><ele>418.0</ele><time>2026-04-30T08:18:40.336Z</time></trkpt><trkpt lat="43.5327417" lon="11.308875"><ele>418.0</ele><time>2026-04-30T08:18:41.336Z</time></trkpt><trkpt lat="43.5326533" lon="11.3087133"><ele>418.0</ele><time>2026-04-30T08:18:42.336Z</time></trkpt><trkpt lat="43.5325817" lon="11.3085183"><ele>418.0</ele><time>2026-04-30T08:18:43.336Z</time></trkpt><trkpt lat="43.5325233" lon="11.308295"><ele>418.0</ele><time>2026-04-30T08:18:44.335Z</time></trkpt><trkpt lat="43.5324817" lon="11.30808"><ele>418.0</ele><time>2026-04-30T08:18:45.335Z</time></trkpt><trkpt lat="43.5324383" lon="11.3078583"><ele>418.0</ele><time>2026-04-30T08:18:46.336Z</time></trkpt><trkpt lat="43.53237" lon="11.3076417"><ele>415.6666666666667</ele><time>2026-04-30T08:18:47.336Z</time></trkpt><trkpt lat="43.532285" lon="11.3074317"><ele>413.33333333333337</ele><time>2026-04-30T08:18:48.335Z</time></trkpt><trkpt lat="43.53218" lon="11.30722"><ele>411.0</ele><time>2026-04-30T08:18:49.336Z</time></trkpt><trkpt lat="43.5320783" lon="11.30702"><ele>415.66666666666663</ele><time>2026-04-30T08:18:50.336Z</time></trkpt><trkpt lat="43.5319783" lon="11.3068183"><ele>420.3333333333333</ele><time>2026-04-30T08:18:51.335Z</time></trkpt><trkpt lat="43.5319117" lon="11.30663"><ele>425.0</ele><time>2026-04-30T08:18:52.335Z</time></trkpt><trkpt lat="43.5318567" lon="11.30642"><ele>423.3333333333333</ele><time>2026-04-30T08:18:53.336Z</time></trkpt><trkpt lat="43.5318333" lon="11.3061817"><ele>421.66666666666663</ele><time>2026-04-30T08:18:54.336Z</time></trkpt><trkpt lat="43.53184" lon="11.305935"><ele>420.0</ele><time>2026-04-30T08:18:55.336Z</time></trkpt><trkpt lat="43.5318483" lon="11.3056933"><ele>418.33333333333337</ele><time>2026-04-30T08:18:56.336Z</time></trkpt><trkpt lat="43.53186" lon="11.305465"><ele>416.6666666666667</ele><time>2026-04-30T08:18:57.336Z</time></trkpt><trkpt lat="43.5318717" lon="11.3052533"><ele>415.0</ele><time>2026-04-30T08:18:58.336Z</time></trkpt><trkpt lat="43.5318733" lon="11.305045"><ele>415.0</ele><time>2026-04-30T08:18:59.336Z</time></trkpt><trkpt lat="43.53185" lon="11.304855"><ele>415.0</ele><time>2026-04-30T08:19:00.336Z</time></trkpt><trkpt lat="43.5317883" lon="11.3046817"><ele>415.0</ele><time>2026-04-30T08:19:01.336Z</time></trkpt><trkpt lat="43.5316967" lon="11.3045167"><ele>415.0</ele><time>2026-04-30T08:19:02.335Z</time></trkpt><trkpt lat="43.5315733" lon="11.304365"><ele>413.6666666666667</ele><time>2026-04-30T08:19:03.336Z</time></trkpt><trkpt lat="43.531435" lon="11.3042283"><ele>412.33333333333337</ele><time>2026-04-30T08:19:04.336Z</time></trkpt><trkpt lat="43.5312917" lon="11.30412"><ele>411.0</ele><time>2026-04-30T08:19:05.336Z</time></trkpt><trkpt lat="43.53114" lon="11.3040167"><ele>411.0</ele><time>2026-04-30T08:19:06.335Z</time></trkpt><trkpt lat="43.53098" lon="11.3039333"><ele>411.0</ele><time>2026-04-30T08:19:07.336Z</time></trkpt><trkpt lat="43.5308117" lon="11.3038733"><ele>411.0</ele><time>2026-04-30T08:19:08.336Z</time></trkpt><trkpt lat="43.5306433" lon="11.303835"><ele>403.66666666666663</ele><time>2026-04-30T08:19:09.336Z</time></trkpt><trkpt lat="43.5304717" lon="11.3038317"><ele>396.3333333333333</ele><time>2026-04-30T08:19:10.335Z</time></trkpt><trkpt lat="43.53032" lon="11.30382"><ele>389.0</ele><time>2026-04-30T08:19:11.336Z</time></trkpt><trkpt lat="43.5301533" lon="11.303825"><ele>388.66666666666663</ele><time>2026-04-30T08:19:12.336Z</time></trkpt><trkpt lat="43.5299817" lon="11.30385"><ele>388.33333333333337</ele><time>2026-04-30T08:19:13.336Z</time></trkpt><trkpt lat="43.5297983" lon="11.303885"><ele>388.0</ele><time>2026-04-30T08:19:14.335Z</time></trkpt><trkpt lat="43.5296283" lon="11.3039083"><ele>387.0</ele><time>2026-04-30T08:19:15.336Z</time></trkpt><trkpt lat="43.5294617" lon="11.3039083"><ele>386.0</ele><time>2026-04-30T08:19:16.336Z</time></trkpt><trkpt lat="43.5293" lon="11.3038817"><ele>385.0</ele><time>2026-04-30T08:19:17.336Z</time></trkpt><trkpt lat="43.5291417" lon="11.3038333"><ele>385.0</ele><time>2026-04-30T08:19:18.336Z</time></trkpt><trkpt lat="43.5289883" lon="11.303805"><ele>385.0</ele><time>2026-04-30T08:19:19.336Z</time></trkpt><trkpt lat="43.52884" lon="11.3038"><ele>385.0</ele><time>2026-04-30T08:19:20.336Z</time></trkpt><trkpt lat="43.5287017" lon="11.3038283"><ele>385.0</ele><time>2026-04-30T08:19:21.336Z</time></trkpt><trkpt lat="43.528575" lon="11.3038917"><ele>384.5</ele><time>2026-04-30T08:19:22.336Z</time></trkpt><trkpt lat="43.5284517" lon="11.30395"><ele>384.0</ele><time>2026-04-30T08:19:23.336Z</time></trkpt><trkpt lat="43.5283367" lon="11.3039817"><ele>383.5</ele><time>2026-04-30T08:19:24.335Z</time></trkpt><trkpt lat="43.52822" lon="11.303945"><ele>383.0</ele><time>2026-04-30T08:19:25.336Z</time></trkpt><trkpt lat="43.52811" lon="11.3038533"><ele>383.0</ele><time>2026-04-30T08:19:26.335Z</time></trkpt><trkpt lat="43.52801" lon="11.3037067"><ele>383.0</ele><time>2026-04-30T08:19:27.336Z</time></trkpt><trkpt lat="43.5279267" lon="11.30354"><ele>383.0</ele><time>2026-04-30T08:19:28.336Z</time></trkpt><trkpt lat="43.5278467" lon="11.3033917"><ele>383.0</ele><time>2026-04-30T08:19:29.336Z</time></trkpt><trkpt lat="43.527745" lon="11.3032733"><ele>384.5</ele><time>2026-04-30T08:19:30.336Z</time></trkpt><trkpt lat="43.5276233" lon="11.3031883"><ele>386.0</ele><time>2026-04-30T08:19:31.336Z</time></trkpt><trkpt lat="43.5274767" lon="11.3031233"><ele>387.5</ele><time>2026-04-30T08:19:32.336Z</time></trkpt><trkpt lat="43.52733" lon="11.303045"><ele>389.0</ele><time>2026-04-30T08:19:33.335Z</time></trkpt><trkpt lat="43.5271933" lon="11.30292"><ele>385.66666666666663</ele><time>2026-04-30T08:19:34.335Z</time></trkpt><trkpt lat="43.5270717" lon="11.302775"><ele>382.3333333333333</ele><time>2026-04-30T08:19:35.336Z</time></trkpt><trkpt lat="43.5269633" lon="11.3026233"><ele>379.0</ele><time>2026-04-30T08:19:36.336Z</time></trkpt><trkpt lat="43.526855" lon="11.3024733"><ele>379.0</ele><time>2026-04-30T08:19:37.336Z</time></trkpt><trkpt lat="43.5267633" lon="11.302305"><ele>379.0</ele><time>2026-04-30T08:19:38.335Z</time></trkpt><trkpt lat="43.526685" lon="11.302115"><ele>379.0</ele><time>2026-04-30T08:19:39.336Z</time></trkpt><trkpt lat="43.5266367" lon="11.3019067"><ele>377.66666666666663</ele><time>2026-04-30T08:19:40.335Z</time></trkpt><trkpt lat="43.52661" lon="11.3016883"><ele>376.3333333333333</ele><time>2026-04-30T08:19:41.335Z</time></trkpt><trkpt lat="43.526595" lon="11.3014617"><ele>375.0</ele><time>2026-04-30T08:19:42.336Z</time></trkpt><trkpt lat="43.5265883" lon="11.3012333"><ele>374.0</ele><time>2026-04-30T08:19:43.336Z</time></trkpt><trkpt lat="43.5265633" lon="11.3010217"><ele>373.0</ele><time>2026-04-30T08:19:44.336Z</time></trkpt><trkpt lat="43.5265133" lon="11.300795"><ele>372.0</ele><time>2026-04-30T08:19:45.336Z</time></trkpt><trkpt lat="43.5264567" lon="11.30059"><ele>372.0</ele><time>2026-04-30T08:19:46.336Z</time></trkpt><trkpt lat="43.5263917" lon="11.30039"><ele>372.0</ele><time>2026-04-30T08:19:47.335Z</time></trkpt><trkpt lat="43.5263333" lon="11.3002083"><ele>372.0</ele><time>2026-04-30T08:19:48.336Z</time></trkpt><trkpt lat="43.526265" lon="11.300035"><ele>372.0</ele><time>2026-04-30T08:19:49.335Z</time></trkpt><trkpt lat="43.52616" lon="11.2999"><ele>372.0</ele><time>2026-04-30T08:19:50.336Z</time></trkpt><trkpt lat="43.5260383" lon="11.2998033"><ele>372.0</ele><time>2026-04-30T08:19:51.336Z</time></trkpt><trkpt lat="43.5259" lon="11.2997417"><ele>372.0</ele><time>2026-04-30T08:19:52.336Z</time></trkpt><trkpt lat="43.5257383" lon="11.2997033"><ele>369.3333333333333</ele><time>2026-04-30T08:19:53.336Z</time></trkpt><trkpt lat="43.5255683" lon="11.29969"><ele>366.66666666666663</ele><time>2026-04-30T08:19:54.336Z</time></trkpt><trkpt lat="43.525405" lon="11.29971"><ele>364.0</ele><time>2026-04-30T08:19:55.336Z</time></trkpt><trkpt lat="43.525275" lon="11.2997567"><ele>364.0</ele><time>2026-04-30T08:19:56.336Z</time></trkpt><trkpt lat="43.5251583" lon="11.29983"><ele>364.0</ele><time>2026-04-30T08:19:57.336Z</time></trkpt><trkpt lat="43.5250717" lon="11.2999717"><ele>364.0</ele><time>2026-04-30T08:19:58.336Z</time></trkpt><trkpt lat="43.525005" lon="11.30017"><ele>364.0</ele><time>2026-04-30T08:19:59.336Z</time></trkpt><trkpt lat="43.5249483" lon="11.3003767"><ele>364.0</ele><time>2026-04-30T08:20:00.336Z</time></trkpt><trkpt lat="43.5249017" lon="11.3005733"><ele>364.0</ele><time>2026-04-30T08:20:01.336Z</time></trkpt><trkpt lat="43.5248567" lon="11.3007733"><ele>364.0</ele><time>2026-04-30T08:20:02.336Z</time></trkpt><trkpt lat="43.52485" lon="11.300965"><ele>364.0</ele><time>2026-04-30T08:20:03.336Z</time></trkpt><trkpt lat="43.5248683" lon="11.3011383"><ele>363.66666666666663</ele><time>2026-04-30T08:20:04.336Z</time></trkpt><trkpt lat="43.5249367" lon="11.3013133"><ele>363.3333333333333</ele><time>2026-04-30T08:20:05.336Z</time></trkpt><trkpt lat="43.525045" lon="11.3014683"><ele>363.0</ele><time>2026-04-30T08:20:06.335Z</time></trkpt><trkpt lat="43.525165" lon="11.3016067"><ele>361.75</ele><time>2026-04-30T08:20:07.336Z</time></trkpt><trkpt lat="43.525295" lon="11.3017267"><ele>360.5</ele><time>2026-04-30T08:20:08.336Z</time></trkpt><trkpt lat="43.5254033" lon="11.3018367"><ele>359.25</ele><time>2026-04-30T08:20:09.335Z</time></trkpt><trkpt lat="43.52549" lon="11.3019383"><ele>358.0</ele><time>2026-04-30T08:20:10.336Z</time></trkpt><trkpt lat="43.5255483" lon="11.3020583"><ele>359.3333333333333</ele><time>2026-04-30T08:20:11.335Z</time></trkpt><trkpt lat="43.52559" lon="11.3021833"><ele>360.66666666666663</ele><time>2026-04-30T08:20:12.335Z</time></trkpt><trkpt lat="43.5256017" lon="11.3023117"><ele>362.0</ele><time>2026-04-30T08:20:13.336Z</time></trkpt><trkpt lat="43.5255933" lon="11.3024267"><ele>363.3333333333333</ele><time>2026-04-30T08:20:14.335Z</time></trkpt><trkpt lat="43.52557" lon="11.3025183"><ele>364.6666666666667</ele><time>2026-04-30T08:20:15.336Z</time></trkpt><trkpt lat="43.525535" lon="11.3025933"><ele>366.0</ele><time>2026-04-30T08:20:16.336Z</time></trkpt><trkpt lat="43.5254417" lon="11.3026483"><ele>364.1666666666667</ele><time>2026-04-30T08:20:18.336Z</time></trkpt><trkpt lat="43.52533" lon="11.30266"><ele>362.3333333333333</ele><time>2026-04-30T08:20:20.336Z</time></trkpt><trkpt lat="43.5252633" lon="11.3026867"><ele>360.5</ele><time>2026-04-30T08:20:21.335Z</time></trkpt><trkpt lat="43.5251883" lon="11.302725"><ele>358.66666666666663</ele><time>2026-04-30T08:20:22.335Z</time></trkpt><trkpt lat="43.525105" lon="11.30275"><ele>356.8333333333333</ele><time>2026-04-30T08:20:23.336Z</time></trkpt><trkpt lat="43.5250133" lon="11.3027633"><ele>355.0</ele><time>2026-04-30T08:20:24.335Z</time></trkpt><trkpt lat="43.5249117" lon="11.302775"><ele>355.0</ele><time>2026-04-30T08:20:25.336Z</time></trkpt><trkpt lat="43.5247983" lon="11.3028067"><ele>355.0</ele><time>2026-04-30T08:20:26.336Z</time></trkpt><trkpt lat="43.52469" lon="11.30286"><ele>355.0</ele><time>2026-04-30T08:20:27.335Z</time></trkpt><trkpt lat="43.5245867" lon="11.3029433"><ele>355.0</ele><time>2026-04-30T08:20:28.336Z</time></trkpt><trkpt lat="43.524495" lon="11.3030367"><ele>353.0</ele><time>2026-04-30T08:20:29.336Z</time></trkpt><trkpt lat="43.524415" lon="11.30314"><ele>351.0</ele><time>2026-04-30T08:20:30.336Z</time></trkpt><trkpt lat="43.52436" lon="11.303265"><ele>349.0</ele><time>2026-04-30T08:20:31.336Z</time></trkpt><trkpt lat="43.5243367" lon="11.3034083"><ele>347.0</ele><time>2026-04-30T08:20:32.336Z</time></trkpt><trkpt lat="43.5243633" lon="11.3035367"><ele>345.0</ele><time>2026-04-30T08:20:33.336Z</time></trkpt><trkpt lat="43.524425" lon="11.3036483"><ele>345.0</ele><time>2026-04-30T08:20:34.336Z</time></trkpt><trkpt lat="43.5245133" lon="11.3037467"><ele>345.0</ele><time>2026-04-30T08:20:35.335Z</time></trkpt><trkpt lat="43.5246367" lon="11.3038283"><ele>345.0</ele><time>2026-04-30T08:20:36.336Z</time></trkpt><trkpt lat="43.5247617" lon="11.3038967"><ele>345.0</ele><time>2026-04-30T08:20:37.336Z</time></trkpt><trkpt lat="43.5248733" lon="11.303985"><ele>346.0</ele><time>2026-04-30T08:20:38.336Z</time></trkpt><trkpt lat="43.524995" lon="11.3040917"><ele>347.0</ele><time>2026-04-30T08:20:39.335Z</time></trkpt><trkpt lat="43.5251033" lon="11.3042417"><ele>348.0</ele><time>2026-04-30T08:20:40.336Z</time></trkpt><trkpt lat="43.525205" lon="11.304425"><ele>348.0</ele><time>2026-04-30T08:20:41.336Z</time></trkpt><trkpt lat="43.5252967" lon="11.3046133"><ele>348.0</ele><time>2026-04-30T08:20:42.336Z</time></trkpt><trkpt lat="43.525375" lon="11.304795"><ele>348.0</ele><time>2026-04-30T08:20:43.336Z</time></trkpt><trkpt lat="43.5254633" lon="11.30497"><ele>347.75</ele><time>2026-04-30T08:20:44.336Z</time></trkpt><trkpt lat="43.525535" lon="11.30513"><ele>347.5</ele><time>2026-04-30T08:20:45.335Z</time></trkpt><trkpt lat="43.5255983" lon="11.3052833"><ele>347.25</ele><time>2026-04-30T08:20:46.336Z</time></trkpt><trkpt lat="43.525665" lon="11.3054367"><ele>347.0</ele><time>2026-04-30T08:20:47.336Z</time></trkpt><trkpt lat="43.525715" lon="11.3055867"><ele>347.0</ele><time>2026-04-30T08:20:48.336Z</time></trkpt><trkpt lat="43.525745" lon="11.3057367"><ele>347.0</ele><time>2026-04-30T08:20:49.336Z</time></trkpt><trkpt lat="43.525745" lon="11.3058767"><ele>347.0</ele><time>2026-04-30T08:20:50.336Z</time></trkpt><trkpt lat="43.525715" lon="11.3060067"><ele>347.0</ele><time>2026-04-30T08:20:51.336Z</time></trkpt><trkpt lat="43.52566" lon="11.30613"><ele>347.0</ele><time>2026-04-30T08:20:52.335Z</time></trkpt><trkpt lat="43.5255817" lon="11.3062183"><ele>347.0</ele><time>2026-04-30T08:20:53.336Z</time></trkpt><trkpt lat="43.5254733" lon="11.3062533"><ele>347.0</ele><time>2026-04-30T08:20:54.335Z</time></trkpt><trkpt lat="43.5253517" lon="11.30625"><ele>347.0</ele><time>2026-04-30T08:20:55.336Z</time></trkpt><trkpt lat="43.5252217" lon="11.30622"><ele>347.0</ele><time>2026-04-30T08:20:56.336Z</time></trkpt><trkpt lat="43.5250883" lon="11.3061867"><ele>344.0</ele><time>2026-04-30T08:20:57.336Z</time></trkpt><trkpt lat="43.52494" lon="11.3061583"><ele>341.0</ele><time>2026-04-30T08:20:58.336Z</time></trkpt><trkpt lat="43.5247683" lon="11.3061317"><ele>338.0</ele><time>2026-04-30T08:20:59.336Z</time></trkpt><trkpt lat="43.5245817" lon="11.3061017"><ele>337.6666666666667</ele><time>2026-04-30T08:21:00.336Z</time></trkpt><trkpt lat="43.5243933" lon="11.3060483"><ele>337.3333333333333</ele><time>2026-04-30T08:21:01.336Z</time></trkpt><trkpt lat="43.5242067" lon="11.3059967"><ele>337.0</ele><time>2026-04-30T08:21:02.336Z</time></trkpt><trkpt lat="43.5240217" lon="11.30594"><ele>337.0</ele><time>2026-04-30T08:21:03.335Z</time></trkpt><trkpt lat="43.523845" lon="11.305895"><ele>337.0</ele><time>2026-04-30T08:21:04.335Z</time></trkpt><trkpt lat="43.5236833" lon="11.30585"><ele>337.0</ele><time>2026-04-30T08:21:05.335Z</time></trkpt><trkpt lat="43.5235317" lon="11.3057983"><ele>336.66666666666663</ele><time>2026-04-30T08:21:06.336Z</time></trkpt><trkpt lat="43.523375" lon="11.3057567"><ele>336.3333333333333</ele><time>2026-04-30T08:21:07.336Z</time></trkpt><trkpt lat="43.5232233" lon="11.3057233"><ele>336.0</ele><time>2026-04-30T08:21:08.336Z</time></trkpt><trkpt lat="43.5230733" lon="11.3056683"><ele>336.0</ele><time>2026-04-30T08:21:09.335Z</time></trkpt><trkpt lat="43.5229233" lon="11.305585"><ele>336.0</ele><time>2026-04-30T08:21:10.336Z</time></trkpt><trkpt lat="43.5227683" lon="11.3054667"><ele>336.0</ele><time>2026-04-30T08:21:11.336Z</time></trkpt><trkpt lat="43.52261" lon="11.30536"><ele>331.0</ele><time>2026-04-30T08:21:12.336Z</time></trkpt><trkpt lat="43.5224617" lon="11.30526"><ele>326.0</ele><time>2026-04-30T08:21:13.336Z</time></trkpt><trkpt lat="43.5223183" lon="11.305175"><ele>321.0</ele><time>2026-04-30T08:21:14.335Z</time></trkpt><trkpt lat="43.52216" lon="11.3051083"><ele>319.75</ele><time>2026-04-30T08:21:15.336Z</time></trkpt><trkpt lat="43.52201" lon="11.3050617"><ele>318.5</ele><time>2026-04-30T08:21:16.336Z</time></trkpt><trkpt lat="43.5218717" lon="11.30502"><ele>317.25</ele><time>2026-04-30T08:21:17.336Z</time></trkpt><trkpt lat="43.5217417" lon="11.305005"><ele>316.0</ele><time>2026-04-30T08:21:18.336Z</time></trkpt><trkpt lat="43.5216083" lon="11.3050083"><ele>316.0</ele><time>2026-04-30T08:21:19.336Z</time></trkpt><trkpt lat="43.5214717" lon="11.3050183"><ele>316.0</ele><time>2026-04-30T08:21:20.335Z</time></trkpt><trkpt lat="43.5213433" lon="11.3050483"><ele>316.0</ele><time>2026-04-30T08:21:21.336Z</time></trkpt><trkpt lat="43.5212333" lon="11.3050883"><ele>316.0</ele><time>2026-04-30T08:21:22.336Z</time></trkpt><trkpt lat="43.5211383" lon="11.3051667"><ele>314.25</ele><time>2026-04-30T08:21:23.336Z</time></trkpt><trkpt lat="43.5210567" lon="11.305275"><ele>312.5</ele><time>2026-04-30T08:21:24.336Z</time></trkpt><trkpt lat="43.52101" lon="11.3054217"><ele>310.75</ele><time>2026-04-30T08:21:25.335Z</time></trkpt><trkpt lat="43.5209917" lon="11.3055867"><ele>309.0</ele><time>2026-04-30T08:21:26.336Z</time></trkpt><trkpt lat="43.5210067" lon="11.3057767"><ele>309.0</ele><time>2026-04-30T08:21:27.336Z</time></trkpt><trkpt lat="43.5210333" lon="11.3060167"><ele>309.0</ele><time>2026-04-30T08:21:28.335Z</time></trkpt><trkpt lat="43.5210683" lon="11.3063033"><ele>309.0</ele><time>2026-04-30T08:21:29.335Z</time></trkpt><trkpt lat="43.5210933" lon="11.3065783"><ele>307.6666666666667</ele><time>2026-04-30T08:21:30.335Z</time></trkpt><trkpt lat="43.5211033" lon="11.306825"><ele>306.33333333333337</ele><time>2026-04-30T08:21:31.336Z</time></trkpt><trkpt lat="43.5211167" lon="11.307045"><ele>305.0</ele><time>2026-04-30T08:21:32.336Z</time></trkpt><trkpt lat="43.5211117" lon="11.3072183"><ele>305.2</ele><time>2026-04-30T08:21:33.336Z</time></trkpt><trkpt lat="43.5210733" lon="11.3073683"><ele>305.4</ele><time>2026-04-30T08:21:34.336Z</time></trkpt><trkpt lat="43.5210017" lon="11.3074917"><ele>305.6</ele><time>2026-04-30T08:21:35.335Z</time></trkpt><trkpt lat="43.520905" lon="11.3075733"><ele>305.8</ele><time>2026-04-30T08:21:36.336Z</time></trkpt><trkpt lat="43.5208067" lon="11.3076133"><ele>306.0</ele><time>2026-04-30T08:21:37.335Z</time></trkpt><trkpt lat="43.520695" lon="11.3076333"><ele>306.0</ele><time>2026-04-30T08:21:38.335Z</time></trkpt><trkpt lat="43.52059" lon="11.30769"><ele>306.0</ele><time>2026-04-30T08:21:39.336Z</time></trkpt><trkpt lat="43.5204933" lon="11.3078033"><ele>306.0</ele><time>2026-04-30T08:21:40.336Z</time></trkpt><trkpt lat="43.5204083" lon="11.3079817"><ele>306.0</ele><time>2026-04-30T08:21:41.336Z</time></trkpt><trkpt lat="43.5203333" lon="11.3082067"><ele>302.3333333333333</ele><time>2026-04-30T08:21:42.335Z</time></trkpt><trkpt lat="43.5202567" lon="11.3084267"><ele>298.66666666666663</ele><time>2026-04-30T08:21:43.335Z</time></trkpt><trkpt lat="43.52019" lon="11.30863"><ele>295.0</ele><time>2026-04-30T08:21:44.336Z</time></trkpt><trkpt lat="43.5201233" lon="11.3087983"><ele>294.5</ele><time>2026-04-30T08:21:45.335Z</time></trkpt><trkpt lat="43.5200867" lon="11.3089783"><ele>294.0</ele><time>2026-04-30T08:21:46.336Z</time></trkpt><trkpt lat="43.520095" lon="11.3091767"><ele>293.5</ele><time>2026-04-30T08:21:47.336Z</time></trkpt><trkpt lat="43.5201367" lon="11.3093817"><ele>293.0</ele><time>2026-04-30T08:21:48.336Z</time></trkpt><trkpt lat="43.5201683" lon="11.3096117"><ele>291.0</ele><time>2026-04-30T08:21:49.335Z</time></trkpt><trkpt lat="43.5201783" lon="11.3098567"><ele>289.0</ele><time>2026-04-30T08:21:50.336Z</time></trkpt><trkpt lat="43.5201833" lon="11.310105"><ele>287.0</ele><time>2026-04-30T08:21:51.335Z</time></trkpt><trkpt lat="43.5201867" lon="11.3103583"><ele>286.6666666666667</ele><time>2026-04-30T08:21:52.336Z</time></trkpt><trkpt lat="43.5201817" lon="11.3106033"><ele>286.3333333333333</ele><time>2026-04-30T08:21:53.336Z</time></trkpt><trkpt lat="43.5201867" lon="11.3108433"><ele>286.0</ele><time>2026-04-30T08:21:54.336Z</time></trkpt><trkpt lat="43.5201917" lon="11.311065"><ele>286.0</ele><time>2026-04-30T08:21:55.336Z</time></trkpt><trkpt lat="43.5201867" lon="11.3112717"><ele>286.0</ele><time>2026-04-30T08:21:56.336Z</time></trkpt><trkpt lat="43.5201683" lon="11.3114567"><ele>286.0</ele><time>2026-04-30T08:21:57.336Z</time></trkpt><trkpt lat="43.520115" lon="11.3116133"><ele>286.0</ele><time>2026-04-30T08:21:58.336Z</time></trkpt><trkpt lat="43.5200333" lon="11.3117483"><ele>285.75</ele><time>2026-04-30T08:21:59.336Z</time></trkpt><trkpt lat="43.5199417" lon="11.31185"><ele>285.5</ele><time>2026-04-30T08:22:00.336Z</time></trkpt><trkpt lat="43.5198267" lon="11.31189"><ele>285.25</ele><time>2026-04-30T08:22:01.336Z</time></trkpt><trkpt lat="43.5196783" lon="11.311865"><ele>285.0</ele><time>2026-04-30T08:22:02.335Z</time></trkpt><trkpt lat="43.51952" lon="11.3118117"><ele>285.0</ele><time>2026-04-30T08:22:03.336Z</time></trkpt><trkpt lat="43.5193683" lon="11.31175"><ele>285.0</ele><time>2026-04-30T08:22:04.336Z</time></trkpt><trkpt lat="43.5192283" lon="11.3116917"><ele>285.0</ele><time>2026-04-30T08:22:05.336Z</time></trkpt><trkpt lat="43.519095" lon="11.3116383"><ele>285.0</ele><time>2026-04-30T08:22:06.336Z</time></trkpt><trkpt lat="43.5189667" lon="11.3116083"><ele>285.0</ele><time>2026-04-30T08:22:07.336Z</time></trkpt><trkpt lat="43.5188483" lon="11.311585"><ele>285.0</ele><time>2026-04-30T08:22:08.336Z</time></trkpt><trkpt lat="43.5187367" lon="11.31159"><ele>285.0</ele><time>2026-04-30T08:22:09.336Z</time></trkpt><trkpt lat="43.51863" lon="11.31161"><ele>285.0</ele><time>2026-04-30T08:22:10.336Z</time></trkpt><trkpt lat="43.5185267" lon="11.3116567"><ele>285.0</ele><time>2026-04-30T08:22:11.336Z</time></trkpt><trkpt lat="43.5184217" lon="11.3117183"><ele>285.2</ele><time>2026-04-30T08:22:12.335Z</time></trkpt><trkpt lat="43.51833" lon="11.31177"><ele>285.4</ele><time>2026-04-30T08:22:13.336Z</time></trkpt><trkpt lat="43.5182383" lon="11.311805"><ele>285.6</ele><time>2026-04-30T08:22:14.336Z</time></trkpt><trkpt lat="43.5181417" lon="11.31185"><ele>285.8</ele><time>2026-04-30T08:22:15.336Z</time></trkpt><trkpt lat="43.5180467" lon="11.3118867"><ele>286.0</ele><time>2026-04-30T08:22:16.336Z</time></trkpt><trkpt lat="43.517945" lon="11.3119267"><ele>285.6</ele><time>2026-04-30T08:22:17.336Z</time></trkpt><trkpt lat="43.5178383" lon="11.3119633"><ele>285.20000000000005</ele><time>2026-04-30T08:22:18.336Z</time></trkpt><trkpt lat="43.5177317" lon="11.3120017"><ele>284.79999999999995</ele><time>2026-04-30T08:22:19.336Z</time></trkpt><trkpt lat="43.517625" lon="11.3120483"><ele>284.4</ele><time>2026-04-30T08:22:20.336Z</time></trkpt><trkpt lat="43.5175133" lon="11.3120883"><ele>284.0</ele><time>2026-04-30T08:22:21.336Z</time></trkpt><trkpt lat="43.5173983" lon="11.3121333"><ele>284.0</ele><time>2026-04-30T08:22:22.336Z</time></trkpt><trkpt lat="43.5172883" lon="11.3121883"><ele>284.0</ele><time>2026-04-30T08:22:23.336Z</time></trkpt><trkpt lat="43.5171817" lon="11.3122333"><ele>284.0</ele><time>2026-04-30T08:22:24.336Z</time></trkpt><trkpt lat="43.517065" lon="11.312275"><ele>284.0</ele><time>2026-04-30T08:22:25.336Z</time></trkpt><trkpt lat="43.5169533" lon="11.3123233"><ele>285.0</ele><time>2026-04-30T08:22:26.336Z</time></trkpt><trkpt lat="43.5168483" lon="11.312385"><ele>286.0</ele><time>2026-04-30T08:22:27.336Z</time></trkpt><trkpt lat="43.5167483" lon="11.3124733"><ele>287.0</ele><time>2026-04-30T08:22:28.336Z</time></trkpt><trkpt lat="43.5166567" lon="11.312575"><ele>288.0</ele><time>2026-04-30T08:22:29.336Z</time></trkpt><trkpt lat="43.51658" lon="11.3127067"><ele>288.0</ele><time>2026-04-30T08:22:30.336Z</time></trkpt><trkpt lat="43.5165283" lon="11.312875"><ele>288.0</ele><time>2026-04-30T08:22:31.336Z</time></trkpt><trkpt lat="43.5165" lon="11.313065"><ele>288.0</ele><time>2026-04-30T08:22:32.335Z</time></trkpt><trkpt lat="43.5164967" lon="11.3132567"><ele>288.0</ele><time>2026-04-30T08:22:33.335Z</time></trkpt><trkpt lat="43.516505" lon="11.3134533"><ele>290.0</ele><time>2026-04-30T08:22:34.336Z</time></trkpt><trkpt lat="43.5165283" lon="11.3136317"><ele>292.0</ele><time>2026-04-30T08:22:35.336Z</time></trkpt><trkpt lat="43.51654" lon="11.3138033"><ele>294.0</ele><time>2026-04-30T08:22:36.335Z</time></trkpt><trkpt lat="43.5165417" lon="11.3139667"><ele>296.0</ele><time>2026-04-30T08:22:37.336Z</time></trkpt><trkpt lat="43.5165533" lon="11.3141033"><ele>296.0</ele><time>2026-04-30T08:22:38.336Z</time></trkpt><trkpt lat="43.516575" lon="11.3142267"><ele>296.0</ele><time>2026-04-30T08:22:39.335Z</time></trkpt><trkpt lat="43.516585" lon="11.314335"><ele>296.0</ele><time>2026-04-30T08:22:40.336Z</time></trkpt><trkpt lat="43.5165917" lon="11.3144567"><ele>296.0</ele><time>2026-04-30T08:22:41.335Z</time></trkpt><trkpt lat="43.516595" lon="11.314605"><ele>296.0</ele><time>2026-04-30T08:22:42.336Z</time></trkpt><trkpt lat="43.5165817" lon="11.3147767"><ele>296.0</ele><time>2026-04-30T08:22:43.336Z</time></trkpt><trkpt lat="43.5165417" lon="11.3149567"><ele>296.0</ele><time>2026-04-30T08:22:44.335Z</time></trkpt><trkpt lat="43.5164833" lon="11.3151317"><ele>296.0</ele><time>2026-04-30T08:22:45.336Z</time></trkpt><trkpt lat="43.5164117" lon="11.315305"><ele>296.0</ele><time>2026-04-30T08:22:46.336Z</time></trkpt><trkpt lat="43.5163217" lon="11.3154867"><ele>294.6666666666667</ele><time>2026-04-30T08:22:47.336Z</time></trkpt><trkpt lat="43.5162317" lon="11.3156617"><ele>293.3333333333333</ele><time>2026-04-30T08:22:48.335Z</time></trkpt><trkpt lat="43.51612" lon="11.3158283"><ele>292.0</ele><time>2026-04-30T08:22:49.336Z</time></trkpt><trkpt lat="43.515985" lon="11.3159817"><ele>292.0</ele><time>2026-04-30T08:22:50.336Z</time></trkpt><trkpt lat="43.5158517" lon="11.3161283"><ele>292.0</ele><time>2026-04-30T08:22:51.335Z</time></trkpt><trkpt lat="43.51573" lon="11.3162717"><ele>292.0</ele><time>2026-04-30T08:22:52.336Z</time></trkpt><trkpt lat="43.5156283" lon="11.3164183"><ele>294.66666666666663</ele><time>2026-04-30T08:22:53.335Z</time></trkpt><trkpt lat="43.5155367" lon="11.3166"><ele>297.3333333333333</ele><time>2026-04-30T08:22:54.336Z</time></trkpt><trkpt lat="43.5154733" lon="11.3167983"><ele>300.0</ele><time>2026-04-30T08:22:55.336Z</time></trkpt><trkpt lat="43.5154383" lon="11.3170067"><ele>297.6666666666667</ele><time>2026-04-30T08:22:56.336Z</time></trkpt><trkpt lat="43.5153967" lon="11.3172233"><ele>295.33333333333337</ele><time>2026-04-30T08:22:57.336Z</time></trkpt><trkpt lat="43.5153317" lon="11.31743"><ele>293.0</ele><time>2026-04-30T08:22:58.335Z</time></trkpt><trkpt lat="43.515245" lon="11.317615"><ele>293.0</ele><time>2026-04-30T08:22:59.336Z</time></trkpt><trkpt lat="43.5151317" lon="11.3177817"><ele>293.0</ele><time>2026-04-30T08:23:00.336Z</time></trkpt><trkpt lat="43.5150033" lon="11.317925"><ele>293.0</ele><time>2026-04-30T08:23:01.335Z</time></trkpt><trkpt lat="43.5148783" lon="11.3180283"><ele>293.6666666666667</ele><time>2026-04-30T08:23:02.336Z</time></trkpt><trkpt lat="43.5147583" lon="11.3181583"><ele>294.3333333333333</ele><time>2026-04-30T08:23:03.336Z</time></trkpt><trkpt lat="43.51465" lon="11.3183333"><ele>295.0</ele><time>2026-04-30T08:23:04.335Z</time></trkpt><trkpt lat="43.5145517" lon="11.3185267"><ele>295.0</ele><time>2026-04-30T08:23:05.336Z</time></trkpt><trkpt lat="43.5144533" lon="11.31871"><ele>295.0</ele><time>2026-04-30T08:23:06.336Z</time></trkpt><trkpt lat="43.514355" lon="11.3188933"><ele>295.0</ele><time>2026-04-30T08:23:07.336Z</time></trkpt><trkpt lat="43.514255" lon="11.319065"><ele>296.0</ele><time>2026-04-30T08:23:08.335Z</time></trkpt><trkpt lat="43.51414" lon="11.3192433"><ele>297.0</ele><time>2026-04-30T08:23:09.336Z</time></trkpt><trkpt lat="43.5140517" lon="11.3194317"><ele>298.0</ele><time>2026-04-30T08:23:10.336Z</time></trkpt><trkpt lat="43.5139583" lon="11.31963"><ele>298.3333333333333</ele><time>2026-04-30T08:23:11.336Z</time></trkpt><trkpt lat="43.51387" lon="11.3198217"><ele>298.6666666666667</ele><time>2026-04-30T08:23:12.336Z</time></trkpt><trkpt lat="43.513775" lon="11.32001"><ele>299.0</ele><time>2026-04-30T08:23:13.336Z</time></trkpt><trkpt lat="43.51367" lon="11.320195"><ele>300.0</ele><time>2026-04-30T08:23:14.336Z</time></trkpt><trkpt lat="43.5135517" lon="11.3203533"><ele>301.0</ele><time>2026-04-30T08:23:15.336Z</time></trkpt><trkpt lat="43.513425" lon="11.3204983"><ele>302.0</ele><time>2026-04-30T08:23:16.336Z</time></trkpt><trkpt lat="43.513275" lon="11.3206433"><ele>302.0</ele><time>2026-04-30T08:23:17.336Z</time></trkpt><trkpt lat="43.51312" lon="11.320765"><ele>302.0</ele><time>2026-04-30T08:23:18.335Z</time></trkpt><trkpt lat="43.5129567" lon="11.320885"><ele>302.0</ele><time>2026-04-30T08:23:19.336Z</time></trkpt><trkpt lat="43.5127967" lon="11.3210167"><ele>300.6666666666667</ele><time>2026-04-30T08:23:20.336Z</time></trkpt><trkpt lat="43.5126417" lon="11.3211167"><ele>299.3333333333333</ele><time>2026-04-30T08:23:21.336Z</time></trkpt><trkpt lat="43.5124817" lon="11.3212083"><ele>298.0</ele><time>2026-04-30T08:23:22.336Z</time></trkpt><trkpt lat="43.5123067" lon="11.3212783"><ele>298.0</ele><time>2026-04-30T08:23:23.336Z</time></trkpt><trkpt lat="43.512145" lon="11.3213317"><ele>298.0</ele><time>2026-04-30T08:23:24.336Z</time></trkpt><trkpt lat="43.5119867" lon="11.3213867"><ele>298.0</ele><time>2026-04-30T08:23:25.336Z</time></trkpt><trkpt lat="43.51183" lon="11.3214667"><ele>299.3333333333333</ele><time>2026-04-30T08:23:26.336Z</time></trkpt><trkpt lat="43.5116867" lon="11.3215967"><ele>300.6666666666667</ele><time>2026-04-30T08:23:27.335Z</time></trkpt><trkpt lat="43.5115417" lon="11.3217433"><ele>302.0</ele><time>2026-04-30T08:23:28.336Z</time></trkpt><trkpt lat="43.5113817" lon="11.3219133"><ele>301.33333333333337</ele><time>2026-04-30T08:23:29.336Z</time></trkpt><trkpt lat="43.5112233" lon="11.322095"><ele>300.6666666666667</ele><time>2026-04-30T08:23:30.336Z</time></trkpt><trkpt lat="43.51107" lon="11.3222683"><ele>300.0</ele><time>2026-04-30T08:23:31.336Z</time></trkpt><trkpt lat="43.5109133" lon="11.3224633"><ele>300.0</ele><time>2026-04-30T08:23:32.335Z</time></trkpt><trkpt lat="43.510755" lon="11.322665"><ele>300.0</ele><time>2026-04-30T08:23:33.335Z</time></trkpt><trkpt lat="43.5105983" lon="11.3228633"><ele>300.0</ele><time>2026-04-30T08:23:34.335Z</time></trkpt><trkpt lat="43.510455" lon="11.3230383"><ele>300.6666666666667</ele><time>2026-04-30T08:23:35.336Z</time></trkpt><trkpt lat="43.51032" lon="11.3232067"><ele>301.33333333333337</ele><time>2026-04-30T08:23:36.336Z</time></trkpt><trkpt lat="43.5101883" lon="11.3233367"><ele>302.0</ele><time>2026-04-30T08:23:37.336Z</time></trkpt><trkpt lat="43.5100567" lon="11.323465"><ele>302.0</ele><time>2026-04-30T08:23:38.335Z</time></trkpt><trkpt lat="43.5099117" lon="11.3235733"><ele>302.0</ele><time>2026-04-30T08:23:39.336Z</time></trkpt><trkpt lat="43.50976" lon="11.32367"><ele>302.0</ele><time>2026-04-30T08:23:40.336Z</time></trkpt><trkpt lat="43.5096033" lon="11.3237233"><ele>301.33333333333337</ele><time>2026-04-30T08:23:41.336Z</time></trkpt><trkpt lat="43.509425" lon="11.3237683"><ele>300.6666666666667</ele><time>2026-04-30T08:23:42.336Z</time></trkpt><trkpt lat="43.5092433" lon="11.3237767"><ele>300.0</ele><time>2026-04-30T08:23:43.336Z</time></trkpt><trkpt lat="43.5090783" lon="11.3237633"><ele>300.0</ele><time>2026-04-30T08:23:44.336Z</time></trkpt><trkpt lat="43.5089133" lon="11.3237567"><ele>300.0</ele><time>2026-04-30T08:23:45.336Z</time></trkpt><trkpt lat="43.50875" lon="11.3237717"><ele>300.0</ele><time>2026-04-30T08:23:46.336Z</time></trkpt><trkpt lat="43.50859" lon="11.3238167"><ele>302.6666666666667</ele><time>2026-04-30T08:23:47.336Z</time></trkpt><trkpt lat="43.5084583" lon="11.3239083"><ele>305.33333333333337</ele><time>2026-04-30T08:23:48.336Z</time></trkpt><trkpt lat="43.5083283" lon="11.3240433"><ele>308.0</ele><time>2026-04-30T08:23:49.336Z</time></trkpt><trkpt lat="43.5082017" lon="11.3242133"><ele>308.0</ele><time>2026-04-30T08:23:50.336Z</time></trkpt><trkpt lat="43.5080867" lon="11.3244117"><ele>308.0</ele><time>2026-04-30T08:23:51.336Z</time></trkpt><trkpt lat="43.5079783" lon="11.3246317"><ele>308.0</ele><time>2026-04-30T08:23:52.336Z</time></trkpt><trkpt lat="43.5078867" lon="11.3248617"><ele>306.33333333333337</ele><time>2026-04-30T08:23:53.335Z</time></trkpt><trkpt lat="43.5078033" lon="11.3250983"><ele>304.6666666666667</ele><time>2026-04-30T08:23:54.336Z</time></trkpt><trkpt lat="43.50773" lon="11.32532"><ele>303.0</ele><time>2026-04-30T08:23:55.336Z</time></trkpt><trkpt lat="43.507665" lon="11.3255333"><ele>303.6666666666667</ele><time>2026-04-30T08:23:56.336Z</time></trkpt><trkpt lat="43.5076067" lon="11.3257467"><ele>304.33333333333337</ele><time>2026-04-30T08:23:57.335Z</time></trkpt><trkpt lat="43.5075517" lon="11.32595"><ele>305.0</ele><time>2026-04-30T08:23:58.336Z</time></trkpt><trkpt lat="43.50751" lon="11.3261567"><ele>305.0</ele><time>2026-04-30T08:23:59.336Z</time></trkpt><trkpt lat="43.507485" lon="11.3263533"><ele>305.0</ele><time>2026-04-30T08:24:00.336Z</time></trkpt><trkpt lat="43.5074517" lon="11.3265367"><ele>305.0</ele><time>2026-04-30T08:24:01.336Z</time></trkpt><trkpt lat="43.507415" lon="11.3267083"><ele>305.0</ele><time>2026-04-30T08:24:02.336Z</time></trkpt><trkpt lat="43.507365" lon="11.32686"><ele>305.25</ele><time>2026-04-30T08:24:03.336Z</time></trkpt><trkpt lat="43.50729" lon="11.3269817"><ele>305.5</ele><time>2026-04-30T08:24:04.336Z</time></trkpt><trkpt lat="43.50719" lon="11.3270633"><ele>305.75</ele><time>2026-04-30T08:24:05.336Z</time></trkpt><trkpt lat="43.5070783" lon="11.32712"><ele>306.0</ele><time>2026-04-30T08:24:06.336Z</time></trkpt><trkpt lat="43.506945" lon="11.3271767"><ele>304.0</ele><time>2026-04-30T08:24:07.336Z</time></trkpt><trkpt lat="43.5068083" lon="11.3272233"><ele>302.0</ele><time>2026-04-30T08:24:08.336Z</time></trkpt><trkpt lat="43.5066733" lon="11.3272833"><ele>300.0</ele><time>2026-04-30T08:24:09.336Z</time></trkpt><trkpt lat="43.50655" lon="11.3273433"><ele>298.0</ele><time>2026-04-30T08:24:10.336Z</time></trkpt><trkpt lat="43.506445" lon="11.3274183"><ele>298.0</ele><time>2026-04-30T08:24:11.336Z</time></trkpt><trkpt lat="43.50634" lon="11.327485"><ele>298.0</ele><time>2026-04-30T08:24:12.335Z</time></trkpt><trkpt lat="43.506235" lon="11.327565"><ele>298.0</ele><time>2026-04-30T08:24:13.336Z</time></trkpt><trkpt lat="43.50614" lon="11.3276533"><ele>298.0</ele><time>2026-04-30T08:24:14.335Z</time></trkpt><trkpt lat="43.50603" lon="11.327755"><ele>298.3333333333333</ele><time>2026-04-30T08:24:15.336Z</time></trkpt><trkpt lat="43.5059117" lon="11.327875"><ele>298.6666666666667</ele><time>2026-04-30T08:24:16.335Z</time></trkpt><trkpt lat="43.5057867" lon="11.328"><ele>299.0</ele><time>2026-04-30T08:24:17.336Z</time></trkpt><trkpt lat="43.5056533" lon="11.3281267"><ele>299.33333333333337</ele><time>2026-04-30T08:24:18.335Z</time></trkpt><trkpt lat="43.50552" lon="11.3282567"><ele>299.6666666666667</ele><time>2026-04-30T08:24:19.336Z</time></trkpt><trkpt lat="43.505395" lon="11.3283917"><ele>300.0</ele><time>2026-04-30T08:24:20.336Z</time></trkpt><trkpt lat="43.5052617" lon="11.3285233"><ele>301.0</ele><time>2026-04-30T08:24:21.336Z</time></trkpt><trkpt lat="43.5051383" lon="11.3286383"><ele>302.0</ele><time>2026-04-30T08:24:22.336Z</time></trkpt><trkpt lat="43.5050217" lon="11.3287433"><ele>303.0</ele><time>2026-04-30T08:24:23.336Z</time></trkpt><trkpt lat="43.504905" lon="11.3288317"><ele>304.0</ele><time>2026-04-30T08:24:24.336Z</time></trkpt><trkpt lat="43.5047867" lon="11.3289233"><ele>304.0</ele><time>2026-04-30T08:24:25.335Z</time></trkpt><trkpt lat="43.5046583" lon="11.3290083"><ele>304.0</ele><time>2026-04-30T08:24:26.336Z</time></trkpt><trkpt lat="43.504535" lon="11.3290967"><ele>304.0</ele><time>2026-04-30T08:24:27.335Z</time></trkpt><trkpt lat="43.50442" lon="11.3291783"><ele>304.0</ele><time>2026-04-30T08:24:28.336Z</time></trkpt><trkpt lat="43.5043017" lon="11.3292533"><ele>304.25</ele><time>2026-04-30T08:24:29.335Z</time></trkpt><trkpt lat="43.5041833" lon="11.329315"><ele>304.5</ele><time>2026-04-30T08:24:30.335Z</time></trkpt><trkpt lat="43.5040617" lon="11.3293833"><ele>304.75</ele><time>2026-04-30T08:24:31.336Z</time></trkpt><trkpt lat="43.5039433" lon="11.3294317"><ele>305.0</ele><time>2026-04-30T08:24:32.336Z</time></trkpt><trkpt lat="43.5038267" lon="11.329525"><ele>306.33333333333337</ele><time>2026-04-30T08:24:33.336Z</time></trkpt><trkpt lat="43.503715" lon="11.329635"><ele>307.6666666666667</ele><time>2026-04-30T08:24:34.335Z</time></trkpt><trkpt lat="43.5036133" lon="11.32979"><ele>309.0</ele><time>2026-04-30T08:24:35.336Z</time></trkpt><trkpt lat="43.5035133" lon="11.32998"><ele>309.0</ele><time>2026-04-30T08:24:36.336Z</time></trkpt><trkpt lat="43.5034183" lon="11.33018"><ele>309.0</ele><time>2026-04-30T08:24:37.335Z</time></trkpt><trkpt lat="43.5032967" lon="11.3303883"><ele>309.0</ele><time>2026-04-30T08:24:38.335Z</time></trkpt><trkpt lat="43.50316" lon="11.3305867"><ele>309.6666666666667</ele><time>2026-04-30T08:24:39.336Z</time></trkpt><trkpt lat="43.5030067" lon="11.330785"><ele>310.33333333333337</ele><time>2026-04-30T08:24:40.335Z</time></trkpt><trkpt lat="43.5028583" lon="11.33099"><ele>311.0</ele><time>2026-04-30T08:24:41.336Z</time></trkpt><trkpt lat="43.5027133" lon="11.33121"><ele>309.6666666666667</ele><time>2026-04-30T08:24:42.336Z</time></trkpt><trkpt lat="43.5025683" lon="11.3314333"><ele>308.3333333333333</ele><time>2026-04-30T08:24:43.335Z</time></trkpt><trkpt lat="43.5024333" lon="11.331655"><ele>307.0</ele><time>2026-04-30T08:24:44.336Z</time></trkpt><trkpt lat="43.5022917" lon="11.3318617"><ele>307.0</ele><time>2026-04-30T08:24:45.336Z</time></trkpt><trkpt lat="43.5021433" lon="11.33204"><ele>307.0</ele><time>2026-04-30T08:24:46.336Z</time></trkpt><trkpt lat="43.5019767" lon="11.3322133"><ele>307.0</ele><time>2026-04-30T08:24:47.336Z</time></trkpt><trkpt lat="43.5018" lon="11.332385"><ele>307.66666666666663</ele><time>2026-04-30T08:24:48.336Z</time></trkpt><trkpt lat="43.5016217" lon="11.3325417"><ele>308.3333333333333</ele><time>2026-04-30T08:24:49.336Z</time></trkpt><trkpt lat="43.5014483" lon="11.3327017"><ele>309.0</ele><time>2026-04-30T08:24:50.336Z</time></trkpt><trkpt lat="43.5012783" lon="11.3328783"><ele>310.3333333333333</ele><time>2026-04-30T08:24:51.335Z</time></trkpt><trkpt lat="43.5011117" lon="11.3330617"><ele>311.66666666666663</ele><time>2026-04-30T08:24:52.335Z</time></trkpt><trkpt lat="43.5009517" lon="11.3332583"><ele>313.0</ele><time>2026-04-30T08:24:53.336Z</time></trkpt><trkpt lat="43.5008017" lon="11.3334667"><ele>313.0</ele><time>2026-04-30T08:24:54.336Z</time></trkpt><trkpt lat="43.5006533" lon="11.3337"><ele>313.0</ele><time>2026-04-30T08:24:55.336Z</time></trkpt><trkpt lat="43.5005233" lon="11.333935"><ele>313.0</ele><time>2026-04-30T08:24:56.335Z</time></trkpt><trkpt lat="43.5003933" lon="11.334185"><ele>314.5</ele><time>2026-04-30T08:24:57.336Z</time></trkpt><trkpt lat="43.500275" lon="11.3344483"><ele>316.0</ele><time>2026-04-30T08:24:58.336Z</time></trkpt><trkpt lat="43.50015" lon="11.33471"><ele>313.5</ele><time>2026-04-30T08:24:59.335Z</time></trkpt><trkpt lat="43.5000267" lon="11.3349783"><ele>311.0</ele><time>2026-04-30T08:25:00.335Z</time></trkpt><trkpt lat="43.4998983" lon="11.335245"><ele>311.0</ele><time>2026-04-30T08:25:01.335Z</time></trkpt><trkpt lat="43.4997683" lon="11.335515"><ele>311.0</ele><time>2026-04-30T08:25:02.335Z</time></trkpt><trkpt lat="43.4996433" lon="11.3357833"><ele>315.5</ele><time>2026-04-30T08:25:03.336Z</time></trkpt><trkpt lat="43.4995167" lon="11.3360517"><ele>320.0</ele><time>2026-04-30T08:25:04.336Z</time></trkpt><trkpt lat="43.49939" lon="11.3363167"><ele>316.0</ele><time>2026-04-30T08:25:05.335Z</time></trkpt><trkpt lat="43.4992617" lon="11.3365717"><ele>312.0</ele><time>2026-04-30T08:25:06.336Z</time></trkpt><trkpt lat="43.49912" lon="11.3368183"><ele>312.0</ele><time>2026-04-30T08:25:07.336Z</time></trkpt><trkpt lat="43.4989633" lon="11.3370533"><ele>312.0</ele><time>2026-04-30T08:25:08.335Z</time></trkpt><trkpt lat="43.4988" lon="11.337275"><ele>315.3333333333333</ele><time>2026-04-30T08:25:09.336Z</time></trkpt><trkpt lat="43.49863" lon="11.3374867"><ele>318.66666666666663</ele><time>2026-04-30T08:25:10.336Z</time></trkpt><trkpt lat="43.49846" lon="11.33768"><ele>322.0</ele><time>2026-04-30T08:25:11.336Z</time></trkpt><trkpt lat="43.498295" lon="11.3378683"><ele>319.0</ele><time>2026-04-30T08:25:12.336Z</time></trkpt><trkpt lat="43.498145" lon="11.3380683"><ele>316.0</ele><time>2026-04-30T08:25:13.336Z</time></trkpt><trkpt lat="43.4980083" lon="11.3382867"><ele>313.0</ele><time>2026-04-30T08:25:14.336Z</time></trkpt><trkpt lat="43.4978717" lon="11.33852"><ele>314.66666666666663</ele><time>2026-04-30T08:25:15.335Z</time></trkpt><trkpt lat="43.4977367" lon="11.3387533"><ele>316.3333333333333</ele><time>2026-04-30T08:25:16.336Z</time></trkpt><trkpt lat="43.4976167" lon="11.3389733"><ele>318.0</ele><time>2026-04-30T08:25:17.336Z</time></trkpt><trkpt lat="43.4974967" lon="11.3392033"><ele>318.0</ele><time>2026-04-30T08:25:18.335Z</time></trkpt><trkpt lat="43.49739" lon="11.3394467"><ele>318.0</ele><time>2026-04-30T08:25:19.336Z</time></trkpt><trkpt lat="43.4972917" lon="11.3397117"><ele>318.0</ele><time>2026-04-30T08:25:20.336Z</time></trkpt><trkpt lat="43.4972067" lon="11.33998"><ele>318.6666666666667</ele><time>2026-04-30T08:25:21.336Z</time></trkpt><trkpt lat="43.4971217" lon="11.340265"><ele>319.33333333333337</ele><time>2026-04-30T08:25:22.336Z</time></trkpt><trkpt lat="43.4970417" lon="11.3405483"><ele>320.0</ele><time>2026-04-30T08:25:23.336Z</time></trkpt><trkpt lat="43.4969617" lon="11.3408383"><ele>320.0</ele><time>2026-04-30T08:25:24.336Z</time></trkpt><trkpt lat="43.49689" lon="11.3411167"><ele>320.0</ele><time>2026-04-30T08:25:25.336Z</time></trkpt><trkpt lat="43.4968167" lon="11.3413983"><ele>320.0</ele><time>2026-04-30T08:25:26.335Z</time></trkpt><trkpt lat="43.496735" lon="11.34168"><ele>319.6666666666667</ele><time>2026-04-30T08:25:27.336Z</time></trkpt><trkpt lat="43.4966483" lon="11.34195"><ele>319.3333333333333</ele><time>2026-04-30T08:25:28.336Z</time></trkpt><trkpt lat="43.4965567" lon="11.34219"><ele>319.0</ele><time>2026-04-30T08:25:29.336Z</time></trkpt><trkpt lat="43.4964567" lon="11.3424067"><ele>319.0</ele><time>2026-04-30T08:25:30.336Z</time></trkpt><trkpt lat="43.4963383" lon="11.3426133"><ele>319.0</ele><time>2026-04-30T08:25:31.336Z</time></trkpt><trkpt lat="43.4962033" lon="11.34282"><ele>319.0</ele><time>2026-04-30T08:25:32.336Z</time></trkpt><trkpt lat="43.4960617" lon="11.3430167"><ele>319.66666666666663</ele><time>2026-04-30T08:25:33.336Z</time></trkpt><trkpt lat="43.49592" lon="11.34323"><ele>320.3333333333333</ele><time>2026-04-30T08:25:34.336Z</time></trkpt><trkpt lat="43.4958" lon="11.3434583"><ele>321.0</ele><time>2026-04-30T08:25:35.336Z</time></trkpt><trkpt lat="43.49568" lon="11.3436983"><ele>320.0</ele><time>2026-04-30T08:25:36.336Z</time></trkpt><trkpt lat="43.4955633" lon="11.3439533"><ele>319.0</ele><time>2026-04-30T08:25:37.336Z</time></trkpt><trkpt lat="43.4954533" lon="11.3442167"><ele>318.0</ele><time>2026-04-30T08:25:38.336Z</time></trkpt><trkpt lat="43.4953417" lon="11.3444817"><ele>319.5</ele><time>2026-04-30T08:25:39.335Z</time></trkpt><trkpt lat="43.4952383" lon="11.3447617"><ele>321.0</ele><time>2026-04-30T08:25:40.335Z</time></trkpt><trkpt lat="43.4951367" lon="11.3450467"><ele>321.0</ele><time>2026-04-30T08:25:41.336Z</time></trkpt><trkpt lat="43.4950433" lon="11.34533"><ele>321.0</ele><time>2026-04-30T08:25:42.336Z</time></trkpt><trkpt lat="43.4949317" lon="11.3456183"><ele>320.5</ele><time>2026-04-30T08:25:43.336Z</time></trkpt><trkpt lat="43.4948267" lon="11.3459067"><ele>320.0</ele><time>2026-04-30T08:25:44.336Z</time></trkpt><trkpt lat="43.4947283" lon="11.3461833"><ele>320.0</ele><time>2026-04-30T08:25:45.335Z</time></trkpt><trkpt lat="43.4946317" lon="11.3464533"><ele>320.0</ele><time>2026-04-30T08:25:46.336Z</time></trkpt><trkpt lat="43.4945417" lon="11.3467083"><ele>320.0</ele><time>2026-04-30T08:25:47.336Z</time></trkpt><trkpt lat="43.4944567" lon="11.3469517"><ele>322.0</ele><time>2026-04-30T08:25:48.335Z</time></trkpt><trkpt lat="43.4943717" lon="11.3471717"><ele>324.0</ele><time>2026-04-30T08:25:49.336Z</time></trkpt><trkpt lat="43.4942767" lon="11.3473883"><ele>326.0</ele><time>2026-04-30T08:25:50.336Z</time></trkpt><trkpt lat="43.49417" lon="11.347595"><ele>326.0</ele><time>2026-04-30T08:25:51.336Z</time></trkpt><trkpt lat="43.4940483" lon="11.3477967"><ele>326.0</ele><time>2026-04-30T08:25:52.336Z</time></trkpt><trkpt lat="43.4939217" lon="11.34799"><ele>326.0</ele><time>2026-04-30T08:25:53.336Z</time></trkpt><trkpt lat="43.4937933" lon="11.3481967"><ele>326.0</ele><time>2026-04-30T08:25:54.335Z</time></trkpt><trkpt lat="43.49366" lon="11.34839"><ele>326.0</ele><time>2026-04-30T08:25:55.335Z</time></trkpt><trkpt lat="43.4935267" lon="11.3485717"><ele>326.0</ele><time>2026-04-30T08:25:56.335Z</time></trkpt><trkpt lat="43.4933833" lon="11.34874"><ele>325.0</ele><time>2026-04-30T08:25:57.335Z</time></trkpt><trkpt lat="43.4932483" lon="11.348915"><ele>324.0</ele><time>2026-04-30T08:25:58.336Z</time></trkpt><trkpt lat="43.493095" lon="11.3490767"><ele>323.0</ele><time>2026-04-30T08:25:59.336Z</time></trkpt><trkpt lat="43.4929383" lon="11.3492183"><ele>325.33333333333337</ele><time>2026-04-30T08:26:00.336Z</time></trkpt><trkpt lat="43.4927883" lon="11.3493567"><ele>327.6666666666667</ele><time>2026-04-30T08:26:01.335Z</time></trkpt><trkpt lat="43.4926417" lon="11.3494833"><ele>330.0</ele><time>2026-04-30T08:26:02.336Z</time></trkpt><trkpt lat="43.4924817" lon="11.34962"><ele>331.3333333333333</ele><time>2026-04-30T08:26:03.336Z</time></trkpt><trkpt lat="43.4923317" lon="11.3497683"><ele>332.66666666666663</ele><time>2026-04-30T08:26:04.335Z</time></trkpt><trkpt lat="43.4921717" lon="11.3499267"><ele>334.0</ele><time>2026-04-30T08:26:05.336Z</time></trkpt><trkpt lat="43.492015" lon="11.3500883"><ele>334.0</ele><time>2026-04-30T08:26:06.336Z</time></trkpt><trkpt lat="43.49186" lon="11.3502417"><ele>334.0</ele><time>2026-04-30T08:26:07.335Z</time></trkpt><trkpt lat="43.4916967" lon="11.3503967"><ele>334.0</ele><time>2026-04-30T08:26:08.336Z</time></trkpt><trkpt lat="43.4915417" lon="11.3505517"><ele>334.0</ele><time>2026-04-30T08:26:09.336Z</time></trkpt><trkpt lat="43.4913883" lon="11.3507017"><ele>334.0</ele><time>2026-04-30T08:26:10.336Z</time></trkpt><trkpt lat="43.4912283" lon="11.3508383"><ele>334.0</ele><time>2026-04-30T08:26:11.336Z</time></trkpt><trkpt lat="43.4910567" lon="11.3509483"><ele>334.0</ele><time>2026-04-30T08:26:12.336Z</time></trkpt><trkpt lat="43.4908933" lon="11.3510383"><ele>334.0</ele><time>2026-04-30T08:26:13.336Z</time></trkpt><trkpt lat="43.4907333" lon="11.3511217"><ele>334.0</ele><time>2026-04-30T08:26:14.336Z</time></trkpt><trkpt lat="43.4905817" lon="11.3512133"><ele>334.0</ele><time>2026-04-30T08:26:15.336Z</time></trkpt><trkpt lat="43.49046" lon="11.35133"><ele>334.0</ele><time>2026-04-30T08:26:16.336Z</time></trkpt><trkpt lat="43.490355" lon="11.3514667"><ele>334.0</ele><time>2026-04-30T08:26:17.335Z</time></trkpt><trkpt lat="43.490265" lon="11.3516217"><ele>334.0</ele><time>2026-04-30T08:26:18.335Z</time></trkpt><trkpt lat="43.4902183" lon="11.3517867"><ele>333.75</ele><time>2026-04-30T08:26:19.336Z</time></trkpt><trkpt lat="43.4902133" lon="11.35197"><ele>333.5</ele><time>2026-04-30T08:26:20.336Z</time></trkpt><trkpt lat="43.4902283" lon="11.35218"><ele>333.25</ele><time>2026-04-30T08:26:21.335Z</time></trkpt><trkpt lat="43.490285" lon="11.3523883"><ele>333.0</ele><time>2026-04-30T08:26:22.336Z</time></trkpt><trkpt lat="43.490365" lon="11.352605"><ele>333.0</ele><time>2026-04-30T08:26:23.336Z</time></trkpt><trkpt lat="43.49046" lon="11.3528167"><ele>333.0</ele><time>2026-04-30T08:26:24.336Z</time></trkpt><trkpt lat="43.49056" lon="11.3530567"><ele>333.0</ele><time>2026-04-30T08:26:25.335Z</time></trkpt><trkpt lat="43.4906217" lon="11.3532933"><ele>333.0</ele><time>2026-04-30T08:26:26.336Z</time></trkpt><trkpt lat="43.4906533" lon="11.3535233"><ele>333.0</ele><time>2026-04-30T08:26:27.336Z</time></trkpt><trkpt lat="43.4906633" lon="11.3537467"><ele>333.0</ele><time>2026-04-30T08:26:28.336Z</time></trkpt><trkpt lat="43.4906867" lon="11.3539533"><ele>333.6666666666667</ele><time>2026-04-30T08:26:29.336Z</time></trkpt><trkpt lat="43.4907483" lon="11.3541533"><ele>334.33333333333337</ele><time>2026-04-30T08:26:30.336Z</time></trkpt><trkpt lat="43.490835" lon="11.354325"><ele>335.0</ele><time>2026-04-30T08:26:31.336Z</time></trkpt><trkpt lat="43.49095" lon="11.3544733"><ele>335.0</ele><time>2026-04-30T08:26:32.336Z</time></trkpt><trkpt lat="43.49108" lon="11.354595"><ele>335.0</ele><time>2026-04-30T08:26:33.336Z</time></trkpt><trkpt lat="43.4912517" lon="11.3546883"><ele>335.0</ele><time>2026-04-30T08:26:34.336Z</time></trkpt><trkpt lat="43.49144" lon="11.3547667"><ele>339.0</ele><time>2026-04-30T08:26:35.336Z</time></trkpt><trkpt lat="43.4916183" lon="11.3548367"><ele>343.0</ele><time>2026-04-30T08:26:36.336Z</time></trkpt><trkpt lat="43.4917867" lon="11.3549117"><ele>347.0</ele><time>2026-04-30T08:26:37.336Z</time></trkpt><trkpt lat="43.4919467" lon="11.3550017"><ele>347.0</ele><time>2026-04-30T08:26:38.336Z</time></trkpt><trkpt lat="43.4920767" lon="11.35512"><ele>347.0</ele><time>2026-04-30T08:26:39.336Z</time></trkpt><trkpt lat="43.492185" lon="11.35526"><ele>347.0</ele><time>2026-04-30T08:26:40.336Z</time></trkpt><trkpt lat="43.4922717" lon="11.3554417"><ele>346.0</ele><time>2026-04-30T08:26:41.335Z</time></trkpt><trkpt lat="43.4923317" lon="11.3556417"><ele>345.0</ele><time>2026-04-30T08:26:42.336Z</time></trkpt><trkpt lat="43.4923783" lon="11.35587"><ele>344.0</ele><time>2026-04-30T08:26:43.335Z</time></trkpt><trkpt lat="43.49239" lon="11.356125"><ele>346.6666666666667</ele><time>2026-04-30T08:26:44.336Z</time></trkpt><trkpt lat="43.49241" lon="11.3563733"><ele>349.3333333333333</ele><time>2026-04-30T08:26:45.336Z</time></trkpt><trkpt lat="43.4924483" lon="11.35663"><ele>352.0</ele><time>2026-04-30T08:26:46.336Z</time></trkpt><trkpt lat="43.4925067" lon="11.3568883"><ele>352.0</ele><time>2026-04-30T08:26:47.335Z</time></trkpt><trkpt lat="43.4925867" lon="11.357155"><ele>352.0</ele><time>2026-04-30T08:26:48.336Z</time></trkpt><trkpt lat="43.49267" lon="11.3574233"><ele>352.0</ele><time>2026-04-30T08:26:49.336Z</time></trkpt><trkpt lat="43.492765" lon="11.3576783"><ele>351.0</ele><time>2026-04-30T08:26:50.335Z</time></trkpt><trkpt lat="43.492875" lon="11.3579117"><ele>350.0</ele><time>2026-04-30T08:26:51.335Z</time></trkpt><trkpt lat="43.4929933" lon="11.3581317"><ele>349.0</ele><time>2026-04-30T08:26:52.336Z</time></trkpt><trkpt lat="43.493105" lon="11.358325"><ele>349.0</ele><time>2026-04-30T08:26:53.335Z</time></trkpt><trkpt lat="43.4932067" lon="11.35849"><ele>349.0</ele><time>2026-04-30T08:26:54.336Z</time></trkpt><trkpt lat="43.4933283" lon="11.3586183"><ele>349.0</ele><time>2026-04-30T08:26:55.335Z</time></trkpt><trkpt lat="43.493465" lon="11.3587233"><ele>349.0</ele><time>2026-04-30T08:26:56.336Z</time></trkpt><trkpt lat="43.493595" lon="11.3588167"><ele>349.0</ele><time>2026-04-30T08:26:57.336Z</time></trkpt><trkpt lat="43.4937033" lon="11.3589383"><ele>349.0</ele><time>2026-04-30T08:26:58.335Z</time></trkpt><trkpt lat="43.4937967" lon="11.3590983"><ele>349.0</ele><time>2026-04-30T08:26:59.336Z</time></trkpt><trkpt lat="43.4938717" lon="11.359295"><ele>348.3333333333333</ele><time>2026-04-30T08:27:00.336Z</time></trkpt><trkpt lat="43.493935" lon="11.3595183"><ele>347.6666666666667</ele><time>2026-04-30T08:27:01.336Z</time></trkpt><trkpt lat="43.4939783" lon="11.3597483"><ele>347.0</ele><time>2026-04-30T08:27:02.336Z</time></trkpt><trkpt lat="43.4939933" lon="11.3599817"><ele>349.33333333333337</ele><time>2026-04-30T08:27:03.336Z</time></trkpt><trkpt lat="43.4939883" lon="11.3602283"><ele>351.6666666666667</ele><time>2026-04-30T08:27:04.336Z</time></trkpt><trkpt lat="43.4939717" lon="11.360485"><ele>354.0</ele><time>2026-04-30T08:27:05.336Z</time></trkpt><trkpt lat="43.4939583" lon="11.3607367"><ele>354.0</ele><time>2026-04-30T08:27:06.336Z</time></trkpt><trkpt lat="43.4939383" lon="11.3609733"><ele>354.0</ele><time>2026-04-30T08:27:07.335Z</time></trkpt><trkpt lat="43.49392" lon="11.36119"><ele>354.0</ele><time>2026-04-30T08:27:08.335Z</time></trkpt><trkpt lat="43.4938833" lon="11.361395"><ele>354.0</ele><time>2026-04-30T08:27:09.336Z</time></trkpt><trkpt lat="43.49381" lon="11.3615933"><ele>354.0</ele><time>2026-04-30T08:27:10.336Z</time></trkpt><trkpt lat="43.493715" lon="11.3617683"><ele>354.0</ele><time>2026-04-30T08:27:11.336Z</time></trkpt><trkpt lat="43.4936" lon="11.3619367"><ele>361.0</ele><time>2026-04-30T08:27:12.335Z</time></trkpt><trkpt lat="43.4934967" lon="11.3621183"><ele>368.0</ele><time>2026-04-30T08:27:13.336Z</time></trkpt><trkpt lat="43.4934183" lon="11.36231"><ele>375.0</ele><time>2026-04-30T08:27:14.336Z</time></trkpt><trkpt lat="43.49337" lon="11.3625083"><ele>375.0</ele><time>2026-04-30T08:27:15.336Z</time></trkpt><trkpt lat="43.49337" lon="11.3627317"><ele>375.0</ele><time>2026-04-30T08:27:16.336Z</time></trkpt><trkpt lat="43.4933983" lon="11.362955"><ele>375.0</ele><time>2026-04-30T08:27:17.336Z</time></trkpt><trkpt lat="43.4934583" lon="11.3631733"><ele>375.6666666666667</ele><time>2026-04-30T08:27:18.336Z</time></trkpt><trkpt lat="43.4935167" lon="11.363395"><ele>376.33333333333337</ele><time>2026-04-30T08:27:19.335Z</time></trkpt><trkpt lat="43.493575" lon="11.36362"><ele>377.0</ele><time>2026-04-30T08:27:20.336Z</time></trkpt><trkpt lat="43.49365" lon="11.3638467"><ele>380.0</ele><time>2026-04-30T08:27:21.336Z</time></trkpt><trkpt lat="43.493745" lon="11.3640433"><ele>383.0</ele><time>2026-04-30T08:27:22.336Z</time></trkpt><trkpt lat="43.4938433" lon="11.36422"><ele>386.0</ele><time>2026-04-30T08:27:23.336Z</time></trkpt><trkpt lat="43.49391" lon="11.3643783"><ele>383.5</ele><time>2026-04-30T08:27:24.336Z</time></trkpt><trkpt lat="43.4939467" lon="11.364555"><ele>381.0</ele><time>2026-04-30T08:27:25.336Z</time></trkpt><trkpt lat="43.493945" lon="11.3647517"><ele>378.5</ele><time>2026-04-30T08:27:26.336Z</time></trkpt><trkpt lat="43.493925" lon="11.3649417"><ele>376.0</ele><time>2026-04-30T08:27:27.335Z</time></trkpt><trkpt lat="43.4939383" lon="11.36514"><ele>376.0</ele><time>2026-04-30T08:27:28.336Z</time></trkpt><trkpt lat="43.4939867" lon="11.3653267"><ele>376.0</ele><time>2026-04-30T08:27:29.336Z</time></trkpt><trkpt lat="43.49403" lon="11.365515"><ele>376.0</ele><time>2026-04-30T08:27:30.336Z</time></trkpt><trkpt lat="43.4940533" lon="11.3656883"><ele>376.0</ele><time>2026-04-30T08:27:31.336Z</time></trkpt><trkpt lat="43.4940317" lon="11.3658717"><ele>376.66666666666663</ele><time>2026-04-30T08:27:32.336Z</time></trkpt><trkpt lat="43.493975" lon="11.366055"><ele>377.3333333333333</ele><time>2026-04-30T08:27:33.335Z</time></trkpt><trkpt lat="43.4939083" lon="11.3662583"><ele>378.0</ele><time>2026-04-30T08:27:34.335Z</time></trkpt><trkpt lat="43.493855" lon="11.3664867"><ele>376.3333333333333</ele><time>2026-04-30T08:27:35.336Z</time></trkpt><trkpt lat="43.4938133" lon="11.3667083"><ele>374.66666666666663</ele><time>2026-04-30T08:27:36.335Z</time></trkpt><trkpt lat="43.493795" lon="11.3669133"><ele>373.0</ele><time>2026-04-30T08:27:37.335Z</time></trkpt><trkpt lat="43.493775" lon="11.3671"><ele>376.75</ele><time>2026-04-30T08:27:38.335Z</time></trkpt><trkpt lat="43.493715" lon="11.36729"><ele>380.5</ele><time>2026-04-30T08:27:39.336Z</time></trkpt><trkpt lat="43.4936317" lon="11.36744"><ele>384.25</ele><time>2026-04-30T08:27:40.336Z</time></trkpt><trkpt lat="43.4935267" lon="11.36754"><ele>388.0</ele><time>2026-04-30T08:27:41.336Z</time></trkpt><trkpt lat="43.4934" lon="11.367585"><ele>388.0</ele><time>2026-04-30T08:27:42.335Z</time></trkpt><trkpt lat="43.4932433" lon="11.3676"><ele>388.0</ele><time>2026-04-30T08:27:43.336Z</time></trkpt><trkpt lat="43.4930883" lon="11.3675967"><ele>388.0</ele><time>2026-04-30T08:27:44.335Z</time></trkpt><trkpt lat="43.4929417" lon="11.3676567"><ele>391.33333333333337</ele><time>2026-04-30T08:27:45.336Z</time></trkpt><trkpt lat="43.4927883" lon="11.3677483"><ele>394.66666666666663</ele><time>2026-04-30T08:27:46.335Z</time></trkpt><trkpt lat="43.4926467" lon="11.3678183"><ele>398.0</ele><time>2026-04-30T08:27:47.336Z</time></trkpt><trkpt lat="43.492515" lon="11.3678483"><ele>398.0</ele><time>2026-04-30T08:27:48.335Z</time></trkpt><trkpt lat="43.49237" lon="11.3678267"><ele>398.0</ele><time>2026-04-30T08:27:49.335Z</time></trkpt><trkpt lat="43.4922117" lon="11.3677733"><ele>398.0</ele><time>2026-04-30T08:27:50.336Z</time></trkpt><trkpt lat="43.4920433" lon="11.3677"><ele>397.3333333333333</ele><time>2026-04-30T08:27:51.336Z</time></trkpt><trkpt lat="43.49186" lon="11.3676317"><ele>396.66666666666663</ele><time>2026-04-30T08:27:52.336Z</time></trkpt><trkpt lat="43.4916667" lon="11.3675717"><ele>396.0</ele><time>2026-04-30T08:27:53.336Z</time></trkpt><trkpt lat="43.49149" lon="11.3675083"><ele>396.0</ele><time>2026-04-30T08:27:54.335Z</time></trkpt><trkpt lat="43.4913133" lon="11.3674517"><ele>396.0</ele><time>2026-04-30T08:27:55.336Z</time></trkpt><trkpt lat="43.4911517" lon="11.3674233"><ele>396.0</ele><time>2026-04-30T08:27:56.335Z</time></trkpt><trkpt lat="43.4909967" lon="11.3674167"><ele>396.25</ele><time>2026-04-30T08:27:57.335Z</time></trkpt><trkpt lat="43.4908433" lon="11.3674233"><ele>396.5</ele><time>2026-04-30T08:27:58.336Z</time></trkpt><trkpt lat="43.4907217" lon="11.3674383"><ele>396.75</ele><time>2026-04-30T08:27:59.336Z</time></trkpt><trkpt lat="43.4906117" lon="11.3674883"><ele>397.0</ele><time>2026-04-30T08:28:00.336Z</time></trkpt><trkpt lat="43.4905367" lon="11.3675883"><ele>397.0</ele><time>2026-04-30T08:28:01.336Z</time></trkpt><trkpt lat="43.4905033" lon="11.3677167"><ele>397.0</ele><time>2026-04-30T08:28:02.336Z</time></trkpt><trkpt lat="43.490505" lon="11.367855"><ele>397.0</ele><time>2026-04-30T08:28:03.335Z</time></trkpt><trkpt lat="43.49054" lon="11.3679867"><ele>397.0</ele><time>2026-04-30T08:28:04.335Z</time></trkpt><trkpt lat="43.4906067" lon="11.368095"><ele>397.0</ele><time>2026-04-30T08:28:05.336Z</time></trkpt><trkpt lat="43.4907033" lon="11.3681717"><ele>396.6666666666667</ele><time>2026-04-30T08:28:06.335Z</time></trkpt><trkpt lat="43.4908333" lon="11.3682167"><ele>396.33333333333337</ele><time>2026-04-30T08:28:07.336Z</time></trkpt><trkpt lat="43.4909767" lon="11.368285"><ele>396.0</ele><time>2026-04-30T08:28:08.336Z</time></trkpt><trkpt lat="43.4911217" lon="11.3683933"><ele>396.0</ele><time>2026-04-30T08:28:09.336Z</time></trkpt><trkpt lat="43.4912567" lon="11.3685233"><ele>396.0</ele><time>2026-04-30T08:28:10.336Z</time></trkpt><trkpt lat="43.4913683" lon="11.3686817"><ele>396.0</ele><time>2026-04-30T08:28:11.336Z</time></trkpt><trkpt lat="43.49148" lon="11.3688683"><ele>396.33333333333337</ele><time>2026-04-30T08:28:12.335Z</time></trkpt><trkpt lat="43.4915783" lon="11.3690633"><ele>396.6666666666667</ele><time>2026-04-30T08:28:13.335Z</time></trkpt><trkpt lat="43.49167" lon="11.3692483"><ele>397.0</ele><time>2026-04-30T08:28:14.336Z</time></trkpt><trkpt lat="43.491745" lon="11.3694183"><ele>397.0</ele><time>2026-04-30T08:28:15.336Z</time></trkpt><trkpt lat="43.4917983" lon="11.369595"><ele>397.0</ele><time>2026-04-30T08:28:16.336Z</time></trkpt><trkpt lat="43.4918283" lon="11.3697833"><ele>397.0</ele><time>2026-04-30T08:28:17.336Z</time></trkpt><trkpt lat="43.4918133" lon="11.3699883"><ele>397.0</ele><time>2026-04-30T08:28:18.336Z</time></trkpt><trkpt lat="43.4917783" lon="11.3702017"><ele>396.6666666666667</ele><time>2026-04-30T08:28:19.336Z</time></trkpt><trkpt lat="43.4917267" lon="11.3704067"><ele>396.33333333333337</ele><time>2026-04-30T08:28:20.335Z</time></trkpt><trkpt lat="43.49166" lon="11.3706017"><ele>396.0</ele><time>2026-04-30T08:28:21.336Z</time></trkpt><trkpt lat="43.4915833" lon="11.3707833"><ele>396.0</ele><time>2026-04-30T08:28:22.336Z</time></trkpt><trkpt lat="43.4914883" lon="11.370945"><ele>396.0</ele><time>2026-04-30T08:28:23.335Z</time></trkpt><trkpt lat="43.491385" lon="11.371095"><ele>396.0</ele><time>2026-04-30T08:28:24.336Z</time></trkpt><trkpt lat="43.4912733" lon="11.3712217"><ele>396.0</ele><time>2026-04-30T08:28:25.336Z</time></trkpt><trkpt lat="43.4911433" lon="11.371295"><ele>397.0</ele><time>2026-04-30T08:28:26.335Z</time></trkpt><trkpt lat="43.4910017" lon="11.371345"><ele>398.0</ele><time>2026-04-30T08:28:27.336Z</time></trkpt><trkpt lat="43.4908483" lon="11.3713617"><ele>399.0</ele><time>2026-04-30T08:28:28.335Z</time></trkpt><trkpt lat="43.4907017" lon="11.3713617"><ele>400.0</ele><time>2026-04-30T08:28:29.336Z</time></trkpt><trkpt lat="43.4905783" lon="11.37137"><ele>400.0</ele><time>2026-04-30T08:28:30.336Z</time></trkpt><trkpt lat="43.4904783" lon="11.371425"><ele>400.0</ele><time>2026-04-30T08:28:31.336Z</time></trkpt><trkpt lat="43.4903967" lon="11.37152"><ele>400.0</ele><time>2026-04-30T08:28:32.336Z</time></trkpt><trkpt lat="43.490355" lon="11.3716483"><ele>400.0</ele><time>2026-04-30T08:28:33.336Z</time></trkpt><trkpt lat="43.4903583" lon="11.3718033"><ele>400.0</ele><time>2026-04-30T08:28:34.335Z</time></trkpt><trkpt lat="43.4904067" lon="11.3719733"><ele>400.0</ele><time>2026-04-30T08:28:35.336Z</time></trkpt><trkpt lat="43.49048" lon="11.37216"><ele>400.0</ele><time>2026-04-30T08:28:36.336Z</time></trkpt><trkpt lat="43.4905767" lon="11.3723567"><ele>400.0</ele><time>2026-04-30T08:28:37.336Z</time></trkpt><trkpt lat="43.4906733" lon="11.3725617"><ele>400.5</ele><time>2026-04-30T08:28:38.336Z</time></trkpt><trkpt lat="43.49074" lon="11.37275"><ele>401.0</ele><time>2026-04-30T08:28:39.336Z</time></trkpt><trkpt lat="43.4907917" lon="11.3729317"><ele>401.5</ele><time>2026-04-30T08:28:40.336Z</time></trkpt><trkpt lat="43.4908167" lon="11.3731033"><ele>402.0</ele><time>2026-04-30T08:28:41.336Z</time></trkpt><trkpt lat="43.49081" lon="11.3732733"><ele>403.5</ele><time>2026-04-30T08:28:42.336Z</time></trkpt><trkpt lat="43.490775" lon="11.3734567"><ele>405.0</ele><time>2026-04-30T08:28:43.335Z</time></trkpt><trkpt lat="43.4907133" lon="11.3736417"><ele>406.5</ele><time>2026-04-30T08:28:44.336Z</time></trkpt><trkpt lat="43.4906433" lon="11.3738317"><ele>408.0</ele><time>2026-04-30T08:28:45.336Z</time></trkpt><trkpt lat="43.49058" lon="11.3740217"><ele>408.0</ele><time>2026-04-30T08:28:46.336Z</time></trkpt><trkpt lat="43.4905367" lon="11.3742133"><ele>408.0</ele><time>2026-04-30T08:28:47.336Z</time></trkpt><trkpt lat="43.4905033" lon="11.3744083"><ele>408.0</ele><time>2026-04-30T08:28:48.336Z</time></trkpt><trkpt lat="43.4904767" lon="11.37461"><ele>408.0</ele><time>2026-04-30T08:28:49.336Z</time></trkpt><trkpt lat="43.4904567" lon="11.3748283"><ele>408.0</ele><time>2026-04-30T08:28:50.335Z</time></trkpt><trkpt lat="43.4904283" lon="11.375065"><ele>408.0</ele><time>2026-04-30T08:28:51.335Z</time></trkpt><trkpt lat="43.4904133" lon="11.3752983"><ele>408.0</ele><time>2026-04-30T08:28:52.336Z</time></trkpt><trkpt lat="43.490415" lon="11.375545"><ele>408.33333333333337</ele><time>2026-04-30T08:28:53.336Z</time></trkpt><trkpt lat="43.4904167" lon="11.3757883"><ele>408.6666666666667</ele><time>2026-04-30T08:28:54.336Z</time></trkpt><trkpt lat="43.49045" lon="11.3760417"><ele>409.0</ele><time>2026-04-30T08:28:55.336Z</time></trkpt><trkpt lat="43.49048" lon="11.3763117"><ele>411.0</ele><time>2026-04-30T08:28:56.335Z</time></trkpt><trkpt lat="43.4905017" lon="11.37657"><ele>413.0</ele><time>2026-04-30T08:28:57.335Z</time></trkpt><trkpt lat="43.4905333" lon="11.3768333"><ele>415.0</ele><time>2026-04-30T08:28:58.336Z</time></trkpt><trkpt lat="43.4905683" lon="11.3770933"><ele>416.6666666666667</ele><time>2026-04-30T08:28:59.336Z</time></trkpt><trkpt lat="43.4906" lon="11.37736"><ele>418.33333333333337</ele><time>2026-04-30T08:29:00.336Z</time></trkpt><trkpt lat="43.490635" lon="11.3776283"><ele>420.0</ele><time>2026-04-30T08:29:01.336Z</time></trkpt><trkpt lat="43.4906733" lon="11.3778883"><ele>421.66666666666663</ele><time>2026-04-30T08:29:02.336Z</time></trkpt><trkpt lat="43.4907033" lon="11.3781383"><ele>423.3333333333333</ele><time>2026-04-30T08:29:03.336Z</time></trkpt><trkpt lat="43.49074" lon="11.3783683"><ele>425.0</ele><time>2026-04-30T08:29:04.336Z</time></trkpt><trkpt lat="43.4907733" lon="11.3785817"><ele>425.0</ele><time>2026-04-30T08:29:05.336Z</time></trkpt><trkpt lat="43.4907817" lon="11.3787883"><ele>425.0</ele><time>2026-04-30T08:29:06.336Z</time></trkpt><trkpt lat="43.4907667" lon="11.3789917"><ele>425.0</ele><time>2026-04-30T08:29:07.336Z</time></trkpt><trkpt lat="43.490725" lon="11.379185"><ele>425.0</ele><time>2026-04-30T08:29:08.336Z</time></trkpt><trkpt lat="43.490645" lon="11.3793717"><ele>425.3333333333333</ele><time>2026-04-30T08:29:09.335Z</time></trkpt><trkpt lat="43.490545" lon="11.3795617"><ele>425.66666666666663</ele><time>2026-04-30T08:29:10.335Z</time></trkpt><trkpt lat="43.49044" lon="11.3797383"><ele>426.0</ele><time>2026-04-30T08:29:11.336Z</time></trkpt><trkpt lat="43.4903433" lon="11.3799283"><ele>430.66666666666663</ele><time>2026-04-30T08:29:12.336Z</time></trkpt><trkpt lat="43.4902633" lon="11.38014"><ele>435.3333333333333</ele><time>2026-04-30T08:29:13.335Z</time></trkpt><trkpt lat="43.4902067" lon="11.3803333"><ele>440.0</ele><time>2026-04-30T08:29:14.336Z</time></trkpt><trkpt lat="43.4901733" lon="11.3805033"><ele>441.0</ele><time>2026-04-30T08:29:15.336Z</time></trkpt><trkpt lat="43.49017" lon="11.38069"><ele>442.0</ele><time>2026-04-30T08:29:16.336Z</time></trkpt><trkpt lat="43.4902033" lon="11.380865"><ele>443.0</ele><time>2026-04-30T08:29:17.336Z</time></trkpt><trkpt lat="43.4902717" lon="11.3810433"><ele>444.0</ele><time>2026-04-30T08:29:18.336Z</time></trkpt><trkpt lat="43.4903583" lon="11.3812233"><ele>440.0</ele><time>2026-04-30T08:29:19.336Z</time></trkpt><trkpt lat="43.49045" lon="11.38142"><ele>436.0</ele><time>2026-04-30T08:29:20.336Z</time></trkpt><trkpt lat="43.4905333" lon="11.3816183"><ele>432.0</ele><time>2026-04-30T08:29:21.336Z</time></trkpt><trkpt lat="43.4906" lon="11.38181"><ele>432.0</ele><time>2026-04-30T08:29:22.336Z</time></trkpt><trkpt lat="43.4906517" lon="11.3820083"><ele>432.0</ele><time>2026-04-30T08:29:23.336Z</time></trkpt><trkpt lat="43.49073" lon="11.3821917"><ele>432.0</ele><time>2026-04-30T08:29:24.336Z</time></trkpt><trkpt lat="43.4908383" lon="11.3823417"><ele>431.5</ele><time>2026-04-30T08:29:25.335Z</time></trkpt><trkpt lat="43.49096" lon="11.38244"><ele>431.0</ele><time>2026-04-30T08:29:26.336Z</time></trkpt><trkpt lat="43.4910833" lon="11.3825217"><ele>430.5</ele><time>2026-04-30T08:29:27.335Z</time></trkpt><trkpt lat="43.4911817" lon="11.38263"><ele>430.0</ele><time>2026-04-30T08:29:28.335Z</time></trkpt><trkpt lat="43.49126" lon="11.3827917"><ele>430.0</ele><time>2026-04-30T08:29:29.336Z</time></trkpt><trkpt lat="43.4913017" lon="11.38297"><ele>430.0</ele><time>2026-04-30T08:29:30.336Z</time></trkpt><trkpt lat="43.4913033" lon="11.3831683"><ele>430.0</ele><time>2026-04-30T08:29:31.335Z</time></trkpt><trkpt lat="43.4912767" lon="11.3833833"><ele>430.0</ele><time>2026-04-30T08:29:32.336Z</time></trkpt><trkpt lat="43.4912433" lon="11.3836033"><ele>436.5</ele><time>2026-04-30T08:29:33.336Z</time></trkpt><trkpt lat="43.4911783" lon="11.3838"><ele>443.0</ele><time>2026-04-30T08:29:34.336Z</time></trkpt><trkpt lat="43.4911" lon="11.3839667"><ele>449.5</ele><time>2026-04-30T08:29:35.336Z</time></trkpt><trkpt lat="43.4909967" lon="11.38411"><ele>456.0</ele><time>2026-04-30T08:29:36.335Z</time></trkpt><trkpt lat="43.4908883" lon="11.3842367"><ele>456.25</ele><time>2026-04-30T08:29:37.336Z</time></trkpt><trkpt lat="43.4907783" lon="11.38436"><ele>456.5</ele><time>2026-04-30T08:29:38.336Z</time></trkpt><trkpt lat="43.4906583" lon="11.38448"><ele>456.75</ele><time>2026-04-30T08:29:39.336Z</time></trkpt><trkpt lat="43.490545" lon="11.3846267"><ele>457.0</ele><time>2026-04-30T08:29:40.336Z</time></trkpt><trkpt lat="43.4904183" lon="11.3847617"><ele>457.25</ele><time>2026-04-30T08:29:41.336Z</time></trkpt><trkpt lat="43.4902967" lon="11.3848883"><ele>457.5</ele><time>2026-04-30T08:29:42.336Z</time></trkpt><trkpt lat="43.49018" lon="11.385015"><ele>457.75</ele><time>2026-04-30T08:29:43.336Z</time></trkpt><trkpt lat="43.4900833" lon="11.3851333"><ele>458.0</ele><time>2026-04-30T08:29:44.336Z</time></trkpt><trkpt lat="43.4899867" lon="11.3852483"><ele>458.0</ele><time>2026-04-30T08:29:45.335Z</time></trkpt><trkpt lat="43.4899133" lon="11.385405"><ele>458.0</ele><time>2026-04-30T08:29:46.335Z</time></trkpt><trkpt lat="43.4898567" lon="11.3855767"><ele>458.0</ele><time>2026-04-30T08:29:47.336Z</time></trkpt><trkpt lat="43.4898133" lon="11.38574"><ele>458.0</ele><time>2026-04-30T08:29:48.336Z</time></trkpt><trkpt lat="43.48978" lon="11.3858983"><ele>458.25</ele><time>2026-04-30T08:29:49.336Z</time></trkpt><trkpt lat="43.48974" lon="11.3860367"><ele>458.5</ele><time>2026-04-30T08:29:50.336Z</time></trkpt><trkpt lat="43.48969" lon="11.3861767"><ele>458.75</ele><time>2026-04-30T08:29:51.336Z</time></trkpt><trkpt lat="43.4896567" lon="11.3863233"><ele>459.0</ele><time>2026-04-30T08:29:52.336Z</time></trkpt><trkpt lat="43.4896233" lon="11.3864883"><ele>456.0</ele><time>2026-04-30T08:29:53.336Z</time></trkpt><trkpt lat="43.4895917" lon="11.386645"><ele>453.0</ele><time>2026-04-30T08:29:54.335Z</time></trkpt><trkpt lat="43.4895633" lon="11.386805"><ele>450.0</ele><time>2026-04-30T08:29:55.336Z</time></trkpt><trkpt lat="43.4895333" lon="11.386975"><ele>447.0</ele><time>2026-04-30T08:29:56.335Z</time></trkpt><trkpt lat="43.48952" lon="11.387125"><ele>447.20000000000005</ele><time>2026-04-30T08:29:57.335Z</time></trkpt><trkpt lat="43.489505" lon="11.3872633"><ele>447.40000000000003</ele><time>2026-04-30T08:29:58.335Z</time></trkpt><trkpt lat="43.48949" lon="11.3874117"><ele>447.59999999999997</ele><time>2026-04-30T08:29:59.335Z</time></trkpt><trkpt lat="43.4894783" lon="11.387555"><ele>447.79999999999995</ele><time>2026-04-30T08:30:00.336Z</time></trkpt><trkpt lat="43.4894633" lon="11.38769"><ele>448.0</ele><time>2026-04-30T08:30:01.336Z</time></trkpt><trkpt lat="43.48945" lon="11.3878333"><ele>448.0</ele><time>2026-04-30T08:30:02.336Z</time></trkpt><trkpt lat="43.4894367" lon="11.3879817"><ele>447.99999999999994</ele><time>2026-04-30T08:30:03.336Z</time></trkpt><trkpt lat="43.48942" lon="11.388135"><ele>447.99999999999994</ele><time>2026-04-30T08:30:04.336Z</time></trkpt><trkpt lat="43.4893983" lon="11.3882883"><ele>448.0</ele><time>2026-04-30T08:30:05.335Z</time></trkpt><trkpt lat="43.4893883" lon="11.3884283"><ele>448.0</ele><time>2026-04-30T08:30:06.336Z</time></trkpt><trkpt lat="43.489365" lon="11.388565"><ele>448.59999999999997</ele><time>2026-04-30T08:30:07.336Z</time></trkpt><trkpt lat="43.48934" lon="11.3886933"><ele>449.19999999999993</ele><time>2026-04-30T08:30:08.335Z</time></trkpt><trkpt lat="43.4893133" lon="11.3888167"><ele>449.8</ele><time>2026-04-30T08:30:09.335Z</time></trkpt><trkpt lat="43.48928" lon="11.38893"><ele>450.4</ele><time>2026-04-30T08:30:10.336Z</time></trkpt><trkpt lat="43.4892517" lon="11.38905"><ele>451.0</ele><time>2026-04-30T08:30:11.336Z</time></trkpt><trkpt lat="43.489245" lon="11.389165"><ele>451.4</ele><time>2026-04-30T08:30:12.336Z</time></trkpt><trkpt lat="43.489255" lon="11.3892883"><ele>451.8</ele><time>2026-04-30T08:30:13.336Z</time></trkpt><trkpt lat="43.489275" lon="11.3894017"><ele>452.19999999999993</ele><time>2026-04-30T08:30:14.336Z</time></trkpt><trkpt lat="43.489315" lon="11.3895117"><ele>452.59999999999997</ele><time>2026-04-30T08:30:15.336Z</time></trkpt><trkpt lat="43.4893633" lon="11.3896267"><ele>453.0</ele><time>2026-04-30T08:30:16.336Z</time></trkpt><trkpt lat="43.4894083" lon="11.3897383"><ele>453.0</ele><time>2026-04-30T08:30:17.336Z</time></trkpt><trkpt lat="43.4894567" lon="11.3898517"><ele>453.0</ele><time>2026-04-30T08:30:18.336Z</time></trkpt><trkpt lat="43.4895" lon="11.3899617"><ele>453.0</ele><time>2026-04-30T08:30:19.335Z</time></trkpt><trkpt lat="43.48954" lon="11.3900733"><ele>453.0</ele><time>2026-04-30T08:30:20.335Z</time></trkpt><trkpt lat="43.4895783" lon="11.3901717"><ele>453.0</ele><time>2026-04-30T08:30:21.336Z</time></trkpt><trkpt lat="43.4896183" lon="11.39028"><ele>453.0</ele><time>2026-04-30T08:30:22.336Z</time></trkpt><trkpt lat="43.4896567" lon="11.3903967"><ele>454.2</ele><time>2026-04-30T08:30:23.336Z</time></trkpt><trkpt lat="43.4897" lon="11.3905133"><ele>455.4</ele><time>2026-04-30T08:30:24.336Z</time></trkpt><trkpt lat="43.4897517" lon="11.3906367"><ele>456.59999999999997</ele><time>2026-04-30T08:30:25.336Z</time></trkpt><trkpt lat="43.4898133" lon="11.3907533"><ele>457.79999999999995</ele><time>2026-04-30T08:30:26.336Z</time></trkpt><trkpt lat="43.48988" lon="11.3908567"><ele>459.0</ele><time>2026-04-30T08:30:27.335Z</time></trkpt><trkpt lat="43.4899467" lon="11.3909583"><ele>459.0</ele><time>2026-04-30T08:30:28.336Z</time></trkpt><trkpt lat="43.49001" lon="11.3910583"><ele>459.0</ele><time>2026-04-30T08:30:29.336Z</time></trkpt><trkpt lat="43.4900717" lon="11.3911567"><ele>459.0</ele><time>2026-04-30T08:30:30.336Z</time></trkpt><trkpt lat="43.4901283" lon="11.391265"><ele>459.0</ele><time>2026-04-30T08:30:31.335Z</time></trkpt><trkpt lat="43.4901667" lon="11.3913917"><ele>459.0</ele><time>2026-04-30T08:30:32.335Z</time></trkpt><trkpt lat="43.4901817" lon="11.391535"><ele>458.25</ele><time>2026-04-30T08:30:33.335Z</time></trkpt><trkpt lat="43.490175" lon="11.3917033"><ele>457.5</ele><time>2026-04-30T08:30:34.335Z</time></trkpt><trkpt lat="43.4901633" lon="11.3918683"><ele>456.75</ele><time>2026-04-30T08:30:35.335Z</time></trkpt><trkpt lat="43.490155" lon="11.3920183"><ele>456.0</ele><time>2026-04-30T08:30:36.335Z</time></trkpt><trkpt lat="43.4901583" lon="11.3921583"><ele>456.20000000000005</ele><time>2026-04-30T08:30:37.336Z</time></trkpt><trkpt lat="43.4901667" lon="11.3922917"><ele>456.40000000000003</ele><time>2026-04-30T08:30:38.336Z</time></trkpt><trkpt lat="43.4901917" lon="11.3924183"><ele>456.6</ele><time>2026-04-30T08:30:39.335Z</time></trkpt><trkpt lat="43.4902217" lon="11.3925367"><ele>456.8</ele><time>2026-04-30T08:30:40.336Z</time></trkpt><trkpt lat="43.4902533" lon="11.3926467"><ele>457.0</ele><time>2026-04-30T08:30:41.336Z</time></trkpt><trkpt lat="43.490285" lon="11.3927567"><ele>457.0</ele><time>2026-04-30T08:30:42.335Z</time></trkpt><trkpt lat="43.4903133" lon="11.3928717"><ele>457.00000000000006</ele><time>2026-04-30T08:30:43.335Z</time></trkpt><trkpt lat="43.4903417" lon="11.3929967"><ele>457.00000000000006</ele><time>2026-04-30T08:30:44.336Z</time></trkpt><trkpt lat="43.4903717" lon="11.39313"><ele>457.0</ele><time>2026-04-30T08:30:45.335Z</time></trkpt><trkpt lat="43.4903933" lon="11.393275"><ele>457.0</ele><time>2026-04-30T08:30:46.336Z</time></trkpt><trkpt lat="43.4903967" lon="11.393425"><ele>457.75</ele><time>2026-04-30T08:30:47.336Z</time></trkpt><trkpt lat="43.490375" lon="11.393575"><ele>458.5</ele><time>2026-04-30T08:30:48.336Z</time></trkpt><trkpt lat="43.4903367" lon="11.3937233"><ele>459.25</ele><time>2026-04-30T08:30:49.336Z</time></trkpt><trkpt lat="43.49028" lon="11.3938717"><ele>460.0</ele><time>2026-04-30T08:30:50.336Z</time></trkpt><trkpt lat="43.490215" lon="11.3940183"><ele>461.0</ele><time>2026-04-30T08:30:51.336Z</time></trkpt><trkpt lat="43.490155" lon="11.39416"><ele>462.0</ele><time>2026-04-30T08:30:52.336Z</time></trkpt><trkpt lat="43.490105" lon="11.3943183"><ele>463.0</ele><time>2026-04-30T08:30:53.335Z</time></trkpt><trkpt lat="43.4900817" lon="11.3944867"><ele>464.0</ele><time>2026-04-30T08:30:54.336Z</time></trkpt><trkpt lat="43.490075" lon="11.3946533"><ele>465.25</ele><time>2026-04-30T08:30:55.336Z</time></trkpt><trkpt lat="43.49008" lon="11.394825"><ele>466.5</ele><time>2026-04-30T08:30:56.336Z</time></trkpt><trkpt lat="43.49009" lon="11.39499"><ele>467.75</ele><time>2026-04-30T08:30:57.336Z</time></trkpt><trkpt lat="43.4900933" lon="11.3951533"><ele>469.0</ele><time>2026-04-30T08:30:58.335Z</time></trkpt><trkpt lat="43.4900933" lon="11.3953283"><ele>469.0</ele><time>2026-04-30T08:30:59.336Z</time></trkpt><trkpt lat="43.4900933" lon="11.3954983"><ele>469.0</ele><time>2026-04-30T08:31:00.336Z</time></trkpt><trkpt lat="43.490085" lon="11.3956767"><ele>469.0</ele><time>2026-04-30T08:31:01.335Z</time></trkpt><trkpt lat="43.4900717" lon="11.3958483"><ele>469.0</ele><time>2026-04-30T08:31:02.336Z</time></trkpt><trkpt lat="43.4900533" lon="11.3960167"><ele>470.0</ele><time>2026-04-30T08:31:03.336Z</time></trkpt><trkpt lat="43.4900267" lon="11.3961783"><ele>471.0</ele><time>2026-04-30T08:31:04.335Z</time></trkpt><trkpt lat="43.489985" lon="11.3963333"><ele>472.0</ele><time>2026-04-30T08:31:05.335Z</time></trkpt><trkpt lat="43.48992" lon="11.396465"><ele>473.0</ele><time>2026-04-30T08:31:06.335Z</time></trkpt><trkpt lat="43.48984" lon="11.39658"><ele>473.0</ele><time>2026-04-30T08:31:07.335Z</time></trkpt><trkpt lat="43.4897467" lon="11.396695"><ele>473.0</ele><time>2026-04-30T08:31:08.336Z</time></trkpt><trkpt lat="43.489665" lon="11.396815"><ele>473.0</ele><time>2026-04-30T08:31:09.336Z</time></trkpt><trkpt lat="43.4895933" lon="11.3969533"><ele>473.0</ele><time>2026-04-30T08:31:10.336Z</time></trkpt><trkpt lat="43.48953" lon="11.3970917"><ele>477.25</ele><time>2026-04-30T08:31:11.335Z</time></trkpt><trkpt lat="43.489465" lon="11.3972483"><ele>481.5</ele><time>2026-04-30T08:31:12.336Z</time></trkpt><trkpt lat="43.4893867" lon="11.3974283"><ele>485.75</ele><time>2026-04-30T08:31:13.336Z</time></trkpt><trkpt lat="43.48931" lon="11.3976167"><ele>490.0</ele><time>2026-04-30T08:31:14.336Z</time></trkpt><trkpt lat="43.489225" lon="11.3978117"><ele>488.0</ele><time>2026-04-30T08:31:15.336Z</time></trkpt><trkpt lat="43.489125" lon="11.3980083"><ele>486.0</ele><time>2026-04-30T08:31:16.336Z</time></trkpt><trkpt lat="43.4890333" lon="11.3981883"><ele>484.0</ele><time>2026-04-30T08:31:17.336Z</time></trkpt><trkpt lat="43.488945" lon="11.3983583"><ele>484.0</ele><time>2026-04-30T08:31:18.336Z</time></trkpt><trkpt lat="43.4888667" lon="11.3985117"><ele>484.0</ele><time>2026-04-30T08:31:19.336Z</time></trkpt><trkpt lat="43.4887967" lon="11.39867"><ele>484.0</ele><time>2026-04-30T08:31:20.336Z</time></trkpt><trkpt lat="43.4887267" lon="11.39881"><ele>484.0</ele><time>2026-04-30T08:31:21.335Z</time></trkpt><trkpt lat="43.4886617" lon="11.3989483"><ele>487.2</ele><time>2026-04-30T08:31:22.335Z</time></trkpt><trkpt lat="43.4886033" lon="11.3990783"><ele>490.4</ele><time>2026-04-30T08:31:23.336Z</time></trkpt><trkpt lat="43.4885467" lon="11.3992"><ele>493.6</ele><time>2026-04-30T08:31:24.336Z</time></trkpt><trkpt lat="43.4884867" lon="11.399315"><ele>496.8</ele><time>2026-04-30T08:31:25.335Z</time></trkpt><trkpt lat="43.488425" lon="11.3994283"><ele>500.0</ele><time>2026-04-30T08:31:26.336Z</time></trkpt><trkpt lat="43.4883467" lon="11.39953"><ele>500.0</ele><time>2026-04-30T08:31:27.336Z</time></trkpt><trkpt lat="43.488255" lon="11.3996183"><ele>500.0</ele><time>2026-04-30T08:31:28.336Z</time></trkpt><trkpt lat="43.4881517" lon="11.3996817"><ele>500.0</ele><time>2026-04-30T08:31:29.335Z</time></trkpt><trkpt lat="43.4880517" lon="11.3997217"><ele>500.0</ele><time>2026-04-30T08:31:30.336Z</time></trkpt><trkpt lat="43.4879567" lon="11.3997467"><ele>500.0</ele><time>2026-04-30T08:31:31.336Z</time></trkpt><trkpt lat="43.4878683" lon="11.399755"><ele>500.16666666666663</ele><time>2026-04-30T08:31:32.335Z</time></trkpt><trkpt lat="43.4877933" lon="11.39975"><ele>500.3333333333333</ele><time>2026-04-30T08:31:33.336Z</time></trkpt><trkpt lat="43.487725" lon="11.3997533"><ele>500.5</ele><time>2026-04-30T08:31:34.336Z</time></trkpt><trkpt lat="43.4876517" lon="11.3997467"><ele>500.66666666666663</ele><time>2026-04-30T08:31:35.336Z</time></trkpt><trkpt lat="43.487565" lon="11.39974"><ele>500.8333333333333</ele><time>2026-04-30T08:31:36.336Z</time></trkpt><trkpt lat="43.4874533" lon="11.39973"><ele>501.0</ele><time>2026-04-30T08:31:37.336Z</time></trkpt><trkpt lat="43.48731" lon="11.3997083"><ele>501.0</ele><time>2026-04-30T08:31:38.336Z</time></trkpt><trkpt lat="43.48714" lon="11.3996783"><ele>501.0</ele><time>2026-04-30T08:31:39.336Z</time></trkpt><trkpt lat="43.48696" lon="11.3996467"><ele>501.0</ele><time>2026-04-30T08:31:40.336Z</time></trkpt><trkpt lat="43.4867783" lon="11.3996117"><ele>501.0</ele><time>2026-04-30T08:31:41.336Z</time></trkpt><trkpt lat="43.4865983" lon="11.39956"><ele>501.0</ele><time>2026-04-30T08:31:42.335Z</time></trkpt><trkpt lat="43.4864317" lon="11.3995083"><ele>501.0</ele><time>2026-04-30T08:31:43.336Z</time></trkpt><trkpt lat="43.4862783" lon="11.39945"><ele>496.25</ele><time>2026-04-30T08:31:44.335Z</time></trkpt><trkpt lat="43.4861583" lon="11.39937"><ele>491.5</ele><time>2026-04-30T08:31:45.336Z</time></trkpt><trkpt lat="43.4860617" lon="11.399275"><ele>486.75</ele><time>2026-04-30T08:31:46.336Z</time></trkpt><trkpt lat="43.48599" lon="11.3991417"><ele>482.0</ele><time>2026-04-30T08:31:47.336Z</time></trkpt><trkpt lat="43.485965" lon="11.3989833"><ele>483.25</ele><time>2026-04-30T08:31:48.335Z</time></trkpt><trkpt lat="43.485965" lon="11.3988117"><ele>484.5</ele><time>2026-04-30T08:31:49.335Z</time></trkpt><trkpt lat="43.48599" lon="11.3986267"><ele>485.75</ele><time>2026-04-30T08:31:50.336Z</time></trkpt><trkpt lat="43.4859883" lon="11.39844"><ele>487.0</ele><time>2026-04-30T08:31:51.335Z</time></trkpt><trkpt lat="43.4859633" lon="11.3982683"><ele>487.0</ele><time>2026-04-30T08:31:52.336Z</time></trkpt><trkpt lat="43.4858983" lon="11.3981383"><ele>487.0</ele><time>2026-04-30T08:31:53.336Z</time></trkpt><trkpt lat="43.4857983" lon="11.3980317"><ele>487.0</ele><time>2026-04-30T08:31:54.336Z</time></trkpt><trkpt lat="43.485675" lon="11.39797"><ele>487.0</ele><time>2026-04-30T08:31:55.336Z</time></trkpt><trkpt lat="43.4855267" lon="11.3979367"><ele>486.6666666666667</ele><time>2026-04-30T08:31:56.335Z</time></trkpt><trkpt lat="43.4853733" lon="11.3979517"><ele>486.33333333333337</ele><time>2026-04-30T08:31:57.336Z</time></trkpt><trkpt lat="43.4852217" lon="11.39796"><ele>486.0</ele><time>2026-04-30T08:31:58.336Z</time></trkpt><trkpt lat="43.4850767" lon="11.3979317"><ele>486.0</ele><time>2026-04-30T08:31:59.336Z</time></trkpt><trkpt lat="43.48495" lon="11.3978533"><ele>486.0</ele><time>2026-04-30T08:32:00.336Z</time></trkpt><trkpt lat="43.48483" lon="11.397745"><ele>486.0</ele><time>2026-04-30T08:32:01.336Z</time></trkpt><trkpt lat="43.48471" lon="11.3975917"><ele>486.0</ele><time>2026-04-30T08:32:02.336Z</time></trkpt><trkpt lat="43.4846067" lon="11.3974483"><ele>482.25</ele><time>2026-04-30T08:32:03.336Z</time></trkpt><trkpt lat="43.4845183" lon="11.3973067"><ele>478.5</ele><time>2026-04-30T08:32:04.336Z</time></trkpt><trkpt lat="43.484465" lon="11.39716"><ele>474.75</ele><time>2026-04-30T08:32:05.335Z</time></trkpt><trkpt lat="43.4844583" lon="11.3969967"><ele>471.0</ele><time>2026-04-30T08:32:06.335Z</time></trkpt><trkpt lat="43.4844817" lon="11.3968183"><ele>471.0</ele><time>2026-04-30T08:32:07.336Z</time></trkpt><trkpt lat="43.4845167" lon="11.3966433"><ele>471.0</ele><time>2026-04-30T08:32:08.336Z</time></trkpt><trkpt lat="43.4845267" lon="11.3964667"><ele>471.0</ele><time>2026-04-30T08:32:09.335Z</time></trkpt><trkpt lat="43.4844967" lon="11.3962967"><ele>471.0</ele><time>2026-04-30T08:32:10.336Z</time></trkpt><trkpt lat="43.4844233" lon="11.396145"><ele>473.0</ele><time>2026-04-30T08:32:11.335Z</time></trkpt><trkpt lat="43.484315" lon="11.3960167"><ele>475.0</ele><time>2026-04-30T08:32:12.335Z</time></trkpt><trkpt lat="43.4841783" lon="11.3959317"><ele>477.0</ele><time>2026-04-30T08:32:13.336Z</time></trkpt><trkpt lat="43.48402" lon="11.3958867"><ele>477.0</ele><time>2026-04-30T08:32:14.336Z</time></trkpt><trkpt lat="43.48385" lon="11.3958767"><ele>477.0</ele><time>2026-04-30T08:32:15.335Z</time></trkpt><trkpt lat="43.48367" lon="11.39591"><ele>477.0</ele><time>2026-04-30T08:32:16.336Z</time></trkpt><trkpt lat="43.4834817" lon="11.3959617"><ele>474.66666666666663</ele><time>2026-04-30T08:32:17.336Z</time></trkpt><trkpt lat="43.4833033" lon="11.396035"><ele>472.3333333333333</ele><time>2026-04-30T08:32:18.336Z</time></trkpt><trkpt lat="43.483135" lon="11.396115"><ele>470.0</ele><time>2026-04-30T08:32:19.336Z</time></trkpt><trkpt lat="43.4829883" lon="11.3962033"><ele>468.75</ele><time>2026-04-30T08:32:20.336Z</time></trkpt><trkpt lat="43.4828583" lon="11.3962483"><ele>467.5</ele><time>2026-04-30T08:32:21.335Z</time></trkpt><trkpt lat="43.4827433" lon="11.396255"><ele>466.25</ele><time>2026-04-30T08:32:22.336Z</time></trkpt><trkpt lat="43.48263" lon="11.3962133"><ele>465.0</ele><time>2026-04-30T08:32:23.335Z</time></trkpt><trkpt lat="43.4825417" lon="11.3961117"><ele>465.0</ele><time>2026-04-30T08:32:24.335Z</time></trkpt><trkpt lat="43.482465" lon="11.3959683"><ele>465.0</ele><time>2026-04-30T08:32:25.336Z</time></trkpt><trkpt lat="43.4823833" lon="11.3958133"><ele>465.0</ele><time>2026-04-30T08:32:26.335Z</time></trkpt><trkpt lat="43.4822867" lon="11.39569"><ele>465.0</ele><time>2026-04-30T08:32:27.335Z</time></trkpt><trkpt lat="43.4821667" lon="11.3956167"><ele>462.33333333333337</ele><time>2026-04-30T08:32:28.336Z</time></trkpt><trkpt lat="43.4820233" lon="11.3955833"><ele>459.6666666666667</ele><time>2026-04-30T08:32:29.336Z</time></trkpt><trkpt lat="43.4818733" lon="11.39559"><ele>457.0</ele><time>2026-04-30T08:32:30.336Z</time></trkpt><trkpt lat="43.4817167" lon="11.39564"><ele>457.0</ele><time>2026-04-30T08:32:31.336Z</time></trkpt><trkpt lat="43.4815567" lon="11.39571"><ele>457.0</ele><time>2026-04-30T08:32:32.336Z</time></trkpt><trkpt lat="43.48141" lon="11.3957533"><ele>457.0</ele><time>2026-04-30T08:32:33.336Z</time></trkpt><trkpt lat="43.48126" lon="11.39576"><ele>454.5</ele><time>2026-04-30T08:32:34.336Z</time></trkpt><trkpt lat="43.4811133" lon="11.3957367"><ele>452.0</ele><time>2026-04-30T08:32:35.335Z</time></trkpt><trkpt lat="43.4809833" lon="11.3956917"><ele>449.5</ele><time>2026-04-30T08:32:36.336Z</time></trkpt><trkpt lat="43.4808733" lon="11.3956167"><ele>447.0</ele><time>2026-04-30T08:32:37.336Z</time></trkpt><trkpt lat="43.4807833" lon="11.3955183"><ele>448.5</ele><time>2026-04-30T08:32:38.335Z</time></trkpt><trkpt lat="43.4807167" lon="11.3953883"><ele>450.0</ele><time>2026-04-30T08:32:39.335Z</time></trkpt><trkpt lat="43.4806917" lon="11.3952317"><ele>451.5</ele><time>2026-04-30T08:32:40.336Z</time></trkpt><trkpt lat="43.4806933" lon="11.3950733"><ele>453.0</ele><time>2026-04-30T08:32:41.335Z</time></trkpt><trkpt lat="43.4807267" lon="11.3948983"><ele>453.0</ele><time>2026-04-30T08:32:42.336Z</time></trkpt><trkpt lat="43.4807817" lon="11.39473"><ele>453.0</ele><time>2026-04-30T08:32:43.336Z</time></trkpt><trkpt lat="43.48086" lon="11.3945483"><ele>453.0</ele><time>2026-04-30T08:32:44.335Z</time></trkpt><trkpt lat="43.4809267" lon="11.3943767"><ele>453.0</ele><time>2026-04-30T08:32:45.336Z</time></trkpt><trkpt lat="43.4809683" lon="11.3942067"><ele>453.25</ele><time>2026-04-30T08:32:46.336Z</time></trkpt><trkpt lat="43.4809667" lon="11.3940417"><ele>453.5</ele><time>2026-04-30T08:32:47.336Z</time></trkpt><trkpt lat="43.4809317" lon="11.3938667"><ele>453.75</ele><time>2026-04-30T08:32:48.335Z</time></trkpt><trkpt lat="43.48085" lon="11.3937117"><ele>454.0</ele><time>2026-04-30T08:32:49.335Z</time></trkpt><trkpt lat="43.480745" lon="11.3935917"><ele>454.0</ele><time>2026-04-30T08:32:50.336Z</time></trkpt><trkpt lat="43.4806317" lon="11.3935233"><ele>454.0</ele><time>2026-04-30T08:32:51.335Z</time></trkpt><trkpt lat="43.48051" lon="11.3935017"><ele>454.0</ele><time>2026-04-30T08:32:52.336Z</time></trkpt><trkpt lat="43.4803833" lon="11.393535"><ele>454.0</ele><time>2026-04-30T08:32:53.336Z</time></trkpt><trkpt lat="43.4802483" lon="11.3935633"><ele>451.75</ele><time>2026-04-30T08:32:54.336Z</time></trkpt><trkpt lat="43.4801217" lon="11.3935517"><ele>449.5</ele><time>2026-04-30T08:32:55.336Z</time></trkpt><trkpt lat="43.4800117" lon="11.393485"><ele>447.25</ele><time>2026-04-30T08:32:56.336Z</time></trkpt><trkpt lat="43.4799167" lon="11.3933583"><ele>445.0</ele><time>2026-04-30T08:32:57.336Z</time></trkpt><trkpt lat="43.4798283" lon="11.393205"><ele>445.0</ele><time>2026-04-30T08:32:58.336Z</time></trkpt><trkpt lat="43.479735" lon="11.3930633"><ele>445.0</ele><time>2026-04-30T08:32:59.335Z</time></trkpt><trkpt lat="43.47963" lon="11.3929867"><ele>445.0</ele><time>2026-04-30T08:33:00.336Z</time></trkpt><trkpt lat="43.4795117" lon="11.392965"><ele>445.0</ele><time>2026-04-30T08:33:01.336Z</time></trkpt><trkpt lat="43.4793933" lon="11.393015"><ele>443.25</ele><time>2026-04-30T08:33:02.336Z</time></trkpt><trkpt lat="43.479285" lon="11.3931217"><ele>441.5</ele><time>2026-04-30T08:33:03.335Z</time></trkpt><trkpt lat="43.4791917" lon="11.3932517"><ele>439.75</ele><time>2026-04-30T08:33:04.335Z</time></trkpt><trkpt lat="43.4791017" lon="11.3933567"><ele>438.0</ele><time>2026-04-30T08:33:05.336Z</time></trkpt><trkpt lat="43.4790133" lon="11.393425"><ele>438.0</ele><time>2026-04-30T08:33:06.336Z</time></trkpt><trkpt lat="43.4789133" lon="11.3934417"><ele>438.0</ele><time>2026-04-30T08:33:07.336Z</time></trkpt><trkpt lat="43.4788" lon="11.3934"><ele>438.0</ele><time>2026-04-30T08:33:08.335Z</time></trkpt><trkpt lat="43.4786783" lon="11.3933117"><ele>438.0</ele><time>2026-04-30T08:33:09.336Z</time></trkpt><trkpt lat="43.47856" lon="11.393185"><ele>437.5</ele><time>2026-04-30T08:33:10.336Z</time></trkpt><trkpt lat="43.4784467" lon="11.3930383"><ele>437.0</ele><time>2026-04-30T08:33:11.335Z</time></trkpt><trkpt lat="43.4783417" lon="11.392895"><ele>436.5</ele><time>2026-04-30T08:33:12.335Z</time></trkpt><trkpt lat="43.4782517" lon="11.39275"><ele>436.0</ele><time>2026-04-30T08:33:13.336Z</time></trkpt><trkpt lat="43.4781767" lon="11.392605"><ele>436.0</ele><time>2026-04-30T08:33:14.336Z</time></trkpt><trkpt lat="43.4781067" lon="11.39248"><ele>436.0</ele><time>2026-04-30T08:33:15.336Z</time></trkpt><trkpt lat="43.4780317" lon="11.3923867"><ele>436.0</ele><time>2026-04-30T08:33:16.335Z</time></trkpt><trkpt lat="43.477945" lon="11.3923367"><ele>436.0</ele><time>2026-04-30T08:33:17.336Z</time></trkpt><trkpt lat="43.4778567" lon="11.3923433"><ele>436.0</ele><time>2026-04-30T08:33:18.336Z</time></trkpt><trkpt lat="43.477785" lon="11.392385"><ele>432.4</ele><time>2026-04-30T08:33:19.336Z</time></trkpt><trkpt lat="43.4777367" lon="11.3924767"><ele>428.8</ele><time>2026-04-30T08:33:20.336Z</time></trkpt><trkpt lat="43.477725" lon="11.3926067"><ele>425.2</ele><time>2026-04-30T08:33:21.335Z</time></trkpt><trkpt lat="43.4777533" lon="11.392745"><ele>421.59999999999997</ele><time>2026-04-30T08:33:22.336Z</time></trkpt><trkpt lat="43.4778167" lon="11.3928883"><ele>418.0</ele><time>2026-04-30T08:33:23.336Z</time></trkpt><trkpt lat="43.4779167" lon="11.3930633"><ele>421.6666666666667</ele><time>2026-04-30T08:33:24.336Z</time></trkpt><trkpt lat="43.4779967" lon="11.3932633"><ele>425.33333333333337</ele><time>2026-04-30T08:33:25.335Z</time></trkpt><trkpt lat="43.4780233" lon="11.39346"><ele>429.0</ele><time>2026-04-30T08:33:26.336Z</time></trkpt><trkpt lat="43.4780083" lon="11.39366"><ele>427.0</ele><time>2026-04-30T08:33:27.336Z</time></trkpt><trkpt lat="43.4779883" lon="11.3938533"><ele>425.0</ele><time>2026-04-30T08:33:28.336Z</time></trkpt><trkpt lat="43.47799" lon="11.3940217"><ele>423.0</ele><time>2026-04-30T08:33:29.335Z</time></trkpt><trkpt lat="43.4780167" lon="11.394185"><ele>421.0</ele><time>2026-04-30T08:33:30.336Z</time></trkpt><trkpt lat="43.478085" lon="11.3943483"><ele>421.0</ele><time>2026-04-30T08:33:31.336Z</time></trkpt><trkpt lat="43.478195" lon="11.39447"><ele>421.0</ele><time>2026-04-30T08:33:32.335Z</time></trkpt><trkpt lat="43.4783267" lon="11.394575"><ele>421.0</ele><time>2026-04-30T08:33:33.336Z</time></trkpt><trkpt lat="43.47846" lon="11.3946533"><ele>421.0</ele><time>2026-04-30T08:33:34.336Z</time></trkpt><trkpt lat="43.4785767" lon="11.3947217"><ele>421.4</ele><time>2026-04-30T08:33:35.336Z</time></trkpt><trkpt lat="43.478685" lon="11.3947933"><ele>421.8</ele><time>2026-04-30T08:33:36.336Z</time></trkpt><trkpt lat="43.4787517" lon="11.3949017"><ele>422.2</ele><time>2026-04-30T08:33:37.336Z</time></trkpt><trkpt lat="43.4787883" lon="11.3950417"><ele>422.59999999999997</ele><time>2026-04-30T08:33:38.336Z</time></trkpt><trkpt lat="43.478785" lon="11.3951683"><ele>423.0</ele><time>2026-04-30T08:33:39.336Z</time></trkpt><trkpt lat="43.4787417" lon="11.3952633"><ele>420.0</ele><time>2026-04-30T08:33:40.336Z</time></trkpt><trkpt lat="43.4786667" lon="11.3953067"><ele>417.0</ele><time>2026-04-30T08:33:41.336Z</time></trkpt><trkpt lat="43.47856" lon="11.3953117"><ele>414.0</ele><time>2026-04-30T08:33:42.336Z</time></trkpt><trkpt lat="43.4784333" lon="11.3952667"><ele>411.0</ele><time>2026-04-30T08:33:43.335Z</time></trkpt><trkpt lat="43.4782833" lon="11.3951733"><ele>411.0</ele><time>2026-04-30T08:33:44.336Z</time></trkpt><trkpt lat="43.4781233" lon="11.39508"><ele>411.0</ele><time>2026-04-30T08:33:45.336Z</time></trkpt><trkpt lat="43.4779733" lon="11.3949967"><ele>411.0</ele><time>2026-04-30T08:33:46.335Z</time></trkpt><trkpt lat="43.477835" lon="11.394915"><ele>409.75</ele><time>2026-04-30T08:33:47.336Z</time></trkpt><trkpt lat="43.477705" lon="11.3948367"><ele>408.5</ele><time>2026-04-30T08:33:48.336Z</time></trkpt><trkpt lat="43.477575" lon="11.3947483"><ele>407.25</ele><time>2026-04-30T08:33:49.336Z</time></trkpt><trkpt lat="43.4774517" lon="11.3946333"><ele>406.0</ele><time>2026-04-30T08:33:50.336Z</time></trkpt><trkpt lat="43.4773367" lon="11.3945083"><ele>406.0</ele><time>2026-04-30T08:33:51.336Z</time></trkpt><trkpt lat="43.4772317" lon="11.3943833"><ele>406.0</ele><time>2026-04-30T08:33:52.335Z</time></trkpt><trkpt lat="43.47713" lon="11.3942667"><ele>406.0</ele><time>2026-04-30T08:33:53.336Z</time></trkpt><trkpt lat="43.4770367" lon="11.3941617"><ele>406.0</ele><time>2026-04-30T08:33:54.336Z</time></trkpt><trkpt lat="43.4769367" lon="11.39407"><ele>404.6</ele><time>2026-04-30T08:33:55.335Z</time></trkpt><trkpt lat="43.4768483" lon="11.393985"><ele>403.20000000000005</ele><time>2026-04-30T08:33:56.336Z</time></trkpt><trkpt lat="43.4767583" lon="11.3939283"><ele>401.79999999999995</ele><time>2026-04-30T08:33:57.336Z</time></trkpt><trkpt lat="43.4766667" lon="11.3938867"><ele>400.4</ele><time>2026-04-30T08:33:58.336Z</time></trkpt><trkpt lat="43.4765783" lon="11.3938667"><ele>399.0</ele><time>2026-04-30T08:33:59.336Z</time></trkpt><trkpt lat="43.476485" lon="11.3938967"><ele>399.0</ele><time>2026-04-30T08:34:00.336Z</time></trkpt><trkpt lat="43.4764083" lon="11.3939683"><ele>399.0</ele><time>2026-04-30T08:34:01.336Z</time></trkpt><trkpt lat="43.4763383" lon="11.39408"><ele>399.0</ele><time>2026-04-30T08:34:02.336Z</time></trkpt><trkpt lat="43.4762783" lon="11.394215"><ele>399.0</ele><time>2026-04-30T08:34:03.336Z</time></trkpt><trkpt lat="43.4762433" lon="11.39435"><ele>399.0</ele><time>2026-04-30T08:34:04.336Z</time></trkpt><trkpt lat="43.4762067" lon="11.3944717"><ele>398.75</ele><time>2026-04-30T08:34:05.336Z</time></trkpt><trkpt lat="43.4761433" lon="11.3945867"><ele>398.5</ele><time>2026-04-30T08:34:06.336Z</time></trkpt><trkpt lat="43.4760583" lon="11.3946783"><ele>398.25</ele><time>2026-04-30T08:34:07.336Z</time></trkpt><trkpt lat="43.4759583" lon="11.39476"><ele>398.0</ele><time>2026-04-30T08:34:08.336Z</time></trkpt><trkpt lat="43.475835" lon="11.3948367"><ele>397.0</ele><time>2026-04-30T08:34:09.336Z</time></trkpt><trkpt lat="43.47569" lon="11.3949017"><ele>396.0</ele><time>2026-04-30T08:34:10.336Z</time></trkpt><trkpt lat="43.475525" lon="11.3949683"><ele>395.0</ele><time>2026-04-30T08:34:11.336Z</time></trkpt><trkpt lat="43.475385" lon="11.3950183"><ele>395.0</ele><time>2026-04-30T08:34:12.336Z</time></trkpt><trkpt lat="43.4752583" lon="11.3950683"><ele>395.0</ele><time>2026-04-30T08:34:13.336Z</time></trkpt><trkpt lat="43.475155" lon="11.3951317"><ele>395.0</ele><time>2026-04-30T08:34:14.336Z</time></trkpt><trkpt lat="43.4750417" lon="11.3952083"><ele>395.0</ele><time>2026-04-30T08:34:15.336Z</time></trkpt><trkpt lat="43.47493" lon="11.39531"><ele>395.0</ele><time>2026-04-30T08:34:16.336Z</time></trkpt><trkpt lat="43.4748" lon="11.3954517"><ele>395.0</ele><time>2026-04-30T08:34:17.336Z</time></trkpt><trkpt lat="43.4746483" lon="11.3956"><ele>395.0</ele><time>2026-04-30T08:34:18.336Z</time></trkpt><trkpt lat="43.474495" lon="11.3957567"><ele>394.3333333333333</ele><time>2026-04-30T08:34:19.336Z</time></trkpt><trkpt lat="43.47433" lon="11.39593"><ele>393.66666666666663</ele><time>2026-04-30T08:34:20.336Z</time></trkpt><trkpt lat="43.47417" lon="11.3961067"><ele>393.0</ele><time>2026-04-30T08:34:21.336Z</time></trkpt><trkpt lat="43.474025" lon="11.3962917"><ele>391.66666666666663</ele><time>2026-04-30T08:34:22.336Z</time></trkpt><trkpt lat="43.4738783" lon="11.39646"><ele>390.3333333333333</ele><time>2026-04-30T08:34:23.336Z</time></trkpt><trkpt lat="43.4737217" lon="11.39664"><ele>389.0</ele><time>2026-04-30T08:34:24.336Z</time></trkpt><trkpt lat="43.473565" lon="11.39683"><ele>389.0</ele><time>2026-04-30T08:34:25.336Z</time></trkpt><trkpt lat="43.473405" lon="11.3970067"><ele>389.0</ele><time>2026-04-30T08:34:26.336Z</time></trkpt><trkpt lat="43.4732633" lon="11.3971867"><ele>389.0</ele><time>2026-04-30T08:34:27.335Z</time></trkpt><trkpt lat="43.4731333" lon="11.39737"><ele>388.0</ele><time>2026-04-30T08:34:28.336Z</time></trkpt><trkpt lat="43.4730033" lon="11.3975467"><ele>387.0</ele><time>2026-04-30T08:34:29.336Z</time></trkpt><trkpt lat="43.472875" lon="11.3977"><ele>386.0</ele><time>2026-04-30T08:34:30.336Z</time></trkpt><trkpt lat="43.472735" lon="11.39783"><ele>386.0</ele><time>2026-04-30T08:34:31.336Z</time></trkpt><trkpt lat="43.4725767" lon="11.397945"><ele>386.0</ele><time>2026-04-30T08:34:32.335Z</time></trkpt><trkpt lat="43.4724267" lon="11.3980433"><ele>386.0</ele><time>2026-04-30T08:34:33.336Z</time></trkpt><trkpt lat="43.4722783" lon="11.3981317"><ele>385.3333333333333</ele><time>2026-04-30T08:34:34.335Z</time></trkpt><trkpt lat="43.4721433" lon="11.3982483"><ele>384.66666666666663</ele><time>2026-04-30T08:34:35.335Z</time></trkpt><trkpt lat="43.4720267" lon="11.398405"><ele>384.0</ele><time>2026-04-30T08:34:36.336Z</time></trkpt><trkpt lat="43.4719167" lon="11.3985983"><ele>384.0</ele><time>2026-04-30T08:34:37.336Z</time></trkpt><trkpt lat="43.4718233" lon="11.3988083"><ele>384.0</ele><time>2026-04-30T08:34:38.335Z</time></trkpt><trkpt lat="43.4717267" lon="11.399045"><ele>384.0</ele><time>2026-04-30T08:34:39.336Z</time></trkpt><trkpt lat="43.4716267" lon="11.3992933"><ele>385.0</ele><time>2026-04-30T08:34:40.336Z</time></trkpt><trkpt lat="43.471525" lon="11.3995467"><ele>386.0</ele><time>2026-04-30T08:34:41.336Z</time></trkpt><trkpt lat="43.4714233" lon="11.3997983"><ele>387.0</ele><time>2026-04-30T08:34:42.335Z</time></trkpt><trkpt lat="43.47133" lon="11.4000417"><ele>386.0</ele><time>2026-04-30T08:34:43.336Z</time></trkpt><trkpt lat="43.471245" lon="11.4002717"><ele>385.0</ele><time>2026-04-30T08:34:44.336Z</time></trkpt><trkpt lat="43.4711467" lon="11.4004917"><ele>384.0</ele><time>2026-04-30T08:34:45.336Z</time></trkpt><trkpt lat="43.4710333" lon="11.4006967"><ele>384.0</ele><time>2026-04-30T08:34:46.336Z</time></trkpt><trkpt lat="43.470915" lon="11.4008683"><ele>384.0</ele><time>2026-04-30T08:34:47.336Z</time></trkpt><trkpt lat="43.4707767" lon="11.4010217"><ele>384.0</ele><time>2026-04-30T08:34:48.336Z</time></trkpt><trkpt lat="43.4706183" lon="11.40115"><ele>384.0</ele><time>2026-04-30T08:34:49.336Z</time></trkpt><trkpt lat="43.4704467" lon="11.401275"><ele>384.0</ele><time>2026-04-30T08:34:50.336Z</time></trkpt><trkpt lat="43.47027" lon="11.4013883"><ele>384.0</ele><time>2026-04-30T08:34:51.336Z</time></trkpt><trkpt lat="43.4700933" lon="11.4015233"><ele>384.0</ele><time>2026-04-30T08:34:52.336Z</time></trkpt><trkpt lat="43.4699267" lon="11.4016583"><ele>384.0</ele><time>2026-04-30T08:34:53.336Z</time></trkpt><trkpt lat="43.469775" lon="11.40179"><ele>384.0</ele><time>2026-04-30T08:34:54.336Z</time></trkpt><trkpt lat="43.46962" lon="11.4019067"><ele>381.3333333333333</ele><time>2026-04-30T08:34:55.335Z</time></trkpt><trkpt lat="43.46946" lon="11.402015"><ele>378.66666666666663</ele><time>2026-04-30T08:34:56.336Z</time></trkpt><trkpt lat="43.4692917" lon="11.4020883"><ele>376.0</ele><time>2026-04-30T08:34:57.336Z</time></trkpt><trkpt lat="43.4691183" lon="11.402135"><ele>375.3333333333333</ele><time>2026-04-30T08:34:58.336Z</time></trkpt><trkpt lat="43.4689517" lon="11.4021767"><ele>374.6666666666667</ele><time>2026-04-30T08:34:59.336Z</time></trkpt><trkpt lat="43.46879" lon="11.40223"><ele>374.0</ele><time>2026-04-30T08:35:00.336Z</time></trkpt><trkpt lat="43.468635" lon="11.4023367"><ele>374.0</ele><time>2026-04-30T08:35:01.336Z</time></trkpt><trkpt lat="43.46849" lon="11.4024817"><ele>374.0</ele><time>2026-04-30T08:35:02.336Z</time></trkpt><trkpt lat="43.46835" lon="11.4026733"><ele>374.0</ele><time>2026-04-30T08:35:03.336Z</time></trkpt><trkpt lat="43.4682117" lon="11.40287"><ele>372.33333333333337</ele><time>2026-04-30T08:35:04.335Z</time></trkpt><trkpt lat="43.4680667" lon="11.4030733"><ele>370.6666666666667</ele><time>2026-04-30T08:35:05.336Z</time></trkpt><trkpt lat="43.46791" lon="11.403285"><ele>369.0</ele><time>2026-04-30T08:35:06.336Z</time></trkpt><trkpt lat="43.4677583" lon="11.4034967"><ele>369.0</ele><time>2026-04-30T08:35:07.336Z</time></trkpt><trkpt lat="43.4676167" lon="11.4037033"><ele>369.0</ele><time>2026-04-30T08:35:08.336Z</time></trkpt><trkpt lat="43.4674717" lon="11.4039067"><ele>369.0</ele><time>2026-04-30T08:35:09.336Z</time></trkpt><trkpt lat="43.4673233" lon="11.4041267"><ele>368.3333333333333</ele><time>2026-04-30T08:35:10.335Z</time></trkpt><trkpt lat="43.467175" lon="11.40434"><ele>367.66666666666663</ele><time>2026-04-30T08:35:11.336Z</time></trkpt><trkpt lat="43.4670267" lon="11.4045517"><ele>367.0</ele><time>2026-04-30T08:35:12.336Z</time></trkpt><trkpt lat="43.4668733" lon="11.404775"><ele>367.0</ele><time>2026-04-30T08:35:13.336Z</time></trkpt><trkpt lat="43.4667217" lon="11.405"><ele>367.0</ele><time>2026-04-30T08:35:14.336Z</time></trkpt><trkpt lat="43.4665717" lon="11.405225"><ele>367.0</ele><time>2026-04-30T08:35:15.336Z</time></trkpt><trkpt lat="43.466415" lon="11.4054433"><ele>365.0</ele><time>2026-04-30T08:35:16.336Z</time></trkpt><trkpt lat="43.4662683" lon="11.40566"><ele>363.0</ele><time>2026-04-30T08:35:17.335Z</time></trkpt><trkpt lat="43.4661217" lon="11.4058683"><ele>361.0</ele><time>2026-04-30T08:35:18.336Z</time></trkpt><trkpt lat="43.465985" lon="11.4060767"><ele>361.0</ele><time>2026-04-30T08:35:19.336Z</time></trkpt><trkpt lat="43.4658633" lon="11.4062933"><ele>361.0</ele><time>2026-04-30T08:35:20.336Z</time></trkpt><trkpt lat="43.4657533" lon="11.4065283"><ele>361.0</ele><time>2026-04-30T08:35:21.335Z</time></trkpt><trkpt lat="43.4656517" lon="11.40676"><ele>360.66666666666663</ele><time>2026-04-30T08:35:22.336Z</time></trkpt><trkpt lat="43.4655667" lon="11.406975"><ele>360.3333333333333</ele><time>2026-04-30T08:35:23.336Z</time></trkpt><trkpt lat="43.4654833" lon="11.4071667"><ele>360.0</ele><time>2026-04-30T08:35:24.336Z</time></trkpt><trkpt lat="43.465405" lon="11.4073483"><ele>359.25</ele><time>2026-04-30T08:35:25.336Z</time></trkpt><trkpt lat="43.4653233" lon="11.4075267"><ele>358.5</ele><time>2026-04-30T08:35:26.336Z</time></trkpt><trkpt lat="43.46524" lon="11.4076833"><ele>357.75</ele><time>2026-04-30T08:35:27.335Z</time></trkpt><trkpt lat="43.465145" lon="11.407815"><ele>357.0</ele><time>2026-04-30T08:35:28.336Z</time></trkpt><trkpt lat="43.4650367" lon="11.4079333"><ele>356.5</ele><time>2026-04-30T08:35:29.336Z</time></trkpt><trkpt lat="43.46491" lon="11.4080217"><ele>356.0</ele><time>2026-04-30T08:35:30.336Z</time></trkpt><trkpt lat="43.4647633" lon="11.4080933"><ele>355.5</ele><time>2026-04-30T08:35:31.336Z</time></trkpt><trkpt lat="43.46462" lon="11.4081583"><ele>355.0</ele><time>2026-04-30T08:35:32.336Z</time></trkpt><trkpt lat="43.4644933" lon="11.4082733"><ele>355.0</ele><time>2026-04-30T08:35:33.336Z</time></trkpt><trkpt lat="43.4643767" lon="11.4084433"><ele>355.0</ele><time>2026-04-30T08:35:34.335Z</time></trkpt><trkpt lat="43.4642867" lon="11.4086367"><ele>355.0</ele><time>2026-04-30T08:35:35.336Z</time></trkpt><trkpt lat="43.4642083" lon="11.408845"><ele>355.3333333333333</ele><time>2026-04-30T08:35:36.336Z</time></trkpt><trkpt lat="43.46416" lon="11.4090883"><ele>355.6666666666667</ele><time>2026-04-30T08:35:37.336Z</time></trkpt><trkpt lat="43.464135" lon="11.4093283"><ele>356.0</ele><time>2026-04-30T08:35:38.336Z</time></trkpt><trkpt lat="43.46411" lon="11.4095767"><ele>357.33333333333337</ele><time>2026-04-30T08:35:39.336Z</time></trkpt><trkpt lat="43.4640783" lon="11.40983"><ele>358.6666666666667</ele><time>2026-04-30T08:35:40.336Z</time></trkpt><trkpt lat="43.4640283" lon="11.4100733"><ele>360.0</ele><time>2026-04-30T08:35:41.336Z</time></trkpt><trkpt lat="43.46396" lon="11.4103083"><ele>361.3333333333333</ele><time>2026-04-30T08:35:42.336Z</time></trkpt><trkpt lat="43.46387" lon="11.4105367"><ele>362.66666666666663</ele><time>2026-04-30T08:35:43.336Z</time></trkpt><trkpt lat="43.4637567" lon="11.4107567"><ele>364.0</ele><time>2026-04-30T08:35:44.335Z</time></trkpt><trkpt lat="43.463635" lon="11.4109833"><ele>361.3333333333333</ele><time>2026-04-30T08:35:45.336Z</time></trkpt><trkpt lat="43.46352" lon="11.4112"><ele>358.6666666666667</ele><time>2026-04-30T08:35:46.335Z</time></trkpt><trkpt lat="43.463395" lon="11.4114333"><ele>356.0</ele><time>2026-04-30T08:35:47.335Z</time></trkpt><trkpt lat="43.4632733" lon="11.41166"><ele>356.0</ele><time>2026-04-30T08:35:48.335Z</time></trkpt><trkpt lat="43.4631533" lon="11.4118817"><ele>356.0</ele><time>2026-04-30T08:35:49.336Z</time></trkpt><trkpt lat="43.4630233" lon="11.4121267"><ele>356.0</ele><time>2026-04-30T08:35:50.335Z</time></trkpt><trkpt lat="43.4628933" lon="11.4123683"><ele>355.0</ele><time>2026-04-30T08:35:51.336Z</time></trkpt><trkpt lat="43.4627683" lon="11.4125917"><ele>354.0</ele><time>2026-04-30T08:35:52.335Z</time></trkpt><trkpt lat="43.4626533" lon="11.4128133"><ele>353.0</ele><time>2026-04-30T08:35:53.335Z</time></trkpt><trkpt lat="43.4625367" lon="11.4130183"><ele>353.0</ele><time>2026-04-30T08:35:54.336Z</time></trkpt><trkpt lat="43.4624183" lon="11.4132117"><ele>353.0</ele><time>2026-04-30T08:35:55.336Z</time></trkpt><trkpt lat="43.4623017" lon="11.41337"><ele>353.0</ele><time>2026-04-30T08:35:56.336Z</time></trkpt><trkpt lat="43.4621683" lon="11.4135117"><ele>351.6666666666667</ele><time>2026-04-30T08:35:57.336Z</time></trkpt><trkpt lat="43.4620133" lon="11.4136383"><ele>350.3333333333333</ele><time>2026-04-30T08:35:58.336Z</time></trkpt><trkpt lat="43.4618433" lon="11.41373"><ele>349.0</ele><time>2026-04-30T08:35:59.336Z</time></trkpt><trkpt lat="43.46168" lon="11.4137967"><ele>348.66666666666663</ele><time>2026-04-30T08:36:00.336Z</time></trkpt><trkpt lat="43.4615233" lon="11.413885"><ele>348.3333333333333</ele><time>2026-04-30T08:36:01.336Z</time></trkpt><trkpt lat="43.461375" lon="11.41401"><ele>348.0</ele><time>2026-04-30T08:36:02.335Z</time></trkpt><trkpt lat="43.4612317" lon="11.414175"><ele>348.0</ele><time>2026-04-30T08:36:03.336Z</time></trkpt><trkpt lat="43.46109" lon="11.414355"><ele>348.0</ele><time>2026-04-30T08:36:04.335Z</time></trkpt><trkpt lat="43.4609533" lon="11.41452"><ele>348.0</ele><time>2026-04-30T08:36:05.335Z</time></trkpt><trkpt lat="43.4608233" lon="11.4146633"><ele>348.0</ele><time>2026-04-30T08:36:06.335Z</time></trkpt><trkpt lat="43.4606717" lon="11.4147767"><ele>348.0</ele><time>2026-04-30T08:36:07.336Z</time></trkpt><trkpt lat="43.4604983" lon="11.4148817"><ele>348.0</ele><time>2026-04-30T08:36:08.335Z</time></trkpt><trkpt lat="43.46032" lon="11.4149783"><ele>348.0</ele><time>2026-04-30T08:36:09.336Z</time></trkpt><trkpt lat="43.4601417" lon="11.4151"><ele>348.0</ele><time>2026-04-30T08:36:10.335Z</time></trkpt><trkpt lat="43.459965" lon="11.4152383"><ele>348.0</ele><time>2026-04-30T08:36:11.336Z</time></trkpt><trkpt lat="43.4597817" lon="11.415375"><ele>347.6666666666667</ele><time>2026-04-30T08:36:12.336Z</time></trkpt><trkpt lat="43.45959" lon="11.41552"><ele>347.33333333333337</ele><time>2026-04-30T08:36:13.336Z</time></trkpt><trkpt lat="43.4594017" lon="11.4156583"><ele>347.0</ele><time>2026-04-30T08:36:14.336Z</time></trkpt><trkpt lat="43.4592217" lon="11.4157833"><ele>347.0</ele><time>2026-04-30T08:36:15.335Z</time></trkpt><trkpt lat="43.4590383" lon="11.4159117"><ele>347.0</ele><time>2026-04-30T08:36:16.335Z</time></trkpt><trkpt lat="43.4588567" lon="11.41603"><ele>347.0</ele><time>2026-04-30T08:36:17.336Z</time></trkpt><trkpt lat="43.4586767" lon="11.4161183"><ele>347.33333333333337</ele><time>2026-04-30T08:36:18.336Z</time></trkpt><trkpt lat="43.4584833" lon="11.4162067"><ele>347.6666666666667</ele><time>2026-04-30T08:36:19.336Z</time></trkpt><trkpt lat="43.4583033" lon="11.4162667"><ele>348.0</ele><time>2026-04-30T08:36:20.336Z</time></trkpt><trkpt lat="43.45813" lon="11.416345"><ele>348.0</ele><time>2026-04-30T08:36:21.336Z</time></trkpt><trkpt lat="43.457955" lon="11.41643"><ele>348.0</ele><time>2026-04-30T08:36:22.335Z</time></trkpt><trkpt lat="43.457795" lon="11.41655"><ele>348.0</ele><time>2026-04-30T08:36:23.336Z</time></trkpt><trkpt lat="43.4576533" lon="11.4167017"><ele>346.3333333333333</ele><time>2026-04-30T08:36:24.336Z</time></trkpt><trkpt lat="43.45753" lon="11.4169033"><ele>344.66666666666663</ele><time>2026-04-30T08:36:25.336Z</time></trkpt><trkpt lat="43.4574317" lon="11.4171267"><ele>343.0</ele><time>2026-04-30T08:36:26.335Z</time></trkpt><trkpt lat="43.4573533" lon="11.4173583"><ele>343.0</ele><time>2026-04-30T08:36:27.336Z</time></trkpt><trkpt lat="43.4572983" lon="11.4175883"><ele>343.0</ele><time>2026-04-30T08:36:28.336Z</time></trkpt><trkpt lat="43.4572767" lon="11.41782"><ele>343.0</ele><time>2026-04-30T08:36:29.336Z</time></trkpt><trkpt lat="43.4572717" lon="11.4180317"><ele>343.3333333333333</ele><time>2026-04-30T08:36:30.335Z</time></trkpt><trkpt lat="43.4572483" lon="11.41823"><ele>343.6666666666667</ele><time>2026-04-30T08:36:31.336Z</time></trkpt><trkpt lat="43.4571883" lon="11.41842"><ele>344.0</ele><time>2026-04-30T08:36:32.336Z</time></trkpt><trkpt lat="43.457085" lon="11.418595"><ele>342.6666666666667</ele><time>2026-04-30T08:36:33.336Z</time></trkpt><trkpt lat="43.45696" lon="11.4187533"><ele>341.3333333333333</ele><time>2026-04-30T08:36:34.336Z</time></trkpt><trkpt lat="43.4568233" lon="11.4189183"><ele>340.0</ele><time>2026-04-30T08:36:35.336Z</time></trkpt><trkpt lat="43.45669" lon="11.4190817"><ele>340.0</ele><time>2026-04-30T08:36:36.336Z</time></trkpt><trkpt lat="43.4565567" lon="11.419235"><ele>340.0</ele><time>2026-04-30T08:36:37.336Z</time></trkpt><trkpt lat="43.45642" lon="11.4193717"><ele>340.0</ele><time>2026-04-30T08:36:38.335Z</time></trkpt><trkpt lat="43.4562733" lon="11.4194833"><ele>338.66666666666663</ele><time>2026-04-30T08:36:39.336Z</time></trkpt><trkpt lat="43.45611" lon="11.4195783"><ele>337.3333333333333</ele><time>2026-04-30T08:36:40.336Z</time></trkpt><trkpt lat="43.4559433" lon="11.4196617"><ele>336.0</ele><time>2026-04-30T08:36:41.336Z</time></trkpt><trkpt lat="43.4557817" lon="11.4197317"><ele>338.6666666666667</ele><time>2026-04-30T08:36:42.336Z</time></trkpt><trkpt lat="43.4556117" lon="11.4197717"><ele>341.33333333333337</ele><time>2026-04-30T08:36:43.336Z</time></trkpt><trkpt lat="43.4554383" lon="11.4197783"><ele>344.0</ele><time>2026-04-30T08:36:44.336Z</time></trkpt><trkpt lat="43.455255" lon="11.41977"><ele>345.0</ele><time>2026-04-30T08:36:45.335Z</time></trkpt><trkpt lat="43.455075" lon="11.4197417"><ele>346.0</ele><time>2026-04-30T08:36:46.336Z</time></trkpt><trkpt lat="43.4549033" lon="11.4196867"><ele>347.0</ele><time>2026-04-30T08:36:47.336Z</time></trkpt><trkpt lat="43.4547333" lon="11.41959"><ele>345.0</ele><time>2026-04-30T08:36:48.336Z</time></trkpt><trkpt lat="43.45457" lon="11.4194783"><ele>343.0</ele><time>2026-04-30T08:36:49.335Z</time></trkpt><trkpt lat="43.4544117" lon="11.4193383"><ele>341.0</ele><time>2026-04-30T08:36:50.336Z</time></trkpt><trkpt lat="43.4542583" lon="11.4191883"><ele>341.0</ele><time>2026-04-30T08:36:51.336Z</time></trkpt><trkpt lat="43.4541117" lon="11.4190433"><ele>341.0</ele><time>2026-04-30T08:36:52.336Z</time></trkpt><trkpt lat="43.4539717" lon="11.418905"><ele>341.0</ele><time>2026-04-30T08:36:53.336Z</time></trkpt><trkpt lat="43.453825" lon="11.4187917"><ele>338.0</ele><time>2026-04-30T08:36:54.335Z</time></trkpt><trkpt lat="43.4536733" lon="11.4187167"><ele>335.0</ele><time>2026-04-30T08:36:55.335Z</time></trkpt><trkpt lat="43.4535133" lon="11.41866"><ele>332.0</ele><time>2026-04-30T08:36:56.336Z</time></trkpt><trkpt lat="43.45334" lon="11.4186517"><ele>332.0</ele><time>2026-04-30T08:36:57.336Z</time></trkpt><trkpt lat="43.453155" lon="11.418655"><ele>332.0</ele><time>2026-04-30T08:36:58.335Z</time></trkpt><trkpt lat="43.4529617" lon="11.4186667"><ele>332.0</ele><time>2026-04-30T08:36:59.335Z</time></trkpt><trkpt lat="43.4527617" lon="11.418675"><ele>331.6666666666667</ele><time>2026-04-30T08:37:00.336Z</time></trkpt><trkpt lat="43.45256" lon="11.4186817"><ele>331.3333333333333</ele><time>2026-04-30T08:37:01.336Z</time></trkpt><trkpt lat="43.452355" lon="11.4186917"><ele>331.0</ele><time>2026-04-30T08:37:02.335Z</time></trkpt><trkpt lat="43.452155" lon="11.418695"><ele>330.3333333333333</ele><time>2026-04-30T08:37:03.335Z</time></trkpt><trkpt lat="43.4519567" lon="11.4187067"><ele>329.6666666666667</ele><time>2026-04-30T08:37:04.336Z</time></trkpt><trkpt lat="43.4517567" lon="11.4187283"><ele>329.0</ele><time>2026-04-30T08:37:05.336Z</time></trkpt><trkpt lat="43.451565" lon="11.4187533"><ele>329.0</ele><time>2026-04-30T08:37:06.335Z</time></trkpt><trkpt lat="43.451375" lon="11.4187767"><ele>329.0</ele><time>2026-04-30T08:37:07.336Z</time></trkpt><trkpt lat="43.4511967" lon="11.4188033"><ele>329.0</ele><time>2026-04-30T08:37:08.336Z</time></trkpt><trkpt lat="43.451035" lon="11.4188267"><ele>328.25</ele><time>2026-04-30T08:37:09.336Z</time></trkpt><trkpt lat="43.4508817" lon="11.4188533"><ele>327.5</ele><time>2026-04-30T08:37:10.335Z</time></trkpt><trkpt lat="43.4507367" lon="11.418875"><ele>326.75</ele><time>2026-04-30T08:37:11.335Z</time></trkpt><trkpt lat="43.4506117" lon="11.4189017"><ele>326.0</ele><time>2026-04-30T08:37:12.336Z</time></trkpt><trkpt lat="43.4504933" lon="11.4189333"><ele>325.5</ele><time>2026-04-30T08:37:13.336Z</time></trkpt><trkpt lat="43.4503733" lon="11.4189567"><ele>325.0</ele><time>2026-04-30T08:37:14.336Z</time></trkpt><trkpt lat="43.4502417" lon="11.4189683"><ele>324.5</ele><time>2026-04-30T08:37:15.336Z</time></trkpt><trkpt lat="43.4500933" lon="11.4189483"><ele>324.0</ele><time>2026-04-30T08:37:16.336Z</time></trkpt><trkpt lat="43.4499433" lon="11.4188833"><ele>325.3333333333333</ele><time>2026-04-30T08:37:17.335Z</time></trkpt><trkpt lat="43.4497917" lon="11.418805"><ele>326.66666666666663</ele><time>2026-04-30T08:37:18.336Z</time></trkpt><trkpt lat="43.449635" lon="11.4187333"><ele>328.0</ele><time>2026-04-30T08:37:19.336Z</time></trkpt><trkpt lat="43.449475" lon="11.41868"><ele>329.0</ele><time>2026-04-30T08:37:20.336Z</time></trkpt><trkpt lat="43.4492917" lon="11.4186267"><ele>330.0</ele><time>2026-04-30T08:37:21.335Z</time></trkpt><trkpt lat="43.4491183" lon="11.4185883"><ele>331.0</ele><time>2026-04-30T08:37:22.336Z</time></trkpt><trkpt lat="43.4489583" lon="11.4185667"><ele>331.0</ele><time>2026-04-30T08:37:23.335Z</time></trkpt><trkpt lat="43.4487983" lon="11.4185617"><ele>331.0</ele><time>2026-04-30T08:37:24.336Z</time></trkpt><trkpt lat="43.4486467" lon="11.4185517"><ele>331.0</ele><time>2026-04-30T08:37:25.336Z</time></trkpt><trkpt lat="43.4485" lon="11.41852"><ele>331.0</ele><time>2026-04-30T08:37:26.336Z</time></trkpt><trkpt lat="43.448355" lon="11.4184633"><ele>331.0</ele><time>2026-04-30T08:37:27.336Z</time></trkpt><trkpt lat="43.4482133" lon="11.4183767"><ele>331.0</ele><time>2026-04-30T08:37:28.336Z</time></trkpt><trkpt lat="43.4480767" lon="11.4182533"><ele>329.0</ele><time>2026-04-30T08:37:29.336Z</time></trkpt><trkpt lat="43.44794" lon="11.4181167"><ele>327.0</ele><time>2026-04-30T08:37:30.336Z</time></trkpt><trkpt lat="43.4478" lon="11.4179717"><ele>325.0</ele><time>2026-04-30T08:37:31.336Z</time></trkpt><trkpt lat="43.4476533" lon="11.41786"><ele>329.3333333333333</ele><time>2026-04-30T08:37:32.336Z</time></trkpt><trkpt lat="43.4474967" lon="11.41777"><ele>333.6666666666667</ele><time>2026-04-30T08:37:33.336Z</time></trkpt><trkpt lat="43.44733" lon="11.41772"><ele>338.0</ele><time>2026-04-30T08:37:34.336Z</time></trkpt><trkpt lat="43.44715" lon="11.41768"><ele>338.6666666666667</ele><time>2026-04-30T08:37:35.335Z</time></trkpt><trkpt lat="43.4469717" lon="11.41764"><ele>339.3333333333333</ele><time>2026-04-30T08:37:36.336Z</time></trkpt><trkpt lat="43.4467917" lon="11.4175883"><ele>340.0</ele><time>2026-04-30T08:37:37.335Z</time></trkpt><trkpt lat="43.446625" lon="11.4175433"><ele>340.0</ele><time>2026-04-30T08:37:38.336Z</time></trkpt><trkpt lat="43.44647" lon="11.417495"><ele>340.0</ele><time>2026-04-30T08:37:39.336Z</time></trkpt><trkpt lat="43.4463217" lon="11.4174583"><ele>340.0</ele><time>2026-04-30T08:37:40.336Z</time></trkpt><trkpt lat="43.4461833" lon="11.4174633"><ele>340.0</ele><time>2026-04-30T08:37:41.336Z</time></trkpt><trkpt lat="43.446055" lon="11.4175183"><ele>340.5</ele><time>2026-04-30T08:37:42.336Z</time></trkpt><trkpt lat="43.4459483" lon="11.4176283"><ele>341.0</ele><time>2026-04-30T08:37:43.335Z</time></trkpt><trkpt lat="43.4458583" lon="11.4177833"><ele>341.5</ele><time>2026-04-30T08:37:44.336Z</time></trkpt><trkpt lat="43.4457783" lon="11.4179767"><ele>342.0</ele><time>2026-04-30T08:37:45.336Z</time></trkpt><trkpt lat="43.4457117" lon="11.4181917"><ele>342.0</ele><time>2026-04-30T08:37:46.336Z</time></trkpt><trkpt lat="43.44567" lon="11.4184133"><ele>342.0</ele><time>2026-04-30T08:37:47.336Z</time></trkpt><trkpt lat="43.44565" lon="11.4186667"><ele>342.0</ele><time>2026-04-30T08:37:48.335Z</time></trkpt><trkpt lat="43.44565" lon="11.4189017"><ele>340.0</ele><time>2026-04-30T08:37:49.336Z</time></trkpt><trkpt lat="43.445655" lon="11.4191133"><ele>338.0</ele><time>2026-04-30T08:37:50.336Z</time></trkpt><trkpt lat="43.4456433" lon="11.4193017"><ele>336.0</ele><time>2026-04-30T08:37:51.335Z</time></trkpt><trkpt lat="43.4456167" lon="11.4194683"><ele>334.0</ele><time>2026-04-30T08:37:52.336Z</time></trkpt><trkpt lat="43.445555" lon="11.4196067"><ele>335.25</ele><time>2026-04-30T08:37:53.336Z</time></trkpt><trkpt lat="43.4454617" lon="11.41972"><ele>336.5</ele><time>2026-04-30T08:37:54.336Z</time></trkpt><trkpt lat="43.4453367" lon="11.4198133"><ele>337.75</ele><time>2026-04-30T08:37:55.336Z</time></trkpt><trkpt lat="43.44519" lon="11.4199017"><ele>339.0</ele><time>2026-04-30T08:37:56.336Z</time></trkpt><trkpt lat="43.44503" lon="11.4199883"><ele>339.0</ele><time>2026-04-30T08:37:57.336Z</time></trkpt><trkpt lat="43.4448717" lon="11.4200667"><ele>339.0</ele><time>2026-04-30T08:37:58.336Z</time></trkpt><trkpt lat="43.4447233" lon="11.4201567"><ele>339.0</ele><time>2026-04-30T08:37:59.336Z</time></trkpt><trkpt lat="43.4445883" lon="11.4202833"><ele>338.3333333333333</ele><time>2026-04-30T08:38:00.336Z</time></trkpt><trkpt lat="43.4444617" lon="11.42046"><ele>337.66666666666663</ele><time>2026-04-30T08:38:01.336Z</time></trkpt><trkpt lat="43.4443467" lon="11.420635"><ele>337.0</ele><time>2026-04-30T08:38:02.335Z</time></trkpt><trkpt lat="43.4442333" lon="11.4207883"><ele>337.0</ele><time>2026-04-30T08:38:03.336Z</time></trkpt><trkpt lat="43.4441033" lon="11.42092"><ele>337.0</ele><time>2026-04-30T08:38:04.335Z</time></trkpt><trkpt lat="43.44396" lon="11.4210417"><ele>337.0</ele><time>2026-04-30T08:38:05.336Z</time></trkpt><trkpt lat="43.4437917" lon="11.4211633"><ele>340.0</ele><time>2026-04-30T08:38:06.335Z</time></trkpt><trkpt lat="43.4436183" lon="11.421285"><ele>343.0</ele><time>2026-04-30T08:38:07.336Z</time></trkpt><trkpt lat="43.443455" lon="11.4213967"><ele>346.0</ele><time>2026-04-30T08:38:08.335Z</time></trkpt><trkpt lat="43.4433" lon="11.4214867"><ele>340.0</ele><time>2026-04-30T08:38:09.335Z</time></trkpt><trkpt lat="43.4431367" lon="11.4215417"><ele>334.0</ele><time>2026-04-30T08:38:10.335Z</time></trkpt><trkpt lat="43.4429633" lon="11.42157"><ele>328.0</ele><time>2026-04-30T08:38:11.335Z</time></trkpt><trkpt lat="43.4427817" lon="11.4215783"><ele>328.0</ele><time>2026-04-30T08:38:12.336Z</time></trkpt><trkpt lat="43.44259" lon="11.421565"><ele>328.0</ele><time>2026-04-30T08:38:13.336Z</time></trkpt><trkpt lat="43.4423967" lon="11.421555"><ele>328.0</ele><time>2026-04-30T08:38:14.336Z</time></trkpt><trkpt lat="43.4422017" lon="11.4215383"><ele>326.3333333333333</ele><time>2026-04-30T08:38:15.336Z</time></trkpt><trkpt lat="43.4420083" lon="11.4215067"><ele>324.6666666666667</ele><time>2026-04-30T08:38:16.336Z</time></trkpt><trkpt lat="43.4418167" lon="11.4214733"><ele>323.0</ele><time>2026-04-30T08:38:17.336Z</time></trkpt><trkpt lat="43.4416267" lon="11.4214433"><ele>323.0</ele><time>2026-04-30T08:38:18.336Z</time></trkpt><trkpt lat="43.44144" lon="11.421415"><ele>323.0</ele><time>2026-04-30T08:38:19.336Z</time></trkpt><trkpt lat="43.4412583" lon="11.4213567"><ele>323.0</ele><time>2026-04-30T08:38:20.336Z</time></trkpt><trkpt lat="43.441085" lon="11.4212717"><ele>325.33333333333337</ele><time>2026-04-30T08:38:21.336Z</time></trkpt><trkpt lat="43.4409067" lon="11.4211633"><ele>327.6666666666667</ele><time>2026-04-30T08:38:22.336Z</time></trkpt><trkpt lat="43.440735" lon="11.42104"><ele>330.0</ele><time>2026-04-30T08:38:23.335Z</time></trkpt><trkpt lat="43.440565" lon="11.4209033"><ele>329.6666666666667</ele><time>2026-04-30T08:38:24.335Z</time></trkpt><trkpt lat="43.440395" lon="11.4207567"><ele>329.33333333333337</ele><time>2026-04-30T08:38:25.336Z</time></trkpt><trkpt lat="43.4402183" lon="11.4206033"><ele>329.0</ele><time>2026-04-30T08:38:26.335Z</time></trkpt><trkpt lat="43.4400433" lon="11.420445"><ele>329.0</ele><time>2026-04-30T08:38:27.336Z</time></trkpt><trkpt lat="43.439875" lon="11.4202917"><ele>329.0</ele><time>2026-04-30T08:38:28.336Z</time></trkpt><trkpt lat="43.4397017" lon="11.4201417"><ele>329.0</ele><time>2026-04-30T08:38:29.336Z</time></trkpt><trkpt lat="43.4395333" lon="11.4200033"><ele>325.33333333333337</ele><time>2026-04-30T08:38:30.336Z</time></trkpt><trkpt lat="43.4393533" lon="11.419875"><ele>321.6666666666667</ele><time>2026-04-30T08:38:31.336Z</time></trkpt><trkpt lat="43.43917" lon="11.4197733"><ele>318.0</ele><time>2026-04-30T08:38:32.336Z</time></trkpt><trkpt lat="43.4389767" lon="11.4196983"><ele>321.3333333333333</ele><time>2026-04-30T08:38:33.336Z</time></trkpt><trkpt lat="43.4387783" lon="11.419645"><ele>324.66666666666663</ele><time>2026-04-30T08:38:34.336Z</time></trkpt><trkpt lat="43.4385683" lon="11.4196233"><ele>328.0</ele><time>2026-04-30T08:38:35.336Z</time></trkpt><trkpt lat="43.438365" lon="11.41961"><ele>328.0</ele><time>2026-04-30T08:38:36.336Z</time></trkpt><trkpt lat="43.43816" lon="11.41959"><ele>328.0</ele><time>2026-04-30T08:38:37.336Z</time></trkpt><trkpt lat="43.4379517" lon="11.41956"><ele>328.0</ele><time>2026-04-30T08:38:38.336Z</time></trkpt><trkpt lat="43.4377533" lon="11.419525"><ele>326.3333333333333</ele><time>2026-04-30T08:38:39.336Z</time></trkpt><trkpt lat="43.4375533" lon="11.4194867"><ele>324.6666666666667</ele><time>2026-04-30T08:38:40.336Z</time></trkpt><trkpt lat="43.4373483" lon="11.4194517"><ele>323.0</ele><time>2026-04-30T08:38:41.336Z</time></trkpt><trkpt lat="43.437145" lon="11.4194167"><ele>322.0</ele><time>2026-04-30T08:38:42.336Z</time></trkpt><trkpt lat="43.4369433" lon="11.419375"><ele>321.0</ele><time>2026-04-30T08:38:43.335Z</time></trkpt><trkpt lat="43.436745" lon="11.4193317"><ele>320.0</ele><time>2026-04-30T08:38:44.336Z</time></trkpt><trkpt lat="43.4365433" lon="11.4192967"><ele>320.0</ele><time>2026-04-30T08:38:45.336Z</time></trkpt><trkpt lat="43.43635" lon="11.4192617"><ele>320.0</ele><time>2026-04-30T08:38:46.336Z</time></trkpt><trkpt lat="43.436155" lon="11.4192183"><ele>320.0</ele><time>2026-04-30T08:38:47.335Z</time></trkpt><trkpt lat="43.4359583" lon="11.4191833"><ele>319.6666666666667</ele><time>2026-04-30T08:38:48.336Z</time></trkpt><trkpt lat="43.4357733" lon="11.4191517"><ele>319.3333333333333</ele><time>2026-04-30T08:38:49.336Z</time></trkpt><trkpt lat="43.4355917" lon="11.4191117"><ele>319.0</ele><time>2026-04-30T08:38:50.335Z</time></trkpt><trkpt lat="43.4354283" lon="11.4190933"><ele>319.0</ele><time>2026-04-30T08:38:51.335Z</time></trkpt><trkpt lat="43.4352767" lon="11.4191"><ele>319.0</ele><time>2026-04-30T08:38:52.336Z</time></trkpt><trkpt lat="43.435135" lon="11.4191533"><ele>319.0</ele><time>2026-04-30T08:38:53.336Z</time></trkpt><trkpt lat="43.4349933" lon="11.419235"><ele>319.0</ele><time>2026-04-30T08:38:54.335Z</time></trkpt><trkpt lat="43.4348467" lon="11.4193533"><ele>319.0</ele><time>2026-04-30T08:38:55.336Z</time></trkpt><trkpt lat="43.4347017" lon="11.419495"><ele>319.0</ele><time>2026-04-30T08:38:56.336Z</time></trkpt><trkpt lat="43.4345617" lon="11.4196617"><ele>318.0</ele><time>2026-04-30T08:38:57.335Z</time></trkpt><trkpt lat="43.4344183" lon="11.41983"><ele>317.0</ele><time>2026-04-30T08:38:58.336Z</time></trkpt><trkpt lat="43.434275" lon="11.4199917"><ele>316.0</ele><time>2026-04-30T08:38:59.336Z</time></trkpt><trkpt lat="43.434135" lon="11.420155"><ele>316.0</ele><time>2026-04-30T08:39:00.336Z</time></trkpt><trkpt lat="43.4339967" lon="11.4203183"><ele>316.0</ele><time>2026-04-30T08:39:01.336Z</time></trkpt><trkpt lat="43.4338733" lon="11.4204717"><ele>316.0</ele><time>2026-04-30T08:39:02.336Z</time></trkpt><trkpt lat="43.43376" lon="11.4206117"><ele>312.75</ele><time>2026-04-30T08:39:03.336Z</time></trkpt><trkpt lat="43.433665" lon="11.4207467"><ele>309.5</ele><time>2026-04-30T08:39:04.336Z</time></trkpt><trkpt lat="43.43357" lon="11.4208517"><ele>306.25</ele><time>2026-04-30T08:39:05.336Z</time></trkpt><trkpt lat="43.4334667" lon="11.4208983"><ele>303.0</ele><time>2026-04-30T08:39:06.336Z</time></trkpt><trkpt lat="43.43336" lon="11.4208717"><ele>303.0</ele><time>2026-04-30T08:39:07.336Z</time></trkpt><trkpt lat="43.4332517" lon="11.420795"><ele>303.0</ele><time>2026-04-30T08:39:08.335Z</time></trkpt><trkpt lat="43.433155" lon="11.4206617"><ele>303.0</ele><time>2026-04-30T08:39:09.335Z</time></trkpt><trkpt lat="43.4330733" lon="11.420495"><ele>303.0</ele><time>2026-04-30T08:39:10.335Z</time></trkpt><trkpt lat="43.4329867" lon="11.4202967"><ele>302.3333333333333</ele><time>2026-04-30T08:39:11.336Z</time></trkpt><trkpt lat="43.432905" lon="11.4201033"><ele>301.66666666666663</ele><time>2026-04-30T08:39:12.336Z</time></trkpt><trkpt lat="43.432825" lon="11.4199017"><ele>301.0</ele><time>2026-04-30T08:39:13.335Z</time></trkpt><trkpt lat="43.4327417" lon="11.4197083"><ele>302.0</ele><time>2026-04-30T08:39:14.336Z</time></trkpt><trkpt lat="43.4326433" lon="11.4195383"><ele>303.0</ele><time>2026-04-30T08:39:15.336Z</time></trkpt><trkpt lat="43.432545" lon="11.419385"><ele>304.0</ele><time>2026-04-30T08:39:16.335Z</time></trkpt><trkpt lat="43.4324467" lon="11.41924"><ele>304.0</ele><time>2026-04-30T08:39:17.335Z</time></trkpt><trkpt lat="43.432345" lon="11.4190883"><ele>304.0</ele><time>2026-04-30T08:39:18.335Z</time></trkpt><trkpt lat="43.43224" lon="11.4189267"><ele>304.0</ele><time>2026-04-30T08:39:19.335Z</time></trkpt><trkpt lat="43.4321317" lon="11.41877"><ele>302.3333333333333</ele><time>2026-04-30T08:39:20.335Z</time></trkpt><trkpt lat="43.43202" lon="11.4186017"><ele>300.6666666666667</ele><time>2026-04-30T08:39:21.336Z</time></trkpt><trkpt lat="43.4319067" lon="11.4184467"><ele>299.0</ele><time>2026-04-30T08:39:22.336Z</time></trkpt><trkpt lat="43.4318067" lon="11.4183067"><ele>299.0</ele><time>2026-04-30T08:39:23.336Z</time></trkpt><trkpt lat="43.4317117" lon="11.4181683"><ele>299.0</ele><time>2026-04-30T08:39:24.335Z</time></trkpt><trkpt lat="43.4316283" lon="11.4180483"><ele>299.0</ele><time>2026-04-30T08:39:25.336Z</time></trkpt><trkpt lat="43.4315433" lon="11.4179283"><ele>299.0</ele><time>2026-04-30T08:39:26.336Z</time></trkpt><trkpt lat="43.4314683" lon="11.41782"><ele>299.33333333333337</ele><time>2026-04-30T08:39:27.336Z</time></trkpt><trkpt lat="43.43141" lon="11.417725"><ele>299.6666666666667</ele><time>2026-04-30T08:39:28.336Z</time></trkpt><trkpt lat="43.43136" lon="11.41764"><ele>300.0</ele><time>2026-04-30T08:39:29.336Z</time></trkpt><trkpt lat="43.4313067" lon="11.417585"><ele>300.3333333333333</ele><time>2026-04-30T08:39:30.335Z</time></trkpt><trkpt lat="43.4312367" lon="11.417565"><ele>300.66666666666663</ele><time>2026-04-30T08:39:31.336Z</time></trkpt><trkpt lat="43.4311633" lon="11.4175817"><ele>301.0</ele><time>2026-04-30T08:39:32.336Z</time></trkpt><trkpt lat="43.43108" lon="11.4176333"><ele>301.0</ele><time>2026-04-30T08:39:33.335Z</time></trkpt><trkpt lat="43.4309817" lon="11.4177133"><ele>301.0</ele><time>2026-04-30T08:39:34.335Z</time></trkpt><trkpt lat="43.43086" lon="11.4178267"><ele>301.0</ele><time>2026-04-30T08:39:35.336Z</time></trkpt><trkpt lat="43.4307233" lon="11.41794"><ele>301.0</ele><time>2026-04-30T08:39:36.336Z</time></trkpt><trkpt lat="43.430585" lon="11.4180467"><ele>301.3333333333333</ele><time>2026-04-30T08:39:37.336Z</time></trkpt><trkpt lat="43.4304367" lon="11.4181583"><ele>301.6666666666667</ele><time>2026-04-30T08:39:38.336Z</time></trkpt><trkpt lat="43.4302833" lon="11.4182783"><ele>302.0</ele><time>2026-04-30T08:39:39.336Z</time></trkpt><trkpt lat="43.4301283" lon="11.418395"><ele>302.0</ele><time>2026-04-30T08:39:40.336Z</time></trkpt><trkpt lat="43.4299717" lon="11.418505"><ele>302.0</ele><time>2026-04-30T08:39:41.336Z</time></trkpt><trkpt lat="43.4298183" lon="11.41862"><ele>302.0</ele><time>2026-04-30T08:39:42.336Z</time></trkpt><trkpt lat="43.42966" lon="11.418735"><ele>304.6666666666667</ele><time>2026-04-30T08:39:43.336Z</time></trkpt><trkpt lat="43.4295" lon="11.4188483"><ele>307.3333333333333</ele><time>2026-04-30T08:39:44.336Z</time></trkpt><trkpt lat="43.42934" lon="11.41894"><ele>310.0</ele><time>2026-04-30T08:39:45.336Z</time></trkpt><trkpt lat="43.4291767" lon="11.4190317"><ele>310.0</ele><time>2026-04-30T08:39:46.336Z</time></trkpt><trkpt lat="43.429005" lon="11.41909"><ele>310.0</ele><time>2026-04-30T08:39:47.336Z</time></trkpt><trkpt lat="43.4288417" lon="11.41913"><ele>310.0</ele><time>2026-04-30T08:39:48.336Z</time></trkpt><trkpt lat="43.4286767" lon="11.4191733"><ele>310.3333333333333</ele><time>2026-04-30T08:39:49.335Z</time></trkpt><trkpt lat="43.42852" lon="11.4192267"><ele>310.6666666666667</ele><time>2026-04-30T08:39:50.336Z</time></trkpt><trkpt lat="43.4283633" lon="11.4193117"><ele>311.0</ele><time>2026-04-30T08:39:51.336Z</time></trkpt><trkpt lat="43.4282167" lon="11.4194167"><ele>311.0</ele><time>2026-04-30T08:39:52.335Z</time></trkpt><trkpt lat="43.42808" lon="11.41954"><ele>311.0</ele><time>2026-04-30T08:39:53.335Z</time></trkpt><trkpt lat="43.4279567" lon="11.4196883"><ele>311.0</ele><time>2026-04-30T08:39:54.336Z</time></trkpt><trkpt lat="43.4278567" lon="11.4198367"><ele>311.0</ele><time>2026-04-30T08:39:55.335Z</time></trkpt><trkpt lat="43.4277767" lon="11.4199867"><ele>311.0</ele><time>2026-04-30T08:39:56.336Z</time></trkpt><trkpt lat="43.4277183" lon="11.4201367"><ele>311.0</ele><time>2026-04-30T08:39:57.336Z</time></trkpt><trkpt lat="43.4276983" lon="11.4203117"><ele>311.0</ele><time>2026-04-30T08:39:58.336Z</time></trkpt><trkpt lat="43.427705" lon="11.4205"><ele>311.0</ele><time>2026-04-30T08:39:59.336Z</time></trkpt><trkpt lat="43.4277383" lon="11.4207017"><ele>311.0</ele><time>2026-04-30T08:40:00.336Z</time></trkpt><trkpt lat="43.42779" lon="11.4209183"><ele>311.0</ele><time>2026-04-30T08:40:01.336Z</time></trkpt><trkpt lat="43.4278283" lon="11.4211333"><ele>310.6666666666667</ele><time>2026-04-30T08:40:02.336Z</time></trkpt><trkpt lat="43.4278317" lon="11.4213683"><ele>310.3333333333333</ele><time>2026-04-30T08:40:03.336Z</time></trkpt><trkpt lat="43.4278183" lon="11.4216133"><ele>310.0</ele><time>2026-04-30T08:40:04.336Z</time></trkpt><trkpt lat="43.42779" lon="11.42185"><ele>310.0</ele><time>2026-04-30T08:40:05.336Z</time></trkpt><trkpt lat="43.4277517" lon="11.422075"><ele>310.0</ele><time>2026-04-30T08:40:06.335Z</time></trkpt><trkpt lat="43.42769" lon="11.4222783"><ele>310.0</ele><time>2026-04-30T08:40:07.336Z</time></trkpt><trkpt lat="43.4276267" lon="11.4224583"><ele>312.0</ele><time>2026-04-30T08:40:08.336Z</time></trkpt><trkpt lat="43.4275467" lon="11.4226017"><ele>314.0</ele><time>2026-04-30T08:40:09.336Z</time></trkpt><trkpt lat="43.4274417" lon="11.422695"><ele>316.0</ele><time>2026-04-30T08:40:10.336Z</time></trkpt><trkpt lat="43.4273083" lon="11.4227467"><ele>318.0</ele><time>2026-04-30T08:40:11.336Z</time></trkpt><trkpt lat="43.4271617" lon="11.4227817"><ele>316.6666666666667</ele><time>2026-04-30T08:40:12.336Z</time></trkpt><trkpt lat="43.426995" lon="11.4228167"><ele>315.33333333333337</ele><time>2026-04-30T08:40:13.336Z</time></trkpt><trkpt lat="43.426815" lon="11.422845"><ele>314.0</ele><time>2026-04-30T08:40:14.336Z</time></trkpt><trkpt lat="43.426635" lon="11.422865"><ele>314.0</ele><time>2026-04-30T08:40:15.335Z</time></trkpt><trkpt lat="43.42648" lon="11.422915"><ele>314.0</ele><time>2026-04-30T08:40:16.336Z</time></trkpt><trkpt lat="43.4263483" lon="11.4229633"><ele>314.0</ele><time>2026-04-30T08:40:17.335Z</time></trkpt><trkpt lat="43.4262467" lon="11.423025"><ele>314.0</ele><time>2026-04-30T08:40:18.336Z</time></trkpt><trkpt lat="43.4261683" lon="11.4231433"><ele>314.25</ele><time>2026-04-30T08:40:19.336Z</time></trkpt><trkpt lat="43.4261367" lon="11.42327"><ele>314.5</ele><time>2026-04-30T08:40:20.335Z</time></trkpt><trkpt lat="43.4261483" lon="11.4234417"><ele>314.75</ele><time>2026-04-30T08:40:21.336Z</time></trkpt><trkpt lat="43.4261833" lon="11.4236283"><ele>315.0</ele><time>2026-04-30T08:40:22.336Z</time></trkpt><trkpt lat="43.42623" lon="11.4238367"><ele>316.0</ele><time>2026-04-30T08:40:23.336Z</time></trkpt><trkpt lat="43.426285" lon="11.4240617"><ele>317.0</ele><time>2026-04-30T08:40:24.336Z</time></trkpt><trkpt lat="43.426335" lon="11.4242933"><ele>318.0</ele><time>2026-04-30T08:40:25.336Z</time></trkpt><trkpt lat="43.4263883" lon="11.424535"><ele>321.6666666666667</ele><time>2026-04-30T08:40:26.336Z</time></trkpt><trkpt lat="43.426435" lon="11.4247867"><ele>325.33333333333337</ele><time>2026-04-30T08:40:27.335Z</time></trkpt><trkpt lat="43.426485" lon="11.42502"><ele>329.0</ele><time>2026-04-30T08:40:28.336Z</time></trkpt><trkpt lat="43.42653" lon="11.4252417"><ele>329.0</ele><time>2026-04-30T08:40:29.336Z</time></trkpt><trkpt lat="43.4265517" lon="11.4254667"><ele>329.0</ele><time>2026-04-30T08:40:30.335Z</time></trkpt><trkpt lat="43.4265567" lon="11.42571"><ele>329.0</ele><time>2026-04-30T08:40:31.336Z</time></trkpt><trkpt lat="43.4265333" lon="11.42596"><ele>329.33333333333337</ele><time>2026-04-30T08:40:32.336Z</time></trkpt><trkpt lat="43.4264933" lon="11.4262033"><ele>329.6666666666667</ele><time>2026-04-30T08:40:33.336Z</time></trkpt><trkpt lat="43.42644" lon="11.4264433"><ele>330.0</ele><time>2026-04-30T08:40:34.335Z</time></trkpt><trkpt lat="43.42638" lon="11.426675"><ele>330.3333333333333</ele><time>2026-04-30T08:40:35.336Z</time></trkpt><trkpt lat="43.4263067" lon="11.4268833"><ele>330.66666666666663</ele><time>2026-04-30T08:40:36.336Z</time></trkpt><trkpt lat="43.4262083" lon="11.42706"><ele>331.0</ele><time>2026-04-30T08:40:37.336Z</time></trkpt><trkpt lat="43.426105" lon="11.4272117"><ele>330.0</ele><time>2026-04-30T08:40:38.336Z</time></trkpt><trkpt lat="43.4260117" lon="11.4273533"><ele>329.0</ele><time>2026-04-30T08:40:39.336Z</time></trkpt><trkpt lat="43.42594" lon="11.4274933"><ele>328.0</ele><time>2026-04-30T08:40:40.335Z</time></trkpt><trkpt lat="43.425905" lon="11.4276767"><ele>327.0</ele><time>2026-04-30T08:40:41.335Z</time></trkpt><trkpt lat="43.4259017" lon="11.4279067"><ele>327.3333333333333</ele><time>2026-04-30T08:40:42.336Z</time></trkpt><trkpt lat="43.4259067" lon="11.4281383"><ele>327.66666666666663</ele><time>2026-04-30T08:40:43.336Z</time></trkpt><trkpt lat="43.4259117" lon="11.4283717"><ele>328.0</ele><time>2026-04-30T08:40:44.335Z</time></trkpt><trkpt lat="43.4259083" lon="11.42861"><ele>329.3333333333333</ele><time>2026-04-30T08:40:45.336Z</time></trkpt><trkpt lat="43.4259083" lon="11.42886"><ele>330.6666666666667</ele><time>2026-04-30T08:40:46.336Z</time></trkpt><trkpt lat="43.4259117" lon="11.4291133"><ele>332.0</ele><time>2026-04-30T08:40:47.336Z</time></trkpt><trkpt lat="43.425915" lon="11.42937"><ele>332.0</ele><time>2026-04-30T08:40:48.336Z</time></trkpt><trkpt lat="43.42592" lon="11.4296217"><ele>332.0</ele><time>2026-04-30T08:40:49.336Z</time></trkpt><trkpt lat="43.4259233" lon="11.4298667"><ele>332.0</ele><time>2026-04-30T08:40:50.335Z</time></trkpt><trkpt lat="43.4259233" lon="11.4301067"><ele>332.0</ele><time>2026-04-30T08:40:51.336Z</time></trkpt><trkpt lat="43.4258983" lon="11.430335"><ele>332.0</ele><time>2026-04-30T08:40:52.335Z</time></trkpt><trkpt lat="43.4258567" lon="11.430565"><ele>332.0</ele><time>2026-04-30T08:40:53.336Z</time></trkpt><trkpt lat="43.4257933" lon="11.4307933"><ele>332.6666666666667</ele><time>2026-04-30T08:40:54.335Z</time></trkpt><trkpt lat="43.4257133" lon="11.43102"><ele>333.3333333333333</ele><time>2026-04-30T08:40:55.335Z</time></trkpt><trkpt lat="43.4256217" lon="11.4312467"><ele>334.0</ele><time>2026-04-30T08:40:56.336Z</time></trkpt><trkpt lat="43.4255467" lon="11.4314533"><ele>335.5</ele><time>2026-04-30T08:40:57.336Z</time></trkpt><trkpt lat="43.4254867" lon="11.4316367"><ele>337.0</ele><time>2026-04-30T08:40:58.336Z</time></trkpt><trkpt lat="43.4254367" lon="11.4317983"><ele>338.5</ele><time>2026-04-30T08:40:59.335Z</time></trkpt><trkpt lat="43.4253917" lon="11.43194"><ele>340.0</ele><time>2026-04-30T08:41:00.336Z</time></trkpt><trkpt lat="43.4253383" lon="11.4320617"><ele>340.0</ele><time>2026-04-30T08:41:01.335Z</time></trkpt><trkpt lat="43.4252717" lon="11.4321617"><ele>340.0</ele><time>2026-04-30T08:41:02.336Z</time></trkpt><trkpt lat="43.4251933" lon="11.4322183"><ele>340.0</ele><time>2026-04-30T08:41:03.336Z</time></trkpt><trkpt lat="43.4251067" lon="11.4322483"><ele>340.0</ele><time>2026-04-30T08:41:04.336Z</time></trkpt><trkpt lat="43.425025" lon="11.4323017"><ele>340.0</ele><time>2026-04-30T08:41:05.336Z</time></trkpt><trkpt lat="43.4249617" lon="11.432395"><ele>340.0</ele><time>2026-04-30T08:41:06.336Z</time></trkpt><trkpt lat="43.4249117" lon="11.43253"><ele>340.0</ele><time>2026-04-30T08:41:07.336Z</time></trkpt><trkpt lat="43.42485" lon="11.432705"><ele>340.0</ele><time>2026-04-30T08:41:08.336Z</time></trkpt><trkpt lat="43.424775" lon="11.4329"><ele>340.0</ele><time>2026-04-30T08:41:09.336Z</time></trkpt><trkpt lat="43.424695" lon="11.4330967"><ele>348.0</ele><time>2026-04-30T08:41:10.336Z</time></trkpt><trkpt lat="43.42462" lon="11.4332883"><ele>356.0</ele><time>2026-04-30T08:41:11.335Z</time></trkpt><trkpt lat="43.4245467" lon="11.43349"><ele>364.0</ele><time>2026-04-30T08:41:12.336Z</time></trkpt><trkpt lat="43.4244783" lon="11.43369"><ele>360.75</ele><time>2026-04-30T08:41:13.335Z</time></trkpt><trkpt lat="43.42443" lon="11.43388"><ele>357.5</ele><time>2026-04-30T08:41:14.336Z</time></trkpt><trkpt lat="43.4243917" lon="11.4340667"><ele>354.25</ele><time>2026-04-30T08:41:15.336Z</time></trkpt><trkpt lat="43.4243733" lon="11.4342617"><ele>351.0</ele><time>2026-04-30T08:41:16.335Z</time></trkpt><trkpt lat="43.4243667" lon="11.43443"><ele>351.0</ele><time>2026-04-30T08:41:17.336Z</time></trkpt><trkpt lat="43.42438" lon="11.4345983"><ele>351.0</ele><time>2026-04-30T08:41:18.336Z</time></trkpt><trkpt lat="43.4244233" lon="11.43477"><ele>351.0</ele><time>2026-04-30T08:41:19.336Z</time></trkpt><trkpt lat="43.4244983" lon="11.43492"><ele>351.0</ele><time>2026-04-30T08:41:20.336Z</time></trkpt><trkpt lat="43.4246067" lon="11.4350467"><ele>348.3333333333333</ele><time>2026-04-30T08:41:21.336Z</time></trkpt><trkpt lat="43.4247383" lon="11.4351483"><ele>345.66666666666663</ele><time>2026-04-30T08:41:22.336Z</time></trkpt><trkpt lat="43.42489" lon="11.4352383"><ele>343.0</ele><time>2026-04-30T08:41:23.336Z</time></trkpt><trkpt lat="43.42504" lon="11.43533"><ele>343.0</ele><time>2026-04-30T08:41:24.336Z</time></trkpt><trkpt lat="43.425165" lon="11.4354183"><ele>343.0</ele><time>2026-04-30T08:41:25.336Z</time></trkpt><trkpt lat="43.425265" lon="11.4355183"><ele>343.0</ele><time>2026-04-30T08:41:26.336Z</time></trkpt><trkpt lat="43.4253267" lon="11.4356317"><ele>343.0</ele><time>2026-04-30T08:41:27.335Z</time></trkpt><trkpt lat="43.4253483" lon="11.4357517"><ele>345.25</ele><time>2026-04-30T08:41:28.336Z</time></trkpt><trkpt lat="43.4253317" lon="11.43587"><ele>347.5</ele><time>2026-04-30T08:41:29.335Z</time></trkpt><trkpt lat="43.425275" lon="11.4359883"><ele>349.75</ele><time>2026-04-30T08:41:30.336Z</time></trkpt><trkpt lat="43.4251883" lon="11.436125"><ele>352.0</ele><time>2026-04-30T08:41:31.335Z</time></trkpt><trkpt lat="43.4251017" lon="11.4362767"><ele>353.0</ele><time>2026-04-30T08:41:32.336Z</time></trkpt><trkpt lat="43.4250333" lon="11.43646"><ele>354.0</ele><time>2026-04-30T08:41:33.335Z</time></trkpt><trkpt lat="43.42499" lon="11.4366633"><ele>355.0</ele><time>2026-04-30T08:41:34.336Z</time></trkpt><trkpt lat="43.4249617" lon="11.4368783"><ele>355.0</ele><time>2026-04-30T08:41:35.336Z</time></trkpt><trkpt lat="43.4249417" lon="11.4371067"><ele>355.0</ele><time>2026-04-30T08:41:36.336Z</time></trkpt><trkpt lat="43.424945" lon="11.4373367"><ele>355.0</ele><time>2026-04-30T08:41:37.336Z</time></trkpt><trkpt lat="43.4249633" lon="11.4375683"><ele>355.0</ele><time>2026-04-30T08:41:38.336Z</time></trkpt><trkpt lat="43.4249983" lon="11.437805"><ele>355.0</ele><time>2026-04-30T08:41:39.336Z</time></trkpt><trkpt lat="43.4250483" lon="11.4380417"><ele>355.0</ele><time>2026-04-30T08:41:40.336Z</time></trkpt><trkpt lat="43.4251" lon="11.438285"><ele>357.0</ele><time>2026-04-30T08:41:41.335Z</time></trkpt><trkpt lat="43.425155" lon="11.43853"><ele>359.0</ele><time>2026-04-30T08:41:42.336Z</time></trkpt><trkpt lat="43.4252083" lon="11.4387483"><ele>361.0</ele><time>2026-04-30T08:41:43.336Z</time></trkpt><trkpt lat="43.42525" lon="11.4389417"><ele>359.5</ele><time>2026-04-30T08:41:44.336Z</time></trkpt><trkpt lat="43.4252933" lon="11.439105"><ele>358.0</ele><time>2026-04-30T08:41:45.336Z</time></trkpt><trkpt lat="43.4253583" lon="11.4392367"><ele>356.5</ele><time>2026-04-30T08:41:46.336Z</time></trkpt><trkpt lat="43.4254533" lon="11.439325"><ele>355.0</ele><time>2026-04-30T08:41:47.335Z</time></trkpt><trkpt lat="43.4255817" lon="11.4393483"><ele>355.0</ele><time>2026-04-30T08:41:48.336Z</time></trkpt><trkpt lat="43.425715" lon="11.4393383"><ele>355.0</ele><time>2026-04-30T08:41:49.336Z</time></trkpt><trkpt lat="43.42583" lon="11.4393617"><ele>355.0</ele><time>2026-04-30T08:41:50.336Z</time></trkpt><trkpt lat="43.4259333" lon="11.4394317"><ele>355.0</ele><time>2026-04-30T08:41:51.336Z</time></trkpt><trkpt lat="43.4260283" lon="11.4395483"><ele>356.5</ele><time>2026-04-30T08:41:52.336Z</time></trkpt><trkpt lat="43.4260917" lon="11.439705"><ele>358.0</ele><time>2026-04-30T08:41:53.336Z</time></trkpt><trkpt lat="43.42611" lon="11.4398833"><ele>359.5</ele><time>2026-04-30T08:41:54.336Z</time></trkpt><trkpt lat="43.4261267" lon="11.4401"><ele>361.0</ele><time>2026-04-30T08:41:55.336Z</time></trkpt><trkpt lat="43.4261317" lon="11.44033"><ele>362.66666666666663</ele><time>2026-04-30T08:41:56.336Z</time></trkpt><trkpt lat="43.426135" lon="11.4405617"><ele>364.3333333333333</ele><time>2026-04-30T08:41:57.335Z</time></trkpt><trkpt lat="43.4261433" lon="11.4407733"><ele>366.0</ele><time>2026-04-30T08:41:58.336Z</time></trkpt><trkpt lat="43.4261517" lon="11.4409583"><ele>366.0</ele><time>2026-04-30T08:41:59.336Z</time></trkpt><trkpt lat="43.426145" lon="11.44113"><ele>366.0</ele><time>2026-04-30T08:42:00.336Z</time></trkpt><trkpt lat="43.42611" lon="11.4412933"><ele>366.0</ele><time>2026-04-30T08:42:01.335Z</time></trkpt><trkpt lat="43.4260333" lon="11.4414183"><ele>366.0</ele><time>2026-04-30T08:42:02.336Z</time></trkpt><trkpt lat="43.4259267" lon="11.4415167"><ele>365.3333333333333</ele><time>2026-04-30T08:42:03.336Z</time></trkpt><trkpt lat="43.4257817" lon="11.4415883"><ele>364.66666666666663</ele><time>2026-04-30T08:42:04.336Z</time></trkpt><trkpt lat="43.4256217" lon="11.4416733"><ele>364.0</ele><time>2026-04-30T08:42:05.335Z</time></trkpt><trkpt lat="43.4254683" lon="11.4417483"><ele>365.66666666666663</ele><time>2026-04-30T08:42:06.336Z</time></trkpt><trkpt lat="43.425325" lon="11.4418467"><ele>367.3333333333333</ele><time>2026-04-30T08:42:07.336Z</time></trkpt><trkpt lat="43.4252" lon="11.4419783"><ele>369.0</ele><time>2026-04-30T08:42:08.336Z</time></trkpt><trkpt lat="43.4250933" lon="11.44216"><ele>369.0</ele><time>2026-04-30T08:42:09.336Z</time></trkpt><trkpt lat="43.4250067" lon="11.442365"><ele>369.0</ele><time>2026-04-30T08:42:10.336Z</time></trkpt><trkpt lat="43.424935" lon="11.4426"><ele>369.0</ele><time>2026-04-30T08:42:11.336Z</time></trkpt><trkpt lat="43.4248833" lon="11.44284"><ele>368.6666666666667</ele><time>2026-04-30T08:42:12.336Z</time></trkpt><trkpt lat="43.4248517" lon="11.4430733"><ele>368.33333333333337</ele><time>2026-04-30T08:42:13.336Z</time></trkpt><trkpt lat="43.4248433" lon="11.44328"><ele>368.0</ele><time>2026-04-30T08:42:14.336Z</time></trkpt><trkpt lat="43.4248333" lon="11.44347"><ele>368.0</ele><time>2026-04-30T08:42:15.336Z</time></trkpt><trkpt lat="43.4248083" lon="11.44364"><ele>368.0</ele><time>2026-04-30T08:42:16.336Z</time></trkpt><trkpt lat="43.42477" lon="11.4438067"><ele>368.0</ele><time>2026-04-30T08:42:17.336Z</time></trkpt><trkpt lat="43.4246983" lon="11.443965"><ele>368.0</ele><time>2026-04-30T08:42:18.335Z</time></trkpt><trkpt lat="43.42461" lon="11.4441083"><ele>373.0</ele><time>2026-04-30T08:42:19.335Z</time></trkpt><trkpt lat="43.4245083" lon="11.44426"><ele>378.0</ele><time>2026-04-30T08:42:20.336Z</time></trkpt><trkpt lat="43.4244133" lon="11.4444367"><ele>383.0</ele><time>2026-04-30T08:42:21.336Z</time></trkpt><trkpt lat="43.4243183" lon="11.44462"><ele>382.0</ele><time>2026-04-30T08:42:22.336Z</time></trkpt><trkpt lat="43.4242283" lon="11.4448083"><ele>381.0</ele><time>2026-04-30T08:42:23.336Z</time></trkpt><trkpt lat="43.4241433" lon="11.4450117"><ele>380.0</ele><time>2026-04-30T08:42:24.336Z</time></trkpt><trkpt lat="43.4240583" lon="11.445205"><ele>380.0</ele><time>2026-04-30T08:42:25.336Z</time></trkpt><trkpt lat="43.4239833" lon="11.445385"><ele>380.0</ele><time>2026-04-30T08:42:26.336Z</time></trkpt><trkpt lat="43.4239183" lon="11.4455567"><ele>380.0</ele><time>2026-04-30T08:42:27.336Z</time></trkpt><trkpt lat="43.4238817" lon="11.445705"><ele>380.0</ele><time>2026-04-30T08:42:28.336Z</time></trkpt><trkpt lat="43.4238883" lon="11.4458633"><ele>380.0</ele><time>2026-04-30T08:42:29.336Z</time></trkpt><trkpt lat="43.4239283" lon="11.4459933"><ele>380.0</ele><time>2026-04-30T08:42:30.336Z</time></trkpt><trkpt lat="43.4239983" lon="11.446085"><ele>380.0</ele><time>2026-04-30T08:42:31.336Z</time></trkpt><trkpt lat="43.4241017" lon="11.446145"><ele>380.0</ele><time>2026-04-30T08:42:32.336Z</time></trkpt><trkpt lat="43.4242217" lon="11.4462067"><ele>380.0</ele><time>2026-04-30T08:42:33.335Z</time></trkpt><trkpt lat="43.4243333" lon="11.446295"><ele>382.5</ele><time>2026-04-30T08:42:34.336Z</time></trkpt><trkpt lat="43.4244233" lon="11.4464267"><ele>385.0</ele><time>2026-04-30T08:42:35.336Z</time></trkpt><trkpt lat="43.4244817" lon="11.4465933"><ele>387.5</ele><time>2026-04-30T08:42:36.336Z</time></trkpt><trkpt lat="43.4244983" lon="11.4467733"><ele>390.0</ele><time>2026-04-30T08:42:37.336Z</time></trkpt><trkpt lat="43.4244833" lon="11.446975"><ele>391.33333333333337</ele><time>2026-04-30T08:42:38.336Z</time></trkpt><trkpt lat="43.4244367" lon="11.44717"><ele>392.6666666666667</ele><time>2026-04-30T08:42:39.335Z</time></trkpt><trkpt lat="43.4243717" lon="11.447355"><ele>394.0</ele><time>2026-04-30T08:42:40.336Z</time></trkpt><trkpt lat="43.4242567" lon="11.4475383"><ele>394.0</ele><time>2026-04-30T08:42:41.336Z</time></trkpt><trkpt lat="43.4241267" lon="11.4476917"><ele>394.0</ele><time>2026-04-30T08:42:42.336Z</time></trkpt><trkpt lat="43.4240017" lon="11.4478117"><ele>394.0</ele><time>2026-04-30T08:42:43.336Z</time></trkpt><trkpt lat="43.423905" lon="11.4479417"><ele>393.5</ele><time>2026-04-30T08:42:44.336Z</time></trkpt><trkpt lat="43.42384" lon="11.44809"><ele>393.0</ele><time>2026-04-30T08:42:45.336Z</time></trkpt><trkpt lat="43.4238133" lon="11.4482683"><ele>392.5</ele><time>2026-04-30T08:42:46.336Z</time></trkpt><trkpt lat="43.42384" lon="11.448455"><ele>392.0</ele><time>2026-04-30T08:42:47.335Z</time></trkpt><trkpt lat="43.423895" lon="11.448655"><ele>392.0</ele><time>2026-04-30T08:42:48.336Z</time></trkpt><trkpt lat="43.4239483" lon="11.4488583"><ele>392.0</ele><time>2026-04-30T08:42:49.336Z</time></trkpt><trkpt lat="43.423985" lon="11.4490583"><ele>392.0</ele><time>2026-04-30T08:42:50.336Z</time></trkpt><trkpt lat="43.42399" lon="11.449255"><ele>392.0</ele><time>2026-04-30T08:42:51.336Z</time></trkpt><trkpt lat="43.4239767" lon="11.4494533"><ele>392.0</ele><time>2026-04-30T08:42:52.336Z</time></trkpt><trkpt lat="43.42394" lon="11.44964"><ele>392.0</ele><time>2026-04-30T08:42:53.335Z</time></trkpt><trkpt lat="43.4238683" lon="11.4498167"><ele>392.0</ele><time>2026-04-30T08:42:54.335Z</time></trkpt><trkpt lat="43.42378" lon="11.4499967"><ele>393.66666666666663</ele><time>2026-04-30T08:42:55.336Z</time></trkpt><trkpt lat="43.42367" lon="11.4501667"><ele>395.33333333333337</ele><time>2026-04-30T08:42:56.336Z</time></trkpt><trkpt lat="43.4235367" lon="11.4503417"><ele>397.0</ele><time>2026-04-30T08:42:57.336Z</time></trkpt><trkpt lat="43.42341" lon="11.4505183"><ele>397.0</ele><time>2026-04-30T08:42:58.336Z</time></trkpt><trkpt lat="43.4232783" lon="11.4506783"><ele>397.0</ele><time>2026-04-30T08:42:59.336Z</time></trkpt><trkpt lat="43.4231283" lon="11.4508267"><ele>397.0</ele><time>2026-04-30T08:43:00.336Z</time></trkpt><trkpt lat="43.4229733" lon="11.4509617"><ele>404.6666666666667</ele><time>2026-04-30T08:43:01.336Z</time></trkpt><trkpt lat="43.42283" lon="11.451085"><ele>412.33333333333337</ele><time>2026-04-30T08:43:02.336Z</time></trkpt><trkpt lat="43.42269" lon="11.4511867"><ele>420.0</ele><time>2026-04-30T08:43:03.336Z</time></trkpt><trkpt lat="43.42255" lon="11.4512583"><ele>422.0</ele><time>2026-04-30T08:43:04.336Z</time></trkpt><trkpt lat="43.4224117" lon="11.4513017"><ele>424.0</ele><time>2026-04-30T08:43:05.335Z</time></trkpt><trkpt lat="43.4222783" lon="11.451315"><ele>426.0</ele><time>2026-04-30T08:43:06.336Z</time></trkpt><trkpt lat="43.42215" lon="11.45133"><ele>428.0</ele><time>2026-04-30T08:43:07.335Z</time></trkpt><trkpt lat="43.4220317" lon="11.451345"><ele>428.0</ele><time>2026-04-30T08:43:08.334Z</time></trkpt><trkpt lat="43.4219317" lon="11.4513717"><ele>427.99999999999994</ele><time>2026-04-30T08:43:09.334Z</time></trkpt><trkpt lat="43.4218633" lon="11.451445"><ele>427.99999999999994</ele><time>2026-04-30T08:43:10.334Z</time></trkpt><trkpt lat="43.4218117" lon="11.4515483"><ele>428.0</ele><time>2026-04-30T08:43:11.334Z</time></trkpt><trkpt lat="43.4217667" lon="11.4517183"><ele>428.0</ele><time>2026-04-30T08:43:12.335Z</time></trkpt><trkpt lat="43.4217567" lon="11.4519267"><ele>425.0</ele><time>2026-04-30T08:43:13.335Z</time></trkpt><trkpt lat="43.4217417" lon="11.452145"><ele>422.0</ele><time>2026-04-30T08:43:14.335Z</time></trkpt><trkpt lat="43.4217" lon="11.4523483"><ele>419.0</ele><time>2026-04-30T08:43:15.335Z</time></trkpt><trkpt lat="43.4216383" lon="11.4525433"><ele>419.0</ele><time>2026-04-30T08:43:16.335Z</time></trkpt><trkpt lat="43.4215983" lon="11.4527283"><ele>419.0</ele><time>2026-04-30T08:43:17.335Z</time></trkpt><trkpt lat="43.4215883" lon="11.4529133"><ele>419.0</ele><time>2026-04-30T08:43:18.334Z</time></trkpt><trkpt lat="43.4216233" lon="11.4530933"><ele>419.0</ele><time>2026-04-30T08:43:19.335Z</time></trkpt><trkpt lat="43.4216917" lon="11.4532483"><ele>418.0</ele><time>2026-04-30T08:43:20.334Z</time></trkpt><trkpt lat="43.421775" lon="11.4533967"><ele>417.0</ele><time>2026-04-30T08:43:21.335Z</time></trkpt><trkpt lat="43.4218233" lon="11.4535517"><ele>416.0</ele><time>2026-04-30T08:43:22.335Z</time></trkpt><trkpt lat="43.42183" lon="11.4537267"><ele>415.0</ele><time>2026-04-30T08:43:23.335Z</time></trkpt><trkpt lat="43.4218" lon="11.4538967"><ele>414.5</ele><time>2026-04-30T08:43:24.335Z</time></trkpt><trkpt lat="43.42173" lon="11.4540567"><ele>414.0</ele><time>2026-04-30T08:43:25.335Z</time></trkpt><trkpt lat="43.4216217" lon="11.454195"><ele>413.5</ele><time>2026-04-30T08:43:26.334Z</time></trkpt><trkpt lat="43.4214933" lon="11.4543233"><ele>413.0</ele><time>2026-04-30T08:43:27.335Z</time></trkpt><trkpt lat="43.421335" lon="11.454435"><ele>416.0</ele><time>2026-04-30T08:43:28.335Z</time></trkpt><trkpt lat="43.42119" lon="11.454545"><ele>419.0</ele><time>2026-04-30T08:43:29.335Z</time></trkpt><trkpt lat="43.4210533" lon="11.4546783"><ele>422.0</ele><time>2026-04-30T08:43:30.335Z</time></trkpt><trkpt lat="43.4209383" lon="11.4548483"><ele>422.0</ele><time>2026-04-30T08:43:31.335Z</time></trkpt><trkpt lat="43.4208167" lon="11.4550483"><ele>422.0</ele><time>2026-04-30T08:43:32.335Z</time></trkpt><trkpt lat="43.4206967" lon="11.4552383"><ele>422.0</ele><time>2026-04-30T08:43:33.335Z</time></trkpt><trkpt lat="43.4205717" lon="11.4554167"><ele>424.0</ele><time>2026-04-30T08:43:34.335Z</time></trkpt><trkpt lat="43.4204483" lon="11.4555967"><ele>426.0</ele><time>2026-04-30T08:43:35.335Z</time></trkpt><trkpt lat="43.4203133" lon="11.4557783"><ele>428.0</ele><time>2026-04-30T08:43:36.334Z</time></trkpt><trkpt lat="43.4201883" lon="11.455965"><ele>428.0</ele><time>2026-04-30T08:43:37.335Z</time></trkpt><trkpt lat="43.42007" lon="11.4561483"><ele>428.0</ele><time>2026-04-30T08:43:38.335Z</time></trkpt><trkpt lat="43.4199467" lon="11.4563183"><ele>428.0</ele><time>2026-04-30T08:43:39.335Z</time></trkpt><trkpt lat="43.4198367" lon="11.4564767"><ele>426.75</ele><time>2026-04-30T08:43:40.335Z</time></trkpt><trkpt lat="43.4197367" lon="11.45662"><ele>425.5</ele><time>2026-04-30T08:43:41.335Z</time></trkpt><trkpt lat="43.4196283" lon="11.4567233"><ele>424.25</ele><time>2026-04-30T08:43:42.334Z</time></trkpt><trkpt lat="43.4195017" lon="11.4568017"><ele>423.0</ele><time>2026-04-30T08:43:43.335Z</time></trkpt><trkpt lat="43.4193667" lon="11.4568517"><ele>425.5</ele><time>2026-04-30T08:43:44.335Z</time></trkpt><trkpt lat="43.4192417" lon="11.4568767"><ele>428.0</ele><time>2026-04-30T08:43:45.334Z</time></trkpt><trkpt lat="43.419135" lon="11.4569383"><ele>430.5</ele><time>2026-04-30T08:43:46.335Z</time></trkpt><trkpt lat="43.419055" lon="11.4570417"><ele>433.0</ele><time>2026-04-30T08:43:47.335Z</time></trkpt><trkpt lat="43.419" lon="11.4571583"><ele>433.0</ele><time>2026-04-30T08:43:48.334Z</time></trkpt><trkpt lat="43.4189667" lon="11.457325"><ele>433.0</ele><time>2026-04-30T08:43:49.335Z</time></trkpt><trkpt lat="43.41894" lon="11.4574967"><ele>433.0</ele><time>2026-04-30T08:43:50.335Z</time></trkpt><trkpt lat="43.418885" lon="11.4576467"><ele>433.0</ele><time>2026-04-30T08:43:51.335Z</time></trkpt><trkpt lat="43.41879" lon="11.4577767"><ele>433.0</ele><time>2026-04-30T08:43:52.334Z</time></trkpt><trkpt lat="43.4186683" lon="11.45789"><ele>433.0</ele><time>2026-04-30T08:43:53.335Z</time></trkpt><trkpt lat="43.4185333" lon="11.4580083"><ele>433.0</ele><time>2026-04-30T08:43:54.335Z</time></trkpt><trkpt lat="43.41839" lon="11.45813"><ele>433.0</ele><time>2026-04-30T08:43:55.335Z</time></trkpt><trkpt lat="43.4182533" lon="11.4582367"><ele>433.0</ele><time>2026-04-30T08:43:56.335Z</time></trkpt><trkpt lat="43.41812" lon="11.4583267"><ele>433.0</ele><time>2026-04-30T08:43:57.335Z</time></trkpt><trkpt lat="43.4180017" lon="11.458375"><ele>433.0</ele><time>2026-04-30T08:43:58.334Z</time></trkpt><trkpt lat="43.41788" lon="11.4583967"><ele>434.5</ele><time>2026-04-30T08:43:59.334Z</time></trkpt><trkpt lat="43.4177417" lon="11.45837"><ele>436.0</ele><time>2026-04-30T08:44:00.335Z</time></trkpt><trkpt lat="43.4175983" lon="11.4583033"><ele>437.5</ele><time>2026-04-30T08:44:01.335Z</time></trkpt><trkpt lat="43.4174633" lon="11.458205"><ele>439.0</ele><time>2026-04-30T08:44:02.335Z</time></trkpt><trkpt lat="43.41733" lon="11.4581167"><ele>439.0</ele><time>2026-04-30T08:44:03.335Z</time></trkpt><trkpt lat="43.41719" lon="11.4580467"><ele>439.0</ele><time>2026-04-30T08:44:04.335Z</time></trkpt><trkpt lat="43.4170417" lon="11.458015"><ele>439.0</ele><time>2026-04-30T08:44:05.335Z</time></trkpt><trkpt lat="43.4168833" lon="11.4580017"><ele>439.5</ele><time>2026-04-30T08:44:06.334Z</time></trkpt><trkpt lat="43.416745" lon="11.457985"><ele>440.0</ele><time>2026-04-30T08:44:07.335Z</time></trkpt><trkpt lat="43.4166233" lon="11.457975"><ele>440.5</ele><time>2026-04-30T08:44:08.335Z</time></trkpt><trkpt lat="43.416515" lon="11.4579783"><ele>441.0</ele><time>2026-04-30T08:44:09.334Z</time></trkpt><trkpt lat="43.4164183" lon="11.458015"><ele>441.0</ele><time>2026-04-30T08:44:10.335Z</time></trkpt><trkpt lat="43.4163317" lon="11.4580717"><ele>441.0</ele><time>2026-04-30T08:44:11.335Z</time></trkpt><trkpt lat="43.41625" lon="11.45814"><ele>441.0</ele><time>2026-04-30T08:44:12.335Z</time></trkpt><trkpt lat="43.4161733" lon="11.458215"><ele>441.0</ele><time>2026-04-30T08:44:13.334Z</time></trkpt><trkpt lat="43.4161" lon="11.4582983"><ele>441.0</ele><time>2026-04-30T08:44:14.335Z</time></trkpt><trkpt lat="43.4160383" lon="11.458385"><ele>441.8333333333333</ele><time>2026-04-30T08:44:15.335Z</time></trkpt><trkpt lat="43.4159933" lon="11.4584783"><ele>442.66666666666663</ele><time>2026-04-30T08:44:16.334Z</time></trkpt><trkpt lat="43.4159483" lon="11.4585867"><ele>443.5</ele><time>2026-04-30T08:44:17.335Z</time></trkpt><trkpt lat="43.4159183" lon="11.4586983"><ele>444.3333333333333</ele><time>2026-04-30T08:44:18.335Z</time></trkpt><trkpt lat="43.4159" lon="11.4587967"><ele>445.16666666666663</ele><time>2026-04-30T08:44:19.335Z</time></trkpt><trkpt lat="43.415885" lon="11.4588817"><ele>446.0</ele><time>2026-04-30T08:44:20.335Z</time></trkpt><trkpt lat="43.415865" lon="11.459045"><ele>446.8</ele><time>2026-04-30T08:44:22.335Z</time></trkpt><trkpt lat="43.415855" lon="11.4591983"><ele>447.6</ele><time>2026-04-30T08:44:24.334Z</time></trkpt><trkpt lat="43.4158567" lon="11.45937"><ele>448.4</ele><time>2026-04-30T08:44:26.335Z</time></trkpt><trkpt lat="43.4158583" lon="11.4594567"><ele>449.2</ele><time>2026-04-30T08:44:27.334Z</time></trkpt><trkpt lat="43.41586" lon="11.4595467"><ele>450.0</ele><time>2026-04-30T08:44:28.335Z</time></trkpt><trkpt lat="43.4158683" lon="11.4596983"><ele>451.00000000000006</ele><time>2026-04-30T08:44:30.334Z</time></trkpt><trkpt lat="43.4158717" lon="11.4597883"><ele>452.0</ele><time>2026-04-30T08:44:31.335Z</time></trkpt><trkpt lat="43.4158767" lon="11.4598883"><ele>453.00000000000006</ele><time>2026-04-30T08:44:32.335Z</time></trkpt><trkpt lat="43.415885" lon="11.4599867"><ele>454.00000000000006</ele><time>2026-04-30T08:44:33.334Z</time></trkpt><trkpt lat="43.4158933" lon="11.4600883"><ele>455.0</ele><time>2026-04-30T08:44:34.335Z</time></trkpt><trkpt lat="43.415895" lon="11.46019"><ele>456.00000000000006</ele><time>2026-04-30T08:44:35.335Z</time></trkpt><trkpt lat="43.4159017" lon="11.4602933"><ele>457.00000000000006</ele><time>2026-04-30T08:44:36.334Z</time></trkpt><trkpt lat="43.4159033" lon="11.4603933"><ele>459.33333333333337</ele><time>2026-04-30T08:44:37.334Z</time></trkpt><trkpt lat="43.4159067" lon="11.4604917"><ele>461.6666666666667</ele><time>2026-04-30T08:44:38.335Z</time></trkpt><trkpt lat="43.415915" lon="11.46059"><ele>464.0</ele><time>2026-04-30T08:44:39.335Z</time></trkpt><trkpt lat="43.41593" lon="11.460675"><ele>466.33333333333337</ele><time>2026-04-30T08:44:40.334Z</time></trkpt><trkpt lat="43.4159817" lon="11.4608167"><ele>468.6666666666667</ele><time>2026-04-30T08:44:42.335Z</time></trkpt><trkpt lat="43.4160517" lon="11.460955"><ele>471.0</ele><time>2026-04-30T08:44:44.335Z</time></trkpt><trkpt lat="43.4161" lon="11.461085"><ele>471.0</ele><time>2026-04-30T08:44:46.334Z</time></trkpt><trkpt lat="43.416095" lon="11.4612267"><ele>471.0</ele><time>2026-04-30T08:44:48.335Z</time></trkpt><trkpt lat="43.416045" lon="11.46132"><ele>471.0</ele><time>2026-04-30T08:44:50.335Z</time></trkpt><trkpt lat="43.415975" lon="11.4613417"><ele>471.0</ele><time>2026-04-30T08:44:51.335Z</time></trkpt><trkpt lat="43.4159067" lon="11.4613517"><ele>471.0</ele><time>2026-04-30T08:44:52.335Z</time></trkpt><trkpt lat="43.4158333" lon="11.4613383"><ele>471.0</ele><time>2026-04-30T08:44:53.334Z</time></trkpt><trkpt lat="43.41577" lon="11.4613083"><ele>471.00000000000006</ele><time>2026-04-30T08:44:54.335Z</time></trkpt><trkpt lat="43.4157217" lon="11.4612483"><ele>471.0</ele><time>2026-04-30T08:44:55.335Z</time></trkpt><trkpt lat="43.41569" lon="11.46115"><ele>471.00000000000006</ele><time>2026-04-30T08:44:56.335Z</time></trkpt><trkpt lat="43.4156667" lon="11.46105"><ele>471.00000000000006</ele><time>2026-04-30T08:44:57.334Z</time></trkpt><trkpt lat="43.4156467" lon="11.4609517"><ele>471.0</ele><time>2026-04-30T08:44:58.335Z</time></trkpt><trkpt lat="43.415615" lon="11.4608617"><ele>471.00000000000006</ele><time>2026-04-30T08:44:59.334Z</time></trkpt><trkpt lat="43.4155733" lon="11.46078"><ele>471.00000000000006</ele><time>2026-04-30T08:45:00.335Z</time></trkpt><trkpt lat="43.4155267" lon="11.4607183"><ele>472.5</ele><time>2026-04-30T08:45:01.335Z</time></trkpt><trkpt lat="43.4154317" lon="11.4606333"><ele>474.0</ele><time>2026-04-30T08:45:03.335Z</time></trkpt><trkpt lat="43.4153617" lon="11.460615"><ele>475.5</ele><time>2026-04-30T08:45:05.334Z</time></trkpt><trkpt lat="43.4152983" lon="11.46069"><ele>477.0</ele><time>2026-04-30T08:45:08.335Z</time></trkpt><trkpt lat="43.415335" lon="11.460795"><ele>478.5</ele><time>2026-04-30T08:45:11.334Z</time></trkpt><trkpt lat="43.4153867" lon="11.46085"><ele>480.0</ele><time>2026-04-30T08:45:13.335Z</time></trkpt><trkpt lat="43.415435" lon="11.4609567"><ele>480.0</ele><time>2026-04-30T08:45:15.335Z</time></trkpt><trkpt lat="43.4154417" lon="11.4611067"><ele>480.0</ele><time>2026-04-30T08:45:17.335Z</time></trkpt><trkpt lat="43.41541" lon="11.4612583"><ele>480.0</ele><time>2026-04-30T08:45:19.335Z</time></trkpt><trkpt lat="43.4153683" lon="11.4614167"><ele>480.0</ele><time>2026-04-30T08:45:21.335Z</time></trkpt><trkpt lat="43.4153583" lon="11.4615567"><ele>480.0</ele><time>2026-04-30T08:45:23.335Z</time></trkpt><trkpt lat="43.415345" lon="11.4616533"><ele>481.6666666666667</ele><time>2026-04-30T08:45:25.335Z</time></trkpt><trkpt lat="43.41528" lon="11.461675"><ele>483.33333333333337</ele><time>2026-04-30T08:45:29.334Z</time></trkpt><trkpt lat="43.4152583" lon="11.4615333"><ele>485.0</ele><time>2026-04-30T08:45:32.335Z</time></trkpt><trkpt lat="43.415215" lon="11.461425"><ele>486.6666666666667</ele><time>2026-04-30T08:45:34.335Z</time></trkpt><trkpt lat="43.4151617" lon="11.4613533"><ele>488.33333333333337</ele><time>2026-04-30T08:45:36.334Z</time></trkpt><trkpt lat="43.4150733" lon="11.461365"><ele>490.0</ele><time>2026-04-30T08:45:38.335Z</time></trkpt><trkpt lat="43.41503" lon="11.4614317"><ele>490.00000000000006</ele><time>2026-04-30T08:45:40.335Z</time></trkpt><trkpt lat="43.4149867" lon="11.4615567"><ele>490.0</ele><time>2026-04-30T08:45:42.335Z</time></trkpt><trkpt lat="43.414965" lon="11.4616417"><ele>490.0</ele><time>2026-04-30T08:45:43.335Z</time></trkpt><trkpt lat="43.4149167" lon="11.4618033"><ele>490.0</ele><time>2026-04-30T08:45:45.334Z</time></trkpt><trkpt lat="43.4148883" lon="11.4619"><ele>490.00000000000006</ele><time>2026-04-30T08:45:46.334Z</time></trkpt><trkpt lat="43.4148533" lon="11.4619783"><ele>490.0</ele><time>2026-04-30T08:45:47.334Z</time></trkpt><trkpt lat="43.4147867" lon="11.4621083"><ele>491.6</ele><time>2026-04-30T08:45:49.334Z</time></trkpt><trkpt lat="43.4147417" lon="11.4622317"><ele>493.2</ele><time>2026-04-30T08:45:51.335Z</time></trkpt><trkpt lat="43.4147117" lon="11.4623583"><ele>494.79999999999995</ele><time>2026-04-30T08:45:53.335Z</time></trkpt><trkpt lat="43.41468" lon="11.4624933"><ele>496.4</ele><time>2026-04-30T08:45:55.335Z</time></trkpt><trkpt lat="43.414645" lon="11.462625"><ele>498.0</ele><time>2026-04-30T08:45:57.334Z</time></trkpt><trkpt lat="43.4146117" lon="11.4627383"><ele>500.4</ele><time>2026-04-30T08:45:59.334Z</time></trkpt><trkpt lat="43.4145933" lon="11.462865"><ele>502.79999999999995</ele><time>2026-04-30T08:46:01.334Z</time></trkpt><trkpt lat="43.4145617" lon="11.4630033"><ele>505.2</ele><time>2026-04-30T08:46:03.334Z</time></trkpt><trkpt lat="43.4145517" lon="11.4631483"><ele>507.6</ele><time>2026-04-30T08:46:05.335Z</time></trkpt><trkpt lat="43.4145633" lon="11.4633167"><ele>510.0</ele><time>2026-04-30T08:46:07.335Z</time></trkpt><trkpt lat="43.4145617" lon="11.4634083"><ele>512.3333333333334</ele><time>2026-04-30T08:46:08.335Z</time></trkpt><trkpt lat="43.4145583" lon="11.4635017"><ele>514.6666666666666</ele><time>2026-04-30T08:46:09.334Z</time></trkpt><trkpt lat="43.4145483" lon="11.4636017"><ele>517.0</ele><time>2026-04-30T08:46:10.335Z</time></trkpt><trkpt lat="43.4145267" lon="11.4636917"><ele>519.3333333333333</ele><time>2026-04-30T08:46:11.334Z</time></trkpt><trkpt lat="43.4145033" lon="11.4637817"><ele>521.6666666666666</ele><time>2026-04-30T08:46:12.335Z</time></trkpt><trkpt lat="43.4144283" lon="11.4638883"><ele>524.0</ele><time>2026-04-30T08:46:13.334Z</time></trkpt><trkpt lat="43.4143483" lon="11.4640117"><ele>524.0</ele><time>2026-04-30T08:46:15.334Z</time></trkpt><trkpt lat="43.414255" lon="11.4641133"><ele>524.0</ele><time>2026-04-30T08:46:17.335Z</time></trkpt><trkpt lat="43.4142017" lon="11.4641733"><ele>524.0</ele><time>2026-04-30T08:46:18.335Z</time></trkpt><trkpt lat="43.4141133" lon="11.4642667"><ele>524.0</ele><time>2026-04-30T08:46:20.334Z</time></trkpt><trkpt lat="43.41401" lon="11.4643583"><ele>524.0</ele><time>2026-04-30T08:46:22.334Z</time></trkpt><trkpt lat="43.4139417" lon="11.46441"><ele>524.0</ele><time>2026-04-30T08:46:23.335Z</time></trkpt><trkpt lat="43.4138767" lon="11.4644483"><ele>524.0</ele><time>2026-04-30T08:46:24.335Z</time></trkpt><trkpt lat="43.41381" lon="11.46448"><ele>524.0</ele><time>2026-04-30T08:46:25.335Z</time></trkpt><trkpt lat="43.413745" lon="11.4645033"><ele>524.0</ele><time>2026-04-30T08:46:26.335Z</time></trkpt><trkpt lat="43.413675" lon="11.464535"><ele>524.0</ele><time>2026-04-30T08:46:27.335Z</time></trkpt><trkpt lat="43.413545" lon="11.4645583"><ele>524.0</ele><time>2026-04-30T08:46:29.335Z</time></trkpt><trkpt lat="43.4134783" lon="11.4645567"><ele>525.4</ele><time>2026-04-30T08:46:30.335Z</time></trkpt><trkpt lat="43.4134117" lon="11.4645433"><ele>526.8</ele><time>2026-04-30T08:46:31.335Z</time></trkpt><trkpt lat="43.413345" lon="11.46452"><ele>528.2</ele><time>2026-04-30T08:46:32.335Z</time></trkpt><trkpt lat="43.413235" lon="11.4644617"><ele>529.6</ele><time>2026-04-30T08:46:34.335Z</time></trkpt><trkpt lat="43.4131417" lon="11.464405"><ele>531.0</ele><time>2026-04-30T08:46:36.335Z</time></trkpt><trkpt lat="43.4130467" lon="11.4643717"><ele>527.6</ele><time>2026-04-30T08:46:38.335Z</time></trkpt><trkpt lat="43.4129417" lon="11.464375"><ele>524.2</ele><time>2026-04-30T08:46:40.335Z</time></trkpt><trkpt lat="43.4128417" lon="11.4643783"><ele>520.8</ele><time>2026-04-30T08:46:42.335Z</time></trkpt><trkpt lat="43.41274" lon="11.4643817"><ele>517.4</ele><time>2026-04-30T08:46:44.335Z</time></trkpt><trkpt lat="43.4126317" lon="11.4643867"><ele>514.0</ele><time>2026-04-30T08:46:46.335Z</time></trkpt><trkpt lat="43.41253" lon="11.4643967"><ele>514.0</ele><time>2026-04-30T08:46:48.335Z</time></trkpt><trkpt lat="43.41244" lon="11.4644267"><ele>514.0</ele><time>2026-04-30T08:46:50.334Z</time></trkpt><trkpt lat="43.4123533" lon="11.4644683"><ele>514.0</ele><time>2026-04-30T08:46:52.335Z</time></trkpt><trkpt lat="43.4122733" lon="11.4645067"><ele>514.0</ele><time>2026-04-30T08:46:54.335Z</time></trkpt><trkpt lat="43.412195" lon="11.4645417"><ele>514.0</ele><time>2026-04-30T08:46:56.334Z</time></trkpt><trkpt lat="43.4121183" lon="11.464595"><ele>514.0</ele><time>2026-04-30T08:46:58.334Z</time></trkpt><trkpt lat="43.41204" lon="11.46465"><ele>512.1666666666667</ele><time>2026-04-30T08:47:00.334Z</time></trkpt><trkpt lat="43.4119567" lon="11.4646967"><ele>510.33333333333337</ele><time>2026-04-30T08:47:02.335Z</time></trkpt><trkpt lat="43.4118883" lon="11.46474"><ele>508.5</ele><time>2026-04-30T08:47:04.335Z</time></trkpt><trkpt lat="43.4118183" lon="11.4647833"><ele>506.66666666666663</ele><time>2026-04-30T08:47:06.335Z</time></trkpt><trkpt lat="43.4117317" lon="11.46483"><ele>504.8333333333333</ele><time>2026-04-30T08:47:08.334Z</time></trkpt><trkpt lat="43.4116483" lon="11.4648367"><ele>503.0</ele><time>2026-04-30T08:47:10.335Z</time></trkpt><trkpt lat="43.41156" lon="11.4647917"><ele>502.99999999999994</ele><time>2026-04-30T08:47:12.335Z</time></trkpt><trkpt lat="43.4114667" lon="11.4647417"><ele>503.0</ele><time>2026-04-30T08:47:14.334Z</time></trkpt><trkpt lat="43.411365" lon="11.4647083"><ele>503.0</ele><time>2026-04-30T08:47:16.335Z</time></trkpt><trkpt lat="43.4112933" lon="11.4646717"><ele>503.0</ele><time>2026-04-30T08:47:18.335Z</time></trkpt><trkpt lat="43.4112317" lon="11.46463"><ele>502.99999999999994</ele><time>2026-04-30T08:47:20.335Z</time></trkpt><trkpt lat="43.411175" lon="11.4645633"><ele>503.0</ele><time>2026-04-30T08:47:22.334Z</time></trkpt><trkpt lat="43.411105" lon="11.46452"><ele>501.49999999999994</ele><time>2026-04-30T08:47:24.335Z</time></trkpt><trkpt lat="43.411045" lon="11.4644883"><ele>500.0</ele><time>2026-04-30T08:47:26.335Z</time></trkpt><trkpt lat="43.4109633" lon="11.4644733"><ele>498.5</ele><time>2026-04-30T08:47:28.334Z</time></trkpt><trkpt lat="43.4108683" lon="11.4644733"><ele>497.0</ele><time>2026-04-30T08:47:30.335Z</time></trkpt><trkpt lat="43.4107833" lon="11.4644733"><ele>495.49999999999994</ele><time>2026-04-30T08:47:32.335Z</time></trkpt><trkpt lat="43.4107" lon="11.4644883"><ele>494.0</ele><time>2026-04-30T08:47:34.334Z</time></trkpt><trkpt lat="43.4106083" lon="11.4644867"><ele>494.0</ele><time>2026-04-30T08:47:36.334Z</time></trkpt><trkpt lat="43.4105317" lon="11.4644617"><ele>494.0</ele><time>2026-04-30T08:47:39.335Z</time></trkpt></trkseg><trkseg><trkpt lat="43.410435" lon="11.4644733"><ele>492.0</ele><time>2026-04-30T08:58:20.335Z</time></trkpt><trkpt lat="43.4105267" lon="11.4643767"><ele>492.0</ele><time>2026-04-30T08:58:51.335Z</time></trkpt><trkpt lat="43.4105033" lon="11.46447"><ele>492.0</ele><time>2026-04-30T08:59:16.334Z</time></trkpt><trkpt lat="43.4104217" lon="11.4644833"><ele>492.0</ele><time>2026-04-30T08:59:18.334Z</time></trkpt><trkpt lat="43.41033" lon="11.4644783"><ele>492.0</ele><time>2026-04-30T08:59:20.335Z</time></trkpt><trkpt lat="43.4102467" lon="11.46448"><ele>492.0</ele><time>2026-04-30T08:59:22.335Z</time></trkpt><trkpt lat="43.4101567" lon="11.464495"><ele>492.0</ele><time>2026-04-30T08:59:24.335Z</time></trkpt><trkpt lat="43.4100783" lon="11.4644917"><ele>492.00000000000006</ele><time>2026-04-30T08:59:26.335Z</time></trkpt><trkpt lat="43.409995" lon="11.46449"><ele>492.00000000000006</ele><time>2026-04-30T08:59:28.335Z</time></trkpt><trkpt lat="43.40988" lon="11.4644917"><ele>492.0</ele><time>2026-04-30T08:59:30.335Z</time></trkpt><trkpt lat="43.4097567" lon="11.464495"><ele>492.0</ele><time>2026-04-30T08:59:32.334Z</time></trkpt><trkpt lat="43.4096383" lon="11.4645067"><ele>492.20000000000005</ele><time>2026-04-30T08:59:34.335Z</time></trkpt><trkpt lat="43.4095217" lon="11.4645117"><ele>492.40000000000003</ele><time>2026-04-30T08:59:36.335Z</time></trkpt><trkpt lat="43.4094583" lon="11.4645117"><ele>492.59999999999997</ele><time>2026-04-30T08:59:37.335Z</time></trkpt><trkpt lat="43.4093367" lon="11.46452"><ele>492.79999999999995</ele><time>2026-04-30T08:59:39.335Z</time></trkpt><trkpt lat="43.4092717" lon="11.4645233"><ele>493.0</ele><time>2026-04-30T08:59:40.334Z</time></trkpt><trkpt lat="43.4091617" lon="11.4645167"><ele>493.00000000000006</ele><time>2026-04-30T08:59:42.335Z</time></trkpt><trkpt lat="43.4090917" lon="11.4645183"><ele>493.0</ele><time>2026-04-30T08:59:44.334Z</time></trkpt><trkpt lat="43.4089967" lon="11.4645183"><ele>493.0</ele><time>2026-04-30T08:59:47.335Z</time></trkpt><trkpt lat="43.40892" lon="11.4645383"><ele>493.0</ele><time>2026-04-30T08:59:49.335Z</time></trkpt><trkpt lat="43.4088283" lon="11.46455"><ele>493.00000000000006</ele><time>2026-04-30T08:59:51.335Z</time></trkpt><trkpt lat="43.4087183" lon="11.4645533"><ele>493.0</ele><time>2026-04-30T08:59:53.335Z</time></trkpt><trkpt lat="43.408615" lon="11.464555"><ele>492.2</ele><time>2026-04-30T08:59:55.334Z</time></trkpt><trkpt lat="43.4085" lon="11.4645417"><ele>491.4</ele><time>2026-04-30T08:59:57.335Z</time></trkpt><trkpt lat="43.4083917" lon="11.4645367"><ele>490.59999999999997</ele><time>2026-04-30T08:59:59.334Z</time></trkpt><trkpt lat="43.4082883" lon="11.4645233"><ele>489.79999999999995</ele><time>2026-04-30T09:00:01.335Z</time></trkpt><trkpt lat="43.4081867" lon="11.4645233"><ele>489.0</ele><time>2026-04-30T09:00:03.335Z</time></trkpt><trkpt lat="43.4080867" lon="11.4645283"><ele>487.3333333333333</ele><time>2026-04-30T09:00:05.335Z</time></trkpt><trkpt lat="43.4079783" lon="11.46454"><ele>485.66666666666663</ele><time>2026-04-30T09:00:07.335Z</time></trkpt><trkpt lat="43.40785" lon="11.4645517"><ele>484.0</ele><time>2026-04-30T09:00:09.335Z</time></trkpt><trkpt lat="43.407785" lon="11.4645567"><ele>482.3333333333333</ele><time>2026-04-30T09:00:10.334Z</time></trkpt><trkpt lat="43.40771" lon="11.4645667"><ele>480.66666666666663</ele><time>2026-04-30T09:00:11.335Z</time></trkpt><trkpt lat="43.4076417" lon="11.464575"><ele>479.0</ele><time>2026-04-30T09:00:12.335Z</time></trkpt><trkpt lat="43.4075667" lon="11.4645833"><ele>478.99999999999994</ele><time>2026-04-30T09:00:13.335Z</time></trkpt><trkpt lat="43.407495" lon="11.4645917"><ele>479.0</ele><time>2026-04-30T09:00:14.334Z</time></trkpt><trkpt lat="43.4074317" lon="11.4646017"><ele>479.0</ele><time>2026-04-30T09:00:15.334Z</time></trkpt><trkpt lat="43.4073667" lon="11.46462"><ele>479.0</ele><time>2026-04-30T09:00:16.335Z</time></trkpt><trkpt lat="43.407235" lon="11.4646483"><ele>478.99999999999994</ele><time>2026-04-30T09:00:18.335Z</time></trkpt><trkpt lat="43.4071683" lon="11.4646583"><ele>479.0</ele><time>2026-04-30T09:00:19.335Z</time></trkpt><trkpt lat="43.4071" lon="11.4646633"><ele>478.79999999999995</ele><time>2026-04-30T09:00:20.334Z</time></trkpt><trkpt lat="43.4069717" lon="11.4646583"><ele>478.59999999999997</ele><time>2026-04-30T09:00:22.335Z</time></trkpt><trkpt lat="43.4069067" lon="11.464645"><ele>478.4</ele><time>2026-04-30T09:00:23.335Z</time></trkpt><trkpt lat="43.40679" lon="11.4646133"><ele>478.2</ele><time>2026-04-30T09:00:25.335Z</time></trkpt><trkpt lat="43.40669" lon="11.4645717"><ele>478.0</ele><time>2026-04-30T09:00:27.335Z</time></trkpt><trkpt lat="43.4065917" lon="11.46454"><ele>477.2</ele><time>2026-04-30T09:00:29.335Z</time></trkpt><trkpt lat="43.4064933" lon="11.4645083"><ele>476.4</ele><time>2026-04-30T09:00:31.335Z</time></trkpt><trkpt lat="43.406395" lon="11.4644817"><ele>475.59999999999997</ele><time>2026-04-30T09:00:33.335Z</time></trkpt><trkpt lat="43.4062967" lon="11.4644483"><ele>474.79999999999995</ele><time>2026-04-30T09:00:35.334Z</time></trkpt><trkpt lat="43.4061967" lon="11.464415"><ele>474.0</ele><time>2026-04-30T09:00:37.334Z</time></trkpt><trkpt lat="43.4060933" lon="11.4643783"><ele>472.79999999999995</ele><time>2026-04-30T09:00:39.334Z</time></trkpt><trkpt lat="43.405995" lon="11.464325"><ele>471.59999999999997</ele><time>2026-04-30T09:00:41.335Z</time></trkpt><trkpt lat="43.405895" lon="11.4642467"><ele>470.4</ele><time>2026-04-30T09:00:43.335Z</time></trkpt><trkpt lat="43.4058417" lon="11.4642"><ele>469.2</ele><time>2026-04-30T09:00:44.335Z</time></trkpt><trkpt lat="43.4057417" lon="11.4641117"><ele>468.0</ele><time>2026-04-30T09:00:46.335Z</time></trkpt><trkpt lat="43.40569" lon="11.4640617"><ele>468.0</ele><time>2026-04-30T09:00:47.334Z</time></trkpt><trkpt lat="43.40559" lon="11.4639783"><ele>468.0</ele><time>2026-04-30T09:00:49.335Z</time></trkpt><trkpt lat="43.40549" lon="11.4639"><ele>468.0</ele><time>2026-04-30T09:00:51.335Z</time></trkpt><trkpt lat="43.4053917" lon="11.463815"><ele>468.0</ele><time>2026-04-30T09:00:53.335Z</time></trkpt><trkpt lat="43.4053167" lon="11.4637017"><ele>465.0</ele><time>2026-04-30T09:00:55.335Z</time></trkpt><trkpt lat="43.4052333" lon="11.4635867"><ele>461.99999999999994</ele><time>2026-04-30T09:00:57.335Z</time></trkpt><trkpt lat="43.40516" lon="11.4634817"><ele>458.99999999999994</ele><time>2026-04-30T09:00:59.335Z</time></trkpt><trkpt lat="43.4050667" lon="11.4633667"><ele>456.0</ele><time>2026-04-30T09:01:01.335Z</time></trkpt><trkpt lat="43.4050183" lon="11.4633"><ele>453.0</ele><time>2026-04-30T09:01:02.335Z</time></trkpt><trkpt lat="43.40497" lon="11.463225"><ele>453.0</ele><time>2026-04-30T09:01:03.335Z</time></trkpt><trkpt lat="43.404925" lon="11.4631433"><ele>453.0</ele><time>2026-04-30T09:01:04.335Z</time></trkpt><trkpt lat="43.4048767" lon="11.463055"><ele>453.0</ele><time>2026-04-30T09:01:05.335Z</time></trkpt><trkpt lat="43.404835" lon="11.462965"><ele>453.0</ele><time>2026-04-30T09:01:06.335Z</time></trkpt><trkpt lat="43.4047867" lon="11.4628867"><ele>453.0</ele><time>2026-04-30T09:01:07.335Z</time></trkpt><trkpt lat="43.4047517" lon="11.4627983"><ele>453.0</ele><time>2026-04-30T09:01:08.334Z</time></trkpt><trkpt lat="43.4047283" lon="11.4627"><ele>452.59999999999997</ele><time>2026-04-30T09:01:09.335Z</time></trkpt><trkpt lat="43.4047117" lon="11.4625817"><ele>452.19999999999993</ele><time>2026-04-30T09:01:10.334Z</time></trkpt><trkpt lat="43.4046967" lon="11.4624583"><ele>451.8</ele><time>2026-04-30T09:01:11.335Z</time></trkpt><trkpt lat="43.40468" lon="11.4623333"><ele>451.4</ele><time>2026-04-30T09:01:12.335Z</time></trkpt><trkpt lat="43.40466" lon="11.4622083"><ele>451.0</ele><time>2026-04-30T09:01:13.335Z</time></trkpt><trkpt lat="43.4046417" lon="11.4620767"><ele>451.83333333333337</ele><time>2026-04-30T09:01:14.335Z</time></trkpt><trkpt lat="43.4046217" lon="11.4619483"><ele>452.6666666666667</ele><time>2026-04-30T09:01:15.334Z</time></trkpt><trkpt lat="43.4046067" lon="11.4618333"><ele>453.5</ele><time>2026-04-30T09:01:16.335Z</time></trkpt><trkpt lat="43.4045833" lon="11.46174"><ele>454.33333333333337</ele><time>2026-04-30T09:01:17.335Z</time></trkpt><trkpt lat="43.4045633" lon="11.461645"><ele>455.1666666666667</ele><time>2026-04-30T09:01:18.335Z</time></trkpt><trkpt lat="43.4045367" lon="11.4615533"><ele>456.0</ele><time>2026-04-30T09:01:19.334Z</time></trkpt><trkpt lat="43.4044967" lon="11.461455"><ele>456.0</ele><time>2026-04-30T09:01:20.335Z</time></trkpt><trkpt lat="43.40445" lon="11.4613567"><ele>456.0</ele><time>2026-04-30T09:01:21.335Z</time></trkpt><trkpt lat="43.4043983" lon="11.461255"><ele>456.0</ele><time>2026-04-30T09:01:22.334Z</time></trkpt><trkpt lat="43.4043517" lon="11.461155"><ele>456.0</ele><time>2026-04-30T09:01:23.335Z</time></trkpt><trkpt lat="43.404305" lon="11.4610533"><ele>456.0</ele><time>2026-04-30T09:01:24.335Z</time></trkpt><trkpt lat="43.40426" lon="11.46095"><ele>456.0</ele><time>2026-04-30T09:01:25.334Z</time></trkpt><trkpt lat="43.4042167" lon="11.460855"><ele>456.0</ele><time>2026-04-30T09:01:26.335Z</time></trkpt><trkpt lat="43.40419" lon="11.4607683"><ele>455.99999999999994</ele><time>2026-04-30T09:01:27.335Z</time></trkpt><trkpt lat="43.4041633" lon="11.4606733"><ele>456.0</ele><time>2026-04-30T09:01:28.335Z</time></trkpt><trkpt lat="43.4041417" lon="11.46059"><ele>456.0</ele><time>2026-04-30T09:01:29.334Z</time></trkpt><trkpt lat="43.4041283" lon="11.4605033"><ele>455.99999999999994</ele><time>2026-04-30T09:01:30.335Z</time></trkpt><trkpt lat="43.4041233" lon="11.46041"><ele>456.0</ele><time>2026-04-30T09:01:31.335Z</time></trkpt><trkpt lat="43.40412" lon="11.4603067"><ele>456.0</ele><time>2026-04-30T09:01:32.335Z</time></trkpt><trkpt lat="43.404125" lon="11.4602017"><ele>456.0</ele><time>2026-04-30T09:01:33.334Z</time></trkpt><trkpt lat="43.404135" lon="11.4600883"><ele>456.0</ele><time>2026-04-30T09:01:34.335Z</time></trkpt><trkpt lat="43.40415" lon="11.4599717"><ele>456.0</ele><time>2026-04-30T09:01:35.335Z</time></trkpt><trkpt lat="43.4041683" lon="11.45986"><ele>456.0</ele><time>2026-04-30T09:01:36.335Z</time></trkpt><trkpt lat="43.40419" lon="11.459755"><ele>456.0</ele><time>2026-04-30T09:01:37.335Z</time></trkpt><trkpt lat="43.404215" lon="11.45966"><ele>456.0</ele><time>2026-04-30T09:01:38.335Z</time></trkpt><trkpt lat="43.4042433" lon="11.4595783"><ele>455.85714285714283</ele><time>2026-04-30T09:01:39.335Z</time></trkpt><trkpt lat="43.4042733" lon="11.4594983"><ele>455.71428571428567</ele><time>2026-04-30T09:01:40.334Z</time></trkpt><trkpt lat="43.4043033" lon="11.459415"><ele>455.57142857142856</ele><time>2026-04-30T09:01:41.334Z</time></trkpt><trkpt lat="43.4043383" lon="11.4593183"><ele>455.42857142857144</ele><time>2026-04-30T09:01:42.334Z</time></trkpt><trkpt lat="43.4043783" lon="11.45924"><ele>455.2857142857143</ele><time>2026-04-30T09:01:43.335Z</time></trkpt><trkpt lat="43.4044283" lon="11.4591667"><ele>455.1428571428571</ele><time>2026-04-30T09:01:44.335Z</time></trkpt><trkpt lat="43.4044767" lon="11.4590933"><ele>455.0</ele><time>2026-04-30T09:01:45.334Z</time></trkpt><trkpt lat="43.4045283" lon="11.45902"><ele>455.0</ele><time>2026-04-30T09:01:46.335Z</time></trkpt><trkpt lat="43.4045817" lon="11.45895"><ele>455.0</ele><time>2026-04-30T09:01:47.335Z</time></trkpt><trkpt lat="43.404635" lon="11.458885"><ele>455.0</ele><time>2026-04-30T09:01:48.335Z</time></trkpt><trkpt lat="43.404715" lon="11.4587683"><ele>455.0</ele><time>2026-04-30T09:01:50.334Z</time></trkpt><trkpt lat="43.4047617" lon="11.4586433"><ele>455.0</ele><time>2026-04-30T09:01:52.335Z</time></trkpt><trkpt lat="43.4048033" lon="11.4584983"><ele>454.2</ele><time>2026-04-30T09:01:54.335Z</time></trkpt><trkpt lat="43.4048333" lon="11.45836"><ele>453.4</ele><time>2026-04-30T09:01:56.335Z</time></trkpt><trkpt lat="43.4048617" lon="11.4582483"><ele>452.6</ele><time>2026-04-30T09:01:58.335Z</time></trkpt><trkpt lat="43.404905" lon="11.4581433"><ele>451.8</ele><time>2026-04-30T09:02:00.335Z</time></trkpt><trkpt lat="43.4049617" lon="11.458055"><ele>451.0</ele><time>2026-04-30T09:02:02.335Z</time></trkpt><trkpt lat="43.40501" lon="11.4579517"><ele>449.4</ele><time>2026-04-30T09:02:04.335Z</time></trkpt><trkpt lat="43.405045" lon="11.45783"><ele>447.8</ele><time>2026-04-30T09:02:06.335Z</time></trkpt><trkpt lat="43.40504" lon="11.4576983"><ele>446.19999999999993</ele><time>2026-04-30T09:02:08.334Z</time></trkpt><trkpt lat="43.405025" lon="11.4575733"><ele>444.59999999999997</ele><time>2026-04-30T09:02:10.334Z</time></trkpt><trkpt lat="43.4050067" lon="11.4574383"><ele>443.0</ele><time>2026-04-30T09:02:12.335Z</time></trkpt><trkpt lat="43.4049867" lon="11.4573"><ele>443.0</ele><time>2026-04-30T09:02:14.335Z</time></trkpt><trkpt lat="43.4049667" lon="11.4571417"><ele>442.99999999999994</ele><time>2026-04-30T09:02:16.335Z</time></trkpt><trkpt lat="43.404945" lon="11.4569933"><ele>442.99999999999994</ele><time>2026-04-30T09:02:18.335Z</time></trkpt><trkpt lat="43.4049133" lon="11.456855"><ele>443.0</ele><time>2026-04-30T09:02:20.334Z</time></trkpt><trkpt lat="43.404865" lon="11.45673"><ele>443.0</ele><time>2026-04-30T09:02:22.334Z</time></trkpt><trkpt lat="43.404825" lon="11.456615"><ele>441.8333333333333</ele><time>2026-04-30T09:02:24.334Z</time></trkpt><trkpt lat="43.4048017" lon="11.4565"><ele>440.66666666666663</ele><time>2026-04-30T09:02:26.335Z</time></trkpt><trkpt lat="43.404825" lon="11.4563967"><ele>439.5</ele><time>2026-04-30T09:02:28.335Z</time></trkpt><trkpt lat="43.404885" lon="11.4563433"><ele>438.33333333333337</ele><time>2026-04-30T09:02:30.334Z</time></trkpt><trkpt lat="43.4049733" lon="11.456335"><ele>437.1666666666667</ele><time>2026-04-30T09:02:32.335Z</time></trkpt><trkpt lat="43.40508" lon="11.456345"><ele>436.0</ele><time>2026-04-30T09:02:34.334Z</time></trkpt><trkpt lat="43.4051983" lon="11.456365"><ele>436.0</ele><time>2026-04-30T09:02:36.335Z</time></trkpt><trkpt lat="43.405315" lon="11.45638"><ele>436.0</ele><time>2026-04-30T09:02:38.335Z</time></trkpt><trkpt lat="43.40543" lon="11.4563967"><ele>436.0</ele><time>2026-04-30T09:02:40.335Z</time></trkpt><trkpt lat="43.40554" lon="11.4563983"><ele>436.0</ele><time>2026-04-30T09:02:42.335Z</time></trkpt><trkpt lat="43.405645" lon="11.4563733"><ele>436.0</ele><time>2026-04-30T09:02:44.335Z</time></trkpt><trkpt lat="43.405745" lon="11.4563133"><ele>434.0</ele><time>2026-04-30T09:02:46.335Z</time></trkpt><trkpt lat="43.4058367" lon="11.4562183"><ele>432.0</ele><time>2026-04-30T09:02:48.335Z</time></trkpt><trkpt lat="43.4059167" lon="11.456095"><ele>430.0</ele><time>2026-04-30T09:02:50.334Z</time></trkpt><trkpt lat="43.4059833" lon="11.45595"><ele>428.0</ele><time>2026-04-30T09:02:52.335Z</time></trkpt><trkpt lat="43.4060133" lon="11.4558683"><ele>426.0</ele><time>2026-04-30T09:02:53.334Z</time></trkpt><trkpt lat="43.4060367" lon="11.45578"><ele>426.0</ele><time>2026-04-30T09:02:54.335Z</time></trkpt><trkpt lat="43.40605" lon="11.45568"><ele>426.0</ele><time>2026-04-30T09:02:55.335Z</time></trkpt><trkpt lat="43.4060633" lon="11.4555833"><ele>426.0</ele><time>2026-04-30T09:02:56.335Z</time></trkpt><trkpt lat="43.4060733" lon="11.4554917"><ele>426.0</ele><time>2026-04-30T09:02:57.334Z</time></trkpt><trkpt lat="43.4061" lon="11.4553217"><ele>426.0</ele><time>2026-04-30T09:02:59.335Z</time></trkpt><trkpt lat="43.40614" lon="11.4551567"><ele>425.4285714285714</ele><time>2026-04-30T09:03:01.335Z</time></trkpt><trkpt lat="43.4061617" lon="11.4550617"><ele>424.85714285714283</ele><time>2026-04-30T09:03:02.335Z</time></trkpt><trkpt lat="43.4061767" lon="11.45497"><ele>424.2857142857143</ele><time>2026-04-30T09:03:03.335Z</time></trkpt><trkpt lat="43.4062017" lon="11.4548883"><ele>423.71428571428567</ele><time>2026-04-30T09:03:04.335Z</time></trkpt><trkpt lat="43.4062267" lon="11.454805"><ele>423.14285714285717</ele><time>2026-04-30T09:03:05.335Z</time></trkpt><trkpt lat="43.40625" lon="11.4547233"><ele>422.57142857142856</ele><time>2026-04-30T09:03:06.335Z</time></trkpt><trkpt lat="43.40629" lon="11.4546367"><ele>422.0</ele><time>2026-04-30T09:03:07.335Z</time></trkpt><trkpt lat="43.4063317" lon="11.454555"><ele>420.57142857142856</ele><time>2026-04-30T09:03:08.334Z</time></trkpt><trkpt lat="43.4063767" lon="11.4544733"><ele>419.14285714285717</ele><time>2026-04-30T09:03:09.334Z</time></trkpt><trkpt lat="43.40642" lon="11.4543983"><ele>417.71428571428567</ele><time>2026-04-30T09:03:10.333Z</time></trkpt><trkpt lat="43.4064583" lon="11.4543167"><ele>416.2857142857143</ele><time>2026-04-30T09:03:11.334Z</time></trkpt><trkpt lat="43.4064883" lon="11.4542317"><ele>414.85714285714283</ele><time>2026-04-30T09:03:12.334Z</time></trkpt><trkpt lat="43.4065167" lon="11.4541417"><ele>413.4285714285714</ele><time>2026-04-30T09:03:13.334Z</time></trkpt><trkpt lat="43.4065367" lon="11.454045"><ele>412.0</ele><time>2026-04-30T09:03:14.334Z</time></trkpt><trkpt lat="43.4065567" lon="11.4539583"><ele>411.99999999999994</ele><time>2026-04-30T09:03:15.334Z</time></trkpt><trkpt lat="43.4065667" lon="11.4538717"><ele>412.0</ele><time>2026-04-30T09:03:16.334Z</time></trkpt><trkpt lat="43.4065667" lon="11.4537817"><ele>412.0</ele><time>2026-04-30T09:03:17.334Z</time></trkpt><trkpt lat="43.4065583" lon="11.4536933"><ele>412.0</ele><time>2026-04-30T09:03:18.334Z</time></trkpt><trkpt lat="43.4065417" lon="11.4536083"><ele>412.0</ele><time>2026-04-30T09:03:19.333Z</time></trkpt><trkpt lat="43.4065217" lon="11.4535183"><ele>411.99999999999994</ele><time>2026-04-30T09:03:20.333Z</time></trkpt><trkpt lat="43.4065017" lon="11.45342"><ele>412.0</ele><time>2026-04-30T09:03:21.334Z</time></trkpt><trkpt lat="43.4064833" lon="11.453325"><ele>411.99999999999994</ele><time>2026-04-30T09:03:22.333Z</time></trkpt><trkpt lat="43.40647" lon="11.45323"><ele>412.0</ele><time>2026-04-30T09:03:23.333Z</time></trkpt><trkpt lat="43.4064617" lon="11.4531333"><ele>412.0</ele><time>2026-04-30T09:03:24.334Z</time></trkpt><trkpt lat="43.4064617" lon="11.4530383"><ele>412.0</ele><time>2026-04-30T09:03:25.334Z</time></trkpt><trkpt lat="43.4064667" lon="11.4529383"><ele>412.0</ele><time>2026-04-30T09:03:26.334Z</time></trkpt><trkpt lat="43.4064817" lon="11.4528367"><ele>411.99999999999994</ele><time>2026-04-30T09:03:27.333Z</time></trkpt><trkpt lat="43.406495" lon="11.4527333"><ele>412.0</ele><time>2026-04-30T09:03:28.334Z</time></trkpt><trkpt lat="43.4065083" lon="11.4526317"><ele>411.50000000000006</ele><time>2026-04-30T09:03:29.333Z</time></trkpt><trkpt lat="43.4065167" lon="11.4525317"><ele>411.0</ele><time>2026-04-30T09:03:30.333Z</time></trkpt><trkpt lat="43.406525" lon="11.4524383"><ele>410.5</ele><time>2026-04-30T09:03:31.334Z</time></trkpt><trkpt lat="43.4065267" lon="11.45235"><ele>410.0</ele><time>2026-04-30T09:03:32.334Z</time></trkpt><trkpt lat="43.4065183" lon="11.45218"><ele>409.50000000000006</ele><time>2026-04-30T09:03:34.334Z</time></trkpt><trkpt lat="43.4065033" lon="11.4520833"><ele>409.0</ele><time>2026-04-30T09:03:35.334Z</time></trkpt><trkpt lat="43.4064783" lon="11.45199"><ele>409.33333333333337</ele><time>2026-04-30T09:03:36.334Z</time></trkpt><trkpt lat="43.4064433" lon="11.451895"><ele>409.6666666666667</ele><time>2026-04-30T09:03:37.334Z</time></trkpt><trkpt lat="43.4064217" lon="11.4518017"><ele>410.0</ele><time>2026-04-30T09:03:38.334Z</time></trkpt><trkpt lat="43.4063867" lon="11.4516983"><ele>410.33333333333337</ele><time>2026-04-30T09:03:39.334Z</time></trkpt><trkpt lat="43.4063483" lon="11.4516"><ele>410.6666666666667</ele><time>2026-04-30T09:03:40.334Z</time></trkpt><trkpt lat="43.4063067" lon="11.4515067"><ele>411.0</ele><time>2026-04-30T09:03:41.333Z</time></trkpt><trkpt lat="43.4062617" lon="11.4514183"><ele>411.0</ele><time>2026-04-30T09:03:42.334Z</time></trkpt><trkpt lat="43.4062167" lon="11.4513317"><ele>411.0</ele><time>2026-04-30T09:03:43.334Z</time></trkpt><trkpt lat="43.4061717" lon="11.4512433"><ele>411.0</ele><time>2026-04-30T09:03:44.333Z</time></trkpt><trkpt lat="43.406125" lon="11.4511617"><ele>411.0</ele><time>2026-04-30T09:03:45.334Z</time></trkpt><trkpt lat="43.40608" lon="11.4510767"><ele>411.0</ele><time>2026-04-30T09:03:46.334Z</time></trkpt><trkpt lat="43.4060317" lon="11.4509883"><ele>411.0</ele><time>2026-04-30T09:03:47.334Z</time></trkpt><trkpt lat="43.405995" lon="11.4508917"><ele>411.0</ele><time>2026-04-30T09:03:48.334Z</time></trkpt><trkpt lat="43.4059633" lon="11.450795"><ele>411.0</ele><time>2026-04-30T09:03:49.334Z</time></trkpt><trkpt lat="43.405935" lon="11.450695"><ele>411.0</ele><time>2026-04-30T09:03:50.334Z</time></trkpt><trkpt lat="43.40591" lon="11.450595"><ele>411.0</ele><time>2026-04-30T09:03:51.334Z</time></trkpt><trkpt lat="43.4058883" lon="11.4504917"><ele>411.0</ele><time>2026-04-30T09:03:52.334Z</time></trkpt><trkpt lat="43.405855" lon="11.4503817"><ele>411.0</ele><time>2026-04-30T09:03:53.333Z</time></trkpt><trkpt lat="43.405825" lon="11.4502767"><ele>410.5</ele><time>2026-04-30T09:03:54.333Z</time></trkpt><trkpt lat="43.4057883" lon="11.4501833"><ele>410.0</ele><time>2026-04-30T09:03:55.334Z</time></trkpt><trkpt lat="43.4057467" lon="11.4500883"><ele>409.5</ele><time>2026-04-30T09:03:56.334Z</time></trkpt><trkpt lat="43.4057017" lon="11.45"><ele>409.0</ele><time>2026-04-30T09:03:57.334Z</time></trkpt><trkpt lat="43.405655" lon="11.4499183"><ele>408.5</ele><time>2026-04-30T09:03:58.333Z</time></trkpt><trkpt lat="43.4056067" lon="11.4498283"><ele>408.0</ele><time>2026-04-30T09:03:59.334Z</time></trkpt><trkpt lat="43.4055633" lon="11.4497317"><ele>408.0</ele><time>2026-04-30T09:04:00.334Z</time></trkpt><trkpt lat="43.4055117" lon="11.4496383"><ele>408.0</ele><time>2026-04-30T09:04:01.333Z</time></trkpt><trkpt lat="43.4054567" lon="11.44955"><ele>408.0</ele><time>2026-04-30T09:04:02.334Z</time></trkpt><trkpt lat="43.4054067" lon="11.44947"><ele>408.0</ele><time>2026-04-30T09:04:03.334Z</time></trkpt><trkpt lat="43.4053583" lon="11.4493917"><ele>408.0</ele><time>2026-04-30T09:04:04.334Z</time></trkpt><trkpt lat="43.4053067" lon="11.4493117"><ele>408.0</ele><time>2026-04-30T09:04:05.334Z</time></trkpt><trkpt lat="43.40526" lon="11.44923"><ele>406.59999999999997</ele><time>2026-04-30T09:04:06.333Z</time></trkpt><trkpt lat="43.4052183" lon="11.4491483"><ele>405.2</ele><time>2026-04-30T09:04:07.334Z</time></trkpt><trkpt lat="43.4051783" lon="11.44907"><ele>403.8</ele><time>2026-04-30T09:04:08.334Z</time></trkpt><trkpt lat="43.4051067" lon="11.4489417"><ele>402.4</ele><time>2026-04-30T09:04:10.333Z</time></trkpt><trkpt lat="43.40505" lon="11.4488317"><ele>401.0</ele><time>2026-04-30T09:04:12.334Z</time></trkpt><trkpt lat="43.404985" lon="11.4487133"><ele>400.6</ele><time>2026-04-30T09:04:14.333Z</time></trkpt><trkpt lat="43.4049417" lon="11.44864"><ele>400.20000000000005</ele><time>2026-04-30T09:04:15.334Z</time></trkpt><trkpt lat="43.4048783" lon="11.4485683"><ele>399.79999999999995</ele><time>2026-04-30T09:04:16.334Z</time></trkpt><trkpt lat="43.4047983" lon="11.4484933"><ele>399.4</ele><time>2026-04-30T09:04:17.334Z</time></trkpt><trkpt lat="43.4047133" lon="11.4484183"><ele>399.0</ele><time>2026-04-30T09:04:18.333Z</time></trkpt><trkpt lat="43.4046167" lon="11.4483367"><ele>398.75</ele><time>2026-04-30T09:04:19.334Z</time></trkpt><trkpt lat="43.40451" lon="11.4482517"><ele>398.5</ele><time>2026-04-30T09:04:20.334Z</time></trkpt><trkpt lat="43.4044017" lon="11.448165"><ele>398.25</ele><time>2026-04-30T09:04:21.333Z</time></trkpt><trkpt lat="43.4042917" lon="11.44809"><ele>398.0</ele><time>2026-04-30T09:04:22.334Z</time></trkpt><trkpt lat="43.40417" lon="11.44802"><ele>398.25</ele><time>2026-04-30T09:04:23.333Z</time></trkpt><trkpt lat="43.4040467" lon="11.4479567"><ele>398.5</ele><time>2026-04-30T09:04:24.333Z</time></trkpt><trkpt lat="43.4039267" lon="11.4478883"><ele>398.75</ele><time>2026-04-30T09:04:25.334Z</time></trkpt><trkpt lat="43.4038" lon="11.4478217"><ele>399.0</ele><time>2026-04-30T09:04:26.334Z</time></trkpt><trkpt lat="43.40367" lon="11.44776"><ele>399.0</ele><time>2026-04-30T09:04:27.334Z</time></trkpt><trkpt lat="43.4035283" lon="11.4477"><ele>399.0</ele><time>2026-04-30T09:04:28.334Z</time></trkpt><trkpt lat="43.4033967" lon="11.4476383"><ele>399.0</ele><time>2026-04-30T09:04:29.333Z</time></trkpt><trkpt lat="43.403275" lon="11.44757"><ele>399.0</ele><time>2026-04-30T09:04:30.334Z</time></trkpt><trkpt lat="43.4031533" lon="11.4475017"><ele>399.0</ele><time>2026-04-30T09:04:31.334Z</time></trkpt><trkpt lat="43.4030333" lon="11.4474317"><ele>399.0</ele><time>2026-04-30T09:04:32.334Z</time></trkpt><trkpt lat="43.4029117" lon="11.447355"><ele>399.0</ele><time>2026-04-30T09:04:33.334Z</time></trkpt><trkpt lat="43.4027867" lon="11.4472833"><ele>399.0</ele><time>2026-04-30T09:04:34.334Z</time></trkpt><trkpt lat="43.402665" lon="11.447205"><ele>399.0</ele><time>2026-04-30T09:04:35.334Z</time></trkpt><trkpt lat="43.4025383" lon="11.447125"><ele>399.0</ele><time>2026-04-30T09:04:36.333Z</time></trkpt><trkpt lat="43.402415" lon="11.44705"><ele>399.0</ele><time>2026-04-30T09:04:37.334Z</time></trkpt><trkpt lat="43.402295" lon="11.4469783"><ele>399.0</ele><time>2026-04-30T09:04:38.334Z</time></trkpt><trkpt lat="43.402185" lon="11.4469033"><ele>396.25</ele><time>2026-04-30T09:04:39.334Z</time></trkpt><trkpt lat="43.402075" lon="11.4468167"><ele>393.5</ele><time>2026-04-30T09:04:40.334Z</time></trkpt><trkpt lat="43.401975" lon="11.44672"><ele>390.75</ele><time>2026-04-30T09:04:41.334Z</time></trkpt><trkpt lat="43.40187" lon="11.4466283"><ele>388.0</ele><time>2026-04-30T09:04:42.334Z</time></trkpt><trkpt lat="43.4017683" lon="11.4465067"><ele>388.0</ele><time>2026-04-30T09:04:43.333Z</time></trkpt><trkpt lat="43.4016667" lon="11.4463883"><ele>388.0</ele><time>2026-04-30T09:04:44.333Z</time></trkpt><trkpt lat="43.40156" lon="11.4462633"><ele>388.0</ele><time>2026-04-30T09:04:45.334Z</time></trkpt><trkpt lat="43.40146" lon="11.4461317"><ele>388.0</ele><time>2026-04-30T09:04:46.333Z</time></trkpt><trkpt lat="43.40136" lon="11.445985"><ele>386.75</ele><time>2026-04-30T09:04:47.334Z</time></trkpt><trkpt lat="43.4012683" lon="11.4458367"><ele>385.5</ele><time>2026-04-30T09:04:48.333Z</time></trkpt><trkpt lat="43.4011783" lon="11.445685"><ele>384.25</ele><time>2026-04-30T09:04:49.333Z</time></trkpt><trkpt lat="43.4010917" lon="11.4455283"><ele>383.0</ele><time>2026-04-30T09:04:50.334Z</time></trkpt><trkpt lat="43.4010033" lon="11.4453733"><ele>382.75</ele><time>2026-04-30T09:04:51.334Z</time></trkpt><trkpt lat="43.4009033" lon="11.4452317"><ele>382.5</ele><time>2026-04-30T09:04:52.334Z</time></trkpt><trkpt lat="43.4007933" lon="11.4450983"><ele>382.25</ele><time>2026-04-30T09:04:53.333Z</time></trkpt><trkpt lat="43.4006817" lon="11.44496"><ele>382.0</ele><time>2026-04-30T09:04:54.333Z</time></trkpt><trkpt lat="43.4005733" lon="11.4448117"><ele>380.3333333333333</ele><time>2026-04-30T09:04:55.334Z</time></trkpt><trkpt lat="43.4004533" lon="11.4446617"><ele>378.6666666666667</ele><time>2026-04-30T09:04:56.334Z</time></trkpt><trkpt lat="43.40034" lon="11.4445133"><ele>377.0</ele><time>2026-04-30T09:04:57.333Z</time></trkpt><trkpt lat="43.4002317" lon="11.4443667"><ele>377.0</ele><time>2026-04-30T09:04:58.334Z</time></trkpt><trkpt lat="43.4001267" lon="11.4442233"><ele>377.0</ele><time>2026-04-30T09:04:59.334Z</time></trkpt><trkpt lat="43.4000283" lon="11.4440833"><ele>377.0</ele><time>2026-04-30T09:05:00.334Z</time></trkpt><trkpt lat="43.3999383" lon="11.443955"><ele>377.0</ele><time>2026-04-30T09:05:01.334Z</time></trkpt><trkpt lat="43.3998433" lon="11.443845"><ele>376.75</ele><time>2026-04-30T09:05:02.334Z</time></trkpt><trkpt lat="43.3997417" lon="11.4437533"><ele>376.5</ele><time>2026-04-30T09:05:03.333Z</time></trkpt><trkpt lat="43.3996267" lon="11.44369"><ele>376.25</ele><time>2026-04-30T09:05:04.334Z</time></trkpt><trkpt lat="43.3995067" lon="11.4436217"><ele>376.0</ele><time>2026-04-30T09:05:05.334Z</time></trkpt><trkpt lat="43.3993817" lon="11.44356"><ele>376.0</ele><time>2026-04-30T09:05:06.333Z</time></trkpt><trkpt lat="43.3992683" lon="11.4435117"><ele>376.0</ele><time>2026-04-30T09:05:07.334Z</time></trkpt><trkpt lat="43.3991583" lon="11.4434717"><ele>376.0</ele><time>2026-04-30T09:05:08.334Z</time></trkpt><trkpt lat="43.399055" lon="11.443435"><ele>376.0</ele><time>2026-04-30T09:05:09.334Z</time></trkpt><trkpt lat="43.39893" lon="11.443425"><ele>376.0</ele><time>2026-04-30T09:05:10.334Z</time></trkpt><trkpt lat="43.398805" lon="11.44343"><ele>376.0</ele><time>2026-04-30T09:05:11.334Z</time></trkpt><trkpt lat="43.3986717" lon="11.4434583"><ele>376.0</ele><time>2026-04-30T09:05:12.334Z</time></trkpt><trkpt lat="43.3985217" lon="11.4434933"><ele>376.0</ele><time>2026-04-30T09:05:13.333Z</time></trkpt><trkpt lat="43.3983783" lon="11.44353"><ele>376.0</ele><time>2026-04-30T09:05:14.334Z</time></trkpt><trkpt lat="43.3982433" lon="11.4435667"><ele>376.0</ele><time>2026-04-30T09:05:15.334Z</time></trkpt><trkpt lat="43.3981167" lon="11.4436"><ele>376.0</ele><time>2026-04-30T09:05:16.334Z</time></trkpt><trkpt lat="43.3979933" lon="11.44363"><ele>376.0</ele><time>2026-04-30T09:05:17.334Z</time></trkpt><trkpt lat="43.39787" lon="11.44363"><ele>375.25</ele><time>2026-04-30T09:05:18.334Z</time></trkpt><trkpt lat="43.397745" lon="11.443595"><ele>374.5</ele><time>2026-04-30T09:05:19.333Z</time></trkpt><trkpt lat="43.39761" lon="11.4435417"><ele>373.75</ele><time>2026-04-30T09:05:20.334Z</time></trkpt><trkpt lat="43.3974717" lon="11.4434783"><ele>373.0</ele><time>2026-04-30T09:05:21.334Z</time></trkpt><trkpt lat="43.39732" lon="11.443415"><ele>372.3333333333333</ele><time>2026-04-30T09:05:22.334Z</time></trkpt><trkpt lat="43.3971667" lon="11.4433567"><ele>371.6666666666667</ele><time>2026-04-30T09:05:23.333Z</time></trkpt><trkpt lat="43.3970133" lon="11.4433017"><ele>371.0</ele><time>2026-04-30T09:05:24.334Z</time></trkpt><trkpt lat="43.39686" lon="11.4432417"><ele>371.0</ele><time>2026-04-30T09:05:25.333Z</time></trkpt><trkpt lat="43.3967017" lon="11.4431833"><ele>371.0</ele><time>2026-04-30T09:05:26.333Z</time></trkpt><trkpt lat="43.3965317" lon="11.4431283"><ele>371.0</ele><time>2026-04-30T09:05:27.334Z</time></trkpt><trkpt lat="43.39638" lon="11.443065"><ele>369.6666666666667</ele><time>2026-04-30T09:05:28.333Z</time></trkpt><trkpt lat="43.3962283" lon="11.4430033"><ele>368.3333333333333</ele><time>2026-04-30T09:05:29.334Z</time></trkpt><trkpt lat="43.3960783" lon="11.442935"><ele>367.0</ele><time>2026-04-30T09:05:30.334Z</time></trkpt><trkpt lat="43.3959267" lon="11.4428733"><ele>367.0</ele><time>2026-04-30T09:05:31.333Z</time></trkpt><trkpt lat="43.3957817" lon="11.4428083"><ele>367.0</ele><time>2026-04-30T09:05:32.334Z</time></trkpt><trkpt lat="43.3956333" lon="11.4427433"><ele>367.0</ele><time>2026-04-30T09:05:33.334Z</time></trkpt><trkpt lat="43.3954883" lon="11.442695"><ele>367.3333333333333</ele><time>2026-04-30T09:05:34.334Z</time></trkpt><trkpt lat="43.3953433" lon="11.4426633"><ele>367.6666666666667</ele><time>2026-04-30T09:05:35.334Z</time></trkpt><trkpt lat="43.395185" lon="11.4426617"><ele>368.0</ele><time>2026-04-30T09:05:36.334Z</time></trkpt><trkpt lat="43.3950283" lon="11.4426783"><ele>368.0</ele><time>2026-04-30T09:05:37.334Z</time></trkpt><trkpt lat="43.3948667" lon="11.44269"><ele>368.0</ele><time>2026-04-30T09:05:38.334Z</time></trkpt><trkpt lat="43.394705" lon="11.4427"><ele>368.0</ele><time>2026-04-30T09:05:39.334Z</time></trkpt><trkpt lat="43.3945433" lon="11.4426983"><ele>368.0</ele><time>2026-04-30T09:05:40.334Z</time></trkpt><trkpt lat="43.3943867" lon="11.4426833"><ele>368.0</ele><time>2026-04-30T09:05:41.334Z</time></trkpt><trkpt lat="43.3942267" lon="11.4426617"><ele>368.0</ele><time>2026-04-30T09:05:42.333Z</time></trkpt><trkpt lat="43.3940733" lon="11.4426317"><ele>368.0</ele><time>2026-04-30T09:05:43.334Z</time></trkpt><trkpt lat="43.3939217" lon="11.4426033"><ele>368.0</ele><time>2026-04-30T09:05:44.333Z</time></trkpt><trkpt lat="43.3937767" lon="11.4425783"><ele>368.0</ele><time>2026-04-30T09:05:45.334Z</time></trkpt><trkpt lat="43.3936233" lon="11.44254"><ele>368.0</ele><time>2026-04-30T09:05:46.334Z</time></trkpt><trkpt lat="43.3934733" lon="11.4424783"><ele>368.0</ele><time>2026-04-30T09:05:47.334Z</time></trkpt><trkpt lat="43.3933167" lon="11.442405"><ele>368.0</ele><time>2026-04-30T09:05:48.334Z</time></trkpt><trkpt lat="43.39316" lon="11.4423367"><ele>368.33333333333337</ele><time>2026-04-30T09:05:49.334Z</time></trkpt><trkpt lat="43.3930033" lon="11.4422883"><ele>368.6666666666667</ele><time>2026-04-30T09:05:50.333Z</time></trkpt><trkpt lat="43.392845" lon="11.4422733"><ele>369.0</ele><time>2026-04-30T09:05:51.334Z</time></trkpt><trkpt lat="43.3926867" lon="11.442285"><ele>369.0</ele><time>2026-04-30T09:05:52.334Z</time></trkpt><trkpt lat="43.3925267" lon="11.4423283"><ele>369.0</ele><time>2026-04-30T09:05:53.334Z</time></trkpt><trkpt lat="43.39237" lon="11.4423917"><ele>369.0</ele><time>2026-04-30T09:05:54.333Z</time></trkpt><trkpt lat="43.3922167" lon="11.4424767"><ele>368.0</ele><time>2026-04-30T09:05:55.334Z</time></trkpt><trkpt lat="43.392075" lon="11.4425733"><ele>367.0</ele><time>2026-04-30T09:05:56.334Z</time></trkpt><trkpt lat="43.3919467" lon="11.44267"><ele>366.0</ele><time>2026-04-30T09:05:57.334Z</time></trkpt><trkpt lat="43.3918183" lon="11.4427683"><ele>366.0</ele><time>2026-04-30T09:05:58.333Z</time></trkpt><trkpt lat="43.391685" lon="11.442835"><ele>366.0</ele><time>2026-04-30T09:05:59.334Z</time></trkpt><trkpt lat="43.3915317" lon="11.4428483"><ele>366.0</ele><time>2026-04-30T09:06:00.334Z</time></trkpt><trkpt lat="43.3913967" lon="11.4428683"><ele>366.0</ele><time>2026-04-30T09:06:01.334Z</time></trkpt><trkpt lat="43.3912383" lon="11.4428767"><ele>366.6666666666667</ele><time>2026-04-30T09:06:02.334Z</time></trkpt><trkpt lat="43.3910733" lon="11.4428983"><ele>367.33333333333337</ele><time>2026-04-30T09:06:03.334Z</time></trkpt><trkpt lat="43.39091" lon="11.44292"><ele>368.0</ele><time>2026-04-30T09:06:04.334Z</time></trkpt><trkpt lat="43.3907483" lon="11.4429383"><ele>368.0</ele><time>2026-04-30T09:06:05.333Z</time></trkpt><trkpt lat="43.3905817" lon="11.4429433"><ele>368.0</ele><time>2026-04-30T09:06:06.333Z</time></trkpt><trkpt lat="43.3904367" lon="11.4429333"><ele>368.0</ele><time>2026-04-30T09:06:07.334Z</time></trkpt><trkpt lat="43.3902917" lon="11.4429233"><ele>367.25</ele><time>2026-04-30T09:06:08.334Z</time></trkpt><trkpt lat="43.39016" lon="11.442905"><ele>366.5</ele><time>2026-04-30T09:06:09.334Z</time></trkpt><trkpt lat="43.3900433" lon="11.4428817"><ele>365.75</ele><time>2026-04-30T09:06:10.334Z</time></trkpt><trkpt lat="43.3899433" lon="11.442845"><ele>365.0</ele><time>2026-04-30T09:06:11.334Z</time></trkpt><trkpt lat="43.389855" lon="11.44279"><ele>365.0</ele><time>2026-04-30T09:06:12.334Z</time></trkpt><trkpt lat="43.3897783" lon="11.4426833"><ele>365.0</ele><time>2026-04-30T09:06:13.334Z</time></trkpt><trkpt lat="43.3897133" lon="11.4425433"><ele>365.0</ele><time>2026-04-30T09:06:14.334Z</time></trkpt><trkpt lat="43.3896517" lon="11.4423917"><ele>365.0</ele><time>2026-04-30T09:06:15.334Z</time></trkpt><trkpt lat="43.3895817" lon="11.44224"><ele>363.0</ele><time>2026-04-30T09:06:16.334Z</time></trkpt><trkpt lat="43.3894967" lon="11.4420883"><ele>361.0</ele><time>2026-04-30T09:06:17.334Z</time></trkpt><trkpt lat="43.3894017" lon="11.441935"><ele>359.0</ele><time>2026-04-30T09:06:18.334Z</time></trkpt><trkpt lat="43.3893033" lon="11.44178"><ele>357.0</ele><time>2026-04-30T09:06:19.334Z</time></trkpt><trkpt lat="43.3892083" lon="11.441635"><ele>357.0</ele><time>2026-04-30T09:06:20.333Z</time></trkpt><trkpt lat="43.3891133" lon="11.4414883"><ele>357.0</ele><time>2026-04-30T09:06:21.334Z</time></trkpt><trkpt lat="43.3890133" lon="11.4413417"><ele>357.0</ele><time>2026-04-30T09:06:22.334Z</time></trkpt><trkpt lat="43.3889167" lon="11.4411967"><ele>357.0</ele><time>2026-04-30T09:06:23.334Z</time></trkpt><trkpt lat="43.3888167" lon="11.441055"><ele>356.25</ele><time>2026-04-30T09:06:24.333Z</time></trkpt><trkpt lat="43.38871" lon="11.4409267"><ele>355.5</ele><time>2026-04-30T09:06:25.334Z</time></trkpt><trkpt lat="43.3885967" lon="11.4407983"><ele>354.75</ele><time>2026-04-30T09:06:26.334Z</time></trkpt><trkpt lat="43.3884817" lon="11.4406683"><ele>354.0</ele><time>2026-04-30T09:06:27.334Z</time></trkpt><trkpt lat="43.38837" lon="11.4405233"><ele>351.0</ele><time>2026-04-30T09:06:28.334Z</time></trkpt><trkpt lat="43.3882633" lon="11.440375"><ele>348.0</ele><time>2026-04-30T09:06:29.333Z</time></trkpt><trkpt lat="43.3881533" lon="11.4402167"><ele>345.0</ele><time>2026-04-30T09:06:30.334Z</time></trkpt><trkpt lat="43.388045" lon="11.4400433"><ele>345.3333333333333</ele><time>2026-04-30T09:06:31.334Z</time></trkpt><trkpt lat="43.3879383" lon="11.43987"><ele>345.66666666666663</ele><time>2026-04-30T09:06:32.333Z</time></trkpt><trkpt lat="43.3878417" lon="11.439695"><ele>346.0</ele><time>2026-04-30T09:06:33.333Z</time></trkpt><trkpt lat="43.3877433" lon="11.439515"><ele>344.66666666666663</ele><time>2026-04-30T09:06:34.334Z</time></trkpt><trkpt lat="43.3876367" lon="11.4393383"><ele>343.3333333333333</ele><time>2026-04-30T09:06:35.334Z</time></trkpt><trkpt lat="43.387525" lon="11.4391633"><ele>342.0</ele><time>2026-04-30T09:06:36.334Z</time></trkpt><trkpt lat="43.3874167" lon="11.4389867"><ele>342.0</ele><time>2026-04-30T09:06:37.334Z</time></trkpt><trkpt lat="43.38732" lon="11.4388167"><ele>342.0</ele><time>2026-04-30T09:06:38.334Z</time></trkpt><trkpt lat="43.38723" lon="11.43866"><ele>342.0</ele><time>2026-04-30T09:06:39.333Z</time></trkpt><trkpt lat="43.3871567" lon="11.4385"><ele>342.0</ele><time>2026-04-30T09:06:40.334Z</time></trkpt><trkpt lat="43.38709" lon="11.4383267"><ele>342.3333333333333</ele><time>2026-04-30T09:06:41.333Z</time></trkpt><trkpt lat="43.3870283" lon="11.4381383"><ele>342.66666666666663</ele><time>2026-04-30T09:06:42.334Z</time></trkpt><trkpt lat="43.3869733" lon="11.4379417"><ele>343.0</ele><time>2026-04-30T09:06:43.333Z</time></trkpt><trkpt lat="43.3869217" lon="11.43774"><ele>343.25</ele><time>2026-04-30T09:06:44.333Z</time></trkpt><trkpt lat="43.386875" lon="11.437545"><ele>343.5</ele><time>2026-04-30T09:06:45.334Z</time></trkpt><trkpt lat="43.3868317" lon="11.43736"><ele>343.75</ele><time>2026-04-30T09:06:46.334Z</time></trkpt><trkpt lat="43.3867783" lon="11.43719"><ele>344.0</ele><time>2026-04-30T09:06:47.333Z</time></trkpt><trkpt lat="43.3866967" lon="11.4370383"><ele>342.75</ele><time>2026-04-30T09:06:48.333Z</time></trkpt><trkpt lat="43.3866" lon="11.4368967"><ele>341.5</ele><time>2026-04-30T09:06:49.334Z</time></trkpt><trkpt lat="43.386485" lon="11.43676"><ele>340.25</ele><time>2026-04-30T09:06:50.334Z</time></trkpt><trkpt lat="43.3863667" lon="11.4366283"><ele>339.0</ele><time>2026-04-30T09:06:51.334Z</time></trkpt><trkpt lat="43.38625" lon="11.4364983"><ele>339.0</ele><time>2026-04-30T09:06:52.334Z</time></trkpt><trkpt lat="43.3861367" lon="11.436375"><ele>339.0</ele><time>2026-04-30T09:06:53.334Z</time></trkpt><trkpt lat="43.38604" lon="11.4362367"><ele>339.0</ele><time>2026-04-30T09:06:54.333Z</time></trkpt><trkpt lat="43.385945" lon="11.4361017"><ele>339.0</ele><time>2026-04-30T09:06:55.334Z</time></trkpt><trkpt lat="43.38585" lon="11.4359733"><ele>338.25</ele><time>2026-04-30T09:06:56.333Z</time></trkpt><trkpt lat="43.3857383" lon="11.4358567"><ele>337.5</ele><time>2026-04-30T09:06:57.334Z</time></trkpt><trkpt lat="43.3856167" lon="11.4357467"><ele>336.75</ele><time>2026-04-30T09:06:58.333Z</time></trkpt><trkpt lat="43.3854867" lon="11.435635"><ele>336.0</ele><time>2026-04-30T09:06:59.333Z</time></trkpt><trkpt lat="43.38535" lon="11.4355267"><ele>333.6666666666667</ele><time>2026-04-30T09:07:00.334Z</time></trkpt><trkpt lat="43.385215" lon="11.435425"><ele>331.33333333333337</ele><time>2026-04-30T09:07:01.333Z</time></trkpt><trkpt lat="43.3850667" lon="11.4353267"><ele>329.0</ele><time>2026-04-30T09:07:02.334Z</time></trkpt><trkpt lat="43.38492" lon="11.435245"><ele>329.0</ele><time>2026-04-30T09:07:03.334Z</time></trkpt><trkpt lat="43.3847583" lon="11.4351833"><ele>329.0</ele><time>2026-04-30T09:07:04.334Z</time></trkpt><trkpt lat="43.3845917" lon="11.4351333"><ele>329.0</ele><time>2026-04-30T09:07:05.334Z</time></trkpt><trkpt lat="43.384425" lon="11.43509"><ele>327.6666666666667</ele><time>2026-04-30T09:07:06.334Z</time></trkpt><trkpt lat="43.38425" lon="11.43505"><ele>326.3333333333333</ele><time>2026-04-30T09:07:07.334Z</time></trkpt><trkpt lat="43.3840833" lon="11.4350117"><ele>325.0</ele><time>2026-04-30T09:07:08.334Z</time></trkpt><trkpt lat="43.3839067" lon="11.4349717"><ele>324.66666666666663</ele><time>2026-04-30T09:07:09.334Z</time></trkpt><trkpt lat="43.383735" lon="11.434925"><ele>324.3333333333333</ele><time>2026-04-30T09:07:10.333Z</time></trkpt><trkpt lat="43.383575" lon="11.4348517"><ele>324.0</ele><time>2026-04-30T09:07:11.334Z</time></trkpt><trkpt lat="43.383425" lon="11.43476"><ele>324.0</ele><time>2026-04-30T09:07:12.333Z</time></trkpt><trkpt lat="43.383285" lon="11.434655"><ele>324.0</ele><time>2026-04-30T09:07:13.334Z</time></trkpt><trkpt lat="43.3831533" lon="11.434535"><ele>324.0</ele><time>2026-04-30T09:07:14.333Z</time></trkpt><trkpt lat="43.3830233" lon="11.43441"><ele>324.75</ele><time>2026-04-30T09:07:15.334Z</time></trkpt><trkpt lat="43.3828983" lon="11.4342917"><ele>325.5</ele><time>2026-04-30T09:07:16.334Z</time></trkpt><trkpt lat="43.3827667" lon="11.4342033"><ele>326.25</ele><time>2026-04-30T09:07:17.334Z</time></trkpt><trkpt lat="43.3826283" lon="11.4341267"><ele>327.0</ele><time>2026-04-30T09:07:18.334Z</time></trkpt><trkpt lat="43.382485" lon="11.4340717"><ele>327.0</ele><time>2026-04-30T09:07:19.334Z</time></trkpt><trkpt lat="43.3823383" lon="11.4340317"><ele>327.0</ele><time>2026-04-30T09:07:20.333Z</time></trkpt><trkpt lat="43.3821917" lon="11.4340033"><ele>327.0</ele><time>2026-04-30T09:07:21.333Z</time></trkpt><trkpt lat="43.3820517" lon="11.433985"><ele>327.0</ele><time>2026-04-30T09:07:22.333Z</time></trkpt><trkpt lat="43.3819217" lon="11.4339683"><ele>326.5</ele><time>2026-04-30T09:07:23.334Z</time></trkpt><trkpt lat="43.381805" lon="11.4339467"><ele>326.0</ele><time>2026-04-30T09:07:24.334Z</time></trkpt><trkpt lat="43.3816933" lon="11.4339117"><ele>325.5</ele><time>2026-04-30T09:07:25.334Z</time></trkpt><trkpt lat="43.3815833" lon="11.4338567"><ele>325.0</ele><time>2026-04-30T09:07:26.334Z</time></trkpt><trkpt lat="43.3814633" lon="11.43379"><ele>323.0</ele><time>2026-04-30T09:07:27.334Z</time></trkpt><trkpt lat="43.3813333" lon="11.43371"><ele>321.0</ele><time>2026-04-30T09:07:28.334Z</time></trkpt><trkpt lat="43.381205" lon="11.4336283"><ele>319.0</ele><time>2026-04-30T09:07:29.334Z</time></trkpt><trkpt lat="43.3810883" lon="11.4335367"><ele>317.0</ele><time>2026-04-30T09:07:30.334Z</time></trkpt><trkpt lat="43.3809783" lon="11.4334217"><ele>317.0</ele><time>2026-04-30T09:07:31.334Z</time></trkpt><trkpt lat="43.3808767" lon="11.4332883"><ele>317.0</ele><time>2026-04-30T09:07:32.334Z</time></trkpt><trkpt lat="43.38079" lon="11.43314"><ele>317.0</ele><time>2026-04-30T09:07:33.333Z</time></trkpt><trkpt lat="43.3807167" lon="11.4329933"><ele>317.0</ele><time>2026-04-30T09:07:34.333Z</time></trkpt><trkpt lat="43.38064" lon="11.43286"><ele>317.25</ele><time>2026-04-30T09:07:35.334Z</time></trkpt><trkpt lat="43.3805417" lon="11.4327617"><ele>317.5</ele><time>2026-04-30T09:07:36.333Z</time></trkpt><trkpt lat="43.3804267" lon="11.4326917"><ele>317.75</ele><time>2026-04-30T09:07:37.333Z</time></trkpt><trkpt lat="43.3803083" lon="11.432645"><ele>318.0</ele><time>2026-04-30T09:07:38.334Z</time></trkpt><trkpt lat="43.3801767" lon="11.4326117"><ele>318.0</ele><time>2026-04-30T09:07:39.333Z</time></trkpt><trkpt lat="43.3800367" lon="11.4325967"><ele>318.0</ele><time>2026-04-30T09:07:40.334Z</time></trkpt><trkpt lat="43.3798917" lon="11.432575"><ele>318.0</ele><time>2026-04-30T09:07:41.334Z</time></trkpt><trkpt lat="43.37974" lon="11.432545"><ele>318.0</ele><time>2026-04-30T09:07:42.334Z</time></trkpt><trkpt lat="43.3795833" lon="11.4324967"><ele>318.0</ele><time>2026-04-30T09:07:43.334Z</time></trkpt><trkpt lat="43.3794317" lon="11.4324333"><ele>318.0</ele><time>2026-04-30T09:07:44.334Z</time></trkpt><trkpt lat="43.37928" lon="11.4323617"><ele>318.0</ele><time>2026-04-30T09:07:45.334Z</time></trkpt><trkpt lat="43.3791283" lon="11.43229"><ele>318.0</ele><time>2026-04-30T09:07:46.334Z</time></trkpt><trkpt lat="43.3789683" lon="11.4322183"><ele>318.0</ele><time>2026-04-30T09:07:47.334Z</time></trkpt><trkpt lat="43.3788083" lon="11.4321467"><ele>318.0</ele><time>2026-04-30T09:07:48.334Z</time></trkpt><trkpt lat="43.3786467" lon="11.4320667"><ele>317.6666666666667</ele><time>2026-04-30T09:07:49.334Z</time></trkpt><trkpt lat="43.378485" lon="11.4319867"><ele>317.33333333333337</ele><time>2026-04-30T09:07:50.334Z</time></trkpt><trkpt lat="43.3783217" lon="11.4319"><ele>317.0</ele><time>2026-04-30T09:07:51.334Z</time></trkpt><trkpt lat="43.37816" lon="11.431815"><ele>317.6666666666667</ele><time>2026-04-30T09:07:52.334Z</time></trkpt><trkpt lat="43.3780067" lon="11.4317317"><ele>318.3333333333333</ele><time>2026-04-30T09:07:53.334Z</time></trkpt><trkpt lat="43.3778617" lon="11.4316517"><ele>319.0</ele><time>2026-04-30T09:07:54.333Z</time></trkpt><trkpt lat="43.377725" lon="11.4315783"><ele>319.0</ele><time>2026-04-30T09:07:55.334Z</time></trkpt><trkpt lat="43.3775983" lon="11.4315133"><ele>319.0</ele><time>2026-04-30T09:07:56.334Z</time></trkpt><trkpt lat="43.3774633" lon="11.4314567"><ele>319.0</ele><time>2026-04-30T09:07:57.333Z</time></trkpt><trkpt lat="43.3773283" lon="11.4314067"><ele>319.0</ele><time>2026-04-30T09:07:58.333Z</time></trkpt><trkpt lat="43.377195" lon="11.4313683"><ele>318.25</ele><time>2026-04-30T09:07:59.334Z</time></trkpt><trkpt lat="43.3770567" lon="11.4313417"><ele>317.5</ele><time>2026-04-30T09:08:00.334Z</time></trkpt><trkpt lat="43.376915" lon="11.4313167"><ele>316.75</ele><time>2026-04-30T09:08:01.334Z</time></trkpt><trkpt lat="43.3767717" lon="11.4312983"><ele>316.0</ele><time>2026-04-30T09:08:02.334Z</time></trkpt><trkpt lat="43.3766233" lon="11.4312817"><ele>315.25</ele><time>2026-04-30T09:08:03.334Z</time></trkpt><trkpt lat="43.37648" lon="11.4312867"><ele>314.5</ele><time>2026-04-30T09:08:04.334Z</time></trkpt><trkpt lat="43.3763467" lon="11.431275"><ele>313.75</ele><time>2026-04-30T09:08:05.334Z</time></trkpt><trkpt lat="43.3762183" lon="11.431255"><ele>313.0</ele><time>2026-04-30T09:08:06.334Z</time></trkpt><trkpt lat="43.3760967" lon="11.4312233"><ele>313.0</ele><time>2026-04-30T09:08:07.333Z</time></trkpt><trkpt lat="43.3759717" lon="11.4311883"><ele>313.0</ele><time>2026-04-30T09:08:08.334Z</time></trkpt><trkpt lat="43.37585" lon="11.431145"><ele>313.0</ele><time>2026-04-30T09:08:09.334Z</time></trkpt><trkpt lat="43.3757283" lon="11.4310933"><ele>313.0</ele><time>2026-04-30T09:08:10.334Z</time></trkpt><trkpt lat="43.37561" lon="11.4310133"><ele>310.75</ele><time>2026-04-30T09:08:11.334Z</time></trkpt><trkpt lat="43.375485" lon="11.4309283"><ele>308.5</ele><time>2026-04-30T09:08:12.334Z</time></trkpt><trkpt lat="43.3753617" lon="11.4308333"><ele>306.25</ele><time>2026-04-30T09:08:13.334Z</time></trkpt><trkpt lat="43.3752233" lon="11.4307283"><ele>304.0</ele><time>2026-04-30T09:08:14.333Z</time></trkpt><trkpt lat="43.3750767" lon="11.4306367"><ele>304.0</ele><time>2026-04-30T09:08:15.333Z</time></trkpt><trkpt lat="43.374925" lon="11.430555"><ele>304.0</ele><time>2026-04-30T09:08:16.334Z</time></trkpt><trkpt lat="43.37477" lon="11.4304833"><ele>304.0</ele><time>2026-04-30T09:08:17.334Z</time></trkpt><trkpt lat="43.3746133" lon="11.4304167"><ele>304.3333333333333</ele><time>2026-04-30T09:08:18.334Z</time></trkpt><trkpt lat="43.37445" lon="11.430365"><ele>304.6666666666667</ele><time>2026-04-30T09:08:19.333Z</time></trkpt><trkpt lat="43.3742917" lon="11.4303083"><ele>305.0</ele><time>2026-04-30T09:08:20.334Z</time></trkpt><trkpt lat="43.374135" lon="11.4302517"><ele>305.0</ele><time>2026-04-30T09:08:21.333Z</time></trkpt><trkpt lat="43.3739817" lon="11.4302"><ele>305.0</ele><time>2026-04-30T09:08:22.334Z</time></trkpt><trkpt lat="43.3738333" lon="11.4301483"><ele>305.0</ele><time>2026-04-30T09:08:23.333Z</time></trkpt><trkpt lat="43.3736867" lon="11.430085"><ele>304.6666666666667</ele><time>2026-04-30T09:08:24.334Z</time></trkpt><trkpt lat="43.3735283" lon="11.43001"><ele>304.3333333333333</ele><time>2026-04-30T09:08:25.333Z</time></trkpt><trkpt lat="43.373375" lon="11.42993"><ele>304.0</ele><time>2026-04-30T09:08:26.334Z</time></trkpt><trkpt lat="43.3732233" lon="11.429845"><ele>304.0</ele><time>2026-04-30T09:08:27.333Z</time></trkpt><trkpt lat="43.3730733" lon="11.429745"><ele>304.0</ele><time>2026-04-30T09:08:28.334Z</time></trkpt><trkpt lat="43.3729167" lon="11.429655"><ele>304.0</ele><time>2026-04-30T09:08:29.334Z</time></trkpt><trkpt lat="43.372765" lon="11.4295667"><ele>301.66666666666663</ele><time>2026-04-30T09:08:30.334Z</time></trkpt><trkpt lat="43.3726083" lon="11.429475"><ele>299.3333333333333</ele><time>2026-04-30T09:08:31.334Z</time></trkpt><trkpt lat="43.3724433" lon="11.42938"><ele>297.0</ele><time>2026-04-30T09:08:32.333Z</time></trkpt><trkpt lat="43.37228" lon="11.42929"><ele>295.6666666666667</ele><time>2026-04-30T09:08:33.334Z</time></trkpt><trkpt lat="43.3721283" lon="11.4292033"><ele>294.33333333333337</ele><time>2026-04-30T09:08:34.334Z</time></trkpt><trkpt lat="43.37198" lon="11.42912"><ele>293.0</ele><time>2026-04-30T09:08:35.334Z</time></trkpt><trkpt lat="43.3718283" lon="11.4290433"><ele>293.0</ele><time>2026-04-30T09:08:36.334Z</time></trkpt><trkpt lat="43.3716917" lon="11.42896"><ele>293.0</ele><time>2026-04-30T09:08:37.334Z</time></trkpt><trkpt lat="43.3715567" lon="11.428885"><ele>293.0</ele><time>2026-04-30T09:08:38.333Z</time></trkpt><trkpt lat="43.37141" lon="11.428835"><ele>293.0</ele><time>2026-04-30T09:08:39.334Z</time></trkpt><trkpt lat="43.3712567" lon="11.4288"><ele>293.33333333333337</ele><time>2026-04-30T09:08:40.334Z</time></trkpt><trkpt lat="43.371105" lon="11.42875"><ele>293.6666666666667</ele><time>2026-04-30T09:08:41.334Z</time></trkpt><trkpt lat="43.37095" lon="11.4287117"><ele>294.0</ele><time>2026-04-30T09:08:42.334Z</time></trkpt><trkpt lat="43.370805" lon="11.4286667"><ele>294.0</ele><time>2026-04-30T09:08:43.334Z</time></trkpt><trkpt lat="43.37065" lon="11.4286283"><ele>294.0</ele><time>2026-04-30T09:08:44.334Z</time></trkpt><trkpt lat="43.3704917" lon="11.428595"><ele>294.0</ele><time>2026-04-30T09:08:45.334Z</time></trkpt><trkpt lat="43.37032" lon="11.4285683"><ele>291.6666666666667</ele><time>2026-04-30T09:08:46.334Z</time></trkpt><trkpt lat="43.3701483" lon="11.4285517"><ele>289.33333333333337</ele><time>2026-04-30T09:08:47.334Z</time></trkpt><trkpt lat="43.3699783" lon="11.4285317"><ele>287.0</ele><time>2026-04-30T09:08:48.334Z</time></trkpt><trkpt lat="43.3698067" lon="11.4285167"><ele>285.33333333333337</ele><time>2026-04-30T09:08:49.333Z</time></trkpt><trkpt lat="43.3696383" lon="11.4285017"><ele>283.6666666666667</ele><time>2026-04-30T09:08:50.333Z</time></trkpt><trkpt lat="43.3694683" lon="11.4284917"><ele>282.0</ele><time>2026-04-30T09:08:51.334Z</time></trkpt><trkpt lat="43.369315" lon="11.4284817"><ele>282.0</ele><time>2026-04-30T09:08:52.334Z</time></trkpt><trkpt lat="43.3691767" lon="11.4284767"><ele>282.0</ele><time>2026-04-30T09:08:53.334Z</time></trkpt><trkpt lat="43.3690417" lon="11.42847"><ele>282.0</ele><time>2026-04-30T09:08:54.334Z</time></trkpt><trkpt lat="43.368915" lon="11.42845"><ele>282.0</ele><time>2026-04-30T09:08:55.334Z</time></trkpt><trkpt lat="43.368785" lon="11.4284167"><ele>282.5</ele><time>2026-04-30T09:08:56.334Z</time></trkpt><trkpt lat="43.3686583" lon="11.4283633"><ele>283.0</ele><time>2026-04-30T09:08:57.334Z</time></trkpt><trkpt lat="43.3685333" lon="11.4282883"><ele>283.5</ele><time>2026-04-30T09:08:58.334Z</time></trkpt><trkpt lat="43.3684233" lon="11.4281883"><ele>284.0</ele><time>2026-04-30T09:08:59.334Z</time></trkpt><trkpt lat="43.3683233" lon="11.4280683"><ele>283.0</ele><time>2026-04-30T09:09:00.334Z</time></trkpt><trkpt lat="43.368235" lon="11.4279333"><ele>282.0</ele><time>2026-04-30T09:09:01.333Z</time></trkpt><trkpt lat="43.3681517" lon="11.4277767"><ele>281.0</ele><time>2026-04-30T09:09:02.334Z</time></trkpt><trkpt lat="43.3680883" lon="11.4275967"><ele>280.0</ele><time>2026-04-30T09:09:03.333Z</time></trkpt><trkpt lat="43.3680283" lon="11.42742"><ele>280.75</ele><time>2026-04-30T09:09:04.334Z</time></trkpt><trkpt lat="43.3679733" lon="11.4272533"><ele>281.5</ele><time>2026-04-30T09:09:05.334Z</time></trkpt><trkpt lat="43.367915" lon="11.4271033"><ele>282.25</ele><time>2026-04-30T09:09:06.334Z</time></trkpt><trkpt lat="43.36784" lon="11.4269667"><ele>283.0</ele><time>2026-04-30T09:09:07.334Z</time></trkpt><trkpt lat="43.367745" lon="11.4268517"><ele>283.25</ele><time>2026-04-30T09:09:08.334Z</time></trkpt><trkpt lat="43.3676267" lon="11.4267617"><ele>283.5</ele><time>2026-04-30T09:09:09.334Z</time></trkpt><trkpt lat="43.3674933" lon="11.4266867"><ele>283.75</ele><time>2026-04-30T09:09:10.334Z</time></trkpt><trkpt lat="43.36735" lon="11.42662"><ele>284.0</ele><time>2026-04-30T09:09:11.334Z</time></trkpt><trkpt lat="43.3672067" lon="11.42656"><ele>285.25</ele><time>2026-04-30T09:09:12.333Z</time></trkpt><trkpt lat="43.36706" lon="11.4265033"><ele>286.5</ele><time>2026-04-30T09:09:13.333Z</time></trkpt><trkpt lat="43.36692" lon="11.4264467"><ele>287.75</ele><time>2026-04-30T09:09:14.333Z</time></trkpt><trkpt lat="43.3667867" lon="11.4263967"><ele>289.0</ele><time>2026-04-30T09:09:15.333Z</time></trkpt><trkpt lat="43.3666617" lon="11.4263483"><ele>289.0</ele><time>2026-04-30T09:09:16.333Z</time></trkpt><trkpt lat="43.3665317" lon="11.4263283"><ele>289.0</ele><time>2026-04-30T09:09:17.333Z</time></trkpt><trkpt lat="43.3664" lon="11.4263333"><ele>289.0</ele><time>2026-04-30T09:09:18.334Z</time></trkpt><trkpt lat="43.366275" lon="11.4263567"><ele>289.0</ele><time>2026-04-30T09:09:19.334Z</time></trkpt><trkpt lat="43.36615" lon="11.4263867"><ele>289.25</ele><time>2026-04-30T09:09:20.334Z</time></trkpt><trkpt lat="43.3660417" lon="11.4263983"><ele>289.5</ele><time>2026-04-30T09:09:21.334Z</time></trkpt><trkpt lat="43.365935" lon="11.42637"><ele>289.75</ele><time>2026-04-30T09:09:22.334Z</time></trkpt><trkpt lat="43.3658383" lon="11.4263033"><ele>290.0</ele><time>2026-04-30T09:09:23.334Z</time></trkpt><trkpt lat="43.365745" lon="11.426185"><ele>290.0</ele><time>2026-04-30T09:09:24.334Z</time></trkpt><trkpt lat="43.36566" lon="11.4260517"><ele>290.0</ele><time>2026-04-30T09:09:25.334Z</time></trkpt><trkpt lat="43.3655767" lon="11.4259133"><ele>290.0</ele><time>2026-04-30T09:09:26.334Z</time></trkpt><trkpt lat="43.3654867" lon="11.4257517"><ele>290.0</ele><time>2026-04-30T09:09:27.334Z</time></trkpt><trkpt lat="43.3653967" lon="11.425595"><ele>287.75</ele><time>2026-04-30T09:09:28.334Z</time></trkpt><trkpt lat="43.3653017" lon="11.4254317"><ele>285.5</ele><time>2026-04-30T09:09:29.334Z</time></trkpt><trkpt lat="43.3652067" lon="11.4252817"><ele>283.25</ele><time>2026-04-30T09:09:30.334Z</time></trkpt><trkpt lat="43.365105" lon="11.42513"><ele>281.0</ele><time>2026-04-30T09:09:31.334Z</time></trkpt><trkpt lat="43.3650117" lon="11.4249917"><ele>281.0</ele><time>2026-04-30T09:09:32.334Z</time></trkpt><trkpt lat="43.364925" lon="11.4248433"><ele>281.0</ele><time>2026-04-30T09:09:33.334Z</time></trkpt><trkpt lat="43.3648483" lon="11.4247033"><ele>281.0</ele><time>2026-04-30T09:09:34.334Z</time></trkpt><trkpt lat="43.3647717" lon="11.4245567"><ele>281.0</ele><time>2026-04-30T09:09:35.334Z</time></trkpt><trkpt lat="43.3647" lon="11.4244117"><ele>280.25</ele><time>2026-04-30T09:09:36.334Z</time></trkpt><trkpt lat="43.36465" lon="11.4242533"><ele>279.5</ele><time>2026-04-30T09:09:37.334Z</time></trkpt><trkpt lat="43.3646067" lon="11.4240833"><ele>278.75</ele><time>2026-04-30T09:09:38.334Z</time></trkpt><trkpt lat="43.3645717" lon="11.4238983"><ele>278.0</ele><time>2026-04-30T09:09:39.334Z</time></trkpt><trkpt lat="43.3645433" lon="11.4236917"><ele>275.6666666666667</ele><time>2026-04-30T09:09:40.334Z</time></trkpt><trkpt lat="43.36454" lon="11.42347"><ele>273.3333333333333</ele><time>2026-04-30T09:09:41.334Z</time></trkpt><trkpt lat="43.3645517" lon="11.4232333"><ele>271.0</ele><time>2026-04-30T09:09:42.334Z</time></trkpt><trkpt lat="43.3645517" lon="11.422995"><ele>268.66666666666663</ele><time>2026-04-30T09:09:43.334Z</time></trkpt><trkpt lat="43.3645483" lon="11.4227767"><ele>266.3333333333333</ele><time>2026-04-30T09:09:44.334Z</time></trkpt><trkpt lat="43.3645483" lon="11.4225617"><ele>264.0</ele><time>2026-04-30T09:09:45.333Z</time></trkpt><trkpt lat="43.3645367" lon="11.4223333"><ele>262.25</ele><time>2026-04-30T09:09:46.333Z</time></trkpt><trkpt lat="43.3645233" lon="11.4221183"><ele>260.5</ele><time>2026-04-30T09:09:47.334Z</time></trkpt><trkpt lat="43.36451" lon="11.4219183"><ele>258.75</ele><time>2026-04-30T09:09:48.334Z</time></trkpt><trkpt lat="43.3645" lon="11.4217267"><ele>257.0</ele><time>2026-04-30T09:09:49.334Z</time></trkpt><trkpt lat="43.3644783" lon="11.42154"><ele>257.0</ele><time>2026-04-30T09:09:50.334Z</time></trkpt><trkpt lat="43.3644367" lon="11.4213433"><ele>257.0</ele><time>2026-04-30T09:09:51.334Z</time></trkpt><trkpt lat="43.3643833" lon="11.4211483"><ele>257.0</ele><time>2026-04-30T09:09:52.333Z</time></trkpt><trkpt lat="43.3643233" lon="11.4209667"><ele>257.0</ele><time>2026-04-30T09:09:53.334Z</time></trkpt><trkpt lat="43.3642733" lon="11.4208"><ele>256.75</ele><time>2026-04-30T09:09:54.334Z</time></trkpt><trkpt lat="43.3642283" lon="11.4206367"><ele>256.5</ele><time>2026-04-30T09:09:55.333Z</time></trkpt><trkpt lat="43.364185" lon="11.420465"><ele>256.25</ele><time>2026-04-30T09:09:56.334Z</time></trkpt><trkpt lat="43.364155" lon="11.4203"><ele>256.0</ele><time>2026-04-30T09:09:57.334Z</time></trkpt><trkpt lat="43.3641333" lon="11.4201133"><ele>255.5</ele><time>2026-04-30T09:09:58.334Z</time></trkpt><trkpt lat="43.3641217" lon="11.4199083"><ele>255.0</ele><time>2026-04-30T09:09:59.333Z</time></trkpt><trkpt lat="43.3641" lon="11.4197217"><ele>254.5</ele><time>2026-04-30T09:10:00.334Z</time></trkpt><trkpt lat="43.3640917" lon="11.41956"><ele>254.0</ele><time>2026-04-30T09:10:01.334Z</time></trkpt><trkpt lat="43.3640817" lon="11.41941"><ele>253.33333333333334</ele><time>2026-04-30T09:10:02.334Z</time></trkpt><trkpt lat="43.3640783" lon="11.419265"><ele>252.66666666666669</ele><time>2026-04-30T09:10:03.333Z</time></trkpt><trkpt lat="43.3640883" lon="11.4191433"><ele>252.0</ele><time>2026-04-30T09:10:04.334Z</time></trkpt><trkpt lat="43.3640883" lon="11.41902"><ele>251.33333333333331</ele><time>2026-04-30T09:10:05.334Z</time></trkpt><trkpt lat="43.36409" lon="11.418915"><ele>250.66666666666666</ele><time>2026-04-30T09:10:06.334Z</time></trkpt><trkpt lat="43.364095" lon="11.4188217"><ele>250.0</ele><time>2026-04-30T09:10:07.334Z</time></trkpt><trkpt lat="43.36412" lon="11.418695"><ele>248.99999999999997</ele><time>2026-04-30T09:10:09.334Z</time></trkpt><trkpt lat="43.3641167" lon="11.4185917"><ele>248.0</ele><time>2026-04-30T09:10:12.334Z</time></trkpt><trkpt lat="43.3640383" lon="11.4184933"><ele>247.0</ele><time>2026-04-30T09:10:15.334Z</time></trkpt><trkpt lat="43.3639683" lon="11.418465"><ele>246.0</ele><time>2026-04-30T09:10:16.334Z</time></trkpt><trkpt lat="43.36389" lon="11.4184483"><ele>244.99999999999997</ele><time>2026-04-30T09:10:17.334Z</time></trkpt><trkpt lat="43.363785" lon="11.4184583"><ele>244.0</ele><time>2026-04-30T09:10:18.334Z</time></trkpt><trkpt lat="43.3636633" lon="11.4184617"><ele>243.0</ele><time>2026-04-30T09:10:19.334Z</time></trkpt><trkpt lat="43.3635367" lon="11.41846"><ele>242.0</ele><time>2026-04-30T09:10:20.333Z</time></trkpt><trkpt lat="43.3634" lon="11.4184617"><ele>241.0</ele><time>2026-04-30T09:10:21.334Z</time></trkpt><trkpt lat="43.36326" lon="11.4184483"><ele>240.0</ele><time>2026-04-30T09:10:22.334Z</time></trkpt><trkpt lat="43.3631167" lon="11.4184267"><ele>239.25</ele><time>2026-04-30T09:10:23.334Z</time></trkpt><trkpt lat="43.3629883" lon="11.4184117"><ele>238.5</ele><time>2026-04-30T09:10:24.334Z</time></trkpt><trkpt lat="43.3628383" lon="11.41837"><ele>237.75</ele><time>2026-04-30T09:10:25.334Z</time></trkpt><trkpt lat="43.36269" lon="11.418325"><ele>237.0</ele><time>2026-04-30T09:10:26.333Z</time></trkpt><trkpt lat="43.362565" lon="11.41827"><ele>237.0</ele><time>2026-04-30T09:10:27.334Z</time></trkpt><trkpt lat="43.3624483" lon="11.41824"><ele>237.0</ele><time>2026-04-30T09:10:28.334Z</time></trkpt><trkpt lat="43.3623183" lon="11.4182617"><ele>237.0</ele><time>2026-04-30T09:10:29.334Z</time></trkpt><trkpt lat="43.3622067" lon="11.4183167"><ele>237.0</ele><time>2026-04-30T09:10:30.334Z</time></trkpt><trkpt lat="43.36209" lon="11.4184"><ele>237.25</ele><time>2026-04-30T09:10:31.334Z</time></trkpt><trkpt lat="43.3619817" lon="11.4185133"><ele>237.5</ele><time>2026-04-30T09:10:32.334Z</time></trkpt><trkpt lat="43.3618883" lon="11.4186583"><ele>237.75</ele><time>2026-04-30T09:10:33.333Z</time></trkpt><trkpt lat="43.3618" lon="11.41879"><ele>238.0</ele><time>2026-04-30T09:10:34.334Z</time></trkpt><trkpt lat="43.36172" lon="11.4189283"><ele>238.0</ele><time>2026-04-30T09:10:35.333Z</time></trkpt><trkpt lat="43.3616283" lon="11.4190433"><ele>238.0</ele><time>2026-04-30T09:10:36.333Z</time></trkpt><trkpt lat="43.3615183" lon="11.41913"><ele>238.0</ele><time>2026-04-30T09:10:37.333Z</time></trkpt><trkpt lat="43.36139" lon="11.4192"><ele>238.0</ele><time>2026-04-30T09:10:38.333Z</time></trkpt><trkpt lat="43.3612433" lon="11.4192483"><ele>236.0</ele><time>2026-04-30T09:10:39.333Z</time></trkpt><trkpt lat="43.3610967" lon="11.4192967"><ele>234.0</ele><time>2026-04-30T09:10:40.333Z</time></trkpt><trkpt lat="43.3609467" lon="11.4193417"><ele>232.0</ele><time>2026-04-30T09:10:41.332Z</time></trkpt><trkpt lat="43.360795" lon="11.41939"><ele>232.0</ele><time>2026-04-30T09:10:42.333Z</time></trkpt><trkpt lat="43.3606433" lon="11.41944"><ele>232.0</ele><time>2026-04-30T09:10:43.333Z</time></trkpt><trkpt lat="43.3604883" lon="11.419495"><ele>232.0</ele><time>2026-04-30T09:10:44.332Z</time></trkpt><trkpt lat="43.3603267" lon="11.4195567"><ele>232.0</ele><time>2026-04-30T09:10:45.332Z</time></trkpt><trkpt lat="43.3601717" lon="11.419615"><ele>232.0</ele><time>2026-04-30T09:10:46.333Z</time></trkpt><trkpt lat="43.3600083" lon="11.4196717"><ele>232.0</ele><time>2026-04-30T09:10:47.332Z</time></trkpt><trkpt lat="43.359845" lon="11.4197283"><ele>230.66666666666666</ele><time>2026-04-30T09:10:48.332Z</time></trkpt><trkpt lat="43.3596917" lon="11.419785"><ele>229.33333333333331</ele><time>2026-04-30T09:10:49.332Z</time></trkpt><trkpt lat="43.3595417" lon="11.419845"><ele>228.0</ele><time>2026-04-30T09:10:50.332Z</time></trkpt><trkpt lat="43.3594083" lon="11.4198983"><ele>228.0</ele><time>2026-04-30T09:10:51.333Z</time></trkpt><trkpt lat="43.3592883" lon="11.4199333"><ele>228.0</ele><time>2026-04-30T09:10:52.333Z</time></trkpt><trkpt lat="43.3591683" lon="11.4199383"><ele>228.0</ele><time>2026-04-30T09:10:53.333Z</time></trkpt><trkpt lat="43.3590583" lon="11.4199083"><ele>228.0</ele><time>2026-04-30T09:10:54.333Z</time></trkpt><trkpt lat="43.3589567" lon="11.4198483"><ele>227.25</ele><time>2026-04-30T09:10:55.333Z</time></trkpt><trkpt lat="43.3588617" lon="11.41973"><ele>226.5</ele><time>2026-04-30T09:10:56.333Z</time></trkpt><trkpt lat="43.3587633" lon="11.4195983"><ele>225.75</ele><time>2026-04-30T09:10:57.333Z</time></trkpt><trkpt lat="43.3586633" lon="11.419425"><ele>225.0</ele><time>2026-04-30T09:10:58.333Z</time></trkpt><trkpt lat="43.358565" lon="11.4192483"><ele>224.0</ele><time>2026-04-30T09:10:59.333Z</time></trkpt><trkpt lat="43.3584583" lon="11.419065"><ele>223.0</ele><time>2026-04-30T09:11:00.332Z</time></trkpt><trkpt lat="43.3583517" lon="11.41889"><ele>222.0</ele><time>2026-04-30T09:11:01.332Z</time></trkpt><trkpt lat="43.3582333" lon="11.418725"><ele>221.66666666666669</ele><time>2026-04-30T09:11:02.333Z</time></trkpt><trkpt lat="43.3581117" lon="11.418565"><ele>221.33333333333334</ele><time>2026-04-30T09:11:03.333Z</time></trkpt><trkpt lat="43.3580017" lon="11.4183917"><ele>221.0</ele><time>2026-04-30T09:11:04.333Z</time></trkpt><trkpt lat="43.35789" lon="11.4182217"><ele>220.66666666666669</ele><time>2026-04-30T09:11:05.333Z</time></trkpt><trkpt lat="43.357775" lon="11.41805"><ele>220.33333333333331</ele><time>2026-04-30T09:11:06.333Z</time></trkpt><trkpt lat="43.35767" lon="11.417885"><ele>220.0</ele><time>2026-04-30T09:11:07.333Z</time></trkpt><trkpt lat="43.35757" lon="11.417735"><ele>220.0</ele><time>2026-04-30T09:11:08.333Z</time></trkpt><trkpt lat="43.35748" lon="11.41759"><ele>220.0</ele><time>2026-04-30T09:11:09.332Z</time></trkpt><trkpt lat="43.3573983" lon="11.4174567"><ele>220.0</ele><time>2026-04-30T09:11:10.333Z</time></trkpt><trkpt lat="43.3573167" lon="11.4173383"><ele>220.0</ele><time>2026-04-30T09:11:11.333Z</time></trkpt><trkpt lat="43.357245" lon="11.4172283"><ele>219.8</ele><time>2026-04-30T09:11:12.333Z</time></trkpt><trkpt lat="43.357175" lon="11.4171217"><ele>219.6</ele><time>2026-04-30T09:11:13.332Z</time></trkpt><trkpt lat="43.3571167" lon="11.4170217"><ele>219.39999999999998</ele><time>2026-04-30T09:11:14.333Z</time></trkpt><trkpt lat="43.357055" lon="11.4169283"><ele>219.2</ele><time>2026-04-30T09:11:15.332Z</time></trkpt><trkpt lat="43.3570033" lon="11.4168483"><ele>219.0</ele><time>2026-04-30T09:11:16.333Z</time></trkpt><trkpt lat="43.3569217" lon="11.4167517"><ele>219.0</ele><time>2026-04-30T09:11:18.333Z</time></trkpt><trkpt lat="43.3568533" lon="11.4167783"><ele>218.99999999999997</ele><time>2026-04-30T09:11:20.333Z</time></trkpt><trkpt lat="43.3568167" lon="11.41691"><ele>218.99999999999997</ele><time>2026-04-30T09:11:22.333Z</time></trkpt><trkpt lat="43.356805" lon="11.4170167"><ele>219.0</ele><time>2026-04-30T09:11:23.333Z</time></trkpt><trkpt lat="43.3567717" lon="11.4171567"><ele>219.0</ele><time>2026-04-30T09:11:24.333Z</time></trkpt><trkpt lat="43.35673" lon="11.4173017"><ele>219.0</ele><time>2026-04-30T09:11:25.333Z</time></trkpt><trkpt lat="43.3566767" lon="11.417445"><ele>219.0</ele><time>2026-04-30T09:11:26.333Z</time></trkpt><trkpt lat="43.3566083" lon="11.4176"><ele>219.0</ele><time>2026-04-30T09:11:27.332Z</time></trkpt><trkpt lat="43.3565367" lon="11.4177633"><ele>219.0</ele><time>2026-04-30T09:11:28.333Z</time></trkpt><trkpt lat="43.35646" lon="11.417935"><ele>218.66666666666669</ele><time>2026-04-30T09:11:29.333Z</time></trkpt><trkpt lat="43.3563733" lon="11.4181083"><ele>218.33333333333334</ele><time>2026-04-30T09:11:30.333Z</time></trkpt><trkpt lat="43.3562933" lon="11.4182883"><ele>218.0</ele><time>2026-04-30T09:11:31.333Z</time></trkpt><trkpt lat="43.35621" lon="11.4184717"><ele>218.0</ele><time>2026-04-30T09:11:32.333Z</time></trkpt><trkpt lat="43.356125" lon="11.4186483"><ele>218.0</ele><time>2026-04-30T09:11:33.332Z</time></trkpt><trkpt lat="43.3560417" lon="11.41883"><ele>218.0</ele><time>2026-04-30T09:11:34.333Z</time></trkpt><trkpt lat="43.3559567" lon="11.4190033"><ele>217.33333333333334</ele><time>2026-04-30T09:11:35.333Z</time></trkpt><trkpt lat="43.3558733" lon="11.4191767"><ele>216.66666666666669</ele><time>2026-04-30T09:11:36.333Z</time></trkpt><trkpt lat="43.355795" lon="11.4193583"><ele>216.0</ele><time>2026-04-30T09:11:37.333Z</time></trkpt><trkpt lat="43.3557233" lon="11.4195533"><ele>216.33333333333331</ele><time>2026-04-30T09:11:38.333Z</time></trkpt><trkpt lat="43.3556617" lon="11.4197567"><ele>216.66666666666666</ele><time>2026-04-30T09:11:39.333Z</time></trkpt><trkpt lat="43.3556083" lon="11.4199683"><ele>217.0</ele><time>2026-04-30T09:11:40.332Z</time></trkpt><trkpt lat="43.3555583" lon="11.4201833"><ele>216.66666666666666</ele><time>2026-04-30T09:11:41.332Z</time></trkpt><trkpt lat="43.3555117" lon="11.4204067"><ele>216.33333333333331</ele><time>2026-04-30T09:11:42.333Z</time></trkpt><trkpt lat="43.355465" lon="11.4206367"><ele>216.0</ele><time>2026-04-30T09:11:43.333Z</time></trkpt><trkpt lat="43.3554167" lon="11.42087"><ele>215.66666666666669</ele><time>2026-04-30T09:11:44.332Z</time></trkpt><trkpt lat="43.3553767" lon="11.4211033"><ele>215.33333333333334</ele><time>2026-04-30T09:11:45.333Z</time></trkpt><trkpt lat="43.355345" lon="11.4213333"><ele>215.0</ele><time>2026-04-30T09:11:46.333Z</time></trkpt><trkpt lat="43.3553217" lon="11.4215767"><ele>216.0</ele><time>2026-04-30T09:11:47.332Z</time></trkpt><trkpt lat="43.355305" lon="11.4218183"><ele>217.0</ele><time>2026-04-30T09:11:48.333Z</time></trkpt><trkpt lat="43.35529" lon="11.4220633"><ele>218.0</ele><time>2026-04-30T09:11:49.333Z</time></trkpt><trkpt lat="43.35527" lon="11.4222967"><ele>220.33333333333334</ele><time>2026-04-30T09:11:50.333Z</time></trkpt><trkpt lat="43.35524" lon="11.422515"><ele>222.66666666666669</ele><time>2026-04-30T09:11:51.333Z</time></trkpt><trkpt lat="43.3552033" lon="11.42272"><ele>225.0</ele><time>2026-04-30T09:11:52.333Z</time></trkpt><trkpt lat="43.35516" lon="11.4229117"><ele>226.75</ele><time>2026-04-30T09:11:53.332Z</time></trkpt><trkpt lat="43.35512" lon="11.4230967"><ele>228.5</ele><time>2026-04-30T09:11:54.333Z</time></trkpt><trkpt lat="43.3550745" lon="11.4232716"><ele>230.25</ele><time>2026-04-30T09:11:55.332Z</time></trkpt><trkpt lat="43.355026" lon="11.4234378"><ele>232.0</ele><time>2026-04-30T09:11:56.333Z</time></trkpt><trkpt lat="43.354978" lon="11.42359"><ele>232.0</ele><time>2026-04-30T09:11:57.332Z</time></trkpt><trkpt lat="43.3549418" lon="11.4237309"><ele>232.0</ele><time>2026-04-30T09:11:58.333Z</time></trkpt><trkpt lat="43.3549194" lon="11.4238826"><ele>232.0</ele><time>2026-04-30T09:11:59.332Z</time></trkpt><trkpt lat="43.3549197" lon="11.4240427"><ele>232.0</ele><time>2026-04-30T09:12:00.333Z</time></trkpt><trkpt lat="43.354948" lon="11.424208"><ele>233.33333333333331</ele><time>2026-04-30T09:12:01.333Z</time></trkpt><trkpt lat="43.3550183" lon="11.4243706"><ele>234.66666666666669</ele><time>2026-04-30T09:12:02.333Z</time></trkpt><trkpt lat="43.3551335" lon="11.4245251"><ele>236.0</ele><time>2026-04-30T09:12:03.332Z</time></trkpt><trkpt lat="43.3552655" lon="11.4246783"><ele>237.33333333333334</ele><time>2026-04-30T09:12:04.333Z</time></trkpt><trkpt lat="43.3554007" lon="11.4248444"><ele>238.66666666666669</ele><time>2026-04-30T09:12:05.333Z</time></trkpt><trkpt lat="43.3555422" lon="11.4250315"><ele>240.0</ele><time>2026-04-30T09:12:06.332Z</time></trkpt><trkpt lat="43.3557001" lon="11.4252384"><ele>240.0</ele><time>2026-04-30T09:12:07.333Z</time></trkpt><trkpt lat="43.3558632" lon="11.4254415"><ele>240.0</ele><time>2026-04-30T09:12:08.333Z</time></trkpt><trkpt lat="43.356025" lon="11.4256367"><ele>240.0</ele><time>2026-04-30T09:12:09.333Z</time></trkpt><trkpt lat="43.3561753" lon="11.4258271"><ele>242.0</ele><time>2026-04-30T09:12:10.333Z</time></trkpt><trkpt lat="43.356311" lon="11.4260102"><ele>244.0</ele><time>2026-04-30T09:12:11.332Z</time></trkpt><trkpt lat="43.3564437" lon="11.4261814"><ele>246.0</ele><time>2026-04-30T09:12:12.333Z</time></trkpt><trkpt lat="43.3565832" lon="11.4263379"><ele>249.33333333333331</ele><time>2026-04-30T09:12:13.333Z</time></trkpt><trkpt lat="43.3567333" lon="11.4264776"><ele>252.66666666666666</ele><time>2026-04-30T09:12:14.333Z</time></trkpt><trkpt lat="43.3568916" lon="11.4265946"><ele>256.0</ele><time>2026-04-30T09:12:15.332Z</time></trkpt><trkpt lat="43.3570559" lon="11.4267083"><ele>255.0</ele><time>2026-04-30T09:12:16.333Z</time></trkpt><trkpt lat="43.3572224" lon="11.4268206"><ele>254.0</ele><time>2026-04-30T09:12:17.333Z</time></trkpt><trkpt lat="43.357385" lon="11.4269357"><ele>253.0</ele><time>2026-04-30T09:12:18.332Z</time></trkpt><trkpt lat="43.357552" lon="11.4270461"><ele>256.3333333333333</ele><time>2026-04-30T09:12:19.333Z</time></trkpt><trkpt lat="43.3577307" lon="11.4271516"><ele>259.6666666666667</ele><time>2026-04-30T09:12:20.333Z</time></trkpt><trkpt lat="43.3578938" lon="11.4272777"><ele>263.0</ele><time>2026-04-30T09:12:21.333Z</time></trkpt><trkpt lat="43.3580333" lon="11.4274417"><ele>264.33333333333337</ele><time>2026-04-30T09:12:22.332Z</time></trkpt><trkpt lat="43.3581633" lon="11.42763"><ele>265.6666666666667</ele><time>2026-04-30T09:12:23.332Z</time></trkpt><trkpt lat="43.3582767" lon="11.427845"><ele>267.0</ele><time>2026-04-30T09:12:24.332Z</time></trkpt><trkpt lat="43.3583917" lon="11.4280617"><ele>267.0</ele><time>2026-04-30T09:12:25.333Z</time></trkpt><trkpt lat="43.3585117" lon="11.4282633"><ele>267.0</ele><time>2026-04-30T09:12:26.332Z</time></trkpt><trkpt lat="43.3586283" lon="11.4284567"><ele>267.0</ele><time>2026-04-30T09:12:27.332Z</time></trkpt><trkpt lat="43.3587467" lon="11.4286383"><ele>264.3333333333333</ele><time>2026-04-30T09:12:28.333Z</time></trkpt><trkpt lat="43.35887" lon="11.4288067"><ele>261.66666666666663</ele><time>2026-04-30T09:12:29.333Z</time></trkpt><trkpt lat="43.35895" lon="11.4290067"><ele>259.0</ele><time>2026-04-30T09:12:30.333Z</time></trkpt><trkpt lat="43.3590233" lon="11.42922"><ele>259.0</ele><time>2026-04-30T09:12:31.332Z</time></trkpt><trkpt lat="43.3590983" lon="11.4294383"><ele>259.0</ele><time>2026-04-30T09:12:32.332Z</time></trkpt><trkpt lat="43.3591583" lon="11.42967"><ele>259.0</ele><time>2026-04-30T09:12:33.333Z</time></trkpt><trkpt lat="43.3591867" lon="11.429905"><ele>260.66666666666663</ele><time>2026-04-30T09:12:34.332Z</time></trkpt><trkpt lat="43.3591833" lon="11.430145"><ele>262.3333333333333</ele><time>2026-04-30T09:12:35.333Z</time></trkpt><trkpt lat="43.35917" lon="11.430385"><ele>264.0</ele><time>2026-04-30T09:12:36.333Z</time></trkpt><trkpt lat="43.3591483" lon="11.4306217"><ele>264.0</ele><time>2026-04-30T09:12:37.333Z</time></trkpt><trkpt lat="43.3591133" lon="11.43086"><ele>264.0</ele><time>2026-04-30T09:12:38.333Z</time></trkpt><trkpt lat="43.3590767" lon="11.4311133"><ele>264.0</ele><time>2026-04-30T09:12:39.333Z</time></trkpt><trkpt lat="43.3590317" lon="11.43136"><ele>263.0</ele><time>2026-04-30T09:12:40.332Z</time></trkpt><trkpt lat="43.358985" lon="11.4316083"><ele>262.0</ele><time>2026-04-30T09:12:41.332Z</time></trkpt><trkpt lat="43.3589317" lon="11.4318383"><ele>261.0</ele><time>2026-04-30T09:12:42.333Z</time></trkpt><trkpt lat="43.3588817" lon="11.43207"><ele>261.6666666666667</ele><time>2026-04-30T09:12:43.333Z</time></trkpt><trkpt lat="43.358845" lon="11.432305"><ele>262.33333333333337</ele><time>2026-04-30T09:12:44.333Z</time></trkpt><trkpt lat="43.3588183" lon="11.432555"><ele>263.0</ele><time>2026-04-30T09:12:45.333Z</time></trkpt><trkpt lat="43.35882" lon="11.4328083"><ele>263.33333333333337</ele><time>2026-04-30T09:12:46.332Z</time></trkpt><trkpt lat="43.3588267" lon="11.4330567"><ele>263.6666666666667</ele><time>2026-04-30T09:12:47.333Z</time></trkpt><trkpt lat="43.3588483" lon="11.43331"><ele>264.0</ele><time>2026-04-30T09:12:48.333Z</time></trkpt><trkpt lat="43.3589217" lon="11.433535"><ele>263.6666666666667</ele><time>2026-04-30T09:12:49.332Z</time></trkpt><trkpt lat="43.3589533" lon="11.433765"><ele>263.33333333333337</ele><time>2026-04-30T09:12:50.332Z</time></trkpt><trkpt lat="43.3589833" lon="11.4339967"><ele>263.0</ele><time>2026-04-30T09:12:51.332Z</time></trkpt><trkpt lat="43.358975" lon="11.434235"><ele>263.0</ele><time>2026-04-30T09:12:52.333Z</time></trkpt><trkpt lat="43.3589483" lon="11.434465"><ele>263.0</ele><time>2026-04-30T09:12:53.333Z</time></trkpt><trkpt lat="43.3588983" lon="11.4346867"><ele>263.0</ele><time>2026-04-30T09:12:54.333Z</time></trkpt><trkpt lat="43.35883" lon="11.434905"><ele>265.0</ele><time>2026-04-30T09:12:55.332Z</time></trkpt><trkpt lat="43.3587383" lon="11.43512"><ele>267.0</ele><time>2026-04-30T09:12:56.333Z</time></trkpt><trkpt lat="43.3586567" lon="11.4353333"><ele>269.0</ele><time>2026-04-30T09:12:57.333Z</time></trkpt><trkpt lat="43.3585767" lon="11.4355567"><ele>269.0</ele><time>2026-04-30T09:12:58.333Z</time></trkpt><trkpt lat="43.358505" lon="11.4357933"><ele>269.0</ele><time>2026-04-30T09:12:59.333Z</time></trkpt><trkpt lat="43.3584517" lon="11.4360317"><ele>269.0</ele><time>2026-04-30T09:13:00.333Z</time></trkpt><trkpt lat="43.358395" lon="11.4362533"><ele>269.0</ele><time>2026-04-30T09:13:01.333Z</time></trkpt><trkpt lat="43.35835" lon="11.4364683"><ele>269.0</ele><time>2026-04-30T09:13:02.333Z</time></trkpt><trkpt lat="43.35833" lon="11.4366817"><ele>269.0</ele><time>2026-04-30T09:13:03.333Z</time></trkpt><trkpt lat="43.3583267" lon="11.4369033"><ele>269.0</ele><time>2026-04-30T09:13:04.333Z</time></trkpt><trkpt lat="43.358355" lon="11.437145"><ele>269.0</ele><time>2026-04-30T09:13:05.332Z</time></trkpt><trkpt lat="43.3583783" lon="11.4373867"><ele>269.0</ele><time>2026-04-30T09:13:06.332Z</time></trkpt><trkpt lat="43.3583817" lon="11.437625"><ele>269.0</ele><time>2026-04-30T09:13:07.333Z</time></trkpt><trkpt lat="43.3583483" lon="11.4378517"><ele>269.0</ele><time>2026-04-30T09:13:08.333Z</time></trkpt><trkpt lat="43.3582833" lon="11.438045"><ele>269.0</ele><time>2026-04-30T09:13:09.333Z</time></trkpt><trkpt lat="43.3581833" lon="11.438215"><ele>268.33333333333337</ele><time>2026-04-30T09:13:10.333Z</time></trkpt><trkpt lat="43.358055" lon="11.4383367"><ele>267.6666666666667</ele><time>2026-04-30T09:13:11.333Z</time></trkpt><trkpt lat="43.3579067" lon="11.438385"><ele>267.0</ele><time>2026-04-30T09:13:12.332Z</time></trkpt><trkpt lat="43.3577433" lon="11.4384333"><ele>266.3333333333333</ele><time>2026-04-30T09:13:13.333Z</time></trkpt><trkpt lat="43.3575667" lon="11.4384717"><ele>265.66666666666663</ele><time>2026-04-30T09:13:14.332Z</time></trkpt><trkpt lat="43.3573917" lon="11.4385233"><ele>265.0</ele><time>2026-04-30T09:13:15.332Z</time></trkpt><trkpt lat="43.3572283" lon="11.4385583"><ele>265.0</ele><time>2026-04-30T09:13:16.333Z</time></trkpt><trkpt lat="43.3570667" lon="11.43857"><ele>265.0</ele><time>2026-04-30T09:13:17.333Z</time></trkpt><trkpt lat="43.3568983" lon="11.438555"><ele>265.0</ele><time>2026-04-30T09:13:18.332Z</time></trkpt><trkpt lat="43.3567183" lon="11.4385283"><ele>265.0</ele><time>2026-04-30T09:13:19.333Z</time></trkpt><trkpt lat="43.3565433" lon="11.4384867"><ele>265.0</ele><time>2026-04-30T09:13:20.333Z</time></trkpt><trkpt lat="43.356385" lon="11.43845"><ele>265.0</ele><time>2026-04-30T09:13:21.333Z</time></trkpt><trkpt lat="43.35623" lon="11.438415"><ele>265.25</ele><time>2026-04-30T09:13:22.333Z</time></trkpt><trkpt lat="43.3560933" lon="11.43838"><ele>265.5</ele><time>2026-04-30T09:13:23.333Z</time></trkpt><trkpt lat="43.3559683" lon="11.4383533"><ele>265.75</ele><time>2026-04-30T09:13:24.333Z</time></trkpt><trkpt lat="43.3558517" lon="11.43833"><ele>266.0</ele><time>2026-04-30T09:13:25.332Z</time></trkpt><trkpt lat="43.3557333" lon="11.4383033"><ele>266.0</ele><time>2026-04-30T09:13:26.333Z</time></trkpt><trkpt lat="43.3556067" lon="11.4382767"><ele>266.0</ele><time>2026-04-30T09:13:27.332Z</time></trkpt><trkpt lat="43.3554733" lon="11.4382517"><ele>266.0</ele><time>2026-04-30T09:13:28.333Z</time></trkpt><trkpt lat="43.355335" lon="11.43822"><ele>266.0</ele><time>2026-04-30T09:13:29.333Z</time></trkpt><trkpt lat="43.355195" lon="11.4381883"><ele>266.0</ele><time>2026-04-30T09:13:30.333Z</time></trkpt><trkpt lat="43.35505" lon="11.43816"><ele>266.0</ele><time>2026-04-30T09:13:31.333Z</time></trkpt><trkpt lat="43.354905" lon="11.4381333"><ele>266.0</ele><time>2026-04-30T09:13:32.333Z</time></trkpt><trkpt lat="43.3547617" lon="11.4381117"><ele>266.0</ele><time>2026-04-30T09:13:33.333Z</time></trkpt><trkpt lat="43.35462" lon="11.4381033"><ele>266.0</ele><time>2026-04-30T09:13:34.333Z</time></trkpt><trkpt lat="43.354475" lon="11.43811"><ele>266.0</ele><time>2026-04-30T09:13:35.333Z</time></trkpt><trkpt lat="43.3543283" lon="11.4381283"><ele>266.0</ele><time>2026-04-30T09:13:36.333Z</time></trkpt><trkpt lat="43.3541833" lon="11.4381667"><ele>266.0</ele><time>2026-04-30T09:13:37.333Z</time></trkpt><trkpt lat="43.35403" lon="11.438205"><ele>266.0</ele><time>2026-04-30T09:13:38.332Z</time></trkpt><trkpt lat="43.3538783" lon="11.438245"><ele>266.0</ele><time>2026-04-30T09:13:39.333Z</time></trkpt><trkpt lat="43.353725" lon="11.4382733"><ele>266.0</ele><time>2026-04-30T09:13:40.333Z</time></trkpt><trkpt lat="43.3535767" lon="11.438305"><ele>265.75</ele><time>2026-04-30T09:13:41.332Z</time></trkpt><trkpt lat="43.35343" lon="11.4383333"><ele>265.5</ele><time>2026-04-30T09:13:42.332Z</time></trkpt><trkpt lat="43.353295" lon="11.4383817"><ele>265.25</ele><time>2026-04-30T09:13:43.332Z</time></trkpt><trkpt lat="43.3531633" lon="11.4384467"><ele>265.0</ele><time>2026-04-30T09:13:44.333Z</time></trkpt><trkpt lat="43.3530317" lon="11.4385317"><ele>263.25</ele><time>2026-04-30T09:13:45.333Z</time></trkpt><trkpt lat="43.3529133" lon="11.43862"><ele>261.5</ele><time>2026-04-30T09:13:46.333Z</time></trkpt><trkpt lat="43.3527933" lon="11.4387233"><ele>259.75</ele><time>2026-04-30T09:13:47.333Z</time></trkpt><trkpt lat="43.3526883" lon="11.4388333"><ele>258.0</ele><time>2026-04-30T09:13:48.333Z</time></trkpt><trkpt lat="43.3525933" lon="11.438945"><ele>258.0</ele><time>2026-04-30T09:13:49.333Z</time></trkpt><trkpt lat="43.3525033" lon="11.4390567"><ele>258.0</ele><time>2026-04-30T09:13:50.333Z</time></trkpt><trkpt lat="43.3524117" lon="11.4391583"><ele>258.0</ele><time>2026-04-30T09:13:51.332Z</time></trkpt><trkpt lat="43.35231" lon="11.4392533"><ele>258.0</ele><time>2026-04-30T09:13:52.333Z</time></trkpt><trkpt lat="43.3521967" lon="11.43932"><ele>256.25</ele><time>2026-04-30T09:13:53.332Z</time></trkpt><trkpt lat="43.35207" lon="11.4393717"><ele>254.5</ele><time>2026-04-30T09:13:54.333Z</time></trkpt><trkpt lat="43.3519267" lon="11.4394217"><ele>252.75</ele><time>2026-04-30T09:13:55.333Z</time></trkpt><trkpt lat="43.3517883" lon="11.4394833"><ele>251.0</ele><time>2026-04-30T09:13:56.333Z</time></trkpt><trkpt lat="43.3516467" lon="11.439575"><ele>251.66666666666669</ele><time>2026-04-30T09:13:57.333Z</time></trkpt><trkpt lat="43.351495" lon="11.439685"><ele>252.33333333333331</ele><time>2026-04-30T09:13:58.333Z</time></trkpt><trkpt lat="43.3513517" lon="11.4397917"><ele>253.0</ele><time>2026-04-30T09:13:59.333Z</time></trkpt><trkpt lat="43.351225" lon="11.4398933"><ele>251.33333333333331</ele><time>2026-04-30T09:14:00.333Z</time></trkpt><trkpt lat="43.351085" lon="11.4399833"><ele>249.66666666666669</ele><time>2026-04-30T09:14:01.333Z</time></trkpt><trkpt lat="43.3509433" lon="11.44005"><ele>248.0</ele><time>2026-04-30T09:14:02.332Z</time></trkpt><trkpt lat="43.350795" lon="11.4400833"><ele>248.0</ele><time>2026-04-30T09:14:03.333Z</time></trkpt><trkpt lat="43.35064" lon="11.4400817"><ele>248.0</ele><time>2026-04-30T09:14:04.333Z</time></trkpt><trkpt lat="43.350485" lon="11.4400467"><ele>248.0</ele><time>2026-04-30T09:14:05.333Z</time></trkpt><trkpt lat="43.3503417" lon="11.439985"><ele>247.75</ele><time>2026-04-30T09:14:06.333Z</time></trkpt><trkpt lat="43.3502133" lon="11.4399"><ele>247.5</ele><time>2026-04-30T09:14:07.333Z</time></trkpt><trkpt lat="43.3501" lon="11.439795"><ele>247.25</ele><time>2026-04-30T09:14:08.332Z</time></trkpt><trkpt lat="43.349995" lon="11.439675"><ele>247.0</ele><time>2026-04-30T09:14:09.333Z</time></trkpt><trkpt lat="43.3499017" lon="11.439545"><ele>247.75</ele><time>2026-04-30T09:14:10.333Z</time></trkpt><trkpt lat="43.3498217" lon="11.4394133"><ele>248.5</ele><time>2026-04-30T09:14:11.333Z</time></trkpt><trkpt lat="43.3497567" lon="11.4392867"><ele>249.25</ele><time>2026-04-30T09:14:12.332Z</time></trkpt><trkpt lat="43.3496983" lon="11.4391617"><ele>250.0</ele><time>2026-04-30T09:14:13.333Z</time></trkpt><trkpt lat="43.3496383" lon="11.4390383"><ele>250.25</ele><time>2026-04-30T09:14:14.333Z</time></trkpt><trkpt lat="43.3495717" lon="11.4389167"><ele>250.5</ele><time>2026-04-30T09:14:15.332Z</time></trkpt><trkpt lat="43.349495" lon="11.4388083"><ele>250.75</ele><time>2026-04-30T09:14:16.333Z</time></trkpt><trkpt lat="43.3494" lon="11.4387233"><ele>251.0</ele><time>2026-04-30T09:14:17.332Z</time></trkpt><trkpt lat="43.34928" lon="11.4386617"><ele>252.33333333333334</ele><time>2026-04-30T09:14:18.332Z</time></trkpt><trkpt lat="43.3491433" lon="11.4386217"><ele>253.66666666666669</ele><time>2026-04-30T09:14:19.333Z</time></trkpt><trkpt lat="43.3489933" lon="11.4385917"><ele>255.0</ele><time>2026-04-30T09:14:20.332Z</time></trkpt><trkpt lat="43.34882" lon="11.4385633"><ele>255.0</ele><time>2026-04-30T09:14:21.333Z</time></trkpt><trkpt lat="43.348635" lon="11.43854"><ele>255.0</ele><time>2026-04-30T09:14:22.333Z</time></trkpt><trkpt lat="43.348455" lon="11.438505"><ele>255.0</ele><time>2026-04-30T09:14:23.333Z</time></trkpt><trkpt lat="43.3482867" lon="11.43847"><ele>255.0</ele><time>2026-04-30T09:14:24.333Z</time></trkpt><trkpt lat="43.34813" lon="11.4384333"><ele>255.0</ele><time>2026-04-30T09:14:25.332Z</time></trkpt><trkpt lat="43.3479917" lon="11.43839"><ele>255.0</ele><time>2026-04-30T09:14:26.332Z</time></trkpt><trkpt lat="43.3478717" lon="11.438325"><ele>255.0</ele><time>2026-04-30T09:14:27.332Z</time></trkpt><trkpt lat="43.3477567" lon="11.4382467"><ele>256.0</ele><time>2026-04-30T09:14:28.333Z</time></trkpt><trkpt lat="43.34765" lon="11.4381333"><ele>257.0</ele><time>2026-04-30T09:14:29.333Z</time></trkpt><trkpt lat="43.3475583" lon="11.4379933"><ele>258.0</ele><time>2026-04-30T09:14:30.333Z</time></trkpt><trkpt lat="43.3474667" lon="11.4378217"><ele>259.0</ele><time>2026-04-30T09:14:31.332Z</time></trkpt><trkpt lat="43.34737" lon="11.43764"><ele>259.0</ele><time>2026-04-30T09:14:32.332Z</time></trkpt><trkpt lat="43.3472667" lon="11.43746"><ele>259.0</ele><time>2026-04-30T09:14:33.332Z</time></trkpt><trkpt lat="43.3471617" lon="11.4372733"><ele>259.0</ele><time>2026-04-30T09:14:34.333Z</time></trkpt><trkpt lat="43.3470583" lon="11.4370833"><ele>260.66666666666663</ele><time>2026-04-30T09:14:35.333Z</time></trkpt><trkpt lat="43.3469683" lon="11.4368933"><ele>262.3333333333333</ele><time>2026-04-30T09:14:36.333Z</time></trkpt><trkpt lat="43.3468817" lon="11.436715"><ele>264.0</ele><time>2026-04-30T09:14:37.333Z</time></trkpt><trkpt lat="43.3467833" lon="11.4365533"><ele>264.0</ele><time>2026-04-30T09:14:38.332Z</time></trkpt><trkpt lat="43.3466633" lon="11.4364017"><ele>264.0</ele><time>2026-04-30T09:14:39.333Z</time></trkpt><trkpt lat="43.3465333" lon="11.4362633"><ele>264.0</ele><time>2026-04-30T09:14:40.333Z</time></trkpt><trkpt lat="43.3463867" lon="11.4361317"><ele>264.6666666666667</ele><time>2026-04-30T09:14:41.332Z</time></trkpt><trkpt lat="43.346245" lon="11.4360033"><ele>265.33333333333337</ele><time>2026-04-30T09:14:42.333Z</time></trkpt><trkpt lat="43.3461117" lon="11.435885"><ele>266.0</ele><time>2026-04-30T09:14:43.332Z</time></trkpt><trkpt lat="43.345995" lon="11.4357833"><ele>266.0</ele><time>2026-04-30T09:14:44.333Z</time></trkpt><trkpt lat="43.34588" lon="11.4357033"><ele>266.0</ele><time>2026-04-30T09:14:45.332Z</time></trkpt><trkpt lat="43.3457533" lon="11.43565"><ele>266.0</ele><time>2026-04-30T09:14:46.333Z</time></trkpt><trkpt lat="43.3456133" lon="11.43562"><ele>266.0</ele><time>2026-04-30T09:14:47.333Z</time></trkpt><trkpt lat="43.3454583" lon="11.4356117"><ele>264.33333333333337</ele><time>2026-04-30T09:14:48.333Z</time></trkpt><trkpt lat="43.3452967" lon="11.4356083"><ele>262.6666666666667</ele><time>2026-04-30T09:14:49.333Z</time></trkpt><trkpt lat="43.3451283" lon="11.4356083"><ele>261.0</ele><time>2026-04-30T09:14:50.333Z</time></trkpt><trkpt lat="43.3449683" lon="11.435605"><ele>261.0</ele><time>2026-04-30T09:14:51.333Z</time></trkpt><trkpt lat="43.3448067" lon="11.4355833"><ele>261.0</ele><time>2026-04-30T09:14:52.333Z</time></trkpt><trkpt lat="43.3446567" lon="11.4355267"><ele>261.0</ele><time>2026-04-30T09:14:53.333Z</time></trkpt><trkpt lat="43.3445033" lon="11.4354333"><ele>260.0</ele><time>2026-04-30T09:14:54.333Z</time></trkpt><trkpt lat="43.344365" lon="11.4353017"><ele>259.0</ele><time>2026-04-30T09:14:55.333Z</time></trkpt><trkpt lat="43.34423" lon="11.4351617"><ele>258.0</ele><time>2026-04-30T09:14:56.333Z</time></trkpt><trkpt lat="43.3440983" lon="11.4350067"><ele>258.0</ele><time>2026-04-30T09:14:57.332Z</time></trkpt><trkpt lat="43.3439717" lon="11.4348367"><ele>258.0</ele><time>2026-04-30T09:14:58.332Z</time></trkpt><trkpt lat="43.3438517" lon="11.43466"><ele>258.0</ele><time>2026-04-30T09:14:59.332Z</time></trkpt><trkpt lat="43.3437317" lon="11.43448"><ele>256.0</ele><time>2026-04-30T09:15:00.333Z</time></trkpt><trkpt lat="43.3436183" lon="11.4343033"><ele>254.0</ele><time>2026-04-30T09:15:01.333Z</time></trkpt><trkpt lat="43.343505" lon="11.4341483"><ele>252.0</ele><time>2026-04-30T09:15:02.332Z</time></trkpt><trkpt lat="43.34339" lon="11.4340183"><ele>252.0</ele><time>2026-04-30T09:15:03.332Z</time></trkpt><trkpt lat="43.3432667" lon="11.433925"><ele>252.0</ele><time>2026-04-30T09:15:04.333Z</time></trkpt><trkpt lat="43.3431317" lon="11.433865"><ele>252.0</ele><time>2026-04-30T09:15:05.333Z</time></trkpt><trkpt lat="43.3429883" lon="11.4338583"><ele>252.0</ele><time>2026-04-30T09:15:06.333Z</time></trkpt><trkpt lat="43.3428133" lon="11.43388"><ele>250.33333333333331</ele><time>2026-04-30T09:15:07.333Z</time></trkpt><trkpt lat="43.3426333" lon="11.4339283"><ele>248.66666666666666</ele><time>2026-04-30T09:15:08.333Z</time></trkpt><trkpt lat="43.3424533" lon="11.4339917"><ele>247.0</ele><time>2026-04-30T09:15:09.333Z</time></trkpt><trkpt lat="43.34228" lon="11.4340583"><ele>246.66666666666666</ele><time>2026-04-30T09:15:10.333Z</time></trkpt><trkpt lat="43.342105" lon="11.4341233"><ele>246.33333333333331</ele><time>2026-04-30T09:15:11.333Z</time></trkpt><trkpt lat="43.3419167" lon="11.4341867"><ele>246.0</ele><time>2026-04-30T09:15:12.333Z</time></trkpt><trkpt lat="43.3417367" lon="11.4342467"><ele>246.0</ele><time>2026-04-30T09:15:13.333Z</time></trkpt><trkpt lat="43.3415467" lon="11.4343167"><ele>246.0</ele><time>2026-04-30T09:15:14.333Z</time></trkpt><trkpt lat="43.3413583" lon="11.4343933"><ele>246.0</ele><time>2026-04-30T09:15:15.332Z</time></trkpt><trkpt lat="43.3411733" lon="11.4344583"><ele>245.66666666666669</ele><time>2026-04-30T09:15:16.333Z</time></trkpt><trkpt lat="43.341" lon="11.43451"><ele>245.33333333333334</ele><time>2026-04-30T09:15:17.333Z</time></trkpt><trkpt lat="43.340845" lon="11.43456"><ele>245.0</ele><time>2026-04-30T09:15:18.333Z</time></trkpt><trkpt lat="43.3406983" lon="11.4345983"><ele>245.0</ele><time>2026-04-30T09:15:19.333Z</time></trkpt><trkpt lat="43.34055" lon="11.4346033"><ele>245.0</ele><time>2026-04-30T09:15:20.333Z</time></trkpt><trkpt lat="43.340415" lon="11.434575"><ele>245.0</ele><time>2026-04-30T09:15:21.332Z</time></trkpt><trkpt lat="43.340295" lon="11.4344967"><ele>245.0</ele><time>2026-04-30T09:15:22.333Z</time></trkpt><trkpt lat="43.340185" lon="11.43438"><ele>246.33333333333334</ele><time>2026-04-30T09:15:23.333Z</time></trkpt><trkpt lat="43.34009" lon="11.4342233"><ele>247.66666666666669</ele><time>2026-04-30T09:15:24.333Z</time></trkpt><trkpt lat="43.3399967" lon="11.4340417"><ele>249.0</ele><time>2026-04-30T09:15:25.333Z</time></trkpt><trkpt lat="43.3399117" lon="11.4338483"><ele>249.0</ele><time>2026-04-30T09:15:26.333Z</time></trkpt><trkpt lat="43.339825" lon="11.433645"><ele>249.0</ele><time>2026-04-30T09:15:27.333Z</time></trkpt><trkpt lat="43.3397433" lon="11.4334367"><ele>249.0</ele><time>2026-04-30T09:15:28.333Z</time></trkpt><trkpt lat="43.3396567" lon="11.4332417"><ele>249.33333333333331</ele><time>2026-04-30T09:15:29.333Z</time></trkpt><trkpt lat="43.3395783" lon="11.433045"><ele>249.66666666666666</ele><time>2026-04-30T09:15:30.333Z</time></trkpt><trkpt lat="43.339495" lon="11.4328483"><ele>250.0</ele><time>2026-04-30T09:15:31.333Z</time></trkpt><trkpt lat="43.3394067" lon="11.4326667"><ele>250.0</ele><time>2026-04-30T09:15:32.333Z</time></trkpt><trkpt lat="43.3393067" lon="11.4324967"><ele>250.0</ele><time>2026-04-30T09:15:33.333Z</time></trkpt><trkpt lat="43.3391967" lon="11.4323433"><ele>250.0</ele><time>2026-04-30T09:15:34.333Z</time></trkpt><trkpt lat="43.3390767" lon="11.4321933"><ele>250.0</ele><time>2026-04-30T09:15:35.332Z</time></trkpt><trkpt lat="43.3389517" lon="11.432045"><ele>250.0</ele><time>2026-04-30T09:15:36.333Z</time></trkpt><trkpt lat="43.338825" lon="11.4319033"><ele>250.0</ele><time>2026-04-30T09:15:37.333Z</time></trkpt><trkpt lat="43.3387033" lon="11.43177"><ele>250.0</ele><time>2026-04-30T09:15:38.333Z</time></trkpt><trkpt lat="43.3385867" lon="11.431645"><ele>250.0</ele><time>2026-04-30T09:15:39.332Z</time></trkpt><trkpt lat="43.3384717" lon="11.4315383"><ele>250.0</ele><time>2026-04-30T09:15:40.333Z</time></trkpt><trkpt lat="43.3383533" lon="11.4314517"><ele>250.0</ele><time>2026-04-30T09:15:41.333Z</time></trkpt><trkpt lat="43.3382283" lon="11.4313983"><ele>250.0</ele><time>2026-04-30T09:15:42.333Z</time></trkpt><trkpt lat="43.3381" lon="11.4313733"><ele>250.0</ele><time>2026-04-30T09:15:43.333Z</time></trkpt><trkpt lat="43.3379717" lon="11.4313633"><ele>250.0</ele><time>2026-04-30T09:15:44.333Z</time></trkpt><trkpt lat="43.3378533" lon="11.4313583"><ele>250.0</ele><time>2026-04-30T09:15:45.333Z</time></trkpt><trkpt lat="43.33772" lon="11.4313617"><ele>249.5</ele><time>2026-04-30T09:15:46.333Z</time></trkpt><trkpt lat="43.3375783" lon="11.4313583"><ele>249.0</ele><time>2026-04-30T09:15:47.333Z</time></trkpt><trkpt lat="43.3374383" lon="11.4313567"><ele>248.5</ele><time>2026-04-30T09:15:48.333Z</time></trkpt><trkpt lat="43.3373017" lon="11.4313533"><ele>248.0</ele><time>2026-04-30T09:15:49.333Z</time></trkpt><trkpt lat="43.3371633" lon="11.43136"><ele>249.0</ele><time>2026-04-30T09:15:50.332Z</time></trkpt><trkpt lat="43.3370267" lon="11.43138"><ele>250.0</ele><time>2026-04-30T09:15:51.332Z</time></trkpt><trkpt lat="43.3368917" lon="11.4314167"><ele>251.0</ele><time>2026-04-30T09:15:52.333Z</time></trkpt><trkpt lat="43.3367633" lon="11.4314717"><ele>252.0</ele><time>2026-04-30T09:15:53.333Z</time></trkpt><trkpt lat="43.3366433" lon="11.431535"><ele>252.0</ele><time>2026-04-30T09:15:54.333Z</time></trkpt><trkpt lat="43.336525" lon="11.4315917"><ele>252.0</ele><time>2026-04-30T09:15:55.332Z</time></trkpt><trkpt lat="43.336415" lon="11.4316517"><ele>252.0</ele><time>2026-04-30T09:15:56.332Z</time></trkpt><trkpt lat="43.3363167" lon="11.4316983"><ele>252.0</ele><time>2026-04-30T09:15:57.333Z</time></trkpt><trkpt lat="43.336225" lon="11.4317467"><ele>252.0</ele><time>2026-04-30T09:15:58.333Z</time></trkpt><trkpt lat="43.3361417" lon="11.4317917"><ele>252.66666666666666</ele><time>2026-04-30T09:15:59.333Z</time></trkpt><trkpt lat="43.336065" lon="11.43183"><ele>253.33333333333331</ele><time>2026-04-30T09:16:00.332Z</time></trkpt><trkpt lat="43.33599" lon="11.4318617"><ele>254.0</ele><time>2026-04-30T09:16:01.332Z</time></trkpt><trkpt lat="43.3359283" lon="11.4318967"><ele>254.66666666666666</ele><time>2026-04-30T09:16:02.333Z</time></trkpt><trkpt lat="43.3358383" lon="11.4319417"><ele>255.33333333333331</ele><time>2026-04-30T09:16:04.332Z</time></trkpt><trkpt lat="43.3357717" lon="11.43197"><ele>256.0</ele><time>2026-04-30T09:16:07.333Z</time></trkpt><trkpt lat="43.3357183" lon="11.4320167"><ele>256.0</ele><time>2026-04-30T09:19:53.333Z</time></trkpt><trkpt lat="43.3356317" lon="11.4320833"><ele>256.0</ele><time>2026-04-30T09:19:55.333Z</time></trkpt><trkpt lat="43.33555" lon="11.4321283"><ele>256.0</ele><time>2026-04-30T09:19:56.333Z</time></trkpt><trkpt lat="43.3354617" lon="11.4321783"><ele>256.0</ele><time>2026-04-30T09:19:57.333Z</time></trkpt><trkpt lat="43.3353617" lon="11.4322333"><ele>256.0</ele><time>2026-04-30T09:19:58.332Z</time></trkpt><trkpt lat="43.335255" lon="11.4322983"><ele>255.0</ele><time>2026-04-30T09:19:59.333Z</time></trkpt><trkpt lat="43.33514" lon="11.4323633"><ele>254.0</ele><time>2026-04-30T09:20:00.333Z</time></trkpt><trkpt lat="43.3350183" lon="11.4324317"><ele>253.0</ele><time>2026-04-30T09:20:01.333Z</time></trkpt><trkpt lat="43.3348933" lon="11.4325017"><ele>252.0</ele><time>2026-04-30T09:20:02.333Z</time></trkpt><trkpt lat="43.3347683" lon="11.4325783"><ele>251.75</ele><time>2026-04-30T09:20:03.333Z</time></trkpt><trkpt lat="43.3346383" lon="11.4326533"><ele>251.5</ele><time>2026-04-30T09:20:04.333Z</time></trkpt><trkpt lat="43.3345167" lon="11.4327133"><ele>251.25</ele><time>2026-04-30T09:20:05.333Z</time></trkpt><trkpt lat="43.3343933" lon="11.4327783"><ele>251.0</ele><time>2026-04-30T09:20:06.332Z</time></trkpt><trkpt lat="43.3342717" lon="11.4328517"><ele>251.0</ele><time>2026-04-30T09:20:07.333Z</time></trkpt><trkpt lat="43.334145" lon="11.43292"><ele>251.0</ele><time>2026-04-30T09:20:08.333Z</time></trkpt><trkpt lat="43.33402" lon="11.432985"><ele>251.0</ele><time>2026-04-30T09:20:09.333Z</time></trkpt><trkpt lat="43.3338983" lon="11.43305"><ele>251.0</ele><time>2026-04-30T09:20:10.332Z</time></trkpt><trkpt lat="43.3337717" lon="11.4331283"><ele>250.75</ele><time>2026-04-30T09:20:11.333Z</time></trkpt><trkpt lat="43.3336417" lon="11.433185"><ele>250.5</ele><time>2026-04-30T09:20:12.333Z</time></trkpt><trkpt lat="43.3335133" lon="11.4332283"><ele>250.25</ele><time>2026-04-30T09:20:13.333Z</time></trkpt><trkpt lat="43.3333833" lon="11.433225"><ele>250.0</ele><time>2026-04-30T09:20:14.333Z</time></trkpt><trkpt lat="43.333255" lon="11.4331817"><ele>250.0</ele><time>2026-04-30T09:20:15.332Z</time></trkpt><trkpt lat="43.3331383" lon="11.43312"><ele>250.0</ele><time>2026-04-30T09:20:16.333Z</time></trkpt><trkpt lat="43.3330217" lon="11.4330517"><ele>250.0</ele><time>2026-04-30T09:20:17.332Z</time></trkpt><trkpt lat="43.3329183" lon="11.4329917"><ele>250.0</ele><time>2026-04-30T09:20:18.333Z</time></trkpt><trkpt lat="43.3328083" lon="11.432915"><ele>250.0</ele><time>2026-04-30T09:20:19.333Z</time></trkpt><trkpt lat="43.332685" lon="11.4328567"><ele>250.0</ele><time>2026-04-30T09:20:20.333Z</time></trkpt><trkpt lat="43.3325667" lon="11.4328167"><ele>250.0</ele><time>2026-04-30T09:20:21.333Z</time></trkpt><trkpt lat="43.3324333" lon="11.432795"><ele>250.0</ele><time>2026-04-30T09:20:22.333Z</time></trkpt><trkpt lat="43.3322783" lon="11.4327833"><ele>250.0</ele><time>2026-04-30T09:20:23.333Z</time></trkpt><trkpt lat="43.33213" lon="11.4327667"><ele>250.0</ele><time>2026-04-30T09:20:24.333Z</time></trkpt><trkpt lat="43.3319933" lon="11.4327483"><ele>250.0</ele><time>2026-04-30T09:20:25.333Z</time></trkpt><trkpt lat="43.3318617" lon="11.432735"><ele>250.0</ele><time>2026-04-30T09:20:26.333Z</time></trkpt><trkpt lat="43.33174" lon="11.432725"><ele>250.0</ele><time>2026-04-30T09:20:27.333Z</time></trkpt><trkpt lat="43.331625" lon="11.43272"><ele>250.0</ele><time>2026-04-30T09:20:28.333Z</time></trkpt><trkpt lat="43.3315117" lon="11.432715"><ele>250.0</ele><time>2026-04-30T09:20:29.333Z</time></trkpt><trkpt lat="43.3313933" lon="11.4327067"><ele>250.0</ele><time>2026-04-30T09:20:30.333Z</time></trkpt><trkpt lat="43.331275" lon="11.4326917"><ele>250.25</ele><time>2026-04-30T09:20:31.333Z</time></trkpt><trkpt lat="43.3311633" lon="11.432675"><ele>250.5</ele><time>2026-04-30T09:20:32.333Z</time></trkpt><trkpt lat="43.33105" lon="11.432665"><ele>250.75</ele><time>2026-04-30T09:20:33.333Z</time></trkpt><trkpt lat="43.3309333" lon="11.43266"><ele>251.0</ele><time>2026-04-30T09:20:34.333Z</time></trkpt><trkpt lat="43.3308133" lon="11.4326567"><ele>251.0</ele><time>2026-04-30T09:20:35.333Z</time></trkpt><trkpt lat="43.330695" lon="11.4326483"><ele>251.0</ele><time>2026-04-30T09:20:36.333Z</time></trkpt><trkpt lat="43.3305767" lon="11.4326383"><ele>251.0</ele><time>2026-04-30T09:20:37.333Z</time></trkpt><trkpt lat="43.3304633" lon="11.432635"><ele>251.0</ele><time>2026-04-30T09:20:38.333Z</time></trkpt><trkpt lat="43.3303533" lon="11.4326283"><ele>251.4</ele><time>2026-04-30T09:20:39.332Z</time></trkpt><trkpt lat="43.3302417" lon="11.43262"><ele>251.8</ele><time>2026-04-30T09:20:40.333Z</time></trkpt><trkpt lat="43.33013" lon="11.4326167"><ele>252.20000000000002</ele><time>2026-04-30T09:20:41.333Z</time></trkpt><trkpt lat="43.33004" lon="11.4326017"><ele>252.60000000000002</ele><time>2026-04-30T09:20:42.333Z</time></trkpt><trkpt lat="43.329955" lon="11.4325867"><ele>253.0</ele><time>2026-04-30T09:20:43.333Z</time></trkpt><trkpt lat="43.3298717" lon="11.4325767"><ele>252.99999999999997</ele><time>2026-04-30T09:20:44.333Z</time></trkpt><trkpt lat="43.32979" lon="11.4325633"><ele>253.0</ele><time>2026-04-30T09:20:45.332Z</time></trkpt><trkpt lat="43.3297133" lon="11.4325533"><ele>253.0</ele><time>2026-04-30T09:20:46.332Z</time></trkpt><trkpt lat="43.3296417" lon="11.4325467"><ele>253.0</ele><time>2026-04-30T09:20:47.333Z</time></trkpt><trkpt lat="43.3295767" lon="11.43255"><ele>252.99999999999997</ele><time>2026-04-30T09:20:48.333Z</time></trkpt><trkpt lat="43.329455" lon="11.43255"><ele>253.0</ele><time>2026-04-30T09:20:50.333Z</time></trkpt><trkpt lat="43.3293517" lon="11.4325083"><ele>253.4</ele><time>2026-04-30T09:20:52.333Z</time></trkpt><trkpt lat="43.3292717" lon="11.4324767"><ele>253.8</ele><time>2026-04-30T09:20:53.333Z</time></trkpt><trkpt lat="43.32918" lon="11.4324467"><ele>254.2</ele><time>2026-04-30T09:20:54.333Z</time></trkpt><trkpt lat="43.3290833" lon="11.4324167"><ele>254.6</ele><time>2026-04-30T09:20:55.333Z</time></trkpt><trkpt lat="43.328975" lon="11.43237"><ele>255.0</ele><time>2026-04-30T09:20:56.333Z</time></trkpt><trkpt lat="43.32887" lon="11.432325"><ele>255.0</ele><time>2026-04-30T09:20:57.333Z</time></trkpt><trkpt lat="43.3287733" lon="11.43228"><ele>255.0</ele><time>2026-04-30T09:20:58.333Z</time></trkpt><trkpt lat="43.3286733" lon="11.4322433"><ele>255.0</ele><time>2026-04-30T09:20:59.333Z</time></trkpt><trkpt lat="43.3285733" lon="11.4322067"><ele>255.0</ele><time>2026-04-30T09:21:00.333Z</time></trkpt><trkpt lat="43.32849" lon="11.4321667"><ele>255.0</ele><time>2026-04-30T09:21:01.333Z</time></trkpt><trkpt lat="43.3284133" lon="11.4321217"><ele>255.0</ele><time>2026-04-30T09:21:02.333Z</time></trkpt><trkpt lat="43.328335" lon="11.4320917"><ele>255.0</ele><time>2026-04-30T09:21:03.333Z</time></trkpt><trkpt lat="43.3282533" lon="11.4320483"><ele>255.0</ele><time>2026-04-30T09:21:04.332Z</time></trkpt><trkpt lat="43.3281683" lon="11.4320133"><ele>255.0</ele><time>2026-04-30T09:21:05.333Z</time></trkpt><trkpt lat="43.32806" lon="11.4319817"><ele>255.0</ele><time>2026-04-30T09:21:06.333Z</time></trkpt><trkpt lat="43.3279433" lon="11.431965"><ele>255.0</ele><time>2026-04-30T09:21:07.332Z</time></trkpt><trkpt lat="43.3278183" lon="11.4319217"><ele>255.0</ele><time>2026-04-30T09:21:08.333Z</time></trkpt><trkpt lat="43.32769" lon="11.4318667"><ele>255.0</ele><time>2026-04-30T09:21:09.333Z</time></trkpt><trkpt lat="43.3275567" lon="11.43181"><ele>255.0</ele><time>2026-04-30T09:21:10.333Z</time></trkpt><trkpt lat="43.3274117" lon="11.4317633"><ele>255.0</ele><time>2026-04-30T09:21:11.332Z</time></trkpt><trkpt lat="43.327265" lon="11.4317117"><ele>255.0</ele><time>2026-04-30T09:21:12.333Z</time></trkpt><trkpt lat="43.32712" lon="11.4316633"><ele>255.0</ele><time>2026-04-30T09:21:13.333Z</time></trkpt><trkpt lat="43.3269767" lon="11.43162"><ele>255.0</ele><time>2026-04-30T09:21:14.333Z</time></trkpt><trkpt lat="43.3268483" lon="11.431565"><ele>254.0</ele><time>2026-04-30T09:21:15.333Z</time></trkpt><trkpt lat="43.3267233" lon="11.4315367"><ele>253.0</ele><time>2026-04-30T09:21:16.332Z</time></trkpt><trkpt lat="43.3266183" lon="11.4315033"><ele>252.0</ele><time>2026-04-30T09:21:17.333Z</time></trkpt><trkpt lat="43.326525" lon="11.4314733"><ele>251.0</ele><time>2026-04-30T09:21:18.333Z</time></trkpt><trkpt lat="43.3264383" lon="11.4314483"><ele>250.0</ele><time>2026-04-30T09:21:19.333Z</time></trkpt><trkpt lat="43.3263567" lon="11.4314283"><ele>249.5</ele><time>2026-04-30T09:21:20.332Z</time></trkpt><trkpt lat="43.326265" lon="11.4313933"><ele>249.0</ele><time>2026-04-30T09:21:21.332Z</time></trkpt><trkpt lat="43.3261617" lon="11.4313483"><ele>248.5</ele><time>2026-04-30T09:21:22.332Z</time></trkpt><trkpt lat="43.326045" lon="11.431305"><ele>248.0</ele><time>2026-04-30T09:21:23.332Z</time></trkpt><trkpt lat="43.3259183" lon="11.43128"><ele>248.5</ele><time>2026-04-30T09:21:24.333Z</time></trkpt><trkpt lat="43.32578" lon="11.4312617"><ele>249.0</ele><time>2026-04-30T09:21:25.333Z</time></trkpt><trkpt lat="43.325635" lon="11.4312633"><ele>249.5</ele><time>2026-04-30T09:21:26.333Z</time></trkpt><trkpt lat="43.32548" lon="11.4312717"><ele>250.0</ele><time>2026-04-30T09:21:27.332Z</time></trkpt><trkpt lat="43.32532" lon="11.4312817"><ele>250.0</ele><time>2026-04-30T09:21:28.333Z</time></trkpt><trkpt lat="43.32516" lon="11.431295"><ele>250.0</ele><time>2026-04-30T09:21:29.332Z</time></trkpt><trkpt lat="43.3249933" lon="11.4313"><ele>250.0</ele><time>2026-04-30T09:21:30.333Z</time></trkpt><trkpt lat="43.3248317" lon="11.4313083"><ele>248.0</ele><time>2026-04-30T09:21:31.333Z</time></trkpt><trkpt lat="43.3246767" lon="11.431325"><ele>246.0</ele><time>2026-04-30T09:21:32.333Z</time></trkpt><trkpt lat="43.3245333" lon="11.4313317"><ele>244.0</ele><time>2026-04-30T09:21:33.333Z</time></trkpt><trkpt lat="43.324385" lon="11.431335"><ele>242.0</ele><time>2026-04-30T09:21:34.333Z</time></trkpt><trkpt lat="43.3242433" lon="11.43133"><ele>243.25</ele><time>2026-04-30T09:21:35.332Z</time></trkpt><trkpt lat="43.3241117" lon="11.43129"><ele>244.5</ele><time>2026-04-30T09:21:36.333Z</time></trkpt><trkpt lat="43.323975" lon="11.4312367"><ele>245.75</ele><time>2026-04-30T09:21:37.333Z</time></trkpt><trkpt lat="43.3238283" lon="11.4311817"><ele>247.0</ele><time>2026-04-30T09:21:38.333Z</time></trkpt><trkpt lat="43.3236783" lon="11.431145"><ele>243.0</ele><time>2026-04-30T09:21:39.333Z</time></trkpt><trkpt lat="43.323515" lon="11.431095"><ele>239.0</ele><time>2026-04-30T09:21:40.332Z</time></trkpt><trkpt lat="43.32336" lon="11.4310283"><ele>235.0</ele><time>2026-04-30T09:21:41.333Z</time></trkpt><trkpt lat="43.3232033" lon="11.43096"><ele>231.33333333333331</ele><time>2026-04-30T09:21:42.333Z</time></trkpt><trkpt lat="43.32305" lon="11.430885"><ele>227.66666666666669</ele><time>2026-04-30T09:21:43.333Z</time></trkpt><trkpt lat="43.3228883" lon="11.4308217"><ele>224.0</ele><time>2026-04-30T09:21:44.332Z</time></trkpt><trkpt lat="43.322725" lon="11.4307483"><ele>224.0</ele><time>2026-04-30T09:21:45.332Z</time></trkpt><trkpt lat="43.322555" lon="11.4306817"><ele>224.0</ele><time>2026-04-30T09:21:46.333Z</time></trkpt><trkpt lat="43.3223833" lon="11.4306133"><ele>224.0</ele><time>2026-04-30T09:21:47.331Z</time></trkpt><trkpt lat="43.3222083" lon="11.4305417"><ele>222.66666666666669</ele><time>2026-04-30T09:21:48.332Z</time></trkpt><trkpt lat="43.3220233" lon="11.4304767"><ele>221.33333333333331</ele><time>2026-04-30T09:21:49.332Z</time></trkpt><trkpt lat="43.3218383" lon="11.43041"><ele>220.0</ele><time>2026-04-30T09:21:50.331Z</time></trkpt><trkpt lat="43.32165" lon="11.4303417"><ele>220.0</ele><time>2026-04-30T09:21:51.332Z</time></trkpt><trkpt lat="43.32146" lon="11.43027"><ele>220.0</ele><time>2026-04-30T09:21:52.332Z</time></trkpt><trkpt lat="43.321265" lon="11.4302"><ele>220.0</ele><time>2026-04-30T09:21:53.332Z</time></trkpt><trkpt lat="43.3210683" lon="11.43012"><ele>219.66666666666666</ele><time>2026-04-30T09:21:54.332Z</time></trkpt><trkpt lat="43.3208617" lon="11.4300467"><ele>219.33333333333331</ele><time>2026-04-30T09:21:55.332Z</time></trkpt><trkpt lat="43.3206567" lon="11.4299783"><ele>219.0</ele><time>2026-04-30T09:21:56.332Z</time></trkpt><trkpt lat="43.3204483" lon="11.4299083"><ele>217.0</ele><time>2026-04-30T09:21:57.332Z</time></trkpt><trkpt lat="43.320225" lon="11.42984"><ele>215.0</ele><time>2026-04-30T09:21:58.332Z</time></trkpt><trkpt lat="43.320005" lon="11.4297583"><ele>215.0</ele><time>2026-04-30T09:21:59.332Z</time></trkpt><trkpt lat="43.3197783" lon="11.4296833"><ele>215.0</ele><time>2026-04-30T09:22:00.332Z</time></trkpt><trkpt lat="43.3195433" lon="11.4296083"><ele>216.0</ele><time>2026-04-30T09:22:01.331Z</time></trkpt><trkpt lat="43.3193133" lon="11.4295367"><ele>217.0</ele><time>2026-04-30T09:22:02.332Z</time></trkpt><trkpt lat="43.31909" lon="11.42946"><ele>218.0</ele><time>2026-04-30T09:22:03.331Z</time></trkpt><trkpt lat="43.31887" lon="11.4293817"><ele>219.0</ele><time>2026-04-30T09:22:04.331Z</time></trkpt><trkpt lat="43.3186533" lon="11.4293017"><ele>219.0</ele><time>2026-04-30T09:22:05.332Z</time></trkpt><trkpt lat="43.3184433" lon="11.4292183"><ele>219.0</ele><time>2026-04-30T09:22:06.332Z</time></trkpt><trkpt lat="43.3182383" lon="11.42914"><ele>219.0</ele><time>2026-04-30T09:22:07.331Z</time></trkpt><trkpt lat="43.318045" lon="11.4290667"><ele>219.0</ele><time>2026-04-30T09:22:08.332Z</time></trkpt><trkpt lat="43.3178467" lon="11.429005"><ele>219.0</ele><time>2026-04-30T09:22:09.332Z</time></trkpt><trkpt lat="43.317655" lon="11.4289467"><ele>219.0</ele><time>2026-04-30T09:22:10.332Z</time></trkpt><trkpt lat="43.3174533" lon="11.4288967"><ele>219.0</ele><time>2026-04-30T09:22:11.332Z</time></trkpt><trkpt lat="43.317245" lon="11.428835"><ele>219.0</ele><time>2026-04-30T09:22:12.332Z</time></trkpt><trkpt lat="43.31704" lon="11.42878"><ele>219.0</ele><time>2026-04-30T09:22:13.332Z</time></trkpt><trkpt lat="43.3168333" lon="11.4287217"><ele>219.33333333333331</ele><time>2026-04-30T09:22:14.331Z</time></trkpt><trkpt lat="43.316625" lon="11.4286617"><ele>219.66666666666666</ele><time>2026-04-30T09:22:15.332Z</time></trkpt><trkpt lat="43.3164167" lon="11.42861"><ele>220.0</ele><time>2026-04-30T09:22:16.331Z</time></trkpt><trkpt lat="43.3162133" lon="11.4285667"><ele>219.33333333333331</ele><time>2026-04-30T09:22:17.332Z</time></trkpt><trkpt lat="43.3160167" lon="11.4285283"><ele>218.66666666666669</ele><time>2026-04-30T09:22:18.332Z</time></trkpt><trkpt lat="43.315825" lon="11.428485"><ele>218.0</ele><time>2026-04-30T09:22:19.332Z</time></trkpt><trkpt lat="43.31564" lon="11.4284333"><ele>218.66666666666669</ele><time>2026-04-30T09:22:20.332Z</time></trkpt><trkpt lat="43.3154633" lon="11.4283917"><ele>219.33333333333331</ele><time>2026-04-30T09:22:21.332Z</time></trkpt><trkpt lat="43.3152883" lon="11.4283467"><ele>220.0</ele><time>2026-04-30T09:22:22.331Z</time></trkpt><trkpt lat="43.315115" lon="11.428295"><ele>220.0</ele><time>2026-04-30T09:22:23.332Z</time></trkpt><trkpt lat="43.3149483" lon="11.4282133"><ele>220.0</ele><time>2026-04-30T09:22:24.332Z</time></trkpt><trkpt lat="43.314795" lon="11.4281017"><ele>220.0</ele><time>2026-04-30T09:22:25.332Z</time></trkpt><trkpt lat="43.3146483" lon="11.4279717"><ele>220.33333333333331</ele><time>2026-04-30T09:22:26.332Z</time></trkpt><trkpt lat="43.3145017" lon="11.4278167"><ele>220.66666666666669</ele><time>2026-04-30T09:22:27.331Z</time></trkpt><trkpt lat="43.3143483" lon="11.4276367"><ele>221.0</ele><time>2026-04-30T09:22:28.332Z</time></trkpt><trkpt lat="43.3141967" lon="11.42745"><ele>221.0</ele><time>2026-04-30T09:22:29.331Z</time></trkpt><trkpt lat="43.31404" lon="11.4272683"><ele>221.0</ele><time>2026-04-30T09:22:30.332Z</time></trkpt><trkpt lat="43.3138733" lon="11.4270933"><ele>221.0</ele><time>2026-04-30T09:22:31.332Z</time></trkpt><trkpt lat="43.3137067" lon="11.4269167"><ele>220.33333333333334</ele><time>2026-04-30T09:22:32.332Z</time></trkpt><trkpt lat="43.3135433" lon="11.426735"><ele>219.66666666666669</ele><time>2026-04-30T09:22:33.331Z</time></trkpt><trkpt lat="43.3133783" lon="11.4265417"><ele>219.0</ele><time>2026-04-30T09:22:34.332Z</time></trkpt><trkpt lat="43.313215" lon="11.426365"><ele>219.0</ele><time>2026-04-30T09:22:35.332Z</time></trkpt><trkpt lat="43.3130517" lon="11.426185"><ele>219.0</ele><time>2026-04-30T09:22:36.332Z</time></trkpt><trkpt lat="43.312885" lon="11.4260067"><ele>219.0</ele><time>2026-04-30T09:22:37.332Z</time></trkpt><trkpt lat="43.3127183" lon="11.4258217"><ele>219.0</ele><time>2026-04-30T09:22:38.331Z</time></trkpt><trkpt lat="43.3125583" lon="11.4256283"><ele>219.0</ele><time>2026-04-30T09:22:39.332Z</time></trkpt><trkpt lat="43.3124067" lon="11.425455"><ele>219.0</ele><time>2026-04-30T09:22:40.332Z</time></trkpt><trkpt lat="43.312245" lon="11.4252783"><ele>218.33333333333331</ele><time>2026-04-30T09:22:41.332Z</time></trkpt><trkpt lat="43.3120917" lon="11.4251117"><ele>217.66666666666666</ele><time>2026-04-30T09:22:42.331Z</time></trkpt><trkpt lat="43.3119367" lon="11.4249333"><ele>217.0</ele><time>2026-04-30T09:22:43.332Z</time></trkpt><trkpt lat="43.3117833" lon="11.42476"><ele>217.33333333333331</ele><time>2026-04-30T09:22:44.332Z</time></trkpt><trkpt lat="43.3116367" lon="11.4246083"><ele>217.66666666666669</ele><time>2026-04-30T09:22:45.332Z</time></trkpt><trkpt lat="43.31149" lon="11.42444"><ele>218.0</ele><time>2026-04-30T09:22:46.332Z</time></trkpt><trkpt lat="43.3113433" lon="11.4242833"><ele>217.0</ele><time>2026-04-30T09:22:47.332Z</time></trkpt><trkpt lat="43.3111883" lon="11.4241383"><ele>216.0</ele><time>2026-04-30T09:22:48.332Z</time></trkpt><trkpt lat="43.3110483" lon="11.4239833"><ele>215.0</ele><time>2026-04-30T09:22:49.332Z</time></trkpt><trkpt lat="43.31091" lon="11.423835"><ele>214.33333333333334</ele><time>2026-04-30T09:22:50.332Z</time></trkpt><trkpt lat="43.310775" lon="11.4237033"><ele>213.66666666666669</ele><time>2026-04-30T09:22:51.331Z</time></trkpt><trkpt lat="43.3106467" lon="11.4235683"><ele>213.0</ele><time>2026-04-30T09:22:52.332Z</time></trkpt><trkpt lat="43.3105333" lon="11.4234383"><ele>212.75</ele><time>2026-04-30T09:22:53.332Z</time></trkpt><trkpt lat="43.31042" lon="11.4233167"><ele>212.5</ele><time>2026-04-30T09:22:54.331Z</time></trkpt><trkpt lat="43.3103133" lon="11.4231967"><ele>212.25</ele><time>2026-04-30T09:22:55.332Z</time></trkpt><trkpt lat="43.3102167" lon="11.423085"><ele>212.0</ele><time>2026-04-30T09:22:56.331Z</time></trkpt><trkpt lat="43.3101233" lon="11.4229917"><ele>211.8</ele><time>2026-04-30T09:22:57.331Z</time></trkpt><trkpt lat="43.3100367" lon="11.422915"><ele>211.6</ele><time>2026-04-30T09:22:58.331Z</time></trkpt><trkpt lat="43.3099467" lon="11.4228633"><ele>211.4</ele><time>2026-04-30T09:22:59.331Z</time></trkpt><trkpt lat="43.3098467" lon="11.4228667"><ele>211.20000000000002</ele><time>2026-04-30T09:23:00.332Z</time></trkpt><trkpt lat="43.3097517" lon="11.4228917"><ele>211.0</ele><time>2026-04-30T09:23:01.332Z</time></trkpt><trkpt lat="43.3096617" lon="11.422955"><ele>210.60000000000002</ele><time>2026-04-30T09:23:02.332Z</time></trkpt><trkpt lat="43.309585" lon="11.42303"><ele>210.2</ele><time>2026-04-30T09:23:03.331Z</time></trkpt><trkpt lat="43.309515" lon="11.423115"><ele>209.8</ele><time>2026-04-30T09:23:04.332Z</time></trkpt><trkpt lat="43.3094433" lon="11.4231983"><ele>209.39999999999998</ele><time>2026-04-30T09:23:05.332Z</time></trkpt><trkpt lat="43.3093633" lon="11.42327"><ele>209.0</ele><time>2026-04-30T09:23:06.332Z</time></trkpt><trkpt lat="43.3092783" lon="11.423345"><ele>209.0</ele><time>2026-04-30T09:23:07.332Z</time></trkpt><trkpt lat="43.30919" lon="11.42344"><ele>209.0</ele><time>2026-04-30T09:23:08.332Z</time></trkpt><trkpt lat="43.3090933" lon="11.423555"><ele>209.0</ele><time>2026-04-30T09:23:09.331Z</time></trkpt><trkpt lat="43.30898" lon="11.4236717"><ele>209.0</ele><time>2026-04-30T09:23:10.331Z</time></trkpt><trkpt lat="43.3088583" lon="11.423795"><ele>205.75</ele><time>2026-04-30T09:23:11.331Z</time></trkpt><trkpt lat="43.3087433" lon="11.4239017"><ele>202.5</ele><time>2026-04-30T09:23:12.332Z</time></trkpt><trkpt lat="43.3086417" lon="11.4239983"><ele>199.25</ele><time>2026-04-30T09:23:13.332Z</time></trkpt><trkpt lat="43.30855" lon="11.42409"><ele>196.0</ele><time>2026-04-30T09:23:14.331Z</time></trkpt><trkpt lat="43.3084767" lon="11.424165"><ele>196.0</ele><time>2026-04-30T09:23:15.331Z</time></trkpt><trkpt lat="43.3084117" lon="11.4242383"><ele>196.0</ele><time>2026-04-30T09:23:16.332Z</time></trkpt><trkpt lat="43.308335" lon="11.424315"><ele>196.0</ele><time>2026-04-30T09:23:17.332Z</time></trkpt><trkpt lat="43.3082517" lon="11.424415"><ele>196.0</ele><time>2026-04-30T09:23:18.332Z</time></trkpt><trkpt lat="43.3081533" lon="11.424545"><ele>196.0</ele><time>2026-04-30T09:23:19.331Z</time></trkpt><trkpt lat="43.3080433" lon="11.4246917"><ele>193.66666666666666</ele><time>2026-04-30T09:23:20.332Z</time></trkpt><trkpt lat="43.30791" lon="11.4248417"><ele>191.33333333333331</ele><time>2026-04-30T09:23:21.332Z</time></trkpt><trkpt lat="43.307775" lon="11.42501"><ele>189.0</ele><time>2026-04-30T09:23:22.332Z</time></trkpt><trkpt lat="43.3076483" lon="11.4251983"><ele>189.0</ele><time>2026-04-30T09:23:23.332Z</time></trkpt><trkpt lat="43.3075283" lon="11.42541"><ele>189.0</ele><time>2026-04-30T09:23:24.332Z</time></trkpt><trkpt lat="43.30742" lon="11.4256267"><ele>189.0</ele><time>2026-04-30T09:23:25.332Z</time></trkpt><trkpt lat="43.307315" lon="11.42585"><ele>189.0</ele><time>2026-04-30T09:23:26.332Z</time></trkpt><trkpt lat="43.3072117" lon="11.4260717"><ele>189.0</ele><time>2026-04-30T09:23:27.332Z</time></trkpt><trkpt lat="43.3071017" lon="11.4262983"><ele>189.0</ele><time>2026-04-30T09:23:28.332Z</time></trkpt><trkpt lat="43.3069783" lon="11.4265083"><ele>189.0</ele><time>2026-04-30T09:23:29.332Z</time></trkpt><trkpt lat="43.3068617" lon="11.42671"><ele>189.0</ele><time>2026-04-30T09:23:30.332Z</time></trkpt><trkpt lat="43.30675" lon="11.42688"><ele>189.0</ele><time>2026-04-30T09:23:31.331Z</time></trkpt><trkpt lat="43.3066383" lon="11.42702"><ele>189.0</ele><time>2026-04-30T09:23:32.331Z</time></trkpt><trkpt lat="43.3065467" lon="11.427125"><ele>189.0</ele><time>2026-04-30T09:23:33.332Z</time></trkpt><trkpt lat="43.3064733" lon="11.427195"><ele>189.0</ele><time>2026-04-30T09:23:34.331Z</time></trkpt><trkpt lat="43.3064033" lon="11.4272483"><ele>189.0</ele><time>2026-04-30T09:23:35.331Z</time></trkpt><trkpt lat="43.3063383" lon="11.4273083"><ele>189.0</ele><time>2026-04-30T09:23:36.331Z</time></trkpt><trkpt lat="43.3062717" lon="11.42739"><ele>190.0</ele><time>2026-04-30T09:23:37.332Z</time></trkpt><trkpt lat="43.3062283" lon="11.42749"><ele>191.0</ele><time>2026-04-30T09:23:38.332Z</time></trkpt><trkpt lat="43.3061833" lon="11.427605"><ele>192.0</ele><time>2026-04-30T09:23:39.332Z</time></trkpt><trkpt lat="43.3061333" lon="11.427705"><ele>193.0</ele><time>2026-04-30T09:23:40.331Z</time></trkpt><trkpt lat="43.3060567" lon="11.4277883"><ele>194.0</ele><time>2026-04-30T09:23:41.332Z</time></trkpt><trkpt lat="43.3059517" lon="11.4278533"><ele>194.0</ele><time>2026-04-30T09:23:42.332Z</time></trkpt><trkpt lat="43.3058333" lon="11.4278917"><ele>194.0</ele><time>2026-04-30T09:23:43.332Z</time></trkpt><trkpt lat="43.3057" lon="11.4279083"><ele>194.0</ele><time>2026-04-30T09:23:44.332Z</time></trkpt><trkpt lat="43.3055567" lon="11.427925"><ele>194.0</ele><time>2026-04-30T09:23:45.332Z</time></trkpt><trkpt lat="43.30542" lon="11.4279517"><ele>195.25</ele><time>2026-04-30T09:23:46.332Z</time></trkpt><trkpt lat="43.305285" lon="11.42798"><ele>196.5</ele><time>2026-04-30T09:23:47.332Z</time></trkpt><trkpt lat="43.3051617" lon="11.4279933"><ele>197.75</ele><time>2026-04-30T09:23:48.332Z</time></trkpt><trkpt lat="43.3050433" lon="11.4280083"><ele>199.0</ele><time>2026-04-30T09:23:49.332Z</time></trkpt><trkpt lat="43.3049217" lon="11.428025"><ele>199.0</ele><time>2026-04-30T09:23:50.332Z</time></trkpt><trkpt lat="43.3048033" lon="11.4280383"><ele>199.0</ele><time>2026-04-30T09:23:51.331Z</time></trkpt><trkpt lat="43.3046833" lon="11.4280533"><ele>199.0</ele><time>2026-04-30T09:23:52.331Z</time></trkpt><trkpt lat="43.30456" lon="11.42803"><ele>199.0</ele><time>2026-04-30T09:23:53.332Z</time></trkpt><trkpt lat="43.3044367" lon="11.4279983"><ele>199.39999999999998</ele><time>2026-04-30T09:23:54.332Z</time></trkpt><trkpt lat="43.30432" lon="11.42794"><ele>199.8</ele><time>2026-04-30T09:23:55.332Z</time></trkpt><trkpt lat="43.3042133" lon="11.427875"><ele>200.2</ele><time>2026-04-30T09:23:56.332Z</time></trkpt><trkpt lat="43.30412" lon="11.42783"><ele>200.60000000000002</ele><time>2026-04-30T09:23:57.332Z</time></trkpt><trkpt lat="43.3040283" lon="11.4277733"><ele>201.0</ele><time>2026-04-30T09:23:58.332Z</time></trkpt><trkpt lat="43.3039533" lon="11.42773"><ele>200.4</ele><time>2026-04-30T09:23:59.332Z</time></trkpt><trkpt lat="43.3038933" lon="11.4276933"><ele>199.8</ele><time>2026-04-30T09:24:00.332Z</time></trkpt><trkpt lat="43.3038167" lon="11.4276117"><ele>199.20000000000002</ele><time>2026-04-30T09:24:02.331Z</time></trkpt><trkpt lat="43.3037367" lon="11.42748"><ele>198.60000000000002</ele><time>2026-04-30T09:24:04.332Z</time></trkpt><trkpt lat="43.3036883" lon="11.4273683"><ele>198.0</ele><time>2026-04-30T09:24:05.331Z</time></trkpt><trkpt lat="43.3036383" lon="11.4272283"><ele>198.5</ele><time>2026-04-30T09:24:06.332Z</time></trkpt><trkpt lat="43.303595" lon="11.4270617"><ele>199.0</ele><time>2026-04-30T09:24:07.331Z</time></trkpt><trkpt lat="43.3035517" lon="11.4268767"><ele>199.5</ele><time>2026-04-30T09:24:08.332Z</time></trkpt><trkpt lat="43.3035067" lon="11.4266983"><ele>200.0</ele><time>2026-04-30T09:24:09.332Z</time></trkpt><trkpt lat="43.30346" lon="11.4265233"><ele>200.0</ele><time>2026-04-30T09:24:10.332Z</time></trkpt><trkpt lat="43.3034167" lon="11.426375"><ele>200.0</ele><time>2026-04-30T09:24:11.331Z</time></trkpt><trkpt lat="43.30337" lon="11.4262183"><ele>200.0</ele><time>2026-04-30T09:24:12.331Z</time></trkpt><trkpt lat="43.3033233" lon="11.426065"><ele>200.0</ele><time>2026-04-30T09:24:13.331Z</time></trkpt><trkpt lat="43.303275" lon="11.4258917"><ele>201.0</ele><time>2026-04-30T09:24:14.332Z</time></trkpt><trkpt lat="43.30323" lon="11.42571"><ele>202.0</ele><time>2026-04-30T09:24:15.332Z</time></trkpt><trkpt lat="43.3031817" lon="11.42551"><ele>203.0</ele><time>2026-04-30T09:24:16.332Z</time></trkpt><trkpt lat="43.3031333" lon="11.4253133"><ele>204.0</ele><time>2026-04-30T09:24:17.332Z</time></trkpt><trkpt lat="43.30309" lon="11.4251383"><ele>204.0</ele><time>2026-04-30T09:24:18.331Z</time></trkpt><trkpt lat="43.30303" lon="11.4249867"><ele>204.0</ele><time>2026-04-30T09:24:19.332Z</time></trkpt><trkpt lat="43.3029433" lon="11.4248667"><ele>204.0</ele><time>2026-04-30T09:24:20.332Z</time></trkpt><trkpt lat="43.3028333" lon="11.4247717"><ele>204.0</ele><time>2026-04-30T09:24:21.332Z</time></trkpt><trkpt lat="43.3027017" lon="11.424705"><ele>204.0</ele><time>2026-04-30T09:24:22.332Z</time></trkpt><trkpt lat="43.302565" lon="11.4246767"><ele>204.0</ele><time>2026-04-30T09:24:23.332Z</time></trkpt><trkpt lat="43.3024167" lon="11.424695"><ele>204.0</ele><time>2026-04-30T09:24:24.332Z</time></trkpt><trkpt lat="43.3022967" lon="11.424765"><ele>204.0</ele><time>2026-04-30T09:24:25.332Z</time></trkpt><trkpt lat="43.3021667" lon="11.424825"><ele>205.75</ele><time>2026-04-30T09:24:26.332Z</time></trkpt><trkpt lat="43.302025" lon="11.4248433"><ele>207.5</ele><time>2026-04-30T09:24:27.331Z</time></trkpt><trkpt lat="43.3018867" lon="11.4248533"><ele>209.25</ele><time>2026-04-30T09:24:28.332Z</time></trkpt><trkpt lat="43.3017717" lon="11.42481"><ele>211.0</ele><time>2026-04-30T09:24:29.331Z</time></trkpt><trkpt lat="43.3016783" lon="11.4247267"><ele>212.0</ele><time>2026-04-30T09:24:30.331Z</time></trkpt><trkpt lat="43.30161" lon="11.424605"><ele>213.0</ele><time>2026-04-30T09:24:31.332Z</time></trkpt><trkpt lat="43.3015633" lon="11.424455"><ele>214.0</ele><time>2026-04-30T09:24:32.332Z</time></trkpt><trkpt lat="43.3015233" lon="11.42429"><ele>215.0</ele><time>2026-04-30T09:24:33.332Z</time></trkpt><trkpt lat="43.301485" lon="11.42413"><ele>215.0</ele><time>2026-04-30T09:24:34.332Z</time></trkpt><trkpt lat="43.30143" lon="11.42396"><ele>215.0</ele><time>2026-04-30T09:24:35.331Z</time></trkpt><trkpt lat="43.3013583" lon="11.4237983"><ele>215.0</ele><time>2026-04-30T09:24:36.332Z</time></trkpt><trkpt lat="43.3012683" lon="11.423645"><ele>215.0</ele><time>2026-04-30T09:24:37.332Z</time></trkpt><trkpt lat="43.3011683" lon="11.4235033"><ele>215.25</ele><time>2026-04-30T09:24:38.332Z</time></trkpt><trkpt lat="43.3010617" lon="11.4233633"><ele>215.5</ele><time>2026-04-30T09:24:39.331Z</time></trkpt><trkpt lat="43.3009533" lon="11.4232283"><ele>215.75</ele><time>2026-04-30T09:24:40.332Z</time></trkpt><trkpt lat="43.30084" lon="11.42309"><ele>216.0</ele><time>2026-04-30T09:24:41.332Z</time></trkpt><trkpt lat="43.3007267" lon="11.42295"><ele>216.0</ele><time>2026-04-30T09:24:42.332Z</time></trkpt><trkpt lat="43.30062" lon="11.4228017"><ele>216.0</ele><time>2026-04-30T09:24:43.332Z</time></trkpt><trkpt lat="43.3005133" lon="11.4226633"><ele>216.0</ele><time>2026-04-30T09:24:44.332Z</time></trkpt><trkpt lat="43.3003983" lon="11.42252"><ele>215.0</ele><time>2026-04-30T09:24:45.331Z</time></trkpt><trkpt lat="43.3002867" lon="11.4223683"><ele>214.0</ele><time>2026-04-30T09:24:46.332Z</time></trkpt><trkpt lat="43.3001783" lon="11.4222217"><ele>213.0</ele><time>2026-04-30T09:24:47.332Z</time></trkpt><trkpt lat="43.3000683" lon="11.422075"><ele>213.0</ele><time>2026-04-30T09:24:48.331Z</time></trkpt><trkpt lat="43.2999517" lon="11.4219333"><ele>213.0</ele><time>2026-04-30T09:24:49.331Z</time></trkpt><trkpt lat="43.29983" lon="11.4217967"><ele>213.0</ele><time>2026-04-30T09:24:50.331Z</time></trkpt><trkpt lat="43.299705" lon="11.421655"><ele>213.33333333333331</ele><time>2026-04-30T09:24:51.332Z</time></trkpt><trkpt lat="43.2995783" lon="11.4215117"><ele>213.66666666666666</ele><time>2026-04-30T09:24:52.332Z</time></trkpt><trkpt lat="43.2994467" lon="11.42137"><ele>214.0</ele><time>2026-04-30T09:24:53.331Z</time></trkpt><trkpt lat="43.29932" lon="11.42124"><ele>213.5</ele><time>2026-04-30T09:24:54.332Z</time></trkpt><trkpt lat="43.2992" lon="11.4211017"><ele>213.0</ele><time>2026-04-30T09:24:55.332Z</time></trkpt><trkpt lat="43.29909" lon="11.4209667"><ele>212.5</ele><time>2026-04-30T09:24:56.331Z</time></trkpt><trkpt lat="43.299" lon="11.420825"><ele>212.0</ele><time>2026-04-30T09:24:57.332Z</time></trkpt><trkpt lat="43.298915" lon="11.42067"><ele>211.66666666666669</ele><time>2026-04-30T09:24:58.331Z</time></trkpt><trkpt lat="43.2988617" lon="11.4204917"><ele>211.33333333333331</ele><time>2026-04-30T09:24:59.331Z</time></trkpt><trkpt lat="43.2988183" lon="11.4202917"><ele>211.0</ele><time>2026-04-30T09:25:00.332Z</time></trkpt><trkpt lat="43.2987917" lon="11.4200783"><ele>211.0</ele><time>2026-04-30T09:25:01.332Z</time></trkpt><trkpt lat="43.2987817" lon="11.4198583"><ele>211.0</ele><time>2026-04-30T09:25:02.332Z</time></trkpt><trkpt lat="43.298785" lon="11.4196217"><ele>211.0</ele><time>2026-04-30T09:25:03.331Z</time></trkpt><trkpt lat="43.2987983" lon="11.4193783"><ele>210.66666666666666</ele><time>2026-04-30T09:25:04.332Z</time></trkpt><trkpt lat="43.2988083" lon="11.41913"><ele>210.33333333333331</ele><time>2026-04-30T09:25:05.332Z</time></trkpt><trkpt lat="43.298825" lon="11.4188767"><ele>210.0</ele><time>2026-04-30T09:25:06.332Z</time></trkpt><trkpt lat="43.2988417" lon="11.418625"><ele>209.0</ele><time>2026-04-30T09:25:07.332Z</time></trkpt><trkpt lat="43.29886" lon="11.4183817"><ele>208.0</ele><time>2026-04-30T09:25:08.332Z</time></trkpt><trkpt lat="43.298875" lon="11.4181433"><ele>207.0</ele><time>2026-04-30T09:25:09.332Z</time></trkpt><trkpt lat="43.298885" lon="11.4179067"><ele>205.66666666666669</ele><time>2026-04-30T09:25:10.332Z</time></trkpt><trkpt lat="43.2988817" lon="11.417665"><ele>204.33333333333334</ele><time>2026-04-30T09:25:11.332Z</time></trkpt><trkpt lat="43.2988583" lon="11.4174283"><ele>203.0</ele><time>2026-04-30T09:25:12.332Z</time></trkpt><trkpt lat="43.2988233" lon="11.417185"><ele>202.33333333333334</ele><time>2026-04-30T09:25:13.332Z</time></trkpt><trkpt lat="43.2987733" lon="11.4169483"><ele>201.66666666666669</ele><time>2026-04-30T09:25:14.331Z</time></trkpt><trkpt lat="43.2987083" lon="11.41671"><ele>201.0</ele><time>2026-04-30T09:25:15.332Z</time></trkpt><trkpt lat="43.2986517" lon="11.4164817"><ele>200.66666666666669</ele><time>2026-04-30T09:25:16.332Z</time></trkpt><trkpt lat="43.298595" lon="11.416255"><ele>200.33333333333334</ele><time>2026-04-30T09:25:17.332Z</time></trkpt><trkpt lat="43.2985367" lon="11.416035"><ele>200.0</ele><time>2026-04-30T09:25:18.332Z</time></trkpt><trkpt lat="43.2984867" lon="11.4158167"><ele>200.0</ele><time>2026-04-30T09:25:19.332Z</time></trkpt><trkpt lat="43.298425" lon="11.41559"><ele>200.0</ele><time>2026-04-30T09:25:20.332Z</time></trkpt><trkpt lat="43.2983667" lon="11.4153583"><ele>200.0</ele><time>2026-04-30T09:25:21.331Z</time></trkpt><trkpt lat="43.2983183" lon="11.415145"><ele>200.0</ele><time>2026-04-30T09:25:22.332Z</time></trkpt><trkpt lat="43.2982567" lon="11.4149067"><ele>200.0</ele><time>2026-04-30T09:25:23.332Z</time></trkpt><trkpt lat="43.2981933" lon="11.4146783"><ele>200.0</ele><time>2026-04-30T09:25:24.331Z</time></trkpt><trkpt lat="43.2981383" lon="11.4144583"><ele>200.33333333333334</ele><time>2026-04-30T09:25:25.332Z</time></trkpt><trkpt lat="43.2980733" lon="11.4142317"><ele>200.66666666666669</ele><time>2026-04-30T09:25:26.332Z</time></trkpt><trkpt lat="43.2980133" lon="11.4140083"><ele>201.0</ele><time>2026-04-30T09:25:27.332Z</time></trkpt><trkpt lat="43.2979517" lon="11.4137867"><ele>199.33333333333331</ele><time>2026-04-30T09:25:28.331Z</time></trkpt><trkpt lat="43.2978983" lon="11.4135683"><ele>197.66666666666666</ele><time>2026-04-30T09:25:29.332Z</time></trkpt><trkpt lat="43.29784" lon="11.4133533"><ele>196.0</ele><time>2026-04-30T09:25:30.332Z</time></trkpt><trkpt lat="43.29779" lon="11.4131467"><ele>194.0</ele><time>2026-04-30T09:25:31.332Z</time></trkpt><trkpt lat="43.2977367" lon="11.4129483"><ele>192.0</ele><time>2026-04-30T09:25:32.332Z</time></trkpt><trkpt lat="43.29767" lon="11.4127633"><ele>190.0</ele><time>2026-04-30T09:25:33.332Z</time></trkpt><trkpt lat="43.2975783" lon="11.412585"><ele>190.0</ele><time>2026-04-30T09:25:34.332Z</time></trkpt><trkpt lat="43.29749" lon="11.41241"><ele>190.0</ele><time>2026-04-30T09:25:35.331Z</time></trkpt><trkpt lat="43.2973967" lon="11.41224"><ele>190.0</ele><time>2026-04-30T09:25:36.332Z</time></trkpt><trkpt lat="43.2973" lon="11.4120667"><ele>189.75</ele><time>2026-04-30T09:25:37.332Z</time></trkpt><trkpt lat="43.297205" lon="11.4119033"><ele>189.5</ele><time>2026-04-30T09:25:38.331Z</time></trkpt><trkpt lat="43.2971167" lon="11.4117467"><ele>189.25</ele><time>2026-04-30T09:25:39.332Z</time></trkpt><trkpt lat="43.2970383" lon="11.4115983"><ele>189.0</ele><time>2026-04-30T09:25:40.332Z</time></trkpt><trkpt lat="43.2969583" lon="11.4114483"><ele>188.75</ele><time>2026-04-30T09:25:41.332Z</time></trkpt><trkpt lat="43.2968733" lon="11.411295"><ele>188.5</ele><time>2026-04-30T09:25:42.331Z</time></trkpt><trkpt lat="43.2967867" lon="11.4111417"><ele>188.25</ele><time>2026-04-30T09:25:43.332Z</time></trkpt><trkpt lat="43.2966917" lon="11.4109967"><ele>188.0</ele><time>2026-04-30T09:25:44.332Z</time></trkpt><trkpt lat="43.2965983" lon="11.410845"><ele>188.0</ele><time>2026-04-30T09:25:45.332Z</time></trkpt><trkpt lat="43.2965133" lon="11.4106883"><ele>188.0</ele><time>2026-04-30T09:25:46.332Z</time></trkpt><trkpt lat="43.2964367" lon="11.4105583"><ele>188.0</ele><time>2026-04-30T09:25:47.332Z</time></trkpt><trkpt lat="43.296365" lon="11.41043"><ele>188.0</ele><time>2026-04-30T09:25:48.332Z</time></trkpt><trkpt lat="43.2962783" lon="11.4102867"><ele>188.0</ele><time>2026-04-30T09:25:49.331Z</time></trkpt><trkpt lat="43.2962033" lon="11.4101483"><ele>188.0</ele><time>2026-04-30T09:25:50.332Z</time></trkpt><trkpt lat="43.2961333" lon="11.4100233"><ele>188.0</ele><time>2026-04-30T09:25:51.331Z</time></trkpt><trkpt lat="43.2960717" lon="11.409905"><ele>188.0</ele><time>2026-04-30T09:25:52.332Z</time></trkpt><trkpt lat="43.2960183" lon="11.409805"><ele>188.0</ele><time>2026-04-30T09:25:53.332Z</time></trkpt><trkpt lat="43.2959767" lon="11.4097283"><ele>187.66666666666666</ele><time>2026-04-30T09:25:54.331Z</time></trkpt><trkpt lat="43.2959183" lon="11.4096267"><ele>187.33333333333331</ele><time>2026-04-30T09:25:56.332Z</time></trkpt><trkpt lat="43.2958683" lon="11.4095283"><ele>187.0</ele><time>2026-04-30T09:25:58.331Z</time></trkpt><trkpt lat="43.2958117" lon="11.4094333"><ele>186.66666666666666</ele><time>2026-04-30T09:26:00.332Z</time></trkpt><trkpt lat="43.2957717" lon="11.4093617"><ele>186.33333333333334</ele><time>2026-04-30T09:26:02.332Z</time></trkpt><trkpt lat="43.29572" lon="11.4092517"><ele>186.0</ele><time>2026-04-30T09:26:05.332Z</time></trkpt><trkpt lat="43.2956783" lon="11.4091633"><ele>186.0</ele><time>2026-04-30T09:26:07.331Z</time></trkpt><trkpt lat="43.2955933" lon="11.40904"><ele>186.0</ele><time>2026-04-30T09:26:09.332Z</time></trkpt><trkpt lat="43.2955367" lon="11.4089517"><ele>186.0</ele><time>2026-04-30T09:26:10.332Z</time></trkpt><trkpt lat="43.2954817" lon="11.4088483"><ele>186.0</ele><time>2026-04-30T09:26:11.332Z</time></trkpt><trkpt lat="43.2954267" lon="11.4087517"><ele>186.0</ele><time>2026-04-30T09:26:12.332Z</time></trkpt><trkpt lat="43.2953717" lon="11.4086367"><ele>186.16666666666666</ele><time>2026-04-30T09:26:13.332Z</time></trkpt><trkpt lat="43.2953267" lon="11.4085467"><ele>186.33333333333334</ele><time>2026-04-30T09:26:14.332Z</time></trkpt><trkpt lat="43.2952833" lon="11.40846"><ele>186.5</ele><time>2026-04-30T09:26:15.332Z</time></trkpt><trkpt lat="43.2952083" lon="11.4083367"><ele>186.66666666666669</ele><time>2026-04-30T09:26:17.332Z</time></trkpt><trkpt lat="43.2951467" lon="11.40837"><ele>186.83333333333334</ele><time>2026-04-30T09:26:24.332Z</time></trkpt><trkpt lat="43.295095" lon="11.40847"><ele>187.0</ele><time>2026-04-30T09:26:26.331Z</time></trkpt><trkpt lat="43.2950567" lon="11.40856"><ele>187.0</ele><time>2026-04-30T09:26:27.332Z</time></trkpt><trkpt lat="43.2950067" lon="11.40867"><ele>187.0</ele><time>2026-04-30T09:26:28.332Z</time></trkpt><trkpt lat="43.2949533" lon="11.4088117"><ele>187.0</ele><time>2026-04-30T09:26:29.331Z</time></trkpt><trkpt lat="43.2948933" lon="11.4089433"><ele>187.0</ele><time>2026-04-30T09:26:30.332Z</time></trkpt><trkpt lat="43.294835" lon="11.40907"><ele>187.0</ele><time>2026-04-30T09:26:31.332Z</time></trkpt><trkpt lat="43.2947833" lon="11.4091933"><ele>187.2</ele><time>2026-04-30T09:26:32.332Z</time></trkpt><trkpt lat="43.2947333" lon="11.4093133"><ele>187.39999999999998</ele><time>2026-04-30T09:26:33.331Z</time></trkpt><trkpt lat="43.2946817" lon="11.4094217"><ele>187.60000000000002</ele><time>2026-04-30T09:26:34.332Z</time></trkpt><trkpt lat="43.2946317" lon="11.40954"><ele>187.8</ele><time>2026-04-30T09:26:35.331Z</time></trkpt><trkpt lat="43.294565" lon="11.4096633"><ele>188.0</ele><time>2026-04-30T09:26:36.332Z</time></trkpt><trkpt lat="43.2945117" lon="11.4097783"><ele>188.16666666666666</ele><time>2026-04-30T09:26:37.332Z</time></trkpt><trkpt lat="43.294465" lon="11.4098833"><ele>188.33333333333331</ele><time>2026-04-30T09:26:38.332Z</time></trkpt><trkpt lat="43.294425" lon="11.4099833"><ele>188.5</ele><time>2026-04-30T09:26:39.332Z</time></trkpt><trkpt lat="43.2943883" lon="11.4100733"><ele>188.66666666666666</ele><time>2026-04-30T09:26:40.332Z</time></trkpt><trkpt lat="43.2943483" lon="11.4101617"><ele>188.83333333333334</ele><time>2026-04-30T09:26:41.332Z</time></trkpt><trkpt lat="43.2943083" lon="11.41026"><ele>189.0</ele><time>2026-04-30T09:26:42.332Z</time></trkpt><trkpt lat="43.2942767" lon="11.410345"><ele>189.0</ele><time>2026-04-30T09:26:43.332Z</time></trkpt><trkpt lat="43.2942433" lon="11.4104283"><ele>189.0</ele><time>2026-04-30T09:26:44.332Z</time></trkpt><trkpt lat="43.2942067" lon="11.4105133"><ele>189.0</ele><time>2026-04-30T09:26:45.332Z</time></trkpt><trkpt lat="43.2941633" lon="11.4105983"><ele>189.0</ele><time>2026-04-30T09:26:46.332Z</time></trkpt><trkpt lat="43.294115" lon="11.4106783"><ele>189.0</ele><time>2026-04-30T09:26:47.332Z</time></trkpt><trkpt lat="43.294075" lon="11.4107667"><ele>189.0</ele><time>2026-04-30T09:26:48.332Z</time></trkpt><trkpt lat="43.29403" lon="11.4108467"><ele>189.0</ele><time>2026-04-30T09:26:49.331Z</time></trkpt><trkpt lat="43.2939967" lon="11.41093"><ele>189.16666666666666</ele><time>2026-04-30T09:26:51.332Z</time></trkpt><trkpt lat="43.293955" lon="11.4109967"><ele>189.33333333333334</ele><time>2026-04-30T09:26:53.332Z</time></trkpt><trkpt lat="43.29389" lon="11.4111117"><ele>189.5</ele><time>2026-04-30T09:26:55.332Z</time></trkpt><trkpt lat="43.29386" lon="11.4112067"><ele>189.66666666666669</ele><time>2026-04-30T09:26:56.332Z</time></trkpt><trkpt lat="43.2938317" lon="11.4113083"><ele>189.83333333333334</ele><time>2026-04-30T09:26:57.332Z</time></trkpt><trkpt lat="43.2937783" lon="11.4114217"><ele>190.0</ele><time>2026-04-30T09:26:58.331Z</time></trkpt><trkpt lat="43.29371" lon="11.4115367"><ele>190.5</ele><time>2026-04-30T09:26:59.332Z</time></trkpt><trkpt lat="43.2936467" lon="11.4116667"><ele>191.0</ele><time>2026-04-30T09:27:00.332Z</time></trkpt><trkpt lat="43.29358" lon="11.4118067"><ele>191.5</ele><time>2026-04-30T09:27:01.332Z</time></trkpt><trkpt lat="43.2935133" lon="11.4119617"><ele>192.0</ele><time>2026-04-30T09:27:02.332Z</time></trkpt><trkpt lat="43.293455" lon="11.4121233"><ele>192.75</ele><time>2026-04-30T09:27:03.332Z</time></trkpt><trkpt lat="43.2933967" lon="11.4122917"><ele>193.5</ele><time>2026-04-30T09:27:04.332Z</time></trkpt><trkpt lat="43.2933267" lon="11.4124717"><ele>194.25</ele><time>2026-04-30T09:27:05.332Z</time></trkpt><trkpt lat="43.2932517" lon="11.41265"><ele>195.0</ele><time>2026-04-30T09:27:06.332Z</time></trkpt><trkpt lat="43.293175" lon="11.4128333"><ele>196.66666666666669</ele><time>2026-04-30T09:27:07.332Z</time></trkpt><trkpt lat="43.2930967" lon="11.4130167"><ele>198.33333333333334</ele><time>2026-04-30T09:27:08.331Z</time></trkpt><trkpt lat="43.2930217" lon="11.4132017"><ele>200.0</ele><time>2026-04-30T09:27:09.332Z</time></trkpt><trkpt lat="43.2929483" lon="11.413395"><ele>200.33333333333334</ele><time>2026-04-30T09:27:10.331Z</time></trkpt><trkpt lat="43.2928767" lon="11.41359"><ele>200.66666666666669</ele><time>2026-04-30T09:27:11.332Z</time></trkpt><trkpt lat="43.29281" lon="11.41379"><ele>201.0</ele><time>2026-04-30T09:27:12.332Z</time></trkpt><trkpt lat="43.2927533" lon="11.41399"><ele>202.66666666666669</ele><time>2026-04-30T09:27:13.332Z</time></trkpt><trkpt lat="43.2926983" lon="11.414195"><ele>204.33333333333334</ele><time>2026-04-30T09:27:14.332Z</time></trkpt><trkpt lat="43.2926317" lon="11.4144"><ele>206.0</ele><time>2026-04-30T09:27:15.332Z</time></trkpt><trkpt lat="43.2925733" lon="11.4145983"><ele>207.25</ele><time>2026-04-30T09:27:16.331Z</time></trkpt><trkpt lat="43.2925233" lon="11.4148017"><ele>208.5</ele><time>2026-04-30T09:27:17.332Z</time></trkpt><trkpt lat="43.2924717" lon="11.414995"><ele>209.75</ele><time>2026-04-30T09:27:18.331Z</time></trkpt><trkpt lat="43.2924333" lon="11.4151617"><ele>211.0</ele><time>2026-04-30T09:27:19.332Z</time></trkpt><trkpt lat="43.2923917" lon="11.41533"><ele>210.75</ele><time>2026-04-30T09:27:20.332Z</time></trkpt><trkpt lat="43.2923633" lon="11.4155067"><ele>210.5</ele><time>2026-04-30T09:27:21.332Z</time></trkpt><trkpt lat="43.292325" lon="11.415685"><ele>210.25</ele><time>2026-04-30T09:27:22.332Z</time></trkpt><trkpt lat="43.2922733" lon="11.4158683"><ele>210.0</ele><time>2026-04-30T09:27:23.331Z</time></trkpt><trkpt lat="43.2922067" lon="11.41604"><ele>210.0</ele><time>2026-04-30T09:27:24.332Z</time></trkpt><trkpt lat="43.2921283" lon="11.41623"><ele>210.0</ele><time>2026-04-30T09:27:25.332Z</time></trkpt><trkpt lat="43.2920333" lon="11.4164283"><ele>210.0</ele><time>2026-04-30T09:27:26.332Z</time></trkpt><trkpt lat="43.2919467" lon="11.41663"><ele>207.66666666666669</ele><time>2026-04-30T09:27:27.331Z</time></trkpt><trkpt lat="43.2918517" lon="11.4168483"><ele>205.33333333333334</ele><time>2026-04-30T09:27:28.332Z</time></trkpt><trkpt lat="43.2917517" lon="11.4170733"><ele>203.0</ele><time>2026-04-30T09:27:29.331Z</time></trkpt><trkpt lat="43.2916567" lon="11.4173"><ele>202.0</ele><time>2026-04-30T09:27:30.332Z</time></trkpt><trkpt lat="43.2915567" lon="11.4175267"><ele>201.0</ele><time>2026-04-30T09:27:31.331Z</time></trkpt><trkpt lat="43.2914533" lon="11.41776"><ele>200.0</ele><time>2026-04-30T09:27:32.332Z</time></trkpt><trkpt lat="43.2913567" lon="11.4179833"><ele>199.0</ele><time>2026-04-30T09:27:33.332Z</time></trkpt><trkpt lat="43.291265" lon="11.4182083"><ele>198.0</ele><time>2026-04-30T09:27:34.332Z</time></trkpt><trkpt lat="43.2911583" lon="11.4184517"><ele>197.0</ele><time>2026-04-30T09:27:35.332Z</time></trkpt><trkpt lat="43.2910667" lon="11.418675"><ele>198.33333333333334</ele><time>2026-04-30T09:27:36.331Z</time></trkpt><trkpt lat="43.2909633" lon="11.4189117"><ele>199.66666666666669</ele><time>2026-04-30T09:27:37.331Z</time></trkpt><trkpt lat="43.29086" lon="11.4191483"><ele>201.0</ele><time>2026-04-30T09:27:38.332Z</time></trkpt><trkpt lat="43.2907583" lon="11.4193967"><ele>201.0</ele><time>2026-04-30T09:27:39.332Z</time></trkpt><trkpt lat="43.2906583" lon="11.4196233"><ele>201.0</ele><time>2026-04-30T09:27:40.332Z</time></trkpt><trkpt lat="43.2905617" lon="11.4198517"><ele>201.0</ele><time>2026-04-30T09:27:41.332Z</time></trkpt><trkpt lat="43.2904667" lon="11.42008"><ele>201.66666666666669</ele><time>2026-04-30T09:27:42.331Z</time></trkpt><trkpt lat="43.2903717" lon="11.4203"><ele>202.33333333333334</ele><time>2026-04-30T09:27:43.332Z</time></trkpt><trkpt lat="43.2902783" lon="11.4205217"><ele>203.0</ele><time>2026-04-30T09:27:44.331Z</time></trkpt><trkpt lat="43.2901767" lon="11.4207467"><ele>203.66666666666669</ele><time>2026-04-30T09:27:45.332Z</time></trkpt><trkpt lat="43.2900667" lon="11.4209717"><ele>204.33333333333331</ele><time>2026-04-30T09:27:46.331Z</time></trkpt><trkpt lat="43.2899533" lon="11.4211783"><ele>205.0</ele><time>2026-04-30T09:27:47.332Z</time></trkpt><trkpt lat="43.2898367" lon="11.4213833"><ele>208.0</ele><time>2026-04-30T09:27:48.332Z</time></trkpt><trkpt lat="43.2897183" lon="11.4215817"><ele>211.0</ele><time>2026-04-30T09:27:49.331Z</time></trkpt><trkpt lat="43.2896" lon="11.421785"><ele>214.0</ele><time>2026-04-30T09:27:50.332Z</time></trkpt><trkpt lat="43.2894783" lon="11.4219767"><ele>214.66666666666666</ele><time>2026-04-30T09:27:51.332Z</time></trkpt><trkpt lat="43.2893617" lon="11.422165"><ele>215.33333333333331</ele><time>2026-04-30T09:27:52.331Z</time></trkpt><trkpt lat="43.2892467" lon="11.42234"><ele>216.0</ele><time>2026-04-30T09:27:53.331Z</time></trkpt><trkpt lat="43.2891333" lon="11.42251"><ele>216.0</ele><time>2026-04-30T09:27:54.332Z</time></trkpt><trkpt lat="43.2890317" lon="11.422655"><ele>216.0</ele><time>2026-04-30T09:27:55.332Z</time></trkpt><trkpt lat="43.2889317" lon="11.42279"><ele>216.0</ele><time>2026-04-30T09:27:56.332Z</time></trkpt><trkpt lat="43.288845" lon="11.4229117"><ele>216.0</ele><time>2026-04-30T09:27:57.332Z</time></trkpt><trkpt lat="43.288755" lon="11.4230117"><ele>215.4</ele><time>2026-04-30T09:27:58.332Z</time></trkpt><trkpt lat="43.2886767" lon="11.4230983"><ele>214.8</ele><time>2026-04-30T09:27:59.332Z</time></trkpt><trkpt lat="43.2885933" lon="11.4231967"><ele>214.20000000000002</ele><time>2026-04-30T09:28:00.332Z</time></trkpt><trkpt lat="43.28852" lon="11.423315"><ele>213.60000000000002</ele><time>2026-04-30T09:28:01.332Z</time></trkpt><trkpt lat="43.2884667" lon="11.4234567"><ele>213.0</ele><time>2026-04-30T09:28:02.332Z</time></trkpt><trkpt lat="43.2884383" lon="11.4236317"><ele>211.0</ele><time>2026-04-30T09:28:03.332Z</time></trkpt><trkpt lat="43.28845" lon="11.423825"><ele>209.0</ele><time>2026-04-30T09:28:04.332Z</time></trkpt><trkpt lat="43.2884867" lon="11.4240083"><ele>207.0</ele><time>2026-04-30T09:28:05.332Z</time></trkpt><trkpt lat="43.28853" lon="11.4242017"><ele>205.0</ele><time>2026-04-30T09:28:06.331Z</time></trkpt><trkpt lat="43.2885667" lon="11.4244017"><ele>205.0</ele><time>2026-04-30T09:28:07.331Z</time></trkpt><trkpt lat="43.288605" lon="11.42461"><ele>205.0</ele><time>2026-04-30T09:28:08.332Z</time></trkpt><trkpt lat="43.2886433" lon="11.4248233"><ele>205.0</ele><time>2026-04-30T09:28:09.332Z</time></trkpt><trkpt lat="43.2886783" lon="11.4250283"><ele>203.25</ele><time>2026-04-30T09:28:10.332Z</time></trkpt><trkpt lat="43.288715" lon="11.4252283"><ele>201.5</ele><time>2026-04-30T09:28:11.332Z</time></trkpt><trkpt lat="43.2887467" lon="11.4254217"><ele>199.75</ele><time>2026-04-30T09:28:12.332Z</time></trkpt><trkpt lat="43.2887783" lon="11.4256067"><ele>198.0</ele><time>2026-04-30T09:28:13.332Z</time></trkpt><trkpt lat="43.288805" lon="11.4257833"><ele>196.75</ele><time>2026-04-30T09:28:14.332Z</time></trkpt><trkpt lat="43.2888117" lon="11.4259667"><ele>195.5</ele><time>2026-04-30T09:28:15.332Z</time></trkpt><trkpt lat="43.2887933" lon="11.42614"><ele>194.25</ele><time>2026-04-30T09:28:16.332Z</time></trkpt><trkpt lat="43.288745" lon="11.4263083"><ele>193.0</ele><time>2026-04-30T09:28:17.332Z</time></trkpt><trkpt lat="43.2886617" lon="11.426465"><ele>191.66666666666666</ele><time>2026-04-30T09:28:18.332Z</time></trkpt><trkpt lat="43.28854" lon="11.4266133"><ele>190.33333333333331</ele><time>2026-04-30T09:28:19.332Z</time></trkpt><trkpt lat="43.28841" lon="11.4267583"><ele>189.0</ele><time>2026-04-30T09:28:20.332Z</time></trkpt><trkpt lat="43.2882733" lon="11.4269067"><ele>189.0</ele><time>2026-04-30T09:28:21.331Z</time></trkpt><trkpt lat="43.28814" lon="11.4270467"><ele>189.0</ele><time>2026-04-30T09:28:22.332Z</time></trkpt><trkpt lat="43.2880033" lon="11.4271883"><ele>189.0</ele><time>2026-04-30T09:28:23.332Z</time></trkpt><trkpt lat="43.2878783" lon="11.4273267"><ele>189.25</ele><time>2026-04-30T09:28:24.332Z</time></trkpt><trkpt lat="43.28777" lon="11.42745"><ele>189.5</ele><time>2026-04-30T09:28:25.332Z</time></trkpt><trkpt lat="43.28768" lon="11.4275817"><ele>189.75</ele><time>2026-04-30T09:28:26.331Z</time></trkpt><trkpt lat="43.2875883" lon="11.42773"><ele>190.0</ele><time>2026-04-30T09:28:27.332Z</time></trkpt><trkpt lat="43.28753" lon="11.4279133"><ele>190.0</ele><time>2026-04-30T09:28:28.332Z</time></trkpt><trkpt lat="43.2874983" lon="11.4281183"><ele>190.0</ele><time>2026-04-30T09:28:29.332Z</time></trkpt><trkpt lat="43.28749" lon="11.428335"><ele>190.0</ele><time>2026-04-30T09:28:30.332Z</time></trkpt><trkpt lat="43.2874967" lon="11.4285417"><ele>190.0</ele><time>2026-04-30T09:28:31.332Z</time></trkpt><trkpt lat="43.2875083" lon="11.4287317"><ele>190.0</ele><time>2026-04-30T09:28:32.331Z</time></trkpt><trkpt lat="43.287495" lon="11.4289367"><ele>190.0</ele><time>2026-04-30T09:28:33.332Z</time></trkpt><trkpt lat="43.2874883" lon="11.4291367"><ele>190.0</ele><time>2026-04-30T09:28:34.332Z</time></trkpt><trkpt lat="43.28746" lon="11.4293367"><ele>189.25</ele><time>2026-04-30T09:28:35.332Z</time></trkpt><trkpt lat="43.287435" lon="11.4295117"><ele>188.5</ele><time>2026-04-30T09:28:36.332Z</time></trkpt><trkpt lat="43.2873917" lon="11.4296917"><ele>187.75</ele><time>2026-04-30T09:28:37.332Z</time></trkpt><trkpt lat="43.2873317" lon="11.4298667"><ele>187.0</ele><time>2026-04-30T09:28:38.332Z</time></trkpt><trkpt lat="43.2872467" lon="11.4300383"><ele>186.0</ele><time>2026-04-30T09:28:39.332Z</time></trkpt><trkpt lat="43.2871517" lon="11.4302183"><ele>185.0</ele><time>2026-04-30T09:28:40.332Z</time></trkpt><trkpt lat="43.28705" lon="11.430395"><ele>184.0</ele><time>2026-04-30T09:28:41.332Z</time></trkpt><trkpt lat="43.286955" lon="11.4305733"><ele>183.33333333333334</ele><time>2026-04-30T09:28:42.332Z</time></trkpt><trkpt lat="43.286855" lon="11.4307417"><ele>182.66666666666666</ele><time>2026-04-30T09:28:43.332Z</time></trkpt><trkpt lat="43.28675" lon="11.430915"><ele>182.0</ele><time>2026-04-30T09:28:44.331Z</time></trkpt><trkpt lat="43.2866533" lon="11.4310967"><ele>182.0</ele><time>2026-04-30T09:28:45.331Z</time></trkpt><trkpt lat="43.2865817" lon="11.4312967"><ele>182.0</ele><time>2026-04-30T09:28:46.331Z</time></trkpt><trkpt lat="43.2865067" lon="11.43151"><ele>182.0</ele><time>2026-04-30T09:28:47.332Z</time></trkpt><trkpt lat="43.28645" lon="11.4317417"><ele>182.0</ele><time>2026-04-30T09:28:48.332Z</time></trkpt><trkpt lat="43.2864" lon="11.4319933"><ele>182.0</ele><time>2026-04-30T09:28:49.332Z</time></trkpt><trkpt lat="43.2863433" lon="11.43223"><ele>182.0</ele><time>2026-04-30T09:28:50.331Z</time></trkpt><trkpt lat="43.28628" lon="11.4324733"><ele>182.0</ele><time>2026-04-30T09:28:51.331Z</time></trkpt><trkpt lat="43.2862133" lon="11.4327083"><ele>182.0</ele><time>2026-04-30T09:28:52.332Z</time></trkpt><trkpt lat="43.2861483" lon="11.4329317"><ele>182.0</ele><time>2026-04-30T09:28:53.332Z</time></trkpt><trkpt lat="43.2860883" lon="11.4331717"><ele>181.33333333333331</ele><time>2026-04-30T09:28:54.331Z</time></trkpt><trkpt lat="43.2860267" lon="11.4334067"><ele>180.66666666666666</ele><time>2026-04-30T09:28:55.332Z</time></trkpt><trkpt lat="43.2859533" lon="11.4336417"><ele>180.0</ele><time>2026-04-30T09:28:56.331Z</time></trkpt><trkpt lat="43.285895" lon="11.4338667"><ele>180.0</ele><time>2026-04-30T09:28:57.331Z</time></trkpt><trkpt lat="43.285835" lon="11.4340833"><ele>180.0</ele><time>2026-04-30T09:28:58.332Z</time></trkpt><trkpt lat="43.285795" lon="11.4342983"><ele>180.0</ele><time>2026-04-30T09:28:59.332Z</time></trkpt><trkpt lat="43.2858033" lon="11.4345117"><ele>180.0</ele><time>2026-04-30T09:29:00.331Z</time></trkpt><trkpt lat="43.2858217" lon="11.43473"><ele>180.0</ele><time>2026-04-30T09:29:01.332Z</time></trkpt><trkpt lat="43.2858233" lon="11.4349717"><ele>180.0</ele><time>2026-04-30T09:29:02.332Z</time></trkpt><trkpt lat="43.2857933" lon="11.4352167"><ele>180.0</ele><time>2026-04-30T09:29:03.332Z</time></trkpt><trkpt lat="43.285745" lon="11.4354667"><ele>180.0</ele><time>2026-04-30T09:29:04.331Z</time></trkpt><trkpt lat="43.2856767" lon="11.4357167"><ele>180.0</ele><time>2026-04-30T09:29:05.332Z</time></trkpt><trkpt lat="43.2856017" lon="11.43596"><ele>180.33333333333334</ele><time>2026-04-30T09:29:06.332Z</time></trkpt><trkpt lat="43.2855167" lon="11.436195"><ele>180.66666666666669</ele><time>2026-04-30T09:29:07.332Z</time></trkpt><trkpt lat="43.2854267" lon="11.4364433"><ele>181.0</ele><time>2026-04-30T09:29:08.332Z</time></trkpt><trkpt lat="43.285335" lon="11.4366867"><ele>181.0</ele><time>2026-04-30T09:29:09.332Z</time></trkpt><trkpt lat="43.2852483" lon="11.4369467"><ele>181.0</ele><time>2026-04-30T09:29:10.332Z</time></trkpt><trkpt lat="43.2851567" lon="11.4372033"><ele>181.0</ele><time>2026-04-30T09:29:11.332Z</time></trkpt><trkpt lat="43.28507" lon="11.4374483"><ele>181.33333333333334</ele><time>2026-04-30T09:29:12.332Z</time></trkpt><trkpt lat="43.2849917" lon="11.437695"><ele>181.66666666666666</ele><time>2026-04-30T09:29:13.332Z</time></trkpt><trkpt lat="43.2849017" lon="11.4379383"><ele>182.0</ele><time>2026-04-30T09:29:14.332Z</time></trkpt><trkpt lat="43.2848117" lon="11.4382"><ele>181.66666666666666</ele><time>2026-04-30T09:29:15.331Z</time></trkpt><trkpt lat="43.2847283" lon="11.4384333"><ele>181.33333333333334</ele><time>2026-04-30T09:29:16.332Z</time></trkpt><trkpt lat="43.2846483" lon="11.4386533"><ele>181.0</ele><time>2026-04-30T09:29:17.332Z</time></trkpt><trkpt lat="43.2845967" lon="11.4388667"><ele>181.0</ele><time>2026-04-30T09:29:18.332Z</time></trkpt><trkpt lat="43.2845667" lon="11.43909"><ele>181.0</ele><time>2026-04-30T09:29:19.332Z</time></trkpt><trkpt lat="43.284575" lon="11.4393167"><ele>181.0</ele><time>2026-04-30T09:29:20.332Z</time></trkpt><trkpt lat="43.2845933" lon="11.4395433"><ele>181.0</ele><time>2026-04-30T09:29:21.332Z</time></trkpt><trkpt lat="43.2846" lon="11.439775"><ele>181.0</ele><time>2026-04-30T09:29:22.332Z</time></trkpt><trkpt lat="43.2846117" lon="11.4400033"><ele>181.0</ele><time>2026-04-30T09:29:23.332Z</time></trkpt><trkpt lat="43.2846283" lon="11.44023"><ele>181.0</ele><time>2026-04-30T09:29:24.331Z</time></trkpt><trkpt lat="43.2846483" lon="11.4404283"><ele>181.0</ele><time>2026-04-30T09:29:25.332Z</time></trkpt><trkpt lat="43.2846633" lon="11.44061"><ele>181.0</ele><time>2026-04-30T09:29:26.332Z</time></trkpt><trkpt lat="43.2846583" lon="11.44075"><ele>181.0</ele><time>2026-04-30T09:29:27.331Z</time></trkpt><trkpt lat="43.2846267" lon="11.44088"><ele>181.25</ele><time>2026-04-30T09:29:28.332Z</time></trkpt><trkpt lat="43.284555" lon="11.4409833"><ele>181.5</ele><time>2026-04-30T09:29:29.332Z</time></trkpt><trkpt lat="43.2844483" lon="11.4410717"><ele>181.75</ele><time>2026-04-30T09:29:30.332Z</time></trkpt><trkpt lat="43.2843183" lon="11.441145"><ele>182.0</ele><time>2026-04-30T09:29:31.332Z</time></trkpt><trkpt lat="43.2841733" lon="11.441215"><ele>182.0</ele><time>2026-04-30T09:29:32.332Z</time></trkpt><trkpt lat="43.284025" lon="11.44128"><ele>182.0</ele><time>2026-04-30T09:29:33.332Z</time></trkpt><trkpt lat="43.2838783" lon="11.4413383"><ele>182.0</ele><time>2026-04-30T09:29:34.332Z</time></trkpt><trkpt lat="43.283725" lon="11.4414017"><ele>182.33333333333331</ele><time>2026-04-30T09:29:35.331Z</time></trkpt><trkpt lat="43.2835617" lon="11.441465"><ele>182.66666666666666</ele><time>2026-04-30T09:29:36.332Z</time></trkpt><trkpt lat="43.2834017" lon="11.4415283"><ele>183.0</ele><time>2026-04-30T09:29:37.331Z</time></trkpt><trkpt lat="43.2832583" lon="11.441605"><ele>183.0</ele><time>2026-04-30T09:29:38.331Z</time></trkpt><trkpt lat="43.2831267" lon="11.44168"><ele>183.0</ele><time>2026-04-30T09:29:39.331Z</time></trkpt><trkpt lat="43.2830117" lon="11.44176"><ele>183.0</ele><time>2026-04-30T09:29:40.332Z</time></trkpt><trkpt lat="43.2829067" lon="11.441855"><ele>183.0</ele><time>2026-04-30T09:29:41.331Z</time></trkpt><trkpt lat="43.2828" lon="11.44197"><ele>185.75</ele><time>2026-04-30T09:29:42.332Z</time></trkpt><trkpt lat="43.2827033" lon="11.4420983"><ele>188.5</ele><time>2026-04-30T09:29:43.332Z</time></trkpt><trkpt lat="43.2826133" lon="11.4422267"><ele>191.25</ele><time>2026-04-30T09:29:44.331Z</time></trkpt><trkpt lat="43.2825133" lon="11.442365"><ele>194.0</ele><time>2026-04-30T09:29:45.332Z</time></trkpt><trkpt lat="43.28241" lon="11.442525"><ele>194.0</ele><time>2026-04-30T09:29:46.331Z</time></trkpt><trkpt lat="43.28231" lon="11.442665"><ele>194.0</ele><time>2026-04-30T09:29:47.331Z</time></trkpt><trkpt lat="43.282205" lon="11.44281"><ele>194.0</ele><time>2026-04-30T09:29:48.331Z</time></trkpt><trkpt lat="43.2820967" lon="11.4429567"><ele>194.0</ele><time>2026-04-30T09:29:49.331Z</time></trkpt><trkpt lat="43.2819833" lon="11.4431"><ele>198.33333333333334</ele><time>2026-04-30T09:29:50.332Z</time></trkpt><trkpt lat="43.2818767" lon="11.4432617"><ele>202.66666666666669</ele><time>2026-04-30T09:29:51.332Z</time></trkpt><trkpt lat="43.28178" lon="11.4434233"><ele>207.0</ele><time>2026-04-30T09:29:52.332Z</time></trkpt><trkpt lat="43.2816833" lon="11.4435967"><ele>207.0</ele><time>2026-04-30T09:29:53.331Z</time></trkpt><trkpt lat="43.2816033" lon="11.4437867"><ele>207.0</ele><time>2026-04-30T09:29:54.332Z</time></trkpt><trkpt lat="43.28153" lon="11.44399"><ele>207.0</ele><time>2026-04-30T09:29:55.332Z</time></trkpt><trkpt lat="43.28145" lon="11.4441933"><ele>208.33333333333331</ele><time>2026-04-30T09:29:56.331Z</time></trkpt><trkpt lat="43.281375" lon="11.4443967"><ele>209.66666666666666</ele><time>2026-04-30T09:29:57.331Z</time></trkpt><trkpt lat="43.2813017" lon="11.4446"><ele>211.0</ele><time>2026-04-30T09:29:58.332Z</time></trkpt><trkpt lat="43.28122" lon="11.4448067"><ele>212.66666666666666</ele><time>2026-04-30T09:29:59.331Z</time></trkpt><trkpt lat="43.2811483" lon="11.4450133"><ele>214.33333333333331</ele><time>2026-04-30T09:30:00.332Z</time></trkpt><trkpt lat="43.2810733" lon="11.4452017"><ele>216.0</ele><time>2026-04-30T09:30:01.331Z</time></trkpt><trkpt lat="43.2809917" lon="11.4453783"><ele>217.33333333333331</ele><time>2026-04-30T09:30:02.332Z</time></trkpt><trkpt lat="43.280895" lon="11.4455383"><ele>218.66666666666666</ele><time>2026-04-30T09:30:03.332Z</time></trkpt><trkpt lat="43.28078" lon="11.4456883"><ele>220.0</ele><time>2026-04-30T09:30:04.332Z</time></trkpt><trkpt lat="43.2806617" lon="11.445815"><ele>219.0</ele><time>2026-04-30T09:30:05.332Z</time></trkpt><trkpt lat="43.280555" lon="11.4459183"><ele>218.0</ele><time>2026-04-30T09:30:06.332Z</time></trkpt><trkpt lat="43.2804733" lon="11.446035"><ele>217.0</ele><time>2026-04-30T09:30:07.332Z</time></trkpt><trkpt lat="43.2804167" lon="11.4461633"><ele>216.0</ele><time>2026-04-30T09:30:08.332Z</time></trkpt><trkpt lat="43.28039" lon="11.4463067"><ele>217.8</ele><time>2026-04-30T09:30:09.331Z</time></trkpt><trkpt lat="43.2803783" lon="11.4464633"><ele>219.60000000000002</ele><time>2026-04-30T09:30:10.332Z</time></trkpt><trkpt lat="43.2803733" lon="11.4466117"><ele>221.4</ele><time>2026-04-30T09:30:11.331Z</time></trkpt><trkpt lat="43.28038" lon="11.4467517"><ele>223.2</ele><time>2026-04-30T09:30:12.332Z</time></trkpt><trkpt lat="43.2803883" lon="11.44687"><ele>225.0</ele><time>2026-04-30T09:30:13.332Z</time></trkpt><trkpt lat="43.2803917" lon="11.4469717"><ele>225.0</ele><time>2026-04-30T09:30:14.331Z</time></trkpt><trkpt lat="43.280395" lon="11.4470633"><ele>225.0</ele><time>2026-04-30T09:30:15.332Z</time></trkpt><trkpt lat="43.2804117" lon="11.4472"><ele>225.0</ele><time>2026-04-30T09:30:17.332Z</time></trkpt><trkpt lat="43.28041" lon="11.4473217"><ele>225.0</ele><time>2026-04-30T09:30:19.331Z</time></trkpt><trkpt lat="43.2804167" lon="11.44741"><ele>225.0</ele><time>2026-04-30T09:30:21.332Z</time></trkpt><trkpt lat="43.2803983" lon="11.4475033"><ele>225.0</ele><time>2026-04-30T09:30:24.332Z</time></trkpt><trkpt lat="43.2803184" lon="11.4475448"><ele>226.28571428571433</ele><time>2026-04-30T09:32:24.411Z</time></trkpt><trkpt lat="43.2803034" lon="11.4476645"><ele>227.57142857142858</ele><time>2026-04-30T09:32:26.348Z</time></trkpt><trkpt lat="43.2802804" lon="11.4477505"><ele>228.8571428571429</ele><time>2026-04-30T09:32:32.331Z</time></trkpt><trkpt lat="43.2802554" lon="11.4478402"><ele>230.14285714285717</ele><time>2026-04-30T09:32:37.384Z</time></trkpt><trkpt lat="43.2801909" lon="11.4478809"><ele>231.42857142857144</ele><time>2026-04-30T09:32:45.411Z</time></trkpt><trkpt lat="43.2801265" lon="11.447886"><ele>232.71428571428572</ele><time>2026-04-30T09:32:57.392Z</time></trkpt><trkpt lat="43.2800577" lon="11.4479006"><ele>234.0</ele><time>2026-04-30T09:33:00.383Z</time></trkpt><trkpt lat="43.2800166" lon="11.4479746"><ele>234.0</ele><time>2026-04-30T09:33:05.402Z</time></trkpt><trkpt lat="43.280116" lon="11.4479186"><ele>233.99999999999997</ele><time>2026-04-30T09:34:14.334Z</time></trkpt><trkpt lat="43.2801857" lon="11.4478067"><ele>233.99999999999997</ele><time>2026-04-30T09:34:40.33Z</time></trkpt><trkpt lat="43.2802178" lon="11.4477272"><ele>234.0</ele><time>2026-04-30T09:34:43.331Z</time></trkpt><trkpt lat="43.280291" lon="11.4476022"><ele>234.0</ele><time>2026-04-30T09:35:02.395Z</time></trkpt><trkpt lat="43.2803858" lon="11.447529"><ele>234.0</ele><time>2026-04-30T09:35:24.361Z</time></trkpt><trkpt lat="43.2804257" lon="11.4476065"><ele>233.99999999999997</ele><time>2026-04-30T09:36:22.331Z</time></trkpt><trkpt lat="43.2804483" lon="11.4478733"><ele>233.99999999999997</ele><time>2026-04-30T09:36:24.331Z</time></trkpt><trkpt lat="43.280445" lon="11.4479817"><ele>234.0</ele><time>2026-04-30T09:36:25.331Z</time></trkpt><trkpt lat="43.2804383" lon="11.448115"><ele>234.0</ele><time>2026-04-30T09:36:26.331Z</time></trkpt><trkpt lat="43.280415" lon="11.4482567"><ele>234.0</ele><time>2026-04-30T09:36:27.33Z</time></trkpt><trkpt lat="43.28038" lon="11.4484"><ele>234.0</ele><time>2026-04-30T09:36:28.331Z</time></trkpt><trkpt lat="43.280315" lon="11.44853"><ele>234.0</ele><time>2026-04-30T09:36:29.33Z</time></trkpt><trkpt lat="43.28023" lon="11.44863"><ele>234.0</ele><time>2026-04-30T09:36:30.331Z</time></trkpt><trkpt lat="43.2801233" lon="11.448715"><ele>234.0</ele><time>2026-04-30T09:36:31.33Z</time></trkpt><trkpt lat="43.2800033" lon="11.4487917"><ele>234.0</ele><time>2026-04-30T09:36:32.331Z</time></trkpt><trkpt lat="43.27989" lon="11.4488883"><ele>234.0</ele><time>2026-04-30T09:36:33.331Z</time></trkpt><trkpt lat="43.2797883" lon="11.4490033"><ele>234.0</ele><time>2026-04-30T09:36:34.331Z</time></trkpt><trkpt lat="43.279705" lon="11.449135"><ele>232.75</ele><time>2026-04-30T09:36:35.331Z</time></trkpt><trkpt lat="43.2796433" lon="11.4492883"><ele>231.5</ele><time>2026-04-30T09:36:36.331Z</time></trkpt><trkpt lat="43.2796033" lon="11.449445"><ele>230.25</ele><time>2026-04-30T09:36:37.331Z</time></trkpt><trkpt lat="43.2795833" lon="11.4496233"><ele>229.0</ele><time>2026-04-30T09:36:38.331Z</time></trkpt><trkpt lat="43.279575" lon="11.4498117"><ele>228.75</ele><time>2026-04-30T09:36:39.331Z</time></trkpt><trkpt lat="43.27957" lon="11.4499983"><ele>228.5</ele><time>2026-04-30T09:36:40.331Z</time></trkpt><trkpt lat="43.279565" lon="11.4501967"><ele>228.25</ele><time>2026-04-30T09:36:41.331Z</time></trkpt><trkpt lat="43.279535" lon="11.4503883"><ele>228.0</ele><time>2026-04-30T09:36:42.331Z</time></trkpt><trkpt lat="43.279485" lon="11.450575"><ele>228.0</ele><time>2026-04-30T09:36:43.331Z</time></trkpt><trkpt lat="43.2794167" lon="11.4507517"><ele>228.0</ele><time>2026-04-30T09:36:44.331Z</time></trkpt><trkpt lat="43.279345" lon="11.45091"><ele>228.0</ele><time>2026-04-30T09:36:45.331Z</time></trkpt><trkpt lat="43.2792817" lon="11.451075"><ele>228.0</ele><time>2026-04-30T09:36:46.331Z</time></trkpt><trkpt lat="43.279235" lon="11.4512583"><ele>229.5</ele><time>2026-04-30T09:36:47.331Z</time></trkpt><trkpt lat="43.27921" lon="11.4514483"><ele>231.0</ele><time>2026-04-30T09:36:48.331Z</time></trkpt><trkpt lat="43.2791933" lon="11.45165"><ele>232.5</ele><time>2026-04-30T09:36:49.331Z</time></trkpt><trkpt lat="43.2791833" lon="11.45183"><ele>234.0</ele><time>2026-04-30T09:36:50.331Z</time></trkpt><trkpt lat="43.2791683" lon="11.452"><ele>234.5</ele><time>2026-04-30T09:36:51.331Z</time></trkpt><trkpt lat="43.2791567" lon="11.45216"><ele>235.0</ele><time>2026-04-30T09:36:52.33Z</time></trkpt><trkpt lat="43.2791417" lon="11.452315"><ele>235.5</ele><time>2026-04-30T09:36:53.33Z</time></trkpt><trkpt lat="43.2791317" lon="11.4524633"><ele>236.0</ele><time>2026-04-30T09:36:54.331Z</time></trkpt><trkpt lat="43.279135" lon="11.4526183"><ele>236.0</ele><time>2026-04-30T09:36:55.331Z</time></trkpt><trkpt lat="43.2791383" lon="11.4527733"><ele>236.00000000000003</ele><time>2026-04-30T09:36:56.331Z</time></trkpt><trkpt lat="43.279145" lon="11.4529233"><ele>236.00000000000003</ele><time>2026-04-30T09:36:57.331Z</time></trkpt><trkpt lat="43.2791567" lon="11.45307"><ele>236.0</ele><time>2026-04-30T09:36:58.331Z</time></trkpt><trkpt lat="43.2791667" lon="11.4532183"><ele>236.0</ele><time>2026-04-30T09:36:59.331Z</time></trkpt><trkpt lat="43.2791783" lon="11.4533733"><ele>236.20000000000002</ele><time>2026-04-30T09:37:00.331Z</time></trkpt><trkpt lat="43.2791883" lon="11.4535267"><ele>236.40000000000003</ele><time>2026-04-30T09:37:01.33Z</time></trkpt><trkpt lat="43.2791683" lon="11.4536783"><ele>236.6</ele><time>2026-04-30T09:37:02.331Z</time></trkpt><trkpt lat="43.2791283" lon="11.4538217"><ele>236.8</ele><time>2026-04-30T09:37:03.331Z</time></trkpt><trkpt lat="43.27907" lon="11.4539467"><ele>237.0</ele><time>2026-04-30T09:37:04.331Z</time></trkpt><trkpt lat="43.2790133" lon="11.45405"><ele>237.0</ele><time>2026-04-30T09:37:05.331Z</time></trkpt><trkpt lat="43.2789533" lon="11.45416"><ele>237.0</ele><time>2026-04-30T09:37:06.33Z</time></trkpt><trkpt lat="43.2788833" lon="11.4542767"><ele>237.0</ele><time>2026-04-30T09:37:07.33Z</time></trkpt><trkpt lat="43.2788133" lon="11.4544033"><ele>237.0</ele><time>2026-04-30T09:37:08.331Z</time></trkpt><trkpt lat="43.2787333" lon="11.45453"><ele>237.0</ele><time>2026-04-30T09:37:09.33Z</time></trkpt><trkpt lat="43.2786583" lon="11.4546483"><ele>237.0</ele><time>2026-04-30T09:37:10.33Z</time></trkpt><trkpt lat="43.27857" lon="11.45476"><ele>237.0</ele><time>2026-04-30T09:37:11.33Z</time></trkpt><trkpt lat="43.2784883" lon="11.4548683"><ele>237.0</ele><time>2026-04-30T09:37:12.331Z</time></trkpt><trkpt lat="43.2784167" lon="11.4549817"><ele>237.0</ele><time>2026-04-30T09:37:13.33Z</time></trkpt><trkpt lat="43.278345" lon="11.4550933"><ele>237.0</ele><time>2026-04-30T09:37:14.33Z</time></trkpt><trkpt lat="43.2782767" lon="11.45521"><ele>237.0</ele><time>2026-04-30T09:37:15.331Z</time></trkpt><trkpt lat="43.27821" lon="11.45536"><ele>237.0</ele><time>2026-04-30T09:37:16.331Z</time></trkpt><trkpt lat="43.2781417" lon="11.4555417"><ele>237.0</ele><time>2026-04-30T09:37:17.33Z</time></trkpt><trkpt lat="43.2780683" lon="11.455745"><ele>242.0</ele><time>2026-04-30T09:37:18.331Z</time></trkpt><trkpt lat="43.2779867" lon="11.45595"><ele>247.0</ele><time>2026-04-30T09:37:19.331Z</time></trkpt><trkpt lat="43.277905" lon="11.4561483"><ele>252.0</ele><time>2026-04-30T09:37:20.33Z</time></trkpt><trkpt lat="43.277845" lon="11.4563467"><ele>252.33333333333331</ele><time>2026-04-30T09:37:21.331Z</time></trkpt><trkpt lat="43.27779" lon="11.4565483"><ele>252.66666666666666</ele><time>2026-04-30T09:37:22.331Z</time></trkpt><trkpt lat="43.2777617" lon="11.456755"><ele>253.0</ele><time>2026-04-30T09:37:23.33Z</time></trkpt><trkpt lat="43.2777317" lon="11.456955"><ele>253.75</ele><time>2026-04-30T09:37:24.331Z</time></trkpt><trkpt lat="43.2777283" lon="11.45716"><ele>254.5</ele><time>2026-04-30T09:37:25.331Z</time></trkpt><trkpt lat="43.2777383" lon="11.4573567"><ele>255.25</ele><time>2026-04-30T09:37:26.33Z</time></trkpt><trkpt lat="43.2777817" lon="11.4575433"><ele>256.0</ele><time>2026-04-30T09:37:27.331Z</time></trkpt><trkpt lat="43.277845" lon="11.4577217"><ele>256.0</ele><time>2026-04-30T09:37:28.331Z</time></trkpt><trkpt lat="43.277915" lon="11.4579133"><ele>256.0</ele><time>2026-04-30T09:37:29.331Z</time></trkpt><trkpt lat="43.2779883" lon="11.458115"><ele>256.0</ele><time>2026-04-30T09:37:30.331Z</time></trkpt><trkpt lat="43.2780467" lon="11.4583167"><ele>256.25</ele><time>2026-04-30T09:37:31.331Z</time></trkpt><trkpt lat="43.278115" lon="11.458495"><ele>256.5</ele><time>2026-04-30T09:37:32.33Z</time></trkpt><trkpt lat="43.27818" lon="11.4586733"><ele>256.75</ele><time>2026-04-30T09:37:33.331Z</time></trkpt><trkpt lat="43.2782533" lon="11.4588417"><ele>257.0</ele><time>2026-04-30T09:37:34.331Z</time></trkpt><trkpt lat="43.2783233" lon="11.4590067"><ele>258.0</ele><time>2026-04-30T09:37:35.331Z</time></trkpt><trkpt lat="43.2783933" lon="11.45916"><ele>259.0</ele><time>2026-04-30T09:37:36.33Z</time></trkpt><trkpt lat="43.27846" lon="11.459315"><ele>260.0</ele><time>2026-04-30T09:37:37.331Z</time></trkpt><trkpt lat="43.2785283" lon="11.45946"><ele>261.0</ele><time>2026-04-30T09:37:38.331Z</time></trkpt><trkpt lat="43.2785783" lon="11.4596017"><ele>259.8</ele><time>2026-04-30T09:37:39.331Z</time></trkpt><trkpt lat="43.278625" lon="11.4597317"><ele>258.6</ele><time>2026-04-30T09:37:40.331Z</time></trkpt><trkpt lat="43.2786633" lon="11.4598517"><ele>257.4</ele><time>2026-04-30T09:37:41.331Z</time></trkpt><trkpt lat="43.2786983" lon="11.45997"><ele>256.2</ele><time>2026-04-30T09:37:42.331Z</time></trkpt><trkpt lat="43.27874" lon="11.4600767"><ele>255.0</ele><time>2026-04-30T09:37:43.331Z</time></trkpt><trkpt lat="43.2787867" lon="11.460185"><ele>255.0</ele><time>2026-04-30T09:37:44.331Z</time></trkpt><trkpt lat="43.2788317" lon="11.4603017"><ele>255.0</ele><time>2026-04-30T09:37:45.331Z</time></trkpt><trkpt lat="43.278875" lon="11.4604217"><ele>255.0</ele><time>2026-04-30T09:37:46.331Z</time></trkpt><trkpt lat="43.27892" lon="11.460555"><ele>255.0</ele><time>2026-04-30T09:37:47.331Z</time></trkpt><trkpt lat="43.278975" lon="11.4606833"><ele>255.0</ele><time>2026-04-30T09:37:48.331Z</time></trkpt><trkpt lat="43.2790267" lon="11.4608167"><ele>255.0</ele><time>2026-04-30T09:37:49.33Z</time></trkpt><trkpt lat="43.27908" lon="11.4609433"><ele>255.0</ele><time>2026-04-30T09:37:50.331Z</time></trkpt><trkpt lat="43.279145" lon="11.461065"><ele>255.0</ele><time>2026-04-30T09:37:51.33Z</time></trkpt><trkpt lat="43.2792317" lon="11.4611967"><ele>255.0</ele><time>2026-04-30T09:37:52.331Z</time></trkpt><trkpt lat="43.2793367" lon="11.4613583"><ele>255.0</ele><time>2026-04-30T09:37:53.331Z</time></trkpt><trkpt lat="43.27946" lon="11.4615433"><ele>255.0</ele><time>2026-04-30T09:37:54.331Z</time></trkpt><trkpt lat="43.2795817" lon="11.4617383"><ele>255.0</ele><time>2026-04-30T09:37:55.331Z</time></trkpt><trkpt lat="43.279695" lon="11.4619467"><ele>254.66666666666669</ele><time>2026-04-30T09:37:56.331Z</time></trkpt><trkpt lat="43.279815" lon="11.4621467"><ele>254.33333333333334</ele><time>2026-04-30T09:37:57.331Z</time></trkpt><trkpt lat="43.2799383" lon="11.4623283"><ele>254.0</ele><time>2026-04-30T09:37:58.331Z</time></trkpt><trkpt lat="43.2800567" lon="11.46253"><ele>254.0</ele><time>2026-04-30T09:37:59.331Z</time></trkpt><trkpt lat="43.2801783" lon="11.4627233"><ele>254.0</ele><time>2026-04-30T09:38:00.33Z</time></trkpt><trkpt lat="43.280295" lon="11.4629083"><ele>254.0</ele><time>2026-04-30T09:38:01.331Z</time></trkpt><trkpt lat="43.280415" lon="11.4630917"><ele>252.33333333333334</ele><time>2026-04-30T09:38:02.33Z</time></trkpt><trkpt lat="43.280535" lon="11.46328"><ele>250.66666666666669</ele><time>2026-04-30T09:38:03.331Z</time></trkpt><trkpt lat="43.28065" lon="11.4634767"><ele>249.0</ele><time>2026-04-30T09:38:04.33Z</time></trkpt><trkpt lat="43.2807617" lon="11.46368"><ele>249.33333333333331</ele><time>2026-04-30T09:38:05.33Z</time></trkpt><trkpt lat="43.2808617" lon="11.4638917"><ele>249.66666666666666</ele><time>2026-04-30T09:38:06.331Z</time></trkpt><trkpt lat="43.2809517" lon="11.464105"><ele>250.0</ele><time>2026-04-30T09:38:07.331Z</time></trkpt><trkpt lat="43.281035" lon="11.4643167"><ele>250.0</ele><time>2026-04-30T09:38:08.331Z</time></trkpt><trkpt lat="43.281105" lon="11.4645367"><ele>250.0</ele><time>2026-04-30T09:38:09.331Z</time></trkpt><trkpt lat="43.2811633" lon="11.46475"><ele>250.0</ele><time>2026-04-30T09:38:10.331Z</time></trkpt><trkpt lat="43.2812133" lon="11.46496"><ele>250.0</ele><time>2026-04-30T09:38:11.331Z</time></trkpt><trkpt lat="43.28124" lon="11.4651683"><ele>250.0</ele><time>2026-04-30T09:38:12.33Z</time></trkpt><trkpt lat="43.2812583" lon="11.4653833"><ele>250.0</ele><time>2026-04-30T09:38:13.33Z</time></trkpt><trkpt lat="43.281255" lon="11.4655967"><ele>249.66666666666666</ele><time>2026-04-30T09:38:14.331Z</time></trkpt><trkpt lat="43.2812283" lon="11.4658267"><ele>249.33333333333331</ele><time>2026-04-30T09:38:15.331Z</time></trkpt><trkpt lat="43.2811933" lon="11.4660567"><ele>249.0</ele><time>2026-04-30T09:38:16.331Z</time></trkpt><trkpt lat="43.28116" lon="11.46629"><ele>249.66666666666669</ele><time>2026-04-30T09:38:17.331Z</time></trkpt><trkpt lat="43.28113" lon="11.466535"><ele>250.33333333333334</ele><time>2026-04-30T09:38:18.331Z</time></trkpt><trkpt lat="43.2811017" lon="11.4667883"><ele>251.0</ele><time>2026-04-30T09:38:19.331Z</time></trkpt><trkpt lat="43.28108" lon="11.4670467"><ele>252.33333333333334</ele><time>2026-04-30T09:38:20.331Z</time></trkpt><trkpt lat="43.28105" lon="11.4672967"><ele>253.66666666666669</ele><time>2026-04-30T09:38:21.331Z</time></trkpt><trkpt lat="43.2810117" lon="11.4675567"><ele>255.0</ele><time>2026-04-30T09:38:22.331Z</time></trkpt><trkpt lat="43.2809567" lon="11.467815"><ele>257.0</ele><time>2026-04-30T09:38:23.331Z</time></trkpt><trkpt lat="43.2809" lon="11.4680683"><ele>259.0</ele><time>2026-04-30T09:38:24.33Z</time></trkpt><trkpt lat="43.2808367" lon="11.4683217"><ele>261.0</ele><time>2026-04-30T09:38:25.331Z</time></trkpt><trkpt lat="43.2807783" lon="11.4685567"><ele>262.3333333333333</ele><time>2026-04-30T09:38:26.33Z</time></trkpt><trkpt lat="43.2807283" lon="11.4687917"><ele>263.66666666666663</ele><time>2026-04-30T09:38:27.331Z</time></trkpt><trkpt lat="43.2807" lon="11.469"><ele>265.0</ele><time>2026-04-30T09:38:28.331Z</time></trkpt><trkpt lat="43.2807033" lon="11.4691917"><ele>265.0</ele><time>2026-04-30T09:38:29.331Z</time></trkpt><trkpt lat="43.280735" lon="11.4693883"><ele>265.0</ele><time>2026-04-30T09:38:30.331Z</time></trkpt><trkpt lat="43.2807867" lon="11.4695983"><ele>265.0</ele><time>2026-04-30T09:38:31.33Z</time></trkpt><trkpt lat="43.2808583" lon="11.4698167"><ele>264.66666666666663</ele><time>2026-04-30T09:38:32.331Z</time></trkpt><trkpt lat="43.2809333" lon="11.4700417"><ele>264.3333333333333</ele><time>2026-04-30T09:38:33.331Z</time></trkpt><trkpt lat="43.2810133" lon="11.470275"><ele>264.0</ele><time>2026-04-30T09:38:34.331Z</time></trkpt><trkpt lat="43.2810983" lon="11.47052"><ele>262.6666666666667</ele><time>2026-04-30T09:38:35.33Z</time></trkpt><trkpt lat="43.2811733" lon="11.47078"><ele>261.33333333333337</ele><time>2026-04-30T09:38:36.331Z</time></trkpt><trkpt lat="43.28125" lon="11.4710283"><ele>260.0</ele><time>2026-04-30T09:38:37.331Z</time></trkpt><trkpt lat="43.2813183" lon="11.47127"><ele>259.33333333333337</ele><time>2026-04-30T09:38:38.331Z</time></trkpt><trkpt lat="43.2813817" lon="11.471515"><ele>258.6666666666667</ele><time>2026-04-30T09:38:39.331Z</time></trkpt><trkpt lat="43.2814517" lon="11.4717617"><ele>258.0</ele><time>2026-04-30T09:38:40.331Z</time></trkpt><trkpt lat="43.2815167" lon="11.47201"><ele>258.6666666666667</ele><time>2026-04-30T09:38:41.331Z</time></trkpt><trkpt lat="43.28159" lon="11.47225"><ele>259.33333333333337</ele><time>2026-04-30T09:38:42.331Z</time></trkpt><trkpt lat="43.2816517" lon="11.4725017"><ele>260.0</ele><time>2026-04-30T09:38:43.33Z</time></trkpt><trkpt lat="43.281715" lon="11.4727517"><ele>260.6666666666667</ele><time>2026-04-30T09:38:44.33Z</time></trkpt><trkpt lat="43.2817767" lon="11.4729883"><ele>261.3333333333333</ele><time>2026-04-30T09:38:45.33Z</time></trkpt><trkpt lat="43.2818283" lon="11.4732317"><ele>262.0</ele><time>2026-04-30T09:38:46.331Z</time></trkpt><trkpt lat="43.2818767" lon="11.4734767"><ele>262.0</ele><time>2026-04-30T09:38:47.331Z</time></trkpt><trkpt lat="43.2819133" lon="11.4737217"><ele>262.0</ele><time>2026-04-30T09:38:48.331Z</time></trkpt><trkpt lat="43.28194" lon="11.4739517"><ele>262.0</ele><time>2026-04-30T09:38:49.33Z</time></trkpt><trkpt lat="43.2819733" lon="11.4741733"><ele>262.0</ele><time>2026-04-30T09:38:50.33Z</time></trkpt><trkpt lat="43.282035" lon="11.4743883"><ele>262.0</ele><time>2026-04-30T09:38:51.331Z</time></trkpt><trkpt lat="43.2821217" lon="11.4745917"><ele>262.0</ele><time>2026-04-30T09:38:52.331Z</time></trkpt><trkpt lat="43.2822233" lon="11.4747867"><ele>265.0</ele><time>2026-04-30T09:38:53.331Z</time></trkpt><trkpt lat="43.2823333" lon="11.4749783"><ele>268.0</ele><time>2026-04-30T09:38:54.331Z</time></trkpt><trkpt lat="43.2824333" lon="11.4751617"><ele>271.0</ele><time>2026-04-30T09:38:55.331Z</time></trkpt><trkpt lat="43.2825167" lon="11.4753533"><ele>270.66666666666663</ele><time>2026-04-30T09:38:56.33Z</time></trkpt><trkpt lat="43.28257" lon="11.47555"><ele>270.3333333333333</ele><time>2026-04-30T09:38:57.331Z</time></trkpt><trkpt lat="43.28259" lon="11.47576"><ele>270.0</ele><time>2026-04-30T09:38:58.331Z</time></trkpt><trkpt lat="43.28258" lon="11.47598"><ele>270.0</ele><time>2026-04-30T09:38:59.331Z</time></trkpt><trkpt lat="43.282555" lon="11.476205"><ele>270.0</ele><time>2026-04-30T09:39:00.33Z</time></trkpt><trkpt lat="43.2825417" lon="11.4764283"><ele>270.0</ele><time>2026-04-30T09:39:01.331Z</time></trkpt><trkpt lat="43.2825517" lon="11.476645"><ele>270.3333333333333</ele><time>2026-04-30T09:39:02.33Z</time></trkpt><trkpt lat="43.2825733" lon="11.476875"><ele>270.66666666666663</ele><time>2026-04-30T09:39:03.33Z</time></trkpt><trkpt lat="43.2826133" lon="11.47711"><ele>271.0</ele><time>2026-04-30T09:39:04.331Z</time></trkpt><trkpt lat="43.282665" lon="11.4773417"><ele>271.66666666666663</ele><time>2026-04-30T09:39:05.331Z</time></trkpt><trkpt lat="43.2827233" lon="11.47757"><ele>272.3333333333333</ele><time>2026-04-30T09:39:06.331Z</time></trkpt><trkpt lat="43.2827717" lon="11.4777967"><ele>273.0</ele><time>2026-04-30T09:39:07.331Z</time></trkpt><trkpt lat="43.2828017" lon="11.478025"><ele>273.3333333333333</ele><time>2026-04-30T09:39:08.331Z</time></trkpt><trkpt lat="43.2828167" lon="11.4782567"><ele>273.66666666666663</ele><time>2026-04-30T09:39:09.33Z</time></trkpt><trkpt lat="43.2828167" lon="11.4784983"><ele>274.0</ele><time>2026-04-30T09:39:10.33Z</time></trkpt><trkpt lat="43.2828033" lon="11.47874"><ele>275.66666666666663</ele><time>2026-04-30T09:39:11.331Z</time></trkpt><trkpt lat="43.2827883" lon="11.4789917"><ele>277.3333333333333</ele><time>2026-04-30T09:39:12.331Z</time></trkpt><trkpt lat="43.2827817" lon="11.4792433"><ele>279.0</ele><time>2026-04-30T09:39:13.331Z</time></trkpt><trkpt lat="43.2827667" lon="11.4794867"><ele>281.3333333333333</ele><time>2026-04-30T09:39:14.331Z</time></trkpt><trkpt lat="43.2827517" lon="11.479715"><ele>283.66666666666663</ele><time>2026-04-30T09:39:15.331Z</time></trkpt><trkpt lat="43.282715" lon="11.4799367"><ele>286.0</ele><time>2026-04-30T09:39:16.331Z</time></trkpt><trkpt lat="43.2826533" lon="11.480155"><ele>286.0</ele><time>2026-04-30T09:39:17.331Z</time></trkpt><trkpt lat="43.2825733" lon="11.4803567"><ele>286.0</ele><time>2026-04-30T09:39:18.331Z</time></trkpt><trkpt lat="43.2824867" lon="11.4805617"><ele>286.0</ele><time>2026-04-30T09:39:19.331Z</time></trkpt><trkpt lat="43.2823967" lon="11.4807617"><ele>285.3333333333333</ele><time>2026-04-30T09:39:20.331Z</time></trkpt><trkpt lat="43.2823017" lon="11.4809583"><ele>284.6666666666667</ele><time>2026-04-30T09:39:21.331Z</time></trkpt><trkpt lat="43.2822083" lon="11.48116"><ele>284.0</ele><time>2026-04-30T09:39:22.331Z</time></trkpt><trkpt lat="43.2821183" lon="11.4813633"><ele>286.33333333333337</ele><time>2026-04-30T09:39:23.33Z</time></trkpt><trkpt lat="43.28204" lon="11.48158"><ele>288.6666666666667</ele><time>2026-04-30T09:39:24.331Z</time></trkpt><trkpt lat="43.28198" lon="11.4817983"><ele>291.0</ele><time>2026-04-30T09:39:25.33Z</time></trkpt><trkpt lat="43.2818983" lon="11.4820033"><ele>295.6666666666667</ele><time>2026-04-30T09:39:26.331Z</time></trkpt><trkpt lat="43.2818067" lon="11.4822067"><ele>300.33333333333337</ele><time>2026-04-30T09:39:27.331Z</time></trkpt><trkpt lat="43.28171" lon="11.4823983"><ele>305.0</ele><time>2026-04-30T09:39:28.331Z</time></trkpt><trkpt lat="43.281615" lon="11.4825683"><ele>305.0</ele><time>2026-04-30T09:39:29.33Z</time></trkpt><trkpt lat="43.2815217" lon="11.4827383"><ele>305.0</ele><time>2026-04-30T09:39:30.331Z</time></trkpt><trkpt lat="43.281435" lon="11.4829017"><ele>305.0</ele><time>2026-04-30T09:39:31.33Z</time></trkpt><trkpt lat="43.2813433" lon="11.4830567"><ele>305.0</ele><time>2026-04-30T09:39:32.331Z</time></trkpt><trkpt lat="43.2812433" lon="11.4831983"><ele>304.75</ele><time>2026-04-30T09:39:33.331Z</time></trkpt><trkpt lat="43.28114" lon="11.48333"><ele>304.5</ele><time>2026-04-30T09:39:34.331Z</time></trkpt><trkpt lat="43.2810367" lon="11.4834567"><ele>304.25</ele><time>2026-04-30T09:39:35.331Z</time></trkpt><trkpt lat="43.2809333" lon="11.48357"><ele>304.0</ele><time>2026-04-30T09:39:36.331Z</time></trkpt><trkpt lat="43.28083" lon="11.483675"><ele>304.0</ele><time>2026-04-30T09:39:37.331Z</time></trkpt><trkpt lat="43.2807267" lon="11.4837517"><ele>304.0</ele><time>2026-04-30T09:39:38.33Z</time></trkpt><trkpt lat="43.2806067" lon="11.48381"><ele>304.0</ele><time>2026-04-30T09:39:39.331Z</time></trkpt><trkpt lat="43.280475" lon="11.483855"><ele>304.0</ele><time>2026-04-30T09:39:40.33Z</time></trkpt><trkpt lat="43.2803417" lon="11.48388"><ele>304.25</ele><time>2026-04-30T09:39:41.331Z</time></trkpt><trkpt lat="43.2802033" lon="11.4839017"><ele>304.5</ele><time>2026-04-30T09:39:42.331Z</time></trkpt><trkpt lat="43.2800617" lon="11.4839233"><ele>304.75</ele><time>2026-04-30T09:39:43.331Z</time></trkpt><trkpt lat="43.27992" lon="11.4839383"><ele>305.0</ele><time>2026-04-30T09:39:44.331Z</time></trkpt><trkpt lat="43.2797717" lon="11.4839333"><ele>306.0</ele><time>2026-04-30T09:39:45.331Z</time></trkpt><trkpt lat="43.2796183" lon="11.48391"><ele>307.0</ele><time>2026-04-30T09:39:46.331Z</time></trkpt><trkpt lat="43.2794617" lon="11.48386"><ele>308.0</ele><time>2026-04-30T09:39:47.331Z</time></trkpt><trkpt lat="43.2793" lon="11.4838167"><ele>308.0</ele><time>2026-04-30T09:39:48.331Z</time></trkpt><trkpt lat="43.2791333" lon="11.48377"><ele>308.0</ele><time>2026-04-30T09:39:49.331Z</time></trkpt><trkpt lat="43.2789767" lon="11.4837183"><ele>308.0</ele><time>2026-04-30T09:39:50.33Z</time></trkpt><trkpt lat="43.2788067" lon="11.4836683"><ele>310.0</ele><time>2026-04-30T09:39:51.331Z</time></trkpt><trkpt lat="43.2786367" lon="11.4836233"><ele>312.0</ele><time>2026-04-30T09:39:52.331Z</time></trkpt><trkpt lat="43.2784683" lon="11.4835767"><ele>314.0</ele><time>2026-04-30T09:39:53.331Z</time></trkpt><trkpt lat="43.278305" lon="11.483535"><ele>314.0</ele><time>2026-04-30T09:39:54.331Z</time></trkpt><trkpt lat="43.27815" lon="11.4834983"><ele>314.0</ele><time>2026-04-30T09:39:55.331Z</time></trkpt><trkpt lat="43.2779917" lon="11.4834667"><ele>314.0</ele><time>2026-04-30T09:39:56.331Z</time></trkpt><trkpt lat="43.2778417" lon="11.4834433"><ele>315.5</ele><time>2026-04-30T09:39:57.33Z</time></trkpt><trkpt lat="43.2777" lon="11.4834283"><ele>317.0</ele><time>2026-04-30T09:39:58.329Z</time></trkpt><trkpt lat="43.2775567" lon="11.4834417"><ele>318.5</ele><time>2026-04-30T09:39:59.33Z</time></trkpt><trkpt lat="43.2774117" lon="11.4834883"><ele>320.0</ele><time>2026-04-30T09:40:00.33Z</time></trkpt><trkpt lat="43.2772667" lon="11.483565"><ele>322.0</ele><time>2026-04-30T09:40:01.33Z</time></trkpt><trkpt lat="43.2771217" lon="11.4836483"><ele>324.0</ele><time>2026-04-30T09:40:02.33Z</time></trkpt><trkpt lat="43.2769783" lon="11.483735"><ele>326.0</ele><time>2026-04-30T09:40:03.33Z</time></trkpt><trkpt lat="43.2768383" lon="11.483825"><ele>326.0</ele><time>2026-04-30T09:40:04.33Z</time></trkpt><trkpt lat="43.2766967" lon="11.4839083"><ele>326.0</ele><time>2026-04-30T09:40:05.33Z</time></trkpt><trkpt lat="43.2765667" lon="11.4839767"><ele>326.0</ele><time>2026-04-30T09:40:06.33Z</time></trkpt><trkpt lat="43.2764317" lon="11.4840333"><ele>326.0</ele><time>2026-04-30T09:40:07.33Z</time></trkpt><trkpt lat="43.276305" lon="11.48409"><ele>326.75</ele><time>2026-04-30T09:40:08.33Z</time></trkpt><trkpt lat="43.27618" lon="11.484145"><ele>327.5</ele><time>2026-04-30T09:40:09.33Z</time></trkpt><trkpt lat="43.276055" lon="11.4841917"><ele>328.25</ele><time>2026-04-30T09:40:10.33Z</time></trkpt><trkpt lat="43.27594" lon="11.4842383"><ele>329.0</ele><time>2026-04-30T09:40:11.329Z</time></trkpt><trkpt lat="43.275825" lon="11.4842867"><ele>329.0</ele><time>2026-04-30T09:40:12.33Z</time></trkpt><trkpt lat="43.2757083" lon="11.48434"><ele>329.0</ele><time>2026-04-30T09:40:13.33Z</time></trkpt><trkpt lat="43.275595" lon="11.4843967"><ele>329.0</ele><time>2026-04-30T09:40:14.329Z</time></trkpt><trkpt lat="43.2754783" lon="11.4844683"><ele>329.0</ele><time>2026-04-30T09:40:15.33Z</time></trkpt><trkpt lat="43.27536" lon="11.4845433"><ele>329.6</ele><time>2026-04-30T09:40:16.329Z</time></trkpt><trkpt lat="43.2752517" lon="11.48462"><ele>330.2</ele><time>2026-04-30T09:40:17.33Z</time></trkpt><trkpt lat="43.2751517" lon="11.4846933"><ele>330.8</ele><time>2026-04-30T09:40:18.33Z</time></trkpt><trkpt lat="43.2750683" lon="11.484765"><ele>331.40000000000003</ele><time>2026-04-30T09:40:19.33Z</time></trkpt><trkpt lat="43.2749983" lon="11.4848167"><ele>332.0</ele><time>2026-04-30T09:40:20.33Z</time></trkpt><trkpt lat="43.274935" lon="11.4848483"><ele>332.0</ele><time>2026-04-30T09:40:21.33Z</time></trkpt><trkpt lat="43.2748217" lon="11.4848383"><ele>332.0</ele><time>2026-04-30T09:40:23.33Z</time></trkpt><trkpt lat="43.2747117" lon="11.4848017"><ele>332.0</ele><time>2026-04-30T09:40:25.33Z</time></trkpt><trkpt lat="43.2746067" lon="11.48476"><ele>332.0</ele><time>2026-04-30T09:40:27.33Z</time></trkpt><trkpt lat="43.2744933" lon="11.4847083"><ele>332.4285714285714</ele><time>2026-04-30T09:40:29.33Z</time></trkpt><trkpt lat="43.2744267" lon="11.484685"><ele>332.8571428571429</ele><time>2026-04-30T09:40:30.33Z</time></trkpt><trkpt lat="43.2743617" lon="11.484665"><ele>333.2857142857143</ele><time>2026-04-30T09:40:31.33Z</time></trkpt><trkpt lat="43.274295" lon="11.4846383"><ele>333.71428571428567</ele><time>2026-04-30T09:40:32.33Z</time></trkpt><trkpt lat="43.2742217" lon="11.4846067"><ele>334.1428571428571</ele><time>2026-04-30T09:40:33.33Z</time></trkpt><trkpt lat="43.2741433" lon="11.4845667"><ele>334.57142857142856</ele><time>2026-04-30T09:40:34.33Z</time></trkpt><trkpt lat="43.274065" lon="11.4845317"><ele>335.0</ele><time>2026-04-30T09:40:35.33Z</time></trkpt><trkpt lat="43.2739817" lon="11.4845033"><ele>333.5</ele><time>2026-04-30T09:40:36.33Z</time></trkpt><trkpt lat="43.27391" lon="11.48448"><ele>332.0</ele><time>2026-04-30T09:40:37.33Z</time></trkpt><trkpt lat="43.2738417" lon="11.4844633"><ele>330.5</ele><time>2026-04-30T09:40:38.33Z</time></trkpt><trkpt lat="43.273775" lon="11.4844517"><ele>329.0</ele><time>2026-04-30T09:40:39.33Z</time></trkpt><trkpt lat="43.2737083" lon="11.4844483"><ele>327.5</ele><time>2026-04-30T09:40:40.33Z</time></trkpt><trkpt lat="43.2735867" lon="11.4844533"><ele>326.0</ele><time>2026-04-30T09:40:42.33Z</time></trkpt><trkpt lat="43.27347" lon="11.4844633"><ele>326.0</ele><time>2026-04-30T09:40:44.33Z</time></trkpt><trkpt lat="43.273345" lon="11.4844733"><ele>326.0</ele><time>2026-04-30T09:40:46.33Z</time></trkpt><trkpt lat="43.2732217" lon="11.4844917"><ele>326.0</ele><time>2026-04-30T09:40:48.329Z</time></trkpt><trkpt lat="43.2731167" lon="11.484475"><ele>326.0</ele><time>2026-04-30T09:40:50.33Z</time></trkpt><trkpt lat="43.2730233" lon="11.484425"><ele>323.2</ele><time>2026-04-30T09:40:52.33Z</time></trkpt><trkpt lat="43.2729533" lon="11.4843417"><ele>320.40000000000003</ele><time>2026-04-30T09:40:54.329Z</time></trkpt><trkpt lat="43.27291" lon="11.4842283"><ele>317.6</ele><time>2026-04-30T09:40:56.33Z</time></trkpt><trkpt lat="43.2728883" lon="11.4841"><ele>314.8</ele><time>2026-04-30T09:40:58.33Z</time></trkpt><trkpt lat="43.2728967" lon="11.4839717"><ele>312.0</ele><time>2026-04-30T09:41:00.33Z</time></trkpt><trkpt lat="43.2729417" lon="11.483855"><ele>312.2</ele><time>2026-04-30T09:41:02.33Z</time></trkpt><trkpt lat="43.2730233" lon="11.4837533"><ele>312.4</ele><time>2026-04-30T09:41:04.33Z</time></trkpt><trkpt lat="43.2731117" lon="11.4836767"><ele>312.6</ele><time>2026-04-30T09:41:06.329Z</time></trkpt><trkpt lat="43.273185" lon="11.4835933"><ele>312.8</ele><time>2026-04-30T09:41:08.329Z</time></trkpt><trkpt lat="43.27322" lon="11.483485"><ele>313.0</ele><time>2026-04-30T09:41:10.329Z</time></trkpt><trkpt lat="43.2732033" lon="11.4833733"><ele>313.0</ele><time>2026-04-30T09:41:12.33Z</time></trkpt><trkpt lat="43.2731317" lon="11.4832817"><ele>313.0</ele><time>2026-04-30T09:41:14.33Z</time></trkpt><trkpt lat="43.2730383" lon="11.483215"><ele>313.0</ele><time>2026-04-30T09:41:16.33Z</time></trkpt><trkpt lat="43.2729283" lon="11.4831633"><ele>313.0</ele><time>2026-04-30T09:41:18.329Z</time></trkpt><trkpt lat="43.27281" lon="11.4831117"><ele>313.0</ele><time>2026-04-30T09:41:20.33Z</time></trkpt><trkpt lat="43.2727067" lon="11.4830583"><ele>313.0</ele><time>2026-04-30T09:41:22.33Z</time></trkpt><trkpt lat="43.2726" lon="11.4830117"><ele>313.0</ele><time>2026-04-30T09:41:24.33Z</time></trkpt><trkpt lat="43.2725" lon="11.4829733"><ele>313.0</ele><time>2026-04-30T09:41:26.33Z</time></trkpt><trkpt lat="43.2723817" lon="11.4829633"><ele>313.0</ele><time>2026-04-30T09:41:28.33Z</time></trkpt><trkpt lat="43.2723167" lon="11.4829733"><ele>313.0</ele><time>2026-04-30T09:41:29.33Z</time></trkpt><trkpt lat="43.27225" lon="11.4829767"><ele>310.5</ele><time>2026-04-30T09:41:30.329Z</time></trkpt><trkpt lat="43.2721867" lon="11.4829867"><ele>308.0</ele><time>2026-04-30T09:41:31.33Z</time></trkpt><trkpt lat="43.2721217" lon="11.4830017"><ele>305.5</ele><time>2026-04-30T09:41:32.33Z</time></trkpt><trkpt lat="43.2720583" lon="11.4830067"><ele>303.0</ele><time>2026-04-30T09:41:33.33Z</time></trkpt><trkpt lat="43.2719467" lon="11.48298"><ele>300.5</ele><time>2026-04-30T09:41:35.329Z</time></trkpt><trkpt lat="43.27186" lon="11.4829067"><ele>298.0</ele><time>2026-04-30T09:41:37.33Z</time></trkpt><trkpt lat="43.2718183" lon="11.48277"><ele>297.5</ele><time>2026-04-30T09:41:39.33Z</time></trkpt><trkpt lat="43.2718183" lon="11.4826"><ele>297.0</ele><time>2026-04-30T09:41:41.329Z</time></trkpt><trkpt lat="43.2718667" lon="11.4824467"><ele>296.5</ele><time>2026-04-30T09:41:43.33Z</time></trkpt><trkpt lat="43.2719083" lon="11.4823767"><ele>296.0</ele><time>2026-04-30T09:41:44.329Z</time></trkpt><trkpt lat="43.2719483" lon="11.4823083"><ele>295.5</ele><time>2026-04-30T09:41:45.329Z</time></trkpt><trkpt lat="43.272" lon="11.48225"><ele>295.0</ele><time>2026-04-30T09:41:46.329Z</time></trkpt><trkpt lat="43.2720583" lon="11.482195"><ele>295.00000000000006</ele><time>2026-04-30T09:41:47.33Z</time></trkpt><trkpt lat="43.2721183" lon="11.48215"><ele>295.0</ele><time>2026-04-30T09:41:48.329Z</time></trkpt><trkpt lat="43.2721767" lon="11.4821133"><ele>295.0</ele><time>2026-04-30T09:41:49.33Z</time></trkpt><trkpt lat="43.2722383" lon="11.482085"><ele>295.0</ele><time>2026-04-30T09:41:50.33Z</time></trkpt><trkpt lat="43.272305" lon="11.4820617"><ele>295.0</ele><time>2026-04-30T09:41:51.33Z</time></trkpt><trkpt lat="43.2723733" lon="11.482045"><ele>295.00000000000006</ele><time>2026-04-30T09:41:52.33Z</time></trkpt><trkpt lat="43.2724417" lon="11.48203"><ele>295.0</ele><time>2026-04-30T09:41:53.33Z</time></trkpt><trkpt lat="43.272505" lon="11.4820133"><ele>294.2</ele><time>2026-04-30T09:41:54.33Z</time></trkpt><trkpt lat="43.2726083" lon="11.4819583"><ele>293.4</ele><time>2026-04-30T09:41:56.33Z</time></trkpt><trkpt lat="43.2726433" lon="11.4818383"><ele>292.6</ele><time>2026-04-30T09:41:58.33Z</time></trkpt><trkpt lat="43.2726117" lon="11.481715"><ele>291.8</ele><time>2026-04-30T09:42:00.33Z</time></trkpt><trkpt lat="43.272525" lon="11.481625"><ele>291.0</ele><time>2026-04-30T09:42:02.33Z</time></trkpt><trkpt lat="43.2724167" lon="11.4815617"><ele>291.0</ele><time>2026-04-30T09:42:04.329Z</time></trkpt><trkpt lat="43.2723567" lon="11.48153"><ele>291.0</ele><time>2026-04-30T09:42:05.33Z</time></trkpt><trkpt lat="43.272295" lon="11.4815117"><ele>291.0</ele><time>2026-04-30T09:42:06.33Z</time></trkpt><trkpt lat="43.2721783" lon="11.4814733"><ele>291.0</ele><time>2026-04-30T09:42:08.329Z</time></trkpt><trkpt lat="43.2720717" lon="11.4814367"><ele>291.0</ele><time>2026-04-30T09:42:10.33Z</time></trkpt><trkpt lat="43.2719533" lon="11.4814117"><ele>290.2</ele><time>2026-04-30T09:42:12.33Z</time></trkpt><trkpt lat="43.27183" lon="11.4813883"><ele>289.40000000000003</ele><time>2026-04-30T09:42:14.329Z</time></trkpt><trkpt lat="43.2717633" lon="11.48137"><ele>288.6</ele><time>2026-04-30T09:42:15.33Z</time></trkpt><trkpt lat="43.271645" lon="11.48133"><ele>287.8</ele><time>2026-04-30T09:42:17.329Z</time></trkpt><trkpt lat="43.271535" lon="11.4812883"><ele>287.0</ele><time>2026-04-30T09:42:19.33Z</time></trkpt><trkpt lat="43.27144" lon="11.4812267"><ele>282.5</ele><time>2026-04-30T09:42:21.329Z</time></trkpt><trkpt lat="43.2713483" lon="11.48114"><ele>278.0</ele><time>2026-04-30T09:42:23.329Z</time></trkpt><trkpt lat="43.27127" lon="11.4810283"><ele>273.5</ele><time>2026-04-30T09:42:25.329Z</time></trkpt><trkpt lat="43.271205" lon="11.4809033"><ele>269.0</ele><time>2026-04-30T09:42:27.33Z</time></trkpt><trkpt lat="43.2711433" lon="11.48076"><ele>269.0</ele><time>2026-04-30T09:42:29.33Z</time></trkpt><trkpt lat="43.2711117" lon="11.48068"><ele>269.0</ele><time>2026-04-30T09:42:30.33Z</time></trkpt><trkpt lat="43.2710817" lon="11.4806017"><ele>269.0</ele><time>2026-04-30T09:42:31.329Z</time></trkpt><trkpt lat="43.2710433" lon="11.4805167"><ele>269.0</ele><time>2026-04-30T09:42:32.329Z</time></trkpt><trkpt lat="43.2710167" lon="11.480435"><ele>269.0</ele><time>2026-04-30T09:42:33.33Z</time></trkpt><trkpt lat="43.2709867" lon="11.4803483"><ele>269.0</ele><time>2026-04-30T09:42:34.33Z</time></trkpt><trkpt lat="43.2709583" lon="11.4802633"><ele>269.0</ele><time>2026-04-30T09:42:35.329Z</time></trkpt><trkpt lat="43.27093" lon="11.480175"><ele>268.7142857142857</ele><time>2026-04-30T09:42:36.33Z</time></trkpt><trkpt lat="43.270905" lon="11.4800817"><ele>268.42857142857144</ele><time>2026-04-30T09:42:37.33Z</time></trkpt><trkpt lat="43.27088" lon="11.479985"><ele>268.14285714285717</ele><time>2026-04-30T09:42:38.33Z</time></trkpt><trkpt lat="43.270855" lon="11.4798867"><ele>267.8571428571429</ele><time>2026-04-30T09:42:39.33Z</time></trkpt><trkpt lat="43.2708333" lon="11.47979"><ele>267.57142857142856</ele><time>2026-04-30T09:42:40.33Z</time></trkpt><trkpt lat="43.2708083" lon="11.479695"><ele>267.28571428571433</ele><time>2026-04-30T09:42:41.33Z</time></trkpt><trkpt lat="43.2707817" lon="11.479595"><ele>267.0</ele><time>2026-04-30T09:42:42.329Z</time></trkpt><trkpt lat="43.2707517" lon="11.4794933"><ele>265.8333333333333</ele><time>2026-04-30T09:42:43.33Z</time></trkpt><trkpt lat="43.27072" lon="11.4793867"><ele>264.6666666666667</ele><time>2026-04-30T09:42:44.329Z</time></trkpt><trkpt lat="43.27069" lon="11.4792783"><ele>263.5</ele><time>2026-04-30T09:42:45.329Z</time></trkpt><trkpt lat="43.2706633" lon="11.47918"><ele>262.33333333333337</ele><time>2026-04-30T09:42:46.33Z</time></trkpt><trkpt lat="43.27063" lon="11.47908"><ele>261.1666666666667</ele><time>2026-04-30T09:42:47.33Z</time></trkpt><trkpt lat="43.27059" lon="11.4789867"><ele>260.0</ele><time>2026-04-30T09:42:48.33Z</time></trkpt><trkpt lat="43.2705433" lon="11.478905"><ele>259.6666666666667</ele><time>2026-04-30T09:42:49.33Z</time></trkpt><trkpt lat="43.2704833" lon="11.4788267"><ele>259.33333333333337</ele><time>2026-04-30T09:42:50.329Z</time></trkpt><trkpt lat="43.270415" lon="11.4787533"><ele>259.0</ele><time>2026-04-30T09:42:51.329Z</time></trkpt><trkpt lat="43.2703417" lon="11.4786933"><ele>258.6666666666667</ele><time>2026-04-30T09:42:52.33Z</time></trkpt><trkpt lat="43.27026" lon="11.4786483"><ele>258.3333333333333</ele><time>2026-04-30T09:42:53.33Z</time></trkpt><trkpt lat="43.2701783" lon="11.478625"><ele>258.0</ele><time>2026-04-30T09:42:54.329Z</time></trkpt><trkpt lat="43.270095" lon="11.4786033"><ele>258.0</ele><time>2026-04-30T09:42:55.33Z</time></trkpt><trkpt lat="43.2700133" lon="11.478585"><ele>258.0</ele><time>2026-04-30T09:42:56.33Z</time></trkpt><trkpt lat="43.269935" lon="11.4785517"><ele>258.0</ele><time>2026-04-30T09:42:57.33Z</time></trkpt><trkpt lat="43.2698567" lon="11.4785083"><ele>258.0</ele><time>2026-04-30T09:42:58.33Z</time></trkpt><trkpt lat="43.2697817" lon="11.4784567"><ele>258.0</ele><time>2026-04-30T09:42:59.33Z</time></trkpt><trkpt lat="43.26972" lon="11.4783883"><ele>258.0</ele><time>2026-04-30T09:43:00.329Z</time></trkpt><trkpt lat="43.26966" lon="11.4783167"><ele>257.8333333333333</ele><time>2026-04-30T09:43:01.33Z</time></trkpt><trkpt lat="43.2696017" lon="11.4782333"><ele>257.6666666666667</ele><time>2026-04-30T09:43:02.329Z</time></trkpt><trkpt lat="43.269545" lon="11.4781433"><ele>257.5</ele><time>2026-04-30T09:43:03.329Z</time></trkpt><trkpt lat="43.26949" lon="11.4780583"><ele>257.33333333333337</ele><time>2026-04-30T09:43:04.33Z</time></trkpt><trkpt lat="43.269435" lon="11.47796"><ele>257.1666666666667</ele><time>2026-04-30T09:43:05.329Z</time></trkpt><trkpt lat="43.2693783" lon="11.47787"><ele>257.0</ele><time>2026-04-30T09:43:06.329Z</time></trkpt><trkpt lat="43.2693217" lon="11.47778"><ele>258.2</ele><time>2026-04-30T09:43:07.33Z</time></trkpt><trkpt lat="43.2692667" lon="11.4776817"><ele>259.4</ele><time>2026-04-30T09:43:08.329Z</time></trkpt><trkpt lat="43.2692167" lon="11.4775833"><ele>260.6</ele><time>2026-04-30T09:43:09.33Z</time></trkpt><trkpt lat="43.2691617" lon="11.4774867"><ele>261.8</ele><time>2026-04-30T09:43:10.329Z</time></trkpt><trkpt lat="43.2691117" lon="11.4773817"><ele>263.0</ele><time>2026-04-30T09:43:11.33Z</time></trkpt><trkpt lat="43.2690567" lon="11.4772817"><ele>263.0</ele><time>2026-04-30T09:43:12.329Z</time></trkpt><trkpt lat="43.2690017" lon="11.4771933"><ele>263.0</ele><time>2026-04-30T09:43:13.33Z</time></trkpt><trkpt lat="43.2689417" lon="11.477095"><ele>263.0</ele><time>2026-04-30T09:43:14.33Z</time></trkpt><trkpt lat="43.26889" lon="11.4769933"><ele>263.0</ele><time>2026-04-30T09:43:15.329Z</time></trkpt><trkpt lat="43.2688417" lon="11.4769033"><ele>263.0</ele><time>2026-04-30T09:43:16.33Z</time></trkpt><trkpt lat="43.2687867" lon="11.47681"><ele>263.0</ele><time>2026-04-30T09:43:17.33Z</time></trkpt><trkpt lat="43.268725" lon="11.4767183"><ele>262.8</ele><time>2026-04-30T09:43:18.329Z</time></trkpt><trkpt lat="43.2686533" lon="11.4766283"><ele>262.6</ele><time>2026-04-30T09:43:19.329Z</time></trkpt><trkpt lat="43.268585" lon="11.47654"><ele>262.4</ele><time>2026-04-30T09:43:20.33Z</time></trkpt><trkpt lat="43.26852" lon="11.476455"><ele>262.2</ele><time>2026-04-30T09:43:21.33Z</time></trkpt><trkpt lat="43.2684533" lon="11.4763733"><ele>262.0</ele><time>2026-04-30T09:43:22.33Z</time></trkpt><trkpt lat="43.2683883" lon="11.4762983"><ele>261.8333333333333</ele><time>2026-04-30T09:43:23.329Z</time></trkpt><trkpt lat="43.268325" lon="11.47622"><ele>261.66666666666663</ele><time>2026-04-30T09:43:24.33Z</time></trkpt><trkpt lat="43.2682583" lon="11.47614"><ele>261.5</ele><time>2026-04-30T09:43:25.329Z</time></trkpt><trkpt lat="43.2681917" lon="11.4760683"><ele>261.3333333333333</ele><time>2026-04-30T09:43:26.33Z</time></trkpt><trkpt lat="43.26813" lon="11.475995"><ele>261.1666666666667</ele><time>2026-04-30T09:43:27.33Z</time></trkpt><trkpt lat="43.268065" lon="11.4759217"><ele>261.0</ele><time>2026-04-30T09:43:28.329Z</time></trkpt><trkpt lat="43.268005" lon="11.4758433"><ele>261.3333333333333</ele><time>2026-04-30T09:43:29.33Z</time></trkpt><trkpt lat="43.2679483" lon="11.4757717"><ele>261.6666666666667</ele><time>2026-04-30T09:43:30.33Z</time></trkpt><trkpt lat="43.267895" lon="11.4756867"><ele>262.0</ele><time>2026-04-30T09:43:31.329Z</time></trkpt><trkpt lat="43.2678383" lon="11.475605"><ele>262.33333333333337</ele><time>2026-04-30T09:43:32.329Z</time></trkpt><trkpt lat="43.26779" lon="11.4755217"><ele>262.6666666666667</ele><time>2026-04-30T09:43:33.329Z</time></trkpt><trkpt lat="43.267745" lon="11.4754333"><ele>263.0</ele><time>2026-04-30T09:43:34.33Z</time></trkpt><trkpt lat="43.2677" lon="11.475345"><ele>263.83333333333337</ele><time>2026-04-30T09:43:35.329Z</time></trkpt><trkpt lat="43.2676583" lon="11.4752483"><ele>264.6666666666667</ele><time>2026-04-30T09:43:36.33Z</time></trkpt><trkpt lat="43.2676167" lon="11.475155"><ele>265.5</ele><time>2026-04-30T09:43:37.329Z</time></trkpt><trkpt lat="43.2675767" lon="11.4750567"><ele>266.3333333333333</ele><time>2026-04-30T09:43:38.329Z</time></trkpt><trkpt lat="43.26753" lon="11.4749617"><ele>267.16666666666663</ele><time>2026-04-30T09:43:39.33Z</time></trkpt><trkpt lat="43.2674867" lon="11.4748683"><ele>268.0</ele><time>2026-04-30T09:43:40.33Z</time></trkpt><trkpt lat="43.2674417" lon="11.4747733"><ele>268.0</ele><time>2026-04-30T09:43:41.33Z</time></trkpt><trkpt lat="43.267395" lon="11.4746883"><ele>268.0</ele><time>2026-04-30T09:43:42.33Z</time></trkpt><trkpt lat="43.2673517" lon="11.4745933"><ele>268.0</ele><time>2026-04-30T09:43:43.33Z</time></trkpt><trkpt lat="43.267305" lon="11.4745"><ele>268.0</ele><time>2026-04-30T09:43:44.33Z</time></trkpt><trkpt lat="43.2672683" lon="11.4744083"><ele>268.0</ele><time>2026-04-30T09:43:45.33Z</time></trkpt><trkpt lat="43.2672333" lon="11.4743183"><ele>268.0</ele><time>2026-04-30T09:43:46.33Z</time></trkpt><trkpt lat="43.2671967" lon="11.47424"><ele>269.8333333333333</ele><time>2026-04-30T09:43:47.33Z</time></trkpt><trkpt lat="43.2671467" lon="11.4741683"><ele>271.66666666666663</ele><time>2026-04-30T09:43:48.33Z</time></trkpt><trkpt lat="43.2670917" lon="11.47411"><ele>273.5</ele><time>2026-04-30T09:43:49.33Z</time></trkpt><trkpt lat="43.2670233" lon="11.4740583"><ele>275.3333333333333</ele><time>2026-04-30T09:43:50.33Z</time></trkpt><trkpt lat="43.2669533" lon="11.4740167"><ele>277.1666666666667</ele><time>2026-04-30T09:43:51.33Z</time></trkpt><trkpt lat="43.26688" lon="11.4739817"><ele>279.0</ele><time>2026-04-30T09:43:52.33Z</time></trkpt><trkpt lat="43.2668017" lon="11.4739583"><ele>279.0</ele><time>2026-04-30T09:43:53.33Z</time></trkpt><trkpt lat="43.266715" lon="11.473945"><ele>279.0</ele><time>2026-04-30T09:43:54.329Z</time></trkpt><trkpt lat="43.2666233" lon="11.4739383"><ele>279.0</ele><time>2026-04-30T09:43:55.33Z</time></trkpt><trkpt lat="43.2665317" lon="11.4739217"><ele>279.0</ele><time>2026-04-30T09:43:56.329Z</time></trkpt><trkpt lat="43.266435" lon="11.47392"><ele>279.0</ele><time>2026-04-30T09:43:57.329Z</time></trkpt><trkpt lat="43.2663483" lon="11.4739083"><ele>279.2</ele><time>2026-04-30T09:43:58.33Z</time></trkpt><trkpt lat="43.2662567" lon="11.473895"><ele>279.4</ele><time>2026-04-30T09:43:59.329Z</time></trkpt><trkpt lat="43.266165" lon="11.4738783"><ele>279.6</ele><time>2026-04-30T09:44:00.33Z</time></trkpt><trkpt lat="43.266075" lon="11.473855"><ele>279.8</ele><time>2026-04-30T09:44:01.33Z</time></trkpt><trkpt lat="43.2659867" lon="11.4738317"><ele>280.0</ele><time>2026-04-30T09:44:02.33Z</time></trkpt><trkpt lat="43.2659" lon="11.473805"><ele>280.0</ele><time>2026-04-30T09:44:03.33Z</time></trkpt><trkpt lat="43.2658133" lon="11.47378"><ele>280.0</ele><time>2026-04-30T09:44:04.33Z</time></trkpt><trkpt lat="43.2657233" lon="11.4737383"><ele>280.0</ele><time>2026-04-30T09:44:05.329Z</time></trkpt><trkpt lat="43.265635" lon="11.4736967"><ele>280.0</ele><time>2026-04-30T09:44:06.33Z</time></trkpt><trkpt lat="43.2655483" lon="11.47365"><ele>280.0</ele><time>2026-04-30T09:44:07.329Z</time></trkpt><trkpt lat="43.2654583" lon="11.4736033"><ele>279.4</ele><time>2026-04-30T09:44:08.33Z</time></trkpt><trkpt lat="43.2653667" lon="11.4735533"><ele>278.8</ele><time>2026-04-30T09:44:09.33Z</time></trkpt><trkpt lat="43.265275" lon="11.4735"><ele>278.2</ele><time>2026-04-30T09:44:10.33Z</time></trkpt><trkpt lat="43.2651967" lon="11.4734417"><ele>277.6</ele><time>2026-04-30T09:44:11.33Z</time></trkpt><trkpt lat="43.2651267" lon="11.473385"><ele>277.0</ele><time>2026-04-30T09:44:12.33Z</time></trkpt><trkpt lat="43.2650583" lon="11.473325"><ele>277.0</ele><time>2026-04-30T09:44:13.33Z</time></trkpt><trkpt lat="43.26499" lon="11.473255"><ele>277.0</ele><time>2026-04-30T09:44:14.329Z</time></trkpt><trkpt lat="43.264935" lon="11.4731767"><ele>277.0</ele><time>2026-04-30T09:44:15.329Z</time></trkpt><trkpt lat="43.2648883" lon="11.4730917"><ele>277.0</ele><time>2026-04-30T09:44:16.33Z</time></trkpt><trkpt lat="43.26484" lon="11.4730083"><ele>277.0</ele><time>2026-04-30T09:44:17.33Z</time></trkpt><trkpt lat="43.2648017" lon="11.4729083"><ele>277.0</ele><time>2026-04-30T09:44:18.329Z</time></trkpt><trkpt lat="43.26476" lon="11.4728083"><ele>277.57142857142856</ele><time>2026-04-30T09:44:19.33Z</time></trkpt><trkpt lat="43.2647217" lon="11.4727133"><ele>278.1428571428571</ele><time>2026-04-30T09:44:20.33Z</time></trkpt><trkpt lat="43.264685" lon="11.47262"><ele>278.7142857142857</ele><time>2026-04-30T09:44:21.329Z</time></trkpt><trkpt lat="43.2646517" lon="11.4725317"><ele>279.2857142857143</ele><time>2026-04-30T09:44:22.33Z</time></trkpt><trkpt lat="43.2646167" lon="11.4724383"><ele>279.8571428571429</ele><time>2026-04-30T09:44:23.33Z</time></trkpt><trkpt lat="43.26459" lon="11.4723433"><ele>280.42857142857144</ele><time>2026-04-30T09:44:24.329Z</time></trkpt><trkpt lat="43.2645667" lon="11.472255"><ele>281.0</ele><time>2026-04-30T09:44:25.33Z</time></trkpt><trkpt lat="43.26454" lon="11.4721733"><ele>279.2</ele><time>2026-04-30T09:44:26.329Z</time></trkpt><trkpt lat="43.264485" lon="11.4720383"><ele>277.40000000000003</ele><time>2026-04-30T09:44:28.329Z</time></trkpt><trkpt lat="43.2644383" lon="11.4719033"><ele>275.6</ele><time>2026-04-30T09:44:30.33Z</time></trkpt><trkpt lat="43.2643717" lon="11.4717917"><ele>273.8</ele><time>2026-04-30T09:44:32.33Z</time></trkpt><trkpt lat="43.2642933" lon="11.4717067"><ele>272.0</ele><time>2026-04-30T09:44:34.329Z</time></trkpt><trkpt lat="43.2642133" lon="11.4716233"><ele>272.0</ele><time>2026-04-30T09:44:36.33Z</time></trkpt><trkpt lat="43.2641167" lon="11.4715667"><ele>272.0</ele><time>2026-04-30T09:44:38.33Z</time></trkpt><trkpt lat="43.2640217" lon="11.471495"><ele>272.0</ele><time>2026-04-30T09:44:40.33Z</time></trkpt><trkpt lat="43.26393" lon="11.4714117"><ele>272.0</ele><time>2026-04-30T09:44:42.33Z</time></trkpt><trkpt lat="43.263855" lon="11.4713067"><ele>272.0</ele><time>2026-04-30T09:44:44.33Z</time></trkpt><trkpt lat="43.26379" lon="11.4711633"><ele>269.33333333333337</ele><time>2026-04-30T09:44:46.33Z</time></trkpt><trkpt lat="43.2637667" lon="11.471075"><ele>266.6666666666667</ele><time>2026-04-30T09:44:47.33Z</time></trkpt><trkpt lat="43.2637467" lon="11.47098"><ele>264.0</ele><time>2026-04-30T09:44:48.329Z</time></trkpt><trkpt lat="43.263735" lon="11.4708833"><ele>261.3333333333333</ele><time>2026-04-30T09:44:49.33Z</time></trkpt><trkpt lat="43.2637233" lon="11.47078"><ele>258.66666666666663</ele><time>2026-04-30T09:44:50.329Z</time></trkpt><trkpt lat="43.2637183" lon="11.4706683"><ele>256.0</ele><time>2026-04-30T09:44:51.33Z</time></trkpt><trkpt lat="43.2637133" lon="11.470555"><ele>255.66666666666666</ele><time>2026-04-30T09:44:52.33Z</time></trkpt><trkpt lat="43.2637067" lon="11.4704383"><ele>255.33333333333331</ele><time>2026-04-30T09:44:53.33Z</time></trkpt><trkpt lat="43.263695" lon="11.47032"><ele>255.0</ele><time>2026-04-30T09:44:54.33Z</time></trkpt><trkpt lat="43.2636833" lon="11.4702033"><ele>254.66666666666669</ele><time>2026-04-30T09:44:55.33Z</time></trkpt><trkpt lat="43.26366" lon="11.4700883"><ele>254.33333333333334</ele><time>2026-04-30T09:44:56.33Z</time></trkpt><trkpt lat="43.2636367" lon="11.4699567"><ele>254.0</ele><time>2026-04-30T09:44:57.33Z</time></trkpt><trkpt lat="43.2636067" lon="11.469825"><ele>254.0</ele><time>2026-04-30T09:44:58.33Z</time></trkpt><trkpt lat="43.2635767" lon="11.469705"><ele>253.99999999999997</ele><time>2026-04-30T09:44:59.33Z</time></trkpt><trkpt lat="43.2635467" lon="11.469585"><ele>253.99999999999997</ele><time>2026-04-30T09:45:00.33Z</time></trkpt><trkpt lat="43.2635183" lon="11.46947"><ele>254.0</ele><time>2026-04-30T09:45:01.33Z</time></trkpt><trkpt lat="43.2634883" lon="11.4693583"><ele>254.0</ele><time>2026-04-30T09:45:02.33Z</time></trkpt><trkpt lat="43.26345" lon="11.469245"><ele>253.83333333333334</ele><time>2026-04-30T09:45:03.33Z</time></trkpt><trkpt lat="43.26342" lon="11.4691283"><ele>253.66666666666669</ele><time>2026-04-30T09:45:04.33Z</time></trkpt><trkpt lat="43.2633867" lon="11.469015"><ele>253.5</ele><time>2026-04-30T09:45:05.33Z</time></trkpt><trkpt lat="43.2633483" lon="11.4689083"><ele>253.33333333333331</ele><time>2026-04-30T09:45:06.33Z</time></trkpt><trkpt lat="43.26331" lon="11.4687983"><ele>253.16666666666666</ele><time>2026-04-30T09:45:07.33Z</time></trkpt><trkpt lat="43.2632767" lon="11.46869"><ele>253.0</ele><time>2026-04-30T09:45:08.329Z</time></trkpt><trkpt lat="43.2632417" lon="11.4685817"><ele>252.16666666666666</ele><time>2026-04-30T09:45:09.33Z</time></trkpt><trkpt lat="43.2632083" lon="11.4684833"><ele>251.33333333333331</ele><time>2026-04-30T09:45:10.33Z</time></trkpt><trkpt lat="43.2631733" lon="11.4683833"><ele>250.5</ele><time>2026-04-30T09:45:11.329Z</time></trkpt><trkpt lat="43.2631367" lon="11.4682917"><ele>249.66666666666669</ele><time>2026-04-30T09:45:12.329Z</time></trkpt><trkpt lat="43.263095" lon="11.4682"><ele>248.83333333333334</ele><time>2026-04-30T09:45:13.33Z</time></trkpt><trkpt lat="43.2630467" lon="11.4680983"><ele>248.0</ele><time>2026-04-30T09:45:14.329Z</time></trkpt><trkpt lat="43.2629883" lon="11.46799"><ele>247.4</ele><time>2026-04-30T09:45:15.329Z</time></trkpt><trkpt lat="43.2629233" lon="11.4678717"><ele>246.8</ele><time>2026-04-30T09:45:16.329Z</time></trkpt><trkpt lat="43.2628567" lon="11.4677583"><ele>246.2</ele><time>2026-04-30T09:45:17.329Z</time></trkpt><trkpt lat="43.2627883" lon="11.4676433"><ele>245.6</ele><time>2026-04-30T09:45:18.329Z</time></trkpt><trkpt lat="43.2627167" lon="11.46752"><ele>245.0</ele><time>2026-04-30T09:45:19.33Z</time></trkpt><trkpt lat="43.2626417" lon="11.4673983"><ele>245.0</ele><time>2026-04-30T09:45:20.329Z</time></trkpt><trkpt lat="43.2625683" lon="11.4672717"><ele>245.0</ele><time>2026-04-30T09:45:21.33Z</time></trkpt><trkpt lat="43.2624967" lon="11.467145"><ele>245.0</ele><time>2026-04-30T09:45:22.33Z</time></trkpt><trkpt lat="43.2624267" lon="11.4670117"><ele>245.0</ele><time>2026-04-30T09:45:23.33Z</time></trkpt><trkpt lat="43.2623633" lon="11.4668833"><ele>244.4</ele><time>2026-04-30T09:45:24.33Z</time></trkpt><trkpt lat="43.2623033" lon="11.4667467"><ele>243.8</ele><time>2026-04-30T09:45:25.329Z</time></trkpt><trkpt lat="43.2622417" lon="11.4666183"><ele>243.2</ele><time>2026-04-30T09:45:26.33Z</time></trkpt><trkpt lat="43.2621833" lon="11.4665067"><ele>242.6</ele><time>2026-04-30T09:45:27.33Z</time></trkpt><trkpt lat="43.2621283" lon="11.4663967"><ele>242.0</ele><time>2026-04-30T09:45:28.33Z</time></trkpt><trkpt lat="43.262065" lon="11.466295"><ele>243.39999999999998</ele><time>2026-04-30T09:45:29.33Z</time></trkpt><trkpt lat="43.262" lon="11.4661967"><ele>244.79999999999998</ele><time>2026-04-30T09:45:30.33Z</time></trkpt><trkpt lat="43.2619333" lon="11.4660983"><ele>246.2</ele><time>2026-04-30T09:45:31.33Z</time></trkpt><trkpt lat="43.2618567" lon="11.4659983"><ele>247.6</ele><time>2026-04-30T09:45:32.329Z</time></trkpt><trkpt lat="43.2617733" lon="11.465905"><ele>249.0</ele><time>2026-04-30T09:45:33.329Z</time></trkpt><trkpt lat="43.2616967" lon="11.4658083"><ele>249.0</ele><time>2026-04-30T09:45:34.33Z</time></trkpt><trkpt lat="43.261615" lon="11.4657183"><ele>248.99999999999997</ele><time>2026-04-30T09:45:35.33Z</time></trkpt><trkpt lat="43.26154" lon="11.4656233"><ele>248.99999999999997</ele><time>2026-04-30T09:45:36.329Z</time></trkpt><trkpt lat="43.2614683" lon="11.46552"><ele>249.0</ele><time>2026-04-30T09:45:37.33Z</time></trkpt><trkpt lat="43.2613983" lon="11.465405"><ele>249.0</ele><time>2026-04-30T09:45:38.329Z</time></trkpt><trkpt lat="43.2613367" lon="11.46529"><ele>247.0</ele><time>2026-04-30T09:45:39.33Z</time></trkpt><trkpt lat="43.2612767" lon="11.465165"><ele>245.0</ele><time>2026-04-30T09:45:40.33Z</time></trkpt><trkpt lat="43.2612233" lon="11.4650267"><ele>243.0</ele><time>2026-04-30T09:45:41.33Z</time></trkpt><trkpt lat="43.2611683" lon="11.4648833"><ele>241.0</ele><time>2026-04-30T09:45:42.33Z</time></trkpt><trkpt lat="43.26112" lon="11.4647333"><ele>243.0</ele><time>2026-04-30T09:45:43.33Z</time></trkpt><trkpt lat="43.261065" lon="11.4645883"><ele>245.0</ele><time>2026-04-30T09:45:44.33Z</time></trkpt><trkpt lat="43.2610133" lon="11.4644383"><ele>247.0</ele><time>2026-04-30T09:45:45.33Z</time></trkpt><trkpt lat="43.2609633" lon="11.4642817"><ele>249.0</ele><time>2026-04-30T09:45:46.329Z</time></trkpt><trkpt lat="43.26091" lon="11.4641383"><ele>249.0</ele><time>2026-04-30T09:45:47.33Z</time></trkpt><trkpt lat="43.2608533" lon="11.4640067"><ele>248.99999999999997</ele><time>2026-04-30T09:45:48.329Z</time></trkpt><trkpt lat="43.2608017" lon="11.4638833"><ele>248.99999999999997</ele><time>2026-04-30T09:45:49.329Z</time></trkpt><trkpt lat="43.260735" lon="11.4637817"><ele>249.0</ele><time>2026-04-30T09:45:50.33Z</time></trkpt><trkpt lat="43.260665" lon="11.4636783"><ele>249.0</ele><time>2026-04-30T09:45:51.329Z</time></trkpt><trkpt lat="43.2605933" lon="11.463585"><ele>249.39999999999998</ele><time>2026-04-30T09:45:52.33Z</time></trkpt><trkpt lat="43.26051" lon="11.4635067"><ele>249.79999999999998</ele><time>2026-04-30T09:45:53.33Z</time></trkpt><trkpt lat="43.2604183" lon="11.4634367"><ele>250.20000000000002</ele><time>2026-04-30T09:45:54.33Z</time></trkpt><trkpt lat="43.26032" lon="11.46338"><ele>250.60000000000002</ele><time>2026-04-30T09:45:55.33Z</time></trkpt><trkpt lat="43.2602233" lon="11.4633317"><ele>251.0</ele><time>2026-04-30T09:45:56.329Z</time></trkpt><trkpt lat="43.260125" lon="11.4632867"><ele>251.0</ele><time>2026-04-30T09:45:57.33Z</time></trkpt><trkpt lat="43.2600317" lon="11.46323"><ele>251.00000000000003</ele><time>2026-04-30T09:45:58.33Z</time></trkpt><trkpt lat="43.25994" lon="11.4631567"><ele>251.00000000000003</ele><time>2026-04-30T09:45:59.33Z</time></trkpt><trkpt lat="43.2598467" lon="11.4630683"><ele>251.0</ele><time>2026-04-30T09:46:00.329Z</time></trkpt><trkpt lat="43.2597517" lon="11.4629667"><ele>251.0</ele><time>2026-04-30T09:46:01.329Z</time></trkpt><trkpt lat="43.2596633" lon="11.46286"><ele>249.75</ele><time>2026-04-30T09:46:02.33Z</time></trkpt><trkpt lat="43.259575" lon="11.46275"><ele>248.5</ele><time>2026-04-30T09:46:03.33Z</time></trkpt><trkpt lat="43.2594917" lon="11.46264"><ele>247.25</ele><time>2026-04-30T09:46:04.33Z</time></trkpt><trkpt lat="43.25941" lon="11.4625267"><ele>246.0</ele><time>2026-04-30T09:46:05.33Z</time></trkpt><trkpt lat="43.259325" lon="11.46242"><ele>246.0</ele><time>2026-04-30T09:46:06.33Z</time></trkpt><trkpt lat="43.2592383" lon="11.46231"><ele>246.00000000000003</ele><time>2026-04-30T09:46:07.33Z</time></trkpt><trkpt lat="43.2591517" lon="11.4622"><ele>246.00000000000003</ele><time>2026-04-30T09:46:08.329Z</time></trkpt><trkpt lat="43.25908" lon="11.4620983"><ele>246.0</ele><time>2026-04-30T09:46:09.329Z</time></trkpt><trkpt lat="43.2590033" lon="11.4620067"><ele>246.0</ele><time>2026-04-30T09:46:10.33Z</time></trkpt><trkpt lat="43.258925" lon="11.4619233"><ele>245.8</ele><time>2026-04-30T09:46:11.329Z</time></trkpt><trkpt lat="43.2588433" lon="11.4618417"><ele>245.60000000000002</ele><time>2026-04-30T09:46:12.329Z</time></trkpt><trkpt lat="43.2587517" lon="11.4617633"><ele>245.4</ele><time>2026-04-30T09:46:13.33Z</time></trkpt><trkpt lat="43.2586567" lon="11.4616917"><ele>245.2</ele><time>2026-04-30T09:46:14.33Z</time></trkpt><trkpt lat="43.2585583" lon="11.4616233"><ele>245.0</ele><time>2026-04-30T09:46:15.329Z</time></trkpt><trkpt lat="43.25847" lon="11.4615567"><ele>245.0</ele><time>2026-04-30T09:46:16.329Z</time></trkpt><trkpt lat="43.2583833" lon="11.4615"><ele>245.0</ele><time>2026-04-30T09:46:17.33Z</time></trkpt><trkpt lat="43.2583033" lon="11.4614483"><ele>245.0</ele><time>2026-04-30T09:46:18.33Z</time></trkpt><trkpt lat="43.25822" lon="11.4614117"><ele>245.0</ele><time>2026-04-30T09:46:19.33Z</time></trkpt><trkpt lat="43.2581267" lon="11.4613933"><ele>245.0</ele><time>2026-04-30T09:46:20.33Z</time></trkpt><trkpt lat="43.2580333" lon="11.4613883"><ele>245.0</ele><time>2026-04-30T09:46:21.33Z</time></trkpt><trkpt lat="43.257935" lon="11.4614133"><ele>245.0</ele><time>2026-04-30T09:46:22.33Z</time></trkpt><trkpt lat="43.2578433" lon="11.461455"><ele>245.0</ele><time>2026-04-30T09:46:23.33Z</time></trkpt><trkpt lat="43.2577583" lon="11.4615133"><ele>245.0</ele><time>2026-04-30T09:46:24.329Z</time></trkpt><trkpt lat="43.2576717" lon="11.4615817"><ele>245.0</ele><time>2026-04-30T09:46:25.329Z</time></trkpt><trkpt lat="43.2575833" lon="11.461665"><ele>245.0</ele><time>2026-04-30T09:46:26.33Z</time></trkpt><trkpt lat="43.2575033" lon="11.4617467"><ele>245.0</ele><time>2026-04-30T09:46:27.33Z</time></trkpt><trkpt lat="43.25742" lon="11.4618233"><ele>245.0</ele><time>2026-04-30T09:46:28.33Z</time></trkpt><trkpt lat="43.257345" lon="11.461895"><ele>245.0</ele><time>2026-04-30T09:46:29.33Z</time></trkpt><trkpt lat="43.2572767" lon="11.4619583"><ele>245.0</ele><time>2026-04-30T09:46:30.33Z</time></trkpt><trkpt lat="43.257205" lon="11.4620233"><ele>243.83333333333334</ele><time>2026-04-30T09:46:31.329Z</time></trkpt><trkpt lat="43.257135" lon="11.4620767"><ele>242.66666666666669</ele><time>2026-04-30T09:46:32.33Z</time></trkpt><trkpt lat="43.2570667" lon="11.462135"><ele>241.5</ele><time>2026-04-30T09:46:33.329Z</time></trkpt><trkpt lat="43.2569917" lon="11.4621867"><ele>240.33333333333331</ele><time>2026-04-30T09:46:34.33Z</time></trkpt><trkpt lat="43.25691" lon="11.462225"><ele>239.16666666666666</ele><time>2026-04-30T09:46:35.33Z</time></trkpt><trkpt lat="43.25683" lon="11.46225"><ele>238.0</ele><time>2026-04-30T09:46:36.33Z</time></trkpt><trkpt lat="43.25675" lon="11.46226"><ele>237.4</ele><time>2026-04-30T09:46:37.329Z</time></trkpt><trkpt lat="43.25666" lon="11.4622517"><ele>236.8</ele><time>2026-04-30T09:46:38.33Z</time></trkpt><trkpt lat="43.2565717" lon="11.46223"><ele>236.2</ele><time>2026-04-30T09:46:39.33Z</time></trkpt><trkpt lat="43.2564833" lon="11.4622"><ele>235.6</ele><time>2026-04-30T09:46:40.33Z</time></trkpt><trkpt lat="43.256395" lon="11.4621567"><ele>235.0</ele><time>2026-04-30T09:46:41.329Z</time></trkpt><trkpt lat="43.2562967" lon="11.4621117"><ele>234.0</ele><time>2026-04-30T09:46:42.33Z</time></trkpt><trkpt lat="43.256195" lon="11.4620667"><ele>233.0</ele><time>2026-04-30T09:46:43.329Z</time></trkpt><trkpt lat="43.2560933" lon="11.46202"><ele>232.0</ele><time>2026-04-30T09:46:44.33Z</time></trkpt><trkpt lat="43.2559917" lon="11.4619667"><ele>231.0</ele><time>2026-04-30T09:46:45.329Z</time></trkpt><trkpt lat="43.25589" lon="11.4619133"><ele>230.0</ele><time>2026-04-30T09:46:46.33Z</time></trkpt><trkpt lat="43.2557817" lon="11.461865"><ele>230.0</ele><time>2026-04-30T09:46:47.33Z</time></trkpt><trkpt lat="43.2556833" lon="11.4618167"><ele>230.0</ele><time>2026-04-30T09:46:48.33Z</time></trkpt><trkpt lat="43.2555817" lon="11.4617717"><ele>230.0</ele><time>2026-04-30T09:46:49.33Z</time></trkpt><trkpt lat="43.2554817" lon="11.4617367"><ele>230.0</ele><time>2026-04-30T09:46:50.33Z</time></trkpt><trkpt lat="43.2553767" lon="11.46171"><ele>230.0</ele><time>2026-04-30T09:46:51.33Z</time></trkpt><trkpt lat="43.2552717" lon="11.4616983"><ele>230.6</ele><time>2026-04-30T09:46:52.33Z</time></trkpt><trkpt lat="43.2551683" lon="11.4617"><ele>231.2</ele><time>2026-04-30T09:46:53.33Z</time></trkpt><trkpt lat="43.25506" lon="11.461705"><ele>231.8</ele><time>2026-04-30T09:46:54.329Z</time></trkpt><trkpt lat="43.2549517" lon="11.4617117"><ele>232.4</ele><time>2026-04-30T09:46:55.329Z</time></trkpt><trkpt lat="43.2548517" lon="11.461715"><ele>233.0</ele><time>2026-04-30T09:46:56.33Z</time></trkpt><trkpt lat="43.25476" lon="11.46172"><ele>233.00000000000003</ele><time>2026-04-30T09:46:57.33Z</time></trkpt><trkpt lat="43.2546667" lon="11.46172"><ele>233.0</ele><time>2026-04-30T09:46:58.33Z</time></trkpt><trkpt lat="43.25458" lon="11.461705"><ele>233.0</ele><time>2026-04-30T09:46:59.329Z</time></trkpt><trkpt lat="43.2544983" lon="11.461685"><ele>233.0</ele><time>2026-04-30T09:47:00.33Z</time></trkpt><trkpt lat="43.254425" lon="11.4616483"><ele>233.00000000000003</ele><time>2026-04-30T09:47:01.33Z</time></trkpt><trkpt lat="43.25436" lon="11.461595"><ele>233.0</ele><time>2026-04-30T09:47:02.33Z</time></trkpt><trkpt lat="43.2542983" lon="11.461515"><ele>233.0</ele><time>2026-04-30T09:47:03.33Z</time></trkpt><trkpt lat="43.2542333" lon="11.461415"><ele>233.0</ele><time>2026-04-30T09:47:04.329Z</time></trkpt><trkpt lat="43.2541667" lon="11.4613"><ele>233.0</ele><time>2026-04-30T09:47:05.33Z</time></trkpt><trkpt lat="43.25409" lon="11.461175"><ele>233.0</ele><time>2026-04-30T09:47:06.329Z</time></trkpt><trkpt lat="43.254015" lon="11.4610367"><ele>233.0</ele><time>2026-04-30T09:47:07.33Z</time></trkpt><trkpt lat="43.2539333" lon="11.4609017"><ele>232.0</ele><time>2026-04-30T09:47:08.329Z</time></trkpt><trkpt lat="43.2538567" lon="11.4607733"><ele>231.0</ele><time>2026-04-30T09:47:09.33Z</time></trkpt><trkpt lat="43.25379" lon="11.46065"><ele>230.0</ele><time>2026-04-30T09:47:10.33Z</time></trkpt><trkpt lat="43.2537433" lon="11.46052"><ele>229.0</ele><time>2026-04-30T09:47:11.329Z</time></trkpt><trkpt lat="43.2536967" lon="11.460385"><ele>228.0</ele><time>2026-04-30T09:47:12.33Z</time></trkpt><trkpt lat="43.2536567" lon="11.460255"><ele>230.0</ele><time>2026-04-30T09:47:13.33Z</time></trkpt><trkpt lat="43.25361" lon="11.4601383"><ele>232.0</ele><time>2026-04-30T09:47:14.33Z</time></trkpt><trkpt lat="43.253555" lon="11.4600317"><ele>234.0</ele><time>2026-04-30T09:47:15.329Z</time></trkpt><trkpt lat="43.253485" lon="11.4599233"><ele>236.0</ele><time>2026-04-30T09:47:16.33Z</time></trkpt><trkpt lat="43.2534033" lon="11.45983"><ele>238.0</ele><time>2026-04-30T09:47:17.33Z</time></trkpt><trkpt lat="43.2533167" lon="11.45974"><ele>238.0</ele><time>2026-04-30T09:47:18.33Z</time></trkpt><trkpt lat="43.2532317" lon="11.4596417"><ele>238.0</ele><time>2026-04-30T09:47:19.33Z</time></trkpt><trkpt lat="43.2531317" lon="11.45956"><ele>238.0</ele><time>2026-04-30T09:47:20.33Z</time></trkpt><trkpt lat="43.2530267" lon="11.4594833"><ele>238.0</ele><time>2026-04-30T09:47:21.33Z</time></trkpt><trkpt lat="43.25293" lon="11.4594217"><ele>239.57142857142856</ele><time>2026-04-30T09:47:22.329Z</time></trkpt><trkpt lat="43.2528583" lon="11.4593767"><ele>241.14285714285714</ele><time>2026-04-30T09:47:23.33Z</time></trkpt><trkpt lat="43.2528" lon="11.459315"><ele>242.71428571428572</ele><time>2026-04-30T09:47:24.33Z</time></trkpt><trkpt lat="43.2527583" lon="11.459235"><ele>244.28571428571428</ele><time>2026-04-30T09:47:25.33Z</time></trkpt><trkpt lat="43.2527317" lon="11.4591417"><ele>245.85714285714283</ele><time>2026-04-30T09:47:26.329Z</time></trkpt><trkpt lat="43.25272" lon="11.459045"><ele>247.42857142857142</ele><time>2026-04-30T09:47:27.329Z</time></trkpt><trkpt lat="43.252725" lon="11.458945"><ele>249.0</ele><time>2026-04-30T09:47:28.329Z</time></trkpt><trkpt lat="43.25274" lon="11.4588367"><ele>250.83333333333334</ele><time>2026-04-30T09:47:29.33Z</time></trkpt><trkpt lat="43.2527583" lon="11.4587183"><ele>252.66666666666669</ele><time>2026-04-30T09:47:30.329Z</time></trkpt><trkpt lat="43.252775" lon="11.4586033"><ele>254.5</ele><time>2026-04-30T09:47:31.33Z</time></trkpt><trkpt lat="43.2527917" lon="11.4584867"><ele>256.33333333333337</ele><time>2026-04-30T09:47:32.329Z</time></trkpt><trkpt lat="43.2528" lon="11.4583717"><ele>258.1666666666667</ele><time>2026-04-30T09:47:33.33Z</time></trkpt><trkpt lat="43.2527933" lon="11.4582583"><ele>260.0</ele><time>2026-04-30T09:47:34.33Z</time></trkpt><trkpt lat="43.2527783" lon="11.4581617"><ele>260.0</ele><time>2026-04-30T09:47:35.33Z</time></trkpt><trkpt lat="43.25275" lon="11.458075"><ele>260.0</ele><time>2026-04-30T09:47:36.33Z</time></trkpt><trkpt lat="43.2527067" lon="11.45799"><ele>260.0</ele><time>2026-04-30T09:47:37.329Z</time></trkpt><trkpt lat="43.25265" lon="11.45792"><ele>260.0</ele><time>2026-04-30T09:47:38.329Z</time></trkpt><trkpt lat="43.2525733" lon="11.4578517"><ele>260.0</ele><time>2026-04-30T09:47:39.329Z</time></trkpt><trkpt lat="43.2524817" lon="11.457785"><ele>260.0</ele><time>2026-04-30T09:47:40.329Z</time></trkpt><trkpt lat="43.25238" lon="11.4577217"><ele>261.2</ele><time>2026-04-30T09:47:41.329Z</time></trkpt><trkpt lat="43.2522767" lon="11.4576533"><ele>262.4</ele><time>2026-04-30T09:47:42.329Z</time></trkpt><trkpt lat="43.25217" lon="11.4575867"><ele>263.6</ele><time>2026-04-30T09:47:43.329Z</time></trkpt><trkpt lat="43.2520733" lon="11.4575167"><ele>264.8</ele><time>2026-04-30T09:47:44.329Z</time></trkpt><trkpt lat="43.2519883" lon="11.4574567"><ele>266.0</ele><time>2026-04-30T09:47:45.329Z</time></trkpt><trkpt lat="43.2519133" lon="11.45741"><ele>266.0</ele><time>2026-04-30T09:47:46.328Z</time></trkpt><trkpt lat="43.251845" lon="11.4573817"><ele>266.0</ele><time>2026-04-30T09:47:47.329Z</time></trkpt><trkpt lat="43.251725" lon="11.4574083"><ele>266.0</ele><time>2026-04-30T09:47:49.328Z</time></trkpt><trkpt lat="43.2516667" lon="11.4574567"><ele>266.0</ele><time>2026-04-30T09:47:50.328Z</time></trkpt><trkpt lat="43.2515567" lon="11.4575333"><ele>266.0</ele><time>2026-04-30T09:47:52.329Z</time></trkpt><trkpt lat="43.2514933" lon="11.4575567"><ele>265.7142857142857</ele><time>2026-04-30T09:47:53.329Z</time></trkpt><trkpt lat="43.2514283" lon="11.4575617"><ele>265.42857142857144</ele><time>2026-04-30T09:47:54.329Z</time></trkpt><trkpt lat="43.2513583" lon="11.4575583"><ele>265.1428571428571</ele><time>2026-04-30T09:47:55.329Z</time></trkpt><trkpt lat="43.2512917" lon="11.4575433"><ele>264.8571428571429</ele><time>2026-04-30T09:47:56.329Z</time></trkpt><trkpt lat="43.251225" lon="11.457525"><ele>264.57142857142856</ele><time>2026-04-30T09:47:57.329Z</time></trkpt><trkpt lat="43.251155" lon="11.4574917"><ele>264.2857142857143</ele><time>2026-04-30T09:47:58.329Z</time></trkpt><trkpt lat="43.2510767" lon="11.4574567"><ele>264.0</ele><time>2026-04-30T09:47:59.328Z</time></trkpt><trkpt lat="43.2509933" lon="11.457415"><ele>264.0</ele><time>2026-04-30T09:48:00.328Z</time></trkpt><trkpt lat="43.2509017" lon="11.4573733"><ele>264.0</ele><time>2026-04-30T09:48:01.329Z</time></trkpt><trkpt lat="43.25081" lon="11.45734"><ele>264.0</ele><time>2026-04-30T09:48:02.329Z</time></trkpt><trkpt lat="43.2507033" lon="11.4572717"><ele>264.0</ele><time>2026-04-30T09:48:03.328Z</time></trkpt><trkpt lat="43.2506133" lon="11.4572167"><ele>264.0</ele><time>2026-04-30T09:48:04.328Z</time></trkpt><trkpt lat="43.25052" lon="11.4571733"><ele>262.0</ele><time>2026-04-30T09:48:05.329Z</time></trkpt><trkpt lat="43.2504233" lon="11.4571233"><ele>260.0</ele><time>2026-04-30T09:48:06.329Z</time></trkpt><trkpt lat="43.250325" lon="11.4570533"><ele>258.0</ele><time>2026-04-30T09:48:07.329Z</time></trkpt><trkpt lat="43.250225" lon="11.4569867"><ele>256.0</ele><time>2026-04-30T09:48:08.329Z</time></trkpt><trkpt lat="43.25013" lon="11.4569317"><ele>254.0</ele><time>2026-04-30T09:48:09.329Z</time></trkpt><trkpt lat="43.2500333" lon="11.4568683"><ele>254.00000000000003</ele><time>2026-04-30T09:48:10.329Z</time></trkpt><trkpt lat="43.2499433" lon="11.4568133"><ele>254.0</ele><time>2026-04-30T09:48:11.329Z</time></trkpt><trkpt lat="43.2498567" lon="11.4567667"><ele>254.0</ele><time>2026-04-30T09:48:12.328Z</time></trkpt><trkpt lat="43.2497767" lon="11.4567283"><ele>254.0</ele><time>2026-04-30T09:48:13.329Z</time></trkpt><trkpt lat="43.2497067" lon="11.4566817"><ele>254.00000000000003</ele><time>2026-04-30T09:48:14.329Z</time></trkpt><trkpt lat="43.2496483" lon="11.45663"><ele>254.0</ele><time>2026-04-30T09:48:15.329Z</time></trkpt><trkpt lat="43.24956" lon="11.45655"><ele>254.6</ele><time>2026-04-30T09:48:17.329Z</time></trkpt><trkpt lat="43.249485" lon="11.4564567"><ele>255.2</ele><time>2026-04-30T09:48:19.328Z</time></trkpt><trkpt lat="43.2494133" lon="11.4563617"><ele>255.79999999999998</ele><time>2026-04-30T09:48:21.328Z</time></trkpt><trkpt lat="43.2493333" lon="11.456265"><ele>256.4</ele><time>2026-04-30T09:48:23.328Z</time></trkpt><trkpt lat="43.2492367" lon="11.4561733"><ele>257.0</ele><time>2026-04-30T09:48:25.329Z</time></trkpt><trkpt lat="43.2491467" lon="11.456095"><ele>255.33333333333334</ele><time>2026-04-30T09:48:27.329Z</time></trkpt><trkpt lat="43.2490383" lon="11.456055"><ele>253.66666666666669</ele><time>2026-04-30T09:48:29.329Z</time></trkpt><trkpt lat="43.2489767" lon="11.4560367"><ele>252.0</ele><time>2026-04-30T09:48:30.328Z</time></trkpt><trkpt lat="43.24891" lon="11.4560183"><ele>250.33333333333331</ele><time>2026-04-30T09:48:31.329Z</time></trkpt><trkpt lat="43.2488433" lon="11.4560183"><ele>248.66666666666666</ele><time>2026-04-30T09:48:32.329Z</time></trkpt><trkpt lat="43.2487583" lon="11.4560033"><ele>247.0</ele><time>2026-04-30T09:48:33.329Z</time></trkpt><trkpt lat="43.2486733" lon="11.455985"><ele>246.83333333333331</ele><time>2026-04-30T09:48:34.329Z</time></trkpt><trkpt lat="43.2485867" lon="11.4559683"><ele>246.66666666666666</ele><time>2026-04-30T09:48:35.329Z</time></trkpt><trkpt lat="43.2485017" lon="11.4559533"><ele>246.5</ele><time>2026-04-30T09:48:36.329Z</time></trkpt><trkpt lat="43.2484183" lon="11.4559417"><ele>246.33333333333331</ele><time>2026-04-30T09:48:37.329Z</time></trkpt><trkpt lat="43.2483367" lon="11.45593"><ele>246.16666666666666</ele><time>2026-04-30T09:48:38.329Z</time></trkpt><trkpt lat="43.248265" lon="11.455925"><ele>246.0</ele><time>2026-04-30T09:48:39.329Z</time></trkpt><trkpt lat="43.2481933" lon="11.4559083"><ele>246.0</ele><time>2026-04-30T09:48:40.329Z</time></trkpt><trkpt lat="43.2481317" lon="11.4558883"><ele>246.0</ele><time>2026-04-30T09:48:41.329Z</time></trkpt><trkpt lat="43.248015" lon="11.4558167"><ele>246.0</ele><time>2026-04-30T09:48:43.329Z</time></trkpt><trkpt lat="43.2479567" lon="11.455755"><ele>246.0</ele><time>2026-04-30T09:48:44.329Z</time></trkpt><trkpt lat="43.2479" lon="11.4556817"><ele>246.0</ele><time>2026-04-30T09:48:45.329Z</time></trkpt><trkpt lat="43.2478483" lon="11.4555983"><ele>246.0</ele><time>2026-04-30T09:48:46.329Z</time></trkpt><trkpt lat="43.247805" lon="11.4555083"><ele>244.66666666666666</ele><time>2026-04-30T09:48:47.328Z</time></trkpt><trkpt lat="43.2477617" lon="11.455415"><ele>243.33333333333331</ele><time>2026-04-30T09:48:48.329Z</time></trkpt><trkpt lat="43.2477267" lon="11.4553267"><ele>242.0</ele><time>2026-04-30T09:48:49.329Z</time></trkpt><trkpt lat="43.2476933" lon="11.4552367"><ele>240.66666666666666</ele><time>2026-04-30T09:48:50.329Z</time></trkpt><trkpt lat="43.2476633" lon="11.455155"><ele>239.33333333333331</ele><time>2026-04-30T09:48:51.329Z</time></trkpt><trkpt lat="43.2476417" lon="11.455065"><ele>238.0</ele><time>2026-04-30T09:48:52.328Z</time></trkpt><trkpt lat="43.2475933" lon="11.4549167"><ele>237.99999999999997</ele><time>2026-04-30T09:48:54.329Z</time></trkpt><trkpt lat="43.2475617" lon="11.4547667"><ele>238.0</ele><time>2026-04-30T09:48:56.329Z</time></trkpt><trkpt lat="43.24755" lon="11.45468"><ele>238.0</ele><time>2026-04-30T09:48:57.329Z</time></trkpt><trkpt lat="43.247525" lon="11.4545133"><ele>238.0</ele><time>2026-04-30T09:48:59.329Z</time></trkpt><trkpt lat="43.24752" lon="11.454415"><ele>237.99999999999997</ele><time>2026-04-30T09:49:00.329Z</time></trkpt><trkpt lat="43.2475167" lon="11.4543133"><ele>238.0</ele><time>2026-04-30T09:49:01.328Z</time></trkpt><trkpt lat="43.2475133" lon="11.4542"><ele>237.16666666666666</ele><time>2026-04-30T09:49:02.329Z</time></trkpt><trkpt lat="43.2475117" lon="11.454085"><ele>236.33333333333331</ele><time>2026-04-30T09:49:03.329Z</time></trkpt><trkpt lat="43.247515" lon="11.4539733"><ele>235.5</ele><time>2026-04-30T09:49:04.329Z</time></trkpt><trkpt lat="43.2475233" lon="11.4538633"><ele>234.66666666666669</ele><time>2026-04-30T09:49:05.329Z</time></trkpt><trkpt lat="43.2475383" lon="11.4537533"><ele>233.83333333333334</ele><time>2026-04-30T09:49:06.329Z</time></trkpt><trkpt lat="43.247555" lon="11.4536483"><ele>233.0</ele><time>2026-04-30T09:49:07.328Z</time></trkpt><trkpt lat="43.2475817" lon="11.4535467"><ele>231.83333333333334</ele><time>2026-04-30T09:49:08.328Z</time></trkpt><trkpt lat="43.2476167" lon="11.4534483"><ele>230.66666666666669</ele><time>2026-04-30T09:49:09.329Z</time></trkpt><trkpt lat="43.2476683" lon="11.4533417"><ele>229.5</ele><time>2026-04-30T09:49:10.328Z</time></trkpt><trkpt lat="43.2477217" lon="11.4532433"><ele>228.33333333333331</ele><time>2026-04-30T09:49:11.329Z</time></trkpt><trkpt lat="43.2477767" lon="11.45315"><ele>227.16666666666666</ele><time>2026-04-30T09:49:12.328Z</time></trkpt><trkpt lat="43.2478233" lon="11.453065"><ele>226.0</ele><time>2026-04-30T09:49:13.329Z</time></trkpt><trkpt lat="43.247855" lon="11.452965"><ele>224.99999999999997</ele><time>2026-04-30T09:49:14.329Z</time></trkpt><trkpt lat="43.24788" lon="11.452865"><ele>224.0</ele><time>2026-04-30T09:49:15.329Z</time></trkpt><trkpt lat="43.2478933" lon="11.4527633"><ele>223.0</ele><time>2026-04-30T09:49:16.329Z</time></trkpt><trkpt lat="43.2478983" lon="11.4526633"><ele>222.0</ele><time>2026-04-30T09:49:17.329Z</time></trkpt><trkpt lat="43.2479033" lon="11.4525483"><ele>220.99999999999997</ele><time>2026-04-30T09:49:18.329Z</time></trkpt><trkpt lat="43.2479083" lon="11.452395"><ele>220.0</ele><time>2026-04-30T09:49:19.329Z</time></trkpt><trkpt lat="43.2479067" lon="11.45225"><ele>219.8</ele><time>2026-04-30T09:49:20.328Z</time></trkpt><trkpt lat="43.247905" lon="11.4521117"><ele>219.6</ele><time>2026-04-30T09:49:21.328Z</time></trkpt><trkpt lat="43.2479067" lon="11.4519717"><ele>219.39999999999998</ele><time>2026-04-30T09:49:22.329Z</time></trkpt><trkpt lat="43.247905" lon="11.4518367"><ele>219.2</ele><time>2026-04-30T09:49:23.328Z</time></trkpt><trkpt lat="43.2479067" lon="11.4516967"><ele>219.0</ele><time>2026-04-30T09:49:24.329Z</time></trkpt><trkpt lat="43.2479033" lon="11.45155"><ele>219.0</ele><time>2026-04-30T09:49:25.328Z</time></trkpt><trkpt lat="43.247905" lon="11.4513967"><ele>218.99999999999997</ele><time>2026-04-30T09:49:26.329Z</time></trkpt><trkpt lat="43.247905" lon="11.4512517"><ele>218.99999999999997</ele><time>2026-04-30T09:49:27.328Z</time></trkpt><trkpt lat="43.2479117" lon="11.4510967"><ele>219.0</ele><time>2026-04-30T09:49:28.329Z</time></trkpt><trkpt lat="43.24792" lon="11.4509433"><ele>219.0</ele><time>2026-04-30T09:49:29.329Z</time></trkpt><trkpt lat="43.2479333" lon="11.4507867"><ele>218.79999999999998</ele><time>2026-04-30T09:49:30.329Z</time></trkpt><trkpt lat="43.2479517" lon="11.4506267"><ele>218.59999999999997</ele><time>2026-04-30T09:49:31.329Z</time></trkpt><trkpt lat="43.2479683" lon="11.450475"><ele>218.4</ele><time>2026-04-30T09:49:32.329Z</time></trkpt><trkpt lat="43.24798" lon="11.4503333"><ele>218.2</ele><time>2026-04-30T09:49:33.329Z</time></trkpt><trkpt lat="43.2479917" lon="11.4501933"><ele>218.0</ele><time>2026-04-30T09:49:34.329Z</time></trkpt><trkpt lat="43.2479983" lon="11.450055"><ele>220.0</ele><time>2026-04-30T09:49:35.329Z</time></trkpt><trkpt lat="43.2480233" lon="11.4499267"><ele>222.0</ele><time>2026-04-30T09:49:36.329Z</time></trkpt><trkpt lat="43.2480467" lon="11.4498017"><ele>224.0</ele><time>2026-04-30T09:49:37.329Z</time></trkpt><trkpt lat="43.2480817" lon="11.4496833"><ele>226.0</ele><time>2026-04-30T09:49:38.329Z</time></trkpt><trkpt lat="43.24812" lon="11.4495767"><ele>228.0</ele><time>2026-04-30T09:49:39.329Z</time></trkpt><trkpt lat="43.2481567" lon="11.44948"><ele>229.14285714285714</ele><time>2026-04-30T09:49:40.329Z</time></trkpt><trkpt lat="43.248185" lon="11.4493817"><ele>230.28571428571428</ele><time>2026-04-30T09:49:41.329Z</time></trkpt><trkpt lat="43.2482083" lon="11.4492783"><ele>231.42857142857142</ele><time>2026-04-30T09:49:42.328Z</time></trkpt><trkpt lat="43.2482317" lon="11.4491817"><ele>232.57142857142856</ele><time>2026-04-30T09:49:43.329Z</time></trkpt><trkpt lat="43.2482517" lon="11.4490817"><ele>233.71428571428572</ele><time>2026-04-30T09:49:44.328Z</time></trkpt><trkpt lat="43.2482717" lon="11.4489917"><ele>234.85714285714283</ele><time>2026-04-30T09:49:45.329Z</time></trkpt><trkpt lat="43.2483017" lon="11.4489083"><ele>236.0</ele><time>2026-04-30T09:49:46.328Z</time></trkpt><trkpt lat="43.2483333" lon="11.4488267"><ele>235.33333333333334</ele><time>2026-04-30T09:49:47.329Z</time></trkpt><trkpt lat="43.2483717" lon="11.4487417"><ele>234.66666666666669</ele><time>2026-04-30T09:49:48.329Z</time></trkpt><trkpt lat="43.2484083" lon="11.4486533"><ele>234.0</ele><time>2026-04-30T09:49:49.329Z</time></trkpt><trkpt lat="43.2484333" lon="11.4485583"><ele>233.33333333333331</ele><time>2026-04-30T09:49:50.329Z</time></trkpt><trkpt lat="43.248455" lon="11.448455"><ele>232.66666666666666</ele><time>2026-04-30T09:49:51.328Z</time></trkpt><trkpt lat="43.2484683" lon="11.4483567"><ele>232.0</ele><time>2026-04-30T09:49:52.329Z</time></trkpt><trkpt lat="43.2484783" lon="11.44824"><ele>231.99999999999997</ele><time>2026-04-30T09:49:53.329Z</time></trkpt><trkpt lat="43.2484783" lon="11.448125"><ele>232.0</ele><time>2026-04-30T09:49:54.329Z</time></trkpt><trkpt lat="43.2484767" lon="11.448005"><ele>232.0</ele><time>2026-04-30T09:49:55.328Z</time></trkpt><trkpt lat="43.24847" lon="11.4478917"><ele>232.0</ele><time>2026-04-30T09:49:56.329Z</time></trkpt><trkpt lat="43.2484683" lon="11.447785"><ele>231.99999999999997</ele><time>2026-04-30T09:49:57.328Z</time></trkpt><trkpt lat="43.2484633" lon="11.4476717"><ele>232.0</ele><time>2026-04-30T09:49:58.329Z</time></trkpt><trkpt lat="43.2484667" lon="11.4475533"><ele>231.33333333333331</ele><time>2026-04-30T09:49:59.328Z</time></trkpt><trkpt lat="43.2484633" lon="11.4474433"><ele>230.66666666666666</ele><time>2026-04-30T09:50:00.329Z</time></trkpt><trkpt lat="43.24846" lon="11.4473267"><ele>230.0</ele><time>2026-04-30T09:50:01.329Z</time></trkpt><trkpt lat="43.2484533" lon="11.4472167"><ele>229.33333333333331</ele><time>2026-04-30T09:50:02.329Z</time></trkpt><trkpt lat="43.24844" lon="11.4471"><ele>228.66666666666666</ele><time>2026-04-30T09:50:03.329Z</time></trkpt><trkpt lat="43.24843" lon="11.446985"><ele>228.0</ele><time>2026-04-30T09:50:04.329Z</time></trkpt><trkpt lat="43.2484267" lon="11.446865"><ele>227.0</ele><time>2026-04-30T09:50:05.329Z</time></trkpt><trkpt lat="43.2484233" lon="11.4467533"><ele>225.99999999999997</ele><time>2026-04-30T09:50:06.329Z</time></trkpt><trkpt lat="43.2484217" lon="11.4466467"><ele>225.0</ele><time>2026-04-30T09:50:07.328Z</time></trkpt><trkpt lat="43.2484217" lon="11.4465417"><ele>224.0</ele><time>2026-04-30T09:50:08.329Z</time></trkpt><trkpt lat="43.2484283" lon="11.4464433"><ele>223.0</ele><time>2026-04-30T09:50:09.329Z</time></trkpt><trkpt lat="43.24844" lon="11.4463433"><ele>222.0</ele><time>2026-04-30T09:50:10.329Z</time></trkpt><trkpt lat="43.2484517" lon="11.446255"><ele>221.0</ele><time>2026-04-30T09:50:11.329Z</time></trkpt><trkpt lat="43.2484967" lon="11.4460967"><ele>219.60000000000002</ele><time>2026-04-30T09:50:13.328Z</time></trkpt><trkpt lat="43.248545" lon="11.4459417"><ele>218.20000000000002</ele><time>2026-04-30T09:50:15.328Z</time></trkpt><trkpt lat="43.2486217" lon="11.4458017"><ele>216.79999999999998</ele><time>2026-04-30T09:50:17.328Z</time></trkpt><trkpt lat="43.248665" lon="11.4457283"><ele>215.39999999999998</ele><time>2026-04-30T09:50:18.329Z</time></trkpt><trkpt lat="43.2487083" lon="11.4456567"><ele>214.0</ele><time>2026-04-30T09:50:19.329Z</time></trkpt><trkpt lat="43.2487533" lon="11.4455867"><ele>211.79999999999998</ele><time>2026-04-30T09:50:20.329Z</time></trkpt><trkpt lat="43.2488283" lon="11.4454467"><ele>209.59999999999997</ele><time>2026-04-30T09:50:22.329Z</time></trkpt><trkpt lat="43.248875" lon="11.44529"><ele>207.4</ele><time>2026-04-30T09:50:24.329Z</time></trkpt><trkpt lat="43.24888" lon="11.4451233"><ele>205.2</ele><time>2026-04-30T09:50:26.329Z</time></trkpt><trkpt lat="43.2488683" lon="11.445035"><ele>203.0</ele><time>2026-04-30T09:50:27.329Z</time></trkpt><trkpt lat="43.2488433" lon="11.4449533"><ele>203.0</ele><time>2026-04-30T09:50:28.329Z</time></trkpt><trkpt lat="43.2488183" lon="11.4448667"><ele>203.0</ele><time>2026-04-30T09:50:29.328Z</time></trkpt><trkpt lat="43.2487883" lon="11.4447783"><ele>203.0</ele><time>2026-04-30T09:50:30.328Z</time></trkpt><trkpt lat="43.24876" lon="11.4446817"><ele>203.0</ele><time>2026-04-30T09:50:31.329Z</time></trkpt><trkpt lat="43.2487283" lon="11.4445867"><ele>203.0</ele><time>2026-04-30T09:50:32.329Z</time></trkpt><trkpt lat="43.248695" lon="11.4444917"><ele>203.0</ele><time>2026-04-30T09:50:33.329Z</time></trkpt><trkpt lat="43.2486633" lon="11.4444083"><ele>203.0</ele><time>2026-04-30T09:50:34.328Z</time></trkpt><trkpt lat="43.2486317" lon="11.4443217"><ele>201.85714285714286</ele><time>2026-04-30T09:50:35.329Z</time></trkpt><trkpt lat="43.248595" lon="11.4442367"><ele>200.71428571428572</ele><time>2026-04-30T09:50:36.329Z</time></trkpt><trkpt lat="43.2485583" lon="11.44416"><ele>199.57142857142856</ele><time>2026-04-30T09:50:37.328Z</time></trkpt><trkpt lat="43.2485233" lon="11.444075"><ele>198.42857142857144</ele><time>2026-04-30T09:50:38.329Z</time></trkpt><trkpt lat="43.2484917" lon="11.4439917"><ele>197.28571428571428</ele><time>2026-04-30T09:50:39.329Z</time></trkpt><trkpt lat="43.2484617" lon="11.44391"><ele>196.14285714285714</ele><time>2026-04-30T09:50:40.329Z</time></trkpt><trkpt lat="43.24843" lon="11.4438283"><ele>195.0</ele><time>2026-04-30T09:50:41.329Z</time></trkpt><trkpt lat="43.2484017" lon="11.443745"><ele>193.0</ele><time>2026-04-30T09:50:42.329Z</time></trkpt><trkpt lat="43.248375" lon="11.4436617"><ele>191.0</ele><time>2026-04-30T09:50:43.329Z</time></trkpt><trkpt lat="43.2483567" lon="11.4434983"><ele>189.0</ele><time>2026-04-30T09:50:45.329Z</time></trkpt><trkpt lat="43.24837" lon="11.44334"><ele>187.0</ele><time>2026-04-30T09:50:47.328Z</time></trkpt><trkpt lat="43.24841" lon="11.44319"><ele>185.0</ele><time>2026-04-30T09:50:49.329Z</time></trkpt><trkpt lat="43.248435" lon="11.4430267"><ele>183.7142857142857</ele><time>2026-04-30T09:50:51.329Z</time></trkpt><trkpt lat="43.2484333" lon="11.44294"><ele>182.42857142857142</ele><time>2026-04-30T09:50:52.328Z</time></trkpt><trkpt lat="43.2484183" lon="11.4428467"><ele>181.14285714285714</ele><time>2026-04-30T09:50:53.329Z</time></trkpt><trkpt lat="43.2483933" lon="11.44275"><ele>179.85714285714283</ele><time>2026-04-30T09:50:54.328Z</time></trkpt><trkpt lat="43.2483617" lon="11.44265"><ele>178.57142857142856</ele><time>2026-04-30T09:50:55.329Z</time></trkpt><trkpt lat="43.248335" lon="11.44255"><ele>177.28571428571428</ele><time>2026-04-30T09:50:56.329Z</time></trkpt><trkpt lat="43.2483017" lon="11.44246"><ele>176.0</ele><time>2026-04-30T09:50:57.329Z</time></trkpt><trkpt lat="43.2482733" lon="11.4423667"><ele>176.0</ele><time>2026-04-30T09:50:58.328Z</time></trkpt><trkpt lat="43.2482467" lon="11.4422783"><ele>176.0</ele><time>2026-04-30T09:50:59.329Z</time></trkpt><trkpt lat="43.2482267" lon="11.442195"><ele>176.0</ele><time>2026-04-30T09:51:00.329Z</time></trkpt><trkpt lat="43.2481933" lon="11.442035"><ele>176.0</ele><time>2026-04-30T09:51:02.328Z</time></trkpt><trkpt lat="43.2482" lon="11.4418817"><ele>176.0</ele><time>2026-04-30T09:51:04.328Z</time></trkpt><trkpt lat="43.248265" lon="11.441755"><ele>175.16666666666666</ele><time>2026-04-30T09:51:06.329Z</time></trkpt><trkpt lat="43.2483183" lon="11.4417"><ele>174.33333333333331</ele><time>2026-04-30T09:51:07.329Z</time></trkpt><trkpt lat="43.24838" lon="11.4416467"><ele>173.5</ele><time>2026-04-30T09:51:08.329Z</time></trkpt><trkpt lat="43.24845" lon="11.4415933"><ele>172.66666666666666</ele><time>2026-04-30T09:51:09.329Z</time></trkpt><trkpt lat="43.248525" lon="11.4415317"><ele>171.83333333333334</ele><time>2026-04-30T09:51:10.329Z</time></trkpt><trkpt lat="43.2486017" lon="11.4414483"><ele>171.0</ele><time>2026-04-30T09:51:11.329Z</time></trkpt><trkpt lat="43.2486783" lon="11.4413567"><ele>170.8</ele><time>2026-04-30T09:51:12.329Z</time></trkpt><trkpt lat="43.2487533" lon="11.44126"><ele>170.60000000000002</ele><time>2026-04-30T09:51:13.328Z</time></trkpt><trkpt lat="43.2488267" lon="11.4411667"><ele>170.4</ele><time>2026-04-30T09:51:14.329Z</time></trkpt><trkpt lat="43.2489067" lon="11.4410717"><ele>170.2</ele><time>2026-04-30T09:51:15.328Z</time></trkpt><trkpt lat="43.2489883" lon="11.4409767"><ele>170.0</ele><time>2026-04-30T09:51:16.328Z</time></trkpt><trkpt lat="43.249075" lon="11.4408833"><ele>170.0</ele><time>2026-04-30T09:51:17.328Z</time></trkpt><trkpt lat="43.2491633" lon="11.4407933"><ele>170.0</ele><time>2026-04-30T09:51:18.329Z</time></trkpt><trkpt lat="43.2492467" lon="11.440705"><ele>170.0</ele><time>2026-04-30T09:51:19.328Z</time></trkpt><trkpt lat="43.2493333" lon="11.4406083"><ele>170.0</ele><time>2026-04-30T09:51:20.329Z</time></trkpt><trkpt lat="43.2494133" lon="11.44052"><ele>170.0</ele><time>2026-04-30T09:51:21.329Z</time></trkpt><trkpt lat="43.2494883" lon="11.4404467"><ele>169.8</ele><time>2026-04-30T09:51:22.329Z</time></trkpt><trkpt lat="43.2495683" lon="11.4403817"><ele>169.6</ele><time>2026-04-30T09:51:23.329Z</time></trkpt><trkpt lat="43.2496533" lon="11.4403183"><ele>169.39999999999998</ele><time>2026-04-30T09:51:24.329Z</time></trkpt><trkpt lat="43.2497417" lon="11.4402717"><ele>169.2</ele><time>2026-04-30T09:51:25.329Z</time></trkpt><trkpt lat="43.24983" lon="11.4402217"><ele>169.0</ele><time>2026-04-30T09:51:26.329Z</time></trkpt><trkpt lat="43.2499267" lon="11.440175"><ele>169.79999999999998</ele><time>2026-04-30T09:51:27.329Z</time></trkpt><trkpt lat="43.25002" lon="11.4401333"><ele>170.6</ele><time>2026-04-30T09:51:28.329Z</time></trkpt><trkpt lat="43.250105" lon="11.4400833"><ele>171.4</ele><time>2026-04-30T09:51:29.329Z</time></trkpt><trkpt lat="43.2501867" lon="11.4400167"><ele>172.2</ele><time>2026-04-30T09:51:30.328Z</time></trkpt><trkpt lat="43.2502667" lon="11.4399417"><ele>173.0</ele><time>2026-04-30T09:51:31.329Z</time></trkpt><trkpt lat="43.2503383" lon="11.4398483"><ele>173.0</ele><time>2026-04-30T09:51:32.329Z</time></trkpt><trkpt lat="43.25041" lon="11.43975"><ele>173.0</ele><time>2026-04-30T09:51:33.329Z</time></trkpt><trkpt lat="43.25048" lon="11.4396533"><ele>173.0</ele><time>2026-04-30T09:51:34.329Z</time></trkpt><trkpt lat="43.2505533" lon="11.43956"><ele>173.0</ele><time>2026-04-30T09:51:35.329Z</time></trkpt><trkpt lat="43.250615" lon="11.4394767"><ele>173.0</ele><time>2026-04-30T09:51:36.329Z</time></trkpt><trkpt lat="43.2506583" lon="11.4393933"><ele>173.33333333333331</ele><time>2026-04-30T09:51:37.329Z</time></trkpt><trkpt lat="43.25068" lon="11.4393017"><ele>173.66666666666666</ele><time>2026-04-30T09:51:38.328Z</time></trkpt><trkpt lat="43.2506867" lon="11.439215"><ele>174.0</ele><time>2026-04-30T09:51:39.329Z</time></trkpt><trkpt lat="43.2506767" lon="11.439115"><ele>174.33333333333334</ele><time>2026-04-30T09:51:40.328Z</time></trkpt><trkpt lat="43.2506517" lon="11.439005"><ele>174.66666666666669</ele><time>2026-04-30T09:51:41.328Z</time></trkpt><trkpt lat="43.250625" lon="11.4388833"><ele>175.0</ele><time>2026-04-30T09:51:42.329Z</time></trkpt><trkpt lat="43.2506017" lon="11.4387467"><ele>173.25</ele><time>2026-04-30T09:51:43.329Z</time></trkpt><trkpt lat="43.25058" lon="11.4386017"><ele>171.5</ele><time>2026-04-30T09:51:44.329Z</time></trkpt><trkpt lat="43.25055" lon="11.438455"><ele>169.75</ele><time>2026-04-30T09:51:45.328Z</time></trkpt><trkpt lat="43.250515" lon="11.4382983"><ele>168.0</ele><time>2026-04-30T09:51:46.329Z</time></trkpt><trkpt lat="43.2504783" lon="11.4381467"><ele>168.0</ele><time>2026-04-30T09:51:47.329Z</time></trkpt><trkpt lat="43.2504417" lon="11.4379867"><ele>168.0</ele><time>2026-04-30T09:51:48.328Z</time></trkpt><trkpt lat="43.2504133" lon="11.437835"><ele>168.0</ele><time>2026-04-30T09:51:49.329Z</time></trkpt><trkpt lat="43.2503833" lon="11.4376683"><ele>168.0</ele><time>2026-04-30T09:51:50.328Z</time></trkpt><trkpt lat="43.2503583" lon="11.4375133"><ele>168.25</ele><time>2026-04-30T09:51:51.328Z</time></trkpt><trkpt lat="43.2503283" lon="11.4373667"><ele>168.5</ele><time>2026-04-30T09:51:52.329Z</time></trkpt><trkpt lat="43.2502983" lon="11.437215"><ele>168.75</ele><time>2026-04-30T09:51:53.329Z</time></trkpt><trkpt lat="43.2502567" lon="11.437055"><ele>169.0</ele><time>2026-04-30T09:51:54.329Z</time></trkpt><trkpt lat="43.25022" lon="11.4369067"><ele>169.0</ele><time>2026-04-30T09:51:55.329Z</time></trkpt><trkpt lat="43.2501983" lon="11.436765"><ele>169.0</ele><time>2026-04-30T09:51:56.329Z</time></trkpt><trkpt lat="43.250175" lon="11.4366333"><ele>169.0</ele><time>2026-04-30T09:51:57.328Z</time></trkpt><trkpt lat="43.2501483" lon="11.4364983"><ele>169.0</ele><time>2026-04-30T09:51:58.329Z</time></trkpt><trkpt lat="43.2501283" lon="11.436365"><ele>169.0</ele><time>2026-04-30T09:51:59.329Z</time></trkpt><trkpt lat="43.25012" lon="11.4362383"><ele>170.0</ele><time>2026-04-30T09:52:00.329Z</time></trkpt><trkpt lat="43.2501233" lon="11.436105"><ele>171.0</ele><time>2026-04-30T09:52:01.329Z</time></trkpt><trkpt lat="43.2501433" lon="11.4359833"><ele>172.0</ele><time>2026-04-30T09:52:02.328Z</time></trkpt><trkpt lat="43.2501717" lon="11.43587"><ele>173.0</ele><time>2026-04-30T09:52:03.328Z</time></trkpt><trkpt lat="43.2502" lon="11.4357683"><ele>174.0</ele><time>2026-04-30T09:52:04.329Z</time></trkpt><trkpt lat="43.2502233" lon="11.4356717"><ele>175.0</ele><time>2026-04-30T09:52:05.328Z</time></trkpt><trkpt lat="43.2502417" lon="11.4355767"><ele>175.0</ele><time>2026-04-30T09:52:06.329Z</time></trkpt><trkpt lat="43.2502517" lon="11.4354833"><ele>175.0</ele><time>2026-04-30T09:52:07.328Z</time></trkpt><trkpt lat="43.25025" lon="11.4353867"><ele>175.0</ele><time>2026-04-30T09:52:08.329Z</time></trkpt><trkpt lat="43.2501867" lon="11.4352283"><ele>175.0</ele><time>2026-04-30T09:52:10.329Z</time></trkpt><trkpt lat="43.2501333" lon="11.4351533"><ele>175.0</ele><time>2026-04-30T09:52:11.328Z</time></trkpt><trkpt lat="43.250065" lon="11.4350767"><ele>175.0</ele><time>2026-04-30T09:52:12.329Z</time></trkpt><trkpt lat="43.24999" lon="11.434995"><ele>177.4</ele><time>2026-04-30T09:52:13.329Z</time></trkpt><trkpt lat="43.2499133" lon="11.4349083"><ele>179.8</ele><time>2026-04-30T09:52:14.328Z</time></trkpt><trkpt lat="43.2498333" lon="11.43482"><ele>182.2</ele><time>2026-04-30T09:52:15.329Z</time></trkpt><trkpt lat="43.2497483" lon="11.4347283"><ele>184.6</ele><time>2026-04-30T09:52:16.329Z</time></trkpt><trkpt lat="43.2496667" lon="11.4346333"><ele>187.0</ele><time>2026-04-30T09:52:17.329Z</time></trkpt><trkpt lat="43.2495833" lon="11.4345367"><ele>189.8</ele><time>2026-04-30T09:52:18.328Z</time></trkpt><trkpt lat="43.249505" lon="11.4344283"><ele>192.6</ele><time>2026-04-30T09:52:19.329Z</time></trkpt><trkpt lat="43.2494283" lon="11.4343183"><ele>195.4</ele><time>2026-04-30T09:52:20.329Z</time></trkpt><trkpt lat="43.24935" lon="11.434205"><ele>198.20000000000002</ele><time>2026-04-30T09:52:21.329Z</time></trkpt><trkpt lat="43.24927" lon="11.434105"><ele>201.0</ele><time>2026-04-30T09:52:22.329Z</time></trkpt><trkpt lat="43.2491883" lon="11.4340167"><ele>201.0</ele><time>2026-04-30T09:52:23.328Z</time></trkpt><trkpt lat="43.2491117" lon="11.4339417"><ele>201.0</ele><time>2026-04-30T09:52:24.329Z</time></trkpt><trkpt lat="43.2490283" lon="11.4338733"><ele>201.0</ele><time>2026-04-30T09:52:25.329Z</time></trkpt><trkpt lat="43.24894" lon="11.4338183"><ele>201.0</ele><time>2026-04-30T09:52:26.329Z</time></trkpt><trkpt lat="43.24884" lon="11.4337817"><ele>201.0</ele><time>2026-04-30T09:52:27.328Z</time></trkpt><trkpt lat="43.2487417" lon="11.4337467"><ele>201.60000000000002</ele><time>2026-04-30T09:52:28.328Z</time></trkpt><trkpt lat="43.2486467" lon="11.4337167"><ele>202.2</ele><time>2026-04-30T09:52:29.329Z</time></trkpt><trkpt lat="43.2485483" lon="11.4336883"><ele>202.8</ele><time>2026-04-30T09:52:30.329Z</time></trkpt><trkpt lat="43.24845" lon="11.4336633"><ele>203.39999999999998</ele><time>2026-04-30T09:52:31.329Z</time></trkpt><trkpt lat="43.248345" lon="11.4336383"><ele>204.0</ele><time>2026-04-30T09:52:32.329Z</time></trkpt><trkpt lat="43.2482483" lon="11.4336017"><ele>204.0</ele><time>2026-04-30T09:52:33.329Z</time></trkpt><trkpt lat="43.2481483" lon="11.4335633"><ele>204.0</ele><time>2026-04-30T09:52:34.329Z</time></trkpt><trkpt lat="43.2480467" lon="11.433505"><ele>204.0</ele><time>2026-04-30T09:52:35.329Z</time></trkpt><trkpt lat="43.24795" lon="11.43345"><ele>204.0</ele><time>2026-04-30T09:52:36.328Z</time></trkpt><trkpt lat="43.24787" lon="11.43339"><ele>204.0</ele><time>2026-04-30T09:52:37.329Z</time></trkpt><trkpt lat="43.247795" lon="11.4333167"><ele>205.0</ele><time>2026-04-30T09:52:38.328Z</time></trkpt><trkpt lat="43.2477217" lon="11.433215"><ele>206.0</ele><time>2026-04-30T09:52:39.329Z</time></trkpt><trkpt lat="43.2476517" lon="11.4330967"><ele>207.0</ele><time>2026-04-30T09:52:40.329Z</time></trkpt><trkpt lat="43.2475833" lon="11.4329583"><ele>208.0</ele><time>2026-04-30T09:52:41.329Z</time></trkpt><trkpt lat="43.24751" lon="11.4328167"><ele>208.4</ele><time>2026-04-30T09:52:42.328Z</time></trkpt><trkpt lat="43.2474417" lon="11.4326867"><ele>208.8</ele><time>2026-04-30T09:52:43.329Z</time></trkpt><trkpt lat="43.2473833" lon="11.4325633"><ele>209.2</ele><time>2026-04-30T09:52:44.329Z</time></trkpt><trkpt lat="43.2473283" lon="11.432455"><ele>209.6</ele><time>2026-04-30T09:52:45.329Z</time></trkpt><trkpt lat="43.2472767" lon="11.4323633"><ele>210.0</ele><time>2026-04-30T09:52:46.329Z</time></trkpt><trkpt lat="43.247215" lon="11.4322833"><ele>210.6</ele><time>2026-04-30T09:52:47.329Z</time></trkpt><trkpt lat="43.2471417" lon="11.43222"><ele>211.2</ele><time>2026-04-30T09:52:48.329Z</time></trkpt><trkpt lat="43.2470517" lon="11.432165"><ele>211.8</ele><time>2026-04-30T09:52:49.329Z</time></trkpt><trkpt lat="43.2469483" lon="11.4321117"><ele>212.4</ele><time>2026-04-30T09:52:50.329Z</time></trkpt><trkpt lat="43.2468417" lon="11.4320633"><ele>213.0</ele><time>2026-04-30T09:52:51.328Z</time></trkpt><trkpt lat="43.246725" lon="11.4320117"><ele>213.0</ele><time>2026-04-30T09:52:52.329Z</time></trkpt><trkpt lat="43.24661" lon="11.4319483"><ele>213.0</ele><time>2026-04-30T09:52:53.328Z</time></trkpt><trkpt lat="43.2465" lon="11.4318867"><ele>213.0</ele><time>2026-04-30T09:52:54.329Z</time></trkpt><trkpt lat="43.2463967" lon="11.4318417"><ele>213.0</ele><time>2026-04-30T09:52:55.329Z</time></trkpt><trkpt lat="43.2463" lon="11.4317933"><ele>213.5</ele><time>2026-04-30T09:52:56.329Z</time></trkpt><trkpt lat="43.2462133" lon="11.4317367"><ele>214.0</ele><time>2026-04-30T09:52:57.328Z</time></trkpt><trkpt lat="43.2461383" lon="11.4316617"><ele>214.5</ele><time>2026-04-30T09:52:58.329Z</time></trkpt><trkpt lat="43.246075" lon="11.4315683"><ele>215.0</ele><time>2026-04-30T09:52:59.329Z</time></trkpt><trkpt lat="43.2460333" lon="11.4314717"><ele>215.5</ele><time>2026-04-30T09:53:00.329Z</time></trkpt><trkpt lat="43.246005" lon="11.431365"><ele>216.0</ele><time>2026-04-30T09:53:01.328Z</time></trkpt><trkpt lat="43.24599" lon="11.431245"><ele>216.0</ele><time>2026-04-30T09:53:02.329Z</time></trkpt><trkpt lat="43.24598" lon="11.431105"><ele>216.00000000000003</ele><time>2026-04-30T09:53:03.328Z</time></trkpt><trkpt lat="43.2459783" lon="11.43096"><ele>216.00000000000003</ele><time>2026-04-30T09:53:04.329Z</time></trkpt><trkpt lat="43.2459783" lon="11.4308183"><ele>216.0</ele><time>2026-04-30T09:53:05.329Z</time></trkpt><trkpt lat="43.2459717" lon="11.4306833"><ele>216.0</ele><time>2026-04-30T09:53:06.329Z</time></trkpt><trkpt lat="43.245965" lon="11.4305567"><ele>215.66666666666666</ele><time>2026-04-30T09:53:07.329Z</time></trkpt><trkpt lat="43.2459517" lon="11.4304517"><ele>215.33333333333331</ele><time>2026-04-30T09:53:08.328Z</time></trkpt><trkpt lat="43.2459217" lon="11.4303467"><ele>215.0</ele><time>2026-04-30T09:53:09.328Z</time></trkpt><trkpt lat="43.245885" lon="11.4302417"><ele>214.66666666666666</ele><time>2026-04-30T09:53:10.329Z</time></trkpt><trkpt lat="43.2458467" lon="11.4301483"><ele>214.33333333333331</ele><time>2026-04-30T09:53:11.329Z</time></trkpt><trkpt lat="43.245805" lon="11.43006"><ele>214.0</ele><time>2026-04-30T09:53:12.329Z</time></trkpt><trkpt lat="43.2457633" lon="11.429985"><ele>214.0</ele><time>2026-04-30T09:53:13.329Z</time></trkpt><trkpt lat="43.2457283" lon="11.4299117"><ele>213.99999999999997</ele><time>2026-04-30T09:53:14.329Z</time></trkpt><trkpt lat="43.2456467" lon="11.429775"><ele>213.99999999999997</ele><time>2026-04-30T09:53:16.329Z</time></trkpt><trkpt lat="43.2456067" lon="11.4297067"><ele>214.0</ele><time>2026-04-30T09:53:17.328Z</time></trkpt><trkpt lat="43.2455483" lon="11.4295517"><ele>214.0</ele><time>2026-04-30T09:53:19.329Z</time></trkpt><trkpt lat="43.245515" lon="11.429395"><ele>211.83333333333331</ele><time>2026-04-30T09:53:21.329Z</time></trkpt><trkpt lat="43.2454917" lon="11.4293033"><ele>209.66666666666666</ele><time>2026-04-30T09:53:22.329Z</time></trkpt><trkpt lat="43.24545" lon="11.429215"><ele>207.5</ele><time>2026-04-30T09:53:23.329Z</time></trkpt><trkpt lat="43.2454" lon="11.4291283"><ele>205.33333333333331</ele><time>2026-04-30T09:53:24.329Z</time></trkpt><trkpt lat="43.2453483" lon="11.4290267"><ele>203.16666666666666</ele><time>2026-04-30T09:53:25.329Z</time></trkpt><trkpt lat="43.2453017" lon="11.4289267"><ele>201.0</ele><time>2026-04-30T09:53:26.328Z</time></trkpt><trkpt lat="43.2452483" lon="11.428825"><ele>201.16666666666666</ele><time>2026-04-30T09:53:27.328Z</time></trkpt><trkpt lat="43.2451967" lon="11.4287267"><ele>201.33333333333331</ele><time>2026-04-30T09:53:28.328Z</time></trkpt><trkpt lat="43.24515" lon="11.428635"><ele>201.5</ele><time>2026-04-30T09:53:29.329Z</time></trkpt><trkpt lat="43.2451067" lon="11.4285417"><ele>201.66666666666666</ele><time>2026-04-30T09:53:30.329Z</time></trkpt><trkpt lat="43.245055" lon="11.428455"><ele>201.83333333333331</ele><time>2026-04-30T09:53:31.328Z</time></trkpt><trkpt lat="43.2450133" lon="11.42837"><ele>202.0</ele><time>2026-04-30T09:53:32.328Z</time></trkpt><trkpt lat="43.2449567" lon="11.4282783"><ele>201.99999999999997</ele><time>2026-04-30T09:53:33.329Z</time></trkpt><trkpt lat="43.2448967" lon="11.4281933"><ele>202.0</ele><time>2026-04-30T09:53:34.328Z</time></trkpt><trkpt lat="43.2448333" lon="11.4281083"><ele>202.0</ele><time>2026-04-30T09:53:35.328Z</time></trkpt><trkpt lat="43.2447717" lon="11.4280333"><ele>202.0</ele><time>2026-04-30T09:53:36.329Z</time></trkpt><trkpt lat="43.2447067" lon="11.4279617"><ele>201.99999999999997</ele><time>2026-04-30T09:53:37.328Z</time></trkpt><trkpt lat="43.24465" lon="11.4278917"><ele>202.0</ele><time>2026-04-30T09:53:38.327Z</time></trkpt><trkpt lat="43.24459" lon="11.4278333"><ele>198.99999999999997</ele><time>2026-04-30T09:53:39.327Z</time></trkpt><trkpt lat="43.2445267" lon="11.4277867"><ele>196.0</ele><time>2026-04-30T09:53:40.328Z</time></trkpt><trkpt lat="43.2444633" lon="11.427745"><ele>193.0</ele><time>2026-04-30T09:53:41.328Z</time></trkpt><trkpt lat="43.2443883" lon="11.4277117"><ele>190.0</ele><time>2026-04-30T09:53:42.328Z</time></trkpt><trkpt lat="43.2443117" lon="11.42769"><ele>187.0</ele><time>2026-04-30T09:53:43.327Z</time></trkpt><trkpt lat="43.24423" lon="11.4276783"><ele>184.0</ele><time>2026-04-30T09:53:44.327Z</time></trkpt><trkpt lat="43.2441417" lon="11.4276783"><ele>184.0</ele><time>2026-04-30T09:53:45.327Z</time></trkpt><trkpt lat="43.24405" lon="11.4276933"><ele>184.0</ele><time>2026-04-30T09:53:46.327Z</time></trkpt><trkpt lat="43.2439533" lon="11.4277167"><ele>184.0</ele><time>2026-04-30T09:53:47.328Z</time></trkpt><trkpt lat="43.2438617" lon="11.4277483"><ele>184.0</ele><time>2026-04-30T09:53:48.328Z</time></trkpt><trkpt lat="43.2437717" lon="11.4277767"><ele>184.0</ele><time>2026-04-30T09:53:49.328Z</time></trkpt><trkpt lat="43.2436767" lon="11.4278117"><ele>183.0</ele><time>2026-04-30T09:53:50.327Z</time></trkpt><trkpt lat="43.2435833" lon="11.4278467"><ele>182.0</ele><time>2026-04-30T09:53:51.328Z</time></trkpt><trkpt lat="43.2434883" lon="11.4278833"><ele>181.0</ele><time>2026-04-30T09:53:52.328Z</time></trkpt><trkpt lat="43.2433933" lon="11.4279183"><ele>180.0</ele><time>2026-04-30T09:53:53.328Z</time></trkpt><trkpt lat="43.2433117" lon="11.4279517"><ele>179.0</ele><time>2026-04-30T09:53:54.328Z</time></trkpt><trkpt lat="43.2432317" lon="11.4279817"><ele>179.00000000000003</ele><time>2026-04-30T09:53:55.328Z</time></trkpt><trkpt lat="43.2431583" lon="11.4280067"><ele>179.0</ele><time>2026-04-30T09:53:56.328Z</time></trkpt><trkpt lat="43.24309" lon="11.42803"><ele>179.0</ele><time>2026-04-30T09:53:57.328Z</time></trkpt><trkpt lat="43.2430233" lon="11.4280483"><ele>179.0</ele><time>2026-04-30T09:53:58.327Z</time></trkpt><trkpt lat="43.24295" lon="11.4280433"><ele>179.0</ele><time>2026-04-30T09:53:59.328Z</time></trkpt><trkpt lat="43.2428817" lon="11.4280183"><ele>179.00000000000003</ele><time>2026-04-30T09:54:00.328Z</time></trkpt><trkpt lat="43.2428167" lon="11.427965"><ele>179.0</ele><time>2026-04-30T09:54:01.328Z</time></trkpt><trkpt lat="43.2427483" lon="11.4278917"><ele>177.6</ele><time>2026-04-30T09:54:02.327Z</time></trkpt><trkpt lat="43.2426717" lon="11.4277933"><ele>176.2</ele><time>2026-04-30T09:54:03.327Z</time></trkpt><trkpt lat="43.2425967" lon="11.4276883"><ele>174.79999999999998</ele><time>2026-04-30T09:54:04.328Z</time></trkpt><trkpt lat="43.242515" lon="11.4275767"><ele>173.39999999999998</ele><time>2026-04-30T09:54:05.328Z</time></trkpt><trkpt lat="43.24243" lon="11.4274633"><ele>172.0</ele><time>2026-04-30T09:54:06.328Z</time></trkpt><trkpt lat="43.2423367" lon="11.4273417"><ele>171.5</ele><time>2026-04-30T09:54:07.327Z</time></trkpt><trkpt lat="43.242235" lon="11.4272217"><ele>171.0</ele><time>2026-04-30T09:54:08.328Z</time></trkpt><trkpt lat="43.2421417" lon="11.427105"><ele>170.5</ele><time>2026-04-30T09:54:09.328Z</time></trkpt><trkpt lat="43.242045" lon="11.4269733"><ele>170.0</ele><time>2026-04-30T09:54:10.328Z</time></trkpt><trkpt lat="43.2419433" lon="11.426855"><ele>169.75</ele><time>2026-04-30T09:54:11.327Z</time></trkpt><trkpt lat="43.241845" lon="11.4267317"><ele>169.5</ele><time>2026-04-30T09:54:12.328Z</time></trkpt><trkpt lat="43.2417433" lon="11.4265983"><ele>169.25</ele><time>2026-04-30T09:54:13.328Z</time></trkpt><trkpt lat="43.2416467" lon="11.426465"><ele>169.0</ele><time>2026-04-30T09:54:14.327Z</time></trkpt><trkpt lat="43.241545" lon="11.42634"><ele>168.25</ele><time>2026-04-30T09:54:15.327Z</time></trkpt><trkpt lat="43.2414467" lon="11.4262183"><ele>167.5</ele><time>2026-04-30T09:54:16.328Z</time></trkpt><trkpt lat="43.2413483" lon="11.4260983"><ele>166.75</ele><time>2026-04-30T09:54:17.328Z</time></trkpt><trkpt lat="43.24125" lon="11.4259883"><ele>166.0</ele><time>2026-04-30T09:54:18.328Z</time></trkpt><trkpt lat="43.2411533" lon="11.4258733"><ele>166.0</ele><time>2026-04-30T09:54:19.328Z</time></trkpt><trkpt lat="43.2410567" lon="11.4257617"><ele>166.0</ele><time>2026-04-30T09:54:20.328Z</time></trkpt><trkpt lat="43.2409717" lon="11.4256517"><ele>166.0</ele><time>2026-04-30T09:54:21.328Z</time></trkpt><trkpt lat="43.24089" lon="11.425545"><ele>166.0</ele><time>2026-04-30T09:54:22.328Z</time></trkpt><trkpt lat="43.2408117" lon="11.4254483"><ele>165.8</ele><time>2026-04-30T09:54:23.328Z</time></trkpt><trkpt lat="43.2407433" lon="11.425365"><ele>165.60000000000002</ele><time>2026-04-30T09:54:24.328Z</time></trkpt><trkpt lat="43.2406717" lon="11.425295"><ele>165.4</ele><time>2026-04-30T09:54:25.327Z</time></trkpt><trkpt lat="43.240585" lon="11.4252383"><ele>165.2</ele><time>2026-04-30T09:54:26.328Z</time></trkpt><trkpt lat="43.2405017" lon="11.4252033"><ele>165.0</ele><time>2026-04-30T09:54:27.327Z</time></trkpt><trkpt lat="43.2404017" lon="11.4251967"><ele>164.75</ele><time>2026-04-30T09:54:28.328Z</time></trkpt><trkpt lat="43.240295" lon="11.4251983"><ele>164.5</ele><time>2026-04-30T09:54:29.328Z</time></trkpt><trkpt lat="43.2401833" lon="11.425205"><ele>164.25</ele><time>2026-04-30T09:54:30.328Z</time></trkpt><trkpt lat="43.2400633" lon="11.4252217"><ele>164.0</ele><time>2026-04-30T09:54:31.328Z</time></trkpt><trkpt lat="43.239945" lon="11.42524"><ele>164.0</ele><time>2026-04-30T09:54:32.328Z</time></trkpt><trkpt lat="43.23983" lon="11.4252417"><ele>164.0</ele><time>2026-04-30T09:54:33.328Z</time></trkpt><trkpt lat="43.2397183" lon="11.4252367"><ele>164.0</ele><time>2026-04-30T09:54:34.328Z</time></trkpt><trkpt lat="43.23961" lon="11.4252333"><ele>164.0</ele><time>2026-04-30T09:54:35.328Z</time></trkpt><trkpt lat="43.2395117" lon="11.4252167"><ele>164.0</ele><time>2026-04-30T09:54:36.327Z</time></trkpt><trkpt lat="43.2394217" lon="11.4251983"><ele>164.39999999999998</ele><time>2026-04-30T09:54:37.328Z</time></trkpt><trkpt lat="43.239335" lon="11.4251683"><ele>164.8</ele><time>2026-04-30T09:54:38.328Z</time></trkpt><trkpt lat="43.2392533" lon="11.4251167"><ele>165.2</ele><time>2026-04-30T09:54:39.327Z</time></trkpt><trkpt lat="43.2391767" lon="11.4250533"><ele>165.60000000000002</ele><time>2026-04-30T09:54:40.328Z</time></trkpt><trkpt lat="43.2390983" lon="11.4249783"><ele>166.0</ele><time>2026-04-30T09:54:41.328Z</time></trkpt><trkpt lat="43.23902" lon="11.424895"><ele>166.16666666666669</ele><time>2026-04-30T09:54:42.328Z</time></trkpt><trkpt lat="43.2389467" lon="11.4248117"><ele>166.33333333333334</ele><time>2026-04-30T09:54:43.327Z</time></trkpt><trkpt lat="43.238875" lon="11.4247383"><ele>166.5</ele><time>2026-04-30T09:54:44.328Z</time></trkpt><trkpt lat="43.2388067" lon="11.424675"><ele>166.66666666666666</ele><time>2026-04-30T09:54:45.328Z</time></trkpt><trkpt lat="43.2387333" lon="11.42463"><ele>166.83333333333331</ele><time>2026-04-30T09:54:46.328Z</time></trkpt><trkpt lat="43.238665" lon="11.4245933"><ele>167.0</ele><time>2026-04-30T09:54:47.328Z</time></trkpt><trkpt lat="43.2385983" lon="11.4245483"><ele>167.0</ele><time>2026-04-30T09:54:48.328Z</time></trkpt><trkpt lat="43.2385383" lon="11.4244867"><ele>167.0</ele><time>2026-04-30T09:54:49.328Z</time></trkpt><trkpt lat="43.2384883" lon="11.4243967"><ele>167.0</ele><time>2026-04-30T09:54:50.328Z</time></trkpt><trkpt lat="43.238445" lon="11.4242767"><ele>167.0</ele><time>2026-04-30T09:54:51.328Z</time></trkpt><trkpt lat="43.2384133" lon="11.4241283"><ele>167.0</ele><time>2026-04-30T09:54:52.327Z</time></trkpt><trkpt lat="43.2383933" lon="11.4239883"><ele>167.0</ele><time>2026-04-30T09:54:53.328Z</time></trkpt><trkpt lat="43.2383683" lon="11.42386"><ele>167.0</ele><time>2026-04-30T09:54:54.328Z</time></trkpt><trkpt lat="43.2383417" lon="11.423735"><ele>167.0</ele><time>2026-04-30T09:54:55.328Z</time></trkpt><trkpt lat="43.2383117" lon="11.4236333"><ele>167.0</ele><time>2026-04-30T09:54:56.328Z</time></trkpt><trkpt lat="43.238275" lon="11.42355"><ele>167.0</ele><time>2026-04-30T09:54:57.328Z</time></trkpt><trkpt lat="43.23819" lon="11.42345"><ele>167.0</ele><time>2026-04-30T09:54:59.327Z</time></trkpt><trkpt lat="43.2380867" lon="11.4234083"><ele>167.0</ele><time>2026-04-30T09:55:01.328Z</time></trkpt><trkpt lat="43.2379567" lon="11.42342"><ele>167.0</ele><time>2026-04-30T09:55:03.328Z</time></trkpt><trkpt lat="43.237885" lon="11.4234417"><ele>167.0</ele><time>2026-04-30T09:55:04.328Z</time></trkpt><trkpt lat="43.2378083" lon="11.4234633"><ele>167.0</ele><time>2026-04-30T09:55:05.328Z</time></trkpt><trkpt lat="43.2377283" lon="11.4234817"><ele>167.0</ele><time>2026-04-30T09:55:06.327Z</time></trkpt><trkpt lat="43.23766" lon="11.4234917"><ele>167.0</ele><time>2026-04-30T09:55:07.328Z</time></trkpt><trkpt lat="43.237595" lon="11.4235"><ele>167.0</ele><time>2026-04-30T09:55:08.328Z</time></trkpt><trkpt lat="43.2374867" lon="11.4234533"><ele>167.0</ele><time>2026-04-30T09:55:10.328Z</time></trkpt><trkpt lat="43.2374133" lon="11.4233333"><ele>167.0</ele><time>2026-04-30T09:55:12.328Z</time></trkpt><trkpt lat="43.2373617" lon="11.4231883"><ele>167.2</ele><time>2026-04-30T09:55:14.328Z</time></trkpt><trkpt lat="43.23728" lon="11.4231183"><ele>167.39999999999998</ele><time>2026-04-30T09:55:16.328Z</time></trkpt><trkpt lat="43.2371733" lon="11.4231233"><ele>167.60000000000002</ele><time>2026-04-30T09:55:18.328Z</time></trkpt><trkpt lat="43.23705" lon="11.4232167"><ele>167.8</ele><time>2026-04-30T09:55:20.328Z</time></trkpt><trkpt lat="43.2369783" lon="11.4232933"><ele>168.0</ele><time>2026-04-30T09:55:21.328Z</time></trkpt><trkpt lat="43.2368967" lon="11.4233717"><ele>168.0</ele><time>2026-04-30T09:55:22.328Z</time></trkpt><trkpt lat="43.2368183" lon="11.4234483"><ele>168.0</ele><time>2026-04-30T09:55:23.328Z</time></trkpt><trkpt lat="43.23675" lon="11.4235283"><ele>168.0</ele><time>2026-04-30T09:55:24.327Z</time></trkpt><trkpt lat="43.2366733" lon="11.4235917"><ele>168.0</ele><time>2026-04-30T09:55:25.328Z</time></trkpt><trkpt lat="43.2365883" lon="11.4236633"><ele>168.0</ele><time>2026-04-30T09:55:26.328Z</time></trkpt><trkpt lat="43.2364983" lon="11.4237383"><ele>167.4</ele><time>2026-04-30T09:55:27.328Z</time></trkpt><trkpt lat="43.2364" lon="11.4238133"><ele>166.8</ele><time>2026-04-30T09:55:28.328Z</time></trkpt><trkpt lat="43.23631" lon="11.4238817"><ele>166.2</ele><time>2026-04-30T09:55:29.327Z</time></trkpt><trkpt lat="43.236215" lon="11.4239683"><ele>165.6</ele><time>2026-04-30T09:55:30.328Z</time></trkpt><trkpt lat="43.2361133" lon="11.4240533"><ele>165.0</ele><time>2026-04-30T09:55:31.327Z</time></trkpt><trkpt lat="43.2360083" lon="11.4241383"><ele>165.0</ele><time>2026-04-30T09:55:32.328Z</time></trkpt><trkpt lat="43.2358933" lon="11.4242267"><ele>165.0</ele><time>2026-04-30T09:55:33.328Z</time></trkpt><trkpt lat="43.235785" lon="11.424325"><ele>165.0</ele><time>2026-04-30T09:55:34.327Z</time></trkpt><trkpt lat="43.2356683" lon="11.4244133"><ele>165.0</ele><time>2026-04-30T09:55:35.328Z</time></trkpt><trkpt lat="43.235555" lon="11.4244983"><ele>164.5</ele><time>2026-04-30T09:55:36.328Z</time></trkpt><trkpt lat="43.2354483" lon="11.424585"><ele>164.0</ele><time>2026-04-30T09:55:37.327Z</time></trkpt><trkpt lat="43.23534" lon="11.4246783"><ele>163.5</ele><time>2026-04-30T09:55:38.328Z</time></trkpt><trkpt lat="43.2352283" lon="11.424775"><ele>163.0</ele><time>2026-04-30T09:55:39.328Z</time></trkpt><trkpt lat="43.235115" lon="11.4248717"><ele>162.75</ele><time>2026-04-30T09:55:40.328Z</time></trkpt><trkpt lat="43.2349933" lon="11.4249733"><ele>162.5</ele><time>2026-04-30T09:55:41.328Z</time></trkpt><trkpt lat="43.23487" lon="11.4250833"><ele>162.25</ele><time>2026-04-30T09:55:42.327Z</time></trkpt><trkpt lat="43.2347433" lon="11.4251867"><ele>162.0</ele><time>2026-04-30T09:55:43.327Z</time></trkpt><trkpt lat="43.234625" lon="11.425285"><ele>162.0</ele><time>2026-04-30T09:55:44.327Z</time></trkpt><trkpt lat="43.2345" lon="11.42538"><ele>162.0</ele><time>2026-04-30T09:55:45.328Z</time></trkpt><trkpt lat="43.2343733" lon="11.425475"><ele>162.0</ele><time>2026-04-30T09:55:46.328Z</time></trkpt><trkpt lat="43.234255" lon="11.4255717"><ele>162.0</ele><time>2026-04-30T09:55:47.327Z</time></trkpt><trkpt lat="43.2341333" lon="11.425675"><ele>162.0</ele><time>2026-04-30T09:55:48.328Z</time></trkpt><trkpt lat="43.2340067" lon="11.4257933"><ele>162.0</ele><time>2026-04-30T09:55:49.328Z</time></trkpt><trkpt lat="43.2338817" lon="11.4258867"><ele>162.0</ele><time>2026-04-30T09:55:50.328Z</time></trkpt><trkpt lat="43.23375" lon="11.425985"><ele>162.0</ele><time>2026-04-30T09:55:51.328Z</time></trkpt><trkpt lat="43.2336183" lon="11.4260933"><ele>162.0</ele><time>2026-04-30T09:55:52.328Z</time></trkpt><trkpt lat="43.2334917" lon="11.4262033"><ele>162.0</ele><time>2026-04-30T09:55:53.328Z</time></trkpt><trkpt lat="43.233365" lon="11.4263067"><ele>162.0</ele><time>2026-04-30T09:55:54.327Z</time></trkpt><trkpt lat="43.2332383" lon="11.4264133"><ele>162.0</ele><time>2026-04-30T09:55:55.328Z</time></trkpt><trkpt lat="43.2331167" lon="11.4265183"><ele>162.25</ele><time>2026-04-30T09:55:56.328Z</time></trkpt><trkpt lat="43.2329967" lon="11.4266233"><ele>162.5</ele><time>2026-04-30T09:55:57.328Z</time></trkpt><trkpt lat="43.2328717" lon="11.4267233"><ele>162.75</ele><time>2026-04-30T09:55:58.327Z</time></trkpt><trkpt lat="43.2327583" lon="11.4268233"><ele>163.0</ele><time>2026-04-30T09:55:59.328Z</time></trkpt><trkpt lat="43.23264" lon="11.4269217"><ele>163.0</ele><time>2026-04-30T09:56:00.328Z</time></trkpt><trkpt lat="43.232515" lon="11.4270233"><ele>163.0</ele><time>2026-04-30T09:56:01.328Z</time></trkpt><trkpt lat="43.23239" lon="11.4271217"><ele>163.0</ele><time>2026-04-30T09:56:02.328Z</time></trkpt><trkpt lat="43.2322633" lon="11.4272233"><ele>163.0</ele><time>2026-04-30T09:56:03.328Z</time></trkpt><trkpt lat="43.232135" lon="11.4273167"><ele>163.75</ele><time>2026-04-30T09:56:04.327Z</time></trkpt><trkpt lat="43.2320083" lon="11.42741"><ele>164.5</ele><time>2026-04-30T09:56:05.327Z</time></trkpt><trkpt lat="43.231885" lon="11.427515"><ele>165.25</ele><time>2026-04-30T09:56:06.328Z</time></trkpt><trkpt lat="43.231775" lon="11.4276067"><ele>166.0</ele><time>2026-04-30T09:56:07.328Z</time></trkpt><trkpt lat="43.23165" lon="11.4277117"><ele>166.0</ele><time>2026-04-30T09:56:08.328Z</time></trkpt><trkpt lat="43.2315367" lon="11.427815"><ele>166.0</ele><time>2026-04-30T09:56:09.328Z</time></trkpt><trkpt lat="43.2314283" lon="11.4279117"><ele>166.0</ele><time>2026-04-30T09:56:10.328Z</time></trkpt><trkpt lat="43.2313183" lon="11.4280067"><ele>166.0</ele><time>2026-04-30T09:56:11.328Z</time></trkpt><trkpt lat="43.2312133" lon="11.4280917"><ele>166.20000000000002</ele><time>2026-04-30T09:56:12.327Z</time></trkpt><trkpt lat="43.23112" lon="11.4281667"><ele>166.4</ele><time>2026-04-30T09:56:13.328Z</time></trkpt><trkpt lat="43.23103" lon="11.42824"><ele>166.6</ele><time>2026-04-30T09:56:14.328Z</time></trkpt><trkpt lat="43.2309467" lon="11.4283117"><ele>166.8</ele><time>2026-04-30T09:56:15.328Z</time></trkpt><trkpt lat="43.23087" lon="11.4283817"><ele>167.0</ele><time>2026-04-30T09:56:16.328Z</time></trkpt><trkpt lat="43.2308017" lon="11.42844"><ele>167.0</ele><time>2026-04-30T09:56:17.328Z</time></trkpt><trkpt lat="43.2307383" lon="11.42849"><ele>167.0</ele><time>2026-04-30T09:56:18.328Z</time></trkpt><trkpt lat="43.230675" lon="11.42853"><ele>167.0</ele><time>2026-04-30T09:56:19.328Z</time></trkpt><trkpt lat="43.2306117" lon="11.4285517"><ele>167.0</ele><time>2026-04-30T09:56:20.328Z</time></trkpt><trkpt lat="43.2305467" lon="11.4285533"><ele>167.0</ele><time>2026-04-30T09:56:21.328Z</time></trkpt><trkpt lat="43.230415" lon="11.4285083"><ele>167.0</ele><time>2026-04-30T09:56:23.328Z</time></trkpt><trkpt lat="43.230335" lon="11.4284717"><ele>166.66666666666666</ele><time>2026-04-30T09:56:24.328Z</time></trkpt><trkpt lat="43.23026" lon="11.4284467"><ele>166.33333333333331</ele><time>2026-04-30T09:56:25.327Z</time></trkpt><trkpt lat="43.2301817" lon="11.4284183"><ele>166.0</ele><time>2026-04-30T09:56:26.327Z</time></trkpt><trkpt lat="43.2301033" lon="11.4283967"><ele>165.66666666666666</ele><time>2026-04-30T09:56:27.328Z</time></trkpt><trkpt lat="43.230025" lon="11.4283917"><ele>165.33333333333334</ele><time>2026-04-30T09:56:28.328Z</time></trkpt><trkpt lat="43.22994" lon="11.428395"><ele>165.0</ele><time>2026-04-30T09:56:29.328Z</time></trkpt><trkpt lat="43.2298483" lon="11.4284267"><ele>164.6</ele><time>2026-04-30T09:56:30.327Z</time></trkpt><trkpt lat="43.2297567" lon="11.4284667"><ele>164.2</ele><time>2026-04-30T09:56:31.328Z</time></trkpt><trkpt lat="43.2296717" lon="11.42851"><ele>163.8</ele><time>2026-04-30T09:56:32.328Z</time></trkpt><trkpt lat="43.2295833" lon="11.4285517"><ele>163.4</ele><time>2026-04-30T09:56:33.328Z</time></trkpt><trkpt lat="43.2295" lon="11.4286"><ele>163.0</ele><time>2026-04-30T09:56:34.327Z</time></trkpt><trkpt lat="43.2294267" lon="11.4286467"><ele>163.0</ele><time>2026-04-30T09:56:35.328Z</time></trkpt><trkpt lat="43.229365" lon="11.4286767"><ele>163.0</ele><time>2026-04-30T09:56:36.327Z</time></trkpt><trkpt lat="43.229255" lon="11.428675"><ele>163.0</ele><time>2026-04-30T09:56:38.328Z</time></trkpt><trkpt lat="43.2291967" lon="11.4285717"><ele>163.0</ele><time>2026-04-30T09:56:40.327Z</time></trkpt><trkpt lat="43.2291867" lon="11.4284"><ele>163.0</ele><time>2026-04-30T09:56:42.328Z</time></trkpt><trkpt lat="43.2291817" lon="11.4283133"><ele>163.0</ele><time>2026-04-30T09:56:43.328Z</time></trkpt><trkpt lat="43.2291733" lon="11.42821"><ele>163.0</ele><time>2026-04-30T09:56:44.327Z</time></trkpt><trkpt lat="43.2291617" lon="11.4280917"><ele>163.0</ele><time>2026-04-30T09:56:45.328Z</time></trkpt><trkpt lat="43.2291517" lon="11.4279583"><ele>163.0</ele><time>2026-04-30T09:56:46.327Z</time></trkpt><trkpt lat="43.229135" lon="11.4278183"><ele>163.0</ele><time>2026-04-30T09:56:47.328Z</time></trkpt><trkpt lat="43.229115" lon="11.42766"><ele>162.75</ele><time>2026-04-30T09:56:48.328Z</time></trkpt><trkpt lat="43.2291" lon="11.4274967"><ele>162.5</ele><time>2026-04-30T09:56:49.328Z</time></trkpt><trkpt lat="43.229085" lon="11.4273283"><ele>162.25</ele><time>2026-04-30T09:56:50.328Z</time></trkpt><trkpt lat="43.2290717" lon="11.4271583"><ele>162.0</ele><time>2026-04-30T09:56:51.328Z</time></trkpt><trkpt lat="43.229055" lon="11.42698"><ele>162.0</ele><time>2026-04-30T09:56:52.328Z</time></trkpt><trkpt lat="43.2290383" lon="11.4268083"><ele>162.0</ele><time>2026-04-30T09:56:53.328Z</time></trkpt><trkpt lat="43.22901" lon="11.4266267"><ele>162.0</ele><time>2026-04-30T09:56:54.327Z</time></trkpt><trkpt lat="43.2289833" lon="11.42644"><ele>162.0</ele><time>2026-04-30T09:56:55.328Z</time></trkpt><trkpt lat="43.2289633" lon="11.426265"><ele>162.0</ele><time>2026-04-30T09:56:56.327Z</time></trkpt><trkpt lat="43.228945" lon="11.4260833"><ele>162.0</ele><time>2026-04-30T09:56:57.328Z</time></trkpt><trkpt lat="43.2289233" lon="11.4259067"><ele>162.0</ele><time>2026-04-30T09:56:58.328Z</time></trkpt><trkpt lat="43.2288967" lon="11.425735"><ele>162.0</ele><time>2026-04-30T09:56:59.328Z</time></trkpt><trkpt lat="43.2288833" lon="11.42556"><ele>162.0</ele><time>2026-04-30T09:57:00.328Z</time></trkpt><trkpt lat="43.2288633" lon="11.4253683"><ele>162.0</ele><time>2026-04-30T09:57:01.328Z</time></trkpt><trkpt lat="43.2288417" lon="11.42518"><ele>162.0</ele><time>2026-04-30T09:57:02.328Z</time></trkpt><trkpt lat="43.2288183" lon="11.424995"><ele>162.0</ele><time>2026-04-30T09:57:03.328Z</time></trkpt><trkpt lat="43.2287967" lon="11.4248167"><ele>162.0</ele><time>2026-04-30T09:57:04.328Z</time></trkpt><trkpt lat="43.228775" lon="11.4246467"><ele>162.0</ele><time>2026-04-30T09:57:05.328Z</time></trkpt><trkpt lat="43.2287517" lon="11.4244917"><ele>162.0</ele><time>2026-04-30T09:57:06.328Z</time></trkpt><trkpt lat="43.2287317" lon="11.4243483"><ele>162.0</ele><time>2026-04-30T09:57:07.327Z</time></trkpt><trkpt lat="43.228715" lon="11.4242083"><ele>162.2</ele><time>2026-04-30T09:57:08.328Z</time></trkpt><trkpt lat="43.2287083" lon="11.424075"><ele>162.39999999999998</ele><time>2026-04-30T09:57:09.328Z</time></trkpt><trkpt lat="43.2286967" lon="11.4239567"><ele>162.60000000000002</ele><time>2026-04-30T09:57:10.328Z</time></trkpt><trkpt lat="43.2286833" lon="11.4238517"><ele>162.8</ele><time>2026-04-30T09:57:11.328Z</time></trkpt><trkpt lat="43.228675" lon="11.4237583"><ele>163.0</ele><time>2026-04-30T09:57:12.328Z</time></trkpt><trkpt lat="43.228665" lon="11.4235933"><ele>163.2</ele><time>2026-04-30T09:57:14.328Z</time></trkpt><trkpt lat="43.2286333" lon="11.4235133"><ele>163.4</ele><time>2026-04-30T09:57:16.327Z</time></trkpt><trkpt lat="43.2285033" lon="11.4234933"><ele>163.6</ele><time>2026-04-30T09:57:26.328Z</time></trkpt><trkpt lat="43.2284133" lon="11.423505"><ele>163.79999999999998</ele><time>2026-04-30T09:57:27.328Z</time></trkpt><trkpt lat="43.2283233" lon="11.4235283"><ele>164.0</ele><time>2026-04-30T09:57:28.328Z</time></trkpt><trkpt lat="43.2282167" lon="11.423565"><ele>164.0</ele><time>2026-04-30T09:57:29.328Z</time></trkpt><trkpt lat="43.2280867" lon="11.4235983"><ele>164.0</ele><time>2026-04-30T09:57:30.328Z</time></trkpt><trkpt lat="43.227965" lon="11.4236217"><ele>164.0</ele><time>2026-04-30T09:57:31.328Z</time></trkpt><trkpt lat="43.2278433" lon="11.4236417"><ele>164.0</ele><time>2026-04-30T09:57:32.327Z</time></trkpt><trkpt lat="43.22773" lon="11.423655"><ele>164.0</ele><time>2026-04-30T09:57:33.328Z</time></trkpt><trkpt lat="43.2276067" lon="11.4236583"><ele>164.0</ele><time>2026-04-30T09:57:34.327Z</time></trkpt><trkpt lat="43.2274867" lon="11.4236583"><ele>164.0</ele><time>2026-04-30T09:57:35.328Z</time></trkpt><trkpt lat="43.227365" lon="11.4236583"><ele>164.0</ele><time>2026-04-30T09:57:36.328Z</time></trkpt><trkpt lat="43.227245" lon="11.4236517"><ele>164.25</ele><time>2026-04-30T09:57:37.328Z</time></trkpt><trkpt lat="43.227115" lon="11.4236483"><ele>164.5</ele><time>2026-04-30T09:57:38.328Z</time></trkpt><trkpt lat="43.2269783" lon="11.4236467"><ele>164.75</ele><time>2026-04-30T09:57:39.327Z</time></trkpt><trkpt lat="43.22685" lon="11.4236333"><ele>165.0</ele><time>2026-04-30T09:57:40.328Z</time></trkpt><trkpt lat="43.2267167" lon="11.423635"><ele>165.0</ele><time>2026-04-30T09:57:41.328Z</time></trkpt><trkpt lat="43.2265767" lon="11.4236483"><ele>165.0</ele><time>2026-04-30T09:57:42.328Z</time></trkpt><trkpt lat="43.2264383" lon="11.4236783"><ele>165.0</ele><time>2026-04-30T09:57:43.328Z</time></trkpt><trkpt lat="43.2262967" lon="11.42373"><ele>165.0</ele><time>2026-04-30T09:57:44.327Z</time></trkpt><trkpt lat="43.2261617" lon="11.4237917"><ele>164.25</ele><time>2026-04-30T09:57:45.327Z</time></trkpt><trkpt lat="43.2260317" lon="11.4238833"><ele>163.5</ele><time>2026-04-30T09:57:46.328Z</time></trkpt><trkpt lat="43.2259017" lon="11.4239667"><ele>162.75</ele><time>2026-04-30T09:57:47.328Z</time></trkpt><trkpt lat="43.2257833" lon="11.424045"><ele>162.0</ele><time>2026-04-30T09:57:48.328Z</time></trkpt><trkpt lat="43.2256533" lon="11.4241533"><ele>162.0</ele><time>2026-04-30T09:57:49.328Z</time></trkpt><trkpt lat="43.22553" lon="11.4242583"><ele>162.0</ele><time>2026-04-30T09:57:50.328Z</time></trkpt><trkpt lat="43.2254" lon="11.4243667"><ele>162.0</ele><time>2026-04-30T09:57:51.327Z</time></trkpt><trkpt lat="43.225265" lon="11.42448"><ele>162.0</ele><time>2026-04-30T09:57:52.327Z</time></trkpt><trkpt lat="43.2251417" lon="11.4246017"><ele>162.0</ele><time>2026-04-30T09:57:53.327Z</time></trkpt><trkpt lat="43.2250167" lon="11.4247267"><ele>162.0</ele><time>2026-04-30T09:57:54.328Z</time></trkpt><trkpt lat="43.2248983" lon="11.42486"><ele>163.0</ele><time>2026-04-30T09:57:55.328Z</time></trkpt><trkpt lat="43.2247783" lon="11.4250067"><ele>164.0</ele><time>2026-04-30T09:57:56.327Z</time></trkpt><trkpt lat="43.2246567" lon="11.4251467"><ele>165.0</ele><time>2026-04-30T09:57:57.328Z</time></trkpt><trkpt lat="43.2245267" lon="11.425285"><ele>165.0</ele><time>2026-04-30T09:57:58.328Z</time></trkpt><trkpt lat="43.2244067" lon="11.4254317"><ele>165.0</ele><time>2026-04-30T09:57:59.328Z</time></trkpt><trkpt lat="43.2242867" lon="11.4255833"><ele>165.0</ele><time>2026-04-30T09:58:00.328Z</time></trkpt><trkpt lat="43.2241617" lon="11.425735"><ele>164.33333333333334</ele><time>2026-04-30T09:58:01.328Z</time></trkpt><trkpt lat="43.224035" lon="11.4258883"><ele>163.66666666666669</ele><time>2026-04-30T09:58:02.328Z</time></trkpt><trkpt lat="43.223905" lon="11.42604"><ele>163.0</ele><time>2026-04-30T09:58:03.328Z</time></trkpt><trkpt lat="43.2237783" lon="11.426195"><ele>162.0</ele><time>2026-04-30T09:58:04.328Z</time></trkpt><trkpt lat="43.2236467" lon="11.42635"><ele>161.0</ele><time>2026-04-30T09:58:05.328Z</time></trkpt><trkpt lat="43.2235133" lon="11.4265017"><ele>160.0</ele><time>2026-04-30T09:58:06.327Z</time></trkpt><trkpt lat="43.2233767" lon="11.4266467"><ele>160.0</ele><time>2026-04-30T09:58:07.327Z</time></trkpt><trkpt lat="43.22324" lon="11.4267917"><ele>160.0</ele><time>2026-04-30T09:58:08.327Z</time></trkpt><trkpt lat="43.223095" lon="11.426945"><ele>160.0</ele><time>2026-04-30T09:58:09.327Z</time></trkpt><trkpt lat="43.2229467" lon="11.427095"><ele>160.33333333333334</ele><time>2026-04-30T09:58:10.327Z</time></trkpt><trkpt lat="43.2228067" lon="11.427235"><ele>160.66666666666666</ele><time>2026-04-30T09:58:11.328Z</time></trkpt><trkpt lat="43.2226617" lon="11.4273733"><ele>161.0</ele><time>2026-04-30T09:58:12.328Z</time></trkpt><trkpt lat="43.2225133" lon="11.4275083"><ele>161.0</ele><time>2026-04-30T09:58:13.327Z</time></trkpt><trkpt lat="43.2223667" lon="11.4276367"><ele>161.0</ele><time>2026-04-30T09:58:14.328Z</time></trkpt><trkpt lat="43.222215" lon="11.4277683"><ele>161.0</ele><time>2026-04-30T09:58:15.328Z</time></trkpt><trkpt lat="43.222065" lon="11.4278967"><ele>161.0</ele><time>2026-04-30T09:58:16.327Z</time></trkpt><trkpt lat="43.22191" lon="11.4280217"><ele>161.0</ele><time>2026-04-30T09:58:17.328Z</time></trkpt><trkpt lat="43.221755" lon="11.4281433"><ele>161.0</ele><time>2026-04-30T09:58:18.328Z</time></trkpt><trkpt lat="43.2215967" lon="11.4282717"><ele>161.0</ele><time>2026-04-30T09:58:19.328Z</time></trkpt><trkpt lat="43.2214467" lon="11.4284017"><ele>161.0</ele><time>2026-04-30T09:58:20.327Z</time></trkpt><trkpt lat="43.2212883" lon="11.4285183"><ele>161.0</ele><time>2026-04-30T09:58:21.327Z</time></trkpt><trkpt lat="43.2211367" lon="11.42864"><ele>161.0</ele><time>2026-04-30T09:58:22.328Z</time></trkpt><trkpt lat="43.2209833" lon="11.4287633"><ele>161.0</ele><time>2026-04-30T09:58:23.328Z</time></trkpt><trkpt lat="43.2208317" lon="11.42888"><ele>161.0</ele><time>2026-04-30T09:58:24.328Z</time></trkpt><trkpt lat="43.2206767" lon="11.4289983"><ele>161.0</ele><time>2026-04-30T09:58:25.328Z</time></trkpt><trkpt lat="43.2205217" lon="11.429115"><ele>161.0</ele><time>2026-04-30T09:58:26.327Z</time></trkpt><trkpt lat="43.22037" lon="11.42924"><ele>161.0</ele><time>2026-04-30T09:58:27.328Z</time></trkpt><trkpt lat="43.22022" lon="11.4293633"><ele>161.0</ele><time>2026-04-30T09:58:28.328Z</time></trkpt><trkpt lat="43.2200633" lon="11.4294867"><ele>161.0</ele><time>2026-04-30T09:58:29.328Z</time></trkpt><trkpt lat="43.2199167" lon="11.429615"><ele>161.0</ele><time>2026-04-30T09:58:30.328Z</time></trkpt><trkpt lat="43.21977" lon="11.4297367"><ele>161.0</ele><time>2026-04-30T09:58:31.328Z</time></trkpt><trkpt lat="43.2196283" lon="11.4298517"><ele>161.0</ele><time>2026-04-30T09:58:32.327Z</time></trkpt><trkpt lat="43.2194883" lon="11.4299633"><ele>161.0</ele><time>2026-04-30T09:58:33.327Z</time></trkpt><trkpt lat="43.219355" lon="11.4300783"><ele>161.0</ele><time>2026-04-30T09:58:34.327Z</time></trkpt><trkpt lat="43.219225" lon="11.4301883"><ele>161.0</ele><time>2026-04-30T09:58:35.327Z</time></trkpt><trkpt lat="43.219105" lon="11.4302883"><ele>161.0</ele><time>2026-04-30T09:58:36.327Z</time></trkpt><trkpt lat="43.2189983" lon="11.4303767"><ele>161.0</ele><time>2026-04-30T09:58:37.328Z</time></trkpt><trkpt lat="43.2188883" lon="11.4304633"><ele>160.8</ele><time>2026-04-30T09:58:38.328Z</time></trkpt><trkpt lat="43.2187883" lon="11.43054"><ele>160.60000000000002</ele><time>2026-04-30T09:58:39.328Z</time></trkpt><trkpt lat="43.218695" lon="11.430615"><ele>160.4</ele><time>2026-04-30T09:58:40.328Z</time></trkpt><trkpt lat="43.2186083" lon="11.43069"><ele>160.2</ele><time>2026-04-30T09:58:41.328Z</time></trkpt><trkpt lat="43.2185267" lon="11.4307567"><ele>160.0</ele><time>2026-04-30T09:58:42.328Z</time></trkpt><trkpt lat="43.218445" lon="11.4308183"><ele>160.0</ele><time>2026-04-30T09:58:43.328Z</time></trkpt><trkpt lat="43.21837" lon="11.4308767"><ele>160.0</ele><time>2026-04-30T09:58:44.327Z</time></trkpt><trkpt lat="43.2182967" lon="11.430935"><ele>160.0</ele><time>2026-04-30T09:58:45.328Z</time></trkpt><trkpt lat="43.2182217" lon="11.4309933"><ele>160.0</ele><time>2026-04-30T09:58:46.328Z</time></trkpt><trkpt lat="43.21815" lon="11.43105"><ele>160.0</ele><time>2026-04-30T09:58:47.328Z</time></trkpt><trkpt lat="43.2180767" lon="11.4311117"><ele>160.0</ele><time>2026-04-30T09:58:48.327Z</time></trkpt><trkpt lat="43.21801" lon="11.4311733"><ele>159.8</ele><time>2026-04-30T09:58:49.328Z</time></trkpt><trkpt lat="43.217945" lon="11.4312283"><ele>159.6</ele><time>2026-04-30T09:58:50.328Z</time></trkpt><trkpt lat="43.217865" lon="11.431295"><ele>159.4</ele><time>2026-04-30T09:58:51.328Z</time></trkpt><trkpt lat="43.2177717" lon="11.4313667"><ele>159.2</ele><time>2026-04-30T09:58:52.328Z</time></trkpt><trkpt lat="43.217665" lon="11.4314533"><ele>159.0</ele><time>2026-04-30T09:58:53.328Z</time></trkpt><trkpt lat="43.217555" lon="11.4315517"><ele>159.0</ele><time>2026-04-30T09:58:54.328Z</time></trkpt><trkpt lat="43.217435" lon="11.4316533"><ele>159.0</ele><time>2026-04-30T09:58:55.327Z</time></trkpt><trkpt lat="43.2173117" lon="11.4317467"><ele>159.0</ele><time>2026-04-30T09:58:56.328Z</time></trkpt><trkpt lat="43.2171833" lon="11.43184"><ele>159.0</ele><time>2026-04-30T09:58:57.328Z</time></trkpt><trkpt lat="43.2170583" lon="11.4319333"><ele>159.0</ele><time>2026-04-30T09:58:58.328Z</time></trkpt><trkpt lat="43.21693" lon="11.4320367"><ele>159.0</ele><time>2026-04-30T09:58:59.328Z</time></trkpt><trkpt lat="43.2168083" lon="11.4321317"><ele>159.0</ele><time>2026-04-30T09:59:00.328Z</time></trkpt><trkpt lat="43.2166983" lon="11.4322167"><ele>159.0</ele><time>2026-04-30T09:59:01.328Z</time></trkpt><trkpt lat="43.21659" lon="11.43229"><ele>159.0</ele><time>2026-04-30T09:59:02.328Z</time></trkpt><trkpt lat="43.2164983" lon="11.432365"><ele>159.0</ele><time>2026-04-30T09:59:03.328Z</time></trkpt><trkpt lat="43.2164117" lon="11.4324317"><ele>159.0</ele><time>2026-04-30T09:59:04.328Z</time></trkpt><trkpt lat="43.2163233" lon="11.4324867"><ele>159.0</ele><time>2026-04-30T09:59:05.328Z</time></trkpt><trkpt lat="43.2162367" lon="11.4325467"><ele>159.0</ele><time>2026-04-30T09:59:06.327Z</time></trkpt><trkpt lat="43.21616" lon="11.4325933"><ele>159.14285714285714</ele><time>2026-04-30T09:59:07.328Z</time></trkpt><trkpt lat="43.216085" lon="11.43262"><ele>159.2857142857143</ele><time>2026-04-30T09:59:08.328Z</time></trkpt><trkpt lat="43.2160083" lon="11.4326267"><ele>159.42857142857144</ele><time>2026-04-30T09:59:09.328Z</time></trkpt><trkpt lat="43.2159367" lon="11.4326133"><ele>159.57142857142856</ele><time>2026-04-30T09:59:10.327Z</time></trkpt><trkpt lat="43.21587" lon="11.432585"><ele>159.71428571428572</ele><time>2026-04-30T09:59:11.327Z</time></trkpt><trkpt lat="43.2158" lon="11.4325633"><ele>159.85714285714286</ele><time>2026-04-30T09:59:12.327Z</time></trkpt><trkpt lat="43.2157233" lon="11.432565"><ele>160.0</ele><time>2026-04-30T09:59:13.328Z</time></trkpt><trkpt lat="43.21565" lon="11.4325933"><ele>160.2</ele><time>2026-04-30T09:59:14.328Z</time></trkpt><trkpt lat="43.2155667" lon="11.4326317"><ele>160.4</ele><time>2026-04-30T09:59:15.328Z</time></trkpt><trkpt lat="43.2154617" lon="11.43267"><ele>160.60000000000002</ele><time>2026-04-30T09:59:16.328Z</time></trkpt><trkpt lat="43.2153517" lon="11.4326817"><ele>160.8</ele><time>2026-04-30T09:59:17.328Z</time></trkpt><trkpt lat="43.2152283" lon="11.43266"><ele>161.0</ele><time>2026-04-30T09:59:18.328Z</time></trkpt><trkpt lat="43.2150967" lon="11.43261"><ele>161.0</ele><time>2026-04-30T09:59:19.328Z</time></trkpt><trkpt lat="43.21497" lon="11.43255"><ele>161.0</ele><time>2026-04-30T09:59:20.328Z</time></trkpt><trkpt lat="43.214835" lon="11.4324783"><ele>161.0</ele><time>2026-04-30T09:59:21.328Z</time></trkpt><trkpt lat="43.2146967" lon="11.4324"><ele>161.0</ele><time>2026-04-30T09:59:22.328Z</time></trkpt><trkpt lat="43.21455" lon="11.4323267"><ele>162.0</ele><time>2026-04-30T09:59:23.327Z</time></trkpt><trkpt lat="43.214395" lon="11.432255"><ele>163.0</ele><time>2026-04-30T09:59:24.328Z</time></trkpt><trkpt lat="43.2142417" lon="11.43219"><ele>164.0</ele><time>2026-04-30T09:59:25.328Z</time></trkpt><trkpt lat="43.21408" lon="11.43214"><ele>163.66666666666666</ele><time>2026-04-30T09:59:26.328Z</time></trkpt><trkpt lat="43.21392" lon="11.4320933"><ele>163.33333333333334</ele><time>2026-04-30T09:59:27.328Z</time></trkpt><trkpt lat="43.213755" lon="11.43204"><ele>163.0</ele><time>2026-04-30T09:59:28.327Z</time></trkpt><trkpt lat="43.2135833" lon="11.4319983"><ele>163.0</ele><time>2026-04-30T09:59:29.328Z</time></trkpt><trkpt lat="43.2134133" lon="11.4319517"><ele>163.0</ele><time>2026-04-30T09:59:30.328Z</time></trkpt><trkpt lat="43.2132367" lon="11.43191"><ele>163.0</ele><time>2026-04-30T09:59:31.328Z</time></trkpt><trkpt lat="43.2130633" lon="11.43188"><ele>163.66666666666669</ele><time>2026-04-30T09:59:32.328Z</time></trkpt><trkpt lat="43.212895" lon="11.4318483"><ele>164.33333333333334</ele><time>2026-04-30T09:59:33.327Z</time></trkpt><trkpt lat="43.21273" lon="11.43183"><ele>165.0</ele><time>2026-04-30T09:59:34.328Z</time></trkpt><trkpt lat="43.212565" lon="11.431825"><ele>165.0</ele><time>2026-04-30T09:59:35.328Z</time></trkpt><trkpt lat="43.212405" lon="11.4318283"><ele>165.0</ele><time>2026-04-30T09:59:36.328Z</time></trkpt><trkpt lat="43.21225" lon="11.43183"><ele>165.0</ele><time>2026-04-30T09:59:37.327Z</time></trkpt><trkpt lat="43.2120933" lon="11.4318433"><ele>165.33333333333334</ele><time>2026-04-30T09:59:38.328Z</time></trkpt><trkpt lat="43.2119333" lon="11.4318483"><ele>165.66666666666669</ele><time>2026-04-30T09:59:39.328Z</time></trkpt><trkpt lat="43.2117767" lon="11.4318533"><ele>166.0</ele><time>2026-04-30T09:59:40.327Z</time></trkpt><trkpt lat="43.2116133" lon="11.4318633"><ele>165.66666666666669</ele><time>2026-04-30T09:59:41.328Z</time></trkpt><trkpt lat="43.2114567" lon="11.4318717"><ele>165.33333333333334</ele><time>2026-04-30T09:59:42.328Z</time></trkpt><trkpt lat="43.2113" lon="11.43188"><ele>165.0</ele><time>2026-04-30T09:59:43.328Z</time></trkpt><trkpt lat="43.2111433" lon="11.4318883"><ele>165.0</ele><time>2026-04-30T09:59:44.328Z</time></trkpt><trkpt lat="43.210985" lon="11.4319"><ele>165.0</ele><time>2026-04-30T09:59:45.328Z</time></trkpt><trkpt lat="43.2108233" lon="11.43191"><ele>165.0</ele><time>2026-04-30T09:59:46.327Z</time></trkpt><trkpt lat="43.21066" lon="11.431925"><ele>165.33333333333334</ele><time>2026-04-30T09:59:47.328Z</time></trkpt><trkpt lat="43.2104967" lon="11.43193"><ele>165.66666666666669</ele><time>2026-04-30T09:59:48.328Z</time></trkpt><trkpt lat="43.2103383" lon="11.4319417"><ele>166.0</ele><time>2026-04-30T09:59:49.328Z</time></trkpt><trkpt lat="43.21018" lon="11.4319483"><ele>166.0</ele><time>2026-04-30T09:59:50.327Z</time></trkpt><trkpt lat="43.2100217" lon="11.4319617"><ele>166.0</ele><time>2026-04-30T09:59:51.328Z</time></trkpt><trkpt lat="43.2098633" lon="11.43197"><ele>166.0</ele><time>2026-04-30T09:59:52.327Z</time></trkpt><trkpt lat="43.2097167" lon="11.4319717"><ele>165.75</ele><time>2026-04-30T09:59:53.327Z</time></trkpt><trkpt lat="43.2095783" lon="11.4319817"><ele>165.5</ele><time>2026-04-30T09:59:54.327Z</time></trkpt><trkpt lat="43.2094467" lon="11.4320083"><ele>165.25</ele><time>2026-04-30T09:59:55.327Z</time></trkpt><trkpt lat="43.2093283" lon="11.4320617"><ele>165.0</ele><time>2026-04-30T09:59:56.327Z</time></trkpt><trkpt lat="43.20922" lon="11.4321667"><ele>165.0</ele><time>2026-04-30T09:59:57.327Z</time></trkpt><trkpt lat="43.2091367" lon="11.4322933"><ele>165.0</ele><time>2026-04-30T09:59:58.327Z</time></trkpt><trkpt lat="43.2090767" lon="11.4324433"><ele>165.0</ele><time>2026-04-30T09:59:59.327Z</time></trkpt><trkpt lat="43.2090283" lon="11.4325767"><ele>165.0</ele><time>2026-04-30T10:00:00.327Z</time></trkpt><trkpt lat="43.208965" lon="11.4327"><ele>164.5</ele><time>2026-04-30T10:00:01.326Z</time></trkpt><trkpt lat="43.2088867" lon="11.4327983"><ele>164.0</ele><time>2026-04-30T10:00:02.327Z</time></trkpt><trkpt lat="43.2087867" lon="11.432875"><ele>163.5</ele><time>2026-04-30T10:00:03.327Z</time></trkpt><trkpt lat="43.2086767" lon="11.4329"><ele>163.0</ele><time>2026-04-30T10:00:04.327Z</time></trkpt><trkpt lat="43.2085517" lon="11.4328867"><ele>163.0</ele><time>2026-04-30T10:00:05.327Z</time></trkpt><trkpt lat="43.2084233" lon="11.4328333"><ele>163.0</ele><time>2026-04-30T10:00:06.327Z</time></trkpt><trkpt lat="43.2082817" lon="11.43276"><ele>163.0</ele><time>2026-04-30T10:00:07.327Z</time></trkpt><trkpt lat="43.2081467" lon="11.43268"><ele>163.0</ele><time>2026-04-30T10:00:08.327Z</time></trkpt><trkpt lat="43.2080083" lon="11.4326217"><ele>162.66666666666669</ele><time>2026-04-30T10:00:09.327Z</time></trkpt><trkpt lat="43.2078583" lon="11.4326067"><ele>162.33333333333334</ele><time>2026-04-30T10:00:10.326Z</time></trkpt><trkpt lat="43.2077067" lon="11.4326333"><ele>162.0</ele><time>2026-04-30T10:00:11.327Z</time></trkpt><trkpt lat="43.2075533" lon="11.4326883"><ele>162.0</ele><time>2026-04-30T10:00:12.327Z</time></trkpt><trkpt lat="43.2073983" lon="11.4327733"><ele>162.0</ele><time>2026-04-30T10:00:13.327Z</time></trkpt><trkpt lat="43.2072433" lon="11.432875"><ele>162.0</ele><time>2026-04-30T10:00:14.327Z</time></trkpt><trkpt lat="43.20709" lon="11.4330033"><ele>163.0</ele><time>2026-04-30T10:00:15.326Z</time></trkpt><trkpt lat="43.206945" lon="11.4331467"><ele>164.0</ele><time>2026-04-30T10:00:16.326Z</time></trkpt><trkpt lat="43.2068" lon="11.4333033"><ele>165.0</ele><time>2026-04-30T10:00:17.327Z</time></trkpt><trkpt lat="43.206655" lon="11.4334667"><ele>165.0</ele><time>2026-04-30T10:00:18.327Z</time></trkpt><trkpt lat="43.2065067" lon="11.4336283"><ele>165.0</ele><time>2026-04-30T10:00:19.327Z</time></trkpt><trkpt lat="43.20636" lon="11.4337967"><ele>165.0</ele><time>2026-04-30T10:00:20.327Z</time></trkpt><trkpt lat="43.20622" lon="11.4339717"><ele>166.66666666666666</ele><time>2026-04-30T10:00:21.326Z</time></trkpt><trkpt lat="43.2060883" lon="11.4341433"><ele>168.33333333333331</ele><time>2026-04-30T10:00:22.326Z</time></trkpt><trkpt lat="43.2059667" lon="11.434315"><ele>170.0</ele><time>2026-04-30T10:00:23.327Z</time></trkpt><trkpt lat="43.205855" lon="11.4344733"><ele>170.0</ele><time>2026-04-30T10:00:24.327Z</time></trkpt><trkpt lat="43.2057483" lon="11.43462"><ele>170.0</ele><time>2026-04-30T10:00:25.326Z</time></trkpt><trkpt lat="43.20564" lon="11.4347367"><ele>170.0</ele><time>2026-04-30T10:00:26.327Z</time></trkpt><trkpt lat="43.2055217" lon="11.4348283"><ele>170.0</ele><time>2026-04-30T10:00:27.326Z</time></trkpt><trkpt lat="43.205395" lon="11.434895"><ele>171.25</ele><time>2026-04-30T10:00:28.327Z</time></trkpt><trkpt lat="43.2052517" lon="11.4349083"><ele>172.5</ele><time>2026-04-30T10:00:29.327Z</time></trkpt><trkpt lat="43.2051067" lon="11.4348567"><ele>173.75</ele><time>2026-04-30T10:00:30.327Z</time></trkpt><trkpt lat="43.2049717" lon="11.434775"><ele>175.0</ele><time>2026-04-30T10:00:31.326Z</time></trkpt><trkpt lat="43.20486" lon="11.4346467"><ele>179.33333333333334</ele><time>2026-04-30T10:00:32.327Z</time></trkpt><trkpt lat="43.2047633" lon="11.4344733"><ele>183.66666666666666</ele><time>2026-04-30T10:00:33.326Z</time></trkpt><trkpt lat="43.2046967" lon="11.4342717"><ele>188.0</ele><time>2026-04-30T10:00:34.327Z</time></trkpt><trkpt lat="43.2046417" lon="11.4340433"><ele>188.33333333333331</ele><time>2026-04-30T10:00:35.326Z</time></trkpt><trkpt lat="43.2045833" lon="11.4338"><ele>188.66666666666666</ele><time>2026-04-30T10:00:36.327Z</time></trkpt><trkpt lat="43.2045067" lon="11.4335483"><ele>189.0</ele><time>2026-04-30T10:00:37.327Z</time></trkpt><trkpt lat="43.20443" lon="11.43329"><ele>189.0</ele><time>2026-04-30T10:00:38.327Z</time></trkpt><trkpt lat="43.2043567" lon="11.4330267"><ele>189.0</ele><time>2026-04-30T10:00:39.327Z</time></trkpt><trkpt lat="43.2042717" lon="11.4327683"><ele>189.0</ele><time>2026-04-30T10:00:40.327Z</time></trkpt><trkpt lat="43.2041933" lon="11.4325083"><ele>188.66666666666666</ele><time>2026-04-30T10:00:41.327Z</time></trkpt><trkpt lat="43.204115" lon="11.43225"><ele>188.33333333333331</ele><time>2026-04-30T10:00:42.327Z</time></trkpt><trkpt lat="43.2040467" lon="11.4320067"><ele>188.0</ele><time>2026-04-30T10:00:43.327Z</time></trkpt><trkpt lat="43.2039833" lon="11.4317733"><ele>183.33333333333331</ele><time>2026-04-30T10:00:44.327Z</time></trkpt><trkpt lat="43.2039167" lon="11.431535"><ele>178.66666666666666</ele><time>2026-04-30T10:00:45.327Z</time></trkpt><trkpt lat="43.2038517" lon="11.431305"><ele>174.0</ele><time>2026-04-30T10:00:46.326Z</time></trkpt><trkpt lat="43.2037967" lon="11.431075"><ele>173.33333333333334</ele><time>2026-04-30T10:00:47.327Z</time></trkpt><trkpt lat="43.2037367" lon="11.4308417"><ele>172.66666666666669</ele><time>2026-04-30T10:00:48.327Z</time></trkpt><trkpt lat="43.2036767" lon="11.4306167"><ele>172.0</ele><time>2026-04-30T10:00:49.327Z</time></trkpt><trkpt lat="43.2036117" lon="11.4303967"><ele>172.0</ele><time>2026-04-30T10:00:50.327Z</time></trkpt><trkpt lat="43.2035483" lon="11.430185"><ele>172.0</ele><time>2026-04-30T10:00:51.327Z</time></trkpt><trkpt lat="43.2034833" lon="11.4299833"><ele>172.0</ele><time>2026-04-30T10:00:52.327Z</time></trkpt><trkpt lat="43.2034233" lon="11.429795"><ele>172.0</ele><time>2026-04-30T10:00:53.327Z</time></trkpt><trkpt lat="43.2033733" lon="11.4295967"><ele>172.0</ele><time>2026-04-30T10:00:54.327Z</time></trkpt><trkpt lat="43.2033133" lon="11.4294017"><ele>172.0</ele><time>2026-04-30T10:00:55.327Z</time></trkpt><trkpt lat="43.203255" lon="11.4291983"><ele>172.0</ele><time>2026-04-30T10:00:56.327Z</time></trkpt><trkpt lat="43.2031967" lon="11.4290017"><ele>172.0</ele><time>2026-04-30T10:00:57.327Z</time></trkpt><trkpt lat="43.2031433" lon="11.4288067"><ele>172.0</ele><time>2026-04-30T10:00:58.326Z</time></trkpt><trkpt lat="43.2030817" lon="11.4286233"><ele>169.66666666666669</ele><time>2026-04-30T10:00:59.326Z</time></trkpt><trkpt lat="43.20299" lon="11.428445"><ele>167.33333333333334</ele><time>2026-04-30T10:01:00.327Z</time></trkpt><trkpt lat="43.20288" lon="11.428275"><ele>165.0</ele><time>2026-04-30T10:01:01.326Z</time></trkpt><trkpt lat="43.2027583" lon="11.4281267"><ele>165.0</ele><time>2026-04-30T10:01:02.327Z</time></trkpt><trkpt lat="43.2026117" lon="11.4280017"><ele>165.0</ele><time>2026-04-30T10:01:03.326Z</time></trkpt><trkpt lat="43.2024433" lon="11.427905"><ele>165.0</ele><time>2026-04-30T10:01:04.327Z</time></trkpt><trkpt lat="43.2022633" lon="11.4278267"><ele>163.66666666666666</ele><time>2026-04-30T10:01:05.326Z</time></trkpt><trkpt lat="43.202075" lon="11.4277583"><ele>162.33333333333331</ele><time>2026-04-30T10:01:06.327Z</time></trkpt><trkpt lat="43.2018817" lon="11.4276933"><ele>161.0</ele><time>2026-04-30T10:01:07.327Z</time></trkpt><trkpt lat="43.2016883" lon="11.4276317"><ele>161.0</ele><time>2026-04-30T10:01:08.327Z</time></trkpt><trkpt lat="43.2015" lon="11.4275617"><ele>161.0</ele><time>2026-04-30T10:01:09.327Z</time></trkpt><trkpt lat="43.2013083" lon="11.427495"><ele>161.0</ele><time>2026-04-30T10:01:10.327Z</time></trkpt><trkpt lat="43.2011133" lon="11.427425"><ele>160.66666666666666</ele><time>2026-04-30T10:01:11.327Z</time></trkpt><trkpt lat="43.2009167" lon="11.4273517"><ele>160.33333333333334</ele><time>2026-04-30T10:01:12.327Z</time></trkpt><trkpt lat="43.2007117" lon="11.4272783"><ele>160.0</ele><time>2026-04-30T10:01:13.327Z</time></trkpt><trkpt lat="43.2005133" lon="11.4272033"><ele>159.33333333333334</ele><time>2026-04-30T10:01:14.326Z</time></trkpt><trkpt lat="43.2003033" lon="11.4271333"><ele>158.66666666666666</ele><time>2026-04-30T10:01:15.326Z</time></trkpt><trkpt lat="43.2001" lon="11.4270567"><ele>158.0</ele><time>2026-04-30T10:01:16.327Z</time></trkpt><trkpt lat="43.1998933" lon="11.426985"><ele>158.0</ele><time>2026-04-30T10:01:17.327Z</time></trkpt><trkpt lat="43.19969" lon="11.4269133"><ele>158.0</ele><time>2026-04-30T10:01:18.327Z</time></trkpt><trkpt lat="43.199485" lon="11.4268383"><ele>158.0</ele><time>2026-04-30T10:01:19.326Z</time></trkpt><trkpt lat="43.1992817" lon="11.4267683"><ele>158.0</ele><time>2026-04-30T10:01:20.326Z</time></trkpt><trkpt lat="43.1990867" lon="11.4266883"><ele>158.0</ele><time>2026-04-30T10:01:21.327Z</time></trkpt><trkpt lat="43.1988817" lon="11.4266117"><ele>158.0</ele><time>2026-04-30T10:01:22.327Z</time></trkpt><trkpt lat="43.1986783" lon="11.4265417"><ele>158.33333333333331</ele><time>2026-04-30T10:01:23.327Z</time></trkpt><trkpt lat="43.19847" lon="11.4264733"><ele>158.66666666666666</ele><time>2026-04-30T10:01:24.327Z</time></trkpt><trkpt lat="43.1982667" lon="11.4263967"><ele>159.0</ele><time>2026-04-30T10:01:25.327Z</time></trkpt><trkpt lat="43.1980617" lon="11.426315"><ele>159.33333333333334</ele><time>2026-04-30T10:01:26.327Z</time></trkpt><trkpt lat="43.1978617" lon="11.426235"><ele>159.66666666666669</ele><time>2026-04-30T10:01:27.326Z</time></trkpt><trkpt lat="43.1976667" lon="11.4261517"><ele>160.0</ele><time>2026-04-30T10:01:28.327Z</time></trkpt><trkpt lat="43.1974633" lon="11.4260817"><ele>162.33333333333334</ele><time>2026-04-30T10:01:29.327Z</time></trkpt><trkpt lat="43.197245" lon="11.4260017"><ele>164.66666666666666</ele><time>2026-04-30T10:01:30.327Z</time></trkpt><trkpt lat="43.19703" lon="11.4259333"><ele>167.0</ele><time>2026-04-30T10:01:31.326Z</time></trkpt><trkpt lat="43.1968183" lon="11.4258617"><ele>167.0</ele><time>2026-04-30T10:01:32.326Z</time></trkpt><trkpt lat="43.1966083" lon="11.4257867"><ele>167.0</ele><time>2026-04-30T10:01:33.327Z</time></trkpt><trkpt lat="43.196395" lon="11.4257083"><ele>167.0</ele><time>2026-04-30T10:01:34.327Z</time></trkpt><trkpt lat="43.1961867" lon="11.42563"><ele>169.0</ele><time>2026-04-30T10:01:35.327Z</time></trkpt><trkpt lat="43.1959917" lon="11.4255617"><ele>171.0</ele><time>2026-04-30T10:01:36.327Z</time></trkpt><trkpt lat="43.195815" lon="11.425485"><ele>173.0</ele><time>2026-04-30T10:01:37.327Z</time></trkpt><trkpt lat="43.1956517" lon="11.42542"><ele>175.5</ele><time>2026-04-30T10:01:38.327Z</time></trkpt><trkpt lat="43.195495" lon="11.4253683"><ele>178.0</ele><time>2026-04-30T10:01:39.326Z</time></trkpt><trkpt lat="43.1953517" lon="11.4253483"><ele>180.5</ele><time>2026-04-30T10:01:40.326Z</time></trkpt><trkpt lat="43.19521" lon="11.4253633"><ele>183.0</ele><time>2026-04-30T10:01:41.327Z</time></trkpt><trkpt lat="43.19507" lon="11.42541"><ele>184.25</ele><time>2026-04-30T10:01:42.326Z</time></trkpt><trkpt lat="43.1949417" lon="11.425495"><ele>185.5</ele><time>2026-04-30T10:01:43.327Z</time></trkpt><trkpt lat="43.1948267" lon="11.42562"><ele>186.75</ele><time>2026-04-30T10:01:44.326Z</time></trkpt><trkpt lat="43.19473" lon="11.425795"><ele>188.0</ele><time>2026-04-30T10:01:45.327Z</time></trkpt><trkpt lat="43.1946417" lon="11.4259833"><ele>188.0</ele><time>2026-04-30T10:01:46.327Z</time></trkpt><trkpt lat="43.1945617" lon="11.4261667"><ele>188.0</ele><time>2026-04-30T10:01:47.327Z</time></trkpt><trkpt lat="43.1944883" lon="11.4263167"><ele>188.0</ele><time>2026-04-30T10:01:48.327Z</time></trkpt><trkpt lat="43.194395" lon="11.4264133"><ele>188.0</ele><time>2026-04-30T10:01:49.326Z</time></trkpt><trkpt lat="43.1943067" lon="11.426455"><ele>188.0</ele><time>2026-04-30T10:01:50.327Z</time></trkpt><trkpt lat="43.194205" lon="11.426445"><ele>188.0</ele><time>2026-04-30T10:01:51.327Z</time></trkpt><trkpt lat="43.1941133" lon="11.42639"><ele>188.0</ele><time>2026-04-30T10:01:52.326Z</time></trkpt><trkpt lat="43.1940517" lon="11.4262833"><ele>188.0</ele><time>2026-04-30T10:01:53.327Z</time></trkpt><trkpt lat="43.1940217" lon="11.4261483"><ele>188.0</ele><time>2026-04-30T10:01:54.327Z</time></trkpt><trkpt lat="43.1940217" lon="11.4259883"><ele>188.0</ele><time>2026-04-30T10:01:55.327Z</time></trkpt><trkpt lat="43.1940583" lon="11.4258167"><ele>188.0</ele><time>2026-04-30T10:01:56.327Z</time></trkpt><trkpt lat="43.1941167" lon="11.425635"><ele>188.0</ele><time>2026-04-30T10:01:57.327Z</time></trkpt><trkpt lat="43.194175" lon="11.4254333"><ele>188.0</ele><time>2026-04-30T10:01:58.326Z</time></trkpt><trkpt lat="43.1942233" lon="11.4252333"><ele>190.66666666666666</ele><time>2026-04-30T10:01:59.327Z</time></trkpt><trkpt lat="43.1942767" lon="11.4250283"><ele>193.33333333333331</ele><time>2026-04-30T10:02:00.327Z</time></trkpt><trkpt lat="43.194335" lon="11.42482"><ele>196.0</ele><time>2026-04-30T10:02:01.327Z</time></trkpt><trkpt lat="43.1944117" lon="11.4246133"><ele>198.33333333333331</ele><time>2026-04-30T10:02:02.327Z</time></trkpt><trkpt lat="43.19449" lon="11.424405"><ele>200.66666666666669</ele><time>2026-04-30T10:02:03.327Z</time></trkpt><trkpt lat="43.194555" lon="11.4241967"><ele>203.0</ele><time>2026-04-30T10:02:04.327Z</time></trkpt><trkpt lat="43.19462" lon="11.4239733"><ele>204.66666666666669</ele><time>2026-04-30T10:02:05.327Z</time></trkpt><trkpt lat="43.1946617" lon="11.4237667"><ele>206.33333333333331</ele><time>2026-04-30T10:02:06.327Z</time></trkpt><trkpt lat="43.1946733" lon="11.423565"><ele>208.0</ele><time>2026-04-30T10:02:07.327Z</time></trkpt><trkpt lat="43.1946683" lon="11.423365"><ele>208.0</ele><time>2026-04-30T10:02:08.326Z</time></trkpt><trkpt lat="43.1946233" lon="11.4231767"><ele>208.0</ele><time>2026-04-30T10:02:09.327Z</time></trkpt><trkpt lat="43.1945567" lon="11.4230083"><ele>208.0</ele><time>2026-04-30T10:02:10.327Z</time></trkpt><trkpt lat="43.19446" lon="11.4228583"><ele>208.0</ele><time>2026-04-30T10:02:11.327Z</time></trkpt><trkpt lat="43.1943317" lon="11.4227467"><ele>208.0</ele><time>2026-04-30T10:02:12.327Z</time></trkpt><trkpt lat="43.1941833" lon="11.4226767"><ele>208.0</ele><time>2026-04-30T10:02:13.326Z</time></trkpt><trkpt lat="43.19402" lon="11.4226117"><ele>208.0</ele><time>2026-04-30T10:02:14.327Z</time></trkpt><trkpt lat="43.1938467" lon="11.4225467"><ele>210.0</ele><time>2026-04-30T10:02:15.326Z</time></trkpt><trkpt lat="43.1936717" lon="11.4224783"><ele>212.0</ele><time>2026-04-30T10:02:16.327Z</time></trkpt><trkpt lat="43.1934867" lon="11.422405"><ele>214.0</ele><time>2026-04-30T10:02:17.327Z</time></trkpt><trkpt lat="43.193305" lon="11.42233"><ele>214.66666666666666</ele><time>2026-04-30T10:02:18.326Z</time></trkpt><trkpt lat="43.19312" lon="11.422255"><ele>215.33333333333331</ele><time>2026-04-30T10:02:19.326Z</time></trkpt><trkpt lat="43.1929333" lon="11.4221817"><ele>216.0</ele><time>2026-04-30T10:02:20.327Z</time></trkpt><trkpt lat="43.192745" lon="11.422085"><ele>216.0</ele><time>2026-04-30T10:02:21.327Z</time></trkpt><trkpt lat="43.19256" lon="11.422"><ele>216.0</ele><time>2026-04-30T10:02:22.327Z</time></trkpt><trkpt lat="43.19239" lon="11.4219233"><ele>216.0</ele><time>2026-04-30T10:02:23.327Z</time></trkpt><trkpt lat="43.1922283" lon="11.4218433"><ele>218.0</ele><time>2026-04-30T10:02:24.327Z</time></trkpt><trkpt lat="43.1920883" lon="11.4217267"><ele>220.0</ele><time>2026-04-30T10:02:25.327Z</time></trkpt><trkpt lat="43.1919667" lon="11.4215783"><ele>222.0</ele><time>2026-04-30T10:02:26.327Z</time></trkpt><trkpt lat="43.1918717" lon="11.4213867"><ele>224.33333333333331</ele><time>2026-04-30T10:02:27.327Z</time></trkpt><trkpt lat="43.19179" lon="11.4211733"><ele>226.66666666666666</ele><time>2026-04-30T10:02:28.327Z</time></trkpt><trkpt lat="43.1917167" lon="11.420945"><ele>229.0</ele><time>2026-04-30T10:02:29.327Z</time></trkpt><trkpt lat="43.1916633" lon="11.42071"><ele>230.33333333333331</ele><time>2026-04-30T10:02:30.327Z</time></trkpt><trkpt lat="43.19163" lon="11.4204583"><ele>231.66666666666669</ele><time>2026-04-30T10:02:31.327Z</time></trkpt><trkpt lat="43.1916017" lon="11.4202117"><ele>233.0</ele><time>2026-04-30T10:02:32.327Z</time></trkpt><trkpt lat="43.191585" lon="11.41996"><ele>233.0</ele><time>2026-04-30T10:02:33.327Z</time></trkpt><trkpt lat="43.1915817" lon="11.419705"><ele>233.0</ele><time>2026-04-30T10:02:34.327Z</time></trkpt><trkpt lat="43.19156" lon="11.4194533"><ele>233.0</ele><time>2026-04-30T10:02:35.327Z</time></trkpt><trkpt lat="43.1915117" lon="11.4192133"><ele>231.66666666666669</ele><time>2026-04-30T10:02:36.327Z</time></trkpt><trkpt lat="43.191475" lon="11.4189633"><ele>230.33333333333331</ele><time>2026-04-30T10:02:37.327Z</time></trkpt><trkpt lat="43.1914167" lon="11.4187283"><ele>229.0</ele><time>2026-04-30T10:02:38.327Z</time></trkpt><trkpt lat="43.1913683" lon="11.4185"><ele>229.0</ele><time>2026-04-30T10:02:39.327Z</time></trkpt><trkpt lat="43.1913183" lon="11.4182933"><ele>229.0</ele><time>2026-04-30T10:02:40.326Z</time></trkpt><trkpt lat="43.19125" lon="11.4180967"><ele>229.0</ele><time>2026-04-30T10:02:41.326Z</time></trkpt><trkpt lat="43.191165" lon="11.417905"><ele>229.0</ele><time>2026-04-30T10:02:42.327Z</time></trkpt><trkpt lat="43.1910517" lon="11.417745"><ele>229.0</ele><time>2026-04-30T10:02:43.327Z</time></trkpt><trkpt lat="43.1909267" lon="11.4176117"><ele>229.0</ele><time>2026-04-30T10:02:44.327Z</time></trkpt><trkpt lat="43.1907733" lon="11.417485"><ele>226.66666666666666</ele><time>2026-04-30T10:02:45.327Z</time></trkpt><trkpt lat="43.1905933" lon="11.4173967"><ele>224.33333333333331</ele><time>2026-04-30T10:02:46.327Z</time></trkpt><trkpt lat="43.1904033" lon="11.4173067"><ele>222.0</ele><time>2026-04-30T10:02:47.327Z</time></trkpt><trkpt lat="43.1902117" lon="11.417225"><ele>221.66666666666669</ele><time>2026-04-30T10:02:48.327Z</time></trkpt><trkpt lat="43.1900233" lon="11.4171367"><ele>221.33333333333334</ele><time>2026-04-30T10:02:49.326Z</time></trkpt><trkpt lat="43.1898283" lon="11.41705"><ele>221.0</ele><time>2026-04-30T10:02:50.327Z</time></trkpt><trkpt lat="43.1896333" lon="11.416955"><ele>221.0</ele><time>2026-04-30T10:02:51.327Z</time></trkpt><trkpt lat="43.189435" lon="11.4168517"><ele>221.0</ele><time>2026-04-30T10:02:52.326Z</time></trkpt><trkpt lat="43.1892283" lon="11.4167517"><ele>221.0</ele><time>2026-04-30T10:02:53.326Z</time></trkpt><trkpt lat="43.18903" lon="11.416655"><ele>217.66666666666669</ele><time>2026-04-30T10:02:54.327Z</time></trkpt><trkpt lat="43.1888267" lon="11.4165533"><ele>214.33333333333331</ele><time>2026-04-30T10:02:55.327Z</time></trkpt><trkpt lat="43.18862" lon="11.4164567"><ele>211.0</ele><time>2026-04-30T10:02:56.327Z</time></trkpt><trkpt lat="43.1884217" lon="11.4163567"><ele>213.0</ele><time>2026-04-30T10:02:57.326Z</time></trkpt><trkpt lat="43.1882183" lon="11.4162567"><ele>215.0</ele><time>2026-04-30T10:02:58.326Z</time></trkpt><trkpt lat="43.1880117" lon="11.4161533"><ele>217.0</ele><time>2026-04-30T10:02:59.326Z</time></trkpt><trkpt lat="43.1878067" lon="11.4160467"><ele>217.0</ele><time>2026-04-30T10:03:00.327Z</time></trkpt><trkpt lat="43.18759" lon="11.4159433"><ele>217.0</ele><time>2026-04-30T10:03:01.327Z</time></trkpt><trkpt lat="43.187375" lon="11.41584"><ele>212.0</ele><time>2026-04-30T10:03:02.326Z</time></trkpt><trkpt lat="43.1871583" lon="11.415735"><ele>207.0</ele><time>2026-04-30T10:03:03.327Z</time></trkpt><trkpt lat="43.186945" lon="11.4156333"><ele>207.0</ele><time>2026-04-30T10:03:04.327Z</time></trkpt><trkpt lat="43.1867383" lon="11.415525"><ele>207.0</ele><time>2026-04-30T10:03:05.327Z</time></trkpt><trkpt lat="43.1865283" lon="11.4154233"><ele>207.0</ele><time>2026-04-30T10:03:06.327Z</time></trkpt><trkpt lat="43.18632" lon="11.4153133"><ele>207.66666666666669</ele><time>2026-04-30T10:03:07.327Z</time></trkpt><trkpt lat="43.186115" lon="11.41521"><ele>208.33333333333334</ele><time>2026-04-30T10:03:08.327Z</time></trkpt><trkpt lat="43.1859083" lon="11.4151"><ele>209.0</ele><time>2026-04-30T10:03:09.327Z</time></trkpt><trkpt lat="43.1857033" lon="11.415"><ele>207.33333333333334</ele><time>2026-04-30T10:03:10.327Z</time></trkpt><trkpt lat="43.1855167" lon="11.4148967"><ele>205.66666666666669</ele><time>2026-04-30T10:03:11.327Z</time></trkpt><trkpt lat="43.1853233" lon="11.4148083"><ele>204.0</ele><time>2026-04-30T10:03:12.326Z</time></trkpt><trkpt lat="43.1851317" lon="11.4147183"><ele>203.33333333333331</ele><time>2026-04-30T10:03:13.327Z</time></trkpt><trkpt lat="43.1849483" lon="11.4146283"><ele>202.66666666666666</ele><time>2026-04-30T10:03:14.327Z</time></trkpt><trkpt lat="43.1847583" lon="11.4145333"><ele>202.0</ele><time>2026-04-30T10:03:15.327Z</time></trkpt><trkpt lat="43.1845667" lon="11.414435"><ele>202.0</ele><time>2026-04-30T10:03:16.327Z</time></trkpt><trkpt lat="43.1843783" lon="11.414345"><ele>202.0</ele><time>2026-04-30T10:03:17.327Z</time></trkpt><trkpt lat="43.18419" lon="11.414255"><ele>202.0</ele><time>2026-04-30T10:03:18.326Z</time></trkpt><trkpt lat="43.1840083" lon="11.4141733"><ele>199.33333333333331</ele><time>2026-04-30T10:03:19.327Z</time></trkpt><trkpt lat="43.1838333" lon="11.41409"><ele>196.66666666666669</ele><time>2026-04-30T10:03:20.327Z</time></trkpt><trkpt lat="43.183665" lon="11.4140117"><ele>194.0</ele><time>2026-04-30T10:03:21.326Z</time></trkpt><trkpt lat="43.1834983" lon="11.4139383"><ele>194.0</ele><time>2026-04-30T10:03:22.326Z</time></trkpt><trkpt lat="43.1833383" lon="11.4138567"><ele>194.0</ele><time>2026-04-30T10:03:23.326Z</time></trkpt><trkpt lat="43.183195" lon="11.4137783"><ele>194.0</ele><time>2026-04-30T10:03:24.326Z</time></trkpt><trkpt lat="43.183065" lon="11.4136833"><ele>193.33333333333334</ele><time>2026-04-30T10:03:25.327Z</time></trkpt><trkpt lat="43.182945" lon="11.41356"><ele>192.66666666666669</ele><time>2026-04-30T10:03:26.327Z</time></trkpt><trkpt lat="43.1828283" lon="11.4134233"><ele>192.0</ele><time>2026-04-30T10:03:27.327Z</time></trkpt><trkpt lat="43.18272" lon="11.4132783"><ele>192.0</ele><time>2026-04-30T10:03:28.326Z</time></trkpt><trkpt lat="43.1826283" lon="11.4131333"><ele>192.0</ele><time>2026-04-30T10:03:29.327Z</time></trkpt><trkpt lat="43.1825517" lon="11.4129717"><ele>192.0</ele><time>2026-04-30T10:03:30.327Z</time></trkpt><trkpt lat="43.1825033" lon="11.4127967"><ele>192.0</ele><time>2026-04-30T10:03:31.327Z</time></trkpt><trkpt lat="43.1824667" lon="11.4126117"><ele>192.0</ele><time>2026-04-30T10:03:32.327Z</time></trkpt><trkpt lat="43.1824417" lon="11.4124133"><ele>192.0</ele><time>2026-04-30T10:03:33.327Z</time></trkpt><trkpt lat="43.1824383" lon="11.4122083"><ele>192.0</ele><time>2026-04-30T10:03:34.327Z</time></trkpt><trkpt lat="43.1824733" lon="11.4120167"><ele>192.0</ele><time>2026-04-30T10:03:35.326Z</time></trkpt><trkpt lat="43.1825033" lon="11.41179"><ele>192.0</ele><time>2026-04-30T10:03:36.326Z</time></trkpt><trkpt lat="43.1825483" lon="11.4115867"><ele>192.0</ele><time>2026-04-30T10:03:37.327Z</time></trkpt><trkpt lat="43.18258" lon="11.411385"><ele>192.0</ele><time>2026-04-30T10:03:38.327Z</time></trkpt><trkpt lat="43.182605" lon="11.4111683"><ele>190.66666666666666</ele><time>2026-04-30T10:03:39.327Z</time></trkpt><trkpt lat="43.18259" lon="11.4109617"><ele>189.33333333333331</ele><time>2026-04-30T10:03:40.327Z</time></trkpt><trkpt lat="43.1825517" lon="11.4107583"><ele>188.0</ele><time>2026-04-30T10:03:41.326Z</time></trkpt><trkpt lat="43.18248" lon="11.4105567"><ele>187.66666666666666</ele><time>2026-04-30T10:03:42.327Z</time></trkpt><trkpt lat="43.1823767" lon="11.4103633"><ele>187.33333333333334</ele><time>2026-04-30T10:03:43.327Z</time></trkpt><trkpt lat="43.1822483" lon="11.410175"><ele>187.0</ele><time>2026-04-30T10:03:44.327Z</time></trkpt><trkpt lat="43.182105" lon="11.40999"><ele>187.0</ele><time>2026-04-30T10:03:45.327Z</time></trkpt><trkpt lat="43.1819417" lon="11.4098"><ele>187.0</ele><time>2026-04-30T10:03:46.327Z</time></trkpt><trkpt lat="43.18179" lon="11.4095967"><ele>187.0</ele><time>2026-04-30T10:03:47.327Z</time></trkpt><trkpt lat="43.1816467" lon="11.4094017"><ele>187.66666666666669</ele><time>2026-04-30T10:03:48.327Z</time></trkpt><trkpt lat="43.1815183" lon="11.4092233"><ele>188.33333333333334</ele><time>2026-04-30T10:03:49.327Z</time></trkpt><trkpt lat="43.1813983" lon="11.409065"><ele>189.0</ele><time>2026-04-30T10:03:50.327Z</time></trkpt><trkpt lat="43.1812983" lon="11.4088983"><ele>191.66666666666669</ele><time>2026-04-30T10:03:51.326Z</time></trkpt><trkpt lat="43.18121" lon="11.408715"><ele>194.33333333333334</ele><time>2026-04-30T10:03:52.327Z</time></trkpt><trkpt lat="43.1811633" lon="11.408505"><ele>197.0</ele><time>2026-04-30T10:03:53.327Z</time></trkpt><trkpt lat="43.1811467" lon="11.4082983"><ele>197.0</ele><time>2026-04-30T10:03:54.327Z</time></trkpt><trkpt lat="43.1811617" lon="11.40808"><ele>197.0</ele><time>2026-04-30T10:03:55.326Z</time></trkpt><trkpt lat="43.1812067" lon="11.4078667"><ele>197.0</ele><time>2026-04-30T10:03:56.327Z</time></trkpt><trkpt lat="43.1812767" lon="11.40764"><ele>199.66666666666669</ele><time>2026-04-30T10:03:57.327Z</time></trkpt><trkpt lat="43.1813417" lon="11.407405"><ele>202.33333333333331</ele><time>2026-04-30T10:03:58.327Z</time></trkpt><trkpt lat="43.1813983" lon="11.40716"><ele>205.0</ele><time>2026-04-30T10:03:59.327Z</time></trkpt><trkpt lat="43.1814283" lon="11.4069083"><ele>207.0</ele><time>2026-04-30T10:04:00.326Z</time></trkpt><trkpt lat="43.1814167" lon="11.406655"><ele>209.0</ele><time>2026-04-30T10:04:01.327Z</time></trkpt><trkpt lat="43.1813883" lon="11.4064033"><ele>211.0</ele><time>2026-04-30T10:04:02.327Z</time></trkpt><trkpt lat="43.1813367" lon="11.4061483"><ele>210.66666666666666</ele><time>2026-04-30T10:04:03.327Z</time></trkpt><trkpt lat="43.181265" lon="11.405905"><ele>210.33333333333331</ele><time>2026-04-30T10:04:04.326Z</time></trkpt><trkpt lat="43.18117" lon="11.4056633"><ele>210.0</ele><time>2026-04-30T10:04:05.327Z</time></trkpt><trkpt lat="43.18106" lon="11.4054183"><ele>210.0</ele><time>2026-04-30T10:04:06.327Z</time></trkpt><trkpt lat="43.1809333" lon="11.40517"><ele>210.0</ele><time>2026-04-30T10:04:07.327Z</time></trkpt><trkpt lat="43.1808" lon="11.4049233"><ele>210.0</ele><time>2026-04-30T10:04:08.326Z</time></trkpt><trkpt lat="43.180635" lon="11.4046733"><ele>214.5</ele><time>2026-04-30T10:04:09.326Z</time></trkpt><trkpt lat="43.1804583" lon="11.4044217"><ele>219.0</ele><time>2026-04-30T10:04:10.326Z</time></trkpt><trkpt lat="43.180255" lon="11.404175"><ele>219.0</ele><time>2026-04-30T10:04:11.327Z</time></trkpt><trkpt lat="43.180065" lon="11.4039333"><ele>219.0</ele><time>2026-04-30T10:04:12.327Z</time></trkpt><trkpt lat="43.1798867" lon="11.40372"><ele>221.33333333333331</ele><time>2026-04-30T10:04:13.327Z</time></trkpt><trkpt lat="43.17973" lon="11.403525"><ele>223.66666666666666</ele><time>2026-04-30T10:04:14.326Z</time></trkpt><trkpt lat="43.17959" lon="11.403345"><ele>226.0</ele><time>2026-04-30T10:04:15.327Z</time></trkpt><trkpt lat="43.1794633" lon="11.40316"><ele>226.33333333333331</ele><time>2026-04-30T10:04:16.327Z</time></trkpt><trkpt lat="43.1793583" lon="11.4029517"><ele>226.66666666666669</ele><time>2026-04-30T10:04:17.326Z</time></trkpt><trkpt lat="43.1792717" lon="11.40272"><ele>227.0</ele><time>2026-04-30T10:04:18.326Z</time></trkpt><trkpt lat="43.1792117" lon="11.4024783"><ele>227.0</ele><time>2026-04-30T10:04:19.327Z</time></trkpt><trkpt lat="43.1791583" lon="11.40222"><ele>227.0</ele><time>2026-04-30T10:04:20.327Z</time></trkpt><trkpt lat="43.1790983" lon="11.40197"><ele>227.0</ele><time>2026-04-30T10:04:21.327Z</time></trkpt><trkpt lat="43.1790183" lon="11.40174"><ele>227.0</ele><time>2026-04-30T10:04:22.327Z</time></trkpt><trkpt lat="43.1789017" lon="11.4015233"><ele>227.0</ele><time>2026-04-30T10:04:23.327Z</time></trkpt><trkpt lat="43.178765" lon="11.4013183"><ele>227.0</ele><time>2026-04-30T10:04:24.326Z</time></trkpt><trkpt lat="43.1786083" lon="11.4011133"><ele>227.5</ele><time>2026-04-30T10:04:25.327Z</time></trkpt><trkpt lat="43.1784467" lon="11.4009"><ele>228.0</ele><time>2026-04-30T10:04:26.327Z</time></trkpt><trkpt lat="43.1782783" lon="11.4006833"><ele>229.0</ele><time>2026-04-30T10:04:27.326Z</time></trkpt><trkpt lat="43.178105" lon="11.4004483"><ele>230.0</ele><time>2026-04-30T10:04:28.327Z</time></trkpt><trkpt lat="43.17793" lon="11.4002217"><ele>230.0</ele><time>2026-04-30T10:04:29.327Z</time></trkpt><trkpt lat="43.1777517" lon="11.3999917"><ele>230.0</ele><time>2026-04-30T10:04:30.326Z</time></trkpt><trkpt lat="43.1775717" lon="11.3997633"><ele>230.5</ele><time>2026-04-30T10:04:31.326Z</time></trkpt><trkpt lat="43.177395" lon="11.3995367"><ele>231.0</ele><time>2026-04-30T10:04:32.326Z</time></trkpt><trkpt lat="43.1772167" lon="11.3993017"><ele>231.0</ele><time>2026-04-30T10:04:33.327Z</time></trkpt><trkpt lat="43.1770383" lon="11.399075"><ele>231.0</ele><time>2026-04-30T10:04:34.327Z</time></trkpt><trkpt lat="43.176865" lon="11.398845"><ele>232.5</ele><time>2026-04-30T10:04:35.327Z</time></trkpt><trkpt lat="43.17669" lon="11.39862"><ele>234.0</ele><time>2026-04-30T10:04:36.326Z</time></trkpt><trkpt lat="43.1765217" lon="11.398395"><ele>235.0</ele><time>2026-04-30T10:04:37.327Z</time></trkpt><trkpt lat="43.1763467" lon="11.3981767"><ele>236.0</ele><time>2026-04-30T10:04:38.327Z</time></trkpt><trkpt lat="43.1761733" lon="11.3979517"><ele>239.0</ele><time>2026-04-30T10:04:39.326Z</time></trkpt><trkpt lat="43.176005" lon="11.39773"><ele>242.0</ele><time>2026-04-30T10:04:40.326Z</time></trkpt><trkpt lat="43.1758333" lon="11.3975133"><ele>245.5</ele><time>2026-04-30T10:04:41.327Z</time></trkpt><trkpt lat="43.1756567" lon="11.39729"><ele>249.0</ele><time>2026-04-30T10:04:42.327Z</time></trkpt><trkpt lat="43.175485" lon="11.3970533"><ele>251.0</ele><time>2026-04-30T10:04:43.327Z</time></trkpt><trkpt lat="43.175305" lon="11.3968233"><ele>253.0</ele><time>2026-04-30T10:04:44.326Z</time></trkpt><trkpt lat="43.1751267" lon="11.3965917"><ele>253.0</ele><time>2026-04-30T10:04:45.327Z</time></trkpt><trkpt lat="43.174965" lon="11.3963783"><ele>253.0</ele><time>2026-04-30T10:04:46.326Z</time></trkpt><trkpt lat="43.1748267" lon="11.3961783"><ele>253.0</ele><time>2026-04-30T10:04:47.327Z</time></trkpt><trkpt lat="43.1746917" lon="11.3959983"><ele>256.66666666666663</ele><time>2026-04-30T10:04:48.326Z</time></trkpt><trkpt lat="43.17456" lon="11.395825"><ele>260.3333333333333</ele><time>2026-04-30T10:04:49.327Z</time></trkpt><trkpt lat="43.1744333" lon="11.3956567"><ele>264.0</ele><time>2026-04-30T10:04:50.326Z</time></trkpt><trkpt lat="43.1743067" lon="11.39549"><ele>264.5</ele><time>2026-04-30T10:04:51.327Z</time></trkpt><trkpt lat="43.1741867" lon="11.3953417"><ele>265.0</ele><time>2026-04-30T10:04:52.326Z</time></trkpt><trkpt lat="43.1740833" lon="11.395215"><ele>265.5</ele><time>2026-04-30T10:04:53.327Z</time></trkpt><trkpt lat="43.174005" lon="11.3951"><ele>266.0</ele><time>2026-04-30T10:04:54.327Z</time></trkpt><trkpt lat="43.1739583" lon="11.3949717"><ele>267.8</ele><time>2026-04-30T10:04:55.326Z</time></trkpt><trkpt lat="43.17394" lon="11.3948417"><ele>269.6</ele><time>2026-04-30T10:04:56.326Z</time></trkpt><trkpt lat="43.173935" lon="11.3947167"><ele>271.4</ele><time>2026-04-30T10:04:57.327Z</time></trkpt><trkpt lat="43.1739333" lon="11.394595"><ele>273.2</ele><time>2026-04-30T10:04:58.327Z</time></trkpt><trkpt lat="43.1739317" lon="11.394465"><ele>275.0</ele><time>2026-04-30T10:04:59.327Z</time></trkpt><trkpt lat="43.1739317" lon="11.39432"><ele>275.4</ele><time>2026-04-30T10:05:00.327Z</time></trkpt><trkpt lat="43.1739267" lon="11.3941683"><ele>275.8</ele><time>2026-04-30T10:05:01.327Z</time></trkpt><trkpt lat="43.1739233" lon="11.3940167"><ele>276.2</ele><time>2026-04-30T10:05:02.327Z</time></trkpt><trkpt lat="43.1739067" lon="11.3938633"><ele>276.6</ele><time>2026-04-30T10:05:03.326Z</time></trkpt><trkpt lat="43.17389" lon="11.39371"><ele>277.0</ele><time>2026-04-30T10:05:04.327Z</time></trkpt><trkpt lat="43.173875" lon="11.393555"><ele>277.8</ele><time>2026-04-30T10:05:05.327Z</time></trkpt><trkpt lat="43.17386" lon="11.3934067"><ele>278.6</ele><time>2026-04-30T10:05:06.327Z</time></trkpt><trkpt lat="43.1738367" lon="11.3932567"><ele>279.40000000000003</ele><time>2026-04-30T10:05:07.327Z</time></trkpt><trkpt lat="43.1738117" lon="11.3931033"><ele>280.2</ele><time>2026-04-30T10:05:08.327Z</time></trkpt><trkpt lat="43.1737867" lon="11.3929517"><ele>281.0</ele><time>2026-04-30T10:05:09.327Z</time></trkpt><trkpt lat="43.1737533" lon="11.3928"><ele>281.0</ele><time>2026-04-30T10:05:10.326Z</time></trkpt><trkpt lat="43.1737167" lon="11.392645"><ele>281.0</ele><time>2026-04-30T10:05:11.327Z</time></trkpt><trkpt lat="43.1736783" lon="11.3924967"><ele>281.0</ele><time>2026-04-30T10:05:12.327Z</time></trkpt><trkpt lat="43.1736467" lon="11.392345"><ele>281.0</ele><time>2026-04-30T10:05:13.326Z</time></trkpt><trkpt lat="43.1736167" lon="11.3922033"><ele>281.0</ele><time>2026-04-30T10:05:14.327Z</time></trkpt><trkpt lat="43.1735867" lon="11.3920667"><ele>281.0</ele><time>2026-04-30T10:05:15.327Z</time></trkpt><trkpt lat="43.1735567" lon="11.3919283"><ele>281.0</ele><time>2026-04-30T10:05:16.326Z</time></trkpt><trkpt lat="43.173525" lon="11.39179"><ele>281.0</ele><time>2026-04-30T10:05:17.327Z</time></trkpt><trkpt lat="43.1734967" lon="11.391645"><ele>281.0</ele><time>2026-04-30T10:05:18.327Z</time></trkpt><trkpt lat="43.17348" lon="11.3914967"><ele>281.0</ele><time>2026-04-30T10:05:19.327Z</time></trkpt><trkpt lat="43.1734717" lon="11.391355"><ele>281.0</ele><time>2026-04-30T10:05:20.327Z</time></trkpt><trkpt lat="43.17348" lon="11.391215"><ele>281.0</ele><time>2026-04-30T10:05:21.327Z</time></trkpt><trkpt lat="43.1734883" lon="11.3910667"><ele>281.0</ele><time>2026-04-30T10:05:22.327Z</time></trkpt><trkpt lat="43.173495" lon="11.3909233"><ele>281.0</ele><time>2026-04-30T10:05:23.327Z</time></trkpt><trkpt lat="43.1735" lon="11.390785"><ele>281.1666666666667</ele><time>2026-04-30T10:05:24.327Z</time></trkpt><trkpt lat="43.1735067" lon="11.3906567"><ele>281.33333333333337</ele><time>2026-04-30T10:05:25.326Z</time></trkpt><trkpt lat="43.17352" lon="11.390535"><ele>281.5</ele><time>2026-04-30T10:05:26.327Z</time></trkpt><trkpt lat="43.1735367" lon="11.3904183"><ele>281.6666666666667</ele><time>2026-04-30T10:05:27.327Z</time></trkpt><trkpt lat="43.1735533" lon="11.3903117"><ele>281.8333333333333</ele><time>2026-04-30T10:05:28.327Z</time></trkpt><trkpt lat="43.17357" lon="11.3902267"><ele>282.0</ele><time>2026-04-30T10:05:29.327Z</time></trkpt><trkpt lat="43.173585" lon="11.3900967"><ele>282.6666666666667</ele><time>2026-04-30T10:05:31.327Z</time></trkpt><trkpt lat="43.173555" lon="11.3900017"><ele>283.3333333333333</ele><time>2026-04-30T10:05:34.326Z</time></trkpt><trkpt lat="43.1734817" lon="11.3899983"><ele>284.0</ele><time>2026-04-30T10:05:37.327Z</time></trkpt><trkpt lat="43.1734033" lon="11.3900967"><ele>284.66666666666663</ele><time>2026-04-30T10:05:39.327Z</time></trkpt><trkpt lat="43.1733667" lon="11.3901717"><ele>285.3333333333333</ele><time>2026-04-30T10:05:40.327Z</time></trkpt><trkpt lat="43.1733067" lon="11.3902467"><ele>286.0</ele><time>2026-04-30T10:05:41.327Z</time></trkpt><trkpt lat="43.1732517" lon="11.39032"><ele>286.0</ele><time>2026-04-30T10:05:42.327Z</time></trkpt><trkpt lat="43.1731917" lon="11.3903933"><ele>286.0</ele><time>2026-04-30T10:05:43.327Z</time></trkpt><trkpt lat="43.17313" lon="11.390475"><ele>286.0</ele><time>2026-04-30T10:05:44.327Z</time></trkpt><trkpt lat="43.1730517" lon="11.390565"><ele>286.0</ele><time>2026-04-30T10:05:45.327Z</time></trkpt><trkpt lat="43.1729667" lon="11.3906383"><ele>286.0</ele><time>2026-04-30T10:05:46.326Z</time></trkpt><trkpt lat="43.1728767" lon="11.390705"><ele>289.0</ele><time>2026-04-30T10:05:47.327Z</time></trkpt><trkpt lat="43.172775" lon="11.3907667"><ele>292.0</ele><time>2026-04-30T10:05:48.327Z</time></trkpt><trkpt lat="43.1726617" lon="11.3908283"><ele>295.0</ele><time>2026-04-30T10:05:49.327Z</time></trkpt><trkpt lat="43.172545" lon="11.3908833"><ele>298.0</ele><time>2026-04-30T10:05:50.327Z</time></trkpt><trkpt lat="43.17243" lon="11.39093"><ele>299.4</ele><time>2026-04-30T10:05:51.327Z</time></trkpt><trkpt lat="43.1723167" lon="11.39098"><ele>300.8</ele><time>2026-04-30T10:05:52.326Z</time></trkpt><trkpt lat="43.1722167" lon="11.3910283"><ele>302.2</ele><time>2026-04-30T10:05:53.327Z</time></trkpt><trkpt lat="43.172115" lon="11.3910767"><ele>303.6</ele><time>2026-04-30T10:05:54.326Z</time></trkpt><trkpt lat="43.1720233" lon="11.3911283"><ele>305.0</ele><time>2026-04-30T10:05:55.326Z</time></trkpt><trkpt lat="43.17194" lon="11.3911733"><ele>305.0</ele><time>2026-04-30T10:05:56.327Z</time></trkpt><trkpt lat="43.1718533" lon="11.3912017"><ele>305.0</ele><time>2026-04-30T10:05:57.327Z</time></trkpt><trkpt lat="43.1717533" lon="11.3912367"><ele>305.0</ele><time>2026-04-30T10:05:58.327Z</time></trkpt><trkpt lat="43.1716667" lon="11.3912683"><ele>305.0</ele><time>2026-04-30T10:05:59.327Z</time></trkpt><trkpt lat="43.1715867" lon="11.3912867"><ele>305.0</ele><time>2026-04-30T10:06:00.327Z</time></trkpt><trkpt lat="43.171505" lon="11.3912883"><ele>305.0</ele><time>2026-04-30T10:06:01.327Z</time></trkpt><trkpt lat="43.1714267" lon="11.3912917"><ele>304.5</ele><time>2026-04-30T10:06:02.326Z</time></trkpt><trkpt lat="43.17135" lon="11.3912917"><ele>304.0</ele><time>2026-04-30T10:06:03.326Z</time></trkpt><trkpt lat="43.17127" lon="11.3912883"><ele>303.5</ele><time>2026-04-30T10:06:04.327Z</time></trkpt><trkpt lat="43.1711917" lon="11.3912733"><ele>303.0</ele><time>2026-04-30T10:06:05.326Z</time></trkpt><trkpt lat="43.17112" lon="11.39124"><ele>302.5</ele><time>2026-04-30T10:06:06.327Z</time></trkpt><trkpt lat="43.1710467" lon="11.3912017"><ele>302.0</ele><time>2026-04-30T10:06:07.327Z</time></trkpt><trkpt lat="43.1709767" lon="11.39116"><ele>302.0</ele><time>2026-04-30T10:06:08.327Z</time></trkpt><trkpt lat="43.1709117" lon="11.3911183"><ele>302.0</ele><time>2026-04-30T10:06:09.326Z</time></trkpt><trkpt lat="43.1708483" lon="11.3910833"><ele>302.0</ele><time>2026-04-30T10:06:10.327Z</time></trkpt><trkpt lat="43.1707567" lon="11.3910167"><ele>302.0</ele><time>2026-04-30T10:06:12.327Z</time></trkpt><trkpt lat="43.1706733" lon="11.3909733"><ele>302.0</ele><time>2026-04-30T10:06:14.327Z</time></trkpt><trkpt lat="43.1706" lon="11.3909283"><ele>302.0</ele><time>2026-04-30T10:06:16.327Z</time></trkpt><trkpt lat="43.1705417" lon="11.3908917"><ele>302.0</ele><time>2026-04-30T10:06:18.327Z</time></trkpt><trkpt lat="43.1704733" lon="11.3908517"><ele>302.0</ele><time>2026-04-30T10:06:23.327Z</time></trkpt><trkpt lat="43.1705117" lon="11.3909517"><ele>302.0</ele><time>2026-04-30T10:06:39.327Z</time></trkpt><trkpt lat="43.1705667" lon="11.3910017"><ele>302.0</ele><time>2026-04-30T10:06:42.326Z</time></trkpt><trkpt lat="43.1706317" lon="11.3909567"><ele>302.0</ele><time>2026-04-30T10:06:45.327Z</time></trkpt></trkseg></trk></gpx>